<?xml version='1.0' encoding='UTF-8'?><gpx version="1.1" creator="JPX - https://github.com/jenetics/jpx" xmlns="http://www.topografix.com/GPX/1/1"><trk><trkseg><trkpt lat="21.86352811445555" lon="-102.32256953495951"><ele>1836.0</ele><time>2026-03-22T13:00:25.023Z</time></trkpt><trkpt lat="21.863561416604696" lon="-102.32249634912712"><ele>1836.0</ele><time>2026-03-22T13:00:29.023Z</time></trkpt><trkpt lat="21.863601674893832" lon="-102.32241961725276"><ele>1836.0</ele><time>2026-03-22T13:00:33.023Z</time></trkpt><trkpt lat="21.863637294148617" lon="-102.32234037993435"><ele>1836.0</ele><time>2026-03-22T13:00:36.023Z</time></trkpt><trkpt lat="21.86368818598173" lon="-102.3222415474937"><ele>1836.0</ele><time>2026-03-22T13:00:38.023Z</time></trkpt><trkpt lat="21.863716956892343" lon="-102.32217974934281"><ele>1836.0</ele><time>2026-03-22T13:00:39.023Z</time></trkpt><trkpt lat="21.86374969301263" lon="-102.32204672326337"><ele>1835.8333333333333</ele><time>2026-03-22T13:00:41.023Z</time></trkpt><trkpt lat="21.86374161816667" lon="-102.32197043612861"><ele>1835.6666666666665</ele><time>2026-03-22T13:00:42.023Z</time></trkpt><trkpt lat="21.863704494734765" lon="-102.32191076306003"><ele>1835.5</ele><time>2026-03-22T13:00:43.023Z</time></trkpt><trkpt lat="21.863652126631912" lon="-102.32186853317897"><ele>1835.3333333333333</ele><time>2026-03-22T13:00:44.023Z</time></trkpt><trkpt lat="21.863588443916885" lon="-102.32186708781454"><ele>1835.1666666666665</ele><time>2026-03-22T13:00:45.023Z</time></trkpt><trkpt lat="21.863469915572395" lon="-102.32185528612159"><ele>1835.0</ele><time>2026-03-22T13:00:47.023Z</time></trkpt><trkpt lat="21.863376037173545" lon="-102.32183227010735"><ele>1834.9999999999998</ele><time>2026-03-22T13:00:49.023Z</time></trkpt><trkpt lat="21.863287104802946" lon="-102.32178083612169"><ele>1835.0</ele><time>2026-03-22T13:00:51.023Z</time></trkpt><trkpt lat="21.86325064962236" lon="-102.32171344958412"><ele>1835.0</ele><time>2026-03-22T13:00:52.023Z</time></trkpt><trkpt lat="21.863219985450833" lon="-102.32157932525955"><ele>1835.0</ele><time>2026-03-22T13:00:54.023Z</time></trkpt><trkpt lat="21.863231295608905" lon="-102.32150313422365"><ele>1834.9999999999998</ele><time>2026-03-22T13:00:55.023Z</time></trkpt><trkpt lat="21.863259446526975" lon="-102.32144055094604"><ele>1835.0</ele><time>2026-03-22T13:00:56.023Z</time></trkpt><trkpt lat="21.86330286970215" lon="-102.32138751797673"><ele>1835.3333333333333</ele><time>2026-03-22T13:00:57.023Z</time></trkpt><trkpt lat="21.86335571544073" lon="-102.3213440332632"><ele>1835.6666666666665</ele><time>2026-03-22T13:00:58.023Z</time></trkpt><trkpt lat="21.863416373221117" lon="-102.32131614167037"><ele>1836.0</ele><time>2026-03-22T13:00:59.023Z</time></trkpt><trkpt lat="21.863544002104288" lon="-102.32132544031941"><ele>1836.3333333333335</ele><time>2026-03-22T13:01:01.023Z</time></trkpt><trkpt lat="21.863606582373805" lon="-102.32135666296237"><ele>1836.6666666666667</ele><time>2026-03-22T13:01:02.023Z</time></trkpt><trkpt lat="21.86366599638982" lon="-102.3214035803597"><ele>1837.0</ele><time>2026-03-22T13:01:03.023Z</time></trkpt><trkpt lat="21.86371516208612" lon="-102.32145368789077"><ele>1837.1666666666667</ele><time>2026-03-22T13:01:04.023Z</time></trkpt><trkpt lat="21.863755165706667" lon="-102.32151180485081"><ele>1837.3333333333335</ele><time>2026-03-22T13:01:05.023Z</time></trkpt><trkpt lat="21.863856441539955" lon="-102.32159277503042"><ele>1837.5</ele><time>2026-03-22T13:01:07.022Z</time></trkpt><trkpt lat="21.863917653032853" lon="-102.32161850796166"><ele>1837.6666666666665</ele><time>2026-03-22T13:01:08.022Z</time></trkpt><trkpt lat="21.863982621579066" lon="-102.3216368885063"><ele>1837.8333333333333</ele><time>2026-03-22T13:01:09.022Z</time></trkpt><trkpt lat="21.864090560609306" lon="-102.32169047475571"><ele>1838.0</ele><time>2026-03-22T13:01:11.022Z</time></trkpt><trkpt lat="21.864155654471055" lon="-102.32174638127725"><ele>1837.9999999999998</ele><time>2026-03-22T13:01:13.022Z</time></trkpt><trkpt lat="21.864161164447875" lon="-102.32183204440413"><ele>1838.0</ele><time>2026-03-22T13:01:15.022Z</time></trkpt><trkpt lat="21.86409476591659" lon="-102.32195493652831"><ele>1838.0</ele><time>2026-03-22T13:01:17.022Z</time></trkpt><trkpt lat="21.8640651284889" lon="-102.3220220919561"><ele>1838.0</ele><time>2026-03-22T13:01:18.025Z</time></trkpt><trkpt lat="21.86402788871447" lon="-102.32209534776034"><ele>1837.9999999999998</ele><time>2026-03-22T13:01:19.025Z</time></trkpt><trkpt lat="21.863996224855516" lon="-102.32216490364348"><ele>1838.0</ele><time>2026-03-22T13:01:20.025Z</time></trkpt><trkpt lat="21.863945778448688" lon="-102.32224704494607"><ele>1837.6000000000001</ele><time>2026-03-22T13:01:21.025Z</time></trkpt><trkpt lat="21.86390169427641" lon="-102.32233005758924"><ele>1837.2000000000003</ele><time>2026-03-22T13:01:22.024Z</time></trkpt><trkpt lat="21.863860327559514" lon="-102.32242330470318"><ele>1836.8</ele><time>2026-03-22T13:01:23.024Z</time></trkpt><trkpt lat="21.86382056016488" lon="-102.32250613103527"><ele>1836.4</ele><time>2026-03-22T13:01:24.025Z</time></trkpt><trkpt lat="21.86378499619294" lon="-102.32259252229554"><ele>1836.0</ele><time>2026-03-22T13:01:25.025Z</time></trkpt><trkpt lat="21.863740733125766" lon="-102.32268453946874"><ele>1836.0</ele><time>2026-03-22T13:01:26.025Z</time></trkpt><trkpt lat="21.863693988273692" lon="-102.3227747934312"><ele>1836.0</ele><time>2026-03-22T13:01:27.025Z</time></trkpt><trkpt lat="21.863648348748384" lon="-102.3228639239163"><ele>1836.0</ele><time>2026-03-22T13:01:28.025Z</time></trkpt><trkpt lat="21.863605689515403" lon="-102.32296165048841"><ele>1836.0</ele><time>2026-03-22T13:01:29.025Z</time></trkpt><trkpt lat="21.8635627163553" lon="-102.32306287716132"><ele>1836.0</ele><time>2026-03-22T13:01:30.025Z</time></trkpt><trkpt lat="21.86351721742905" lon="-102.32315685706827"><ele>1837.0</ele><time>2026-03-22T13:01:31.025Z</time></trkpt><trkpt lat="21.86347038885485" lon="-102.32325812162048"><ele>1838.0</ele><time>2026-03-22T13:01:32.025Z</time></trkpt><trkpt lat="21.8634247772433" lon="-102.32335477176419"><ele>1839.0</ele><time>2026-03-22T13:01:33.025Z</time></trkpt><trkpt lat="21.86337431013098" lon="-102.32345982229323"><ele>1840.0</ele><time>2026-03-22T13:01:34.025Z</time></trkpt><trkpt lat="21.863320837446704" lon="-102.32357162967593"><ele>1841.0</ele><time>2026-03-22T13:01:35.025Z</time></trkpt><trkpt lat="21.863274143297225" lon="-102.3236773490804"><ele>1841.0</ele><time>2026-03-22T13:01:36.025Z</time></trkpt><trkpt lat="21.86322209006339" lon="-102.32378991525621"><ele>1841.0</ele><time>2026-03-22T13:01:37.025Z</time></trkpt><trkpt lat="21.86322306945612" lon="-102.32393552340982"><ele>1841.0</ele><time>2026-03-22T13:01:38.025Z</time></trkpt><trkpt lat="21.863130823613734" lon="-102.32402407200414"><ele>1841.0</ele><time>2026-03-22T13:01:39.025Z</time></trkpt><trkpt lat="21.86307526317104" lon="-102.32414046718115"><ele>1841.5</ele><time>2026-03-22T13:01:40.025Z</time></trkpt><trkpt lat="21.863026967708404" lon="-102.32425686071991"><ele>1842.0</ele><time>2026-03-22T13:01:41.025Z</time></trkpt><trkpt lat="21.862976092416986" lon="-102.32437769261213"><ele>1842.5</ele><time>2026-03-22T13:01:42.025Z</time></trkpt><trkpt lat="21.862926385797838" lon="-102.3244941879148"><ele>1843.0</ele><time>2026-03-22T13:01:43.025Z</time></trkpt><trkpt lat="21.862884115429086" lon="-102.32460523181976"><ele>1843.0</ele><time>2026-03-22T13:01:44.025Z</time></trkpt><trkpt lat="21.86284465116025" lon="-102.32471510269146"><ele>1843.0</ele><time>2026-03-22T13:01:45.025Z</time></trkpt><trkpt lat="21.86280266082064" lon="-102.32482255743136"><ele>1843.0</ele><time>2026-03-22T13:01:46.025Z</time></trkpt><trkpt lat="21.862755511645002" lon="-102.32493920134948"><ele>1843.0</ele><time>2026-03-22T13:01:47.025Z</time></trkpt><trkpt lat="21.86271419724229" lon="-102.32506006639487"><ele>1842.75</ele><time>2026-03-22T13:01:48.025Z</time></trkpt><trkpt lat="21.862673160815618" lon="-102.32517665236706"><ele>1842.5</ele><time>2026-03-22T13:01:49.025Z</time></trkpt><trkpt lat="21.862625693852607" lon="-102.32529468707725"><ele>1842.25</ele><time>2026-03-22T13:01:50.025Z</time></trkpt><trkpt lat="21.86258484215141" lon="-102.32540845841585"><ele>1842.0</ele><time>2026-03-22T13:01:51.025Z</time></trkpt><trkpt lat="21.862546129382995" lon="-102.32552686595342"><ele>1842.3999999999999</ele><time>2026-03-22T13:01:52.025Z</time></trkpt><trkpt lat="21.862507378385118" lon="-102.32564937645083"><ele>1842.7999999999997</ele><time>2026-03-22T13:01:53.025Z</time></trkpt><trkpt lat="21.862475024155273" lon="-102.32575946535798"><ele>1843.2</ele><time>2026-03-22T13:01:54.025Z</time></trkpt><trkpt lat="21.862437846262484" lon="-102.32587393510869"><ele>1843.6</ele><time>2026-03-22T13:01:55.025Z</time></trkpt><trkpt lat="21.862412340532426" lon="-102.32598268686593"><ele>1844.0</ele><time>2026-03-22T13:01:56.025Z</time></trkpt><trkpt lat="21.862411405091176" lon="-102.32609666876296"><ele>1844.0</ele><time>2026-03-22T13:01:57.025Z</time></trkpt><trkpt lat="21.86239976110727" lon="-102.326198216837"><ele>1844.0</ele><time>2026-03-22T13:01:58.025Z</time></trkpt><trkpt lat="21.862392313523976" lon="-102.32629806059981"><ele>1844.0</ele><time>2026-03-22T13:01:59.025Z</time></trkpt><trkpt lat="21.862386126706074" lon="-102.32640399435554"><ele>1844.0</ele><time>2026-03-22T13:02:00.025Z</time></trkpt><trkpt lat="21.86238153790848" lon="-102.32650820451009"><ele>1844.0</ele><time>2026-03-22T13:02:01.025Z</time></trkpt><trkpt lat="21.862379900275336" lon="-102.3266137334215"><ele>1844.6</ele><time>2026-03-22T13:02:02.025Z</time></trkpt><trkpt lat="21.862379694865343" lon="-102.32671658830562"><ele>1845.2</ele><time>2026-03-22T13:02:03.025Z</time></trkpt><trkpt lat="21.8623535717486" lon="-102.32682069276494"><ele>1845.7999999999997</ele><time>2026-03-22T13:02:04.025Z</time></trkpt><trkpt lat="21.862361780153954" lon="-102.32691901113037"><ele>1846.3999999999999</ele><time>2026-03-22T13:02:05.025Z</time></trkpt><trkpt lat="21.862395752083856" lon="-102.3270183790015"><ele>1847.0</ele><time>2026-03-22T13:02:06.025Z</time></trkpt><trkpt lat="21.8624063868273" lon="-102.32711642425045"><ele>1847.0</ele><time>2026-03-22T13:02:07.025Z</time></trkpt><trkpt lat="21.862416669217424" lon="-102.32721238357665"><ele>1846.9999999999998</ele><time>2026-03-22T13:02:08.025Z</time></trkpt><trkpt lat="21.86240415589062" lon="-102.32731006724337"><ele>1846.9999999999998</ele><time>2026-03-22T13:02:09.025Z</time></trkpt><trkpt lat="21.86242033644251" lon="-102.32741610462509"><ele>1847.0</ele><time>2026-03-22T13:02:10.025Z</time></trkpt><trkpt lat="21.862435702431558" lon="-102.32752451020109"><ele>1847.0</ele><time>2026-03-22T13:02:11.025Z</time></trkpt><trkpt lat="21.862447087838667" lon="-102.32762057003474"><ele>1846.8</ele><time>2026-03-22T13:02:12.025Z</time></trkpt><trkpt lat="21.86246144375112" lon="-102.32771342319289"><ele>1846.6</ele><time>2026-03-22T13:02:13.025Z</time></trkpt><trkpt lat="21.862478712107137" lon="-102.32781793310171"><ele>1846.3999999999999</ele><time>2026-03-22T13:02:14.025Z</time></trkpt><trkpt lat="21.8624918245333" lon="-102.3279209614411"><ele>1846.1999999999998</ele><time>2026-03-22T13:02:15.025Z</time></trkpt><trkpt lat="21.86250510369607" lon="-102.32802053554998"><ele>1846.0</ele><time>2026-03-22T13:02:16.025Z</time></trkpt><trkpt lat="21.862515588876317" lon="-102.32812089811108"><ele>1846.0</ele><time>2026-03-22T13:02:17.025Z</time></trkpt><trkpt lat="21.8625290545736" lon="-102.32822260018632"><ele>1846.0</ele><time>2026-03-22T13:02:18.025Z</time></trkpt><trkpt lat="21.86254037375376" lon="-102.32832794149283"><ele>1846.0</ele><time>2026-03-22T13:02:19.025Z</time></trkpt><trkpt lat="21.862552707840095" lon="-102.32843229369158"><ele>1846.0</ele><time>2026-03-22T13:02:20.025Z</time></trkpt><trkpt lat="21.86256861548124" lon="-102.32853033993078"><ele>1846.0</ele><time>2026-03-22T13:02:21.025Z</time></trkpt><trkpt lat="21.862584752188322" lon="-102.32863524747808"><ele>1846.0</ele><time>2026-03-22T13:02:22.025Z</time></trkpt><trkpt lat="21.862599776901995" lon="-102.32873368300243"><ele>1846.0</ele><time>2026-03-22T13:02:23.025Z</time></trkpt><trkpt lat="21.862609836025715" lon="-102.32883599525788"><ele>1846.0</ele><time>2026-03-22T13:02:24.025Z</time></trkpt><trkpt lat="21.86262943139842" lon="-102.32893771258234"><ele>1846.0</ele><time>2026-03-22T13:02:25.025Z</time></trkpt><trkpt lat="21.86264307032685" lon="-102.32903324066609"><ele>1846.0</ele><time>2026-03-22T13:02:26.025Z</time></trkpt><trkpt lat="21.862660635671773" lon="-102.32913271209702"><ele>1846.6</ele><time>2026-03-22T13:02:27.025Z</time></trkpt><trkpt lat="21.862668420298988" lon="-102.32923289513747"><ele>1847.1999999999998</ele><time>2026-03-22T13:02:28.025Z</time></trkpt><trkpt lat="21.862681123847338" lon="-102.3293317543577"><ele>1847.8000000000002</ele><time>2026-03-22T13:02:29.025Z</time></trkpt><trkpt lat="21.862695192477613" lon="-102.3294316471447"><ele>1848.4</ele><time>2026-03-22T13:02:30.025Z</time></trkpt><trkpt lat="21.86271012878747" lon="-102.32953170909147"><ele>1849.0</ele><time>2026-03-22T13:02:31.025Z</time></trkpt><trkpt lat="21.86271939326968" lon="-102.32963549945363"><ele>1848.4</ele><time>2026-03-22T13:02:32.025Z</time></trkpt><trkpt lat="21.86273174395989" lon="-102.32973770915251"><ele>1847.8000000000002</ele><time>2026-03-22T13:02:33.025Z</time></trkpt><trkpt lat="21.862749685925554" lon="-102.32983318024826"><ele>1847.1999999999998</ele><time>2026-03-22T13:02:34.025Z</time></trkpt><trkpt lat="21.8627653285693" lon="-102.3299369940535"><ele>1846.6</ele><time>2026-03-22T13:02:35.025Z</time></trkpt><trkpt lat="21.862776335083105" lon="-102.3300373323014"><ele>1846.0</ele><time>2026-03-22T13:02:36.025Z</time></trkpt><trkpt lat="21.862781859748022" lon="-102.33013923705258"><ele>1846.0</ele><time>2026-03-22T13:02:37.025Z</time></trkpt><trkpt lat="21.86278850771851" lon="-102.33024328854476"><ele>1846.0</ele><time>2026-03-22T13:02:38.025Z</time></trkpt><trkpt lat="21.86280363471676" lon="-102.33034510591544"><ele>1846.0</ele><time>2026-03-22T13:02:39.025Z</time></trkpt><trkpt lat="21.86282307546951" lon="-102.33045147280201"><ele>1846.0</ele><time>2026-03-22T13:02:40.025Z</time></trkpt><trkpt lat="21.862838303639933" lon="-102.33055987162352"><ele>1846.0</ele><time>2026-03-22T13:02:41.025Z</time></trkpt><trkpt lat="21.86285215863897" lon="-102.33067436112721"><ele>1846.8</ele><time>2026-03-22T13:02:42.025Z</time></trkpt><trkpt lat="21.862861893652227" lon="-102.33077999185842"><ele>1847.6</ele><time>2026-03-22T13:02:43.025Z</time></trkpt><trkpt lat="21.862874524596478" lon="-102.33088855269618"><ele>1848.4</ele><time>2026-03-22T13:02:44.025Z</time></trkpt><trkpt lat="21.862889400035602" lon="-102.33099024153712"><ele>1849.2</ele><time>2026-03-22T13:02:45.025Z</time></trkpt><trkpt lat="21.86290497044988" lon="-102.33108944493847"><ele>1850.0</ele><time>2026-03-22T13:02:46.025Z</time></trkpt><trkpt lat="21.862919211430867" lon="-102.331192109518"><ele>1850.0</ele><time>2026-03-22T13:02:47.025Z</time></trkpt><trkpt lat="21.86293119506734" lon="-102.33129717385856"><ele>1850.0</ele><time>2026-03-22T13:02:48.025Z</time></trkpt><trkpt lat="21.862942460440525" lon="-102.33140496228316"><ele>1850.0</ele><time>2026-03-22T13:02:49.025Z</time></trkpt><trkpt lat="21.86295956605143" lon="-102.33151004092092"><ele>1850.0</ele><time>2026-03-22T13:02:50.025Z</time></trkpt><trkpt lat="21.86297368249513" lon="-102.33161230006453"><ele>1850.0</ele><time>2026-03-22T13:02:51.025Z</time></trkpt><trkpt lat="21.862985287027893" lon="-102.33171559263764"><ele>1850.4</ele><time>2026-03-22T13:02:52.025Z</time></trkpt><trkpt lat="21.862996556170355" lon="-102.33182238611997"><ele>1850.8</ele><time>2026-03-22T13:02:53.025Z</time></trkpt><trkpt lat="21.86300605827127" lon="-102.3319250315698"><ele>1851.1999999999998</ele><time>2026-03-22T13:02:54.025Z</time></trkpt><trkpt lat="21.863023892904966" lon="-102.33201399988657"><ele>1851.6</ele><time>2026-03-22T13:02:55.025Z</time></trkpt><trkpt lat="21.863035775688292" lon="-102.33211330965382"><ele>1852.0</ele><time>2026-03-22T13:02:56.025Z</time></trkpt><trkpt lat="21.863050586030152" lon="-102.33220814650205"><ele>1852.1666666666667</ele><time>2026-03-22T13:02:57.025Z</time></trkpt><trkpt lat="21.863064958590915" lon="-102.33229720863027"><ele>1852.3333333333335</ele><time>2026-03-22T13:02:58.025Z</time></trkpt><trkpt lat="21.86307469142892" lon="-102.3323832520837"><ele>1852.5</ele><time>2026-03-22T13:02:59.025Z</time></trkpt><trkpt lat="21.863082624666728" lon="-102.3324774790013"><ele>1852.6666666666665</ele><time>2026-03-22T13:03:00.025Z</time></trkpt><trkpt lat="21.86309404452775" lon="-102.33256465135584"><ele>1852.8333333333333</ele><time>2026-03-22T13:03:01.025Z</time></trkpt><trkpt lat="21.863107900017106" lon="-102.3326492567309"><ele>1853.0</ele><time>2026-03-22T13:03:02.025Z</time></trkpt><trkpt lat="21.86311866108118" lon="-102.33273401172501"><ele>1852.9999999999998</ele><time>2026-03-22T13:03:03.025Z</time></trkpt><trkpt lat="21.863132248930654" lon="-102.3328221278948"><ele>1853.0</ele><time>2026-03-22T13:03:04.025Z</time></trkpt><trkpt lat="21.86314539686654" lon="-102.33290922199689"><ele>1853.0</ele><time>2026-03-22T13:03:05.025Z</time></trkpt><trkpt lat="21.863159474936744" lon="-102.33299494889613"><ele>1853.0</ele><time>2026-03-22T13:03:06.025Z</time></trkpt><trkpt lat="21.863166995830632" lon="-102.33308292062442"><ele>1852.9999999999998</ele><time>2026-03-22T13:03:07.025Z</time></trkpt><trkpt lat="21.86317958718271" lon="-102.33316365212579"><ele>1853.0</ele><time>2026-03-22T13:03:08.025Z</time></trkpt><trkpt lat="21.86319635884701" lon="-102.33324215503637"><ele>1853.8571428571427</ele><time>2026-03-22T13:03:09.025Z</time></trkpt><trkpt lat="21.863216355410444" lon="-102.33331814319835"><ele>1854.7142857142858</ele><time>2026-03-22T13:03:10.025Z</time></trkpt><trkpt lat="21.863236473226777" lon="-102.333395801072"><ele>1855.5714285714284</ele><time>2026-03-22T13:03:11.025Z</time></trkpt><trkpt lat="21.86325940388859" lon="-102.33347159311822"><ele>1856.4285714285713</ele><time>2026-03-22T13:03:12.025Z</time></trkpt><trkpt lat="21.863282686564578" lon="-102.33354406436261"><ele>1857.2857142857142</ele><time>2026-03-22T13:03:13.025Z</time></trkpt><trkpt lat="21.86330344589924" lon="-102.33361091399459"><ele>1858.142857142857</ele><time>2026-03-22T13:03:14.025Z</time></trkpt><trkpt lat="21.86333280989096" lon="-102.33369125474248"><ele>1859.0</ele><time>2026-03-22T13:03:15.025Z</time></trkpt><trkpt lat="21.863359598358876" lon="-102.33376956844606"><ele>1859.0</ele><time>2026-03-22T13:03:16.025Z</time></trkpt><trkpt lat="21.86339128834205" lon="-102.3338417534036"><ele>1858.9999999999998</ele><time>2026-03-22T13:03:17.025Z</time></trkpt><trkpt lat="21.863419057599" lon="-102.33390623120135"><ele>1859.0</ele><time>2026-03-22T13:03:18.025Z</time></trkpt><trkpt lat="21.86345611519756" lon="-102.33398036591593"><ele>1859.0</ele><time>2026-03-22T13:03:19.025Z</time></trkpt><trkpt lat="21.863491270970226" lon="-102.33404585469292"><ele>1858.9999999999998</ele><time>2026-03-22T13:03:20.025Z</time></trkpt><trkpt lat="21.863527491461802" lon="-102.33411301585487"><ele>1859.0</ele><time>2026-03-22T13:03:21.025Z</time></trkpt><trkpt lat="21.863566725375193" lon="-102.33417497394156"><ele>1859.0</ele><time>2026-03-22T13:03:22.025Z</time></trkpt><trkpt lat="21.863609597823594" lon="-102.33424314104536"><ele>1858.7142857142856</ele><time>2026-03-22T13:03:23.025Z</time></trkpt><trkpt lat="21.863650078198273" lon="-102.33430761260968"><ele>1858.428571428571</ele><time>2026-03-22T13:03:24.026Z</time></trkpt><trkpt lat="21.863693991926343" lon="-102.33436871560735"><ele>1858.142857142857</ele><time>2026-03-22T13:03:25.026Z</time></trkpt><trkpt lat="21.863738080020305" lon="-102.33442199157355"><ele>1857.8571428571427</ele><time>2026-03-22T13:03:26.026Z</time></trkpt><trkpt lat="21.863790433414067" lon="-102.33447071921911"><ele>1857.5714285714284</ele><time>2026-03-22T13:03:27.027Z</time></trkpt><trkpt lat="21.86385152484323" lon="-102.33451636548793"><ele>1857.2857142857142</ele><time>2026-03-22T13:03:28.027Z</time></trkpt><trkpt lat="21.863911037503478" lon="-102.33453885466467"><ele>1857.0</ele><time>2026-03-22T13:03:29.027Z</time></trkpt><trkpt lat="21.86398719339125" lon="-102.33452544957046"><ele>1857.0</ele><time>2026-03-22T13:03:30.026Z</time></trkpt><trkpt lat="21.86405764190372" lon="-102.33448403619558"><ele>1857.0</ele><time>2026-03-22T13:03:31.026Z</time></trkpt><trkpt lat="21.86411010767191" lon="-102.33440987575828"><ele>1857.0</ele><time>2026-03-22T13:03:32.026Z</time></trkpt><trkpt lat="21.864147448618926" lon="-102.33432164466129"><ele>1857.0</ele><time>2026-03-22T13:03:33.026Z</time></trkpt><trkpt lat="21.864189527231467" lon="-102.334237507563"><ele>1857.0</ele><time>2026-03-22T13:03:34.027Z</time></trkpt><trkpt lat="21.864236889575636" lon="-102.33415228650294"><ele>1857.0</ele><time>2026-03-22T13:03:35.027Z</time></trkpt><trkpt lat="21.8642801842338" lon="-102.33405919327821"><ele>1855.25</ele><time>2026-03-22T13:03:36.027Z</time></trkpt><trkpt lat="21.864328296583686" lon="-102.33395916152523"><ele>1853.5</ele><time>2026-03-22T13:03:37.027Z</time></trkpt><trkpt lat="21.864379900895123" lon="-102.3338504228945"><ele>1851.75</ele><time>2026-03-22T13:03:38.027Z</time></trkpt><trkpt lat="21.864427922518967" lon="-102.33373711595385"><ele>1850.0</ele><time>2026-03-22T13:03:39.027Z</time></trkpt><trkpt lat="21.864477994908054" lon="-102.3336171128224"><ele>1849.75</ele><time>2026-03-22T13:03:40.027Z</time></trkpt><trkpt lat="21.86452902542497" lon="-102.33350507640398"><ele>1849.5</ele><time>2026-03-22T13:03:41.027Z</time></trkpt><trkpt lat="21.864594885329588" lon="-102.33339012633608"><ele>1849.25</ele><time>2026-03-22T13:03:42.027Z</time></trkpt><trkpt lat="21.864660811541434" lon="-102.3332595178285"><ele>1849.0</ele><time>2026-03-22T13:03:43.027Z</time></trkpt><trkpt lat="21.864721645099756" lon="-102.33312575523078"><ele>1849.5</ele><time>2026-03-22T13:03:44.026Z</time></trkpt><trkpt lat="21.864784675514787" lon="-102.33299713250655"><ele>1850.0</ele><time>2026-03-22T13:03:45.026Z</time></trkpt><trkpt lat="21.864856931651694" lon="-102.33286253154249"><ele>1850.5</ele><time>2026-03-22T13:03:46.026Z</time></trkpt><trkpt lat="21.864926439499097" lon="-102.33272628711951"><ele>1851.0</ele><time>2026-03-22T13:03:47.026Z</time></trkpt><trkpt lat="21.86499805791422" lon="-102.33258380377788"><ele>1851.0</ele><time>2026-03-22T13:03:48.026Z</time></trkpt><trkpt lat="21.86506858345919" lon="-102.33243771916439"><ele>1851.0</ele><time>2026-03-22T13:03:49.026Z</time></trkpt><trkpt lat="21.865137396734337" lon="-102.33229627383102"><ele>1851.0</ele><time>2026-03-22T13:03:50.026Z</time></trkpt><trkpt lat="21.8652209658233" lon="-102.3321523081016"><ele>1850.3333333333335</ele><time>2026-03-22T13:03:51.026Z</time></trkpt><trkpt lat="21.865299374102648" lon="-102.33201168251665"><ele>1849.6666666666667</ele><time>2026-03-22T13:03:52.026Z</time></trkpt><trkpt lat="21.865371199750218" lon="-102.33186852002297"><ele>1849.0</ele><time>2026-03-22T13:03:53.026Z</time></trkpt><trkpt lat="21.86543850979486" lon="-102.33172149377654"><ele>1849.0</ele><time>2026-03-22T13:03:54.026Z</time></trkpt><trkpt lat="21.86550300077738" lon="-102.33157765434534"><ele>1849.0</ele><time>2026-03-22T13:03:55.026Z</time></trkpt><trkpt lat="21.865571254129843" lon="-102.33142814566165"><ele>1849.0</ele><time>2026-03-22T13:03:56.026Z</time></trkpt><trkpt lat="21.86563473502679" lon="-102.33128984022012"><ele>1849.0</ele><time>2026-03-22T13:03:57.026Z</time></trkpt><trkpt lat="21.86569707150326" lon="-102.33115734332918"><ele>1848.75</ele><time>2026-03-22T13:03:58.026Z</time></trkpt><trkpt lat="21.86577475795177" lon="-102.33101663147401"><ele>1848.5</ele><time>2026-03-22T13:03:59.026Z</time></trkpt><trkpt lat="21.8658542346004" lon="-102.33087133411995"><ele>1848.25</ele><time>2026-03-22T13:04:00.026Z</time></trkpt><trkpt lat="21.865915728364623" lon="-102.33073536083184"><ele>1848.0</ele><time>2026-03-22T13:04:01.026Z</time></trkpt><trkpt lat="21.865983328146772" lon="-102.33059202587273"><ele>1847.75</ele><time>2026-03-22T13:04:02.026Z</time></trkpt><trkpt lat="21.866057390980465" lon="-102.33046282939645"><ele>1847.5</ele><time>2026-03-22T13:04:03.026Z</time></trkpt><trkpt lat="21.866131707888005" lon="-102.33034292488294"><ele>1847.25</ele><time>2026-03-22T13:04:04.026Z</time></trkpt><trkpt lat="21.866205840354688" lon="-102.33022051685636"><ele>1847.0</ele><time>2026-03-22T13:04:05.026Z</time></trkpt><trkpt lat="21.866283741537135" lon="-102.33010550914983"><ele>1847.0</ele><time>2026-03-22T13:04:06.026Z</time></trkpt><trkpt lat="21.866372928614727" lon="-102.3299979111873"><ele>1847.0</ele><time>2026-03-22T13:04:07.026Z</time></trkpt><trkpt lat="21.866465432898494" lon="-102.32988748491766"><ele>1847.0</ele><time>2026-03-22T13:04:08.026Z</time></trkpt><trkpt lat="21.86655123542905" lon="-102.32978384237049"><ele>1847.0</ele><time>2026-03-22T13:04:09.026Z</time></trkpt><trkpt lat="21.866634243413216" lon="-102.32968270968873"><ele>1846.75</ele><time>2026-03-22T13:04:10.026Z</time></trkpt><trkpt lat="21.866719211825284" lon="-102.32958304508003"><ele>1846.5</ele><time>2026-03-22T13:04:11.026Z</time></trkpt><trkpt lat="21.866799806553907" lon="-102.32948380732783"><ele>1846.25</ele><time>2026-03-22T13:04:12.026Z</time></trkpt><trkpt lat="21.86688112459361" lon="-102.32938400161653"><ele>1846.0</ele><time>2026-03-22T13:04:13.026Z</time></trkpt><trkpt lat="21.866964993599584" lon="-102.3292860216682"><ele>1845.75</ele><time>2026-03-22T13:04:14.026Z</time></trkpt><trkpt lat="21.86704776042477" lon="-102.32918971963699"><ele>1845.5</ele><time>2026-03-22T13:04:15.026Z</time></trkpt><trkpt lat="21.867127770851717" lon="-102.32908917931357"><ele>1845.25</ele><time>2026-03-22T13:04:16.026Z</time></trkpt><trkpt lat="21.86721154309752" lon="-102.3289913107014"><ele>1845.0</ele><time>2026-03-22T13:04:17.026Z</time></trkpt><trkpt lat="21.867294321963737" lon="-102.32889307095695"><ele>1845.0</ele><time>2026-03-22T13:04:18.026Z</time></trkpt><trkpt lat="21.86737619003405" lon="-102.328789949947"><ele>1845.0</ele><time>2026-03-22T13:04:19.026Z</time></trkpt><trkpt lat="21.867448417097503" lon="-102.32868770097217"><ele>1845.0</ele><time>2026-03-22T13:04:20.026Z</time></trkpt><trkpt lat="21.86751876927494" lon="-102.32858159425456"><ele>1845.0</ele><time>2026-03-22T13:04:21.026Z</time></trkpt><trkpt lat="21.867584149132494" lon="-102.32847213869796"><ele>1844.5</ele><time>2026-03-22T13:04:22.026Z</time></trkpt><trkpt lat="21.867653955107347" lon="-102.32835866510929"><ele>1844.0</ele><time>2026-03-22T13:04:23.026Z</time></trkpt><trkpt lat="21.867723773279835" lon="-102.32824746626432"><ele>1843.5</ele><time>2026-03-22T13:04:24.026Z</time></trkpt><trkpt lat="21.867787796270783" lon="-102.32813614589467"><ele>1843.0</ele><time>2026-03-22T13:04:25.026Z</time></trkpt><trkpt lat="21.867860236493875" lon="-102.32802339352808"><ele>1843.0</ele><time>2026-03-22T13:04:26.026Z</time></trkpt><trkpt lat="21.867930677479368" lon="-102.3279146635675"><ele>1843.0</ele><time>2026-03-22T13:04:27.026Z</time></trkpt><trkpt lat="21.867999605799476" lon="-102.32780811694676"><ele>1843.0</ele><time>2026-03-22T13:04:28.026Z</time></trkpt><trkpt lat="21.86806630407571" lon="-102.32769275182532"><ele>1843.0</ele><time>2026-03-22T13:04:29.026Z</time></trkpt><trkpt lat="21.868127554284218" lon="-102.32758102693606"><ele>1843.0</ele><time>2026-03-22T13:04:30.026Z</time></trkpt><trkpt lat="21.868190429173428" lon="-102.32748031147638"><ele>1843.0</ele><time>2026-03-22T13:04:31.026Z</time></trkpt><trkpt lat="21.86825998415871" lon="-102.32736777115728"><ele>1843.0</ele><time>2026-03-22T13:04:32.026Z</time></trkpt><trkpt lat="21.868333737859338" lon="-102.32725025431948"><ele>1843.0</ele><time>2026-03-22T13:04:33.026Z</time></trkpt><trkpt lat="21.86837971769532" lon="-102.32711724908843"><ele>1842.75</ele><time>2026-03-22T13:04:34.026Z</time></trkpt><trkpt lat="21.86844985428579" lon="-102.32700242290069"><ele>1842.5</ele><time>2026-03-22T13:04:35.026Z</time></trkpt><trkpt lat="21.86851872965348" lon="-102.32689196392914"><ele>1842.25</ele><time>2026-03-22T13:04:36.026Z</time></trkpt><trkpt lat="21.868597689878168" lon="-102.32679667295866"><ele>1842.0</ele><time>2026-03-22T13:04:37.026Z</time></trkpt><trkpt lat="21.86866283450487" lon="-102.32668428687096"><ele>1842.0</ele><time>2026-03-22T13:04:38.026Z</time></trkpt><trkpt lat="21.86873172964197" lon="-102.32657200990747"><ele>1842.0</ele><time>2026-03-22T13:04:39.026Z</time></trkpt><trkpt lat="21.86880051665975" lon="-102.32645828754058"><ele>1842.0</ele><time>2026-03-22T13:04:40.026Z</time></trkpt><trkpt lat="21.868853631496467" lon="-102.32633605266716"><ele>1842.0</ele><time>2026-03-22T13:04:41.026Z</time></trkpt><trkpt lat="21.86892056428454" lon="-102.32622539269896"><ele>1843.0</ele><time>2026-03-22T13:04:42.026Z</time></trkpt><trkpt lat="21.86898829565469" lon="-102.3261133790795"><ele>1844.0</ele><time>2026-03-22T13:04:43.026Z</time></trkpt><trkpt lat="21.869056974403836" lon="-102.32600400921294"><ele>1845.0</ele><time>2026-03-22T13:04:44.026Z</time></trkpt><trkpt lat="21.86912699093379" lon="-102.32589642269166"><ele>1846.0</ele><time>2026-03-22T13:04:45.026Z</time></trkpt><trkpt lat="21.86919365330702" lon="-102.32578341704115"><ele>1846.0</ele><time>2026-03-22T13:04:46.026Z</time></trkpt><trkpt lat="21.869260720345213" lon="-102.32567460136855"><ele>1846.0</ele><time>2026-03-22T13:04:47.026Z</time></trkpt><trkpt lat="21.86932946501904" lon="-102.32556314654082"><ele>1846.0</ele><time>2026-03-22T13:04:48.026Z</time></trkpt><trkpt lat="21.869388087776702" lon="-102.32545137725478"><ele>1846.0</ele><time>2026-03-22T13:04:49.026Z</time></trkpt><trkpt lat="21.86944936883903" lon="-102.32533623366872"><ele>1846.5</ele><time>2026-03-22T13:04:50.026Z</time></trkpt><trkpt lat="21.8695097137098" lon="-102.32521848294013"><ele>1847.0</ele><time>2026-03-22T13:04:51.026Z</time></trkpt><trkpt lat="21.869566464844567" lon="-102.32510363991197"><ele>1847.5</ele><time>2026-03-22T13:04:52.026Z</time></trkpt><trkpt lat="21.869615859383295" lon="-102.32498576879513"><ele>1848.0</ele><time>2026-03-22T13:04:53.026Z</time></trkpt><trkpt lat="21.869666319801112" lon="-102.32486558217407"><ele>1848.0</ele><time>2026-03-22T13:04:54.026Z</time></trkpt><trkpt lat="21.869711690571997" lon="-102.32475009815504"><ele>1848.0</ele><time>2026-03-22T13:04:55.026Z</time></trkpt><trkpt lat="21.86975263586617" lon="-102.32462732830716"><ele>1848.0</ele><time>2026-03-22T13:04:56.026Z</time></trkpt><trkpt lat="21.869793564810198" lon="-102.3245003934626"><ele>1848.0</ele><time>2026-03-22T13:04:57.026Z</time></trkpt><trkpt lat="21.869836959970968" lon="-102.32436789350558"><ele>1847.25</ele><time>2026-03-22T13:04:58.026Z</time></trkpt><trkpt lat="21.86988041340908" lon="-102.32423767218586"><ele>1846.5</ele><time>2026-03-22T13:04:59.026Z</time></trkpt><trkpt lat="21.869922702280018" lon="-102.3241055869175"><ele>1845.75</ele><time>2026-03-22T13:05:00.026Z</time></trkpt><trkpt lat="21.869963599843274" lon="-102.32397084252153"><ele>1845.0</ele><time>2026-03-22T13:05:01.026Z</time></trkpt><trkpt lat="21.870006403653758" lon="-102.3238380986189"><ele>1845.0</ele><time>2026-03-22T13:05:02.026Z</time></trkpt><trkpt lat="21.870056034510743" lon="-102.32371291829341"><ele>1845.0</ele><time>2026-03-22T13:05:03.026Z</time></trkpt><trkpt lat="21.870088464222633" lon="-102.32358123503899"><ele>1845.0</ele><time>2026-03-22T13:05:04.026Z</time></trkpt><trkpt lat="21.87013922778742" lon="-102.32345671916323"><ele>1845.0</ele><time>2026-03-22T13:05:05.026Z</time></trkpt><trkpt lat="21.870194903547482" lon="-102.32333178649911"><ele>1845.0</ele><time>2026-03-22T13:05:06.026Z</time></trkpt><trkpt lat="21.870244513221824" lon="-102.32320814784525"><ele>1845.0</ele><time>2026-03-22T13:05:07.026Z</time></trkpt><trkpt lat="21.870325704184808" lon="-102.32309503466333"><ele>1845.0</ele><time>2026-03-22T13:05:08.026Z</time></trkpt><trkpt lat="21.87041459788957" lon="-102.32299628868009"><ele>1845.0</ele><time>2026-03-22T13:05:09.026Z</time></trkpt><trkpt lat="21.87051110897251" lon="-102.32290593171912"><ele>1845.0</ele><time>2026-03-22T13:05:10.026Z</time></trkpt><trkpt lat="21.870604316443174" lon="-102.3228234432496"><ele>1845.0</ele><time>2026-03-22T13:05:11.026Z</time></trkpt><trkpt lat="21.870695642193173" lon="-102.3227373554593"><ele>1845.0</ele><time>2026-03-22T13:05:12.026Z</time></trkpt><trkpt lat="21.87078251785747" lon="-102.32265746672141"><ele>1845.0</ele><time>2026-03-22T13:05:13.026Z</time></trkpt><trkpt lat="21.870851726304082" lon="-102.32256499213587"><ele>1845.0</ele><time>2026-03-22T13:05:14.026Z</time></trkpt><trkpt lat="21.870928051738844" lon="-102.32250241714004"><ele>1845.0</ele><time>2026-03-22T13:05:15.026Z</time></trkpt><trkpt lat="21.870996644606215" lon="-102.32244759432255"><ele>1845.0</ele><time>2026-03-22T13:05:16.026Z</time></trkpt><trkpt lat="21.87105125801587" lon="-102.32238783386157"><ele>1845.0</ele><time>2026-03-22T13:05:17.026Z</time></trkpt><trkpt lat="21.87111917546654" lon="-102.322358201548"><ele>1845.0</ele><time>2026-03-22T13:05:18.026Z</time></trkpt><trkpt lat="21.871184616346657" lon="-102.32234843566242"><ele>1845.0</ele><time>2026-03-22T13:05:19.026Z</time></trkpt><trkpt lat="21.871251721359158" lon="-102.32236633547838"><ele>1845.1666666666667</ele><time>2026-03-22T13:05:20.026Z</time></trkpt><trkpt lat="21.87131721205097" lon="-102.32240725437704"><ele>1845.3333333333335</ele><time>2026-03-22T13:05:21.026Z</time></trkpt><trkpt lat="21.871364045080494" lon="-102.32245887586618"><ele>1845.5</ele><time>2026-03-22T13:05:22.026Z</time></trkpt><trkpt lat="21.87139721435506" lon="-102.32252985861598"><ele>1845.6666666666667</ele><time>2026-03-22T13:05:23.026Z</time></trkpt><trkpt lat="21.871411500974865" lon="-102.32261343352435"><ele>1845.8333333333335</ele><time>2026-03-22T13:05:24.026Z</time></trkpt><trkpt lat="21.87142051738121" lon="-102.32269846647272"><ele>1846.0</ele><time>2026-03-22T13:05:25.026Z</time></trkpt><trkpt lat="21.871433198145432" lon="-102.32278912409672"><ele>1846.0000000000002</ele><time>2026-03-22T13:05:26.026Z</time></trkpt><trkpt lat="21.871446949963754" lon="-102.32287820967755"><ele>1846.0</ele><time>2026-03-22T13:05:27.026Z</time></trkpt><trkpt lat="21.871457447489643" lon="-102.3229709989254"><ele>1846.0</ele><time>2026-03-22T13:05:28.026Z</time></trkpt><trkpt lat="21.87147087372445" lon="-102.32306308342311"><ele>1846.0</ele><time>2026-03-22T13:05:29.026Z</time></trkpt><trkpt lat="21.871482805897838" lon="-102.32315562945502"><ele>1846.0000000000002</ele><time>2026-03-22T13:05:30.028Z</time></trkpt><trkpt lat="21.871505628937815" lon="-102.32325353335322"><ele>1846.0</ele><time>2026-03-22T13:05:31.028Z</time></trkpt><trkpt lat="21.87151958688626" lon="-102.32335339123621"><ele>1846.1999999999998</ele><time>2026-03-22T13:05:32.028Z</time></trkpt><trkpt lat="21.871532142990254" lon="-102.32345145753256"><ele>1846.3999999999999</ele><time>2026-03-22T13:05:33.028Z</time></trkpt><trkpt lat="21.87154409122409" lon="-102.3235470798744"><ele>1846.6</ele><time>2026-03-22T13:05:34.028Z</time></trkpt><trkpt lat="21.87156231796362" lon="-102.32365136068306"><ele>1846.8</ele><time>2026-03-22T13:05:35.028Z</time></trkpt><trkpt lat="21.871572818749602" lon="-102.32375361779111"><ele>1847.0</ele><time>2026-03-22T13:05:36.028Z</time></trkpt><trkpt lat="21.871594089325892" lon="-102.3238607327824"><ele>1846.8</ele><time>2026-03-22T13:05:37.027Z</time></trkpt><trkpt lat="21.87161267145588" lon="-102.32396814970383"><ele>1846.6</ele><time>2026-03-22T13:05:38.027Z</time></trkpt><trkpt lat="21.871617248017188" lon="-102.32407416750554"><ele>1846.3999999999999</ele><time>2026-03-22T13:05:39.028Z</time></trkpt><trkpt lat="21.871631409362795" lon="-102.32416932356277"><ele>1846.1999999999998</ele><time>2026-03-22T13:05:40.028Z</time></trkpt><trkpt lat="21.87164899312612" lon="-102.32426619860031"><ele>1846.0</ele><time>2026-03-22T13:05:41.028Z</time></trkpt><trkpt lat="21.871669739897165" lon="-102.32437201881832"><ele>1846.0</ele><time>2026-03-22T13:05:42.029Z</time></trkpt><trkpt lat="21.871674538690357" lon="-102.32448189857166"><ele>1846.0</ele><time>2026-03-22T13:05:43.028Z</time></trkpt><trkpt lat="21.871689300258222" lon="-102.32459639596895"><ele>1846.0</ele><time>2026-03-22T13:05:44.028Z</time></trkpt><trkpt lat="21.871707278858636" lon="-102.32470736407687"><ele>1846.0</ele><time>2026-03-22T13:05:45.028Z</time></trkpt><trkpt lat="21.871721476883913" lon="-102.32481476314196"><ele>1846.0</ele><time>2026-03-22T13:05:46.028Z</time></trkpt><trkpt lat="21.871731601623946" lon="-102.32492937739454"><ele>1846.0</ele><time>2026-03-22T13:05:47.028Z</time></trkpt><trkpt lat="21.87174495918952" lon="-102.32503680672004"><ele>1846.0</ele><time>2026-03-22T13:05:48.028Z</time></trkpt><trkpt lat="21.871765266208904" lon="-102.32514539412367"><ele>1846.0</ele><time>2026-03-22T13:05:49.028Z</time></trkpt><trkpt lat="21.871781891084336" lon="-102.32525213710045"><ele>1846.0</ele><time>2026-03-22T13:05:50.028Z</time></trkpt><trkpt lat="21.871799304679026" lon="-102.32536246818533"><ele>1846.0</ele><time>2026-03-22T13:05:51.028Z</time></trkpt><trkpt lat="21.871816121579567" lon="-102.32547141264277"><ele>1847.0</ele><time>2026-03-22T13:05:52.028Z</time></trkpt><trkpt lat="21.871832281246917" lon="-102.32558385526458"><ele>1848.0</ele><time>2026-03-22T13:05:53.028Z</time></trkpt><trkpt lat="21.871847737620374" lon="-102.3256941174819"><ele>1849.0</ele><time>2026-03-22T13:05:54.028Z</time></trkpt><trkpt lat="21.87185981679905" lon="-102.32580648089795"><ele>1850.0</ele><time>2026-03-22T13:05:55.028Z</time></trkpt><trkpt lat="21.871878631160833" lon="-102.32591539932267"><ele>1851.0</ele><time>2026-03-22T13:05:56.028Z</time></trkpt><trkpt lat="21.87189278687663" lon="-102.32601521225135"><ele>1851.0</ele><time>2026-03-22T13:05:57.028Z</time></trkpt><trkpt lat="21.87190868575742" lon="-102.32611447062604"><ele>1851.0</ele><time>2026-03-22T13:05:58.028Z</time></trkpt><trkpt lat="21.87191920850315" lon="-102.32621547021783"><ele>1851.0</ele><time>2026-03-22T13:05:59.027Z</time></trkpt><trkpt lat="21.871931481224976" lon="-102.32631385362363"><ele>1851.0</ele><time>2026-03-22T13:06:00.027Z</time></trkpt><trkpt lat="21.87194820861083" lon="-102.32640999431723"><ele>1851.0</ele><time>2026-03-22T13:06:01.027Z</time></trkpt><trkpt lat="21.871961312541238" lon="-102.3264977590462"><ele>1851.6666666666667</ele><time>2026-03-22T13:06:02.027Z</time></trkpt><trkpt lat="21.871972248711938" lon="-102.3265956649525"><ele>1852.3333333333335</ele><time>2026-03-22T13:06:03.027Z</time></trkpt><trkpt lat="21.87198542268166" lon="-102.3266903437987"><ele>1853.0</ele><time>2026-03-22T13:06:04.027Z</time></trkpt><trkpt lat="21.87199629659598" lon="-102.3267808323629"><ele>1853.6666666666667</ele><time>2026-03-22T13:06:05.027Z</time></trkpt><trkpt lat="21.872007175507314" lon="-102.32686986496101"><ele>1854.3333333333335</ele><time>2026-03-22T13:06:06.027Z</time></trkpt><trkpt lat="21.872017493323693" lon="-102.32695914330854"><ele>1855.0</ele><time>2026-03-22T13:06:07.027Z</time></trkpt><trkpt lat="21.872025312668544" lon="-102.32704810080921"><ele>1855.0000000000002</ele><time>2026-03-22T13:06:08.027Z</time></trkpt><trkpt lat="21.872038293376647" lon="-102.32713806883186"><ele>1855.0</ele><time>2026-03-22T13:06:09.027Z</time></trkpt><trkpt lat="21.872054100506094" lon="-102.32722768837102"><ele>1855.0</ele><time>2026-03-22T13:06:10.027Z</time></trkpt><trkpt lat="21.872076668641178" lon="-102.32731540308124"><ele>1855.0</ele><time>2026-03-22T13:06:11.027Z</time></trkpt><trkpt lat="21.872092737674645" lon="-102.32739948258654"><ele>1855.0000000000002</ele><time>2026-03-22T13:06:12.027Z</time></trkpt><trkpt lat="21.872112251093643" lon="-102.32748700713773"><ele>1855.0</ele><time>2026-03-22T13:06:13.027Z</time></trkpt><trkpt lat="21.872131211998873" lon="-102.32757368453561"><ele>1854.6666666666667</ele><time>2026-03-22T13:06:14.027Z</time></trkpt><trkpt lat="21.872151660861036" lon="-102.32765910033773"><ele>1854.3333333333335</ele><time>2026-03-22T13:06:15.027Z</time></trkpt><trkpt lat="21.872164327947257" lon="-102.32774105460268"><ele>1854.0</ele><time>2026-03-22T13:06:16.027Z</time></trkpt><trkpt lat="21.872177631892683" lon="-102.3278293027688"><ele>1853.6666666666665</ele><time>2026-03-22T13:06:17.027Z</time></trkpt><trkpt lat="21.872199555536547" lon="-102.32790832797811"><ele>1853.3333333333333</ele><time>2026-03-22T13:06:18.027Z</time></trkpt><trkpt lat="21.87222168463639" lon="-102.3279811344061"><ele>1853.0</ele><time>2026-03-22T13:06:19.027Z</time></trkpt><trkpt lat="21.87223866680143" lon="-102.32806081778688"><ele>1852.9999999999998</ele><time>2026-03-22T13:06:20.027Z</time></trkpt><trkpt lat="21.872260677204633" lon="-102.32814517489142"><ele>1853.0</ele><time>2026-03-22T13:06:21.027Z</time></trkpt><trkpt lat="21.872277827926705" lon="-102.32824133226487"><ele>1853.0</ele><time>2026-03-22T13:06:22.027Z</time></trkpt><trkpt lat="21.872299501157258" lon="-102.32832985173337"><ele>1853.0</ele><time>2026-03-22T13:06:23.027Z</time></trkpt><trkpt lat="21.872323714842167" lon="-102.32841176276905"><ele>1852.9999999999998</ele><time>2026-03-22T13:06:24.027Z</time></trkpt><trkpt lat="21.872347692639295" lon="-102.3284946566648"><ele>1853.0</ele><time>2026-03-22T13:06:25.027Z</time></trkpt><trkpt lat="21.872372777990275" lon="-102.3285901471472"><ele>1853.0</ele><time>2026-03-22T13:06:26.027Z</time></trkpt><trkpt lat="21.872393560295574" lon="-102.32868333787191"><ele>1853.0000000000002</ele><time>2026-03-22T13:06:27.027Z</time></trkpt><trkpt lat="21.872419354252564" lon="-102.32877196745662"><ele>1853.0000000000002</ele><time>2026-03-22T13:06:28.027Z</time></trkpt><trkpt lat="21.872446651937032" lon="-102.32886965974025"><ele>1853.0</ele><time>2026-03-22T13:06:29.027Z</time></trkpt><trkpt lat="21.87247619290399" lon="-102.32896738110344"><ele>1853.0</ele><time>2026-03-22T13:06:30.027Z</time></trkpt><trkpt lat="21.87250136937221" lon="-102.329062296955"><ele>1853.2</ele><time>2026-03-22T13:06:31.027Z</time></trkpt><trkpt lat="21.87252518711727" lon="-102.32915292011637"><ele>1853.4</ele><time>2026-03-22T13:06:32.027Z</time></trkpt><trkpt lat="21.872552217644152" lon="-102.3292588140764"><ele>1853.6000000000001</ele><time>2026-03-22T13:06:33.027Z</time></trkpt><trkpt lat="21.872584102304625" lon="-102.32936295275253"><ele>1853.8000000000002</ele><time>2026-03-22T13:06:34.027Z</time></trkpt><trkpt lat="21.8726109813918" lon="-102.32945693445207"><ele>1854.0</ele><time>2026-03-22T13:06:35.027Z</time></trkpt><trkpt lat="21.87263820703396" lon="-102.32955825060114"><ele>1854.0</ele><time>2026-03-22T13:06:36.027Z</time></trkpt><trkpt lat="21.87266341528123" lon="-102.32966100879646"><ele>1854.0</ele><time>2026-03-22T13:06:37.027Z</time></trkpt><trkpt lat="21.87269448835905" lon="-102.32976830116989"><ele>1854.0</ele><time>2026-03-22T13:06:38.027Z</time></trkpt><trkpt lat="21.872730322019567" lon="-102.32986236504367"><ele>1854.0</ele><time>2026-03-22T13:06:39.027Z</time></trkpt><trkpt lat="21.872755866669298" lon="-102.32996854949742"><ele>1854.0</ele><time>2026-03-22T13:06:40.027Z</time></trkpt><trkpt lat="21.872785966565772" lon="-102.3300867144989"><ele>1854.0</ele><time>2026-03-22T13:06:41.027Z</time></trkpt><trkpt lat="21.872812626079188" lon="-102.33019678659726"><ele>1854.0</ele><time>2026-03-22T13:06:42.027Z</time></trkpt><trkpt lat="21.872843952279613" lon="-102.33030045823672"><ele>1854.0</ele><time>2026-03-22T13:06:43.027Z</time></trkpt><trkpt lat="21.872876042400925" lon="-102.33042450631898"><ele>1854.0</ele><time>2026-03-22T13:06:44.027Z</time></trkpt><trkpt lat="21.872907953464335" lon="-102.33053860935287"><ele>1854.0</ele><time>2026-03-22T13:06:45.027Z</time></trkpt><trkpt lat="21.872934203025885" lon="-102.33065174689528"><ele>1854.0</ele><time>2026-03-22T13:06:46.027Z</time></trkpt><trkpt lat="21.872959827529954" lon="-102.33076190764776"><ele>1854.0</ele><time>2026-03-22T13:06:47.027Z</time></trkpt><trkpt lat="21.872987556979048" lon="-102.33086864493295"><ele>1854.0</ele><time>2026-03-22T13:06:48.027Z</time></trkpt><trkpt lat="21.873023266850527" lon="-102.33098703627435"><ele>1854.0</ele><time>2026-03-22T13:06:49.027Z</time></trkpt><trkpt lat="21.873057339312133" lon="-102.33110496931023"><ele>1854.0</ele><time>2026-03-22T13:06:50.027Z</time></trkpt><trkpt lat="21.873089748839806" lon="-102.33121638146389"><ele>1854.0</ele><time>2026-03-22T13:06:51.027Z</time></trkpt><trkpt lat="21.873116643972345" lon="-102.33133060075241"><ele>1854.0</ele><time>2026-03-22T13:06:52.027Z</time></trkpt><trkpt lat="21.873145796440028" lon="-102.33144979966991"><ele>1854.0</ele><time>2026-03-22T13:06:53.027Z</time></trkpt><trkpt lat="21.873175266126232" lon="-102.33156160459744"><ele>1854.0</ele><time>2026-03-22T13:06:54.027Z</time></trkpt><trkpt lat="21.87320789227565" lon="-102.33167559988827"><ele>1854.0</ele><time>2026-03-22T13:06:55.027Z</time></trkpt><trkpt lat="21.87323658617152" lon="-102.33178440964284"><ele>1853.8000000000002</ele><time>2026-03-22T13:06:56.027Z</time></trkpt><trkpt lat="21.873269762189643" lon="-102.33190216517443"><ele>1853.6000000000001</ele><time>2026-03-22T13:06:57.027Z</time></trkpt><trkpt lat="21.87330281903733" lon="-102.33201602021579"><ele>1853.4</ele><time>2026-03-22T13:06:58.027Z</time></trkpt><trkpt lat="21.873330035062928" lon="-102.33213487766739"><ele>1853.2</ele><time>2026-03-22T13:06:59.027Z</time></trkpt><trkpt lat="21.873360870005186" lon="-102.33224645734059"><ele>1853.0</ele><time>2026-03-22T13:07:00.027Z</time></trkpt><trkpt lat="21.873393395060454" lon="-102.33236989514845"><ele>1853.0</ele><time>2026-03-22T13:07:01.027Z</time></trkpt><trkpt lat="21.873428534670914" lon="-102.33248237074719"><ele>1853.0000000000002</ele><time>2026-03-22T13:07:02.027Z</time></trkpt><trkpt lat="21.87345577076265" lon="-102.33259606560543"><ele>1853.0000000000002</ele><time>2026-03-22T13:07:03.027Z</time></trkpt><trkpt lat="21.87348238130715" lon="-102.33271145751824"><ele>1853.0</ele><time>2026-03-22T13:07:04.027Z</time></trkpt><trkpt lat="21.873508934089042" lon="-102.3328251368665"><ele>1853.0</ele><time>2026-03-22T13:07:05.027Z</time></trkpt><trkpt lat="21.87354082043182" lon="-102.3329387922758"><ele>1853.0</ele><time>2026-03-22T13:07:06.027Z</time></trkpt><trkpt lat="21.87357019341593" lon="-102.33305825406126"><ele>1853.0</ele><time>2026-03-22T13:07:07.027Z</time></trkpt><trkpt lat="21.87360282246288" lon="-102.33317334777793"><ele>1853.0</ele><time>2026-03-22T13:07:08.027Z</time></trkpt><trkpt lat="21.873634741701217" lon="-102.3332909731151"><ele>1853.0</ele><time>2026-03-22T13:07:09.027Z</time></trkpt><trkpt lat="21.873664013073952" lon="-102.33340620578909"><ele>1853.0</ele><time>2026-03-22T13:07:10.027Z</time></trkpt><trkpt lat="21.873690654104706" lon="-102.33351500773075"><ele>1853.0000000000002</ele><time>2026-03-22T13:07:11.027Z</time></trkpt><trkpt lat="21.87371797257501" lon="-102.3336334486899"><ele>1853.0000000000002</ele><time>2026-03-22T13:07:12.027Z</time></trkpt><trkpt lat="21.87374815116955" lon="-102.33375324323221"><ele>1853.0</ele><time>2026-03-22T13:07:13.027Z</time></trkpt><trkpt lat="21.873782765212653" lon="-102.33386939442816"><ele>1853.0</ele><time>2026-03-22T13:07:14.027Z</time></trkpt><trkpt lat="21.873810996944865" lon="-102.33398642137047"><ele>1853.2</ele><time>2026-03-22T13:07:15.027Z</time></trkpt><trkpt lat="21.873843552037922" lon="-102.33409831859022"><ele>1853.4</ele><time>2026-03-22T13:07:16.027Z</time></trkpt><trkpt lat="21.873867956335925" lon="-102.33420976886305"><ele>1853.6000000000001</ele><time>2026-03-22T13:07:17.027Z</time></trkpt><trkpt lat="21.87389681724627" lon="-102.33432490657592"><ele>1853.8000000000002</ele><time>2026-03-22T13:07:18.027Z</time></trkpt><trkpt lat="21.87392717392013" lon="-102.3344426047899"><ele>1854.0</ele><time>2026-03-22T13:07:19.027Z</time></trkpt><trkpt lat="21.873960631472794" lon="-102.3345593486291"><ele>1854.0</ele><time>2026-03-22T13:07:20.027Z</time></trkpt><trkpt lat="21.873996045606262" lon="-102.33468055474592"><ele>1854.0</ele><time>2026-03-22T13:07:21.027Z</time></trkpt><trkpt lat="21.874029101001444" lon="-102.33479384181743"><ele>1854.0</ele><time>2026-03-22T13:07:22.027Z</time></trkpt><trkpt lat="21.874059962495892" lon="-102.3349025236056"><ele>1854.0</ele><time>2026-03-22T13:07:23.027Z</time></trkpt><trkpt lat="21.874090046305916" lon="-102.33501409800924"><ele>1854.0</ele><time>2026-03-22T13:07:24.027Z</time></trkpt><trkpt lat="21.874117186994567" lon="-102.33512928406465"><ele>1854.0</ele><time>2026-03-22T13:07:25.027Z</time></trkpt><trkpt lat="21.874143139608126" lon="-102.3352480490192"><ele>1854.0</ele><time>2026-03-22T13:07:26.027Z</time></trkpt><trkpt lat="21.87417299683868" lon="-102.33536205703983"><ele>1854.0</ele><time>2026-03-22T13:07:27.027Z</time></trkpt><trkpt lat="21.874204065682214" lon="-102.33547708301899"><ele>1854.0</ele><time>2026-03-22T13:07:28.027Z</time></trkpt><trkpt lat="21.874238515982555" lon="-102.33558924708908"><ele>1854.0</ele><time>2026-03-22T13:07:29.027Z</time></trkpt><trkpt lat="21.874268493006372" lon="-102.33570556782828"><ele>1854.6</ele><time>2026-03-22T13:07:30.027Z</time></trkpt><trkpt lat="21.874303885124586" lon="-102.33582684868183"><ele>1855.2</ele><time>2026-03-22T13:07:31.027Z</time></trkpt><trkpt lat="21.874333140629094" lon="-102.33593104475442"><ele>1855.7999999999997</ele><time>2026-03-22T13:07:32.027Z</time></trkpt><trkpt lat="21.8743594876931" lon="-102.33603785377161"><ele>1856.3999999999999</ele><time>2026-03-22T13:07:33.027Z</time></trkpt><trkpt lat="21.874388870420184" lon="-102.33614990889792"><ele>1857.0</ele><time>2026-03-22T13:07:34.027Z</time></trkpt><trkpt lat="21.87442292839963" lon="-102.3362677643365"><ele>1857.0</ele><time>2026-03-22T13:07:35.027Z</time></trkpt><trkpt lat="21.874454861697547" lon="-102.33637811191653"><ele>1856.9999999999998</ele><time>2026-03-22T13:07:36.03Z</time></trkpt><trkpt lat="21.874476711941682" lon="-102.33648915277796"><ele>1856.9999999999998</ele><time>2026-03-22T13:07:37.03Z</time></trkpt><trkpt lat="21.874507268375684" lon="-102.33660603683738"><ele>1857.0</ele><time>2026-03-22T13:07:38.03Z</time></trkpt><trkpt lat="21.874544783731068" lon="-102.33673023634488"><ele>1857.0</ele><time>2026-03-22T13:07:39.029Z</time></trkpt><trkpt lat="21.87457886936828" lon="-102.33684840971314"><ele>1857.0</ele><time>2026-03-22T13:07:40.029Z</time></trkpt><trkpt lat="21.874607764932716" lon="-102.33696481964512"><ele>1856.9999999999998</ele><time>2026-03-22T13:07:41.029Z</time></trkpt><trkpt lat="21.87464136437881" lon="-102.33707931606698"><ele>1856.9999999999998</ele><time>2026-03-22T13:07:42.03Z</time></trkpt><trkpt lat="21.87467017153007" lon="-102.33719605106529"><ele>1857.0</ele><time>2026-03-22T13:07:43.03Z</time></trkpt><trkpt lat="21.87469987887687" lon="-102.33731096220696"><ele>1857.0</ele><time>2026-03-22T13:07:44.03Z</time></trkpt><trkpt lat="21.874731326095375" lon="-102.3374241147256"><ele>1857.0</ele><time>2026-03-22T13:07:45.029Z</time></trkpt><trkpt lat="21.874756223055723" lon="-102.33753410112587"><ele>1856.9999999999998</ele><time>2026-03-22T13:07:46.03Z</time></trkpt><trkpt lat="21.87478336891687" lon="-102.33764755249805"><ele>1856.9999999999998</ele><time>2026-03-22T13:07:47.03Z</time></trkpt><trkpt lat="21.87481070752076" lon="-102.33775038408217"><ele>1857.0</ele><time>2026-03-22T13:07:48.03Z</time></trkpt><trkpt lat="21.87483584565738" lon="-102.33785662205578"><ele>1857.0</ele><time>2026-03-22T13:07:49.029Z</time></trkpt><trkpt lat="21.87485735689212" lon="-102.3379564172551"><ele>1857.0</ele><time>2026-03-22T13:07:50.029Z</time></trkpt><trkpt lat="21.874889180350298" lon="-102.33805578965615"><ele>1856.9999999999998</ele><time>2026-03-22T13:07:51.029Z</time></trkpt><trkpt lat="21.874920722644905" lon="-102.33815430325728"><ele>1856.9999999999998</ele><time>2026-03-22T13:07:52.029Z</time></trkpt><trkpt lat="21.87494195552693" lon="-102.33825090985961"><ele>1857.0</ele><time>2026-03-22T13:07:53.029Z</time></trkpt><trkpt lat="21.87496663729019" lon="-102.33834872878872"><ele>1857.0</ele><time>2026-03-22T13:07:54.029Z</time></trkpt><trkpt lat="21.874985174434492" lon="-102.33843752722777"><ele>1857.0</ele><time>2026-03-22T13:07:55.029Z</time></trkpt><trkpt lat="21.87500507399321" lon="-102.33851799281194"><ele>1857.0</ele><time>2026-03-22T13:07:56.029Z</time></trkpt><trkpt lat="21.875024584600176" lon="-102.33859294576563"><ele>1857.0</ele><time>2026-03-22T13:07:57.029Z</time></trkpt><trkpt lat="21.875042506717893" lon="-102.33866201968925"><ele>1857.0</ele><time>2026-03-22T13:07:58.029Z</time></trkpt><trkpt lat="21.875060641585666" lon="-102.33873346690945"><ele>1857.0</ele><time>2026-03-22T13:07:59.029Z</time></trkpt><trkpt lat="21.87509939978793" lon="-102.33886279411745"><ele>1857.0</ele><time>2026-03-22T13:08:01.029Z</time></trkpt><trkpt lat="21.875120645340967" lon="-102.33893512481029"><ele>1857.0</ele><time>2026-03-22T13:08:02.029Z</time></trkpt><trkpt lat="21.87514588725449" lon="-102.33901058864103"><ele>1857.0</ele><time>2026-03-22T13:08:03.029Z</time></trkpt><trkpt lat="21.875169879853996" lon="-102.33908599799547"><ele>1857.0</ele><time>2026-03-22T13:08:04.029Z</time></trkpt><trkpt lat="21.875189991087943" lon="-102.33915532040366"><ele>1857.0</ele><time>2026-03-22T13:08:05.029Z</time></trkpt><trkpt lat="21.87521137613585" lon="-102.33923002374658"><ele>1857.0</ele><time>2026-03-22T13:08:06.029Z</time></trkpt><trkpt lat="21.875221205480088" lon="-102.33931740055907"><ele>1857.0</ele><time>2026-03-22T13:08:07.029Z</time></trkpt><trkpt lat="21.875244950375958" lon="-102.33939417450543"><ele>1857.0</ele><time>2026-03-22T13:08:08.029Z</time></trkpt><trkpt lat="21.87527159208502" lon="-102.33947921647767"><ele>1857.0</ele><time>2026-03-22T13:08:09.029Z</time></trkpt><trkpt lat="21.87529140241606" lon="-102.33956004385234"><ele>1857.0</ele><time>2026-03-22T13:08:10.029Z</time></trkpt><trkpt lat="21.875313358352475" lon="-102.33963557794559"><ele>1857.0</ele><time>2026-03-22T13:08:11.029Z</time></trkpt><trkpt lat="21.87533275337484" lon="-102.33971216182071"><ele>1857.0</ele><time>2026-03-22T13:08:12.029Z</time></trkpt><trkpt lat="21.875354385942718" lon="-102.33978845507562"><ele>1857.0</ele><time>2026-03-22T13:08:13.029Z</time></trkpt><trkpt lat="21.8753714406367" lon="-102.33987134114308"><ele>1857.0</ele><time>2026-03-22T13:08:14.029Z</time></trkpt><trkpt lat="21.875392564230857" lon="-102.33995201887126"><ele>1857.3333333333333</ele><time>2026-03-22T13:08:15.029Z</time></trkpt><trkpt lat="21.875412392409334" lon="-102.34002992655306"><ele>1857.6666666666665</ele><time>2026-03-22T13:08:16.029Z</time></trkpt><trkpt lat="21.8754305806372" lon="-102.34011142700618"><ele>1858.0</ele><time>2026-03-22T13:08:17.029Z</time></trkpt><trkpt lat="21.875448961871296" lon="-102.34019546567318"><ele>1858.3333333333333</ele><time>2026-03-22T13:08:18.029Z</time></trkpt><trkpt lat="21.875473655479546" lon="-102.34028514314575"><ele>1858.6666666666665</ele><time>2026-03-22T13:08:19.029Z</time></trkpt><trkpt lat="21.875496738142743" lon="-102.34037691670238"><ele>1859.0</ele><time>2026-03-22T13:08:20.029Z</time></trkpt><trkpt lat="21.875520186497543" lon="-102.34046572334853"><ele>1859.8000000000002</ele><time>2026-03-22T13:08:21.029Z</time></trkpt><trkpt lat="21.87554288323177" lon="-102.34056465858907"><ele>1860.6000000000001</ele><time>2026-03-22T13:08:22.029Z</time></trkpt><trkpt lat="21.875567413508996" lon="-102.34064831708523"><ele>1861.4</ele><time>2026-03-22T13:08:23.029Z</time></trkpt><trkpt lat="21.875599994470257" lon="-102.3407510561171"><ele>1862.2</ele><time>2026-03-22T13:08:24.029Z</time></trkpt><trkpt lat="21.875629140789176" lon="-102.34084961954588"><ele>1863.0</ele><time>2026-03-22T13:08:25.029Z</time></trkpt><trkpt lat="21.875650565005024" lon="-102.340949649303"><ele>1863.0</ele><time>2026-03-22T13:08:26.029Z</time></trkpt><trkpt lat="21.875680870857288" lon="-102.34106320951557"><ele>1863.0000000000002</ele><time>2026-03-22T13:08:27.029Z</time></trkpt><trkpt lat="21.87571034357982" lon="-102.34117255592466"><ele>1863.0000000000002</ele><time>2026-03-22T13:08:28.029Z</time></trkpt><trkpt lat="21.875740842999587" lon="-102.3412820970328"><ele>1863.0</ele><time>2026-03-22T13:08:29.029Z</time></trkpt><trkpt lat="21.875768773970584" lon="-102.34139782903215"><ele>1863.0</ele><time>2026-03-22T13:08:30.029Z</time></trkpt><trkpt lat="21.875796039347367" lon="-102.34150357010952"><ele>1862.4</ele><time>2026-03-22T13:08:31.029Z</time></trkpt><trkpt lat="21.875828880178428" lon="-102.34160854630679"><ele>1861.8000000000002</ele><time>2026-03-22T13:08:32.029Z</time></trkpt><trkpt lat="21.875862831400077" lon="-102.34172578350358"><ele>1861.2</ele><time>2026-03-22T13:08:33.029Z</time></trkpt><trkpt lat="21.87589270108145" lon="-102.3418468013339"><ele>1860.6</ele><time>2026-03-22T13:08:34.029Z</time></trkpt><trkpt lat="21.875922190512632" lon="-102.34196536629682"><ele>1860.0</ele><time>2026-03-22T13:08:35.029Z</time></trkpt><trkpt lat="21.875957314179832" lon="-102.34208287656688"><ele>1860.0</ele><time>2026-03-22T13:08:36.029Z</time></trkpt><trkpt lat="21.87598794774608" lon="-102.34221018335386"><ele>1860.0</ele><time>2026-03-22T13:08:37.029Z</time></trkpt><trkpt lat="21.8760233388653" lon="-102.34233141073531"><ele>1860.0</ele><time>2026-03-22T13:08:38.029Z</time></trkpt><trkpt lat="21.876055179487537" lon="-102.34245472902322"><ele>1860.0</ele><time>2026-03-22T13:08:39.029Z</time></trkpt><trkpt lat="21.876091431336118" lon="-102.34256642583055"><ele>1859.75</ele><time>2026-03-22T13:08:40.029Z</time></trkpt><trkpt lat="21.87611700501351" lon="-102.34269495948016"><ele>1859.5</ele><time>2026-03-22T13:08:41.029Z</time></trkpt><trkpt lat="21.876144234394328" lon="-102.34281679969227"><ele>1859.25</ele><time>2026-03-22T13:08:42.029Z</time></trkpt><trkpt lat="21.876178920983133" lon="-102.3429287265953"><ele>1859.0</ele><time>2026-03-22T13:08:43.029Z</time></trkpt><trkpt lat="21.87621223562947" lon="-102.34305112998925"><ele>1859.0</ele><time>2026-03-22T13:08:44.029Z</time></trkpt><trkpt lat="21.87625002017911" lon="-102.34317998215411"><ele>1859.0</ele><time>2026-03-22T13:08:45.029Z</time></trkpt><trkpt lat="21.876284512433113" lon="-102.34330208969791"><ele>1859.0</ele><time>2026-03-22T13:08:46.029Z</time></trkpt><trkpt lat="21.87631774202678" lon="-102.34342681998183"><ele>1859.0</ele><time>2026-03-22T13:08:47.029Z</time></trkpt><trkpt lat="21.87635159108977" lon="-102.34355225586347"><ele>1859.0</ele><time>2026-03-22T13:08:48.029Z</time></trkpt><trkpt lat="21.87638828559409" lon="-102.34368206588779"><ele>1859.0</ele><time>2026-03-22T13:08:49.029Z</time></trkpt><trkpt lat="21.876422087297733" lon="-102.3438053596351"><ele>1859.0</ele><time>2026-03-22T13:08:50.029Z</time></trkpt><trkpt lat="21.876454822809322" lon="-102.34393724449109"><ele>1859.0</ele><time>2026-03-22T13:08:51.029Z</time></trkpt><trkpt lat="21.87649176811917" lon="-102.34406603182342"><ele>1858.75</ele><time>2026-03-22T13:08:52.029Z</time></trkpt><trkpt lat="21.87652819588725" lon="-102.34419947330575"><ele>1858.5</ele><time>2026-03-22T13:08:53.029Z</time></trkpt><trkpt lat="21.876559632815745" lon="-102.34432652847536"><ele>1858.25</ele><time>2026-03-22T13:08:54.029Z</time></trkpt><trkpt lat="21.876586807343692" lon="-102.34444741653928"><ele>1858.0</ele><time>2026-03-22T13:08:55.029Z</time></trkpt><trkpt lat="21.876622827551703" lon="-102.34457381713518"><ele>1858.0</ele><time>2026-03-22T13:08:56.029Z</time></trkpt><trkpt lat="21.876648611208406" lon="-102.34469337366149"><ele>1858.0</ele><time>2026-03-22T13:08:57.029Z</time></trkpt><trkpt lat="21.87668089687792" lon="-102.34482198111021"><ele>1858.0</ele><time>2026-03-22T13:08:58.029Z</time></trkpt><trkpt lat="21.876707787332876" lon="-102.34493427015578"><ele>1858.0</ele><time>2026-03-22T13:08:59.029Z</time></trkpt><trkpt lat="21.876731378256128" lon="-102.34505130692567"><ele>1858.0</ele><time>2026-03-22T13:09:00.029Z</time></trkpt><trkpt lat="21.87676505294933" lon="-102.3451609995454"><ele>1858.0000000000002</ele><time>2026-03-22T13:09:01.029Z</time></trkpt><trkpt lat="21.876796282477343" lon="-102.34526246753198"><ele>1858.0000000000002</ele><time>2026-03-22T13:09:02.029Z</time></trkpt><trkpt lat="21.876826579653667" lon="-102.34537193520922"><ele>1858.0</ele><time>2026-03-22T13:09:03.029Z</time></trkpt><trkpt lat="21.876855887339374" lon="-102.34547742401135"><ele>1858.0</ele><time>2026-03-22T13:09:04.029Z</time></trkpt><trkpt lat="21.8768828373466" lon="-102.34558204043975"><ele>1857.6000000000001</ele><time>2026-03-22T13:09:05.029Z</time></trkpt><trkpt lat="21.87691016376341" lon="-102.34569178967305"><ele>1857.2000000000003</ele><time>2026-03-22T13:09:06.029Z</time></trkpt><trkpt lat="21.876939111626342" lon="-102.34578998009384"><ele>1856.8</ele><time>2026-03-22T13:09:07.029Z</time></trkpt><trkpt lat="21.876969622134986" lon="-102.34589402583066"><ele>1856.4</ele><time>2026-03-22T13:09:08.029Z</time></trkpt><trkpt lat="21.87699071985055" lon="-102.34599478508473"><ele>1856.0</ele><time>2026-03-22T13:09:09.029Z</time></trkpt><trkpt lat="21.877015968404027" lon="-102.34609906850004"><ele>1856.0</ele><time>2026-03-22T13:09:10.029Z</time></trkpt><trkpt lat="21.87704305623435" lon="-102.34619516968608"><ele>1856.0</ele><time>2026-03-22T13:09:11.029Z</time></trkpt><trkpt lat="21.877077282749987" lon="-102.34630210337527"><ele>1856.0</ele><time>2026-03-22T13:09:12.029Z</time></trkpt><trkpt lat="21.87710430062593" lon="-102.34640331185365"><ele>1856.0</ele><time>2026-03-22T13:09:13.029Z</time></trkpt><trkpt lat="21.877130874491737" lon="-102.34651085905463"><ele>1856.0</ele><time>2026-03-22T13:09:14.029Z</time></trkpt><trkpt lat="21.877159290494614" lon="-102.34661581968754"><ele>1855.8</ele><time>2026-03-22T13:09:15.029Z</time></trkpt><trkpt lat="21.87718706076077" lon="-102.34672245923483"><ele>1855.6</ele><time>2026-03-22T13:09:16.029Z</time></trkpt><trkpt lat="21.87721859461996" lon="-102.34682885027938"><ele>1855.4</ele><time>2026-03-22T13:09:17.029Z</time></trkpt><trkpt lat="21.87724382483241" lon="-102.34693471609755"><ele>1855.2</ele><time>2026-03-22T13:09:18.029Z</time></trkpt><trkpt lat="21.87727371456449" lon="-102.34703504888941"><ele>1855.0</ele><time>2026-03-22T13:09:19.029Z</time></trkpt><trkpt lat="21.877300635791865" lon="-102.34714125943687"><ele>1855.6</ele><time>2026-03-22T13:09:20.029Z</time></trkpt><trkpt lat="21.87732515434994" lon="-102.3472456334495"><ele>1856.2</ele><time>2026-03-22T13:09:21.029Z</time></trkpt><trkpt lat="21.877355820388207" lon="-102.34735944252931"><ele>1856.8000000000002</ele><time>2026-03-22T13:09:22.029Z</time></trkpt><trkpt lat="21.877382529166645" lon="-102.34747543708342"><ele>1857.4</ele><time>2026-03-22T13:09:23.029Z</time></trkpt><trkpt lat="21.87741174535338" lon="-102.34758711721199"><ele>1858.0</ele><time>2026-03-22T13:09:24.029Z</time></trkpt><trkpt lat="21.877447599669164" lon="-102.3476979347397"><ele>1858.0</ele><time>2026-03-22T13:09:25.029Z</time></trkpt><trkpt lat="21.877466271806735" lon="-102.3478057066786"><ele>1858.0000000000002</ele><time>2026-03-22T13:09:26.029Z</time></trkpt><trkpt lat="21.87749716500774" lon="-102.34791610574726"><ele>1858.0000000000002</ele><time>2026-03-22T13:09:27.029Z</time></trkpt><trkpt lat="21.877529514344182" lon="-102.3480307582714"><ele>1858.0</ele><time>2026-03-22T13:09:28.029Z</time></trkpt><trkpt lat="21.877563679736074" lon="-102.34814119979659"><ele>1858.0</ele><time>2026-03-22T13:09:29.029Z</time></trkpt><trkpt lat="21.877591273662482" lon="-102.34825806898242"><ele>1858.4</ele><time>2026-03-22T13:09:30.029Z</time></trkpt><trkpt lat="21.877624089157756" lon="-102.34838009187816"><ele>1858.8000000000002</ele><time>2026-03-22T13:09:31.029Z</time></trkpt><trkpt lat="21.877654141790323" lon="-102.34848477597191"><ele>1859.2</ele><time>2026-03-22T13:09:32.029Z</time></trkpt><trkpt lat="21.877683037130943" lon="-102.34860331124037"><ele>1859.6</ele><time>2026-03-22T13:09:33.029Z</time></trkpt><trkpt lat="21.8777072788925" lon="-102.34871962569547"><ele>1860.0</ele><time>2026-03-22T13:09:34.029Z</time></trkpt><trkpt lat="21.877739387237874" lon="-102.3488278820652"><ele>1859.4</ele><time>2026-03-22T13:09:35.029Z</time></trkpt><trkpt lat="21.877771379641114" lon="-102.34893745851828"><ele>1858.8</ele><time>2026-03-22T13:09:36.029Z</time></trkpt><trkpt lat="21.87780127635893" lon="-102.34904703899342"><ele>1858.1999999999998</ele><time>2026-03-22T13:09:37.029Z</time></trkpt><trkpt lat="21.87783051656664" lon="-102.3491637548192"><ele>1857.6</ele><time>2026-03-22T13:09:38.029Z</time></trkpt><trkpt lat="21.877865233014006" lon="-102.3492702548517"><ele>1857.0</ele><time>2026-03-22T13:09:39.029Z</time></trkpt><trkpt lat="21.87789098923948" lon="-102.34938203218279"><ele>1857.0</ele><time>2026-03-22T13:09:40.029Z</time></trkpt><trkpt lat="21.877925929094648" lon="-102.34949694006183"><ele>1856.9999999999998</ele><time>2026-03-22T13:09:41.029Z</time></trkpt><trkpt lat="21.877957461782106" lon="-102.34960847131325"><ele>1856.9999999999998</ele><time>2026-03-22T13:09:42.031Z</time></trkpt><trkpt lat="21.877988246525568" lon="-102.34971979672284"><ele>1857.0</ele><time>2026-03-22T13:09:43.032Z</time></trkpt><trkpt lat="21.87801265587982" lon="-102.34982272693892"><ele>1857.0</ele><time>2026-03-22T13:09:44.032Z</time></trkpt><trkpt lat="21.878040887727625" lon="-102.34992882756652"><ele>1856.8</ele><time>2026-03-22T13:09:45.031Z</time></trkpt><trkpt lat="21.878069517962363" lon="-102.35003026008178"><ele>1856.6</ele><time>2026-03-22T13:09:46.031Z</time></trkpt><trkpt lat="21.878094526685125" lon="-102.35014358204396"><ele>1856.3999999999999</ele><time>2026-03-22T13:09:47.031Z</time></trkpt><trkpt lat="21.878128212210672" lon="-102.35024901823849"><ele>1856.1999999999998</ele><time>2026-03-22T13:09:48.031Z</time></trkpt><trkpt lat="21.87816152435262" lon="-102.35036397635538"><ele>1856.0</ele><time>2026-03-22T13:09:49.031Z</time></trkpt><trkpt lat="21.878187617163274" lon="-102.35046431215628"><ele>1856.6</ele><time>2026-03-22T13:09:50.031Z</time></trkpt><trkpt lat="21.878218473431932" lon="-102.35057537645835"><ele>1857.1999999999998</ele><time>2026-03-22T13:09:51.031Z</time></trkpt><trkpt lat="21.878247572732317" lon="-102.35068855609063"><ele>1857.8000000000002</ele><time>2026-03-22T13:09:52.03Z</time></trkpt><trkpt lat="21.878273548383476" lon="-102.35079624405955"><ele>1858.4</ele><time>2026-03-22T13:09:53.03Z</time></trkpt><trkpt lat="21.878298807759077" lon="-102.35089540854496"><ele>1859.0</ele><time>2026-03-22T13:09:54.031Z</time></trkpt><trkpt lat="21.87832366365431" lon="-102.35097887306614"><ele>1858.9999999999998</ele><time>2026-03-22T13:09:55.031Z</time></trkpt><trkpt lat="21.878351013502467" lon="-102.35106684341052"><ele>1859.0</ele><time>2026-03-22T13:09:56.031Z</time></trkpt><trkpt lat="21.87838282490816" lon="-102.35115270293142"><ele>1859.0</ele><time>2026-03-22T13:09:57.031Z</time></trkpt><trkpt lat="21.878409540422005" lon="-102.35124152742048"><ele>1859.0</ele><time>2026-03-22T13:09:58.031Z</time></trkpt><trkpt lat="21.87842924096478" lon="-102.35133408469768"><ele>1858.9999999999998</ele><time>2026-03-22T13:09:59.031Z</time></trkpt><trkpt lat="21.878453965035817" lon="-102.35142943152461"><ele>1859.0</ele><time>2026-03-22T13:10:00.031Z</time></trkpt><trkpt lat="21.878480754226363" lon="-102.35152363584248"><ele>1858.8000000000002</ele><time>2026-03-22T13:10:01.031Z</time></trkpt><trkpt lat="21.878510137092416" lon="-102.35161380479245"><ele>1858.6000000000001</ele><time>2026-03-22T13:10:02.031Z</time></trkpt><trkpt lat="21.878531799562957" lon="-102.35170479829041"><ele>1858.4</ele><time>2026-03-22T13:10:03.031Z</time></trkpt><trkpt lat="21.878559984191337" lon="-102.35179456545275"><ele>1858.2</ele><time>2026-03-22T13:10:04.031Z</time></trkpt><trkpt lat="21.87858920149798" lon="-102.35189563219335"><ele>1858.0</ele><time>2026-03-22T13:10:05.031Z</time></trkpt><trkpt lat="21.878611182197496" lon="-102.35200021760974"><ele>1858.0</ele><time>2026-03-22T13:10:06.031Z</time></trkpt><trkpt lat="21.8786420067719" lon="-102.35210194066822"><ele>1858.0000000000002</ele><time>2026-03-22T13:10:07.031Z</time></trkpt><trkpt lat="21.878673340754652" lon="-102.35220483596676"><ele>1858.0000000000002</ele><time>2026-03-22T13:10:08.031Z</time></trkpt><trkpt lat="21.87870012644923" lon="-102.3523092831209"><ele>1858.0</ele><time>2026-03-22T13:10:09.031Z</time></trkpt><trkpt lat="21.878728256285306" lon="-102.35240999574421"><ele>1858.0</ele><time>2026-03-22T13:10:10.031Z</time></trkpt><trkpt lat="21.878754049044904" lon="-102.35252240071418"><ele>1858.0</ele><time>2026-03-22T13:10:11.031Z</time></trkpt><trkpt lat="21.878783891195024" lon="-102.35262871075216"><ele>1858.0000000000002</ele><time>2026-03-22T13:10:12.031Z</time></trkpt><trkpt lat="21.878809457768416" lon="-102.35272929377544"><ele>1858.0000000000002</ele><time>2026-03-22T13:10:13.031Z</time></trkpt><trkpt lat="21.878836397615455" lon="-102.35283313600247"><ele>1858.0</ele><time>2026-03-22T13:10:14.031Z</time></trkpt><trkpt lat="21.878860968219477" lon="-102.35293767094338"><ele>1858.0</ele><time>2026-03-22T13:10:15.031Z</time></trkpt><trkpt lat="21.878883096388837" lon="-102.35303866371783"><ele>1858.2</ele><time>2026-03-22T13:10:16.031Z</time></trkpt><trkpt lat="21.878903379877855" lon="-102.35313730108096"><ele>1858.4</ele><time>2026-03-22T13:10:17.031Z</time></trkpt><trkpt lat="21.87892929633341" lon="-102.35323486388843"><ele>1858.6000000000001</ele><time>2026-03-22T13:10:18.031Z</time></trkpt><trkpt lat="21.878956542105353" lon="-102.35332882714243"><ele>1858.8000000000002</ele><time>2026-03-22T13:10:19.031Z</time></trkpt><trkpt lat="21.878983701995516" lon="-102.35342728598044"><ele>1859.0</ele><time>2026-03-22T13:10:20.031Z</time></trkpt><trkpt lat="21.879011681785716" lon="-102.35351828636604"><ele>1859.0</ele><time>2026-03-22T13:10:21.031Z</time></trkpt><trkpt lat="21.879037560902805" lon="-102.35361675307483"><ele>1859.0</ele><time>2026-03-22T13:10:22.031Z</time></trkpt><trkpt lat="21.879056265119992" lon="-102.35371994162625"><ele>1859.0</ele><time>2026-03-22T13:10:23.031Z</time></trkpt><trkpt lat="21.879084516916198" lon="-102.35381304069583"><ele>1859.0</ele><time>2026-03-22T13:10:24.031Z</time></trkpt><trkpt lat="21.879117470895434" lon="-102.35390554525544"><ele>1859.0</ele><time>2026-03-22T13:10:25.031Z</time></trkpt><trkpt lat="21.879143039608675" lon="-102.35401287648422"><ele>1859.0</ele><time>2026-03-22T13:10:26.031Z</time></trkpt><trkpt lat="21.879166643299307" lon="-102.3541186626486"><ele>1859.0</ele><time>2026-03-22T13:10:27.031Z</time></trkpt><trkpt lat="21.879198278622674" lon="-102.35422377027834"><ele>1859.0</ele><time>2026-03-22T13:10:28.031Z</time></trkpt><trkpt lat="21.87922303930157" lon="-102.3543258743852"><ele>1859.0</ele><time>2026-03-22T13:10:29.031Z</time></trkpt><trkpt lat="21.879246908855553" lon="-102.35443047405501"><ele>1859.0</ele><time>2026-03-22T13:10:30.031Z</time></trkpt><trkpt lat="21.87927100181297" lon="-102.35452320233357"><ele>1858.4</ele><time>2026-03-22T13:10:31.031Z</time></trkpt><trkpt lat="21.879291300987983" lon="-102.35462079214672"><ele>1857.8000000000002</ele><time>2026-03-22T13:10:32.031Z</time></trkpt><trkpt lat="21.87931228809432" lon="-102.3547237254228"><ele>1857.1999999999998</ele><time>2026-03-22T13:10:33.031Z</time></trkpt><trkpt lat="21.879342212173317" lon="-102.35483647788443"><ele>1856.6</ele><time>2026-03-22T13:10:34.031Z</time></trkpt><trkpt lat="21.879370401846298" lon="-102.35494203619754"><ele>1856.0</ele><time>2026-03-22T13:10:35.031Z</time></trkpt><trkpt lat="21.879402021160566" lon="-102.35504858926959"><ele>1856.0</ele><time>2026-03-22T13:10:36.031Z</time></trkpt><trkpt lat="21.879428984882903" lon="-102.35514827975173"><ele>1856.0</ele><time>2026-03-22T13:10:37.031Z</time></trkpt><trkpt lat="21.87944545336369" lon="-102.35523621936"><ele>1856.0</ele><time>2026-03-22T13:10:38.031Z</time></trkpt><trkpt lat="21.8794698899858" lon="-102.35533742875484"><ele>1856.0</ele><time>2026-03-22T13:10:39.031Z</time></trkpt><trkpt lat="21.87950359165582" lon="-102.3554238857802"><ele>1856.0</ele><time>2026-03-22T13:10:40.031Z</time></trkpt><trkpt lat="21.879530102214762" lon="-102.3555174945112"><ele>1856.4</ele><time>2026-03-22T13:10:41.031Z</time></trkpt><trkpt lat="21.879552311854823" lon="-102.35561594689841"><ele>1856.8</ele><time>2026-03-22T13:10:42.031Z</time></trkpt><trkpt lat="21.879580880713785" lon="-102.35571000102166"><ele>1857.2000000000003</ele><time>2026-03-22T13:10:43.031Z</time></trkpt><trkpt lat="21.879607265391606" lon="-102.35580413324023"><ele>1857.6000000000001</ele><time>2026-03-22T13:10:44.031Z</time></trkpt><trkpt lat="21.87963347947263" lon="-102.35589508812328"><ele>1858.0</ele><time>2026-03-22T13:10:45.031Z</time></trkpt><trkpt lat="21.87965145973211" lon="-102.35598803779439"><ele>1858.0000000000002</ele><time>2026-03-22T13:10:46.031Z</time></trkpt><trkpt lat="21.87967379429239" lon="-102.35607956785871"><ele>1858.0</ele><time>2026-03-22T13:10:47.031Z</time></trkpt><trkpt lat="21.87969335287168" lon="-102.35616453800137"><ele>1858.0</ele><time>2026-03-22T13:10:48.031Z</time></trkpt><trkpt lat="21.879722070761886" lon="-102.35624837126295"><ele>1858.0</ele><time>2026-03-22T13:10:49.031Z</time></trkpt><trkpt lat="21.879752141145758" lon="-102.3563407283943"><ele>1858.0000000000002</ele><time>2026-03-22T13:10:50.031Z</time></trkpt><trkpt lat="21.879782530916977" lon="-102.356430222727"><ele>1858.0</ele><time>2026-03-22T13:10:51.031Z</time></trkpt><trkpt lat="21.879806931497534" lon="-102.35651360660073"><ele>1858.4285714285716</ele><time>2026-03-22T13:10:52.031Z</time></trkpt><trkpt lat="21.8798270629992" lon="-102.35659530064554"><ele>1858.8571428571431</ele><time>2026-03-22T13:10:53.031Z</time></trkpt><trkpt lat="21.879845854802333" lon="-102.35667759908641"><ele>1859.2857142857142</ele><time>2026-03-22T13:10:54.031Z</time></trkpt><trkpt lat="21.87986855273236" lon="-102.35675128341013"><ele>1859.7142857142858</ele><time>2026-03-22T13:10:55.031Z</time></trkpt><trkpt lat="21.879887130432397" lon="-102.35683365256753"><ele>1860.142857142857</ele><time>2026-03-22T13:10:56.031Z</time></trkpt><trkpt lat="21.879906780507454" lon="-102.35690224880118"><ele>1860.5714285714284</ele><time>2026-03-22T13:10:57.031Z</time></trkpt><trkpt lat="21.87992786290685" lon="-102.35697172368089"><ele>1860.9999999999998</ele><time>2026-03-22T13:10:58.031Z</time></trkpt><trkpt lat="21.87996782443695" lon="-102.35710634463544"><ele>1861.0000000000002</ele><time>2026-03-22T13:11:00.031Z</time></trkpt><trkpt lat="21.87998405216021" lon="-102.35718839049987"><ele>1861.0</ele><time>2026-03-22T13:11:01.031Z</time></trkpt><trkpt lat="21.880003881886168" lon="-102.35726525697808"><ele>1861.0</ele><time>2026-03-22T13:11:02.031Z</time></trkpt><trkpt lat="21.88002889788221" lon="-102.3573394153935"><ele>1861.0</ele><time>2026-03-22T13:11:03.031Z</time></trkpt><trkpt lat="21.88004383365876" lon="-102.35740573044113"><ele>1861.0000000000002</ele><time>2026-03-22T13:11:04.031Z</time></trkpt><trkpt lat="21.88007687565077" lon="-102.35753319325607"><ele>1861.0</ele><time>2026-03-22T13:11:06.031Z</time></trkpt><trkpt lat="21.880090877263626" lon="-102.35759977423584"><ele>1860.9999999999998</ele><time>2026-03-22T13:11:07.031Z</time></trkpt><trkpt lat="21.880108614811235" lon="-102.35766714730154"><ele>1861.0</ele><time>2026-03-22T13:11:08.031Z</time></trkpt><trkpt lat="21.88012925258052" lon="-102.3577446314584"><ele>1860.9999999999998</ele><time>2026-03-22T13:11:09.031Z</time></trkpt><trkpt lat="21.880151412249717" lon="-102.35782047546023"><ele>1860.9999999999998</ele><time>2026-03-22T13:11:10.031Z</time></trkpt><trkpt lat="21.880169675875376" lon="-102.35789854224818"><ele>1861.0</ele><time>2026-03-22T13:11:11.031Z</time></trkpt><trkpt lat="21.88019377212173" lon="-102.35797225793821"><ele>1860.9999999999998</ele><time>2026-03-22T13:11:12.031Z</time></trkpt><trkpt lat="21.88021284767668" lon="-102.35806133578753"><ele>1860.9999999999998</ele><time>2026-03-22T13:11:13.031Z</time></trkpt><trkpt lat="21.880233024254743" lon="-102.35814224984566"><ele>1861.8333333333335</ele><time>2026-03-22T13:11:14.031Z</time></trkpt><trkpt lat="21.880254089776958" lon="-102.35822215475655"><ele>1862.6666666666667</ele><time>2026-03-22T13:11:15.031Z</time></trkpt><trkpt lat="21.88027789730296" lon="-102.35831052349347"><ele>1863.5</ele><time>2026-03-22T13:11:16.031Z</time></trkpt><trkpt lat="21.880299010008027" lon="-102.35839493346873"><ele>1864.3333333333335</ele><time>2026-03-22T13:11:17.031Z</time></trkpt><trkpt lat="21.880317618828315" lon="-102.35847720120725"><ele>1865.1666666666667</ele><time>2026-03-22T13:11:18.031Z</time></trkpt><trkpt lat="21.880334475877863" lon="-102.35855612589292"><ele>1866.0</ele><time>2026-03-22T13:11:19.031Z</time></trkpt><trkpt lat="21.88035658384794" lon="-102.35863529429085"><ele>1866.0</ele><time>2026-03-22T13:11:20.031Z</time></trkpt><trkpt lat="21.880382527373314" lon="-102.35872218841577"><ele>1866.0</ele><time>2026-03-22T13:11:21.031Z</time></trkpt><trkpt lat="21.880403718539696" lon="-102.35879692501095"><ele>1866.0</ele><time>2026-03-22T13:11:22.031Z</time></trkpt><trkpt lat="21.880425733794326" lon="-102.35887416240018"><ele>1866.0</ele><time>2026-03-22T13:11:23.031Z</time></trkpt><trkpt lat="21.880445848331195" lon="-102.3589554270919"><ele>1866.0</ele><time>2026-03-22T13:11:24.031Z</time></trkpt><trkpt lat="21.88046758446675" lon="-102.35903612199999"><ele>1866.0</ele><time>2026-03-22T13:11:25.031Z</time></trkpt><trkpt lat="21.880485217099473" lon="-102.35911591645814"><ele>1866.5714285714284</ele><time>2026-03-22T13:11:26.031Z</time></trkpt><trkpt lat="21.880510270205054" lon="-102.35918912032638"><ele>1867.1428571428569</ele><time>2026-03-22T13:11:27.031Z</time></trkpt><trkpt lat="21.88053316167059" lon="-102.35927154331365"><ele>1867.7142857142858</ele><time>2026-03-22T13:11:28.031Z</time></trkpt><trkpt lat="21.880552337482037" lon="-102.35934968853"><ele>1868.2857142857142</ele><time>2026-03-22T13:11:29.031Z</time></trkpt><trkpt lat="21.88056964144808" lon="-102.35942433540522"><ele>1868.857142857143</ele><time>2026-03-22T13:11:30.031Z</time></trkpt><trkpt lat="21.8805929358066" lon="-102.35949779029244"><ele>1869.4285714285716</ele><time>2026-03-22T13:11:31.031Z</time></trkpt><trkpt lat="21.880615838392444" lon="-102.3595776842631"><ele>1870.0000000000002</ele><time>2026-03-22T13:11:32.031Z</time></trkpt><trkpt lat="21.88063201080261" lon="-102.35965029800238"><ele>1870.1666666666667</ele><time>2026-03-22T13:11:33.031Z</time></trkpt><trkpt lat="21.880657039722145" lon="-102.35973393885119"><ele>1870.3333333333335</ele><time>2026-03-22T13:11:34.03Z</time></trkpt><trkpt lat="21.880678224258883" lon="-102.35981277966013"><ele>1870.5</ele><time>2026-03-22T13:11:35.03Z</time></trkpt><trkpt lat="21.88069519423515" lon="-102.35988154840821"><ele>1870.6666666666665</ele><time>2026-03-22T13:11:36.03Z</time></trkpt><trkpt lat="21.88072301990697" lon="-102.359954667092"><ele>1870.8333333333333</ele><time>2026-03-22T13:11:37.03Z</time></trkpt><trkpt lat="21.88075503204607" lon="-102.36009153729755"><ele>1871.0</ele><time>2026-03-22T13:11:39.03Z</time></trkpt><trkpt lat="21.880777075676075" lon="-102.36018192175815"><ele>1870.9999999999998</ele><time>2026-03-22T13:11:40.03Z</time></trkpt><trkpt lat="21.88079910523775" lon="-102.36027330456884"><ele>1871.0</ele><time>2026-03-22T13:11:41.03Z</time></trkpt><trkpt lat="21.88082157836398" lon="-102.36034267256062"><ele>1871.0</ele><time>2026-03-22T13:11:42.03Z</time></trkpt><trkpt lat="21.88084069413836" lon="-102.36041976278146"><ele>1871.0</ele><time>2026-03-22T13:11:43.03Z</time></trkpt><trkpt lat="21.880865007906703" lon="-102.36049717676305"><ele>1870.9999999999998</ele><time>2026-03-22T13:11:44.03Z</time></trkpt><trkpt lat="21.880886611023513" lon="-102.36058198010221"><ele>1871.0</ele><time>2026-03-22T13:11:45.03Z</time></trkpt><trkpt lat="21.8809097452704" lon="-102.36066103771456"><ele>1871.0</ele><time>2026-03-22T13:11:46.03Z</time></trkpt><trkpt lat="21.88092807511313" lon="-102.3607317693471"><ele>1871.0</ele><time>2026-03-22T13:11:47.03Z</time></trkpt><trkpt lat="21.880948059058536" lon="-102.36081246709436"><ele>1871.0</ele><time>2026-03-22T13:11:48.033Z</time></trkpt><trkpt lat="21.88096900293054" lon="-102.36088256568684"><ele>1871.0</ele><time>2026-03-22T13:11:49.032Z</time></trkpt><trkpt lat="21.880990873283178" lon="-102.3609662303094"><ele>1871.0</ele><time>2026-03-22T13:11:50.03Z</time></trkpt><trkpt lat="21.881009801455832" lon="-102.36103604076065"><ele>1871.0</ele><time>2026-03-22T13:11:51.03Z</time></trkpt><trkpt lat="21.881027667110533" lon="-102.36111973179979"><ele>1871.0</ele><time>2026-03-22T13:11:52.028Z</time></trkpt><trkpt lat="21.881047823339703" lon="-102.36119602988829"><ele>1871.0</ele><time>2026-03-22T13:11:53.027Z</time></trkpt><trkpt lat="21.881074090920492" lon="-102.36127435087677"><ele>1871.0</ele><time>2026-03-22T13:11:54.026Z</time></trkpt><trkpt lat="21.88108981354007" lon="-102.36134215960227"><ele>1871.0</ele><time>2026-03-22T13:11:55.024Z</time></trkpt><trkpt lat="21.881108845992863" lon="-102.3614156595546"><ele>1871.0</ele><time>2026-03-22T13:11:56.023Z</time></trkpt><trkpt lat="21.881131457515746" lon="-102.36149183545221"><ele>1871.0</ele><time>2026-03-22T13:11:57.023Z</time></trkpt><trkpt lat="21.88115214724897" lon="-102.361564209378"><ele>1871.0</ele><time>2026-03-22T13:11:58.022Z</time></trkpt><trkpt lat="21.88117453356278" lon="-102.36164004564074"><ele>1871.0</ele><time>2026-03-22T13:11:59.021Z</time></trkpt><trkpt lat="21.88119440586615" lon="-102.36171784512206"><ele>1870.9999999999998</ele><time>2026-03-22T13:12:00.021Z</time></trkpt><trkpt lat="21.881216040386583" lon="-102.36179699676495"><ele>1871.0</ele><time>2026-03-22T13:12:01.019Z</time></trkpt><trkpt lat="21.881236074418325" lon="-102.3618751212663"><ele>1871.0</ele><time>2026-03-22T13:12:02.018Z</time></trkpt><trkpt lat="21.881260505197815" lon="-102.36194724569681"><ele>1871.0</ele><time>2026-03-22T13:12:03.018Z</time></trkpt><trkpt lat="21.881286069294774" lon="-102.36201774444163"><ele>1870.9999999999998</ele><time>2026-03-22T13:12:04.017Z</time></trkpt><trkpt lat="21.881303971996836" lon="-102.36209859068465"><ele>1871.0</ele><time>2026-03-22T13:12:05.016Z</time></trkpt><trkpt lat="21.881320340403168" lon="-102.36218311075162"><ele>1871.4285714285716</ele><time>2026-03-22T13:12:06.016Z</time></trkpt><trkpt lat="21.881340550869854" lon="-102.36225249789317"><ele>1871.8571428571427</ele><time>2026-03-22T13:12:07.015Z</time></trkpt><trkpt lat="21.88135953013369" lon="-102.36233775790441"><ele>1872.2857142857142</ele><time>2026-03-22T13:12:08.015Z</time></trkpt><trkpt lat="21.881381684756146" lon="-102.36241049869534"><ele>1872.7142857142858</ele><time>2026-03-22T13:12:09.014Z</time></trkpt><trkpt lat="21.88140098506093" lon="-102.36248009193845"><ele>1873.1428571428573</ele><time>2026-03-22T13:12:10.014Z</time></trkpt><trkpt lat="21.881422588067647" lon="-102.36256654057651"><ele>1873.5714285714284</ele><time>2026-03-22T13:12:11.014Z</time></trkpt><trkpt lat="21.88144230839336" lon="-102.3626465615532"><ele>1874.0</ele><time>2026-03-22T13:12:12.013Z</time></trkpt><trkpt lat="21.88146191605624" lon="-102.36271998275777"><ele>1873.9999999999998</ele><time>2026-03-22T13:12:13.013Z</time></trkpt><trkpt lat="21.88148525420775" lon="-102.36280193086003"><ele>1874.0</ele><time>2026-03-22T13:12:14.013Z</time></trkpt><trkpt lat="21.881508610274018" lon="-102.36288227214911"><ele>1874.0</ele><time>2026-03-22T13:12:15.012Z</time></trkpt><trkpt lat="21.881526263530038" lon="-102.36296232445338"><ele>1874.0</ele><time>2026-03-22T13:12:16.012Z</time></trkpt><trkpt lat="21.88154284689417" lon="-102.36304340617751"><ele>1873.9999999999998</ele><time>2026-03-22T13:12:17.012Z</time></trkpt><trkpt lat="21.88156310527461" lon="-102.36312427628746"><ele>1874.0</ele><time>2026-03-22T13:12:18.011Z</time></trkpt><trkpt lat="21.881580388505554" lon="-102.3631954087201"><ele>1874.4999999999998</ele><time>2026-03-22T13:12:19.011Z</time></trkpt><trkpt lat="21.881603848790892" lon="-102.36326917011124"><ele>1875.0</ele><time>2026-03-22T13:12:20.011Z</time></trkpt><trkpt lat="21.881626994922744" lon="-102.36334723372882"><ele>1875.5</ele><time>2026-03-22T13:12:21.011Z</time></trkpt><trkpt lat="21.881649092543643" lon="-102.36343243575294"><ele>1876.0</ele><time>2026-03-22T13:12:22.011Z</time></trkpt><trkpt lat="21.881670018342007" lon="-102.36351501962571"><ele>1876.4999999999998</ele><time>2026-03-22T13:12:23.01Z</time></trkpt><trkpt lat="21.881695547713186" lon="-102.36359829660094"><ele>1877.0</ele><time>2026-03-22T13:12:24.01Z</time></trkpt><trkpt lat="21.881718156808624" lon="-102.36368196312011"><ele>1876.9999999999998</ele><time>2026-03-22T13:12:25.01Z</time></trkpt><trkpt lat="21.881741912719747" lon="-102.36376900411264"><ele>1877.0</ele><time>2026-03-22T13:12:26.01Z</time></trkpt><trkpt lat="21.881767607702294" lon="-102.36386316035163"><ele>1877.0</ele><time>2026-03-22T13:12:27.01Z</time></trkpt><trkpt lat="21.88179148451758" lon="-102.36395298728658"><ele>1877.0</ele><time>2026-03-22T13:12:28.01Z</time></trkpt><trkpt lat="21.881817453371852" lon="-102.36404534207593"><ele>1876.9999999999998</ele><time>2026-03-22T13:12:29.009Z</time></trkpt><trkpt lat="21.881839599001385" lon="-102.36413811589159"><ele>1877.0</ele><time>2026-03-22T13:12:30.009Z</time></trkpt><trkpt lat="21.881863143763567" lon="-102.36422108226527"><ele>1876.6</ele><time>2026-03-22T13:12:31.009Z</time></trkpt><trkpt lat="21.88189268908952" lon="-102.36431990936771"><ele>1876.1999999999998</ele><time>2026-03-22T13:12:32.009Z</time></trkpt><trkpt lat="21.881916784910107" lon="-102.36440985792738"><ele>1875.8</ele><time>2026-03-22T13:12:33.009Z</time></trkpt><trkpt lat="21.881933621580362" lon="-102.36450596726618"><ele>1875.4</ele><time>2026-03-22T13:12:34.009Z</time></trkpt><trkpt lat="21.88195981962761" lon="-102.36460042313216"><ele>1875.0</ele><time>2026-03-22T13:12:35.009Z</time></trkpt><trkpt lat="21.881986083813803" lon="-102.36469257911577"><ele>1875.3333333333333</ele><time>2026-03-22T13:12:36.009Z</time></trkpt><trkpt lat="21.882009590910094" lon="-102.36477660164087"><ele>1875.6666666666665</ele><time>2026-03-22T13:12:37.009Z</time></trkpt><trkpt lat="21.882033386251113" lon="-102.36486787276326"><ele>1876.0</ele><time>2026-03-22T13:12:38.009Z</time></trkpt><trkpt lat="21.882057765822537" lon="-102.36494281554045"><ele>1876.3333333333333</ele><time>2026-03-22T13:12:39.008Z</time></trkpt><trkpt lat="21.882080220641335" lon="-102.36503290105615"><ele>1876.6666666666665</ele><time>2026-03-22T13:12:40.008Z</time></trkpt><trkpt lat="21.882101520564643" lon="-102.36511460104205"><ele>1877.0</ele><time>2026-03-22T13:12:41.008Z</time></trkpt><trkpt lat="21.882126447712896" lon="-102.36520284111414"><ele>1876.9999999999998</ele><time>2026-03-22T13:12:42.008Z</time></trkpt><trkpt lat="21.882148697549177" lon="-102.36528838644992"><ele>1877.0</ele><time>2026-03-22T13:12:43.008Z</time></trkpt><trkpt lat="21.882166299640478" lon="-102.36536889346469"><ele>1877.0</ele><time>2026-03-22T13:12:44.008Z</time></trkpt><trkpt lat="21.882190665117463" lon="-102.36545540237623"><ele>1877.0</ele><time>2026-03-22T13:12:45.008Z</time></trkpt><trkpt lat="21.882211655483076" lon="-102.36554400054752"><ele>1876.9999999999998</ele><time>2026-03-22T13:12:46.008Z</time></trkpt><trkpt lat="21.882229420421773" lon="-102.36562813297395"><ele>1877.0</ele><time>2026-03-22T13:12:47.008Z</time></trkpt><trkpt lat="21.88224775782547" lon="-102.36571453770716"><ele>1878.4285714285716</ele><time>2026-03-22T13:12:48.008Z</time></trkpt><trkpt lat="21.882270082216728" lon="-102.36578742908456"><ele>1879.857142857143</ele><time>2026-03-22T13:12:49.008Z</time></trkpt><trkpt lat="21.88228579098789" lon="-102.36586090533898"><ele>1881.2857142857142</ele><time>2026-03-22T13:12:50.008Z</time></trkpt><trkpt lat="21.882301784253094" lon="-102.36593863596251"><ele>1882.7142857142858</ele><time>2026-03-22T13:12:51.008Z</time></trkpt><trkpt lat="21.88231677658268" lon="-102.36601056206781"><ele>1884.1428571428569</ele><time>2026-03-22T13:12:52.008Z</time></trkpt><trkpt lat="21.882337616267417" lon="-102.36608992513008"><ele>1885.5714285714284</ele><time>2026-03-22T13:12:53.008Z</time></trkpt><trkpt lat="21.88235751645064" lon="-102.36616735848891"><ele>1887.0</ele><time>2026-03-22T13:12:54.008Z</time></trkpt><trkpt lat="21.882379753393067" lon="-102.3662442345261"><ele>1887.0</ele><time>2026-03-22T13:12:55.008Z</time></trkpt><trkpt lat="21.88240652487831" lon="-102.36632392240074"><ele>1887.0</ele><time>2026-03-22T13:12:56.008Z</time></trkpt><trkpt lat="21.88242560017515" lon="-102.36640082514715"><ele>1887.0</ele><time>2026-03-22T13:12:57.008Z</time></trkpt><trkpt lat="21.882439546969536" lon="-102.36648413229176"><ele>1887.0</ele><time>2026-03-22T13:12:58.008Z</time></trkpt><trkpt lat="21.882459034602373" lon="-102.36656120552313"><ele>1887.0</ele><time>2026-03-22T13:12:59.008Z</time></trkpt><trkpt lat="21.882500569705186" lon="-102.36668395869923"><ele>1887.0</ele><time>2026-03-22T13:13:01.007Z</time></trkpt><trkpt lat="21.882519741449464" lon="-102.36675288324437"><ele>1887.0</ele><time>2026-03-22T13:13:02.007Z</time></trkpt><trkpt lat="21.882542787357014" lon="-102.366821238537"><ele>1887.0</ele><time>2026-03-22T13:13:03.007Z</time></trkpt><trkpt lat="21.88256697682724" lon="-102.366894309762"><ele>1887.0</ele><time>2026-03-22T13:13:04.007Z</time></trkpt><trkpt lat="21.88258676637855" lon="-102.36696799307423"><ele>1887.0</ele><time>2026-03-22T13:13:05.007Z</time></trkpt><trkpt lat="21.88260184626909" lon="-102.36704638877737"><ele>1887.0</ele><time>2026-03-22T13:13:06.007Z</time></trkpt><trkpt lat="21.88262253943527" lon="-102.36712180586841"><ele>1887.0</ele><time>2026-03-22T13:13:07.007Z</time></trkpt><trkpt lat="21.882655749416372" lon="-102.36725793476981"><ele>1887.0</ele><time>2026-03-22T13:13:09.007Z</time></trkpt><trkpt lat="21.882679729463593" lon="-102.36732406075579"><ele>1886.9999999999998</ele><time>2026-03-22T13:13:10.007Z</time></trkpt><trkpt lat="21.882694443615385" lon="-102.3673958080076"><ele>1887.0</ele><time>2026-03-22T13:13:11.007Z</time></trkpt><trkpt lat="21.882709385920005" lon="-102.36746403670068"><ele>1887.0</ele><time>2026-03-22T13:13:12.007Z</time></trkpt><trkpt lat="21.882730015843" lon="-102.36753956646785"><ele>1886.9999999999998</ele><time>2026-03-22T13:13:13.007Z</time></trkpt><trkpt lat="21.882749188233575" lon="-102.36761397915168"><ele>1887.0</ele><time>2026-03-22T13:13:14.007Z</time></trkpt><trkpt lat="21.882772536522143" lon="-102.36767777992127"><ele>1887.0</ele><time>2026-03-22T13:13:15.007Z</time></trkpt><trkpt lat="21.882808620883594" lon="-102.36781134246469"><ele>1887.0</ele><time>2026-03-22T13:13:17.007Z</time></trkpt><trkpt lat="21.88282460288229" lon="-102.36787777186659"><ele>1886.9999999999998</ele><time>2026-03-22T13:13:18.007Z</time></trkpt><trkpt lat="21.88284241363419" lon="-102.36794801341362"><ele>1887.0</ele><time>2026-03-22T13:13:19.007Z</time></trkpt><trkpt lat="21.882857279717495" lon="-102.36801725418766"><ele>1887.0</ele><time>2026-03-22T13:13:20.007Z</time></trkpt><trkpt lat="21.88287702996047" lon="-102.36808622298493"><ele>1886.9999999999998</ele><time>2026-03-22T13:13:21.007Z</time></trkpt><trkpt lat="21.882896162668068" lon="-102.36815917563432"><ele>1887.0</ele><time>2026-03-22T13:13:22.007Z</time></trkpt><trkpt lat="21.88291517256552" lon="-102.36823352221498"><ele>1887.0</ele><time>2026-03-22T13:13:23.007Z</time></trkpt><trkpt lat="21.88293168847236" lon="-102.3683044099959"><ele>1887.6666666666667</ele><time>2026-03-22T13:13:24.007Z</time></trkpt><trkpt lat="21.88294975911487" lon="-102.36837578747425"><ele>1888.3333333333335</ele><time>2026-03-22T13:13:25.007Z</time></trkpt><trkpt lat="21.882969149062944" lon="-102.36844979825271"><ele>1889.0</ele><time>2026-03-22T13:13:26.007Z</time></trkpt><trkpt lat="21.883006740675945" lon="-102.36857192473052"><ele>1889.6666666666667</ele><time>2026-03-22T13:13:28.007Z</time></trkpt><trkpt lat="21.883020277568995" lon="-102.36864219845084"><ele>1890.3333333333335</ele><time>2026-03-22T13:13:29.007Z</time></trkpt><trkpt lat="21.88302885974076" lon="-102.36871267728723"><ele>1891.0</ele><time>2026-03-22T13:13:30.007Z</time></trkpt><trkpt lat="21.883085125833063" lon="-102.36883473335067"><ele>1891.0000000000002</ele><time>2026-03-22T13:13:32.007Z</time></trkpt><trkpt lat="21.88310138884083" lon="-102.36891784874972"><ele>1891.0</ele><time>2026-03-22T13:13:33.007Z</time></trkpt><trkpt lat="21.88312531262449" lon="-102.36899613557438"><ele>1891.0</ele><time>2026-03-22T13:13:34.007Z</time></trkpt><trkpt lat="21.883147404086166" lon="-102.36907017535304"><ele>1891.0</ele><time>2026-03-22T13:13:35.007Z</time></trkpt><trkpt lat="21.883168685038633" lon="-102.36915573572313"><ele>1891.0000000000002</ele><time>2026-03-22T13:13:36.007Z</time></trkpt><trkpt lat="21.88318662492739" lon="-102.36924485448722"><ele>1891.0</ele><time>2026-03-22T13:13:37.007Z</time></trkpt><trkpt lat="21.883209100618426" lon="-102.36933048996069"><ele>1891.0000000000002</ele><time>2026-03-22T13:13:38.007Z</time></trkpt><trkpt lat="21.88322972091318" lon="-102.36940905155944"><ele>1891.0</ele><time>2026-03-22T13:13:39.007Z</time></trkpt><trkpt lat="21.883254923095343" lon="-102.36948053259727"><ele>1891.0</ele><time>2026-03-22T13:13:40.007Z</time></trkpt><trkpt lat="21.883275066026957" lon="-102.36956615167378"><ele>1891.0</ele><time>2026-03-22T13:13:41.007Z</time></trkpt><trkpt lat="21.883313663185746" lon="-102.36970077466438"><ele>1891.0000000000002</ele><time>2026-03-22T13:13:43.007Z</time></trkpt><trkpt lat="21.883333334405485" lon="-102.36977292170359"><ele>1891.0</ele><time>2026-03-22T13:13:44.007Z</time></trkpt><trkpt lat="21.883356965468415" lon="-102.36985011642766"><ele>1891.0000000000002</ele><time>2026-03-22T13:13:45.007Z</time></trkpt><trkpt lat="21.88337666408084" lon="-102.36993284140881"><ele>1891.0</ele><time>2026-03-22T13:13:46.007Z</time></trkpt><trkpt lat="21.883395292878895" lon="-102.37001207787603"><ele>1891.0000000000002</ele><time>2026-03-22T13:13:47.007Z</time></trkpt><trkpt lat="21.883417095534053" lon="-102.37008977822519"><ele>1891.0000000000002</ele><time>2026-03-22T13:13:48.007Z</time></trkpt><trkpt lat="21.883432395147395" lon="-102.37016703462311"><ele>1891.0</ele><time>2026-03-22T13:13:49.007Z</time></trkpt><trkpt lat="21.883455028386955" lon="-102.3702388922953"><ele>1891.0000000000002</ele><time>2026-03-22T13:13:50.007Z</time></trkpt><trkpt lat="21.883479928188997" lon="-102.37031452474275"><ele>1891.0000000000002</ele><time>2026-03-22T13:13:51.007Z</time></trkpt><trkpt lat="21.883498225441976" lon="-102.37039038141822"><ele>1890.8333333333335</ele><time>2026-03-22T13:13:52.007Z</time></trkpt><trkpt lat="21.883519973375222" lon="-102.3704742767135"><ele>1890.6666666666667</ele><time>2026-03-22T13:13:53.009Z</time></trkpt><trkpt lat="21.883542685816078" lon="-102.37055528224263"><ele>1890.5</ele><time>2026-03-22T13:13:54.008Z</time></trkpt><trkpt lat="21.88356162579162" lon="-102.37063246490497"><ele>1890.3333333333335</ele><time>2026-03-22T13:13:55.008Z</time></trkpt><trkpt lat="21.883578692535522" lon="-102.37071116295432"><ele>1890.1666666666667</ele><time>2026-03-22T13:13:56.009Z</time></trkpt><trkpt lat="21.88359792703977" lon="-102.37079015762457"><ele>1890.0</ele><time>2026-03-22T13:13:57.009Z</time></trkpt><trkpt lat="21.883617830100434" lon="-102.370862572132"><ele>1890.5</ele><time>2026-03-22T13:13:58.009Z</time></trkpt><trkpt lat="21.883638427317226" lon="-102.37093929425514"><ele>1891.0</ele><time>2026-03-22T13:13:59.009Z</time></trkpt><trkpt lat="21.883655175498287" lon="-102.37101639482124"><ele>1891.5</ele><time>2026-03-22T13:14:00.009Z</time></trkpt><trkpt lat="21.883675317029752" lon="-102.37109803114011"><ele>1892.0</ele><time>2026-03-22T13:14:01.009Z</time></trkpt><trkpt lat="21.883695059854197" lon="-102.37117845800286"><ele>1892.5</ele><time>2026-03-22T13:14:02.009Z</time></trkpt><trkpt lat="21.883715094843684" lon="-102.37125970922649"><ele>1893.0</ele><time>2026-03-22T13:14:03.009Z</time></trkpt><trkpt lat="21.88373594953612" lon="-102.37133805063611"><ele>1893.2857142857144</ele><time>2026-03-22T13:14:04.009Z</time></trkpt><trkpt lat="21.883756347063667" lon="-102.37140541332506"><ele>1893.571428571429</ele><time>2026-03-22T13:14:05.009Z</time></trkpt><trkpt lat="21.883777341252923" lon="-102.3714816572651"><ele>1893.857142857143</ele><time>2026-03-22T13:14:06.009Z</time></trkpt><trkpt lat="21.88379733566555" lon="-102.37156020646177"><ele>1894.1428571428573</ele><time>2026-03-22T13:14:07.009Z</time></trkpt><trkpt lat="21.883815370921855" lon="-102.3716368493298"><ele>1894.4285714285716</ele><time>2026-03-22T13:14:08.009Z</time></trkpt><trkpt lat="21.883840162658114" lon="-102.37170946789017"><ele>1894.7142857142858</ele><time>2026-03-22T13:14:09.009Z</time></trkpt><trkpt lat="21.88385924333373" lon="-102.37178124996353"><ele>1895.0</ele><time>2026-03-22T13:14:10.009Z</time></trkpt><trkpt lat="21.883878776867025" lon="-102.3718574750306"><ele>1895.0</ele><time>2026-03-22T13:14:11.009Z</time></trkpt><trkpt lat="21.883901354741376" lon="-102.37194465186224"><ele>1895.0</ele><time>2026-03-22T13:14:12.009Z</time></trkpt><trkpt lat="21.88392579558646" lon="-102.37202111021789"><ele>1895.0</ele><time>2026-03-22T13:14:13.009Z</time></trkpt><trkpt lat="21.883943365001297" lon="-102.3720892090227"><ele>1895.0</ele><time>2026-03-22T13:14:14.009Z</time></trkpt><trkpt lat="21.883965166691244" lon="-102.37216592743941"><ele>1895.0</ele><time>2026-03-22T13:14:15.009Z</time></trkpt><trkpt lat="21.883983796476613" lon="-102.37224139110032"><ele>1895.0</ele><time>2026-03-22T13:14:16.009Z</time></trkpt><trkpt lat="21.88399980572463" lon="-102.37231996454267"><ele>1895.0</ele><time>2026-03-22T13:14:17.009Z</time></trkpt><trkpt lat="21.884019402061302" lon="-102.37239949387028"><ele>1895.2857142857142</ele><time>2026-03-22T13:14:18.009Z</time></trkpt><trkpt lat="21.884044690177188" lon="-102.37247196062826"><ele>1895.5714285714287</ele><time>2026-03-22T13:14:19.009Z</time></trkpt><trkpt lat="21.884067596189073" lon="-102.37254072891713"><ele>1895.857142857143</ele><time>2026-03-22T13:14:20.009Z</time></trkpt><trkpt lat="21.884089621310792" lon="-102.37261597573507"><ele>1896.142857142857</ele><time>2026-03-22T13:14:21.009Z</time></trkpt><trkpt lat="21.88410909369545" lon="-102.37269221737661"><ele>1896.4285714285716</ele><time>2026-03-22T13:14:22.009Z</time></trkpt><trkpt lat="21.8841273550758" lon="-102.37276815715036"><ele>1896.7142857142858</ele><time>2026-03-22T13:14:23.009Z</time></trkpt><trkpt lat="21.884148467159655" lon="-102.372843756023"><ele>1897.0</ele><time>2026-03-22T13:14:24.009Z</time></trkpt><trkpt lat="21.88416734053869" lon="-102.37291757393264"><ele>1897.0</ele><time>2026-03-22T13:14:25.009Z</time></trkpt><trkpt lat="21.884186105905478" lon="-102.37299492242279"><ele>1897.0</ele><time>2026-03-22T13:14:26.009Z</time></trkpt><trkpt lat="21.884203747733686" lon="-102.37307108780759"><ele>1897.0</ele><time>2026-03-22T13:14:27.009Z</time></trkpt><trkpt lat="21.88422588426727" lon="-102.37314340001033"><ele>1897.0</ele><time>2026-03-22T13:14:28.009Z</time></trkpt><trkpt lat="21.884248464117523" lon="-102.37321267386695"><ele>1897.0</ele><time>2026-03-22T13:14:29.009Z</time></trkpt><trkpt lat="21.884265203738572" lon="-102.37328248745139"><ele>1897.0</ele><time>2026-03-22T13:14:30.009Z</time></trkpt><trkpt lat="21.88428597556748" lon="-102.37336223041162"><ele>1897.0</ele><time>2026-03-22T13:14:31.009Z</time></trkpt><trkpt lat="21.884305703611947" lon="-102.37343023820188"><ele>1896.857142857143</ele><time>2026-03-22T13:14:32.009Z</time></trkpt><trkpt lat="21.88432728220474" lon="-102.3735134340925"><ele>1896.7142857142858</ele><time>2026-03-22T13:14:33.009Z</time></trkpt><trkpt lat="21.88435431145063" lon="-102.3735882243571"><ele>1896.5714285714284</ele><time>2026-03-22T13:14:34.009Z</time></trkpt><trkpt lat="21.884372414616827" lon="-102.3736661186289"><ele>1896.4285714285713</ele><time>2026-03-22T13:14:35.009Z</time></trkpt><trkpt lat="21.884393151292546" lon="-102.37374034156731"><ele>1896.2857142857142</ele><time>2026-03-22T13:14:36.009Z</time></trkpt><trkpt lat="21.88440764933039" lon="-102.37381404780083"><ele>1896.1428571428569</ele><time>2026-03-22T13:14:37.009Z</time></trkpt><trkpt lat="21.884423794422613" lon="-102.3738874364558"><ele>1895.9999999999998</ele><time>2026-03-22T13:14:38.009Z</time></trkpt><trkpt lat="21.884443638400548" lon="-102.3739552633902"><ele>1896.5</ele><time>2026-03-22T13:14:39.009Z</time></trkpt><trkpt lat="21.884471581604135" lon="-102.37403387221975"><ele>1897.0</ele><time>2026-03-22T13:14:40.009Z</time></trkpt><trkpt lat="21.88448971674595" lon="-102.37411112934251"><ele>1897.5</ele><time>2026-03-22T13:14:41.009Z</time></trkpt><trkpt lat="21.884506719796256" lon="-102.37418618243673"><ele>1898.0</ele><time>2026-03-22T13:14:42.009Z</time></trkpt><trkpt lat="21.88452586446693" lon="-102.37427756907248"><ele>1898.5</ele><time>2026-03-22T13:14:43.009Z</time></trkpt><trkpt lat="21.88454936874787" lon="-102.37434335666157"><ele>1899.0</ele><time>2026-03-22T13:14:44.009Z</time></trkpt><trkpt lat="21.88457020695826" lon="-102.37443610377149"><ele>1899.0</ele><time>2026-03-22T13:14:45.009Z</time></trkpt><trkpt lat="21.88459188720711" lon="-102.37451845679107"><ele>1899.0</ele><time>2026-03-22T13:14:46.009Z</time></trkpt><trkpt lat="21.884615587595896" lon="-102.37459620141674"><ele>1899.0</ele><time>2026-03-22T13:14:47.009Z</time></trkpt><trkpt lat="21.88463878313549" lon="-102.37468115454486"><ele>1899.0</ele><time>2026-03-22T13:14:48.009Z</time></trkpt><trkpt lat="21.884654818944934" lon="-102.3747610417686"><ele>1899.0</ele><time>2026-03-22T13:14:49.009Z</time></trkpt><trkpt lat="21.884672042442737" lon="-102.3748348463525"><ele>1899.0</ele><time>2026-03-22T13:14:50.009Z</time></trkpt><trkpt lat="21.884689067489468" lon="-102.3749144925644"><ele>1899.6666666666667</ele><time>2026-03-22T13:14:51.009Z</time></trkpt><trkpt lat="21.884709569169726" lon="-102.37499167637247"><ele>1900.3333333333335</ele><time>2026-03-22T13:14:52.009Z</time></trkpt><trkpt lat="21.884731686030875" lon="-102.37506979827016"><ele>1901.0</ele><time>2026-03-22T13:14:53.009Z</time></trkpt><trkpt lat="21.884755279180297" lon="-102.37514985525446"><ele>1901.6666666666667</ele><time>2026-03-22T13:14:54.009Z</time></trkpt><trkpt lat="21.88477415397872" lon="-102.37522441214504"><ele>1902.3333333333335</ele><time>2026-03-22T13:14:55.009Z</time></trkpt><trkpt lat="21.884791569384735" lon="-102.37530847093467"><ele>1903.0</ele><time>2026-03-22T13:14:56.008Z</time></trkpt><trkpt lat="21.884816507838877" lon="-102.37538836394737"><ele>1903.0000000000002</ele><time>2026-03-22T13:14:57.008Z</time></trkpt><trkpt lat="21.884836240344924" lon="-102.37546996177795"><ele>1903.0</ele><time>2026-03-22T13:14:58.008Z</time></trkpt><trkpt lat="21.884860193815065" lon="-102.37554614082042"><ele>1903.0</ele><time>2026-03-22T13:14:59.008Z</time></trkpt><trkpt lat="21.88488261631763" lon="-102.37563191952871"><ele>1903.0</ele><time>2026-03-22T13:15:00.008Z</time></trkpt><trkpt lat="21.88490514047941" lon="-102.37571224597833"><ele>1903.0000000000002</ele><time>2026-03-22T13:15:01.008Z</time></trkpt><trkpt lat="21.884925720777797" lon="-102.37578673744697"><ele>1903.0</ele><time>2026-03-22T13:15:02.008Z</time></trkpt><trkpt lat="21.884947235232005" lon="-102.37586484313982"><ele>1902.9999999999998</ele><time>2026-03-22T13:15:03.008Z</time></trkpt><trkpt lat="21.884969972056638" lon="-102.37595125132272"><ele>1903.0</ele><time>2026-03-22T13:15:04.008Z</time></trkpt><trkpt lat="21.884993525375812" lon="-102.37602652528248"><ele>1902.9999999999998</ele><time>2026-03-22T13:15:05.008Z</time></trkpt><trkpt lat="21.885012129320547" lon="-102.37609750421555"><ele>1902.9999999999998</ele><time>2026-03-22T13:15:06.008Z</time></trkpt><trkpt lat="21.885032012296396" lon="-102.37616673301012"><ele>1903.0</ele><time>2026-03-22T13:15:07.008Z</time></trkpt><trkpt lat="21.885052846866714" lon="-102.37624638368709"><ele>1902.9999999999998</ele><time>2026-03-22T13:15:08.008Z</time></trkpt><trkpt lat="21.885074315802896" lon="-102.37632777262685"><ele>1902.9999999999998</ele><time>2026-03-22T13:15:09.008Z</time></trkpt><trkpt lat="21.885096744641334" lon="-102.37640215815739"><ele>1902.9999999999998</ele><time>2026-03-22T13:15:10.008Z</time></trkpt><trkpt lat="21.885116002409728" lon="-102.37647438227522"><ele>1903.0</ele><time>2026-03-22T13:15:11.008Z</time></trkpt><trkpt lat="21.88513754825103" lon="-102.37654799175981"><ele>1902.9999999999998</ele><time>2026-03-22T13:15:12.008Z</time></trkpt><trkpt lat="21.88515638523059" lon="-102.37662198143288"><ele>1902.9999999999998</ele><time>2026-03-22T13:15:13.008Z</time></trkpt><trkpt lat="21.885170980547493" lon="-102.37669508462062"><ele>1903.0</ele><time>2026-03-22T13:15:14.008Z</time></trkpt><trkpt lat="21.885194331918697" lon="-102.3767686470836"><ele>1902.9999999999998</ele><time>2026-03-22T13:15:15.008Z</time></trkpt><trkpt lat="21.885219136996525" lon="-102.37684088586884"><ele>1902.9999999999998</ele><time>2026-03-22T13:15:16.008Z</time></trkpt><trkpt lat="21.885237834304657" lon="-102.37691937934717"><ele>1902.9999999999998</ele><time>2026-03-22T13:15:17.008Z</time></trkpt><trkpt lat="21.88525818245457" lon="-102.37700296125125"><ele>1903.0</ele><time>2026-03-22T13:15:18.008Z</time></trkpt><trkpt lat="21.885275398696376" lon="-102.37708127533823"><ele>1902.9999999999998</ele><time>2026-03-22T13:15:19.008Z</time></trkpt><trkpt lat="21.885296712667472" lon="-102.37716023802884"><ele>1902.9999999999998</ele><time>2026-03-22T13:15:20.008Z</time></trkpt><trkpt lat="21.885315904577183" lon="-102.3772285599111"><ele>1903.0</ele><time>2026-03-22T13:15:21.008Z</time></trkpt><trkpt lat="21.885338667028385" lon="-102.37730677454749"><ele>1902.9999999999998</ele><time>2026-03-22T13:15:22.008Z</time></trkpt><trkpt lat="21.885361907715268" lon="-102.37738317145892"><ele>1902.9999999999998</ele><time>2026-03-22T13:15:23.008Z</time></trkpt><trkpt lat="21.88537566978377" lon="-102.37746259426228"><ele>1903.3333333333335</ele><time>2026-03-22T13:15:24.008Z</time></trkpt><trkpt lat="21.88539735887452" lon="-102.37754815275777"><ele>1903.6666666666667</ele><time>2026-03-22T13:15:25.008Z</time></trkpt><trkpt lat="21.885423294322866" lon="-102.37762865971094"><ele>1904.0</ele><time>2026-03-22T13:15:26.008Z</time></trkpt><trkpt lat="21.885441708070342" lon="-102.3777061437478"><ele>1904.3333333333335</ele><time>2026-03-22T13:15:27.008Z</time></trkpt><trkpt lat="21.885463234994404" lon="-102.37778276590913"><ele>1904.6666666666667</ele><time>2026-03-22T13:15:28.008Z</time></trkpt><trkpt lat="21.88548215368923" lon="-102.37785732804046"><ele>1905.0</ele><time>2026-03-22T13:15:29.008Z</time></trkpt><trkpt lat="21.885503861986464" lon="-102.37793007529402"><ele>1905.0000000000002</ele><time>2026-03-22T13:15:30.008Z</time></trkpt><trkpt lat="21.88552294022732" lon="-102.37800060326995"><ele>1905.0</ele><time>2026-03-22T13:15:31.008Z</time></trkpt><trkpt lat="21.885546025362157" lon="-102.37806643547518"><ele>1905.0000000000002</ele><time>2026-03-22T13:15:32.008Z</time></trkpt><trkpt lat="21.88556396979462" lon="-102.37813449598441"><ele>1905.0000000000002</ele><time>2026-03-22T13:15:33.008Z</time></trkpt><trkpt lat="21.885580952166645" lon="-102.3782053626845"><ele>1905.0</ele><time>2026-03-22T13:15:34.008Z</time></trkpt><trkpt lat="21.88560425121342" lon="-102.3782867368511"><ele>1905.0000000000002</ele><time>2026-03-22T13:15:35.008Z</time></trkpt><trkpt lat="21.885622975175476" lon="-102.37836370318264"><ele>1905.0000000000002</ele><time>2026-03-22T13:15:36.008Z</time></trkpt><trkpt lat="21.885641556196667" lon="-102.37844095565517"><ele>1905.6666666666667</ele><time>2026-03-22T13:15:37.008Z</time></trkpt><trkpt lat="21.885664451944482" lon="-102.37851945400215"><ele>1906.3333333333335</ele><time>2026-03-22T13:15:38.008Z</time></trkpt><trkpt lat="21.885684942016848" lon="-102.37859730258562"><ele>1907.0</ele><time>2026-03-22T13:15:39.008Z</time></trkpt><trkpt lat="21.885707555580336" lon="-102.37868056028753"><ele>1907.6666666666667</ele><time>2026-03-22T13:15:40.008Z</time></trkpt><trkpt lat="21.88573219656193" lon="-102.3787641650071"><ele>1908.3333333333335</ele><time>2026-03-22T13:15:41.008Z</time></trkpt><trkpt lat="21.885756467392394" lon="-102.37885100154308"><ele>1909.0</ele><time>2026-03-22T13:15:42.008Z</time></trkpt><trkpt lat="21.885776173931273" lon="-102.37893769633632"><ele>1909.5000000000002</ele><time>2026-03-22T13:15:43.008Z</time></trkpt><trkpt lat="21.885799889570862" lon="-102.37901798188352"><ele>1910.0</ele><time>2026-03-22T13:15:44.008Z</time></trkpt><trkpt lat="21.885820379380426" lon="-102.37909723530288"><ele>1910.5</ele><time>2026-03-22T13:15:45.008Z</time></trkpt><trkpt lat="21.885838796168663" lon="-102.37917264254416"><ele>1911.0</ele><time>2026-03-22T13:15:46.008Z</time></trkpt><trkpt lat="21.88585973370108" lon="-102.37925664982819"><ele>1911.5000000000002</ele><time>2026-03-22T13:15:47.008Z</time></trkpt><trkpt lat="21.885884206108567" lon="-102.37933030391414"><ele>1912.0</ele><time>2026-03-22T13:15:48.008Z</time></trkpt><trkpt lat="21.88590510553017" lon="-102.3794082125252"><ele>1912.0000000000002</ele><time>2026-03-22T13:15:49.008Z</time></trkpt><trkpt lat="21.885919493101675" lon="-102.3794887397604"><ele>1912.0</ele><time>2026-03-22T13:15:50.008Z</time></trkpt><trkpt lat="21.885944691055315" lon="-102.37957777942064"><ele>1912.0</ele><time>2026-03-22T13:15:51.008Z</time></trkpt><trkpt lat="21.88596678895004" lon="-102.37965802273074"><ele>1912.0</ele><time>2026-03-22T13:15:52.008Z</time></trkpt><trkpt lat="21.885990292978175" lon="-102.37973796628422"><ele>1912.0000000000002</ele><time>2026-03-22T13:15:53.008Z</time></trkpt><trkpt lat="21.886015919191248" lon="-102.37982375422496"><ele>1912.0</ele><time>2026-03-22T13:15:54.008Z</time></trkpt><trkpt lat="21.886040026742236" lon="-102.37991644093472"><ele>1911.8333333333335</ele><time>2026-03-22T13:15:55.008Z</time></trkpt><trkpt lat="21.8860647497043" lon="-102.38000217337128"><ele>1911.6666666666667</ele><time>2026-03-22T13:15:56.008Z</time></trkpt><trkpt lat="21.88609163414443" lon="-102.38008485740092"><ele>1911.5</ele><time>2026-03-22T13:15:57.008Z</time></trkpt><trkpt lat="21.88611576060163" lon="-102.3801706104044"><ele>1911.3333333333335</ele><time>2026-03-22T13:15:58.008Z</time></trkpt><trkpt lat="21.88613780850666" lon="-102.38025925265089"><ele>1911.1666666666667</ele><time>2026-03-22T13:15:59.009Z</time></trkpt><trkpt lat="21.886163979272567" lon="-102.38034944972149"><ele>1911.0</ele><time>2026-03-22T13:16:00.009Z</time></trkpt><trkpt lat="21.886185441819848" lon="-102.3804393695995"><ele>1911.1666666666667</ele><time>2026-03-22T13:16:01.009Z</time></trkpt><trkpt lat="21.886209980769163" lon="-102.3805293509329"><ele>1911.3333333333335</ele><time>2026-03-22T13:16:02.01Z</time></trkpt><trkpt lat="21.886231558279732" lon="-102.38062296669867"><ele>1911.5</ele><time>2026-03-22T13:16:03.009Z</time></trkpt><trkpt lat="21.886257761559424" lon="-102.38071301722738"><ele>1911.6666666666667</ele><time>2026-03-22T13:16:04.009Z</time></trkpt><trkpt lat="21.886284819998558" lon="-102.3808007902542"><ele>1911.8333333333335</ele><time>2026-03-22T13:16:05.009Z</time></trkpt><trkpt lat="21.8863072315588" lon="-102.38089206663507"><ele>1912.0</ele><time>2026-03-22T13:16:06.009Z</time></trkpt><trkpt lat="21.886331054423483" lon="-102.38098243645402"><ele>1912.0000000000002</ele><time>2026-03-22T13:16:07.009Z</time></trkpt><trkpt lat="21.88635232340895" lon="-102.38107027695061"><ele>1912.0</ele><time>2026-03-22T13:16:08.009Z</time></trkpt><trkpt lat="21.886373588413406" lon="-102.38116880136876"><ele>1912.0</ele><time>2026-03-22T13:16:09.009Z</time></trkpt><trkpt lat="21.886400804578095" lon="-102.38125326333689"><ele>1912.0</ele><time>2026-03-22T13:16:10.009Z</time></trkpt><trkpt lat="21.88642125006008" lon="-102.38133778785279"><ele>1912.0000000000002</ele><time>2026-03-22T13:16:11.009Z</time></trkpt><trkpt lat="21.886444207185882" lon="-102.38142018536293"><ele>1912.0</ele><time>2026-03-22T13:16:12.009Z</time></trkpt><trkpt lat="21.886467054198217" lon="-102.38150236473373"><ele>1912.0000000000002</ele><time>2026-03-22T13:16:13.009Z</time></trkpt><trkpt lat="21.886488970708513" lon="-102.38159291715097"><ele>1912.0</ele><time>2026-03-22T13:16:14.009Z</time></trkpt><trkpt lat="21.886514367156483" lon="-102.38168284141354"><ele>1912.0</ele><time>2026-03-22T13:16:15.009Z</time></trkpt><trkpt lat="21.886538843672096" lon="-102.38176191112237"><ele>1912.0</ele><time>2026-03-22T13:16:16.009Z</time></trkpt><trkpt lat="21.886563297612508" lon="-102.38185345409205"><ele>1912.0000000000002</ele><time>2026-03-22T13:16:17.009Z</time></trkpt><trkpt lat="21.886585270932503" lon="-102.38193945293324"><ele>1912.0</ele><time>2026-03-22T13:16:18.009Z</time></trkpt><trkpt lat="21.886603118007876" lon="-102.3820271361387"><ele>1912.0000000000002</ele><time>2026-03-22T13:16:19.009Z</time></trkpt><trkpt lat="21.886627543260072" lon="-102.38211401163898"><ele>1912.0</ele><time>2026-03-22T13:16:20.009Z</time></trkpt><trkpt lat="21.88664936195532" lon="-102.38220311733541"><ele>1912.0</ele><time>2026-03-22T13:16:21.009Z</time></trkpt><trkpt lat="21.886673741678084" lon="-102.38229029554383"><ele>1912.0</ele><time>2026-03-22T13:16:22.009Z</time></trkpt><trkpt lat="21.886698456886624" lon="-102.38238302869021"><ele>1912.0000000000002</ele><time>2026-03-22T13:16:23.009Z</time></trkpt><trkpt lat="21.88672404124466" lon="-102.38246701067582"><ele>1912.0</ele><time>2026-03-22T13:16:24.009Z</time></trkpt><trkpt lat="21.886746239628483" lon="-102.38256333228551"><ele>1912.6666666666667</ele><time>2026-03-22T13:16:25.009Z</time></trkpt><trkpt lat="21.8867691330998" lon="-102.38265543065248"><ele>1913.3333333333335</ele><time>2026-03-22T13:16:26.009Z</time></trkpt><trkpt lat="21.886792110908697" lon="-102.38275085179102"><ele>1914.0</ele><time>2026-03-22T13:16:27.009Z</time></trkpt><trkpt lat="21.88681853415059" lon="-102.38284333631667"><ele>1914.6666666666665</ele><time>2026-03-22T13:16:28.009Z</time></trkpt><trkpt lat="21.886838909373907" lon="-102.38293499150996"><ele>1915.3333333333333</ele><time>2026-03-22T13:16:29.009Z</time></trkpt><trkpt lat="21.8868614479759" lon="-102.38302108668881"><ele>1916.0</ele><time>2026-03-22T13:16:30.009Z</time></trkpt><trkpt lat="21.88689151186449" lon="-102.38311500795612"><ele>1916.4999999999998</ele><time>2026-03-22T13:16:31.009Z</time></trkpt><trkpt lat="21.88691987930904" lon="-102.38320685477554"><ele>1917.0</ele><time>2026-03-22T13:16:32.009Z</time></trkpt><trkpt lat="21.88694449464858" lon="-102.38329709825827"><ele>1917.5</ele><time>2026-03-22T13:16:33.009Z</time></trkpt><trkpt lat="21.88697165877166" lon="-102.38338259149283"><ele>1918.0</ele><time>2026-03-22T13:16:34.009Z</time></trkpt><trkpt lat="21.886997979189825" lon="-102.38347311004202"><ele>1918.4999999999998</ele><time>2026-03-22T13:16:35.009Z</time></trkpt><trkpt lat="21.8870164021215" lon="-102.38356805099582"><ele>1919.0</ele><time>2026-03-22T13:16:36.009Z</time></trkpt><trkpt lat="21.887036596266643" lon="-102.38366502800457"><ele>1919.0</ele><time>2026-03-22T13:16:37.009Z</time></trkpt><trkpt lat="21.887065235381293" lon="-102.38376033323401"><ele>1919.0</ele><time>2026-03-22T13:16:38.009Z</time></trkpt><trkpt lat="21.887092403872987" lon="-102.3838513691211"><ele>1919.0</ele><time>2026-03-22T13:16:39.009Z</time></trkpt><trkpt lat="21.88712019031327" lon="-102.38395341602484"><ele>1919.0</ele><time>2026-03-22T13:16:40.009Z</time></trkpt><trkpt lat="21.887143724694205" lon="-102.38404961299867"><ele>1919.0</ele><time>2026-03-22T13:16:41.009Z</time></trkpt><trkpt lat="21.887170877751746" lon="-102.3841417959485"><ele>1918.2</ele><time>2026-03-22T13:16:42.009Z</time></trkpt><trkpt lat="21.887198809888545" lon="-102.38423575088666"><ele>1917.4</ele><time>2026-03-22T13:16:43.008Z</time></trkpt><trkpt lat="21.887224157216373" lon="-102.38433937590378"><ele>1916.6</ele><time>2026-03-22T13:16:44.008Z</time></trkpt><trkpt lat="21.88724542727382" lon="-102.3844343068722"><ele>1915.8</ele><time>2026-03-22T13:16:45.008Z</time></trkpt><trkpt lat="21.887270345271624" lon="-102.38452590960118"><ele>1915.0</ele><time>2026-03-22T13:16:46.008Z</time></trkpt><trkpt lat="21.88729997631726" lon="-102.38461655122266"><ele>1915.6</ele><time>2026-03-22T13:16:47.008Z</time></trkpt><trkpt lat="21.8873285787086" lon="-102.38471657152157"><ele>1916.2</ele><time>2026-03-22T13:16:48.008Z</time></trkpt><trkpt lat="21.88735818005473" lon="-102.3848115858583"><ele>1916.8000000000002</ele><time>2026-03-22T13:16:49.008Z</time></trkpt><trkpt lat="21.88738381866034" lon="-102.38490234817323"><ele>1917.4</ele><time>2026-03-22T13:16:50.008Z</time></trkpt><trkpt lat="21.887409173114033" lon="-102.3850062095537"><ele>1918.0</ele><time>2026-03-22T13:16:51.008Z</time></trkpt><trkpt lat="21.887440105570075" lon="-102.38510727512411"><ele>1918.0</ele><time>2026-03-22T13:16:52.008Z</time></trkpt><trkpt lat="21.88746511314522" lon="-102.38520318976826"><ele>1918.0000000000002</ele><time>2026-03-22T13:16:53.008Z</time></trkpt><trkpt lat="21.887486800731637" lon="-102.38529766462882"><ele>1918.0000000000002</ele><time>2026-03-22T13:16:54.008Z</time></trkpt><trkpt lat="21.887513243103722" lon="-102.38539680711762"><ele>1918.0</ele><time>2026-03-22T13:16:55.008Z</time></trkpt><trkpt lat="21.887536815083774" lon="-102.38549706568845"><ele>1918.0</ele><time>2026-03-22T13:16:56.008Z</time></trkpt><trkpt lat="21.88756266131753" lon="-102.38559798396172"><ele>1919.2</ele><time>2026-03-22T13:16:57.008Z</time></trkpt><trkpt lat="21.887581976471406" lon="-102.38570128644005"><ele>1920.4</ele><time>2026-03-22T13:16:58.008Z</time></trkpt><trkpt lat="21.88760522526513" lon="-102.38580292768354"><ele>1921.6000000000001</ele><time>2026-03-22T13:16:59.008Z</time></trkpt><trkpt lat="21.88763357923547" lon="-102.38591063860741"><ele>1922.8000000000002</ele><time>2026-03-22T13:17:00.008Z</time></trkpt><trkpt lat="21.88765876762735" lon="-102.3860184369005"><ele>1924.0</ele><time>2026-03-22T13:17:01.008Z</time></trkpt><trkpt lat="21.887686026190405" lon="-102.38612566304235"><ele>1924.0</ele><time>2026-03-22T13:17:02.008Z</time></trkpt><trkpt lat="21.88771480688262" lon="-102.38623611907282"><ele>1924.0</ele><time>2026-03-22T13:17:03.008Z</time></trkpt><trkpt lat="21.88774533212242" lon="-102.38633299835035"><ele>1924.0</ele><time>2026-03-22T13:17:04.008Z</time></trkpt><trkpt lat="21.887773327895385" lon="-102.38644104744587"><ele>1924.0</ele><time>2026-03-22T13:17:05.008Z</time></trkpt><trkpt lat="21.88779455156983" lon="-102.38654302653737"><ele>1924.0</ele><time>2026-03-22T13:17:06.008Z</time></trkpt><trkpt lat="21.8878231336459" lon="-102.38665285134478"><ele>1924.0</ele><time>2026-03-22T13:17:07.008Z</time></trkpt><trkpt lat="21.88785174470336" lon="-102.38676109701066"><ele>1924.0</ele><time>2026-03-22T13:17:08.008Z</time></trkpt><trkpt lat="21.8878851864464" lon="-102.38686943813593"><ele>1924.0</ele><time>2026-03-22T13:17:09.008Z</time></trkpt><trkpt lat="21.887912677976324" lon="-102.38697638050557"><ele>1924.0</ele><time>2026-03-22T13:17:10.008Z</time></trkpt><trkpt lat="21.88794351236556" lon="-102.3870830529824"><ele>1924.0</ele><time>2026-03-22T13:17:11.008Z</time></trkpt><trkpt lat="21.887970688381337" lon="-102.38718000028243"><ele>1924.0</ele><time>2026-03-22T13:17:12.008Z</time></trkpt><trkpt lat="21.887995328463074" lon="-102.38728014941461"><ele>1924.0</ele><time>2026-03-22T13:17:13.008Z</time></trkpt><trkpt lat="21.888027165517766" lon="-102.38738414415421"><ele>1924.0</ele><time>2026-03-22T13:17:14.008Z</time></trkpt><trkpt lat="21.888055830660566" lon="-102.38748388213067"><ele>1924.0</ele><time>2026-03-22T13:17:15.008Z</time></trkpt><trkpt lat="21.888082137891587" lon="-102.38758792663523"><ele>1924.0</ele><time>2026-03-22T13:17:16.008Z</time></trkpt><trkpt lat="21.888111307187202" lon="-102.38768680137822"><ele>1924.0</ele><time>2026-03-22T13:17:17.008Z</time></trkpt><trkpt lat="21.888144516795418" lon="-102.3877859188199"><ele>1924.0</ele><time>2026-03-22T13:17:18.008Z</time></trkpt><trkpt lat="21.88817151623012" lon="-102.38788925029972"><ele>1924.0</ele><time>2026-03-22T13:17:19.008Z</time></trkpt><trkpt lat="21.888202865519382" lon="-102.388000113498"><ele>1924.0</ele><time>2026-03-22T13:17:20.008Z</time></trkpt><trkpt lat="21.88823151497341" lon="-102.38810744165932"><ele>1924.0</ele><time>2026-03-22T13:17:21.008Z</time></trkpt><trkpt lat="21.888258479689565" lon="-102.3882100326567"><ele>1924.2</ele><time>2026-03-22T13:17:22.008Z</time></trkpt><trkpt lat="21.88828068838541" lon="-102.38831497622621"><ele>1924.4</ele><time>2026-03-22T13:17:23.008Z</time></trkpt><trkpt lat="21.888314556848126" lon="-102.38842480058842"><ele>1924.6</ele><time>2026-03-22T13:17:24.008Z</time></trkpt><trkpt lat="21.888343433518205" lon="-102.38853631207272"><ele>1924.8</ele><time>2026-03-22T13:17:25.008Z</time></trkpt><trkpt lat="21.888373121175746" lon="-102.38864572391367"><ele>1925.0</ele><time>2026-03-22T13:17:26.008Z</time></trkpt><trkpt lat="21.888402614863406" lon="-102.38875532242733"><ele>1924.4</ele><time>2026-03-22T13:17:27.008Z</time></trkpt><trkpt lat="21.88843085273565" lon="-102.38886943717245"><ele>1923.8</ele><time>2026-03-22T13:17:28.008Z</time></trkpt><trkpt lat="21.888459625963502" lon="-102.3889832044008"><ele>1923.1999999999998</ele><time>2026-03-22T13:17:29.008Z</time></trkpt><trkpt lat="21.8884875151317" lon="-102.3890899135084"><ele>1922.6</ele><time>2026-03-22T13:17:30.008Z</time></trkpt><trkpt lat="21.888517032051027" lon="-102.38920075489526"><ele>1922.0</ele><time>2026-03-22T13:17:31.008Z</time></trkpt><trkpt lat="21.888545952972986" lon="-102.38931173372075"><ele>1922.0</ele><time>2026-03-22T13:17:32.008Z</time></trkpt><trkpt lat="21.888574522373105" lon="-102.38942591811472"><ele>1921.9999999999998</ele><time>2026-03-22T13:17:33.008Z</time></trkpt><trkpt lat="21.888606595828367" lon="-102.38953640578657"><ele>1921.9999999999998</ele><time>2026-03-22T13:17:34.008Z</time></trkpt><trkpt lat="21.888637484451305" lon="-102.38964778902289"><ele>1922.0</ele><time>2026-03-22T13:17:35.008Z</time></trkpt><trkpt lat="21.888670259606215" lon="-102.38975771322991"><ele>1922.0</ele><time>2026-03-22T13:17:36.008Z</time></trkpt><trkpt lat="21.88869788440503" lon="-102.38986542133114"><ele>1922.1999999999998</ele><time>2026-03-22T13:17:37.008Z</time></trkpt><trkpt lat="21.888726646798624" lon="-102.38997798208334"><ele>1922.3999999999999</ele><time>2026-03-22T13:17:38.008Z</time></trkpt><trkpt lat="21.888754409213703" lon="-102.39008349938746"><ele>1922.6000000000001</ele><time>2026-03-22T13:17:39.008Z</time></trkpt><trkpt lat="21.888783575844176" lon="-102.39019161355928"><ele>1922.8000000000002</ele><time>2026-03-22T13:17:40.008Z</time></trkpt><trkpt lat="21.888812917163683" lon="-102.39030037424853"><ele>1923.0</ele><time>2026-03-22T13:17:41.008Z</time></trkpt><trkpt lat="21.88884643431237" lon="-102.39041162908221"><ele>1923.4</ele><time>2026-03-22T13:17:42.008Z</time></trkpt><trkpt lat="21.888869501509795" lon="-102.3905107053714"><ele>1923.8000000000002</ele><time>2026-03-22T13:17:43.008Z</time></trkpt><trkpt lat="21.88890177443485" lon="-102.39062564815382"><ele>1924.2</ele><time>2026-03-22T13:17:44.008Z</time></trkpt><trkpt lat="21.888932012106917" lon="-102.39072458777359"><ele>1924.6</ele><time>2026-03-22T13:17:45.008Z</time></trkpt><trkpt lat="21.888955368042296" lon="-102.39082241565578"><ele>1925.0</ele><time>2026-03-22T13:17:46.008Z</time></trkpt><trkpt lat="21.888981364811904" lon="-102.39093132136873"><ele>1925.0</ele><time>2026-03-22T13:17:47.008Z</time></trkpt><trkpt lat="21.88901162064447" lon="-102.39103673788789"><ele>1925.0</ele><time>2026-03-22T13:17:48.008Z</time></trkpt><trkpt lat="21.88904158222122" lon="-102.39113162093483"><ele>1925.0</ele><time>2026-03-22T13:17:49.008Z</time></trkpt><trkpt lat="21.889071577522373" lon="-102.39123283861895"><ele>1925.0</ele><time>2026-03-22T13:17:50.008Z</time></trkpt><trkpt lat="21.88909848459992" lon="-102.39133664571037"><ele>1925.0</ele><time>2026-03-22T13:17:51.008Z</time></trkpt><trkpt lat="21.8891306845493" lon="-102.3914459841248"><ele>1926.0</ele><time>2026-03-22T13:17:52.008Z</time></trkpt><trkpt lat="21.889154254903907" lon="-102.3915531860302"><ele>1927.0</ele><time>2026-03-22T13:17:53.008Z</time></trkpt><trkpt lat="21.889180756665198" lon="-102.3916554637685"><ele>1928.0</ele><time>2026-03-22T13:17:54.008Z</time></trkpt><trkpt lat="21.889213644728372" lon="-102.39176396512997"><ele>1929.0</ele><time>2026-03-22T13:17:55.008Z</time></trkpt><trkpt lat="21.889235945435935" lon="-102.39185847313418"><ele>1930.0</ele><time>2026-03-22T13:17:56.008Z</time></trkpt><trkpt lat="21.889257742592605" lon="-102.39195922186553"><ele>1929.4</ele><time>2026-03-22T13:17:57.008Z</time></trkpt><trkpt lat="21.889285478069667" lon="-102.39206258511395"><ele>1928.8</ele><time>2026-03-22T13:17:58.008Z</time></trkpt><trkpt lat="21.88931499782733" lon="-102.39216747749725"><ele>1928.1999999999998</ele><time>2026-03-22T13:17:59.008Z</time></trkpt><trkpt lat="21.889341102378086" lon="-102.39227217441922"><ele>1927.6</ele><time>2026-03-22T13:18:00.008Z</time></trkpt><trkpt lat="21.889364916181115" lon="-102.39237201752907"><ele>1927.0</ele><time>2026-03-22T13:18:01.008Z</time></trkpt><trkpt lat="21.889390006225767" lon="-102.39247126146061"><ele>1927.0</ele><time>2026-03-22T13:18:02.008Z</time></trkpt><trkpt lat="21.889417744501245" lon="-102.39257269831592"><ele>1926.9999999999998</ele><time>2026-03-22T13:18:03.008Z</time></trkpt><trkpt lat="21.889450200590996" lon="-102.39267308120068"><ele>1926.9999999999998</ele><time>2026-03-22T13:18:04.008Z</time></trkpt><trkpt lat="21.88948232827798" lon="-102.3927749005188"><ele>1927.0</ele><time>2026-03-22T13:18:05.01Z</time></trkpt><trkpt lat="21.889508887666263" lon="-102.39287827755038"><ele>1927.0</ele><time>2026-03-22T13:18:06.009Z</time></trkpt><trkpt lat="21.889537520047277" lon="-102.39297596814266"><ele>1927.6</ele><time>2026-03-22T13:18:07.009Z</time></trkpt><trkpt lat="21.889565217511336" lon="-102.39308770910034"><ele>1928.1999999999998</ele><time>2026-03-22T13:18:08.009Z</time></trkpt><trkpt lat="21.8895951189578" lon="-102.39319432614462"><ele>1928.8</ele><time>2026-03-22T13:18:09.009Z</time></trkpt><trkpt lat="21.889620697017723" lon="-102.393292245075"><ele>1929.4</ele><time>2026-03-22T13:18:10.009Z</time></trkpt><trkpt lat="21.889648571825063" lon="-102.393391961943"><ele>1930.0</ele><time>2026-03-22T13:18:11.01Z</time></trkpt><trkpt lat="21.88967468976696" lon="-102.39349491700322"><ele>1930.0</ele><time>2026-03-22T13:18:12.009Z</time></trkpt><trkpt lat="21.88969952218715" lon="-102.39359762721622"><ele>1930.0</ele><time>2026-03-22T13:18:13.009Z</time></trkpt><trkpt lat="21.889725770154147" lon="-102.39370522554684"><ele>1930.0</ele><time>2026-03-22T13:18:14.01Z</time></trkpt><trkpt lat="21.889750200744903" lon="-102.39380601867776"><ele>1930.0</ele><time>2026-03-22T13:18:15.009Z</time></trkpt><trkpt lat="21.88978002960791" lon="-102.39391013013625"><ele>1930.0</ele><time>2026-03-22T13:18:16.009Z</time></trkpt><trkpt lat="21.889809200160617" lon="-102.39402166764434"><ele>1930.0</ele><time>2026-03-22T13:18:17.009Z</time></trkpt><trkpt lat="21.889838877018672" lon="-102.3941276566742"><ele>1930.0</ele><time>2026-03-22T13:18:18.01Z</time></trkpt><trkpt lat="21.889871016844346" lon="-102.39423393702732"><ele>1930.0</ele><time>2026-03-22T13:18:19.01Z</time></trkpt><trkpt lat="21.88990003975726" lon="-102.39434759876754"><ele>1930.0</ele><time>2026-03-22T13:18:20.01Z</time></trkpt><trkpt lat="21.889928299955507" lon="-102.39445949929254"><ele>1930.0</ele><time>2026-03-22T13:18:21.01Z</time></trkpt><trkpt lat="21.889959182611157" lon="-102.39456988577587"><ele>1929.6</ele><time>2026-03-22T13:18:22.01Z</time></trkpt><trkpt lat="21.889991917971305" lon="-102.39467804946128"><ele>1929.2</ele><time>2026-03-22T13:18:23.01Z</time></trkpt><trkpt lat="21.89002027016283" lon="-102.39479120093749"><ele>1928.8000000000002</ele><time>2026-03-22T13:18:24.01Z</time></trkpt><trkpt lat="21.89004910140479" lon="-102.39490533035854"><ele>1928.4</ele><time>2026-03-22T13:18:25.01Z</time></trkpt><trkpt lat="21.890079211523084" lon="-102.3950258510074"><ele>1928.0</ele><time>2026-03-22T13:18:26.01Z</time></trkpt><trkpt lat="21.890113044213138" lon="-102.39515061558188"><ele>1926.0</ele><time>2026-03-22T13:18:27.01Z</time></trkpt><trkpt lat="21.89014099387906" lon="-102.39527588775304"><ele>1924.0</ele><time>2026-03-22T13:18:28.01Z</time></trkpt><trkpt lat="21.89017436972872" lon="-102.39540538566328"><ele>1922.0</ele><time>2026-03-22T13:18:29.01Z</time></trkpt><trkpt lat="21.890206783132562" lon="-102.39553746048668"><ele>1920.0</ele><time>2026-03-22T13:18:30.01Z</time></trkpt><trkpt lat="21.890240093804145" lon="-102.3956637921325"><ele>1919.75</ele><time>2026-03-22T13:18:31.01Z</time></trkpt><trkpt lat="21.890275912972015" lon="-102.39579193972726"><ele>1919.5</ele><time>2026-03-22T13:18:32.01Z</time></trkpt><trkpt lat="21.890310640653805" lon="-102.3959297013288"><ele>1919.25</ele><time>2026-03-22T13:18:33.01Z</time></trkpt><trkpt lat="21.890346205088434" lon="-102.39605951004613"><ele>1919.0</ele><time>2026-03-22T13:18:34.01Z</time></trkpt><trkpt lat="21.890385636778237" lon="-102.3961939605266"><ele>1919.0</ele><time>2026-03-22T13:18:35.01Z</time></trkpt><trkpt lat="21.8904253314758" lon="-102.39632686116026"><ele>1919.0</ele><time>2026-03-22T13:18:36.01Z</time></trkpt><trkpt lat="21.890463262860074" lon="-102.3964631327551"><ele>1919.0</ele><time>2026-03-22T13:18:37.01Z</time></trkpt><trkpt lat="21.890497484209355" lon="-102.39659690796022"><ele>1919.0</ele><time>2026-03-22T13:18:38.01Z</time></trkpt><trkpt lat="21.890532173191612" lon="-102.39673083166652"><ele>1919.75</ele><time>2026-03-22T13:18:39.01Z</time></trkpt><trkpt lat="21.890570325219002" lon="-102.39686666888788"><ele>1920.5</ele><time>2026-03-22T13:18:40.01Z</time></trkpt><trkpt lat="21.890604008601848" lon="-102.39699543725726"><ele>1921.25</ele><time>2026-03-22T13:18:41.01Z</time></trkpt><trkpt lat="21.89063704626167" lon="-102.39712678543106"><ele>1922.0</ele><time>2026-03-22T13:18:42.01Z</time></trkpt><trkpt lat="21.890668535539625" lon="-102.39725295365933"><ele>1923.5</ele><time>2026-03-22T13:18:43.01Z</time></trkpt><trkpt lat="21.89070585694765" lon="-102.3973872081717"><ele>1925.0</ele><time>2026-03-22T13:18:44.01Z</time></trkpt><trkpt lat="21.890739863745466" lon="-102.39751212575526"><ele>1926.5</ele><time>2026-03-22T13:18:45.009Z</time></trkpt><trkpt lat="21.890776630697072" lon="-102.39763421389763"><ele>1928.0</ele><time>2026-03-22T13:18:46.009Z</time></trkpt><trkpt lat="21.89080819810145" lon="-102.39776897001222"><ele>1928.0</ele><time>2026-03-22T13:18:47.009Z</time></trkpt><trkpt lat="21.890843274377943" lon="-102.39789487358627"><ele>1928.0</ele><time>2026-03-22T13:18:48.009Z</time></trkpt><trkpt lat="21.890877515772647" lon="-102.39802513033864"><ele>1928.0</ele><time>2026-03-22T13:18:49.009Z</time></trkpt><trkpt lat="21.890912800874535" lon="-102.39814700982393"><ele>1928.0</ele><time>2026-03-22T13:18:50.009Z</time></trkpt><trkpt lat="21.890950048521127" lon="-102.39826773412766"><ele>1928.0</ele><time>2026-03-22T13:18:51.009Z</time></trkpt><trkpt lat="21.890982636226827" lon="-102.39838620700066"><ele>1928.0000000000002</ele><time>2026-03-22T13:18:52.009Z</time></trkpt><trkpt lat="21.891012385576403" lon="-102.39850525622025"><ele>1928.0000000000002</ele><time>2026-03-22T13:18:53.009Z</time></trkpt><trkpt lat="21.891037021232822" lon="-102.39860771246947"><ele>1928.0</ele><time>2026-03-22T13:18:54.009Z</time></trkpt><trkpt lat="21.89106931162484" lon="-102.39872389793189"><ele>1928.0</ele><time>2026-03-22T13:18:55.009Z</time></trkpt><trkpt lat="21.891109110808976" lon="-102.39884904242193"><ele>1928.0</ele><time>2026-03-22T13:18:56.009Z</time></trkpt><trkpt lat="21.89113953408875" lon="-102.39897723367582"><ele>1928.0000000000002</ele><time>2026-03-22T13:18:57.009Z</time></trkpt><trkpt lat="21.89116881137224" lon="-102.39909413659946"><ele>1928.0000000000002</ele><time>2026-03-22T13:18:58.009Z</time></trkpt><trkpt lat="21.891195923070995" lon="-102.3992035850885"><ele>1928.0</ele><time>2026-03-22T13:18:59.009Z</time></trkpt><trkpt lat="21.89122788907231" lon="-102.39931129532093"><ele>1928.0</ele><time>2026-03-22T13:19:00.009Z</time></trkpt><trkpt lat="21.89125697554086" lon="-102.39941659434504"><ele>1928.0</ele><time>2026-03-22T13:19:01.009Z</time></trkpt><trkpt lat="21.89129117252099" lon="-102.39951470602226"><ele>1928.0000000000002</ele><time>2026-03-22T13:19:02.009Z</time></trkpt><trkpt lat="21.891324147962138" lon="-102.39961729295273"><ele>1928.0000000000002</ele><time>2026-03-22T13:19:03.009Z</time></trkpt><trkpt lat="21.89135220478324" lon="-102.39971209019365"><ele>1928.0</ele><time>2026-03-22T13:19:04.009Z</time></trkpt><trkpt lat="21.891378072963267" lon="-102.39980446338753"><ele>1928.0</ele><time>2026-03-22T13:19:05.009Z</time></trkpt><trkpt lat="21.891404280245418" lon="-102.39989451587488"><ele>1928.4999999999998</ele><time>2026-03-22T13:19:06.009Z</time></trkpt><trkpt lat="21.891431794704275" lon="-102.39998287839587"><ele>1929.0</ele><time>2026-03-22T13:19:07.009Z</time></trkpt><trkpt lat="21.89145703723749" lon="-102.40007098326741"><ele>1929.5</ele><time>2026-03-22T13:19:08.009Z</time></trkpt><trkpt lat="21.891481608721886" lon="-102.40015831256626"><ele>1930.0</ele><time>2026-03-22T13:19:09.009Z</time></trkpt><trkpt lat="21.891504885622165" lon="-102.40024684893068"><ele>1930.4999999999998</ele><time>2026-03-22T13:19:10.009Z</time></trkpt><trkpt lat="21.891525240012637" lon="-102.40032912477406"><ele>1931.0</ele><time>2026-03-22T13:19:11.009Z</time></trkpt><trkpt lat="21.891543287872626" lon="-102.40040613443719"><ele>1931.0</ele><time>2026-03-22T13:19:12.009Z</time></trkpt><trkpt lat="21.891563153713243" lon="-102.40047958383481"><ele>1931.0</ele><time>2026-03-22T13:19:13.009Z</time></trkpt><trkpt lat="21.891582960723735" lon="-102.40055136235473"><ele>1931.0</ele><time>2026-03-22T13:19:14.009Z</time></trkpt><trkpt lat="21.891616414477063" lon="-102.40068065995169"><ele>1931.0</ele><time>2026-03-22T13:19:16.009Z</time></trkpt><trkpt lat="21.89165186359251" lon="-102.40079831577155"><ele>1931.0</ele><time>2026-03-22T13:19:18.009Z</time></trkpt><trkpt lat="21.89167719650106" lon="-102.4009105001714"><ele>1931.6</ele><time>2026-03-22T13:19:20.009Z</time></trkpt><trkpt lat="21.89171444959004" lon="-102.40101990848697"><ele>1932.1999999999998</ele><time>2026-03-22T13:19:22.009Z</time></trkpt><trkpt lat="21.891751548911326" lon="-102.40112747712591"><ele>1932.8000000000002</ele><time>2026-03-22T13:19:24.009Z</time></trkpt><trkpt lat="21.89177338168514" lon="-102.40122634533488"><ele>1933.4</ele><time>2026-03-22T13:19:26.009Z</time></trkpt><trkpt lat="21.891796373747415" lon="-102.40134032926674"><ele>1934.0</ele><time>2026-03-22T13:19:28.009Z</time></trkpt><trkpt lat="21.89183029908448" lon="-102.40144235561371"><ele>1936.6</ele><time>2026-03-22T13:19:30.009Z</time></trkpt><trkpt lat="21.891857084710825" lon="-102.40153405201164"><ele>1939.2</ele><time>2026-03-22T13:19:32.009Z</time></trkpt><trkpt lat="21.891883176534638" lon="-102.40165667732484"><ele>1941.7999999999997</ele><time>2026-03-22T13:19:34.009Z</time></trkpt><trkpt lat="21.89191614025449" lon="-102.40177764505512"><ele>1944.3999999999999</ele><time>2026-03-22T13:19:36.009Z</time></trkpt><trkpt lat="21.891944788546294" lon="-102.40188589517568"><ele>1947.0</ele><time>2026-03-22T13:19:38.009Z</time></trkpt><trkpt lat="21.891972663679994" lon="-102.40199330326219"><ele>1947.0</ele><time>2026-03-22T13:19:40.009Z</time></trkpt><trkpt lat="21.892005125731785" lon="-102.4021039819113"><ele>1946.9999999999998</ele><time>2026-03-22T13:19:42.009Z</time></trkpt><trkpt lat="21.892033348461645" lon="-102.40221957407988"><ele>1946.9999999999998</ele><time>2026-03-22T13:19:44.009Z</time></trkpt><trkpt lat="21.892058775286927" lon="-102.40232655929123"><ele>1947.0</ele><time>2026-03-22T13:19:46.009Z</time></trkpt><trkpt lat="21.892089621834582" lon="-102.40243387418697"><ele>1947.0</ele><time>2026-03-22T13:19:48.009Z</time></trkpt><trkpt lat="21.892117830379696" lon="-102.40253996421092"><ele>1948.1999999999998</ele><time>2026-03-22T13:19:50.009Z</time></trkpt><trkpt lat="21.892150821009125" lon="-102.40264908961944"><ele>1949.3999999999999</ele><time>2026-03-22T13:19:52.009Z</time></trkpt><trkpt lat="21.892169447116625" lon="-102.40276850573645"><ele>1950.6000000000001</ele><time>2026-03-22T13:19:54.009Z</time></trkpt><trkpt lat="21.892197991610733" lon="-102.40287990658217"><ele>1951.8000000000002</ele><time>2026-03-22T13:19:56.009Z</time></trkpt><trkpt lat="21.892230099036084" lon="-102.40299391367836"><ele>1953.0</ele><time>2026-03-22T13:19:58.009Z</time></trkpt><trkpt lat="21.892258509179722" lon="-102.40311250196905"><ele>1953.5</ele><time>2026-03-22T13:20:00.009Z</time></trkpt><trkpt lat="21.892298584947817" lon="-102.4032393277094"><ele>1954.0</ele><time>2026-03-22T13:20:02.009Z</time></trkpt><trkpt lat="21.892329555843546" lon="-102.40335450393289"><ele>1954.5</ele><time>2026-03-22T13:20:04.009Z</time></trkpt><trkpt lat="21.892363715810987" lon="-102.40346638368965"><ele>1955.0</ele><time>2026-03-22T13:20:06.009Z</time></trkpt><trkpt lat="21.8923988267235" lon="-102.40358902866559"><ele>1955.0</ele><time>2026-03-22T13:20:08.008Z</time></trkpt><trkpt lat="21.892427040296194" lon="-102.40370604870695"><ele>1955.0</ele><time>2026-03-22T13:20:10.008Z</time></trkpt><trkpt lat="21.892456373387756" lon="-102.40382453262751"><ele>1955.0</ele><time>2026-03-22T13:20:12.009Z</time></trkpt><trkpt lat="21.89249057301774" lon="-102.40394089055596"><ele>1955.0</ele><time>2026-03-22T13:20:14.009Z</time></trkpt><trkpt lat="21.892520445475203" lon="-102.40404782291372"><ele>1955.0</ele><time>2026-03-22T13:20:16.009Z</time></trkpt><trkpt lat="21.892549280237436" lon="-102.40416351435773"><ele>1954.6</ele><time>2026-03-22T13:20:18.01Z</time></trkpt><trkpt lat="21.89258097580228" lon="-102.40428428301209"><ele>1954.2</ele><time>2026-03-22T13:20:20.009Z</time></trkpt><trkpt lat="21.89260140571179" lon="-102.40439816493993"><ele>1953.8000000000002</ele><time>2026-03-22T13:20:22.009Z</time></trkpt><trkpt lat="21.892629338821724" lon="-102.40451612994627"><ele>1953.4</ele><time>2026-03-22T13:20:24.009Z</time></trkpt><trkpt lat="21.892656726906022" lon="-102.4046333683556"><ele>1953.0</ele><time>2026-03-22T13:20:26.009Z</time></trkpt><trkpt lat="21.892688082048505" lon="-102.40475363696501"><ele>1955.0</ele><time>2026-03-22T13:20:28.009Z</time></trkpt><trkpt lat="21.892722459766553" lon="-102.4048749151922"><ele>1957.0000000000002</ele><time>2026-03-22T13:20:30.009Z</time></trkpt><trkpt lat="21.89275774460442" lon="-102.40498675932471"><ele>1959.0000000000002</ele><time>2026-03-22T13:20:32.009Z</time></trkpt><trkpt lat="21.892784283312743" lon="-102.40510842176958"><ele>1961.0</ele><time>2026-03-22T13:20:34.009Z</time></trkpt><trkpt lat="21.892820541428986" lon="-102.4052159052469"><ele>1963.0</ele><time>2026-03-22T13:20:36.009Z</time></trkpt><trkpt lat="21.892858000815888" lon="-102.40532559534927"><ele>1963.0000000000002</ele><time>2026-03-22T13:20:38.009Z</time></trkpt><trkpt lat="21.892881812702363" lon="-102.40544133776727"><ele>1963.0</ele><time>2026-03-22T13:20:40.009Z</time></trkpt><trkpt lat="21.892905112444566" lon="-102.40550954367903"><ele>1963.0</ele><time>2026-03-22T13:20:41.009Z</time></trkpt><trkpt lat="21.892920530009246" lon="-102.40557892416332"><ele>1963.0</ele><time>2026-03-22T13:20:42.009Z</time></trkpt><trkpt lat="21.892955205727596" lon="-102.40570584319254"><ele>1963.0000000000002</ele><time>2026-03-22T13:20:44.009Z</time></trkpt><trkpt lat="21.892967845598836" lon="-102.40577460070212"><ele>1963.0</ele><time>2026-03-22T13:20:45.009Z</time></trkpt><trkpt lat="21.89298143249265" lon="-102.40584478863747"><ele>1963.0</ele><time>2026-03-22T13:20:46.009Z</time></trkpt><trkpt lat="21.893008587776823" lon="-102.40596661084108"><ele>1963.0000000000002</ele><time>2026-03-22T13:20:48.009Z</time></trkpt><trkpt lat="21.893036202910153" lon="-102.4060356017046"><ele>1963.0000000000002</ele><time>2026-03-22T13:20:49.009Z</time></trkpt><trkpt lat="21.893052354421705" lon="-102.4061025151615"><ele>1963.0</ele><time>2026-03-22T13:20:50.009Z</time></trkpt><trkpt lat="21.893085760547812" lon="-102.40623397700908"><ele>1963.0</ele><time>2026-03-22T13:20:52.009Z</time></trkpt><trkpt lat="21.893114723970086" lon="-102.4063599689307"><ele>1963.2857142857144</ele><time>2026-03-22T13:20:54.009Z</time></trkpt><trkpt lat="21.89313825293007" lon="-102.40642763378959"><ele>1963.571428571429</ele><time>2026-03-22T13:20:55.009Z</time></trkpt><trkpt lat="21.89316291023356" lon="-102.40650030698498"><ele>1963.857142857143</ele><time>2026-03-22T13:20:56.009Z</time></trkpt><trkpt lat="21.893183024060367" lon="-102.40656679736028"><ele>1964.1428571428573</ele><time>2026-03-22T13:20:57.009Z</time></trkpt><trkpt lat="21.893204703532337" lon="-102.40663909726574"><ele>1964.4285714285716</ele><time>2026-03-22T13:20:58.009Z</time></trkpt><trkpt lat="21.893223729927055" lon="-102.40670799384706"><ele>1964.7142857142858</ele><time>2026-03-22T13:20:59.009Z</time></trkpt><trkpt lat="21.893241086666603" lon="-102.40678367021877"><ele>1965.0</ele><time>2026-03-22T13:21:00.009Z</time></trkpt><trkpt lat="21.89325845233326" lon="-102.40685043462467"><ele>1965.0</ele><time>2026-03-22T13:21:01.009Z</time></trkpt><trkpt lat="21.89327645647085" lon="-102.40691944763518"><ele>1965.0</ele><time>2026-03-22T13:21:02.009Z</time></trkpt><trkpt lat="21.893298851646374" lon="-102.40699547969096"><ele>1965.0</ele><time>2026-03-22T13:21:03.009Z</time></trkpt><trkpt lat="21.893318914643235" lon="-102.407065441643"><ele>1965.0</ele><time>2026-03-22T13:21:04.009Z</time></trkpt><trkpt lat="21.893336835337244" lon="-102.40713373547456"><ele>1965.0</ele><time>2026-03-22T13:21:05.009Z</time></trkpt><trkpt lat="21.893351804793436" lon="-102.40721065259122"><ele>1965.0</ele><time>2026-03-22T13:21:06.009Z</time></trkpt><trkpt lat="21.893371249467513" lon="-102.40727605628597"><ele>1965.0</ele><time>2026-03-22T13:21:07.009Z</time></trkpt><trkpt lat="21.893394637786326" lon="-102.40735728482605"><ele>1965.1666666666667</ele><time>2026-03-22T13:21:08.009Z</time></trkpt><trkpt lat="21.893411885811176" lon="-102.40743359506816"><ele>1965.3333333333335</ele><time>2026-03-22T13:21:09.009Z</time></trkpt><trkpt lat="21.893431589313806" lon="-102.40751475438805"><ele>1965.5</ele><time>2026-03-22T13:21:10.009Z</time></trkpt><trkpt lat="21.893458662933188" lon="-102.40760171567794"><ele>1965.6666666666667</ele><time>2026-03-22T13:21:11.009Z</time></trkpt><trkpt lat="21.89347794394463" lon="-102.40768402467737"><ele>1965.8333333333335</ele><time>2026-03-22T13:21:12.009Z</time></trkpt><trkpt lat="21.89350247929975" lon="-102.40776449034415"><ele>1966.0</ele><time>2026-03-22T13:21:13.009Z</time></trkpt><trkpt lat="21.893527418094603" lon="-102.40786028826854"><ele>1965.6666666666667</ele><time>2026-03-22T13:21:14.009Z</time></trkpt><trkpt lat="21.89354916052681" lon="-102.40794622506404"><ele>1965.3333333333335</ele><time>2026-03-22T13:21:15.009Z</time></trkpt><trkpt lat="21.893577905411828" lon="-102.40803154449515"><ele>1965.0</ele><time>2026-03-22T13:21:16.008Z</time></trkpt><trkpt lat="21.89359740465497" lon="-102.40811751710125"><ele>1964.6666666666665</ele><time>2026-03-22T13:21:17.008Z</time></trkpt><trkpt lat="21.893619634384116" lon="-102.40820681670797"><ele>1964.3333333333333</ele><time>2026-03-22T13:21:18.008Z</time></trkpt><trkpt lat="21.893648008965418" lon="-102.40829161625149"><ele>1964.0</ele><time>2026-03-22T13:21:19.008Z</time></trkpt><trkpt lat="21.893679140357495" lon="-102.40838347323502"><ele>1964.0</ele><time>2026-03-22T13:21:20.008Z</time></trkpt><trkpt lat="21.893707523808473" lon="-102.4084739250384"><ele>1964.0</ele><time>2026-03-22T13:21:21.008Z</time></trkpt><trkpt lat="21.89373303484842" lon="-102.40857363911863"><ele>1964.0</ele><time>2026-03-22T13:21:22.008Z</time></trkpt><trkpt lat="21.893762466633454" lon="-102.4086744140527"><ele>1964.0</ele><time>2026-03-22T13:21:23.008Z</time></trkpt><trkpt lat="21.893792824260565" lon="-102.40876969595917"><ele>1964.0</ele><time>2026-03-22T13:21:24.008Z</time></trkpt><trkpt lat="21.893815947245464" lon="-102.40886486523728"><ele>1964.2</ele><time>2026-03-22T13:21:25.008Z</time></trkpt><trkpt lat="21.89383803970748" lon="-102.40896443242583"><ele>1964.4</ele><time>2026-03-22T13:21:26.008Z</time></trkpt><trkpt lat="21.89386436726803" lon="-102.40905706833239"><ele>1964.6</ele><time>2026-03-22T13:21:27.008Z</time></trkpt><trkpt lat="21.893889204200043" lon="-102.40914983374516"><ele>1964.8</ele><time>2026-03-22T13:21:28.008Z</time></trkpt><trkpt lat="21.893915393993062" lon="-102.40924641195194"><ele>1965.0</ele><time>2026-03-22T13:21:29.008Z</time></trkpt><trkpt lat="21.893942929393834" lon="-102.40934430817049"><ele>1965.0</ele><time>2026-03-22T13:21:30.008Z</time></trkpt><trkpt lat="21.893968055967377" lon="-102.40944124729381"><ele>1965.0</ele><time>2026-03-22T13:21:31.008Z</time></trkpt><trkpt lat="21.893991949703896" lon="-102.40952473292624"><ele>1965.0</ele><time>2026-03-22T13:21:32.008Z</time></trkpt><trkpt lat="21.894019255846608" lon="-102.40962178603978"><ele>1965.0</ele><time>2026-03-22T13:21:33.008Z</time></trkpt><trkpt lat="21.894046977052376" lon="-102.40971833327923"><ele>1965.0</ele><time>2026-03-22T13:21:34.008Z</time></trkpt><trkpt lat="21.894069960303685" lon="-102.40980840200395"><ele>1965.0</ele><time>2026-03-22T13:21:35.008Z</time></trkpt><trkpt lat="21.894098065665688" lon="-102.40990464898712"><ele>1965.2</ele><time>2026-03-22T13:21:36.008Z</time></trkpt><trkpt lat="21.894121844889526" lon="-102.40999669628059"><ele>1965.4</ele><time>2026-03-22T13:21:37.008Z</time></trkpt><trkpt lat="21.89415192891245" lon="-102.41009344416388"><ele>1965.6</ele><time>2026-03-22T13:21:38.008Z</time></trkpt><trkpt lat="21.894182061167072" lon="-102.41018272621719"><ele>1965.8</ele><time>2026-03-22T13:21:39.008Z</time></trkpt><trkpt lat="21.894209892506236" lon="-102.41028252325259"><ele>1966.0</ele><time>2026-03-22T13:21:40.008Z</time></trkpt><trkpt lat="21.894235528432052" lon="-102.41038518505732"><ele>1966.8</ele><time>2026-03-22T13:21:41.008Z</time></trkpt><trkpt lat="21.89426411283378" lon="-102.41049947278503"><ele>1967.6</ele><time>2026-03-22T13:21:42.008Z</time></trkpt><trkpt lat="21.894298063917326" lon="-102.4105958876963"><ele>1968.4</ele><time>2026-03-22T13:21:43.008Z</time></trkpt><trkpt lat="21.894329005979866" lon="-102.41069466144032"><ele>1969.2</ele><time>2026-03-22T13:21:44.008Z</time></trkpt><trkpt lat="21.894360104962523" lon="-102.41079357370894"><ele>1970.0</ele><time>2026-03-22T13:21:45.008Z</time></trkpt><trkpt lat="21.894387800434668" lon="-102.41088788137566"><ele>1970.0</ele><time>2026-03-22T13:21:46.008Z</time></trkpt><trkpt lat="21.894414218782803" lon="-102.41098741627943"><ele>1970.0</ele><time>2026-03-22T13:21:47.008Z</time></trkpt><trkpt lat="21.89444135661105" lon="-102.41108213998645"><ele>1970.0</ele><time>2026-03-22T13:21:48.008Z</time></trkpt><trkpt lat="21.89446498499153" lon="-102.41117705744723"><ele>1970.0</ele><time>2026-03-22T13:21:49.008Z</time></trkpt><trkpt lat="21.894492648428784" lon="-102.4112671452028"><ele>1970.0</ele><time>2026-03-22T13:21:50.008Z</time></trkpt><trkpt lat="21.89451847374861" lon="-102.41136368876664"><ele>1970.1666666666665</ele><time>2026-03-22T13:21:51.008Z</time></trkpt><trkpt lat="21.894545762853745" lon="-102.41146159435152"><ele>1970.3333333333333</ele><time>2026-03-22T13:21:52.008Z</time></trkpt><trkpt lat="21.89456511562283" lon="-102.41155639930831"><ele>1970.5</ele><time>2026-03-22T13:21:53.008Z</time></trkpt><trkpt lat="21.89458867224995" lon="-102.41165204030186"><ele>1970.6666666666665</ele><time>2026-03-22T13:21:54.008Z</time></trkpt><trkpt lat="21.894614327353835" lon="-102.41173574008553"><ele>1970.8333333333333</ele><time>2026-03-22T13:21:55.008Z</time></trkpt><trkpt lat="21.89463607112224" lon="-102.4118232422211"><ele>1971.0</ele><time>2026-03-22T13:21:56.008Z</time></trkpt><trkpt lat="21.894652586744566" lon="-102.41190699302827"><ele>1971.0</ele><time>2026-03-22T13:21:57.008Z</time></trkpt><trkpt lat="21.894674755271197" lon="-102.4119879124107"><ele>1971.0</ele><time>2026-03-22T13:21:58.008Z</time></trkpt><trkpt lat="21.894693513758003" lon="-102.41207455667903"><ele>1971.0</ele><time>2026-03-22T13:21:59.008Z</time></trkpt><trkpt lat="21.894711303438065" lon="-102.41215544158918"><ele>1971.0</ele><time>2026-03-22T13:22:00.008Z</time></trkpt><trkpt lat="21.89473705846605" lon="-102.41223773948185"><ele>1971.0</ele><time>2026-03-22T13:22:01.008Z</time></trkpt><trkpt lat="21.89476018454288" lon="-102.41232021261904"><ele>1971.0</ele><time>2026-03-22T13:22:02.008Z</time></trkpt><trkpt lat="21.894784307628903" lon="-102.41239651235934"><ele>1971.0</ele><time>2026-03-22T13:22:03.008Z</time></trkpt><trkpt lat="21.894807415855905" lon="-102.41247298958262"><ele>1970.9999999999998</ele><time>2026-03-22T13:22:04.008Z</time></trkpt><trkpt lat="21.894824750687096" lon="-102.4125428093984"><ele>1971.0</ele><time>2026-03-22T13:22:05.008Z</time></trkpt><trkpt lat="21.894846253624713" lon="-102.41261144347243"><ele>1971.0</ele><time>2026-03-22T13:22:06.008Z</time></trkpt><trkpt lat="21.89486995369249" lon="-102.41268304310033"><ele>1970.9999999999998</ele><time>2026-03-22T13:22:07.008Z</time></trkpt><trkpt lat="21.89488805444046" lon="-102.41276538712994"><ele>1971.0</ele><time>2026-03-22T13:22:08.008Z</time></trkpt><trkpt lat="21.894908857251984" lon="-102.41284166564654"><ele>1971.0</ele><time>2026-03-22T13:22:09.008Z</time></trkpt><trkpt lat="21.89492869456818" lon="-102.41292355303271"><ele>1971.4285714285713</ele><time>2026-03-22T13:22:10.008Z</time></trkpt><trkpt lat="21.89495235168521" lon="-102.41299705218611"><ele>1971.8571428571427</ele><time>2026-03-22T13:22:11.008Z</time></trkpt><trkpt lat="21.894972345011396" lon="-102.41307155736686"><ele>1972.2857142857142</ele><time>2026-03-22T13:22:12.008Z</time></trkpt><trkpt lat="21.894995203976833" lon="-102.413150027016"><ele>1972.7142857142858</ele><time>2026-03-22T13:22:13.008Z</time></trkpt><trkpt lat="21.89501689805612" lon="-102.41322763542755"><ele>1973.142857142857</ele><time>2026-03-22T13:22:14.008Z</time></trkpt><trkpt lat="21.895039184563615" lon="-102.41330254605394"><ele>1973.5714285714284</ele><time>2026-03-22T13:22:15.008Z</time></trkpt><trkpt lat="21.895058558485285" lon="-102.4133727944524"><ele>1974.0</ele><time>2026-03-22T13:22:16.008Z</time></trkpt><trkpt lat="21.89508234334467" lon="-102.4134445825799"><ele>1974.0</ele><time>2026-03-22T13:22:17.01Z</time></trkpt><trkpt lat="21.895100485164853" lon="-102.41351940650213"><ele>1974.0</ele><time>2026-03-22T13:22:18.01Z</time></trkpt><trkpt lat="21.89512220180358" lon="-102.41359195599979"><ele>1974.0</ele><time>2026-03-22T13:22:19.01Z</time></trkpt><trkpt lat="21.89514038429032" lon="-102.41366109234686"><ele>1974.0</ele><time>2026-03-22T13:22:20.01Z</time></trkpt><trkpt lat="21.89516327772643" lon="-102.41372590631654"><ele>1974.0</ele><time>2026-03-22T13:22:21.01Z</time></trkpt><trkpt lat="21.895189615212203" lon="-102.41380265306567"><ele>1974.0</ele><time>2026-03-22T13:22:22.01Z</time></trkpt><trkpt lat="21.895211840471486" lon="-102.4138781895834"><ele>1974.0</ele><time>2026-03-22T13:22:23.01Z</time></trkpt><trkpt lat="21.895233632223757" lon="-102.4139544420373"><ele>1974.857142857143</ele><time>2026-03-22T13:22:24.01Z</time></trkpt><trkpt lat="21.895254666489155" lon="-102.41402429645558"><ele>1975.7142857142858</ele><time>2026-03-22T13:22:25.01Z</time></trkpt><trkpt lat="21.89527336698456" lon="-102.41410241435169"><ele>1976.5714285714284</ele><time>2026-03-22T13:22:26.01Z</time></trkpt><trkpt lat="21.89529184190913" lon="-102.41417807562661"><ele>1977.4285714285713</ele><time>2026-03-22T13:22:27.01Z</time></trkpt><trkpt lat="21.89531271819979" lon="-102.41425561975299"><ele>1978.2857142857142</ele><time>2026-03-22T13:22:28.01Z</time></trkpt><trkpt lat="21.895335936662754" lon="-102.41433280757103"><ele>1979.1428571428569</ele><time>2026-03-22T13:22:29.01Z</time></trkpt><trkpt lat="21.895362838424035" lon="-102.41441270159562"><ele>1979.9999999999998</ele><time>2026-03-22T13:22:30.01Z</time></trkpt><trkpt lat="21.895393033984227" lon="-102.4145010497408"><ele>1980.0</ele><time>2026-03-22T13:22:31.01Z</time></trkpt><trkpt lat="21.895416837626982" lon="-102.41458883744974"><ele>1980.0</ele><time>2026-03-22T13:22:32.01Z</time></trkpt><trkpt lat="21.89543902130899" lon="-102.4146705626254"><ele>1980.0</ele><time>2026-03-22T13:22:33.01Z</time></trkpt><trkpt lat="21.89546118020965" lon="-102.4147605042893"><ele>1980.0</ele><time>2026-03-22T13:22:34.01Z</time></trkpt><trkpt lat="21.895482002728265" lon="-102.41484662288437"><ele>1980.0</ele><time>2026-03-22T13:22:35.01Z</time></trkpt><trkpt lat="21.895506199665856" lon="-102.41491888468332"><ele>1980.0</ele><time>2026-03-22T13:22:36.01Z</time></trkpt><trkpt lat="21.895533626025948" lon="-102.41500511066926"><ele>1980.6666666666667</ele><time>2026-03-22T13:22:37.01Z</time></trkpt><trkpt lat="21.895556580499008" lon="-102.41508706690664"><ele>1981.3333333333335</ele><time>2026-03-22T13:22:38.01Z</time></trkpt><trkpt lat="21.895581157373478" lon="-102.41517474745689"><ele>1982.0</ele><time>2026-03-22T13:22:39.01Z</time></trkpt><trkpt lat="21.89559888560171" lon="-102.41525450284973"><ele>1982.6666666666667</ele><time>2026-03-22T13:22:40.01Z</time></trkpt><trkpt lat="21.895617175496913" lon="-102.41535376371424"><ele>1983.3333333333335</ele><time>2026-03-22T13:22:41.01Z</time></trkpt><trkpt lat="21.895640784783364" lon="-102.41544004614742"><ele>1984.0</ele><time>2026-03-22T13:22:42.01Z</time></trkpt><trkpt lat="21.895668866571405" lon="-102.41552647204988"><ele>1984.0000000000002</ele><time>2026-03-22T13:22:43.01Z</time></trkpt><trkpt lat="21.895696281092494" lon="-102.41562284275061"><ele>1984.0</ele><time>2026-03-22T13:22:44.01Z</time></trkpt><trkpt lat="21.895719194428914" lon="-102.41570456247369"><ele>1984.0</ele><time>2026-03-22T13:22:45.01Z</time></trkpt><trkpt lat="21.89574118742811" lon="-102.41579086828482"><ele>1984.0</ele><time>2026-03-22T13:22:46.01Z</time></trkpt><trkpt lat="21.89576265611307" lon="-102.41588320209817"><ele>1984.0000000000002</ele><time>2026-03-22T13:22:47.01Z</time></trkpt><trkpt lat="21.895790483244475" lon="-102.41597122629858"><ele>1984.0</ele><time>2026-03-22T13:22:48.01Z</time></trkpt><trkpt lat="21.895816018986704" lon="-102.41607225131658"><ele>1984.0</ele><time>2026-03-22T13:22:49.01Z</time></trkpt><trkpt lat="21.89583943248794" lon="-102.41617349292851"><ele>1984.0</ele><time>2026-03-22T13:22:50.01Z</time></trkpt><trkpt lat="21.895866372435712" lon="-102.41627347952245"><ele>1984.0</ele><time>2026-03-22T13:22:51.01Z</time></trkpt><trkpt lat="21.895893522776255" lon="-102.41637528107464"><ele>1984.0</ele><time>2026-03-22T13:22:52.01Z</time></trkpt><trkpt lat="21.895916775216175" lon="-102.4164795885662"><ele>1984.0</ele><time>2026-03-22T13:22:53.01Z</time></trkpt><trkpt lat="21.89594822876477" lon="-102.4165876146465"><ele>1981.4</ele><time>2026-03-22T13:22:54.01Z</time></trkpt><trkpt lat="21.895976880116688" lon="-102.41669376778567"><ele>1978.8000000000002</ele><time>2026-03-22T13:22:55.01Z</time></trkpt><trkpt lat="21.896006520956096" lon="-102.41680041662012"><ele>1976.1999999999998</ele><time>2026-03-22T13:22:56.01Z</time></trkpt><trkpt lat="21.89603926062978" lon="-102.416909196879"><ele>1973.6</ele><time>2026-03-22T13:22:57.01Z</time></trkpt><trkpt lat="21.89606745735924" lon="-102.41701455575861"><ele>1971.0</ele><time>2026-03-22T13:22:58.01Z</time></trkpt><trkpt lat="21.896090613879807" lon="-102.41712900959209"><ele>1971.6</ele><time>2026-03-22T13:22:59.01Z</time></trkpt><trkpt lat="21.89612198008364" lon="-102.41724141491231"><ele>1972.1999999999998</ele><time>2026-03-22T13:23:00.01Z</time></trkpt><trkpt lat="21.896153896859673" lon="-102.41735295212786"><ele>1972.8000000000002</ele><time>2026-03-22T13:23:01.01Z</time></trkpt><trkpt lat="21.896185429423006" lon="-102.41746685714482"><ele>1973.4</ele><time>2026-03-22T13:23:02.01Z</time></trkpt><trkpt lat="21.896218212307115" lon="-102.41758410523052"><ele>1974.0</ele><time>2026-03-22T13:23:03.01Z</time></trkpt><trkpt lat="21.896252182457264" lon="-102.41770302862233"><ele>1974.0</ele><time>2026-03-22T13:23:04.01Z</time></trkpt><trkpt lat="21.896279393391012" lon="-102.41782600231828"><ele>1974.0</ele><time>2026-03-22T13:23:05.01Z</time></trkpt><trkpt lat="21.89630948261092" lon="-102.41794597325433"><ele>1974.0</ele><time>2026-03-22T13:23:06.01Z</time></trkpt><trkpt lat="21.896344092579817" lon="-102.41806889196071"><ele>1974.0</ele><time>2026-03-22T13:23:07.01Z</time></trkpt><trkpt lat="21.89637888139045" lon="-102.41819576686368"><ele>1973.0</ele><time>2026-03-22T13:23:08.01Z</time></trkpt><trkpt lat="21.89640818283697" lon="-102.41831913478323"><ele>1972.0</ele><time>2026-03-22T13:23:09.01Z</time></trkpt><trkpt lat="21.89644047499402" lon="-102.41844598746226"><ele>1971.0</ele><time>2026-03-22T13:23:10.01Z</time></trkpt><trkpt lat="21.896477870825287" lon="-102.41857842275029"><ele>1970.0</ele><time>2026-03-22T13:23:11.01Z</time></trkpt><trkpt lat="21.89651726340173" lon="-102.41870266644398"><ele>1970.5</ele><time>2026-03-22T13:23:12.01Z</time></trkpt><trkpt lat="21.896555079059222" lon="-102.41882965947613"><ele>1971.0</ele><time>2026-03-22T13:23:13.01Z</time></trkpt><trkpt lat="21.896589004710684" lon="-102.41895335537883"><ele>1971.5</ele><time>2026-03-22T13:23:14.01Z</time></trkpt><trkpt lat="21.896628617853327" lon="-102.41907796538895"><ele>1972.0</ele><time>2026-03-22T13:23:15.01Z</time></trkpt><trkpt lat="21.89666500964983" lon="-102.4191937103265"><ele>1972.0</ele><time>2026-03-22T13:23:16.01Z</time></trkpt><trkpt lat="21.896694065501816" lon="-102.41931541428085"><ele>1972.0</ele><time>2026-03-22T13:23:17.01Z</time></trkpt><trkpt lat="21.89672601929575" lon="-102.41943444544172"><ele>1972.0</ele><time>2026-03-22T13:23:18.01Z</time></trkpt><trkpt lat="21.896757570184867" lon="-102.41956437156782"><ele>1972.0</ele><time>2026-03-22T13:23:19.01Z</time></trkpt><trkpt lat="21.89679597436806" lon="-102.41968023401998"><ele>1972.75</ele><time>2026-03-22T13:23:20.01Z</time></trkpt><trkpt lat="21.89682969991237" lon="-102.41980021678465"><ele>1973.5</ele><time>2026-03-22T13:23:21.01Z</time></trkpt><trkpt lat="21.89685609954922" lon="-102.4199155387447"><ele>1974.25</ele><time>2026-03-22T13:23:22.01Z</time></trkpt><trkpt lat="21.896891313953795" lon="-102.42004133475363"><ele>1975.0</ele><time>2026-03-22T13:23:23.01Z</time></trkpt><trkpt lat="21.89692478666352" lon="-102.42016746246851"><ele>1975.0</ele><time>2026-03-22T13:23:24.01Z</time></trkpt><trkpt lat="21.896962116417924" lon="-102.42029264816087"><ele>1975.0</ele><time>2026-03-22T13:23:25.01Z</time></trkpt><trkpt lat="21.896994594608504" lon="-102.42040961998025"><ele>1975.0</ele><time>2026-03-22T13:23:26.01Z</time></trkpt><trkpt lat="21.897023625318873" lon="-102.42053073182372"><ele>1975.0</ele><time>2026-03-22T13:23:27.01Z</time></trkpt><trkpt lat="21.897053316175015" lon="-102.4206442538"><ele>1974.75</ele><time>2026-03-22T13:23:28.01Z</time></trkpt><trkpt lat="21.89708725638808" lon="-102.42076016811698"><ele>1974.5</ele><time>2026-03-22T13:23:29.01Z</time></trkpt><trkpt lat="21.897121104783167" lon="-102.420883114801"><ele>1974.25</ele><time>2026-03-22T13:23:30.01Z</time></trkpt><trkpt lat="21.89715427789935" lon="-102.42101158863541"><ele>1974.0</ele><time>2026-03-22T13:23:31.01Z</time></trkpt><trkpt lat="21.89718807726633" lon="-102.42112566079024"><ele>1974.0</ele><time>2026-03-22T13:23:32.01Z</time></trkpt><trkpt lat="21.897221422347393" lon="-102.42124523621703"><ele>1974.0</ele><time>2026-03-22T13:23:33.01Z</time></trkpt><trkpt lat="21.897254453220214" lon="-102.42135743850314"><ele>1974.0</ele><time>2026-03-22T13:23:34.01Z</time></trkpt><trkpt lat="21.89728828575768" lon="-102.42147517611296"><ele>1974.0</ele><time>2026-03-22T13:23:35.01Z</time></trkpt><trkpt lat="21.897319766497812" lon="-102.42158564028242"><ele>1974.0</ele><time>2026-03-22T13:23:36.01Z</time></trkpt><trkpt lat="21.897350008953246" lon="-102.42170339192381"><ele>1973.8000000000002</ele><time>2026-03-22T13:23:37.009Z</time></trkpt><trkpt lat="21.89737733937182" lon="-102.42181670989233"><ele>1973.6000000000001</ele><time>2026-03-22T13:23:38.009Z</time></trkpt><trkpt lat="21.897408895070186" lon="-102.42193372952788"><ele>1973.4</ele><time>2026-03-22T13:23:39.009Z</time></trkpt><trkpt lat="21.897441402216202" lon="-102.42204932421329"><ele>1973.2</ele><time>2026-03-22T13:23:40.009Z</time></trkpt><trkpt lat="21.897470362562565" lon="-102.42215253732282"><ele>1973.0</ele><time>2026-03-22T13:23:41.009Z</time></trkpt><trkpt lat="21.89749724208694" lon="-102.4222537260127"><ele>1973.4</ele><time>2026-03-22T13:23:42.009Z</time></trkpt><trkpt lat="21.897521555306174" lon="-102.42236292818446"><ele>1973.8000000000002</ele><time>2026-03-22T13:23:43.009Z</time></trkpt><trkpt lat="21.897537666515426" lon="-102.42246123598876"><ele>1974.2</ele><time>2026-03-22T13:23:44.009Z</time></trkpt><trkpt lat="21.89755243004471" lon="-102.42257618440615"><ele>1974.6</ele><time>2026-03-22T13:23:45.009Z</time></trkpt><trkpt lat="21.897563626202476" lon="-102.42269088920364"><ele>1975.0</ele><time>2026-03-22T13:23:46.009Z</time></trkpt><trkpt lat="21.89757234153547" lon="-102.4228095237125"><ele>1975.0</ele><time>2026-03-22T13:23:47.009Z</time></trkpt><trkpt lat="21.8975850637863" lon="-102.4229120859009"><ele>1975.0</ele><time>2026-03-22T13:23:48.009Z</time></trkpt><trkpt lat="21.89759140557951" lon="-102.423007730968"><ele>1975.0</ele><time>2026-03-22T13:23:49.009Z</time></trkpt><trkpt lat="21.897596260721148" lon="-102.42311257141655"><ele>1975.0</ele><time>2026-03-22T13:23:50.009Z</time></trkpt><trkpt lat="21.897598937253143" lon="-102.42322029953728"><ele>1975.0</ele><time>2026-03-22T13:23:51.009Z</time></trkpt><trkpt lat="21.897603300394614" lon="-102.4233096825228"><ele>1976.4</ele><time>2026-03-22T13:23:52.009Z</time></trkpt><trkpt lat="21.89759085235549" lon="-102.4234479850583"><ele>1977.8</ele><time>2026-03-22T13:23:54.009Z</time></trkpt><trkpt lat="21.89758753198333" lon="-102.42352170031602"><ele>1979.1999999999998</ele><time>2026-03-22T13:23:55.009Z</time></trkpt><trkpt lat="21.897595592442457" lon="-102.42360076674396"><ele>1980.6</ele><time>2026-03-22T13:23:56.009Z</time></trkpt><trkpt lat="21.897589882027823" lon="-102.42373801326517"><ele>1982.0</ele><time>2026-03-22T13:23:58.009Z</time></trkpt><trkpt lat="21.89756328843486" lon="-102.42386356607105"><ele>1982.0</ele><time>2026-03-22T13:24:00.009Z</time></trkpt><trkpt lat="21.89753480801399" lon="-102.42399998504825"><ele>1981.9999999999998</ele><time>2026-03-22T13:24:02.009Z</time></trkpt><trkpt lat="21.897517546638774" lon="-102.42408279956824"><ele>1981.9999999999998</ele><time>2026-03-22T13:24:03.009Z</time></trkpt><trkpt lat="21.89750026221847" lon="-102.42416409702716"><ele>1982.0</ele><time>2026-03-22T13:24:04.009Z</time></trkpt><trkpt lat="21.897478056716945" lon="-102.4242449863627"><ele>1982.0</ele><time>2026-03-22T13:24:05.009Z</time></trkpt><trkpt lat="21.89745911996171" lon="-102.42433545685236"><ele>1981.9999999999998</ele><time>2026-03-22T13:24:06.009Z</time></trkpt><trkpt lat="21.897438487983543" lon="-102.424423873895"><ele>1982.0</ele><time>2026-03-22T13:24:07.009Z</time></trkpt><trkpt lat="21.8974146758681" lon="-102.42450949263247"><ele>1982.0</ele><time>2026-03-22T13:24:08.009Z</time></trkpt><trkpt lat="21.897389829956488" lon="-102.42459170025855"><ele>1982.0</ele><time>2026-03-22T13:24:09.009Z</time></trkpt><trkpt lat="21.89737635060312" lon="-102.4246644002381"><ele>1981.9999999999998</ele><time>2026-03-22T13:24:10.009Z</time></trkpt><trkpt lat="21.897359708267594" lon="-102.42474245500262"><ele>1982.0</ele><time>2026-03-22T13:24:11.009Z</time></trkpt><trkpt lat="21.897337758528856" lon="-102.4248181881096"><ele>1982.714285714286</ele><time>2026-03-22T13:24:12.009Z</time></trkpt><trkpt lat="21.897318336434555" lon="-102.42489798128658"><ele>1983.4285714285716</ele><time>2026-03-22T13:24:13.009Z</time></trkpt><trkpt lat="21.897298875600658" lon="-102.42497414802597"><ele>1984.142857142857</ele><time>2026-03-22T13:24:14.009Z</time></trkpt><trkpt lat="21.89728359170718" lon="-102.42504772732383"><ele>1984.857142857143</ele><time>2026-03-22T13:24:15.009Z</time></trkpt><trkpt lat="21.897262100905948" lon="-102.42512323726861"><ele>1985.5714285714284</ele><time>2026-03-22T13:24:16.009Z</time></trkpt><trkpt lat="21.89723922382207" lon="-102.42519640006626"><ele>1986.285714285714</ele><time>2026-03-22T13:24:17.009Z</time></trkpt><trkpt lat="21.8972251553301" lon="-102.42527307941467"><ele>1986.9999999999998</ele><time>2026-03-22T13:24:18.009Z</time></trkpt><trkpt lat="21.897208495643927" lon="-102.42533959228665"><ele>1986.9999999999998</ele><time>2026-03-22T13:24:19.009Z</time></trkpt><trkpt lat="21.89718818506806" lon="-102.42541049144131"><ele>1987.0</ele><time>2026-03-22T13:24:20.009Z</time></trkpt><trkpt lat="21.89716972542236" lon="-102.42548420984183"><ele>1986.9999999999998</ele><time>2026-03-22T13:24:21.009Z</time></trkpt><trkpt lat="21.89715105250437" lon="-102.42555981598787"><ele>1986.9999999999998</ele><time>2026-03-22T13:24:22.009Z</time></trkpt><trkpt lat="21.897130520914065" lon="-102.42563181668463"><ele>1987.0</ele><time>2026-03-22T13:24:23.01Z</time></trkpt><trkpt lat="21.897108992561712" lon="-102.42570742463282"><ele>1986.9999999999998</ele><time>2026-03-22T13:24:24.011Z</time></trkpt><trkpt lat="21.897085549262602" lon="-102.42578714466609"><ele>1986.9999999999998</ele><time>2026-03-22T13:24:25.011Z</time></trkpt><trkpt lat="21.89706292962447" lon="-102.42587476470034"><ele>1987.5000000000002</ele><time>2026-03-22T13:24:26.01Z</time></trkpt><trkpt lat="21.897039381480905" lon="-102.42595617393224"><ele>1988.0</ele><time>2026-03-22T13:24:27.01Z</time></trkpt><trkpt lat="21.89702420228521" lon="-102.4260423779787"><ele>1988.5</ele><time>2026-03-22T13:24:28.01Z</time></trkpt><trkpt lat="21.897004973195344" lon="-102.42612616405428"><ele>1989.0</ele><time>2026-03-22T13:24:29.01Z</time></trkpt><trkpt lat="21.89699141744087" lon="-102.42620029633026"><ele>1989.5000000000002</ele><time>2026-03-22T13:24:30.01Z</time></trkpt><trkpt lat="21.896969470331925" lon="-102.42628812974974"><ele>1990.0</ele><time>2026-03-22T13:24:31.01Z</time></trkpt><trkpt lat="21.896948662006064" lon="-102.42635867085983"><ele>1990.5714285714287</ele><time>2026-03-22T13:24:32.01Z</time></trkpt><trkpt lat="21.89693250649187" lon="-102.42642648345434"><ele>1991.1428571428569</ele><time>2026-03-22T13:24:33.01Z</time></trkpt><trkpt lat="21.896905727929823" lon="-102.42650907357344"><ele>1991.7142857142856</ele><time>2026-03-22T13:24:34.01Z</time></trkpt><trkpt lat="21.89689090797591" lon="-102.42658488602363"><ele>1992.2857142857142</ele><time>2026-03-22T13:24:35.01Z</time></trkpt><trkpt lat="21.896869752361585" lon="-102.4266588119681"><ele>1992.8571428571427</ele><time>2026-03-22T13:24:36.01Z</time></trkpt><trkpt lat="21.89685139870391" lon="-102.42673226505988"><ele>1993.428571428571</ele><time>2026-03-22T13:24:37.01Z</time></trkpt><trkpt lat="21.896833294849" lon="-102.42680051605406"><ele>1993.9999999999998</ele><time>2026-03-22T13:24:38.009Z</time></trkpt><trkpt lat="21.89681900506606" lon="-102.42687275271236"><ele>1993.9999999999998</ele><time>2026-03-22T13:24:39.009Z</time></trkpt><trkpt lat="21.89678556958264" lon="-102.42700734582104"><ele>1994.0</ele><time>2026-03-22T13:24:41.009Z</time></trkpt><trkpt lat="21.896761078678804" lon="-102.42707245752591"><ele>1994.0</ele><time>2026-03-22T13:24:42.009Z</time></trkpt><trkpt lat="21.89674649009544" lon="-102.42714009812784"><ele>1994.0</ele><time>2026-03-22T13:24:43.009Z</time></trkpt><trkpt lat="21.896728883553397" lon="-102.42720914018703"><ele>1993.9999999999998</ele><time>2026-03-22T13:24:44.009Z</time></trkpt><trkpt lat="21.896710903675533" lon="-102.42728321825929"><ele>1994.0</ele><time>2026-03-22T13:24:45.009Z</time></trkpt><trkpt lat="21.896693530844118" lon="-102.42734913746766"><ele>1992.6666666666665</ele><time>2026-03-22T13:24:46.009Z</time></trkpt><trkpt lat="21.896676904216324" lon="-102.42741949387938"><ele>1991.3333333333333</ele><time>2026-03-22T13:24:47.009Z</time></trkpt><trkpt lat="21.896660760317044" lon="-102.427489785117"><ele>1990.0</ele><time>2026-03-22T13:24:48.009Z</time></trkpt><trkpt lat="21.89664560871054" lon="-102.42755571211607"><ele>1988.6666666666665</ele><time>2026-03-22T13:24:49.009Z</time></trkpt><trkpt lat="21.89660613687563" lon="-102.42768310706587"><ele>1987.3333333333333</ele><time>2026-03-22T13:24:51.009Z</time></trkpt><trkpt lat="21.896587221284893" lon="-102.42775885343387"><ele>1986.0</ele><time>2026-03-22T13:24:52.009Z</time></trkpt><trkpt lat="21.896560085318345" lon="-102.42788356489349"><ele>1987.25</ele><time>2026-03-22T13:24:54.009Z</time></trkpt><trkpt lat="21.89652391430095" lon="-102.42801153703955"><ele>1988.5</ele><time>2026-03-22T13:24:56.009Z</time></trkpt><trkpt lat="21.896497915279404" lon="-102.42813819357232"><ele>1989.75</ele><time>2026-03-22T13:24:58.009Z</time></trkpt><trkpt lat="21.896467070207336" lon="-102.42826358397699"><ele>1991.0</ele><time>2026-03-22T13:25:00.009Z</time></trkpt><trkpt lat="21.896438882663166" lon="-102.42837856081955"><ele>1990.9999999999998</ele><time>2026-03-22T13:25:02.009Z</time></trkpt><trkpt lat="21.896421395634373" lon="-102.42844549288311"><ele>1991.0</ele><time>2026-03-22T13:25:03.009Z</time></trkpt><trkpt lat="21.896403390802465" lon="-102.42851079137557"><ele>1991.0</ele><time>2026-03-22T13:25:04.009Z</time></trkpt><trkpt lat="21.896377266034126" lon="-102.42862748937792"><ele>1991.0</ele><time>2026-03-22T13:25:06.009Z</time></trkpt><trkpt lat="21.896346230883946" lon="-102.42873463072044"><ele>1990.9999999999998</ele><time>2026-03-22T13:25:08.009Z</time></trkpt><trkpt lat="21.896321746195746" lon="-102.42884241046688"><ele>1991.0</ele><time>2026-03-22T13:25:10.009Z</time></trkpt><trkpt lat="21.896302798626124" lon="-102.42896111034855"><ele>1992.1999999999998</ele><time>2026-03-22T13:25:12.009Z</time></trkpt><trkpt lat="21.896272371824328" lon="-102.42907694574268"><ele>1993.3999999999999</ele><time>2026-03-22T13:25:14.009Z</time></trkpt><trkpt lat="21.896238469966022" lon="-102.42920964656872"><ele>1994.6</ele><time>2026-03-22T13:25:16.009Z</time></trkpt><trkpt lat="21.89622109645785" lon="-102.42927631730213"><ele>1995.8</ele><time>2026-03-22T13:25:17.009Z</time></trkpt><trkpt lat="21.89619094377306" lon="-102.42939491024345"><ele>1997.0</ele><time>2026-03-22T13:25:19.009Z</time></trkpt><trkpt lat="21.896157879068465" lon="-102.42951951844846"><ele>1996.9999999999998</ele><time>2026-03-22T13:25:21.009Z</time></trkpt><trkpt lat="21.896130063989162" lon="-102.42964060566004"><ele>1997.0</ele><time>2026-03-22T13:25:23.009Z</time></trkpt><trkpt lat="21.896112936006315" lon="-102.42971105992025"><ele>1997.0</ele><time>2026-03-22T13:25:25.009Z</time></trkpt><trkpt lat="21.89609493624901" lon="-102.42980685326225"><ele>1997.0</ele><time>2026-03-22T13:25:28.009Z</time></trkpt><trkpt lat="21.89606685638661" lon="-102.42987521561275"><ele>1996.9999999999998</ele><time>2026-03-22T13:25:30.009Z</time></trkpt><trkpt lat="21.89604974229225" lon="-102.4299496636097"><ele>1997.0</ele><time>2026-03-22T13:25:32.009Z</time></trkpt><trkpt lat="21.896022985596712" lon="-102.43004669608197"><ele>1997.6666666666665</ele><time>2026-03-22T13:25:33.009Z</time></trkpt><trkpt lat="21.89599874691634" lon="-102.43014599655586"><ele>1998.3333333333333</ele><time>2026-03-22T13:25:34.009Z</time></trkpt><trkpt lat="21.895976622301053" lon="-102.43022677938923"><ele>1999.0</ele><time>2026-03-22T13:25:35.009Z</time></trkpt><trkpt lat="21.895948730534425" lon="-102.43035329462398"><ele>1999.6666666666665</ele><time>2026-03-22T13:25:37.009Z</time></trkpt><trkpt lat="21.895930984382677" lon="-102.43042063680564"><ele>2000.3333333333333</ele><time>2026-03-22T13:25:38.009Z</time></trkpt><trkpt lat="21.89591597157686" lon="-102.43049549539553"><ele>2001.0</ele><time>2026-03-22T13:25:39.009Z</time></trkpt><trkpt lat="21.89588753617627" lon="-102.43061221355126"><ele>2001.1999999999998</ele><time>2026-03-22T13:25:41.009Z</time></trkpt><trkpt lat="21.895850434208043" lon="-102.43073106267568"><ele>2001.3999999999999</ele><time>2026-03-22T13:25:43.009Z</time></trkpt><trkpt lat="21.89582254175441" lon="-102.43085520543885"><ele>2001.6</ele><time>2026-03-22T13:25:45.009Z</time></trkpt><trkpt lat="21.895801405975735" lon="-102.43092178740406"><ele>2001.8</ele><time>2026-03-22T13:25:46.009Z</time></trkpt><trkpt lat="21.89576573633301" lon="-102.43105141171421"><ele>2002.0</ele><time>2026-03-22T13:25:48.009Z</time></trkpt><trkpt lat="21.895747896716568" lon="-102.43111737462004"><ele>2002.0</ele><time>2026-03-22T13:25:49.009Z</time></trkpt><trkpt lat="21.895723274374124" lon="-102.43124449501401"><ele>2001.9999999999998</ele><time>2026-03-22T13:25:51.009Z</time></trkpt><trkpt lat="21.895687808184874" lon="-102.43136298390583"><ele>2001.9999999999998</ele><time>2026-03-22T13:25:53.009Z</time></trkpt><trkpt lat="21.89567171720242" lon="-102.43143383686154"><ele>2002.0</ele><time>2026-03-22T13:25:54.009Z</time></trkpt><trkpt lat="21.895638833107437" lon="-102.43156935280268"><ele>2002.0</ele><time>2026-03-22T13:25:56.009Z</time></trkpt><trkpt lat="21.895607106490775" lon="-102.43170419210242"><ele>2002.3333333333335</ele><time>2026-03-22T13:25:58.009Z</time></trkpt><trkpt lat="21.895579819291495" lon="-102.43183518615182"><ele>2002.6666666666667</ele><time>2026-03-22T13:26:00.008Z</time></trkpt><trkpt lat="21.89556118928654" lon="-102.43190586227995"><ele>2003.0</ele><time>2026-03-22T13:26:01.008Z</time></trkpt><trkpt lat="21.89554375674903" lon="-102.4319721397296"><ele>2003.3333333333335</ele><time>2026-03-22T13:26:02.008Z</time></trkpt><trkpt lat="21.89552199117613" lon="-102.43204383191022"><ele>2003.6666666666667</ele><time>2026-03-22T13:26:03.008Z</time></trkpt><trkpt lat="21.895505627028598" lon="-102.43211836786342"><ele>2004.0</ele><time>2026-03-22T13:26:04.008Z</time></trkpt><trkpt lat="21.89548672121698" lon="-102.43219272877846"><ele>2004.0</ele><time>2026-03-22T13:26:05.008Z</time></trkpt><trkpt lat="21.895467783842495" lon="-102.43227067753942"><ele>2004.0</ele><time>2026-03-22T13:26:06.008Z</time></trkpt><trkpt lat="21.895449253443555" lon="-102.43234684962621"><ele>2004.0</ele><time>2026-03-22T13:26:07.008Z</time></trkpt><trkpt lat="21.895429834341886" lon="-102.43242237384581"><ele>2004.0</ele><time>2026-03-22T13:26:08.008Z</time></trkpt><trkpt lat="21.895407892561103" lon="-102.43249252998166"><ele>2004.0</ele><time>2026-03-22T13:26:09.008Z</time></trkpt><trkpt lat="21.895382012721903" lon="-102.43257135512194"><ele>2004.0</ele><time>2026-03-22T13:26:10.008Z</time></trkpt><trkpt lat="21.895343480646655" lon="-102.43272463282777"><ele>2004.0</ele><time>2026-03-22T13:26:12.008Z</time></trkpt><trkpt lat="21.895321954448747" lon="-102.43280860895868"><ele>2004.0</ele><time>2026-03-22T13:26:13.008Z</time></trkpt><trkpt lat="21.895300234394682" lon="-102.4328886083485"><ele>2004.0</ele><time>2026-03-22T13:26:14.008Z</time></trkpt><trkpt lat="21.8952813082985" lon="-102.43297083823978"><ele>2004.0</ele><time>2026-03-22T13:26:15.008Z</time></trkpt><trkpt lat="21.89525715032115" lon="-102.43305993367052"><ele>2004.0</ele><time>2026-03-22T13:26:16.008Z</time></trkpt><trkpt lat="21.895236134410048" lon="-102.43314288224151"><ele>2004.0</ele><time>2026-03-22T13:26:17.008Z</time></trkpt><trkpt lat="21.895209460315638" lon="-102.43322869918231"><ele>2004.1666666666667</ele><time>2026-03-22T13:26:18.008Z</time></trkpt><trkpt lat="21.89518777907688" lon="-102.43330540621731"><ele>2004.3333333333335</ele><time>2026-03-22T13:26:19.008Z</time></trkpt><trkpt lat="21.89516915439178" lon="-102.4333925421668"><ele>2004.5</ele><time>2026-03-22T13:26:20.008Z</time></trkpt><trkpt lat="21.89514639820268" lon="-102.43346884618634"><ele>2004.6666666666667</ele><time>2026-03-22T13:26:21.008Z</time></trkpt><trkpt lat="21.895120124585436" lon="-102.4335485482391"><ele>2004.8333333333335</ele><time>2026-03-22T13:26:22.008Z</time></trkpt><trkpt lat="21.895101787020682" lon="-102.43362936000385"><ele>2005.0</ele><time>2026-03-22T13:26:23.008Z</time></trkpt><trkpt lat="21.895080189472" lon="-102.43371786977943"><ele>2005.3333333333335</ele><time>2026-03-22T13:26:24.008Z</time></trkpt><trkpt lat="21.895058959851763" lon="-102.43380056967437"><ele>2005.6666666666667</ele><time>2026-03-22T13:26:25.008Z</time></trkpt><trkpt lat="21.89504016438054" lon="-102.43387947963652"><ele>2006.0</ele><time>2026-03-22T13:26:26.008Z</time></trkpt><trkpt lat="21.89501681764412" lon="-102.43396334814524"><ele>2006.3333333333335</ele><time>2026-03-22T13:26:27.008Z</time></trkpt><trkpt lat="21.89499442326034" lon="-102.43405331717221"><ele>2006.6666666666667</ele><time>2026-03-22T13:26:28.008Z</time></trkpt><trkpt lat="21.894974282154067" lon="-102.43413612891806"><ele>2007.0</ele><time>2026-03-22T13:26:29.01Z</time></trkpt><trkpt lat="21.894952200958933" lon="-102.43422134799646"><ele>2007.0</ele><time>2026-03-22T13:26:30.01Z</time></trkpt><trkpt lat="21.89492779996705" lon="-102.43430422890314"><ele>2007.0</ele><time>2026-03-22T13:26:31.01Z</time></trkpt><trkpt lat="21.89490491563201" lon="-102.43438924857988"><ele>2007.0</ele><time>2026-03-22T13:26:32.011Z</time></trkpt><trkpt lat="21.894882696265707" lon="-102.43447490772853"><ele>2007.0</ele><time>2026-03-22T13:26:33.01Z</time></trkpt><trkpt lat="21.894861370284303" lon="-102.43456588029332"><ele>2007.0</ele><time>2026-03-22T13:26:34.01Z</time></trkpt><trkpt lat="21.894836825074588" lon="-102.43465979186318"><ele>2007.0</ele><time>2026-03-22T13:26:35.01Z</time></trkpt><trkpt lat="21.894814766174843" lon="-102.43474215516363"><ele>2007.1666666666667</ele><time>2026-03-22T13:26:36.01Z</time></trkpt><trkpt lat="21.894796582392495" lon="-102.43482819473242"><ele>2007.3333333333335</ele><time>2026-03-22T13:26:37.01Z</time></trkpt><trkpt lat="21.894776240075352" lon="-102.43491628376445"><ele>2007.5</ele><time>2026-03-22T13:26:38.01Z</time></trkpt><trkpt lat="21.894756498374456" lon="-102.43501261489635"><ele>2007.6666666666667</ele><time>2026-03-22T13:26:39.011Z</time></trkpt><trkpt lat="21.894734311636984" lon="-102.43509834631051"><ele>2007.8333333333335</ele><time>2026-03-22T13:26:40.011Z</time></trkpt><trkpt lat="21.8947068221118" lon="-102.43519178362024"><ele>2008.0</ele><time>2026-03-22T13:26:41.01Z</time></trkpt><trkpt lat="21.894683990328403" lon="-102.43527341229554"><ele>2008.0</ele><time>2026-03-22T13:26:42.01Z</time></trkpt><trkpt lat="21.894661313354344" lon="-102.43536452697401"><ele>2008.0000000000002</ele><time>2026-03-22T13:26:43.01Z</time></trkpt><trkpt lat="21.894639109411575" lon="-102.4354615225603"><ele>2008.0000000000002</ele><time>2026-03-22T13:26:44.01Z</time></trkpt><trkpt lat="21.894610936341" lon="-102.43555284843357"><ele>2008.0</ele><time>2026-03-22T13:26:45.01Z</time></trkpt><trkpt lat="21.894593165692577" lon="-102.4356521826839"><ele>2008.0</ele><time>2026-03-22T13:26:46.01Z</time></trkpt><trkpt lat="21.894566555561035" lon="-102.43574397741718"><ele>2007.8000000000002</ele><time>2026-03-22T13:26:47.01Z</time></trkpt><trkpt lat="21.894534805373702" lon="-102.43583905656207"><ele>2007.6000000000001</ele><time>2026-03-22T13:26:48.01Z</time></trkpt><trkpt lat="21.894508040448002" lon="-102.43593861814583"><ele>2007.3999999999999</ele><time>2026-03-22T13:26:49.01Z</time></trkpt><trkpt lat="21.89448244220105" lon="-102.43603452619793"><ele>2007.1999999999998</ele><time>2026-03-22T13:26:50.01Z</time></trkpt><trkpt lat="21.89446196728937" lon="-102.43612914590871"><ele>2007.0</ele><time>2026-03-22T13:26:51.01Z</time></trkpt><trkpt lat="21.894436496291167" lon="-102.43622040513907"><ele>2006.8</ele><time>2026-03-22T13:26:52.01Z</time></trkpt><trkpt lat="21.894413459386502" lon="-102.43631833368002"><ele>2006.6</ele><time>2026-03-22T13:26:53.01Z</time></trkpt><trkpt lat="21.89438949093414" lon="-102.43641187906938"><ele>2006.3999999999999</ele><time>2026-03-22T13:26:54.01Z</time></trkpt><trkpt lat="21.894362867573452" lon="-102.43651328084701"><ele>2006.1999999999998</ele><time>2026-03-22T13:26:55.01Z</time></trkpt><trkpt lat="21.89434196763346" lon="-102.4366112494502"><ele>2006.0</ele><time>2026-03-22T13:26:56.01Z</time></trkpt><trkpt lat="21.89431610457561" lon="-102.43671118786084"><ele>2006.0</ele><time>2026-03-22T13:26:57.01Z</time></trkpt><trkpt lat="21.894287060750006" lon="-102.43681320330055"><ele>2006.0</ele><time>2026-03-22T13:26:58.01Z</time></trkpt><trkpt lat="21.894263711020333" lon="-102.43691340006355"><ele>2006.0</ele><time>2026-03-22T13:26:59.01Z</time></trkpt><trkpt lat="21.894239753268852" lon="-102.43702446788636"><ele>2006.0</ele><time>2026-03-22T13:27:00.01Z</time></trkpt><trkpt lat="21.8942135818789" lon="-102.4371188140326"><ele>2006.0</ele><time>2026-03-22T13:27:01.01Z</time></trkpt><trkpt lat="21.894185369848152" lon="-102.43722274537457"><ele>2006.6</ele><time>2026-03-22T13:27:02.01Z</time></trkpt><trkpt lat="21.894156762477678" lon="-102.43732616281193"><ele>2007.1999999999998</ele><time>2026-03-22T13:27:03.01Z</time></trkpt><trkpt lat="21.89412890210337" lon="-102.4374298301138"><ele>2007.8000000000002</ele><time>2026-03-22T13:27:04.01Z</time></trkpt><trkpt lat="21.894107327404036" lon="-102.43752603109783"><ele>2008.4</ele><time>2026-03-22T13:27:05.01Z</time></trkpt><trkpt lat="21.89408580467981" lon="-102.4376251196313"><ele>2009.0</ele><time>2026-03-22T13:27:06.01Z</time></trkpt><trkpt lat="21.89405396827964" lon="-102.4377300791559"><ele>2009.0</ele><time>2026-03-22T13:27:07.01Z</time></trkpt><trkpt lat="21.8940274918497" lon="-102.4378254788277"><ele>2009.0</ele><time>2026-03-22T13:27:08.01Z</time></trkpt><trkpt lat="21.89400246661625" lon="-102.43792169653045"><ele>2009.0</ele><time>2026-03-22T13:27:09.01Z</time></trkpt><trkpt lat="21.89397610464809" lon="-102.43803035641801"><ele>2009.0</ele><time>2026-03-22T13:27:10.01Z</time></trkpt><trkpt lat="21.893956889307585" lon="-102.43813005175672"><ele>2009.0</ele><time>2026-03-22T13:27:11.01Z</time></trkpt><trkpt lat="21.893929224577523" lon="-102.43822796104142"><ele>2008.6</ele><time>2026-03-22T13:27:12.01Z</time></trkpt><trkpt lat="21.893907319986738" lon="-102.43832264131666"><ele>2008.2</ele><time>2026-03-22T13:27:13.01Z</time></trkpt><trkpt lat="21.893874916235504" lon="-102.43843125720979"><ele>2007.7999999999997</ele><time>2026-03-22T13:27:14.01Z</time></trkpt><trkpt lat="21.893845809604866" lon="-102.43853607498141"><ele>2007.3999999999999</ele><time>2026-03-22T13:27:15.009Z</time></trkpt><trkpt lat="21.89382100271823" lon="-102.43863486454848"><ele>2007.0</ele><time>2026-03-22T13:27:16.009Z</time></trkpt><trkpt lat="21.893796485607393" lon="-102.43873219243103"><ele>2006.8</ele><time>2026-03-22T13:27:17.009Z</time></trkpt><trkpt lat="21.893774876455083" lon="-102.43883853519723"><ele>2006.6</ele><time>2026-03-22T13:27:18.009Z</time></trkpt><trkpt lat="21.89374637177252" lon="-102.43894603253574"><ele>2006.3999999999999</ele><time>2026-03-22T13:27:19.009Z</time></trkpt><trkpt lat="21.893715146446432" lon="-102.43905494124155"><ele>2006.1999999999998</ele><time>2026-03-22T13:27:20.009Z</time></trkpt><trkpt lat="21.893691104361572" lon="-102.43916474898266"><ele>2006.0</ele><time>2026-03-22T13:27:21.009Z</time></trkpt><trkpt lat="21.89366525573474" lon="-102.43927068048026"><ele>2006.0</ele><time>2026-03-22T13:27:22.009Z</time></trkpt><trkpt lat="21.893637854941193" lon="-102.43937794871961"><ele>2006.0</ele><time>2026-03-22T13:27:23.009Z</time></trkpt><trkpt lat="21.893610698453507" lon="-102.43948639197778"><ele>2006.0</ele><time>2026-03-22T13:27:24.009Z</time></trkpt><trkpt lat="21.89358082802656" lon="-102.43958998118548"><ele>2006.0</ele><time>2026-03-22T13:27:25.009Z</time></trkpt><trkpt lat="21.893550701482418" lon="-102.43970423046878"><ele>2006.0</ele><time>2026-03-22T13:27:26.009Z</time></trkpt><trkpt lat="21.89352734118828" lon="-102.43980849024618"><ele>2006.25</ele><time>2026-03-22T13:27:27.009Z</time></trkpt><trkpt lat="21.893501278231856" lon="-102.43992287483593"><ele>2006.5</ele><time>2026-03-22T13:27:28.009Z</time></trkpt><trkpt lat="21.89347299038976" lon="-102.4400452789628"><ele>2006.75</ele><time>2026-03-22T13:27:29.009Z</time></trkpt><trkpt lat="21.893437758476196" lon="-102.44017072996753"><ele>2007.0</ele><time>2026-03-22T13:27:30.009Z</time></trkpt><trkpt lat="21.89340739104652" lon="-102.44029171515463"><ele>2007.0</ele><time>2026-03-22T13:27:31.009Z</time></trkpt><trkpt lat="21.89338004894862" lon="-102.44041746777218"><ele>2006.9999999999998</ele><time>2026-03-22T13:27:32.009Z</time></trkpt><trkpt lat="21.893351537402292" lon="-102.44052932068898"><ele>2006.9999999999998</ele><time>2026-03-22T13:27:33.009Z</time></trkpt><trkpt lat="21.89331945939262" lon="-102.44064704398254"><ele>2007.0</ele><time>2026-03-22T13:27:34.009Z</time></trkpt><trkpt lat="21.89328854260945" lon="-102.4407560708479"><ele>2007.0</ele><time>2026-03-22T13:27:35.009Z</time></trkpt><trkpt lat="21.893264035479675" lon="-102.44087378746718"><ele>2006.0</ele><time>2026-03-22T13:27:36.009Z</time></trkpt><trkpt lat="21.893231953877255" lon="-102.44099731130056"><ele>2005.0</ele><time>2026-03-22T13:27:37.009Z</time></trkpt><trkpt lat="21.893197186374547" lon="-102.44111164713637"><ele>2004.0</ele><time>2026-03-22T13:27:38.009Z</time></trkpt><trkpt lat="21.89316907328355" lon="-102.44122531587709"><ele>2003.0</ele><time>2026-03-22T13:27:39.009Z</time></trkpt><trkpt lat="21.89313782806117" lon="-102.4413417830871"><ele>2002.25</ele><time>2026-03-22T13:27:40.009Z</time></trkpt><trkpt lat="21.89311009267426" lon="-102.44145582213011"><ele>2001.5</ele><time>2026-03-22T13:27:41.009Z</time></trkpt><trkpt lat="21.893075144220294" lon="-102.44157307229268"><ele>2000.75</ele><time>2026-03-22T13:27:42.009Z</time></trkpt><trkpt lat="21.893041093472764" lon="-102.44169559543526"><ele>2000.0</ele><time>2026-03-22T13:27:43.009Z</time></trkpt><trkpt lat="21.893010852151566" lon="-102.44181408852455"><ele>2000.0</ele><time>2026-03-22T13:27:44.009Z</time></trkpt><trkpt lat="21.892976635098865" lon="-102.44194098927515"><ele>2000.0</ele><time>2026-03-22T13:27:45.009Z</time></trkpt><trkpt lat="21.892944719052693" lon="-102.44207648673645"><ele>2000.0</ele><time>2026-03-22T13:27:46.009Z</time></trkpt><trkpt lat="21.892910703325956" lon="-102.44220524316165"><ele>2000.0</ele><time>2026-03-22T13:27:47.009Z</time></trkpt><trkpt lat="21.892875533907958" lon="-102.44234935913128"><ele>1998.75</ele><time>2026-03-22T13:27:48.009Z</time></trkpt><trkpt lat="21.89283597832165" lon="-102.44249089470655"><ele>1997.5</ele><time>2026-03-22T13:27:49.009Z</time></trkpt><trkpt lat="21.89279715718881" lon="-102.4426325430884"><ele>1996.25</ele><time>2026-03-22T13:27:50.009Z</time></trkpt><trkpt lat="21.892756152847088" lon="-102.44277744835418"><ele>1995.0</ele><time>2026-03-22T13:27:51.009Z</time></trkpt><trkpt lat="21.892713807395488" lon="-102.44292600198075"><ele>1994.25</ele><time>2026-03-22T13:27:52.009Z</time></trkpt><trkpt lat="21.89267942414031" lon="-102.44307567555421"><ele>1993.5</ele><time>2026-03-22T13:27:53.009Z</time></trkpt><trkpt lat="21.892642624778674" lon="-102.44323126131061"><ele>1992.75</ele><time>2026-03-22T13:27:54.009Z</time></trkpt><trkpt lat="21.892605749212656" lon="-102.44338894309827"><ele>1992.0</ele><time>2026-03-22T13:27:55.009Z</time></trkpt><trkpt lat="21.892567765181397" lon="-102.44355062967094"><ele>1991.6666666666665</ele><time>2026-03-22T13:27:56.009Z</time></trkpt><trkpt lat="21.892523895752042" lon="-102.44370716841173"><ele>1991.3333333333333</ele><time>2026-03-22T13:27:57.009Z</time></trkpt><trkpt lat="21.89248198869832" lon="-102.44387016045826"><ele>1991.0</ele><time>2026-03-22T13:27:58.009Z</time></trkpt><trkpt lat="21.8924452706132" lon="-102.44403698748656"><ele>1989.0</ele><time>2026-03-22T13:27:59.009Z</time></trkpt><trkpt lat="21.892400048863017" lon="-102.44420657904244"><ele>1987.0</ele><time>2026-03-22T13:28:00.009Z</time></trkpt><trkpt lat="21.89235902920344" lon="-102.44437738094877"><ele>1985.0</ele><time>2026-03-22T13:28:01.009Z</time></trkpt><trkpt lat="21.89231803358979" lon="-102.44455003798988"><ele>1982.6666666666665</ele><time>2026-03-22T13:28:02.009Z</time></trkpt><trkpt lat="21.89227196815376" lon="-102.44471607841066"><ele>1980.3333333333335</ele><time>2026-03-22T13:28:03.009Z</time></trkpt><trkpt lat="21.89222650105326" lon="-102.44488628671894"><ele>1978.0</ele><time>2026-03-22T13:28:04.009Z</time></trkpt><trkpt lat="21.892177160988943" lon="-102.44505767787014"><ele>1978.0</ele><time>2026-03-22T13:28:05.009Z</time></trkpt><trkpt lat="21.89213471845816" lon="-102.44522897966102"><ele>1978.0</ele><time>2026-03-22T13:28:06.009Z</time></trkpt><trkpt lat="21.892096283798033" lon="-102.44539936055835"><ele>1978.0</ele><time>2026-03-22T13:28:07.009Z</time></trkpt><trkpt lat="21.892059619484748" lon="-102.44556525164273"><ele>1976.3333333333335</ele><time>2026-03-22T13:28:08.009Z</time></trkpt><trkpt lat="21.8920201990715" lon="-102.44572588905001"><ele>1974.6666666666665</ele><time>2026-03-22T13:28:09.009Z</time></trkpt><trkpt lat="21.89197808409357" lon="-102.44589030604484"><ele>1973.0</ele><time>2026-03-22T13:28:10.009Z</time></trkpt><trkpt lat="21.891934499807146" lon="-102.44605417762818"><ele>1973.0</ele><time>2026-03-22T13:28:11.009Z</time></trkpt><trkpt lat="21.891891882539777" lon="-102.44621372146874"><ele>1973.0</ele><time>2026-03-22T13:28:12.009Z</time></trkpt><trkpt lat="21.891855056361386" lon="-102.44637154178587"><ele>1973.0</ele><time>2026-03-22T13:28:13.009Z</time></trkpt><trkpt lat="21.891808848075467" lon="-102.4465307211978"><ele>1973.3333333333333</ele><time>2026-03-22T13:28:14.009Z</time></trkpt><trkpt lat="21.8917719304383" lon="-102.44669465907643"><ele>1973.6666666666665</ele><time>2026-03-22T13:28:15.009Z</time></trkpt><trkpt lat="21.89173525295613" lon="-102.44685348495543"><ele>1974.0</ele><time>2026-03-22T13:28:16.009Z</time></trkpt><trkpt lat="21.891701706948098" lon="-102.44701426984096"><ele>1977.0</ele><time>2026-03-22T13:28:17.009Z</time></trkpt><trkpt lat="21.891659951202502" lon="-102.44716278665139"><ele>1980.0</ele><time>2026-03-22T13:28:18.009Z</time></trkpt><trkpt lat="21.89162225673447" lon="-102.44731675784529"><ele>1983.0</ele><time>2026-03-22T13:28:19.009Z</time></trkpt><trkpt lat="21.89158581937137" lon="-102.44745331034953"><ele>1986.0</ele><time>2026-03-22T13:28:20.009Z</time></trkpt><trkpt lat="21.891548159308986" lon="-102.44758230112022"><ele>1986.0</ele><time>2026-03-22T13:28:21.009Z</time></trkpt><trkpt lat="21.891504948057104" lon="-102.44772178689823"><ele>1986.0</ele><time>2026-03-22T13:28:22.009Z</time></trkpt><trkpt lat="21.891479487578692" lon="-102.4478420727062"><ele>1986.0</ele><time>2026-03-22T13:28:23.009Z</time></trkpt><trkpt lat="21.891447588353707" lon="-102.44796625406701"><ele>1986.0</ele><time>2026-03-22T13:28:24.009Z</time></trkpt><trkpt lat="21.89141375546535" lon="-102.44809183360267"><ele>1987.5</ele><time>2026-03-22T13:28:25.009Z</time></trkpt><trkpt lat="21.891382878145627" lon="-102.4482161856258"><ele>1989.0</ele><time>2026-03-22T13:28:26.009Z</time></trkpt><trkpt lat="21.89135310815623" lon="-102.44833749384811"><ele>1990.5</ele><time>2026-03-22T13:28:27.009Z</time></trkpt><trkpt lat="21.891324299597255" lon="-102.44845182294738"><ele>1992.0</ele><time>2026-03-22T13:28:28.009Z</time></trkpt><trkpt lat="21.891295531614116" lon="-102.44856504571618"><ele>1992.0</ele><time>2026-03-22T13:28:29.009Z</time></trkpt><trkpt lat="21.891269366690125" lon="-102.44866567814822"><ele>1991.9999999999998</ele><time>2026-03-22T13:28:30.009Z</time></trkpt><trkpt lat="21.891241622820843" lon="-102.4487618765624"><ele>1991.9999999999998</ele><time>2026-03-22T13:28:31.009Z</time></trkpt><trkpt lat="21.891217420544464" lon="-102.44885847272937"><ele>1992.0</ele><time>2026-03-22T13:28:32.009Z</time></trkpt><trkpt lat="21.89119333661033" lon="-102.44895474022793"><ele>1992.0</ele><time>2026-03-22T13:28:33.009Z</time></trkpt><trkpt lat="21.89116738112898" lon="-102.44904566252791"><ele>1992.3333333333333</ele><time>2026-03-22T13:28:34.009Z</time></trkpt><trkpt lat="21.891145071667708" lon="-102.44913543255191"><ele>1992.6666666666665</ele><time>2026-03-22T13:28:35.01Z</time></trkpt><trkpt lat="21.89112719712" lon="-102.449228946109"><ele>1993.0</ele><time>2026-03-22T13:28:36.01Z</time></trkpt><trkpt lat="21.891101477893482" lon="-102.4493201763973"><ele>1993.3333333333333</ele><time>2026-03-22T13:28:37.01Z</time></trkpt><trkpt lat="21.89108387670143" lon="-102.44941150389225"><ele>1993.6666666666665</ele><time>2026-03-22T13:28:38.011Z</time></trkpt><trkpt lat="21.891061416017305" lon="-102.44950307649333"><ele>1994.0</ele><time>2026-03-22T13:28:39.01Z</time></trkpt><trkpt lat="21.891038694158546" lon="-102.4495934631789"><ele>1994.3333333333333</ele><time>2026-03-22T13:28:40.01Z</time></trkpt><trkpt lat="21.89101084854593" lon="-102.44968766827083"><ele>1994.6666666666665</ele><time>2026-03-22T13:28:41.01Z</time></trkpt><trkpt lat="21.89098893564073" lon="-102.44978195887053"><ele>1995.0</ele><time>2026-03-22T13:28:42.011Z</time></trkpt><trkpt lat="21.890963939936665" lon="-102.44987663455055"><ele>1995.3333333333335</ele><time>2026-03-22T13:28:43.011Z</time></trkpt><trkpt lat="21.89094145532092" lon="-102.4499688807315"><ele>1995.6666666666667</ele><time>2026-03-22T13:28:44.01Z</time></trkpt><trkpt lat="21.89091869372376" lon="-102.45005844630778"><ele>1996.0</ele><time>2026-03-22T13:28:45.011Z</time></trkpt><trkpt lat="21.890892670333177" lon="-102.45014563330264"><ele>1996.1666666666667</ele><time>2026-03-22T13:28:46.011Z</time></trkpt><trkpt lat="21.890870192519817" lon="-102.45023186061152"><ele>1996.3333333333335</ele><time>2026-03-22T13:28:47.01Z</time></trkpt><trkpt lat="21.890846174962952" lon="-102.45032877852388"><ele>1996.5</ele><time>2026-03-22T13:28:48.011Z</time></trkpt><trkpt lat="21.89082273842019" lon="-102.45042203034892"><ele>1996.6666666666665</ele><time>2026-03-22T13:28:49.011Z</time></trkpt><trkpt lat="21.890799705921935" lon="-102.45051775224339"><ele>1996.8333333333333</ele><time>2026-03-22T13:28:50.011Z</time></trkpt><trkpt lat="21.89077739108862" lon="-102.45061059655832"><ele>1997.0</ele><time>2026-03-22T13:28:51.011Z</time></trkpt><trkpt lat="21.89075694717378" lon="-102.45070113468124"><ele>1996.4999999999998</ele><time>2026-03-22T13:28:52.011Z</time></trkpt><trkpt lat="21.890731520860193" lon="-102.45078651330762"><ele>1996.0</ele><time>2026-03-22T13:28:53.011Z</time></trkpt><trkpt lat="21.89070797218321" lon="-102.45087566946762"><ele>1995.5</ele><time>2026-03-22T13:28:54.011Z</time></trkpt><trkpt lat="21.89069019248891" lon="-102.45096128624425"><ele>1995.0</ele><time>2026-03-22T13:28:55.011Z</time></trkpt><trkpt lat="21.89066793321904" lon="-102.45104841613784"><ele>1994.4999999999998</ele><time>2026-03-22T13:28:56.011Z</time></trkpt><trkpt lat="21.890638970334024" lon="-102.4511386983798"><ele>1994.0</ele><time>2026-03-22T13:28:57.011Z</time></trkpt><trkpt lat="21.890615133178024" lon="-102.45122897553325"><ele>1994.6</ele><time>2026-03-22T13:28:58.011Z</time></trkpt><trkpt lat="21.8905925157617" lon="-102.45132498874389"><ele>1995.2</ele><time>2026-03-22T13:28:59.011Z</time></trkpt><trkpt lat="21.890567889390105" lon="-102.45141900397712"><ele>1995.7999999999997</ele><time>2026-03-22T13:29:00.011Z</time></trkpt><trkpt lat="21.89054008536077" lon="-102.45151088864502"><ele>1996.3999999999999</ele><time>2026-03-22T13:29:01.011Z</time></trkpt><trkpt lat="21.890521648902343" lon="-102.45160701523615"><ele>1997.0</ele><time>2026-03-22T13:29:02.011Z</time></trkpt><trkpt lat="21.89049737254995" lon="-102.45170736793155"><ele>1997.0</ele><time>2026-03-22T13:29:03.011Z</time></trkpt><trkpt lat="21.89047611512966" lon="-102.45181198030015"><ele>1996.9999999999998</ele><time>2026-03-22T13:29:04.011Z</time></trkpt><trkpt lat="21.89044950427621" lon="-102.45191340519486"><ele>1996.9999999999998</ele><time>2026-03-22T13:29:05.011Z</time></trkpt><trkpt lat="21.890427781923865" lon="-102.45201277562633"><ele>1997.0</ele><time>2026-03-22T13:29:06.011Z</time></trkpt><trkpt lat="21.890406016302837" lon="-102.45210816071831"><ele>1997.0</ele><time>2026-03-22T13:29:07.011Z</time></trkpt><trkpt lat="21.890385189413987" lon="-102.45219593519083"><ele>1997.1999999999998</ele><time>2026-03-22T13:29:08.011Z</time></trkpt><trkpt lat="21.890360253023207" lon="-102.45228285639863"><ele>1997.3999999999999</ele><time>2026-03-22T13:29:09.011Z</time></trkpt><trkpt lat="21.890339115222798" lon="-102.45237389150243"><ele>1997.6000000000001</ele><time>2026-03-22T13:29:10.011Z</time></trkpt><trkpt lat="21.89031161839291" lon="-102.45247156231396"><ele>1997.8000000000002</ele><time>2026-03-22T13:29:11.011Z</time></trkpt><trkpt lat="21.89028129237801" lon="-102.45257170024932"><ele>1998.0</ele><time>2026-03-22T13:29:12.011Z</time></trkpt><trkpt lat="21.890258254019727" lon="-102.45266951573298"><ele>1998.0</ele><time>2026-03-22T13:29:13.011Z</time></trkpt><trkpt lat="21.89023803370046" lon="-102.45277093723952"><ele>1998.0000000000002</ele><time>2026-03-22T13:29:14.011Z</time></trkpt><trkpt lat="21.89021554621597" lon="-102.45287214498629"><ele>1998.0000000000002</ele><time>2026-03-22T13:29:15.011Z</time></trkpt><trkpt lat="21.890184943485515" lon="-102.45296948493437"><ele>1998.0</ele><time>2026-03-22T13:29:16.011Z</time></trkpt><trkpt lat="21.890165237518683" lon="-102.45306325691104"><ele>1998.0</ele><time>2026-03-22T13:29:17.011Z</time></trkpt><trkpt lat="21.890139161088456" lon="-102.45316290195952"><ele>1997.8000000000002</ele><time>2026-03-22T13:29:18.011Z</time></trkpt><trkpt lat="21.890112602959263" lon="-102.45326645233523"><ele>1997.6000000000001</ele><time>2026-03-22T13:29:19.011Z</time></trkpt><trkpt lat="21.890080946815328" lon="-102.45337195493642"><ele>1997.3999999999999</ele><time>2026-03-22T13:29:20.011Z</time></trkpt><trkpt lat="21.89005474590643" lon="-102.45347522286897"><ele>1997.1999999999998</ele><time>2026-03-22T13:29:21.011Z</time></trkpt><trkpt lat="21.89002849106214" lon="-102.4535863205177"><ele>1997.0</ele><time>2026-03-22T13:29:22.01Z</time></trkpt><trkpt lat="21.89000362845943" lon="-102.45369179755028"><ele>1997.8</ele><time>2026-03-22T13:29:23.01Z</time></trkpt><trkpt lat="21.889977146582172" lon="-102.45380453591015"><ele>1998.6</ele><time>2026-03-22T13:29:24.01Z</time></trkpt><trkpt lat="21.88995187607734" lon="-102.45391398777397"><ele>1999.3999999999999</ele><time>2026-03-22T13:29:25.01Z</time></trkpt><trkpt lat="21.88992369749404" lon="-102.4540261172721"><ele>2000.1999999999998</ele><time>2026-03-22T13:29:26.01Z</time></trkpt><trkpt lat="21.88989011061464" lon="-102.45414107252576"><ele>2001.0</ele><time>2026-03-22T13:29:27.01Z</time></trkpt><trkpt lat="21.88986319110885" lon="-102.45424902151285"><ele>2001.0</ele><time>2026-03-22T13:29:28.01Z</time></trkpt><trkpt lat="21.88983326328215" lon="-102.45436415233631"><ele>2001.0</ele><time>2026-03-22T13:29:29.01Z</time></trkpt><trkpt lat="21.88980456438398" lon="-102.45447220506902"><ele>2001.0</ele><time>2026-03-22T13:29:30.01Z</time></trkpt><trkpt lat="21.889773628115748" lon="-102.45458685879996"><ele>2001.0</ele><time>2026-03-22T13:29:31.01Z</time></trkpt><trkpt lat="21.889746306126455" lon="-102.45469699292379"><ele>2001.0</ele><time>2026-03-22T13:29:32.01Z</time></trkpt><trkpt lat="21.88971958367877" lon="-102.45481385370609"><ele>2000.0</ele><time>2026-03-22T13:29:33.01Z</time></trkpt><trkpt lat="21.889689590371244" lon="-102.45492757809869"><ele>1999.0</ele><time>2026-03-22T13:29:34.01Z</time></trkpt><trkpt lat="21.88966104516116" lon="-102.45503981355195"><ele>1998.0</ele><time>2026-03-22T13:29:35.01Z</time></trkpt><trkpt lat="21.8896348040733" lon="-102.45515123698272"><ele>1997.0</ele><time>2026-03-22T13:29:36.01Z</time></trkpt><trkpt lat="21.889605742074732" lon="-102.45526229615866"><ele>1996.0</ele><time>2026-03-22T13:29:37.01Z</time></trkpt><trkpt lat="21.88957851092729" lon="-102.45537691159016"><ele>1996.0</ele><time>2026-03-22T13:29:38.01Z</time></trkpt><trkpt lat="21.88954446841376" lon="-102.45549128226797"><ele>1996.0</ele><time>2026-03-22T13:29:39.01Z</time></trkpt><trkpt lat="21.889514350292334" lon="-102.45560419413295"><ele>1996.0</ele><time>2026-03-22T13:29:40.01Z</time></trkpt><trkpt lat="21.88948818135984" lon="-102.45571952031112"><ele>1996.0</ele><time>2026-03-22T13:29:41.01Z</time></trkpt><trkpt lat="21.889460289898963" lon="-102.45583232738731"><ele>1996.0</ele><time>2026-03-22T13:29:42.01Z</time></trkpt><trkpt lat="21.8894276651531" lon="-102.45595330039089"><ele>1996.0</ele><time>2026-03-22T13:29:43.01Z</time></trkpt><trkpt lat="21.889398543450294" lon="-102.45606236512019"><ele>1996.0</ele><time>2026-03-22T13:29:44.01Z</time></trkpt><trkpt lat="21.889370512590506" lon="-102.45617316220599"><ele>1996.0</ele><time>2026-03-22T13:29:45.01Z</time></trkpt><trkpt lat="21.889341967313698" lon="-102.45628625123094"><ele>1996.0</ele><time>2026-03-22T13:29:46.01Z</time></trkpt><trkpt lat="21.88930672512072" lon="-102.45639994909482"><ele>1996.0</ele><time>2026-03-22T13:29:47.01Z</time></trkpt><trkpt lat="21.889278107743483" lon="-102.45651710619319"><ele>1995.75</ele><time>2026-03-22T13:29:48.01Z</time></trkpt><trkpt lat="21.889244266436716" lon="-102.45663707771291"><ele>1995.5</ele><time>2026-03-22T13:29:49.01Z</time></trkpt><trkpt lat="21.889217016017994" lon="-102.4567498255853"><ele>1995.25</ele><time>2026-03-22T13:29:50.01Z</time></trkpt><trkpt lat="21.889191489496042" lon="-102.45687228981801"><ele>1995.0</ele><time>2026-03-22T13:29:51.01Z</time></trkpt><trkpt lat="21.889158192707928" lon="-102.45698940505888"><ele>1995.0</ele><time>2026-03-22T13:29:52.01Z</time></trkpt><trkpt lat="21.8891264439048" lon="-102.45710424963318"><ele>1995.0</ele><time>2026-03-22T13:29:53.01Z</time></trkpt><trkpt lat="21.88910010533981" lon="-102.45721974210026"><ele>1995.0</ele><time>2026-03-22T13:29:54.01Z</time></trkpt><trkpt lat="21.889069931906885" lon="-102.45733001264885"><ele>1995.0</ele><time>2026-03-22T13:29:55.01Z</time></trkpt><trkpt lat="21.889045356630874" lon="-102.45746069555314"><ele>1994.25</ele><time>2026-03-22T13:29:56.01Z</time></trkpt><trkpt lat="21.88901235992674" lon="-102.45757223939509"><ele>1993.5</ele><time>2026-03-22T13:29:57.01Z</time></trkpt><trkpt lat="21.888982923772293" lon="-102.45769288022903"><ele>1992.75</ele><time>2026-03-22T13:29:58.01Z</time></trkpt><trkpt lat="21.888949189883974" lon="-102.45781843617328"><ele>1992.0</ele><time>2026-03-22T13:29:59.01Z</time></trkpt><trkpt lat="21.88891751910939" lon="-102.45793965126325"><ele>1992.0</ele><time>2026-03-22T13:30:00.01Z</time></trkpt><trkpt lat="21.888885173801498" lon="-102.45805890825397"><ele>1992.0</ele><time>2026-03-22T13:30:01.01Z</time></trkpt><trkpt lat="21.888853045388988" lon="-102.45818269365354"><ele>1992.0</ele><time>2026-03-22T13:30:02.01Z</time></trkpt><trkpt lat="21.888829518419232" lon="-102.45830231131835"><ele>1992.0</ele><time>2026-03-22T13:30:03.01Z</time></trkpt><trkpt lat="21.888795689369065" lon="-102.4584212456308"><ele>1992.0</ele><time>2026-03-22T13:30:04.01Z</time></trkpt><trkpt lat="21.888760341804876" lon="-102.45854338386627"><ele>1992.0</ele><time>2026-03-22T13:30:05.01Z</time></trkpt><trkpt lat="21.88872845099968" lon="-102.4586654093143"><ele>1992.0</ele><time>2026-03-22T13:30:06.01Z</time></trkpt><trkpt lat="21.88869427733291" lon="-102.45879089221448"><ele>1992.0</ele><time>2026-03-22T13:30:07.01Z</time></trkpt><trkpt lat="21.88866584645109" lon="-102.45891626919119"><ele>1992.0</ele><time>2026-03-22T13:30:08.01Z</time></trkpt><trkpt lat="21.888631955223694" lon="-102.45904246384362"><ele>1992.0</ele><time>2026-03-22T13:30:09.01Z</time></trkpt><trkpt lat="21.88860417689298" lon="-102.45916920831363"><ele>1992.0</ele><time>2026-03-22T13:30:10.01Z</time></trkpt><trkpt lat="21.88857707318317" lon="-102.45928827241292"><ele>1992.0</ele><time>2026-03-22T13:30:11.01Z</time></trkpt><trkpt lat="21.888546202285443" lon="-102.45941381387415"><ele>1992.0</ele><time>2026-03-22T13:30:12.01Z</time></trkpt><trkpt lat="21.888512707637524" lon="-102.45952944040012"><ele>1992.0</ele><time>2026-03-22T13:30:13.01Z</time></trkpt><trkpt lat="21.88848100980816" lon="-102.45965424509001"><ele>1992.0</ele><time>2026-03-22T13:30:14.01Z</time></trkpt><trkpt lat="21.888448765476934" lon="-102.45978164342645"><ele>1992.0</ele><time>2026-03-22T13:30:15.01Z</time></trkpt><trkpt lat="21.888421600455327" lon="-102.45990873873207"><ele>1991.0</ele><time>2026-03-22T13:30:16.01Z</time></trkpt><trkpt lat="21.88839578697482" lon="-102.4600339777441"><ele>1990.0</ele><time>2026-03-22T13:30:17.01Z</time></trkpt><trkpt lat="21.888365225352878" lon="-102.46016302197954"><ele>1989.0</ele><time>2026-03-22T13:30:18.01Z</time></trkpt><trkpt lat="21.8883359170505" lon="-102.46028928373042"><ele>1988.0</ele><time>2026-03-22T13:30:19.01Z</time></trkpt><trkpt lat="21.88830924087101" lon="-102.46040828542041"><ele>1988.6000000000001</ele><time>2026-03-22T13:30:20.01Z</time></trkpt><trkpt lat="21.888284155456798" lon="-102.46052741604919"><ele>1989.2000000000003</ele><time>2026-03-22T13:30:21.01Z</time></trkpt><trkpt lat="21.8882566965019" lon="-102.46064216951953"><ele>1989.8</ele><time>2026-03-22T13:30:22.01Z</time></trkpt><trkpt lat="21.888229411488744" lon="-102.46075437446352"><ele>1990.4</ele><time>2026-03-22T13:30:23.01Z</time></trkpt><trkpt lat="21.888202656942017" lon="-102.46086783725777"><ele>1991.0</ele><time>2026-03-22T13:30:24.01Z</time></trkpt><trkpt lat="21.888173434011396" lon="-102.46097905986915"><ele>1991.0</ele><time>2026-03-22T13:30:25.01Z</time></trkpt><trkpt lat="21.888146217733485" lon="-102.46108723250185"><ele>1991.0</ele><time>2026-03-22T13:30:26.01Z</time></trkpt><trkpt lat="21.888117824351472" lon="-102.46118998730016"><ele>1991.0</ele><time>2026-03-22T13:30:27.01Z</time></trkpt><trkpt lat="21.88808720996821" lon="-102.4613014220234"><ele>1991.0</ele><time>2026-03-22T13:30:28.01Z</time></trkpt><trkpt lat="21.888056010445364" lon="-102.46141331573511"><ele>1991.0</ele><time>2026-03-22T13:30:29.01Z</time></trkpt><trkpt lat="21.888032474763325" lon="-102.46152615465046"><ele>1992.0</ele><time>2026-03-22T13:30:30.01Z</time></trkpt><trkpt lat="21.888004687925527" lon="-102.46164157161651"><ele>1993.0</ele><time>2026-03-22T13:30:31.01Z</time></trkpt><trkpt lat="21.887979936719304" lon="-102.46174704695176"><ele>1994.0</ele><time>2026-03-22T13:30:32.01Z</time></trkpt><trkpt lat="21.887948838575443" lon="-102.46185748764526"><ele>1995.0</ele><time>2026-03-22T13:30:33.01Z</time></trkpt><trkpt lat="21.88791324421452" lon="-102.46196974293916"><ele>1996.0</ele><time>2026-03-22T13:30:34.01Z</time></trkpt><trkpt lat="21.887885954714736" lon="-102.46208287585365"><ele>1996.0</ele><time>2026-03-22T13:30:35.01Z</time></trkpt><trkpt lat="21.887863460372195" lon="-102.46219149385324"><ele>1996.0</ele><time>2026-03-22T13:30:36.01Z</time></trkpt><trkpt lat="21.887841858228867" lon="-102.4622996514531"><ele>1996.0</ele><time>2026-03-22T13:30:37.01Z</time></trkpt><trkpt lat="21.887810806920793" lon="-102.46240998907788"><ele>1996.0</ele><time>2026-03-22T13:30:38.01Z</time></trkpt><trkpt lat="21.88778666050514" lon="-102.4625268054655"><ele>1996.0</ele><time>2026-03-22T13:30:39.01Z</time></trkpt><trkpt lat="21.88775188957913" lon="-102.46264587715858"><ele>1996.0</ele><time>2026-03-22T13:30:40.01Z</time></trkpt><trkpt lat="21.88772446615234" lon="-102.46276105696919"><ele>1996.0</ele><time>2026-03-22T13:30:41.011Z</time></trkpt><trkpt lat="21.88769496933413" lon="-102.46288053984081"><ele>1996.0</ele><time>2026-03-22T13:30:42.01Z</time></trkpt><trkpt lat="21.88766492561764" lon="-102.46300617225648"><ele>1996.0</ele><time>2026-03-22T13:30:43.01Z</time></trkpt><trkpt lat="21.887629963614142" lon="-102.46313744994963"><ele>1995.0</ele><time>2026-03-22T13:30:44.01Z</time></trkpt><trkpt lat="21.887590782243073" lon="-102.46327325604808"><ele>1994.0</ele><time>2026-03-22T13:30:45.01Z</time></trkpt><trkpt lat="21.88755335285795" lon="-102.463408660198"><ele>1993.0</ele><time>2026-03-22T13:30:46.01Z</time></trkpt><trkpt lat="21.88751070213165" lon="-102.4635543033951"><ele>1992.0</ele><time>2026-03-22T13:30:47.011Z</time></trkpt><trkpt lat="21.887465382994723" lon="-102.46370418383212"><ele>1991.0</ele><time>2026-03-22T13:30:48.011Z</time></trkpt><trkpt lat="21.88742254103038" lon="-102.46385726825203"><ele>1990.0</ele><time>2026-03-22T13:30:49.011Z</time></trkpt><trkpt lat="21.887382569091415" lon="-102.46400515052922"><ele>1989.0</ele><time>2026-03-22T13:30:50.011Z</time></trkpt><trkpt lat="21.887345878026213" lon="-102.46415332202717"><ele>1988.0</ele><time>2026-03-22T13:30:51.01Z</time></trkpt><trkpt lat="21.887306251900938" lon="-102.46429891170249"><ele>1988.0</ele><time>2026-03-22T13:30:52.01Z</time></trkpt><trkpt lat="21.88727154833553" lon="-102.46445077975896"><ele>1988.0</ele><time>2026-03-22T13:30:53.011Z</time></trkpt><trkpt lat="21.887231043778296" lon="-102.46460335451108"><ele>1988.0</ele><time>2026-03-22T13:30:54.01Z</time></trkpt><trkpt lat="21.887188880323162" lon="-102.46475642454533"><ele>1988.0</ele><time>2026-03-22T13:30:55.01Z</time></trkpt><trkpt lat="21.887148501843793" lon="-102.46490920348629"><ele>1986.5</ele><time>2026-03-22T13:30:56.01Z</time></trkpt><trkpt lat="21.887109426864395" lon="-102.46505513060629"><ele>1985.0</ele><time>2026-03-22T13:30:57.01Z</time></trkpt><trkpt lat="21.88707250991946" lon="-102.46520508366271"><ele>1983.5</ele><time>2026-03-22T13:30:58.01Z</time></trkpt><trkpt lat="21.887036891277127" lon="-102.46535656192292"><ele>1982.0</ele><time>2026-03-22T13:30:59.01Z</time></trkpt><trkpt lat="21.88700282280813" lon="-102.46550158518909"><ele>1982.0</ele><time>2026-03-22T13:31:00.01Z</time></trkpt><trkpt lat="21.886970243775174" lon="-102.46563164045803"><ele>1982.0</ele><time>2026-03-22T13:31:01.01Z</time></trkpt><trkpt lat="21.8869408405039" lon="-102.46575968376813"><ele>1982.0</ele><time>2026-03-22T13:31:02.01Z</time></trkpt><trkpt lat="21.886908330306458" lon="-102.46588234639339"><ele>1982.0</ele><time>2026-03-22T13:31:03.01Z</time></trkpt><trkpt lat="21.886876648188" lon="-102.46600479478646"><ele>1982.0</ele><time>2026-03-22T13:31:04.01Z</time></trkpt><trkpt lat="21.886849915324365" lon="-102.46612161834399"><ele>1981.9999999999998</ele><time>2026-03-22T13:31:05.01Z</time></trkpt><trkpt lat="21.88682421180261" lon="-102.46623650353028"><ele>1981.9999999999998</ele><time>2026-03-22T13:31:06.01Z</time></trkpt><trkpt lat="21.88680280454362" lon="-102.4663474946653"><ele>1982.0</ele><time>2026-03-22T13:31:07.01Z</time></trkpt><trkpt lat="21.88678148121266" lon="-102.46645267068828"><ele>1982.0</ele><time>2026-03-22T13:31:08.01Z</time></trkpt><trkpt lat="21.88676221637449" lon="-102.46655562446801"><ele>1983.6</ele><time>2026-03-22T13:31:09.01Z</time></trkpt><trkpt lat="21.886736123598155" lon="-102.46665766243498"><ele>1985.1999999999998</ele><time>2026-03-22T13:31:10.01Z</time></trkpt><trkpt lat="21.88671429580433" lon="-102.46675893445929"><ele>1986.8</ele><time>2026-03-22T13:31:11.01Z</time></trkpt><trkpt lat="21.88668895473416" lon="-102.46685904936864"><ele>1988.4</ele><time>2026-03-22T13:31:12.01Z</time></trkpt><trkpt lat="21.886659991155295" lon="-102.46696394127761"><ele>1990.0</ele><time>2026-03-22T13:31:13.01Z</time></trkpt><trkpt lat="21.88663113423344" lon="-102.467064758329"><ele>1990.6</ele><time>2026-03-22T13:31:14.01Z</time></trkpt><trkpt lat="21.886604186491507" lon="-102.46716215024328"><ele>1991.2</ele><time>2026-03-22T13:31:15.01Z</time></trkpt><trkpt lat="21.886577540421353" lon="-102.46725595240422"><ele>1991.8000000000002</ele><time>2026-03-22T13:31:16.01Z</time></trkpt><trkpt lat="21.886553512608543" lon="-102.46734952102167"><ele>1992.4</ele><time>2026-03-22T13:31:17.01Z</time></trkpt><trkpt lat="21.88653277870235" lon="-102.46744470803984"><ele>1993.0</ele><time>2026-03-22T13:31:18.01Z</time></trkpt><trkpt lat="21.886507655618097" lon="-102.46754491164685"><ele>1993.0000000000002</ele><time>2026-03-22T13:31:19.01Z</time></trkpt><trkpt lat="21.886486841389523" lon="-102.46763612552341"><ele>1993.0</ele><time>2026-03-22T13:31:20.01Z</time></trkpt><trkpt lat="21.8864659096602" lon="-102.46772954618574"><ele>1993.0</ele><time>2026-03-22T13:31:21.01Z</time></trkpt><trkpt lat="21.88644681976856" lon="-102.4678251635586"><ele>1993.0</ele><time>2026-03-22T13:31:22.01Z</time></trkpt><trkpt lat="21.88642075588046" lon="-102.46791562629804"><ele>1993.0000000000002</ele><time>2026-03-22T13:31:23.01Z</time></trkpt><trkpt lat="21.886397300424353" lon="-102.46801083391935"><ele>1993.0</ele><time>2026-03-22T13:31:24.01Z</time></trkpt><trkpt lat="21.88637036558985" lon="-102.46810520483501"><ele>1993.0</ele><time>2026-03-22T13:31:25.01Z</time></trkpt><trkpt lat="21.886344129867265" lon="-102.46820161396604"><ele>1993.0000000000002</ele><time>2026-03-22T13:31:26.01Z</time></trkpt><trkpt lat="21.886317372224518" lon="-102.46830183333347"><ele>1993.0000000000002</ele><time>2026-03-22T13:31:27.01Z</time></trkpt><trkpt lat="21.886292194143632" lon="-102.46840083853844"><ele>1993.0</ele><time>2026-03-22T13:31:28.01Z</time></trkpt><trkpt lat="21.88627149277248" lon="-102.46849801053439"><ele>1993.0</ele><time>2026-03-22T13:31:29.01Z</time></trkpt><trkpt lat="21.88625000075408" lon="-102.4685973655307"><ele>1993.0</ele><time>2026-03-22T13:31:30.01Z</time></trkpt><trkpt lat="21.886222425210736" lon="-102.46869876565495"><ele>1993.0000000000002</ele><time>2026-03-22T13:31:31.01Z</time></trkpt><trkpt lat="21.88619567370006" lon="-102.46880373699982"><ele>1993.0000000000002</ele><time>2026-03-22T13:31:32.01Z</time></trkpt><trkpt lat="21.88616822029415" lon="-102.46890422557435"><ele>1993.0</ele><time>2026-03-22T13:31:33.01Z</time></trkpt><trkpt lat="21.886142004848516" lon="-102.46901475720449"><ele>1993.0</ele><time>2026-03-22T13:31:34.01Z</time></trkpt><trkpt lat="21.886124851210916" lon="-102.46910806480952"><ele>1992.6000000000001</ele><time>2026-03-22T13:31:35.01Z</time></trkpt><trkpt lat="21.886105259047298" lon="-102.4692128378224"><ele>1992.2000000000003</ele><time>2026-03-22T13:31:36.01Z</time></trkpt><trkpt lat="21.88608041885664" lon="-102.46931168087923"><ele>1991.8</ele><time>2026-03-22T13:31:37.01Z</time></trkpt><trkpt lat="21.886060238764465" lon="-102.46941391657988"><ele>1991.4</ele><time>2026-03-22T13:31:38.01Z</time></trkpt><trkpt lat="21.886039089716583" lon="-102.4695199914482"><ele>1991.0</ele><time>2026-03-22T13:31:39.01Z</time></trkpt><trkpt lat="21.886021708532162" lon="-102.46961829300285"><ele>1991.0</ele><time>2026-03-22T13:31:40.01Z</time></trkpt><trkpt lat="21.886002940069506" lon="-102.46972614605534"><ele>1991.0</ele><time>2026-03-22T13:31:41.01Z</time></trkpt><trkpt lat="21.885985606873525" lon="-102.46982293350435"><ele>1991.0</ele><time>2026-03-22T13:31:42.01Z</time></trkpt><trkpt lat="21.885970927548854" lon="-102.46993118526508"><ele>1991.0</ele><time>2026-03-22T13:31:43.01Z</time></trkpt><trkpt lat="21.885951579996618" lon="-102.47004004268878"><ele>1991.0</ele><time>2026-03-22T13:31:44.01Z</time></trkpt><trkpt lat="21.88593990885893" lon="-102.47014822814054"><ele>1991.0</ele><time>2026-03-22T13:31:45.01Z</time></trkpt><trkpt lat="21.885932699095147" lon="-102.4702545412589"><ele>1991.0</ele><time>2026-03-22T13:31:46.01Z</time></trkpt><trkpt lat="21.8859210596133" lon="-102.47037022138535"><ele>1991.0</ele><time>2026-03-22T13:31:47.01Z</time></trkpt><trkpt lat="21.885917824690207" lon="-102.47047122685692"><ele>1991.0</ele><time>2026-03-22T13:31:48.01Z</time></trkpt><trkpt lat="21.885912779241853" lon="-102.4705858304193"><ele>1991.0</ele><time>2026-03-22T13:31:49.01Z</time></trkpt><trkpt lat="21.88591632951493" lon="-102.47069786972189"><ele>1991.0</ele><time>2026-03-22T13:31:50.01Z</time></trkpt><trkpt lat="21.885925232143787" lon="-102.47081225023928"><ele>1991.0</ele><time>2026-03-22T13:31:51.01Z</time></trkpt><trkpt lat="21.885923741955025" lon="-102.47092747608248"><ele>1991.0</ele><time>2026-03-22T13:31:52.01Z</time></trkpt><trkpt lat="21.885930785068872" lon="-102.47104037612316"><ele>1991.0</ele><time>2026-03-22T13:31:53.01Z</time></trkpt><trkpt lat="21.885946548788596" lon="-102.47114669256266"><ele>1991.0</ele><time>2026-03-22T13:31:54.01Z</time></trkpt><trkpt lat="21.885951680999028" lon="-102.4712575096603"><ele>1990.8</ele><time>2026-03-22T13:31:55.01Z</time></trkpt><trkpt lat="21.885966915391275" lon="-102.47136966832126"><ele>1990.6</ele><time>2026-03-22T13:31:56.01Z</time></trkpt><trkpt lat="21.885984497553473" lon="-102.47148552351926"><ele>1990.4</ele><time>2026-03-22T13:31:57.01Z</time></trkpt><trkpt lat="21.885991110756883" lon="-102.4715939574286"><ele>1990.2</ele><time>2026-03-22T13:31:58.01Z</time></trkpt><trkpt lat="21.886005615525445" lon="-102.47170670292488"><ele>1990.0</ele><time>2026-03-22T13:31:59.01Z</time></trkpt><trkpt lat="21.88601722073921" lon="-102.47180537231004"><ele>1990.0</ele><time>2026-03-22T13:32:00.01Z</time></trkpt><trkpt lat="21.886035942362273" lon="-102.47192287324064"><ele>1990.0</ele><time>2026-03-22T13:32:01.009Z</time></trkpt><trkpt lat="21.886052287103418" lon="-102.47203514649642"><ele>1990.0</ele><time>2026-03-22T13:32:02.009Z</time></trkpt><trkpt lat="21.886073008505694" lon="-102.47215737643765"><ele>1990.0</ele><time>2026-03-22T13:32:03.009Z</time></trkpt><trkpt lat="21.886084615030146" lon="-102.47227851277844"><ele>1990.0</ele><time>2026-03-22T13:32:04.009Z</time></trkpt><trkpt lat="21.88609970536442" lon="-102.47240316109736"><ele>1989.5</ele><time>2026-03-22T13:32:05.009Z</time></trkpt><trkpt lat="21.886114214118127" lon="-102.47253270561214"><ele>1989.0</ele><time>2026-03-22T13:32:06.009Z</time></trkpt><trkpt lat="21.88613079797818" lon="-102.47266490670911"><ele>1988.5</ele><time>2026-03-22T13:32:07.009Z</time></trkpt><trkpt lat="21.88615186366203" lon="-102.47279798674272"><ele>1988.0</ele><time>2026-03-22T13:32:08.009Z</time></trkpt><trkpt lat="21.88616942301299" lon="-102.47293620236934"><ele>1987.25</ele><time>2026-03-22T13:32:09.009Z</time></trkpt><trkpt lat="21.886188288021717" lon="-102.47307608993714"><ele>1986.5</ele><time>2026-03-22T13:32:10.009Z</time></trkpt><trkpt lat="21.88620228357915" lon="-102.47321619530646"><ele>1985.75</ele><time>2026-03-22T13:32:11.009Z</time></trkpt><trkpt lat="21.886218485701132" lon="-102.47335301091597"><ele>1985.0</ele><time>2026-03-22T13:32:12.009Z</time></trkpt><trkpt lat="21.886236343317965" lon="-102.4734975266982"><ele>1985.0</ele><time>2026-03-22T13:32:13.009Z</time></trkpt><trkpt lat="21.886253966912715" lon="-102.47364166614521"><ele>1985.0</ele><time>2026-03-22T13:32:14.009Z</time></trkpt><trkpt lat="21.88626902431557" lon="-102.47378559206261"><ele>1985.0</ele><time>2026-03-22T13:32:15.009Z</time></trkpt><trkpt lat="21.886286882247006" lon="-102.47393098341205"><ele>1985.0</ele><time>2026-03-22T13:32:16.009Z</time></trkpt><trkpt lat="21.88630677411032" lon="-102.47407368951774"><ele>1984.5</ele><time>2026-03-22T13:32:17.009Z</time></trkpt><trkpt lat="21.886324609037242" lon="-102.47421780160379"><ele>1984.0</ele><time>2026-03-22T13:32:18.009Z</time></trkpt><trkpt lat="21.88634807749903" lon="-102.47435665442984"><ele>1983.5</ele><time>2026-03-22T13:32:19.009Z</time></trkpt><trkpt lat="21.886365393274684" lon="-102.47449129464243"><ele>1983.0</ele><time>2026-03-22T13:32:20.009Z</time></trkpt><trkpt lat="21.88638133402664" lon="-102.47462830299209"><ele>1983.0</ele><time>2026-03-22T13:32:21.009Z</time></trkpt><trkpt lat="21.886396815820472" lon="-102.47476076003818"><ele>1983.0</ele><time>2026-03-22T13:32:22.009Z</time></trkpt><trkpt lat="21.88641397330234" lon="-102.47489236593863"><ele>1983.0</ele><time>2026-03-22T13:32:23.009Z</time></trkpt><trkpt lat="21.886427712494047" lon="-102.47502365895765"><ele>1983.0</ele><time>2026-03-22T13:32:24.009Z</time></trkpt><trkpt lat="21.886441054044134" lon="-102.47515573849088"><ele>1983.0</ele><time>2026-03-22T13:32:25.009Z</time></trkpt><trkpt lat="21.886455926172946" lon="-102.47528413447147"><ele>1983.0</ele><time>2026-03-22T13:32:26.009Z</time></trkpt><trkpt lat="21.88646761771344" lon="-102.47540951404487"><ele>1983.0</ele><time>2026-03-22T13:32:27.009Z</time></trkpt><trkpt lat="21.886487644163044" lon="-102.47552691454423"><ele>1983.0</ele><time>2026-03-22T13:32:28.009Z</time></trkpt><trkpt lat="21.886502518369156" lon="-102.47565353696369"><ele>1983.2</ele><time>2026-03-22T13:32:29.009Z</time></trkpt><trkpt lat="21.886519337095493" lon="-102.4757672400192"><ele>1983.4</ele><time>2026-03-22T13:32:30.009Z</time></trkpt><trkpt lat="21.88653576602955" lon="-102.47588870711866"><ele>1983.6000000000001</ele><time>2026-03-22T13:32:31.009Z</time></trkpt><trkpt lat="21.886549099692164" lon="-102.47601044352032"><ele>1983.8000000000002</ele><time>2026-03-22T13:32:32.009Z</time></trkpt><trkpt lat="21.8865611756959" lon="-102.47613291116271"><ele>1984.0</ele><time>2026-03-22T13:32:33.009Z</time></trkpt><trkpt lat="21.886580024803333" lon="-102.4762521643693"><ele>1983.0</ele><time>2026-03-22T13:32:34.009Z</time></trkpt><trkpt lat="21.886594594555678" lon="-102.47637357507615"><ele>1982.0</ele><time>2026-03-22T13:32:35.009Z</time></trkpt><trkpt lat="21.88660717235337" lon="-102.47649870294549"><ele>1981.0</ele><time>2026-03-22T13:32:36.009Z</time></trkpt><trkpt lat="21.88661771326424" lon="-102.47661578300121"><ele>1980.0</ele><time>2026-03-22T13:32:37.009Z</time></trkpt><trkpt lat="21.886639670242875" lon="-102.4767489231753"><ele>1980.0</ele><time>2026-03-22T13:32:38.009Z</time></trkpt><trkpt lat="21.886657826397535" lon="-102.47687359110087"><ele>1980.0</ele><time>2026-03-22T13:32:39.009Z</time></trkpt><trkpt lat="21.886668838915625" lon="-102.47699155996075"><ele>1980.0</ele><time>2026-03-22T13:32:40.009Z</time></trkpt><trkpt lat="21.886681072772124" lon="-102.4771095659482"><ele>1980.0</ele><time>2026-03-22T13:32:41.009Z</time></trkpt><trkpt lat="21.8866938082144" lon="-102.47721254333908"><ele>1980.0</ele><time>2026-03-22T13:32:42.009Z</time></trkpt><trkpt lat="21.886718046391884" lon="-102.4773214185413"><ele>1980.0</ele><time>2026-03-22T13:32:43.009Z</time></trkpt><trkpt lat="21.88672554718005" lon="-102.47742977612214"><ele>1980.0</ele><time>2026-03-22T13:32:44.009Z</time></trkpt><trkpt lat="21.886732660724924" lon="-102.47753904440357"><ele>1980.0</ele><time>2026-03-22T13:32:45.009Z</time></trkpt><trkpt lat="21.88674559234693" lon="-102.47765042789402"><ele>1980.0</ele><time>2026-03-22T13:32:46.009Z</time></trkpt><trkpt lat="21.886761857869708" lon="-102.4777544685641"><ele>1980.0</ele><time>2026-03-22T13:32:47.011Z</time></trkpt><trkpt lat="21.88677306683595" lon="-102.47785911238104"><ele>1982.0</ele><time>2026-03-22T13:32:48.011Z</time></trkpt><trkpt lat="21.886788109663037" lon="-102.47796204195123"><ele>1984.0</ele><time>2026-03-22T13:32:49.011Z</time></trkpt><trkpt lat="21.886798340962486" lon="-102.47806607221591"><ele>1986.0</ele><time>2026-03-22T13:32:50.011Z</time></trkpt><trkpt lat="21.886810658621982" lon="-102.47816348466911"><ele>1988.0</ele><time>2026-03-22T13:32:51.01Z</time></trkpt><trkpt lat="21.886823032051844" lon="-102.47825056515747"><ele>1990.0</ele><time>2026-03-22T13:32:52.01Z</time></trkpt><trkpt lat="21.886830940717573" lon="-102.47834282975083"><ele>1990.0000000000002</ele><time>2026-03-22T13:32:53.011Z</time></trkpt><trkpt lat="21.886846810948974" lon="-102.47843212542837"><ele>1990.0</ele><time>2026-03-22T13:32:54.011Z</time></trkpt><trkpt lat="21.886861497551347" lon="-102.47850989028821"><ele>1990.0</ele><time>2026-03-22T13:32:55.011Z</time></trkpt><trkpt lat="21.886873342145027" lon="-102.47859263772098"><ele>1990.0</ele><time>2026-03-22T13:32:56.011Z</time></trkpt><trkpt lat="21.886882016096028" lon="-102.47867798823444"><ele>1990.0000000000002</ele><time>2026-03-22T13:32:57.01Z</time></trkpt><trkpt lat="21.886892442647497" lon="-102.47875696926997"><ele>1990.0</ele><time>2026-03-22T13:32:58.01Z</time></trkpt><trkpt lat="21.886902609359517" lon="-102.47883589675979"><ele>1990.0</ele><time>2026-03-22T13:32:59.011Z</time></trkpt><trkpt lat="21.886909449444595" lon="-102.47890683482738"><ele>1990.0</ele><time>2026-03-22T13:33:00.011Z</time></trkpt><trkpt lat="21.886917721838497" lon="-102.47898492903289"><ele>1990.0</ele><time>2026-03-22T13:33:01.011Z</time></trkpt><trkpt lat="21.886929683810628" lon="-102.47906344081832"><ele>1990.0</ele><time>2026-03-22T13:33:02.011Z</time></trkpt><trkpt lat="21.886943889437745" lon="-102.47914514566753"><ele>1990.0</ele><time>2026-03-22T13:33:03.011Z</time></trkpt><trkpt lat="21.886957427702033" lon="-102.47922162273994"><ele>1990.0</ele><time>2026-03-22T13:33:04.011Z</time></trkpt><trkpt lat="21.886962351731075" lon="-102.47929022427921"><ele>1990.0</ele><time>2026-03-22T13:33:05.011Z</time></trkpt><trkpt lat="21.886984752933717" lon="-102.47937094614778"><ele>1990.0000000000002</ele><time>2026-03-22T13:33:06.011Z</time></trkpt><trkpt lat="21.88698740205676" lon="-102.47944450083595"><ele>1990.0</ele><time>2026-03-22T13:33:07.011Z</time></trkpt><trkpt lat="21.886995731938015" lon="-102.47952393479171"><ele>1990.0</ele><time>2026-03-22T13:33:08.011Z</time></trkpt><trkpt lat="21.887004831676666" lon="-102.47960396370823"><ele>1990.0</ele><time>2026-03-22T13:33:09.011Z</time></trkpt><trkpt lat="21.887014253838448" lon="-102.47967218609305"><ele>1990.0000000000002</ele><time>2026-03-22T13:33:10.011Z</time></trkpt><trkpt lat="21.88702519531896" lon="-102.47973968041455"><ele>1990.0</ele><time>2026-03-22T13:33:11.011Z</time></trkpt><trkpt lat="21.887040207560656" lon="-102.47987449256243"><ele>1990.4285714285716</ele><time>2026-03-22T13:33:13.011Z</time></trkpt><trkpt lat="21.88704642541401" lon="-102.47994295004848"><ele>1990.8571428571427</ele><time>2026-03-22T13:33:14.011Z</time></trkpt><trkpt lat="21.887056367782662" lon="-102.48001484742649"><ele>1991.2857142857142</ele><time>2026-03-22T13:33:15.011Z</time></trkpt><trkpt lat="21.887063591063477" lon="-102.48009374727863"><ele>1991.7142857142858</ele><time>2026-03-22T13:33:16.011Z</time></trkpt><trkpt lat="21.88707061207424" lon="-102.48016615231016"><ele>1992.1428571428573</ele><time>2026-03-22T13:33:17.011Z</time></trkpt><trkpt lat="21.887077970996348" lon="-102.48023464674279"><ele>1992.5714285714284</ele><time>2026-03-22T13:33:18.011Z</time></trkpt><trkpt lat="21.887088439740808" lon="-102.48030354559849"><ele>1993.0</ele><time>2026-03-22T13:33:19.011Z</time></trkpt><trkpt lat="21.887101112037833" lon="-102.48037828953595"><ele>1993.142857142857</ele><time>2026-03-22T13:33:20.011Z</time></trkpt><trkpt lat="21.88711208160465" lon="-102.48044891274652"><ele>1993.2857142857142</ele><time>2026-03-22T13:33:21.011Z</time></trkpt><trkpt lat="21.887118214535914" lon="-102.48051702624026"><ele>1993.4285714285713</ele><time>2026-03-22T13:33:22.011Z</time></trkpt><trkpt lat="21.887126795703857" lon="-102.48058571607243"><ele>1993.5714285714284</ele><time>2026-03-22T13:33:23.011Z</time></trkpt><trkpt lat="21.88713577668238" lon="-102.48065975676981"><ele>1993.7142857142858</ele><time>2026-03-22T13:33:24.011Z</time></trkpt><trkpt lat="21.88714353284312" lon="-102.48073577572148"><ele>1993.8571428571427</ele><time>2026-03-22T13:33:25.011Z</time></trkpt><trkpt lat="21.887152194007047" lon="-102.48080583343435"><ele>1993.9999999999998</ele><time>2026-03-22T13:33:26.011Z</time></trkpt><trkpt lat="21.887162786209153" lon="-102.48087547684521"><ele>1993.9999999999998</ele><time>2026-03-22T13:33:27.011Z</time></trkpt><trkpt lat="21.88717639001429" lon="-102.48095909700051"><ele>1994.0</ele><time>2026-03-22T13:33:28.011Z</time></trkpt><trkpt lat="21.887183381407556" lon="-102.4810284867664"><ele>1993.9999999999998</ele><time>2026-03-22T13:33:29.011Z</time></trkpt><trkpt lat="21.88719247350938" lon="-102.48110142742638"><ele>1993.9999999999998</ele><time>2026-03-22T13:33:30.011Z</time></trkpt><trkpt lat="21.88720727978676" lon="-102.48117451709103"><ele>1994.0</ele><time>2026-03-22T13:33:31.011Z</time></trkpt><trkpt lat="21.887219048518812" lon="-102.48125779298657"><ele>1993.9999999999998</ele><time>2026-03-22T13:33:32.011Z</time></trkpt><trkpt lat="21.887222040329522" lon="-102.48133010482519"><ele>1993.9999999999998</ele><time>2026-03-22T13:33:33.011Z</time></trkpt><trkpt lat="21.887233242520274" lon="-102.48140147149688"><ele>1993.9999999999998</ele><time>2026-03-22T13:33:34.011Z</time></trkpt><trkpt lat="21.887241588455726" lon="-102.4814792184416"><ele>1994.0</ele><time>2026-03-22T13:33:35.011Z</time></trkpt><trkpt lat="21.887248862412058" lon="-102.4815536303255"><ele>1993.9999999999998</ele><time>2026-03-22T13:33:36.011Z</time></trkpt><trkpt lat="21.88725863227766" lon="-102.48163042889887"><ele>1993.9999999999998</ele><time>2026-03-22T13:33:37.011Z</time></trkpt><trkpt lat="21.887267467427975" lon="-102.48170442143098"><ele>1994.0</ele><time>2026-03-22T13:33:38.011Z</time></trkpt><trkpt lat="21.88727986681594" lon="-102.48178049220958"><ele>1993.9999999999998</ele><time>2026-03-22T13:33:39.011Z</time></trkpt><trkpt lat="21.887290022476066" lon="-102.48185734881709"><ele>1993.9999999999998</ele><time>2026-03-22T13:33:40.011Z</time></trkpt><trkpt lat="21.88730200045105" lon="-102.48194184324912"><ele>1993.9999999999998</ele><time>2026-03-22T13:33:41.011Z</time></trkpt><trkpt lat="21.887313458208165" lon="-102.4820169551102"><ele>1994.0</ele><time>2026-03-22T13:33:42.011Z</time></trkpt><trkpt lat="21.88732863887591" lon="-102.48216105586476"><ele>1994.0</ele><time>2026-03-22T13:33:44.01Z</time></trkpt><trkpt lat="21.887337775847413" lon="-102.48223054280712"><ele>1994.0</ele><time>2026-03-22T13:33:45.01Z</time></trkpt><trkpt lat="21.887348555758106" lon="-102.48230729326035"><ele>1993.9999999999998</ele><time>2026-03-22T13:33:46.01Z</time></trkpt><trkpt lat="21.887361416003866" lon="-102.4823762750622"><ele>1994.0</ele><time>2026-03-22T13:33:47.01Z</time></trkpt><trkpt lat="21.887374006912594" lon="-102.48245097593453"><ele>1993.9999999999998</ele><time>2026-03-22T13:33:48.01Z</time></trkpt><trkpt lat="21.88738045086509" lon="-102.48252033160377"><ele>1994.0</ele><time>2026-03-22T13:33:49.01Z</time></trkpt><trkpt lat="21.887391597704784" lon="-102.48259806457484"><ele>1993.9999999999998</ele><time>2026-03-22T13:33:50.01Z</time></trkpt><trkpt lat="21.887399325303065" lon="-102.48267850494956"><ele>1993.9999999999998</ele><time>2026-03-22T13:33:51.01Z</time></trkpt><trkpt lat="21.887410636574717" lon="-102.48275934025314"><ele>1994.0</ele><time>2026-03-22T13:33:52.01Z</time></trkpt><trkpt lat="21.887421911907026" lon="-102.48283800278502"><ele>1993.9999999999998</ele><time>2026-03-22T13:33:53.01Z</time></trkpt><trkpt lat="21.88743811738707" lon="-102.48291629155194"><ele>1993.9999999999998</ele><time>2026-03-22T13:33:54.01Z</time></trkpt><trkpt lat="21.88744447958043" lon="-102.48298594801867"><ele>1994.1428571428569</ele><time>2026-03-22T13:33:55.01Z</time></trkpt><trkpt lat="21.887453223339243" lon="-102.48306834050958"><ele>1994.2857142857142</ele><time>2026-03-22T13:33:56.01Z</time></trkpt><trkpt lat="21.887466439941907" lon="-102.48314280204447"><ele>1994.4285714285713</ele><time>2026-03-22T13:33:57.01Z</time></trkpt><trkpt lat="21.887480610744706" lon="-102.4832244475707"><ele>1994.5714285714284</ele><time>2026-03-22T13:33:58.01Z</time></trkpt><trkpt lat="21.887489058964043" lon="-102.48329876480204"><ele>1994.7142857142858</ele><time>2026-03-22T13:33:59.01Z</time></trkpt><trkpt lat="21.887496011766263" lon="-102.48337574705839"><ele>1994.857142857143</ele><time>2026-03-22T13:34:00.01Z</time></trkpt><trkpt lat="21.887507162021617" lon="-102.4834585608271"><ele>1995.0</ele><time>2026-03-22T13:34:01.01Z</time></trkpt><trkpt lat="21.88751391450651" lon="-102.4835303559011"><ele>1995.0</ele><time>2026-03-22T13:34:02.01Z</time></trkpt><trkpt lat="21.887524139500588" lon="-102.4836089807567"><ele>1995.0</ele><time>2026-03-22T13:34:03.01Z</time></trkpt><trkpt lat="21.88753818233938" lon="-102.48368707560489"><ele>1995.0</ele><time>2026-03-22T13:34:04.01Z</time></trkpt><trkpt lat="21.887543950531963" lon="-102.48375874758074"><ele>1995.0</ele><time>2026-03-22T13:34:05.01Z</time></trkpt><trkpt lat="21.88755362971585" lon="-102.48383562470123"><ele>1995.0</ele><time>2026-03-22T13:34:06.01Z</time></trkpt><trkpt lat="21.887568357531485" lon="-102.48390603259462"><ele>1995.0</ele><time>2026-03-22T13:34:07.01Z</time></trkpt><trkpt lat="21.887575248353183" lon="-102.48398252453875"><ele>1995.0</ele><time>2026-03-22T13:34:08.01Z</time></trkpt><trkpt lat="21.887584338453546" lon="-102.48405997067219"><ele>1995.0</ele><time>2026-03-22T13:34:09.01Z</time></trkpt><trkpt lat="21.887591973586396" lon="-102.4841468308215"><ele>1995.0</ele><time>2026-03-22T13:34:10.01Z</time></trkpt><trkpt lat="21.88760216254131" lon="-102.48421808296904"><ele>1995.0</ele><time>2026-03-22T13:34:11.01Z</time></trkpt><trkpt lat="21.887611707557227" lon="-102.48429504037718"><ele>1995.0</ele><time>2026-03-22T13:34:12.01Z</time></trkpt><trkpt lat="21.88762266853003" lon="-102.48437876009406"><ele>1995.0</ele><time>2026-03-22T13:34:13.01Z</time></trkpt><trkpt lat="21.887633182066686" lon="-102.48445836372878"><ele>1995.0</ele><time>2026-03-22T13:34:14.01Z</time></trkpt><trkpt lat="21.887636763681165" lon="-102.48452969804893"><ele>1995.0</ele><time>2026-03-22T13:34:15.01Z</time></trkpt><trkpt lat="21.88765054445074" lon="-102.48460993555656"><ele>1995.3333333333333</ele><time>2026-03-22T13:34:16.01Z</time></trkpt><trkpt lat="21.887657914098266" lon="-102.4846899806187"><ele>1995.6666666666665</ele><time>2026-03-22T13:34:17.01Z</time></trkpt><trkpt lat="21.88767092076705" lon="-102.48476895130077"><ele>1996.0</ele><time>2026-03-22T13:34:18.01Z</time></trkpt><trkpt lat="21.887679576216527" lon="-102.48484714441607"><ele>1996.3333333333333</ele><time>2026-03-22T13:34:19.01Z</time></trkpt><trkpt lat="21.887691045211504" lon="-102.4849316369816"><ele>1996.6666666666665</ele><time>2026-03-22T13:34:20.01Z</time></trkpt><trkpt lat="21.887699557888247" lon="-102.48501078732838"><ele>1997.0</ele><time>2026-03-22T13:34:21.01Z</time></trkpt><trkpt lat="21.887713844960842" lon="-102.48509359798146"><ele>1996.9999999999998</ele><time>2026-03-22T13:34:22.01Z</time></trkpt><trkpt lat="21.887725569881386" lon="-102.48518384936668"><ele>1997.0</ele><time>2026-03-22T13:34:23.01Z</time></trkpt><trkpt lat="21.88773369811159" lon="-102.4852780952393"><ele>1997.0</ele><time>2026-03-22T13:34:24.01Z</time></trkpt><trkpt lat="21.88774217363158" lon="-102.48536632857079"><ele>1997.0</ele><time>2026-03-22T13:34:25.01Z</time></trkpt><trkpt lat="21.88775740095532" lon="-102.4854540818757"><ele>1996.9999999999998</ele><time>2026-03-22T13:34:26.01Z</time></trkpt><trkpt lat="21.887767189843892" lon="-102.48554146277856"><ele>1997.0</ele><time>2026-03-22T13:34:27.01Z</time></trkpt><trkpt lat="21.887779561145088" lon="-102.4856336005146"><ele>1996.3999999999999</ele><time>2026-03-22T13:34:28.01Z</time></trkpt><trkpt lat="21.887791707346224" lon="-102.48572964110853"><ele>1995.7999999999997</ele><time>2026-03-22T13:34:29.01Z</time></trkpt><trkpt lat="21.88780256514466" lon="-102.48582853138302"><ele>1995.2</ele><time>2026-03-22T13:34:30.01Z</time></trkpt><trkpt lat="21.887816576431312" lon="-102.48592428624363"><ele>1994.6</ele><time>2026-03-22T13:34:31.01Z</time></trkpt><trkpt lat="21.887829729698932" lon="-102.48602648931998"><ele>1994.0</ele><time>2026-03-22T13:34:32.01Z</time></trkpt><trkpt lat="21.88784824924586" lon="-102.4861234151506"><ele>1994.0</ele><time>2026-03-22T13:34:33.01Z</time></trkpt><trkpt lat="21.887862962218843" lon="-102.48621262440523"><ele>1994.0</ele><time>2026-03-22T13:34:34.01Z</time></trkpt><trkpt lat="21.887872230155935" lon="-102.48631023322257"><ele>1994.0</ele><time>2026-03-22T13:34:35.01Z</time></trkpt><trkpt lat="21.887883018429015" lon="-102.48640970872697"><ele>1994.0</ele><time>2026-03-22T13:34:36.01Z</time></trkpt><trkpt lat="21.887889290379686" lon="-102.48651179810221"><ele>1994.0</ele><time>2026-03-22T13:34:37.01Z</time></trkpt><trkpt lat="21.887900566647758" lon="-102.48661579033414"><ele>1993.6666666666665</ele><time>2026-03-22T13:34:38.01Z</time></trkpt><trkpt lat="21.887912511812484" lon="-102.48670933717707"><ele>1993.3333333333333</ele><time>2026-03-22T13:34:39.01Z</time></trkpt><trkpt lat="21.88792979768513" lon="-102.48680276348892"><ele>1993.0</ele><time>2026-03-22T13:34:40.01Z</time></trkpt><trkpt lat="21.887942139940886" lon="-102.48689892582888"><ele>1992.6666666666665</ele><time>2026-03-22T13:34:41.01Z</time></trkpt><trkpt lat="21.887952931033578" lon="-102.48699207181161"><ele>1992.3333333333333</ele><time>2026-03-22T13:34:42.01Z</time></trkpt><trkpt lat="21.88796870807597" lon="-102.48709020989033"><ele>1992.0</ele><time>2026-03-22T13:34:43.01Z</time></trkpt><trkpt lat="21.887979111168846" lon="-102.48717672802583"><ele>1992.0</ele><time>2026-03-22T13:34:44.01Z</time></trkpt><trkpt lat="21.887986220696906" lon="-102.48726355036638"><ele>1992.0</ele><time>2026-03-22T13:34:45.01Z</time></trkpt><trkpt lat="21.888002368035274" lon="-102.48734639493252"><ele>1992.0</ele><time>2026-03-22T13:34:46.01Z</time></trkpt><trkpt lat="21.88801180690897" lon="-102.48744260653402"><ele>1992.0</ele><time>2026-03-22T13:34:47.01Z</time></trkpt><trkpt lat="21.888024548376755" lon="-102.48753479033"><ele>1992.0</ele><time>2026-03-22T13:34:48.01Z</time></trkpt><trkpt lat="21.88803696000847" lon="-102.48762600550894"><ele>1992.0</ele><time>2026-03-22T13:34:49.01Z</time></trkpt><trkpt lat="21.88804469153762" lon="-102.48771783903646"><ele>1992.0</ele><time>2026-03-22T13:34:50.01Z</time></trkpt><trkpt lat="21.88806096954285" lon="-102.4878027063501"><ele>1992.0</ele><time>2026-03-22T13:34:51.01Z</time></trkpt><trkpt lat="21.88807031850653" lon="-102.48788519308522"><ele>1992.0</ele><time>2026-03-22T13:34:52.01Z</time></trkpt><trkpt lat="21.888081419736668" lon="-102.48797111549398"><ele>1992.0</ele><time>2026-03-22T13:34:53.012Z</time></trkpt><trkpt lat="21.88809530866711" lon="-102.48805353295005"><ele>1992.0</ele><time>2026-03-22T13:34:54.011Z</time></trkpt><trkpt lat="21.88810411911346" lon="-102.48814312871434"><ele>1992.0</ele><time>2026-03-22T13:34:55.011Z</time></trkpt><trkpt lat="21.888109283620228" lon="-102.48821331049032"><ele>1992.5714285714284</ele><time>2026-03-22T13:34:56.011Z</time></trkpt><trkpt lat="21.888121527990148" lon="-102.4882924444377"><ele>1993.1428571428569</ele><time>2026-03-22T13:34:57.011Z</time></trkpt><trkpt lat="21.888130757734057" lon="-102.48837092363338"><ele>1993.7142857142858</ele><time>2026-03-22T13:34:58.011Z</time></trkpt><trkpt lat="21.888136487952963" lon="-102.48844253176334"><ele>1994.2857142857142</ele><time>2026-03-22T13:34:59.011Z</time></trkpt><trkpt lat="21.888151474182294" lon="-102.4885115118352"><ele>1994.857142857143</ele><time>2026-03-22T13:35:00.011Z</time></trkpt><trkpt lat="21.888160360741924" lon="-102.48858918029353"><ele>1995.4285714285716</ele><time>2026-03-22T13:35:01.011Z</time></trkpt><trkpt lat="21.888164524568893" lon="-102.4886665858032"><ele>1996.0000000000002</ele><time>2026-03-22T13:35:02.011Z</time></trkpt><trkpt lat="21.888178351944653" lon="-102.48874417071254"><ele>1996.6666666666667</ele><time>2026-03-22T13:35:03.011Z</time></trkpt><trkpt lat="21.888188308532815" lon="-102.4888178981854"><ele>1997.3333333333335</ele><time>2026-03-22T13:35:04.011Z</time></trkpt><trkpt lat="21.888198341608994" lon="-102.488890005714"><ele>1998.0</ele><time>2026-03-22T13:35:05.011Z</time></trkpt><trkpt lat="21.88821076977689" lon="-102.48896121071283"><ele>1998.6666666666665</ele><time>2026-03-22T13:35:06.011Z</time></trkpt><trkpt lat="21.88822827143752" lon="-102.48910912172467"><ele>1999.3333333333333</ele><time>2026-03-22T13:35:08.011Z</time></trkpt><trkpt lat="21.888239168418508" lon="-102.48917843529223"><ele>2000.0</ele><time>2026-03-22T13:35:09.011Z</time></trkpt><trkpt lat="21.888254115411982" lon="-102.48925144782783"><ele>1999.9999999999998</ele><time>2026-03-22T13:35:10.011Z</time></trkpt><trkpt lat="21.88826150764102" lon="-102.4893198116545"><ele>2000.0</ele><time>2026-03-22T13:35:11.011Z</time></trkpt><trkpt lat="21.888277252289893" lon="-102.4894392043785"><ele>2000.0</ele><time>2026-03-22T13:35:13.011Z</time></trkpt><trkpt lat="21.88829447532368" lon="-102.48950779399811"><ele>2000.0</ele><time>2026-03-22T13:35:14.011Z</time></trkpt><trkpt lat="21.88831636116062" lon="-102.48964552094107"><ele>1999.9999999999998</ele><time>2026-03-22T13:35:16.011Z</time></trkpt><trkpt lat="21.888322298480226" lon="-102.4897144966687"><ele>2000.0</ele><time>2026-03-22T13:35:17.011Z</time></trkpt><trkpt lat="21.88833740235657" lon="-102.48978131731478"><ele>2000.8</ele><time>2026-03-22T13:35:18.011Z</time></trkpt><trkpt lat="21.88835557844875" lon="-102.48992263037638"><ele>2001.6</ele><time>2026-03-22T13:35:20.011Z</time></trkpt><trkpt lat="21.88836385333079" lon="-102.49000535147984"><ele>2002.4</ele><time>2026-03-22T13:35:21.011Z</time></trkpt><trkpt lat="21.888379578133797" lon="-102.49007258250333"><ele>2003.2</ele><time>2026-03-22T13:35:22.011Z</time></trkpt><trkpt lat="21.888400101155288" lon="-102.49021012424893"><ele>2004.0</ele><time>2026-03-22T13:35:24.011Z</time></trkpt><trkpt lat="21.888404313241768" lon="-102.49028120524393"><ele>2004.0</ele><time>2026-03-22T13:35:25.011Z</time></trkpt><trkpt lat="21.888416232234384" lon="-102.49035094961143"><ele>2004.0</ele><time>2026-03-22T13:35:26.011Z</time></trkpt><trkpt lat="21.888427176232707" lon="-102.49041811535908"><ele>2004.0</ele><time>2026-03-22T13:35:27.011Z</time></trkpt><trkpt lat="21.888447759224796" lon="-102.4905498433839"><ele>2004.0</ele><time>2026-03-22T13:35:29.011Z</time></trkpt><trkpt lat="21.88845700487201" lon="-102.49062277511008"><ele>2004.0</ele><time>2026-03-22T13:35:30.011Z</time></trkpt><trkpt lat="21.888473039131622" lon="-102.49076572030359"><ele>2004.2857142857142</ele><time>2026-03-22T13:35:32.011Z</time></trkpt><trkpt lat="21.888484644193134" lon="-102.49083738450783"><ele>2004.5714285714284</ele><time>2026-03-22T13:35:33.011Z</time></trkpt><trkpt lat="21.888496554334893" lon="-102.49090427380582"><ele>2004.8571428571427</ele><time>2026-03-22T13:35:34.011Z</time></trkpt><trkpt lat="21.888495943449705" lon="-102.49099060726101"><ele>2005.142857142857</ele><time>2026-03-22T13:35:35.011Z</time></trkpt><trkpt lat="21.888505756908724" lon="-102.49105874049795"><ele>2005.428571428571</ele><time>2026-03-22T13:35:36.011Z</time></trkpt><trkpt lat="21.88851975017988" lon="-102.49113717778076"><ele>2005.7142857142856</ele><time>2026-03-22T13:35:37.011Z</time></trkpt><trkpt lat="21.888523756213107" lon="-102.49120513124787"><ele>2006.0</ele><time>2026-03-22T13:35:38.011Z</time></trkpt><trkpt lat="21.888538624420566" lon="-102.49134043234099"><ele>2006.4285714285713</ele><time>2026-03-22T13:35:40.011Z</time></trkpt><trkpt lat="21.888545383647457" lon="-102.49141514684953"><ele>2006.8571428571427</ele><time>2026-03-22T13:35:41.011Z</time></trkpt><trkpt lat="21.888551205664452" lon="-102.49148903283185"><ele>2007.2857142857142</ele><time>2026-03-22T13:35:42.011Z</time></trkpt><trkpt lat="21.88855668730862" lon="-102.49155705502321"><ele>2007.7142857142858</ele><time>2026-03-22T13:35:43.011Z</time></trkpt><trkpt lat="21.888567315865682" lon="-102.49163086087454"><ele>2008.142857142857</ele><time>2026-03-22T13:35:44.011Z</time></trkpt><trkpt lat="21.88856148498515" lon="-102.4917059585027"><ele>2008.5714285714284</ele><time>2026-03-22T13:35:45.011Z</time></trkpt><trkpt lat="21.88856894299796" lon="-102.491782664378"><ele>2009.0</ele><time>2026-03-22T13:35:46.011Z</time></trkpt><trkpt lat="21.88857645702495" lon="-102.49185589218295"><ele>2009.0</ele><time>2026-03-22T13:35:47.011Z</time></trkpt><trkpt lat="21.88860149438813" lon="-102.49198589665019"><ele>2009.0</ele><time>2026-03-22T13:35:49.011Z</time></trkpt><trkpt lat="21.888621562477198" lon="-102.49211654265058"><ele>2009.0</ele><time>2026-03-22T13:35:51.011Z</time></trkpt><trkpt lat="21.888625837676862" lon="-102.49223824282694"><ele>2009.0</ele><time>2026-03-22T13:35:53.011Z</time></trkpt><trkpt lat="21.888592072060213" lon="-102.49235018912817"><ele>2009.0</ele><time>2026-03-22T13:35:55.011Z</time></trkpt><trkpt lat="21.888543663209315" lon="-102.49239382342537"><ele>2009.0</ele><time>2026-03-22T13:35:56.011Z</time></trkpt><trkpt lat="21.8884817245202" lon="-102.49243311987509"><ele>2009.0</ele><time>2026-03-22T13:35:57.011Z</time></trkpt><trkpt lat="21.888416086877516" lon="-102.49245020724177"><ele>2009.0</ele><time>2026-03-22T13:35:58.011Z</time></trkpt><trkpt lat="21.888333624331977" lon="-102.49246476331871"><ele>2009.0</ele><time>2026-03-22T13:35:59.011Z</time></trkpt><trkpt lat="21.888248523490542" lon="-102.49246977670903"><ele>2009.0</ele><time>2026-03-22T13:36:00.011Z</time></trkpt><trkpt lat="21.888172187842905" lon="-102.492473191799"><ele>2009.0</ele><time>2026-03-22T13:36:01.011Z</time></trkpt><trkpt lat="21.88808047056678" lon="-102.49248643240963"><ele>2009.2</ele><time>2026-03-22T13:36:02.011Z</time></trkpt><trkpt lat="21.887994980990005" lon="-102.4924984071573"><ele>2009.4</ele><time>2026-03-22T13:36:03.011Z</time></trkpt><trkpt lat="21.887911956981966" lon="-102.49251136218001"><ele>2009.6</ele><time>2026-03-22T13:36:04.01Z</time></trkpt><trkpt lat="21.887817657069743" lon="-102.49251691522093"><ele>2009.8</ele><time>2026-03-22T13:36:05.01Z</time></trkpt><trkpt lat="21.88772669395801" lon="-102.49253336338417"><ele>2010.0</ele><time>2026-03-22T13:36:06.01Z</time></trkpt><trkpt lat="21.88763219729968" lon="-102.49254603308232"><ele>2010.0</ele><time>2026-03-22T13:36:07.01Z</time></trkpt><trkpt lat="21.887548860541198" lon="-102.49255724769762"><ele>2010.0</ele><time>2026-03-22T13:36:08.01Z</time></trkpt><trkpt lat="21.887458209920776" lon="-102.49257193789981"><ele>2010.0</ele><time>2026-03-22T13:36:09.01Z</time></trkpt><trkpt lat="21.887354616204625" lon="-102.49258136320947"><ele>2010.0</ele><time>2026-03-22T13:36:10.01Z</time></trkpt><trkpt lat="21.887256356631983" lon="-102.49259141606261"><ele>2010.0</ele><time>2026-03-22T13:36:11.01Z</time></trkpt><trkpt lat="21.88716169416192" lon="-102.49259972606244"><ele>2010.0</ele><time>2026-03-22T13:36:12.01Z</time></trkpt><trkpt lat="21.88707448685823" lon="-102.49260963864005"><ele>2010.0</ele><time>2026-03-22T13:36:13.01Z</time></trkpt><trkpt lat="21.88698333439247" lon="-102.49261552784955"><ele>2010.0</ele><time>2026-03-22T13:36:14.01Z</time></trkpt><trkpt lat="21.88689614659692" lon="-102.49262883539122"><ele>2010.0</ele><time>2026-03-22T13:36:15.01Z</time></trkpt><trkpt lat="21.886798726373314" lon="-102.4926407602298"><ele>2010.0</ele><time>2026-03-22T13:36:16.01Z</time></trkpt><trkpt lat="21.886706505338466" lon="-102.49265702335109"><ele>2010.1666666666667</ele><time>2026-03-22T13:36:17.01Z</time></trkpt><trkpt lat="21.88661217376557" lon="-102.49267714744539"><ele>2010.3333333333335</ele><time>2026-03-22T13:36:18.01Z</time></trkpt><trkpt lat="21.886529271802193" lon="-102.4926919418106"><ele>2010.5</ele><time>2026-03-22T13:36:19.01Z</time></trkpt><trkpt lat="21.886444613927196" lon="-102.49270253602083"><ele>2010.6666666666667</ele><time>2026-03-22T13:36:20.01Z</time></trkpt><trkpt lat="21.886358159167468" lon="-102.49271417978565"><ele>2010.8333333333335</ele><time>2026-03-22T13:36:21.01Z</time></trkpt><trkpt lat="21.886272468947634" lon="-102.49272770249549"><ele>2011.0</ele><time>2026-03-22T13:36:22.01Z</time></trkpt><trkpt lat="21.88619595245231" lon="-102.4927336748028"><ele>2011.0000000000002</ele><time>2026-03-22T13:36:23.01Z</time></trkpt><trkpt lat="21.886113150504194" lon="-102.49274524893195"><ele>2011.0</ele><time>2026-03-22T13:36:24.01Z</time></trkpt><trkpt lat="21.886032723799055" lon="-102.49275734070335"><ele>2011.0</ele><time>2026-03-22T13:36:25.01Z</time></trkpt><trkpt lat="21.88595826123466" lon="-102.49276821581776"><ele>2011.0</ele><time>2026-03-22T13:36:26.01Z</time></trkpt><trkpt lat="21.885882226493475" lon="-102.4927790584525"><ele>2011.0000000000002</ele><time>2026-03-22T13:36:27.01Z</time></trkpt><trkpt lat="21.885808676091234" lon="-102.49278890869603"><ele>2011.0</ele><time>2026-03-22T13:36:28.01Z</time></trkpt><trkpt lat="21.885741130305668" lon="-102.49279774547318"><ele>2011.1666666666667</ele><time>2026-03-22T13:36:29.01Z</time></trkpt><trkpt lat="21.88566346273221" lon="-102.49280815795731"><ele>2011.3333333333335</ele><time>2026-03-22T13:36:30.01Z</time></trkpt><trkpt lat="21.885584623970647" lon="-102.4928281973494"><ele>2011.5</ele><time>2026-03-22T13:36:31.01Z</time></trkpt><trkpt lat="21.885508447117523" lon="-102.49284341296176"><ele>2011.6666666666665</ele><time>2026-03-22T13:36:32.01Z</time></trkpt><trkpt lat="21.885430091472223" lon="-102.49285105361909"><ele>2011.8333333333333</ele><time>2026-03-22T13:36:33.01Z</time></trkpt><trkpt lat="21.885357987672013" lon="-102.4928615870928"><ele>2012.0</ele><time>2026-03-22T13:36:34.01Z</time></trkpt><trkpt lat="21.8852790134834" lon="-102.4928655740916"><ele>2011.9999999999998</ele><time>2026-03-22T13:36:35.01Z</time></trkpt><trkpt lat="21.885201851187585" lon="-102.49287429881632"><ele>2012.0</ele><time>2026-03-22T13:36:36.01Z</time></trkpt><trkpt lat="21.88512673058939" lon="-102.49288794688346"><ele>2012.0</ele><time>2026-03-22T13:36:37.01Z</time></trkpt><trkpt lat="21.88505158643535" lon="-102.4929042501255"><ele>2012.0</ele><time>2026-03-22T13:36:38.01Z</time></trkpt><trkpt lat="21.88496450002762" lon="-102.49291474983464"><ele>2011.9999999999998</ele><time>2026-03-22T13:36:39.01Z</time></trkpt><trkpt lat="21.884882300213768" lon="-102.49292899334219"><ele>2012.0</ele><time>2026-03-22T13:36:40.01Z</time></trkpt><trkpt lat="21.88480139461585" lon="-102.49294262925771"><ele>2011.9999999999998</ele><time>2026-03-22T13:36:41.01Z</time></trkpt><trkpt lat="21.884717400128846" lon="-102.49295312050978"><ele>2012.0</ele><time>2026-03-22T13:36:42.01Z</time></trkpt><trkpt lat="21.884634022973724" lon="-102.49296822108131"><ele>2012.0</ele><time>2026-03-22T13:36:43.01Z</time></trkpt><trkpt lat="21.884557045738447" lon="-102.49297862542879"><ele>2012.0</ele><time>2026-03-22T13:36:44.01Z</time></trkpt><trkpt lat="21.884471392550967" lon="-102.49299375967644"><ele>2011.9999999999998</ele><time>2026-03-22T13:36:45.01Z</time></trkpt><trkpt lat="21.884376150491818" lon="-102.49300757032341"><ele>2012.0</ele><time>2026-03-22T13:36:46.01Z</time></trkpt><trkpt lat="21.884298376509765" lon="-102.49301782426913"><ele>2012.1666666666665</ele><time>2026-03-22T13:36:47.01Z</time></trkpt><trkpt lat="21.884223965046868" lon="-102.49303378951156"><ele>2012.3333333333333</ele><time>2026-03-22T13:36:48.01Z</time></trkpt><trkpt lat="21.884145330739436" lon="-102.49304808509227"><ele>2012.5</ele><time>2026-03-22T13:36:49.01Z</time></trkpt><trkpt lat="21.884068919189826" lon="-102.49305427307566"><ele>2012.6666666666665</ele><time>2026-03-22T13:36:50.01Z</time></trkpt><trkpt lat="21.883992951712166" lon="-102.49306657396077"><ele>2012.8333333333333</ele><time>2026-03-22T13:36:51.01Z</time></trkpt><trkpt lat="21.883909252577777" lon="-102.4930813484787"><ele>2013.0</ele><time>2026-03-22T13:36:52.01Z</time></trkpt><trkpt lat="21.883831745638854" lon="-102.49309478942202"><ele>2013.0</ele><time>2026-03-22T13:36:53.01Z</time></trkpt><trkpt lat="21.883753159416855" lon="-102.49310534679437"><ele>2013.0</ele><time>2026-03-22T13:36:54.01Z</time></trkpt><trkpt lat="21.883660177024684" lon="-102.49311541597176"><ele>2013.0</ele><time>2026-03-22T13:36:55.01Z</time></trkpt><trkpt lat="21.883576990414493" lon="-102.4931292968886"><ele>2013.0</ele><time>2026-03-22T13:36:56.01Z</time></trkpt><trkpt lat="21.88349238816791" lon="-102.49313856635635"><ele>2013.0</ele><time>2026-03-22T13:36:57.01Z</time></trkpt><trkpt lat="21.883409465626045" lon="-102.49315617751091"><ele>2013.0</ele><time>2026-03-22T13:36:58.01Z</time></trkpt><trkpt lat="21.8833212295974" lon="-102.49316698420894"><ele>2013.1666666666667</ele><time>2026-03-22T13:36:59.011Z</time></trkpt><trkpt lat="21.8832325732334" lon="-102.49317579850604"><ele>2013.3333333333335</ele><time>2026-03-22T13:37:00.011Z</time></trkpt><trkpt lat="21.8831437387215" lon="-102.49319064942094"><ele>2013.5</ele><time>2026-03-22T13:37:01.011Z</time></trkpt><trkpt lat="21.8830584973488" lon="-102.49320730165144"><ele>2013.6666666666667</ele><time>2026-03-22T13:37:02.011Z</time></trkpt><trkpt lat="21.882975113273385" lon="-102.49322185522428"><ele>2013.8333333333335</ele><time>2026-03-22T13:37:03.011Z</time></trkpt><trkpt lat="21.882891996496053" lon="-102.49323455399056"><ele>2014.0</ele><time>2026-03-22T13:37:04.011Z</time></trkpt><trkpt lat="21.882814404572933" lon="-102.49324404072318"><ele>2014.0000000000002</ele><time>2026-03-22T13:37:05.012Z</time></trkpt><trkpt lat="21.882735467885112" lon="-102.49325013906088"><ele>2014.0</ele><time>2026-03-22T13:37:06.011Z</time></trkpt><trkpt lat="21.88265125750562" lon="-102.49326055043478"><ele>2014.0</ele><time>2026-03-22T13:37:07.011Z</time></trkpt><trkpt lat="21.882562584457965" lon="-102.49327310563466"><ele>2014.0</ele><time>2026-03-22T13:37:08.011Z</time></trkpt><trkpt lat="21.882472562167344" lon="-102.49328044635544"><ele>2014.0000000000002</ele><time>2026-03-22T13:37:09.011Z</time></trkpt><trkpt lat="21.882384413722313" lon="-102.49329824530676"><ele>2014.0</ele><time>2026-03-22T13:37:10.011Z</time></trkpt><trkpt lat="21.882284539483933" lon="-102.49331025458328"><ele>2013.6666666666667</ele><time>2026-03-22T13:37:11.012Z</time></trkpt><trkpt lat="21.882203659350544" lon="-102.49332423476716"><ele>2013.3333333333335</ele><time>2026-03-22T13:37:12.011Z</time></trkpt><trkpt lat="21.88211367781404" lon="-102.49333539178504"><ele>2013.0</ele><time>2026-03-22T13:37:13.011Z</time></trkpt><trkpt lat="21.8820298278123" lon="-102.4933470366191"><ele>2012.6666666666665</ele><time>2026-03-22T13:37:14.011Z</time></trkpt><trkpt lat="21.881937749502555" lon="-102.49335683486119"><ele>2012.3333333333333</ele><time>2026-03-22T13:37:15.011Z</time></trkpt><trkpt lat="21.88183899305083" lon="-102.49337022609797"><ele>2012.0</ele><time>2026-03-22T13:37:16.011Z</time></trkpt><trkpt lat="21.881747930172693" lon="-102.49338082245987"><ele>2011.8</ele><time>2026-03-22T13:37:17.011Z</time></trkpt><trkpt lat="21.881660782174755" lon="-102.49338648255468"><ele>2011.6</ele><time>2026-03-22T13:37:18.011Z</time></trkpt><trkpt lat="21.88156790709973" lon="-102.4934026799676"><ele>2011.3999999999999</ele><time>2026-03-22T13:37:19.011Z</time></trkpt><trkpt lat="21.881473100277294" lon="-102.49342701071656"><ele>2011.1999999999998</ele><time>2026-03-22T13:37:20.011Z</time></trkpt><trkpt lat="21.881382510296817" lon="-102.49344070427986"><ele>2011.0</ele><time>2026-03-22T13:37:21.011Z</time></trkpt><trkpt lat="21.88128548907665" lon="-102.4934597892435"><ele>2011.0</ele><time>2026-03-22T13:37:22.011Z</time></trkpt><trkpt lat="21.881195526267298" lon="-102.49347598241395"><ele>2011.0</ele><time>2026-03-22T13:37:23.011Z</time></trkpt><trkpt lat="21.881088401663206" lon="-102.4934897799553"><ele>2011.0</ele><time>2026-03-22T13:37:24.011Z</time></trkpt><trkpt lat="21.880983612088986" lon="-102.493506294944"><ele>2011.0</ele><time>2026-03-22T13:37:25.011Z</time></trkpt><trkpt lat="21.880872641362664" lon="-102.49352102432083"><ele>2011.0</ele><time>2026-03-22T13:37:26.011Z</time></trkpt><trkpt lat="21.880771689428123" lon="-102.49353680846976"><ele>2011.0</ele><time>2026-03-22T13:37:27.011Z</time></trkpt><trkpt lat="21.880662454682135" lon="-102.49355459077093"><ele>2011.0</ele><time>2026-03-22T13:37:28.011Z</time></trkpt><trkpt lat="21.8805546244797" lon="-102.4935693532831"><ele>2011.0</ele><time>2026-03-22T13:37:29.011Z</time></trkpt><trkpt lat="21.880449034161558" lon="-102.49357878508941"><ele>2011.0</ele><time>2026-03-22T13:37:30.011Z</time></trkpt><trkpt lat="21.88034523721423" lon="-102.49359054370926"><ele>2011.0</ele><time>2026-03-22T13:37:31.011Z</time></trkpt><trkpt lat="21.880245414881536" lon="-102.49360438350419"><ele>2011.0</ele><time>2026-03-22T13:37:32.011Z</time></trkpt><trkpt lat="21.88014650953889" lon="-102.49362371910571"><ele>2011.0</ele><time>2026-03-22T13:37:33.011Z</time></trkpt><trkpt lat="21.880044710862048" lon="-102.49363509804505"><ele>2011.0</ele><time>2026-03-22T13:37:34.011Z</time></trkpt><trkpt lat="21.879946985200508" lon="-102.4936511625708"><ele>2011.0</ele><time>2026-03-22T13:37:35.011Z</time></trkpt><trkpt lat="21.87984307045616" lon="-102.49366314554773"><ele>2011.0</ele><time>2026-03-22T13:37:36.011Z</time></trkpt><trkpt lat="21.879735469950823" lon="-102.49367848042905"><ele>2011.0</ele><time>2026-03-22T13:37:37.011Z</time></trkpt><trkpt lat="21.879635172319677" lon="-102.49369332377576"><ele>2011.0</ele><time>2026-03-22T13:37:38.01Z</time></trkpt><trkpt lat="21.879536025162817" lon="-102.49371537038161"><ele>2011.0</ele><time>2026-03-22T13:37:39.01Z</time></trkpt><trkpt lat="21.87943366815613" lon="-102.4937313816708"><ele>2011.0</ele><time>2026-03-22T13:37:40.01Z</time></trkpt><trkpt lat="21.879329741532892" lon="-102.49374617152385"><ele>2011.0</ele><time>2026-03-22T13:37:41.01Z</time></trkpt><trkpt lat="21.879220413504203" lon="-102.49376013668986"><ele>2011.0</ele><time>2026-03-22T13:37:42.01Z</time></trkpt><trkpt lat="21.879119073187102" lon="-102.49377269213191"><ele>2011.0</ele><time>2026-03-22T13:37:43.01Z</time></trkpt><trkpt lat="21.879013801020495" lon="-102.49379241086521"><ele>2011.0</ele><time>2026-03-22T13:37:44.01Z</time></trkpt><trkpt lat="21.87890642780906" lon="-102.49380654143847"><ele>2011.0</ele><time>2026-03-22T13:37:45.01Z</time></trkpt><trkpt lat="21.87880910094757" lon="-102.49382263935775"><ele>2011.0</ele><time>2026-03-22T13:37:46.01Z</time></trkpt><trkpt lat="21.87869946717599" lon="-102.49383679599558"><ele>2011.0</ele><time>2026-03-22T13:37:47.01Z</time></trkpt><trkpt lat="21.878593523260054" lon="-102.49384100263521"><ele>2011.0</ele><time>2026-03-22T13:37:48.01Z</time></trkpt><trkpt lat="21.878490623298923" lon="-102.49385391236433"><ele>2011.0</ele><time>2026-03-22T13:37:49.01Z</time></trkpt><trkpt lat="21.878389110508184" lon="-102.49387117067432"><ele>2011.0</ele><time>2026-03-22T13:37:50.01Z</time></trkpt><trkpt lat="21.878297919216703" lon="-102.49388159962685"><ele>2011.0</ele><time>2026-03-22T13:37:51.01Z</time></trkpt><trkpt lat="21.87819867042" lon="-102.49389040778985"><ele>2010.8</ele><time>2026-03-22T13:37:52.01Z</time></trkpt><trkpt lat="21.878098374793964" lon="-102.49390541157445"><ele>2010.6</ele><time>2026-03-22T13:37:53.01Z</time></trkpt><trkpt lat="21.87799560446014" lon="-102.49391802042281"><ele>2010.4</ele><time>2026-03-22T13:37:54.01Z</time></trkpt><trkpt lat="21.87790394540678" lon="-102.4939357702603"><ele>2010.2</ele><time>2026-03-22T13:37:55.01Z</time></trkpt><trkpt lat="21.87780449103458" lon="-102.49395038262989"><ele>2010.0</ele><time>2026-03-22T13:37:56.01Z</time></trkpt><trkpt lat="21.87770030933844" lon="-102.49397028275679"><ele>2010.0</ele><time>2026-03-22T13:37:57.01Z</time></trkpt><trkpt lat="21.877608521350027" lon="-102.49399256529497"><ele>2010.0</ele><time>2026-03-22T13:37:58.01Z</time></trkpt><trkpt lat="21.877511409094616" lon="-102.49401022190668"><ele>2010.0</ele><time>2026-03-22T13:37:59.01Z</time></trkpt><trkpt lat="21.877412438369777" lon="-102.49403945959929"><ele>2010.0</ele><time>2026-03-22T13:38:00.01Z</time></trkpt><trkpt lat="21.877304041101052" lon="-102.49407170957785"><ele>2010.0</ele><time>2026-03-22T13:38:01.01Z</time></trkpt><trkpt lat="21.877211371287302" lon="-102.49411013101026"><ele>2009.8</ele><time>2026-03-22T13:38:02.01Z</time></trkpt><trkpt lat="21.877115727286768" lon="-102.49414613539591"><ele>2009.6</ele><time>2026-03-22T13:38:03.01Z</time></trkpt><trkpt lat="21.87701862942228" lon="-102.49418485144226"><ele>2009.4</ele><time>2026-03-22T13:38:04.01Z</time></trkpt><trkpt lat="21.876920359655426" lon="-102.49422874417792"><ele>2009.2</ele><time>2026-03-22T13:38:05.01Z</time></trkpt><trkpt lat="21.876825628696118" lon="-102.4942771877029"><ele>2009.0</ele><time>2026-03-22T13:38:06.01Z</time></trkpt><trkpt lat="21.876734307167844" lon="-102.49432635550653"><ele>2009.0</ele><time>2026-03-22T13:38:07.01Z</time></trkpt><trkpt lat="21.876644277285305" lon="-102.49437519302343"><ele>2009.0</ele><time>2026-03-22T13:38:08.01Z</time></trkpt><trkpt lat="21.87654762710719" lon="-102.49443417138289"><ele>2009.0</ele><time>2026-03-22T13:38:09.01Z</time></trkpt><trkpt lat="21.87645442290648" lon="-102.49449945178822"><ele>2009.0</ele><time>2026-03-22T13:38:10.01Z</time></trkpt><trkpt lat="21.876367181781333" lon="-102.49456309260664"><ele>2009.0</ele><time>2026-03-22T13:38:11.01Z</time></trkpt><trkpt lat="21.876274613916294" lon="-102.49463151147332"><ele>2009.25</ele><time>2026-03-22T13:38:12.01Z</time></trkpt><trkpt lat="21.876187442382193" lon="-102.49470563105044"><ele>2009.5</ele><time>2026-03-22T13:38:13.01Z</time></trkpt><trkpt lat="21.87610335664724" lon="-102.49477573212033"><ele>2009.75</ele><time>2026-03-22T13:38:14.01Z</time></trkpt><trkpt lat="21.876002299922906" lon="-102.49484218312143"><ele>2010.0</ele><time>2026-03-22T13:38:15.01Z</time></trkpt><trkpt lat="21.875910424650424" lon="-102.4949153256031"><ele>2010.0</ele><time>2026-03-22T13:38:16.01Z</time></trkpt><trkpt lat="21.87582643260615" lon="-102.4949699365254"><ele>2010.0</ele><time>2026-03-22T13:38:17.01Z</time></trkpt><trkpt lat="21.875738175478286" lon="-102.49503644602031"><ele>2010.0</ele><time>2026-03-22T13:38:18.01Z</time></trkpt><trkpt lat="21.875660949581466" lon="-102.49510556715359"><ele>2010.0</ele><time>2026-03-22T13:38:19.01Z</time></trkpt><trkpt lat="21.87558336110915" lon="-102.49517318020128"><ele>2010.0</ele><time>2026-03-22T13:38:20.01Z</time></trkpt><trkpt lat="21.87549596477282" lon="-102.49523519653633"><ele>2010.0</ele><time>2026-03-22T13:38:21.01Z</time></trkpt><trkpt lat="21.875413135111774" lon="-102.49529452961545"><ele>2010.0</ele><time>2026-03-22T13:38:22.01Z</time></trkpt><trkpt lat="21.875332435346692" lon="-102.49535635167118"><ele>2010.0</ele><time>2026-03-22T13:38:23.01Z</time></trkpt><trkpt lat="21.875254879238756" lon="-102.49541625807903"><ele>2010.0</ele><time>2026-03-22T13:38:24.01Z</time></trkpt><trkpt lat="21.875165196703932" lon="-102.49548611628774"><ele>2010.0</ele><time>2026-03-22T13:38:25.01Z</time></trkpt><trkpt lat="21.87507018628052" lon="-102.495560512027"><ele>2010.2</ele><time>2026-03-22T13:38:26.01Z</time></trkpt><trkpt lat="21.874980367766504" lon="-102.4956270910049"><ele>2010.4</ele><time>2026-03-22T13:38:27.01Z</time></trkpt><trkpt lat="21.874897997393738" lon="-102.49569278983418"><ele>2010.6</ele><time>2026-03-22T13:38:28.01Z</time></trkpt><trkpt lat="21.874806262854136" lon="-102.49576617076828"><ele>2010.8</ele><time>2026-03-22T13:38:29.01Z</time></trkpt><trkpt lat="21.874723489446072" lon="-102.49583352573906"><ele>2011.0</ele><time>2026-03-22T13:38:30.01Z</time></trkpt><trkpt lat="21.874635523201057" lon="-102.4958981331713"><ele>2011.0</ele><time>2026-03-22T13:38:31.01Z</time></trkpt><trkpt lat="21.87455220557905" lon="-102.49596009679573"><ele>2011.0</ele><time>2026-03-22T13:38:32.01Z</time></trkpt><trkpt lat="21.874462776302007" lon="-102.4960198763931"><ele>2011.0</ele><time>2026-03-22T13:38:33.01Z</time></trkpt><trkpt lat="21.87438881352393" lon="-102.49608169795611"><ele>2011.0</ele><time>2026-03-22T13:38:34.01Z</time></trkpt><trkpt lat="21.874305894480397" lon="-102.49615120131254"><ele>2011.0</ele><time>2026-03-22T13:38:35.01Z</time></trkpt><trkpt lat="21.874214058852022" lon="-102.4962249951622"><ele>2010.6</ele><time>2026-03-22T13:38:36.01Z</time></trkpt><trkpt lat="21.874127803566676" lon="-102.49628499217"><ele>2010.1999999999998</ele><time>2026-03-22T13:38:37.01Z</time></trkpt><trkpt lat="21.87404859115561" lon="-102.49634551551607"><ele>2009.8000000000002</ele><time>2026-03-22T13:38:38.01Z</time></trkpt><trkpt lat="21.87397184559046" lon="-102.49641016025286"><ele>2009.4</ele><time>2026-03-22T13:38:39.01Z</time></trkpt><trkpt lat="21.873871889006864" lon="-102.4964761794317"><ele>2009.0</ele><time>2026-03-22T13:38:40.01Z</time></trkpt><trkpt lat="21.873778330859697" lon="-102.49654790881532"><ele>2009.0</ele><time>2026-03-22T13:38:41.01Z</time></trkpt><trkpt lat="21.873695994596016" lon="-102.49661335460682"><ele>2009.0</ele><time>2026-03-22T13:38:42.01Z</time></trkpt><trkpt lat="21.873616509761867" lon="-102.49667922271529"><ele>2009.0</ele><time>2026-03-22T13:38:43.01Z</time></trkpt><trkpt lat="21.87353192138831" lon="-102.49674694508101"><ele>2009.0</ele><time>2026-03-22T13:38:44.01Z</time></trkpt><trkpt lat="21.873449529235256" lon="-102.49681564078087"><ele>2009.0</ele><time>2026-03-22T13:38:45.01Z</time></trkpt><trkpt lat="21.87336268848454" lon="-102.49688018464579"><ele>2009.0</ele><time>2026-03-22T13:38:46.01Z</time></trkpt><trkpt lat="21.873271044840553" lon="-102.49694949576539"><ele>2009.0</ele><time>2026-03-22T13:38:47.01Z</time></trkpt><trkpt lat="21.873182384300204" lon="-102.49701452648152"><ele>2009.0</ele><time>2026-03-22T13:38:48.01Z</time></trkpt><trkpt lat="21.87310242565393" lon="-102.4970758612266"><ele>2009.0</ele><time>2026-03-22T13:38:49.01Z</time></trkpt><trkpt lat="21.873027108100562" lon="-102.49714417355526"><ele>2009.0</ele><time>2026-03-22T13:38:50.01Z</time></trkpt><trkpt lat="21.87293091870951" lon="-102.49720837154672"><ele>2009.0</ele><time>2026-03-22T13:38:51.01Z</time></trkpt><trkpt lat="21.872849499464714" lon="-102.4972795962762"><ele>2009.0</ele><time>2026-03-22T13:38:52.01Z</time></trkpt><trkpt lat="21.87276463793065" lon="-102.4973485409963"><ele>2009.0</ele><time>2026-03-22T13:38:53.01Z</time></trkpt><trkpt lat="21.872676492024716" lon="-102.49741169872075"><ele>2009.0</ele><time>2026-03-22T13:38:54.01Z</time></trkpt><trkpt lat="21.872590178889652" lon="-102.497476201143"><ele>2009.0</ele><time>2026-03-22T13:38:55.01Z</time></trkpt><trkpt lat="21.87248956100234" lon="-102.4975588031535"><ele>2009.0</ele><time>2026-03-22T13:38:56.01Z</time></trkpt><trkpt lat="21.87238817738778" lon="-102.49763531638605"><ele>2009.0</ele><time>2026-03-22T13:38:57.01Z</time></trkpt><trkpt lat="21.872297844782658" lon="-102.49770221019168"><ele>2009.0</ele><time>2026-03-22T13:38:58.01Z</time></trkpt><trkpt lat="21.872197454454955" lon="-102.49777511821382"><ele>2009.0</ele><time>2026-03-22T13:38:59.01Z</time></trkpt><trkpt lat="21.872100506160525" lon="-102.49784862901684"><ele>2008.5</ele><time>2026-03-22T13:39:00.009Z</time></trkpt><trkpt lat="21.872005315380427" lon="-102.49792084264128"><ele>2008.0</ele><time>2026-03-22T13:39:01.009Z</time></trkpt><trkpt lat="21.87191650898482" lon="-102.49799746904725"><ele>2007.5</ele><time>2026-03-22T13:39:02.009Z</time></trkpt><trkpt lat="21.871819734802568" lon="-102.49806868266342"><ele>2007.0</ele><time>2026-03-22T13:39:03.009Z</time></trkpt><trkpt lat="21.871718384918232" lon="-102.49814541471011"><ele>2007.0</ele><time>2026-03-22T13:39:04.011Z</time></trkpt><trkpt lat="21.87161658662984" lon="-102.49822996635686"><ele>2007.0</ele><time>2026-03-22T13:39:05.011Z</time></trkpt><trkpt lat="21.871523794158815" lon="-102.49829540965094"><ele>2007.0</ele><time>2026-03-22T13:39:06.011Z</time></trkpt><trkpt lat="21.871429037829618" lon="-102.49836427251164"><ele>2007.0</ele><time>2026-03-22T13:39:07.011Z</time></trkpt><trkpt lat="21.871337843078688" lon="-102.49842819522365"><ele>2007.0</ele><time>2026-03-22T13:39:08.011Z</time></trkpt><trkpt lat="21.871253631601608" lon="-102.49848915631621"><ele>2006.9999999999998</ele><time>2026-03-22T13:39:09.011Z</time></trkpt><trkpt lat="21.871178632517562" lon="-102.49855031386592"><ele>2006.9999999999998</ele><time>2026-03-22T13:39:10.011Z</time></trkpt><trkpt lat="21.871104318549737" lon="-102.49861579934225"><ele>2007.0</ele><time>2026-03-22T13:39:11.012Z</time></trkpt><trkpt lat="21.871013038653793" lon="-102.4986796951355"><ele>2007.0</ele><time>2026-03-22T13:39:12.012Z</time></trkpt><trkpt lat="21.870924305175674" lon="-102.4987482552894"><ele>2007.0</ele><time>2026-03-22T13:39:13.012Z</time></trkpt><trkpt lat="21.87083597753876" lon="-102.4988124121602"><ele>2006.9999999999998</ele><time>2026-03-22T13:39:14.011Z</time></trkpt><trkpt lat="21.87074089272638" lon="-102.49888360870682"><ele>2006.9999999999998</ele><time>2026-03-22T13:39:15.011Z</time></trkpt><trkpt lat="21.87064845513256" lon="-102.49895832000927"><ele>2007.0</ele><time>2026-03-22T13:39:16.011Z</time></trkpt><trkpt lat="21.870558622196935" lon="-102.49902494943534"><ele>2007.0</ele><time>2026-03-22T13:39:17.011Z</time></trkpt><trkpt lat="21.87047206495474" lon="-102.4990959673278"><ele>2007.0</ele><time>2026-03-22T13:39:18.011Z</time></trkpt><trkpt lat="21.87038744618191" lon="-102.49915884691853"><ele>2006.9999999999998</ele><time>2026-03-22T13:39:19.011Z</time></trkpt><trkpt lat="21.87030987015478" lon="-102.49922875066896"><ele>2006.9999999999998</ele><time>2026-03-22T13:39:20.011Z</time></trkpt><trkpt lat="21.870222173009356" lon="-102.49929605267386"><ele>2007.0</ele><time>2026-03-22T13:39:21.011Z</time></trkpt><trkpt lat="21.870131961604176" lon="-102.49936398124389"><ele>2007.0</ele><time>2026-03-22T13:39:22.011Z</time></trkpt><trkpt lat="21.87005195800855" lon="-102.49942173025364"><ele>2007.0</ele><time>2026-03-22T13:39:23.011Z</time></trkpt><trkpt lat="21.869973965666254" lon="-102.49948430347568"><ele>2006.9999999999998</ele><time>2026-03-22T13:39:24.011Z</time></trkpt><trkpt lat="21.869890702233093" lon="-102.49954625345262"><ele>2006.9999999999998</ele><time>2026-03-22T13:39:25.011Z</time></trkpt><trkpt lat="21.869808846270445" lon="-102.49961079539588"><ele>2007.0</ele><time>2026-03-22T13:39:26.011Z</time></trkpt><trkpt lat="21.869726268235944" lon="-102.49966579889599"><ele>2007.0</ele><time>2026-03-22T13:39:27.011Z</time></trkpt><trkpt lat="21.86964294211312" lon="-102.49973086185193"><ele>2007.0</ele><time>2026-03-22T13:39:28.011Z</time></trkpt><trkpt lat="21.869552397722895" lon="-102.49979075161053"><ele>2006.9999999999998</ele><time>2026-03-22T13:39:29.011Z</time></trkpt><trkpt lat="21.86947161235202" lon="-102.49985098406667"><ele>2006.9999999999998</ele><time>2026-03-22T13:39:30.011Z</time></trkpt><trkpt lat="21.869385397729733" lon="-102.49990996854169"><ele>2007.0</ele><time>2026-03-22T13:39:31.011Z</time></trkpt><trkpt lat="21.8692922163911" lon="-102.49996568612357"><ele>2007.0</ele><time>2026-03-22T13:39:32.011Z</time></trkpt><trkpt lat="21.869204146455818" lon="-102.50002145338772"><ele>2007.0</ele><time>2026-03-22T13:39:33.011Z</time></trkpt><trkpt lat="21.869114091648118" lon="-102.50007941690471"><ele>2006.9999999999998</ele><time>2026-03-22T13:39:34.011Z</time></trkpt><trkpt lat="21.86902215773026" lon="-102.50013593098916"><ele>2006.9999999999998</ele><time>2026-03-22T13:39:35.011Z</time></trkpt><trkpt lat="21.86893331942582" lon="-102.50019409293157"><ele>2007.0</ele><time>2026-03-22T13:39:36.011Z</time></trkpt><trkpt lat="21.868837681707653" lon="-102.50024238575503"><ele>2007.0</ele><time>2026-03-22T13:39:37.011Z</time></trkpt><trkpt lat="21.868741717716702" lon="-102.50029511068588"><ele>2007.0</ele><time>2026-03-22T13:39:38.011Z</time></trkpt><trkpt lat="21.868649709421714" lon="-102.5003463566377"><ele>2006.9999999999998</ele><time>2026-03-22T13:39:39.011Z</time></trkpt><trkpt lat="21.868552883540076" lon="-102.50039449247826"><ele>2006.9999999999998</ele><time>2026-03-22T13:39:40.011Z</time></trkpt><trkpt lat="21.86845866106471" lon="-102.50044537299779"><ele>2007.0</ele><time>2026-03-22T13:39:41.011Z</time></trkpt><trkpt lat="21.86836083667784" lon="-102.50049727283546"><ele>2007.0</ele><time>2026-03-22T13:39:42.011Z</time></trkpt><trkpt lat="21.868260551705728" lon="-102.50054241822123"><ele>2006.8</ele><time>2026-03-22T13:39:43.011Z</time></trkpt><trkpt lat="21.86816439384173" lon="-102.50059153288143"><ele>2006.6</ele><time>2026-03-22T13:39:44.011Z</time></trkpt><trkpt lat="21.86807744029564" lon="-102.50063037426835"><ele>2006.3999999999999</ele><time>2026-03-22T13:39:45.011Z</time></trkpt><trkpt lat="21.86796762535142" lon="-102.50067636883898"><ele>2006.1999999999998</ele><time>2026-03-22T13:39:46.011Z</time></trkpt><trkpt lat="21.867867204385167" lon="-102.50072085859267"><ele>2006.0</ele><time>2026-03-22T13:39:47.011Z</time></trkpt><trkpt lat="21.867758425055907" lon="-102.50076448579695"><ele>2006.0</ele><time>2026-03-22T13:39:48.011Z</time></trkpt><trkpt lat="21.86766080870884" lon="-102.5008137525506"><ele>2006.0</ele><time>2026-03-22T13:39:49.011Z</time></trkpt><trkpt lat="21.86755167229397" lon="-102.50085986641925"><ele>2006.0</ele><time>2026-03-22T13:39:50.011Z</time></trkpt><trkpt lat="21.86744874017442" lon="-102.50090496837335"><ele>2006.0</ele><time>2026-03-22T13:39:51.011Z</time></trkpt><trkpt lat="21.86735528485332" lon="-102.50095513431259"><ele>2006.0</ele><time>2026-03-22T13:39:52.011Z</time></trkpt><trkpt lat="21.86724803958427" lon="-102.50100398559296"><ele>2006.0</ele><time>2026-03-22T13:39:53.011Z</time></trkpt><trkpt lat="21.867146284730932" lon="-102.50105167791088"><ele>2006.0</ele><time>2026-03-22T13:39:54.01Z</time></trkpt><trkpt lat="21.867042318373024" lon="-102.50109613067553"><ele>2006.0</ele><time>2026-03-22T13:39:55.01Z</time></trkpt><trkpt lat="21.866937385682856" lon="-102.50114380370077"><ele>2006.0</ele><time>2026-03-22T13:39:56.01Z</time></trkpt><trkpt lat="21.866837594504247" lon="-102.50119697422096"><ele>2006.0</ele><time>2026-03-22T13:39:57.01Z</time></trkpt><trkpt lat="21.866732169252135" lon="-102.5012399393104"><ele>2005.6</ele><time>2026-03-22T13:39:58.01Z</time></trkpt><trkpt lat="21.866627918724156" lon="-102.5012867043247"><ele>2005.1999999999998</ele><time>2026-03-22T13:39:59.01Z</time></trkpt><trkpt lat="21.866521037962944" lon="-102.50133454321157"><ele>2004.8000000000002</ele><time>2026-03-22T13:40:00.01Z</time></trkpt><trkpt lat="21.86642460380918" lon="-102.50138284153132"><ele>2004.4</ele><time>2026-03-22T13:40:01.01Z</time></trkpt><trkpt lat="21.866323406190276" lon="-102.5014292765338"><ele>2004.0</ele><time>2026-03-22T13:40:02.01Z</time></trkpt><trkpt lat="21.866232918826878" lon="-102.50148216792181"><ele>2004.0</ele><time>2026-03-22T13:40:03.01Z</time></trkpt><trkpt lat="21.866136178856564" lon="-102.50153642330135"><ele>2004.0</ele><time>2026-03-22T13:40:04.01Z</time></trkpt><trkpt lat="21.86604037317586" lon="-102.50160086944199"><ele>2004.0</ele><time>2026-03-22T13:40:05.01Z</time></trkpt><trkpt lat="21.865951958178833" lon="-102.5016706414745"><ele>2004.0</ele><time>2026-03-22T13:40:06.01Z</time></trkpt><trkpt lat="21.86585877464292" lon="-102.50174637555853"><ele>2004.0</ele><time>2026-03-22T13:40:07.01Z</time></trkpt><trkpt lat="21.865770466475645" lon="-102.50183036389123"><ele>2004.25</ele><time>2026-03-22T13:40:08.01Z</time></trkpt><trkpt lat="21.86568367433121" lon="-102.50191113337407"><ele>2004.5</ele><time>2026-03-22T13:40:09.01Z</time></trkpt><trkpt lat="21.865603686364285" lon="-102.50199836687095"><ele>2004.75</ele><time>2026-03-22T13:40:10.01Z</time></trkpt><trkpt lat="21.865530201177002" lon="-102.50209213483492"><ele>2005.0</ele><time>2026-03-22T13:40:11.01Z</time></trkpt><trkpt lat="21.865458259617103" lon="-102.50218370173909"><ele>2003.75</ele><time>2026-03-22T13:40:12.01Z</time></trkpt><trkpt lat="21.865387805795013" lon="-102.50228245397582"><ele>2002.5</ele><time>2026-03-22T13:40:13.01Z</time></trkpt><trkpt lat="21.865323997423708" lon="-102.50238052645382"><ele>2001.25</ele><time>2026-03-22T13:40:14.01Z</time></trkpt><trkpt lat="21.86526668396777" lon="-102.50248500827264"><ele>2000.0</ele><time>2026-03-22T13:40:15.01Z</time></trkpt><trkpt lat="21.865208007145394" lon="-102.50258881287183"><ele>2000.0</ele><time>2026-03-22T13:40:16.01Z</time></trkpt><trkpt lat="21.86515449277234" lon="-102.50270120867211"><ele>2000.0</ele><time>2026-03-22T13:40:17.01Z</time></trkpt><trkpt lat="21.865104900321157" lon="-102.50281479127621"><ele>2000.0</ele><time>2026-03-22T13:40:18.01Z</time></trkpt><trkpt lat="21.865059592745414" lon="-102.50292961591902"><ele>2000.0</ele><time>2026-03-22T13:40:19.01Z</time></trkpt><trkpt lat="21.86501783147112" lon="-102.50304748239157"><ele>2000.0</ele><time>2026-03-22T13:40:20.01Z</time></trkpt><trkpt lat="21.864979856076683" lon="-102.50316205061951"><ele>2000.0</ele><time>2026-03-22T13:40:21.01Z</time></trkpt><trkpt lat="21.864949815721843" lon="-102.50327489507588"><ele>2000.0</ele><time>2026-03-22T13:40:22.01Z</time></trkpt><trkpt lat="21.864908206244856" lon="-102.5033986102268"><ele>2000.0</ele><time>2026-03-22T13:40:23.01Z</time></trkpt><trkpt lat="21.86486595882573" lon="-102.50352172679703"><ele>2000.0</ele><time>2026-03-22T13:40:24.01Z</time></trkpt><trkpt lat="21.864824557298622" lon="-102.50364519812133"><ele>2000.0</ele><time>2026-03-22T13:40:25.01Z</time></trkpt><trkpt lat="21.864787061317763" lon="-102.50376537678977"><ele>2000.0</ele><time>2026-03-22T13:40:26.01Z</time></trkpt><trkpt lat="21.864748521768764" lon="-102.50388776335512"><ele>2000.0</ele><time>2026-03-22T13:40:27.01Z</time></trkpt><trkpt lat="21.864709161289984" lon="-102.50401920125734"><ele>1999.5</ele><time>2026-03-22T13:40:28.01Z</time></trkpt><trkpt lat="21.86466923246283" lon="-102.50414323375301"><ele>1999.0</ele><time>2026-03-22T13:40:29.01Z</time></trkpt><trkpt lat="21.86462888665781" lon="-102.5042741696538"><ele>1998.5</ele><time>2026-03-22T13:40:30.01Z</time></trkpt><trkpt lat="21.864586975075767" lon="-102.50439768344569"><ele>1998.0</ele><time>2026-03-22T13:40:31.01Z</time></trkpt><trkpt lat="21.864544349458715" lon="-102.50452212798237"><ele>1996.75</ele><time>2026-03-22T13:40:32.01Z</time></trkpt><trkpt lat="21.86450366882637" lon="-102.50465018775364"><ele>1995.5</ele><time>2026-03-22T13:40:33.01Z</time></trkpt><trkpt lat="21.864460162930218" lon="-102.50477759101412"><ele>1994.25</ele><time>2026-03-22T13:40:34.01Z</time></trkpt><trkpt lat="21.86441772088964" lon="-102.50490466570574"><ele>1993.0</ele><time>2026-03-22T13:40:35.01Z</time></trkpt><trkpt lat="21.864374126029144" lon="-102.50504057512984"><ele>1993.0</ele><time>2026-03-22T13:40:36.01Z</time></trkpt><trkpt lat="21.864331133208605" lon="-102.5051671463634"><ele>1993.0</ele><time>2026-03-22T13:40:37.01Z</time></trkpt><trkpt lat="21.864292734050366" lon="-102.50529183310368"><ele>1993.0</ele><time>2026-03-22T13:40:38.01Z</time></trkpt><trkpt lat="21.86425139351368" lon="-102.50542318860978"><ele>1993.0</ele><time>2026-03-22T13:40:39.01Z</time></trkpt><trkpt lat="21.864211674295465" lon="-102.50555151418936"><ele>1993.25</ele><time>2026-03-22T13:40:40.01Z</time></trkpt><trkpt lat="21.864168214287634" lon="-102.50567972505092"><ele>1993.5</ele><time>2026-03-22T13:40:41.01Z</time></trkpt><trkpt lat="21.864131583848245" lon="-102.50580116754767"><ele>1993.75</ele><time>2026-03-22T13:40:42.01Z</time></trkpt><trkpt lat="21.86408959583366" lon="-102.50592197578088"><ele>1994.0</ele><time>2026-03-22T13:40:43.01Z</time></trkpt><trkpt lat="21.864052456564295" lon="-102.5060507726284"><ele>1994.0</ele><time>2026-03-22T13:40:44.01Z</time></trkpt><trkpt lat="21.864009643852008" lon="-102.50617842263705"><ele>1994.0</ele><time>2026-03-22T13:40:45.01Z</time></trkpt><trkpt lat="21.863965495271113" lon="-102.50630716496872"><ele>1994.0</ele><time>2026-03-22T13:40:46.01Z</time></trkpt><trkpt lat="21.86392532713787" lon="-102.50644425214634"><ele>1994.0</ele><time>2026-03-22T13:40:47.01Z</time></trkpt><trkpt lat="21.86388572836989" lon="-102.50656860049865"><ele>1992.75</ele><time>2026-03-22T13:40:48.01Z</time></trkpt><trkpt lat="21.863845253489988" lon="-102.5066968058231"><ele>1991.5</ele><time>2026-03-22T13:40:49.01Z</time></trkpt><trkpt lat="21.863798646384346" lon="-102.50682407739093"><ele>1990.25</ele><time>2026-03-22T13:40:50.01Z</time></trkpt><trkpt lat="21.86375378333051" lon="-102.50695962487168"><ele>1989.0</ele><time>2026-03-22T13:40:51.01Z</time></trkpt><trkpt lat="21.86371219778167" lon="-102.50709414436514"><ele>1988.25</ele><time>2026-03-22T13:40:52.01Z</time></trkpt><trkpt lat="21.86366560858933" lon="-102.5072224338311"><ele>1987.5</ele><time>2026-03-22T13:40:53.01Z</time></trkpt><trkpt lat="21.86362135764233" lon="-102.50735295033604"><ele>1986.75</ele><time>2026-03-22T13:40:54.01Z</time></trkpt><trkpt lat="21.86357693772509" lon="-102.50748494896231"><ele>1986.0</ele><time>2026-03-22T13:40:55.01Z</time></trkpt><trkpt lat="21.863534350408678" lon="-102.50761944681078"><ele>1986.0</ele><time>2026-03-22T13:40:56.01Z</time></trkpt><trkpt lat="21.863489392856618" lon="-102.50775065809964"><ele>1986.0</ele><time>2026-03-22T13:40:57.01Z</time></trkpt><trkpt lat="21.86344721508997" lon="-102.5078836726025"><ele>1986.0</ele><time>2026-03-22T13:40:58.01Z</time></trkpt><trkpt lat="21.863399099037384" lon="-102.50801823958103"><ele>1986.0</ele><time>2026-03-22T13:40:59.01Z</time></trkpt><trkpt lat="21.86334987726031" lon="-102.50816026152721"><ele>1986.25</ele><time>2026-03-22T13:41:00.01Z</time></trkpt><trkpt lat="21.86330187425078" lon="-102.50829423423502"><ele>1986.5</ele><time>2026-03-22T13:41:01.01Z</time></trkpt><trkpt lat="21.863256126604465" lon="-102.50842709855384"><ele>1986.75</ele><time>2026-03-22T13:41:02.01Z</time></trkpt><trkpt lat="21.86320935378678" lon="-102.50856145615452"><ele>1987.0</ele><time>2026-03-22T13:41:03.01Z</time></trkpt><trkpt lat="21.863169042154833" lon="-102.50869979233075"><ele>1986.0</ele><time>2026-03-22T13:41:04.01Z</time></trkpt><trkpt lat="21.86312523127907" lon="-102.50883918845315"><ele>1985.0</ele><time>2026-03-22T13:41:05.01Z</time></trkpt><trkpt lat="21.863080246886177" lon="-102.50897563452786"><ele>1984.0</ele><time>2026-03-22T13:41:06.01Z</time></trkpt><trkpt lat="21.863034777103167" lon="-102.50911168195138"><ele>1983.0</ele><time>2026-03-22T13:41:07.01Z</time></trkpt><trkpt lat="21.86298481053791" lon="-102.50925367741085"><ele>1983.0</ele><time>2026-03-22T13:41:08.01Z</time></trkpt><trkpt lat="21.86293823693616" lon="-102.5093885807471"><ele>1983.0</ele><time>2026-03-22T13:41:09.01Z</time></trkpt><trkpt lat="21.862891482587056" lon="-102.50952876577672"><ele>1983.0</ele><time>2026-03-22T13:41:10.012Z</time></trkpt><trkpt lat="21.862847300452454" lon="-102.50966522854466"><ele>1983.0</ele><time>2026-03-22T13:41:11.011Z</time></trkpt><trkpt lat="21.862805534836152" lon="-102.50979650352255"><ele>1983.25</ele><time>2026-03-22T13:41:12.011Z</time></trkpt><trkpt lat="21.86274795081951" lon="-102.50992545222996"><ele>1983.5</ele><time>2026-03-22T13:41:13.011Z</time></trkpt><trkpt lat="21.86270051024907" lon="-102.5100480460747"><ele>1983.75</ele><time>2026-03-22T13:41:14.011Z</time></trkpt><trkpt lat="21.86264796991256" lon="-102.51018388275592"><ele>1984.0</ele><time>2026-03-22T13:41:15.011Z</time></trkpt><trkpt lat="21.8625908269838" lon="-102.51030840794428"><ele>1983.5</ele><time>2026-03-22T13:41:16.011Z</time></trkpt><trkpt lat="21.86253494282142" lon="-102.51043209863579"><ele>1983.0</ele><time>2026-03-22T13:41:17.011Z</time></trkpt><trkpt lat="21.8624794536626" lon="-102.51056255536217"><ele>1982.5</ele><time>2026-03-22T13:41:18.011Z</time></trkpt><trkpt lat="21.86242155479681" lon="-102.51069076711508"><ele>1982.0</ele><time>2026-03-22T13:41:19.012Z</time></trkpt><trkpt lat="21.86236087429723" lon="-102.51081421418242"><ele>1982.0</ele><time>2026-03-22T13:41:20.011Z</time></trkpt><trkpt lat="21.862300379227232" lon="-102.5109347364101"><ele>1982.0</ele><time>2026-03-22T13:41:21.011Z</time></trkpt><trkpt lat="21.86223434012448" lon="-102.51105834804332"><ele>1982.0</ele><time>2026-03-22T13:41:22.011Z</time></trkpt><trkpt lat="21.862170977216476" lon="-102.51118397315328"><ele>1982.0</ele><time>2026-03-22T13:41:23.011Z</time></trkpt><trkpt lat="21.862105374801576" lon="-102.51130874112383"><ele>1981.0</ele><time>2026-03-22T13:41:24.011Z</time></trkpt><trkpt lat="21.86204241896932" lon="-102.51143820806074"><ele>1980.0</ele><time>2026-03-22T13:41:25.011Z</time></trkpt><trkpt lat="21.86198296950817" lon="-102.51156562836177"><ele>1979.0</ele><time>2026-03-22T13:41:26.011Z</time></trkpt><trkpt lat="21.861917604056604" lon="-102.511692963891"><ele>1978.0</ele><time>2026-03-22T13:41:27.011Z</time></trkpt><trkpt lat="21.861853382448366" lon="-102.51182843206627"><ele>1978.0</ele><time>2026-03-22T13:41:28.011Z</time></trkpt><trkpt lat="21.861792072989182" lon="-102.51195182126438"><ele>1978.0</ele><time>2026-03-22T13:41:29.011Z</time></trkpt><trkpt lat="21.86172384331606" lon="-102.51208285597652"><ele>1978.0</ele><time>2026-03-22T13:41:30.011Z</time></trkpt><trkpt lat="21.86165601602987" lon="-102.51221247588987"><ele>1978.0</ele><time>2026-03-22T13:41:31.011Z</time></trkpt><trkpt lat="21.86159041799262" lon="-102.51234231266542"><ele>1978.25</ele><time>2026-03-22T13:41:32.011Z</time></trkpt><trkpt lat="21.86153054074548" lon="-102.51247463783396"><ele>1978.5</ele><time>2026-03-22T13:41:33.011Z</time></trkpt><trkpt lat="21.861463989445053" lon="-102.51260540867796"><ele>1978.75</ele><time>2026-03-22T13:41:34.011Z</time></trkpt><trkpt lat="21.86140020980027" lon="-102.51274635209494"><ele>1979.0</ele><time>2026-03-22T13:41:35.011Z</time></trkpt><trkpt lat="21.861327857626634" lon="-102.51288287796415"><ele>1977.3333333333333</ele><time>2026-03-22T13:41:36.011Z</time></trkpt><trkpt lat="21.86124965068457" lon="-102.51303195245053"><ele>1975.6666666666665</ele><time>2026-03-22T13:41:37.011Z</time></trkpt><trkpt lat="21.861180916527307" lon="-102.51317519095161"><ele>1974.0</ele><time>2026-03-22T13:41:38.011Z</time></trkpt><trkpt lat="21.861113275477482" lon="-102.51331866495674"><ele>1974.0</ele><time>2026-03-22T13:41:39.011Z</time></trkpt><trkpt lat="21.86103819492577" lon="-102.51346742702285"><ele>1974.0</ele><time>2026-03-22T13:41:40.011Z</time></trkpt><trkpt lat="21.860966692601437" lon="-102.5136159595664"><ele>1974.0</ele><time>2026-03-22T13:41:41.011Z</time></trkpt><trkpt lat="21.86089453701347" lon="-102.51375859013132"><ele>1971.6666666666665</ele><time>2026-03-22T13:41:42.011Z</time></trkpt><trkpt lat="21.860812091791274" lon="-102.51389663206761"><ele>1969.3333333333333</ele><time>2026-03-22T13:41:43.011Z</time></trkpt><trkpt lat="21.86072297137767" lon="-102.51403208510929"><ele>1967.0</ele><time>2026-03-22T13:41:44.011Z</time></trkpt><trkpt lat="21.860624413585775" lon="-102.51417211263703"><ele>1967.0</ele><time>2026-03-22T13:41:45.011Z</time></trkpt><trkpt lat="21.860521524807968" lon="-102.51430486254195"><ele>1967.0</ele><time>2026-03-22T13:41:46.011Z</time></trkpt><trkpt lat="21.860404335429866" lon="-102.514433254194"><ele>1967.0</ele><time>2026-03-22T13:41:47.011Z</time></trkpt><trkpt lat="21.86028274940025" lon="-102.5145503858757"><ele>1965.0</ele><time>2026-03-22T13:41:48.011Z</time></trkpt><trkpt lat="21.86016326762629" lon="-102.51467409430917"><ele>1963.0</ele><time>2026-03-22T13:41:49.011Z</time></trkpt><trkpt lat="21.860034470845417" lon="-102.5148011185211"><ele>1961.0</ele><time>2026-03-22T13:41:50.011Z</time></trkpt><trkpt lat="21.85990608631423" lon="-102.51490667198195"><ele>1961.0</ele><time>2026-03-22T13:41:51.011Z</time></trkpt><trkpt lat="21.859781681857992" lon="-102.51502338497205"><ele>1961.0</ele><time>2026-03-22T13:41:52.011Z</time></trkpt><trkpt lat="21.859655167929287" lon="-102.5151426330889"><ele>1961.0</ele><time>2026-03-22T13:41:53.011Z</time></trkpt><trkpt lat="21.859534873906867" lon="-102.51525623713019"><ele>1961.0</ele><time>2026-03-22T13:41:54.011Z</time></trkpt><trkpt lat="21.859417481463968" lon="-102.51536547909629"><ele>1961.0</ele><time>2026-03-22T13:41:55.011Z</time></trkpt><trkpt lat="21.859299328084013" lon="-102.51547786101676"><ele>1961.0</ele><time>2026-03-22T13:41:56.011Z</time></trkpt><trkpt lat="21.859181240841266" lon="-102.51559060667103"><ele>1960.0</ele><time>2026-03-22T13:41:57.011Z</time></trkpt><trkpt lat="21.859063991497585" lon="-102.5156991181451"><ele>1959.0</ele><time>2026-03-22T13:41:58.011Z</time></trkpt><trkpt lat="21.85894419057869" lon="-102.51581580027184"><ele>1958.0</ele><time>2026-03-22T13:41:59.011Z</time></trkpt><trkpt lat="21.858824551192892" lon="-102.51593090985163"><ele>1958.0</ele><time>2026-03-22T13:42:00.011Z</time></trkpt><trkpt lat="21.858711141780272" lon="-102.51604164988967"><ele>1958.0</ele><time>2026-03-22T13:42:01.011Z</time></trkpt><trkpt lat="21.858598038508845" lon="-102.51615416914554"><ele>1958.0</ele><time>2026-03-22T13:42:02.011Z</time></trkpt><trkpt lat="21.858486938151874" lon="-102.51626958243409"><ele>1957.3333333333333</ele><time>2026-03-22T13:42:03.011Z</time></trkpt><trkpt lat="21.858380902889547" lon="-102.51639278602596"><ele>1956.6666666666665</ele><time>2026-03-22T13:42:04.011Z</time></trkpt><trkpt lat="21.858282697588123" lon="-102.51652672546788"><ele>1956.0</ele><time>2026-03-22T13:42:05.011Z</time></trkpt><trkpt lat="21.85818550820036" lon="-102.51666149551916"><ele>1956.0</ele><time>2026-03-22T13:42:06.011Z</time></trkpt><trkpt lat="21.85809929643809" lon="-102.5168060397292"><ele>1956.0</ele><time>2026-03-22T13:42:07.011Z</time></trkpt><trkpt lat="21.857936288833088" lon="-102.51711049629118"><ele>1954.6666666666665</ele><time>2026-03-22T13:42:09.011Z</time></trkpt><trkpt lat="21.857868382808213" lon="-102.51727409736512"><ele>1953.3333333333333</ele><time>2026-03-22T13:42:10.011Z</time></trkpt><trkpt lat="21.857804594969373" lon="-102.51743345468999"><ele>1952.0</ele><time>2026-03-22T13:42:11.011Z</time></trkpt><trkpt lat="21.857747190454024" lon="-102.51758996709982"><ele>1952.0</ele><time>2026-03-22T13:42:12.011Z</time></trkpt><trkpt lat="21.85769304481282" lon="-102.51775573371752"><ele>1952.0</ele><time>2026-03-22T13:42:13.011Z</time></trkpt><trkpt lat="21.85765300631197" lon="-102.51792437799081"><ele>1952.0</ele><time>2026-03-22T13:42:14.011Z</time></trkpt><trkpt lat="21.857616274530073" lon="-102.5180923811021"><ele>1950.3333333333333</ele><time>2026-03-22T13:42:15.011Z</time></trkpt><trkpt lat="21.857583768021307" lon="-102.51826856692763"><ele>1948.6666666666665</ele><time>2026-03-22T13:42:16.011Z</time></trkpt><trkpt lat="21.857546177130754" lon="-102.51844588560344"><ele>1947.0</ele><time>2026-03-22T13:42:17.011Z</time></trkpt><trkpt lat="21.857507523486113" lon="-102.51862699973447"><ele>1945.3333333333335</ele><time>2026-03-22T13:42:18.011Z</time></trkpt><trkpt lat="21.857468770241713" lon="-102.5188120509403"><ele>1943.6666666666667</ele><time>2026-03-22T13:42:19.011Z</time></trkpt><trkpt lat="21.857423873576224" lon="-102.51899499507982"><ele>1942.0</ele><time>2026-03-22T13:42:20.01Z</time></trkpt><trkpt lat="21.857384099523156" lon="-102.51917605793867"><ele>1942.0</ele><time>2026-03-22T13:42:21.01Z</time></trkpt><trkpt lat="21.857342687783003" lon="-102.51935914239134"><ele>1942.0</ele><time>2026-03-22T13:42:22.01Z</time></trkpt><trkpt lat="21.857303213748104" lon="-102.51953759979641"><ele>1942.0</ele><time>2026-03-22T13:42:23.01Z</time></trkpt><trkpt lat="21.85726340428725" lon="-102.51972185566646"><ele>1940.0</ele><time>2026-03-22T13:42:24.01Z</time></trkpt><trkpt lat="21.857223450322675" lon="-102.51990644709795"><ele>1938.0</ele><time>2026-03-22T13:42:25.01Z</time></trkpt><trkpt lat="21.857184416770085" lon="-102.52008969643049"><ele>1936.0</ele><time>2026-03-22T13:42:26.01Z</time></trkpt><trkpt lat="21.85714483056448" lon="-102.52027734837927"><ele>1933.6666666666667</ele><time>2026-03-22T13:42:27.01Z</time></trkpt><trkpt lat="21.85709696216357" lon="-102.5204662136693"><ele>1931.3333333333335</ele><time>2026-03-22T13:42:28.01Z</time></trkpt><trkpt lat="21.85705656841608" lon="-102.5206627691517"><ele>1929.0</ele><time>2026-03-22T13:42:29.01Z</time></trkpt><trkpt lat="21.85701845853878" lon="-102.52084051706304"><ele>1929.0</ele><time>2026-03-22T13:42:30.01Z</time></trkpt><trkpt lat="21.856979740213546" lon="-102.52101305970608"><ele>1929.0</ele><time>2026-03-22T13:42:31.01Z</time></trkpt><trkpt lat="21.856942896350642" lon="-102.52117573026564"><ele>1929.0</ele><time>2026-03-22T13:42:32.01Z</time></trkpt><trkpt lat="21.85690651819816" lon="-102.52134109644685"><ele>1928.3333333333335</ele><time>2026-03-22T13:42:33.01Z</time></trkpt><trkpt lat="21.856867269587198" lon="-102.52151690162049"><ele>1927.6666666666667</ele><time>2026-03-22T13:42:34.01Z</time></trkpt><trkpt lat="21.85682966658056" lon="-102.52168542974836"><ele>1927.0</ele><time>2026-03-22T13:42:35.01Z</time></trkpt><trkpt lat="21.856796827578403" lon="-102.52185799598023"><ele>1926.6666666666667</ele><time>2026-03-22T13:42:36.01Z</time></trkpt><trkpt lat="21.856756887559232" lon="-102.52202582981307"><ele>1926.3333333333335</ele><time>2026-03-22T13:42:37.01Z</time></trkpt><trkpt lat="21.856715818779797" lon="-102.52219762656517"><ele>1926.0</ele><time>2026-03-22T13:42:38.01Z</time></trkpt><trkpt lat="21.85668038810165" lon="-102.52236882189035"><ele>1926.0</ele><time>2026-03-22T13:42:39.01Z</time></trkpt><trkpt lat="21.856643107120235" lon="-102.52253670290361"><ele>1926.0</ele><time>2026-03-22T13:42:40.01Z</time></trkpt><trkpt lat="21.85660308857136" lon="-102.52271061622665"><ele>1926.0</ele><time>2026-03-22T13:42:41.01Z</time></trkpt><trkpt lat="21.856567169844304" lon="-102.52288233921153"><ele>1925.6666666666665</ele><time>2026-03-22T13:42:42.01Z</time></trkpt><trkpt lat="21.85652776909391" lon="-102.52305039158118"><ele>1925.3333333333333</ele><time>2026-03-22T13:42:43.01Z</time></trkpt><trkpt lat="21.856492201909933" lon="-102.52321489886062"><ele>1925.0</ele><time>2026-03-22T13:42:44.01Z</time></trkpt><trkpt lat="21.85645522176163" lon="-102.52337896380831"><ele>1925.0</ele><time>2026-03-22T13:42:45.01Z</time></trkpt><trkpt lat="21.85642125401286" lon="-102.52354103877451"><ele>1925.0</ele><time>2026-03-22T13:42:46.01Z</time></trkpt><trkpt lat="21.85638507330413" lon="-102.5237073132764"><ele>1925.0</ele><time>2026-03-22T13:42:47.01Z</time></trkpt><trkpt lat="21.856353812021467" lon="-102.52387061509992"><ele>1924.0</ele><time>2026-03-22T13:42:48.01Z</time></trkpt><trkpt lat="21.856318406357694" lon="-102.52402931421636"><ele>1923.0</ele><time>2026-03-22T13:42:49.01Z</time></trkpt><trkpt lat="21.856283423685117" lon="-102.52419283279227"><ele>1922.0</ele><time>2026-03-22T13:42:50.01Z</time></trkpt><trkpt lat="21.856250641481427" lon="-102.5243529146616"><ele>1922.0</ele><time>2026-03-22T13:42:51.01Z</time></trkpt><trkpt lat="21.856216768589768" lon="-102.52451420358857"><ele>1922.0</ele><time>2026-03-22T13:42:52.01Z</time></trkpt><trkpt lat="21.85617936659258" lon="-102.52467909373375"><ele>1922.0</ele><time>2026-03-22T13:42:53.01Z</time></trkpt><trkpt lat="21.856149420044677" lon="-102.52483174351657"><ele>1921.3333333333333</ele><time>2026-03-22T13:42:54.01Z</time></trkpt><trkpt lat="21.856113638314785" lon="-102.52499053986269"><ele>1920.6666666666665</ele><time>2026-03-22T13:42:55.01Z</time></trkpt><trkpt lat="21.85607911612144" lon="-102.52515333523425"><ele>1920.0</ele><time>2026-03-22T13:42:56.01Z</time></trkpt><trkpt lat="21.85604414032472" lon="-102.52530897742668"><ele>1920.0</ele><time>2026-03-22T13:42:57.01Z</time></trkpt><trkpt lat="21.85600717031956" lon="-102.52546510592619"><ele>1920.0</ele><time>2026-03-22T13:42:58.01Z</time></trkpt><trkpt lat="21.855975414059774" lon="-102.5256218176644"><ele>1920.0</ele><time>2026-03-22T13:42:59.01Z</time></trkpt><trkpt lat="21.85594696689742" lon="-102.52577853045959"><ele>1920.0</ele><time>2026-03-22T13:43:00.01Z</time></trkpt><trkpt lat="21.855911726949053" lon="-102.52592939598586"><ele>1920.0</ele><time>2026-03-22T13:43:01.01Z</time></trkpt><trkpt lat="21.85587752452256" lon="-102.52607550392118"><ele>1920.0</ele><time>2026-03-22T13:43:02.01Z</time></trkpt><trkpt lat="21.85584605108586" lon="-102.52621413050959"><ele>1920.0</ele><time>2026-03-22T13:43:03.01Z</time></trkpt><trkpt lat="21.855813884476746" lon="-102.52635812581563"><ele>1920.0</ele><time>2026-03-22T13:43:04.01Z</time></trkpt><trkpt lat="21.85577728485455" lon="-102.52649936527581"><ele>1919.5</ele><time>2026-03-22T13:43:05.01Z</time></trkpt><trkpt lat="21.855734822754894" lon="-102.5266358211748"><ele>1919.0</ele><time>2026-03-22T13:43:06.01Z</time></trkpt><trkpt lat="21.85567594344815" lon="-102.52677201867075"><ele>1918.5</ele><time>2026-03-22T13:43:07.01Z</time></trkpt><trkpt lat="21.855609368502304" lon="-102.5269057972268"><ele>1918.0</ele><time>2026-03-22T13:43:08.01Z</time></trkpt><trkpt lat="21.855524827949232" lon="-102.52702580286935"><ele>1917.5</ele><time>2026-03-22T13:43:09.01Z</time></trkpt><trkpt lat="21.855450794649048" lon="-102.52715190903558"><ele>1917.0</ele><time>2026-03-22T13:43:10.01Z</time></trkpt><trkpt lat="21.855363553589978" lon="-102.52726255778612"><ele>1916.5</ele><time>2026-03-22T13:43:11.01Z</time></trkpt><trkpt lat="21.85527743166038" lon="-102.52736576298736"><ele>1916.0</ele><time>2026-03-22T13:43:12.01Z</time></trkpt><trkpt lat="21.85518780970896" lon="-102.52746728812853"><ele>1915.75</ele><time>2026-03-22T13:43:13.01Z</time></trkpt><trkpt lat="21.855093891241893" lon="-102.52754792808487"><ele>1915.5</ele><time>2026-03-22T13:43:14.01Z</time></trkpt><trkpt lat="21.85500422674411" lon="-102.52762079047824"><ele>1915.25</ele><time>2026-03-22T13:43:15.01Z</time></trkpt><trkpt lat="21.854905721651896" lon="-102.52769510227488"><ele>1915.0</ele><time>2026-03-22T13:43:16.012Z</time></trkpt><trkpt lat="21.85480068714713" lon="-102.52775048678016"><ele>1915.0</ele><time>2026-03-22T13:43:17.012Z</time></trkpt><trkpt lat="21.85469920712185" lon="-102.52780609720581"><ele>1915.0</ele><time>2026-03-22T13:43:18.012Z</time></trkpt><trkpt lat="21.854595306283873" lon="-102.52784994300661"><ele>1915.0</ele><time>2026-03-22T13:43:19.011Z</time></trkpt><trkpt lat="21.854488684158262" lon="-102.52789582177562"><ele>1915.0</ele><time>2026-03-22T13:43:20.012Z</time></trkpt><trkpt lat="21.854389986142316" lon="-102.52794491171441"><ele>1915.0</ele><time>2026-03-22T13:43:21.011Z</time></trkpt><trkpt lat="21.854287916484747" lon="-102.52798618842834"><ele>1914.25</ele><time>2026-03-22T13:43:22.011Z</time></trkpt><trkpt lat="21.854185131019594" lon="-102.52802773512647"><ele>1913.5</ele><time>2026-03-22T13:43:23.011Z</time></trkpt><trkpt lat="21.854075911108012" lon="-102.52806724414732"><ele>1912.75</ele><time>2026-03-22T13:43:24.011Z</time></trkpt><trkpt lat="21.853970982530615" lon="-102.52810651787797"><ele>1912.0</ele><time>2026-03-22T13:43:25.011Z</time></trkpt><trkpt lat="21.85385984626183" lon="-102.5281482194239"><ele>1912.0</ele><time>2026-03-22T13:43:26.011Z</time></trkpt><trkpt lat="21.853748621891768" lon="-102.52818937207654"><ele>1912.0</ele><time>2026-03-22T13:43:27.011Z</time></trkpt><trkpt lat="21.853643194716614" lon="-102.5282279938232"><ele>1912.0</ele><time>2026-03-22T13:43:28.011Z</time></trkpt><trkpt lat="21.853535540507334" lon="-102.52826634621594"><ele>1912.0</ele><time>2026-03-22T13:43:29.012Z</time></trkpt><trkpt lat="21.853432246246296" lon="-102.52830422027318"><ele>1912.25</ele><time>2026-03-22T13:43:30.012Z</time></trkpt><trkpt lat="21.853324948714196" lon="-102.52834778817461"><ele>1912.5</ele><time>2026-03-22T13:43:31.012Z</time></trkpt><trkpt lat="21.853224316778782" lon="-102.52839006454923"><ele>1912.75</ele><time>2026-03-22T13:43:32.012Z</time></trkpt><trkpt lat="21.853119533999955" lon="-102.5284291068722"><ele>1913.0</ele><time>2026-03-22T13:43:33.012Z</time></trkpt><trkpt lat="21.853010073470273" lon="-102.52847183831993"><ele>1913.0</ele><time>2026-03-22T13:43:34.012Z</time></trkpt><trkpt lat="21.85289688737619" lon="-102.52851746465568"><ele>1913.0</ele><time>2026-03-22T13:43:35.012Z</time></trkpt><trkpt lat="21.852785842540932" lon="-102.52856150302699"><ele>1913.0</ele><time>2026-03-22T13:43:36.011Z</time></trkpt><trkpt lat="21.852677004274927" lon="-102.528600537796"><ele>1913.0</ele><time>2026-03-22T13:43:37.011Z</time></trkpt><trkpt lat="21.85257568052457" lon="-102.52864387089464"><ele>1913.0</ele><time>2026-03-22T13:43:38.011Z</time></trkpt><trkpt lat="21.852473415341553" lon="-102.52868618175212"><ele>1913.0000000000002</ele><time>2026-03-22T13:43:39.011Z</time></trkpt><trkpt lat="21.852372357811454" lon="-102.52872543160237"><ele>1913.0000000000002</ele><time>2026-03-22T13:43:40.011Z</time></trkpt><trkpt lat="21.852270259388966" lon="-102.52876831402337"><ele>1913.0</ele><time>2026-03-22T13:43:41.011Z</time></trkpt><trkpt lat="21.852165214573045" lon="-102.52881023830948"><ele>1913.0</ele><time>2026-03-22T13:43:42.011Z</time></trkpt><trkpt lat="21.852063857099928" lon="-102.52885025539669"><ele>1912.25</ele><time>2026-03-22T13:43:43.011Z</time></trkpt><trkpt lat="21.85195738750921" lon="-102.52889223663443"><ele>1911.5</ele><time>2026-03-22T13:43:44.011Z</time></trkpt><trkpt lat="21.851851516090633" lon="-102.52893593135703"><ele>1910.75</ele><time>2026-03-22T13:43:45.011Z</time></trkpt><trkpt lat="21.85173797273589" lon="-102.5289770699051"><ele>1910.0</ele><time>2026-03-22T13:43:46.011Z</time></trkpt><trkpt lat="21.851631395421652" lon="-102.52902105555914"><ele>1909.75</ele><time>2026-03-22T13:43:47.011Z</time></trkpt><trkpt lat="21.851520903950004" lon="-102.5290655803635"><ele>1909.5</ele><time>2026-03-22T13:43:48.011Z</time></trkpt><trkpt lat="21.851404273163123" lon="-102.52911035238436"><ele>1909.25</ele><time>2026-03-22T13:43:49.011Z</time></trkpt><trkpt lat="21.85129567079594" lon="-102.52915550118044"><ele>1909.0</ele><time>2026-03-22T13:43:50.011Z</time></trkpt><trkpt lat="21.851185640571956" lon="-102.52920179745546"><ele>1909.0</ele><time>2026-03-22T13:43:51.011Z</time></trkpt><trkpt lat="21.851079823081587" lon="-102.52924404731986"><ele>1909.0</ele><time>2026-03-22T13:43:52.011Z</time></trkpt><trkpt lat="21.85097044063052" lon="-102.52928770886629"><ele>1909.0</ele><time>2026-03-22T13:43:53.011Z</time></trkpt><trkpt lat="21.850857362414363" lon="-102.52932554573954"><ele>1909.0</ele><time>2026-03-22T13:43:54.011Z</time></trkpt><trkpt lat="21.850747900597984" lon="-102.52936707954395"><ele>1908.8000000000002</ele><time>2026-03-22T13:43:55.011Z</time></trkpt><trkpt lat="21.850641494882126" lon="-102.52941280869496"><ele>1908.6000000000001</ele><time>2026-03-22T13:43:56.011Z</time></trkpt><trkpt lat="21.850540531327006" lon="-102.52945486526444"><ele>1908.4</ele><time>2026-03-22T13:43:57.011Z</time></trkpt><trkpt lat="21.85043629883452" lon="-102.52948913139218"><ele>1908.2</ele><time>2026-03-22T13:43:58.011Z</time></trkpt><trkpt lat="21.850342117421036" lon="-102.52953123541474"><ele>1908.0</ele><time>2026-03-22T13:43:59.011Z</time></trkpt><trkpt lat="21.850241615988327" lon="-102.52957133811333"><ele>1908.0</ele><time>2026-03-22T13:44:00.011Z</time></trkpt><trkpt lat="21.850139554006915" lon="-102.52961168012997"><ele>1908.0000000000002</ele><time>2026-03-22T13:44:01.011Z</time></trkpt><trkpt lat="21.850034293173106" lon="-102.52965320941813"><ele>1908.0000000000002</ele><time>2026-03-22T13:44:02.011Z</time></trkpt><trkpt lat="21.84993311692891" lon="-102.52969237577942"><ele>1908.0</ele><time>2026-03-22T13:44:03.011Z</time></trkpt><trkpt lat="21.849827479129686" lon="-102.52973689629373"><ele>1908.0</ele><time>2026-03-22T13:44:04.011Z</time></trkpt><trkpt lat="21.849721331138607" lon="-102.52977982726468"><ele>1908.2</ele><time>2026-03-22T13:44:05.011Z</time></trkpt><trkpt lat="21.849624125289647" lon="-102.52982115396163"><ele>1908.4</ele><time>2026-03-22T13:44:06.011Z</time></trkpt><trkpt lat="21.84952358604719" lon="-102.52985476002394"><ele>1908.6000000000001</ele><time>2026-03-22T13:44:07.011Z</time></trkpt><trkpt lat="21.849426549510696" lon="-102.52988916636305"><ele>1908.8000000000002</ele><time>2026-03-22T13:44:08.011Z</time></trkpt><trkpt lat="21.849329051181808" lon="-102.52992824621606"><ele>1909.0</ele><time>2026-03-22T13:44:09.011Z</time></trkpt><trkpt lat="21.84923099219286" lon="-102.52996862164827"><ele>1909.0</ele><time>2026-03-22T13:44:10.011Z</time></trkpt><trkpt lat="21.84912977696962" lon="-102.53001045603878"><ele>1909.0</ele><time>2026-03-22T13:44:11.011Z</time></trkpt><trkpt lat="21.849028268023222" lon="-102.53004709625607"><ele>1909.0</ele><time>2026-03-22T13:44:12.011Z</time></trkpt><trkpt lat="21.84893200392403" lon="-102.53009051146088"><ele>1909.0</ele><time>2026-03-22T13:44:13.011Z</time></trkpt><trkpt lat="21.84884220402447" lon="-102.53012868035177"><ele>1909.0</ele><time>2026-03-22T13:44:14.011Z</time></trkpt><trkpt lat="21.848735099298448" lon="-102.53016144999204"><ele>1909.0</ele><time>2026-03-22T13:44:15.011Z</time></trkpt><trkpt lat="21.848643648478348" lon="-102.5301983432267"><ele>1909.0</ele><time>2026-03-22T13:44:16.011Z</time></trkpt><trkpt lat="21.848552219758233" lon="-102.53023250723292"><ele>1909.0</ele><time>2026-03-22T13:44:17.011Z</time></trkpt><trkpt lat="21.848465723281926" lon="-102.5302712490121"><ele>1909.0</ele><time>2026-03-22T13:44:18.011Z</time></trkpt><trkpt lat="21.848379116057824" lon="-102.53030930433978"><ele>1909.0</ele><time>2026-03-22T13:44:19.011Z</time></trkpt><trkpt lat="21.848297243887135" lon="-102.53035120043144"><ele>1909.6666666666667</ele><time>2026-03-22T13:44:20.011Z</time></trkpt><trkpt lat="21.84822703532763" lon="-102.53039472216572"><ele>1910.3333333333335</ele><time>2026-03-22T13:44:21.011Z</time></trkpt><trkpt lat="21.84815990922073" lon="-102.53044225052658"><ele>1911.0</ele><time>2026-03-22T13:44:22.011Z</time></trkpt><trkpt lat="21.8480936099915" lon="-102.53048794559669"><ele>1911.6666666666665</ele><time>2026-03-22T13:44:23.011Z</time></trkpt><trkpt lat="21.848034600060668" lon="-102.5305359646531"><ele>1912.3333333333333</ele><time>2026-03-22T13:44:24.011Z</time></trkpt><trkpt lat="21.84798139144887" lon="-102.53058650480628"><ele>1913.0</ele><time>2026-03-22T13:44:25.011Z</time></trkpt><trkpt lat="21.847931193008588" lon="-102.53063211497141"><ele>1913.0</ele><time>2026-03-22T13:44:26.011Z</time></trkpt><trkpt lat="21.847872877393364" lon="-102.53068318237085"><ele>1913.0000000000002</ele><time>2026-03-22T13:44:27.011Z</time></trkpt><trkpt lat="21.84782869367419" lon="-102.53073503886144"><ele>1913.0000000000002</ele><time>2026-03-22T13:44:28.011Z</time></trkpt><trkpt lat="21.847745578316037" lon="-102.53083399534928"><ele>1913.0</ele><time>2026-03-22T13:44:30.011Z</time></trkpt><trkpt lat="21.84767357202352" lon="-102.53094122714052"><ele>1913.0</ele><time>2026-03-22T13:44:32.011Z</time></trkpt><trkpt lat="21.847637903487787" lon="-102.53099734623893"><ele>1914.0</ele><time>2026-03-22T13:44:33.011Z</time></trkpt><trkpt lat="21.84757891880699" lon="-102.53110295841039"><ele>1915.0</ele><time>2026-03-22T13:44:35.011Z</time></trkpt><trkpt lat="21.847520322285135" lon="-102.53120923132508"><ele>1916.0</ele><time>2026-03-22T13:44:37.011Z</time></trkpt><trkpt lat="21.847470842828123" lon="-102.531325141751"><ele>1917.0</ele><time>2026-03-22T13:44:39.011Z</time></trkpt><trkpt lat="21.847420520141732" lon="-102.53144443123796"><ele>1917.0</ele><time>2026-03-22T13:44:41.011Z</time></trkpt><trkpt lat="21.847375618494713" lon="-102.53156649367489"><ele>1917.0</ele><time>2026-03-22T13:44:43.011Z</time></trkpt><trkpt lat="21.847332722838726" lon="-102.53168092999901"><ele>1917.0</ele><time>2026-03-22T13:44:45.011Z</time></trkpt><trkpt lat="21.847307852176158" lon="-102.53174438733207"><ele>1917.0</ele><time>2026-03-22T13:44:46.011Z</time></trkpt><trkpt lat="21.847279692829613" lon="-102.53181096976301"><ele>1917.0</ele><time>2026-03-22T13:44:47.011Z</time></trkpt><trkpt lat="21.847248069136576" lon="-102.53186975450642"><ele>1917.0</ele><time>2026-03-22T13:44:48.011Z</time></trkpt><trkpt lat="21.84721726521652" lon="-102.53193777181266"><ele>1916.9999999999998</ele><time>2026-03-22T13:44:49.011Z</time></trkpt><trkpt lat="21.84719050990848" lon="-102.53200111865499"><ele>1917.0</ele><time>2026-03-22T13:44:50.011Z</time></trkpt><trkpt lat="21.84714777943222" lon="-102.53205378649841"><ele>1916.9999999999998</ele><time>2026-03-22T13:44:51.011Z</time></trkpt><trkpt lat="21.847102607718888" lon="-102.53211225067419"><ele>1916.9999999999998</ele><time>2026-03-22T13:44:52.011Z</time></trkpt><trkpt lat="21.84705365124899" lon="-102.53217687710683"><ele>1917.0</ele><time>2026-03-22T13:44:53.011Z</time></trkpt><trkpt lat="21.847007752189207" lon="-102.53223514511414"><ele>1916.9999999999998</ele><time>2026-03-22T13:44:54.011Z</time></trkpt><trkpt lat="21.84695614093852" lon="-102.53228600573273"><ele>1916.9999999999998</ele><time>2026-03-22T13:44:55.011Z</time></trkpt><trkpt lat="21.846899440757195" lon="-102.5323394499307"><ele>1917.1666666666667</ele><time>2026-03-22T13:44:56.011Z</time></trkpt><trkpt lat="21.846844611319273" lon="-102.53238230169724"><ele>1917.3333333333335</ele><time>2026-03-22T13:44:57.011Z</time></trkpt><trkpt lat="21.846791081540644" lon="-102.53241996399379"><ele>1917.5</ele><time>2026-03-22T13:44:58.01Z</time></trkpt><trkpt lat="21.846732216813287" lon="-102.5324645733999"><ele>1917.6666666666667</ele><time>2026-03-22T13:44:59.01Z</time></trkpt><trkpt lat="21.846668895157713" lon="-102.53250403306947"><ele>1917.8333333333335</ele><time>2026-03-22T13:45:00.01Z</time></trkpt><trkpt lat="21.846603843538087" lon="-102.53253614779231"><ele>1918.0</ele><time>2026-03-22T13:45:01.01Z</time></trkpt><trkpt lat="21.84648270378834" lon="-102.53259715753784"><ele>1918.5000000000002</ele><time>2026-03-22T13:45:03.01Z</time></trkpt><trkpt lat="21.84641456223911" lon="-102.53261829294546"><ele>1919.0</ele><time>2026-03-22T13:45:04.01Z</time></trkpt><trkpt lat="21.84634006447602" lon="-102.53263688313896"><ele>1919.5</ele><time>2026-03-22T13:45:05.01Z</time></trkpt><trkpt lat="21.84626312751786" lon="-102.53265013341492"><ele>1920.0</ele><time>2026-03-22T13:45:06.01Z</time></trkpt><trkpt lat="21.846189958148432" lon="-102.53266297305935"><ele>1920.5000000000002</ele><time>2026-03-22T13:45:07.01Z</time></trkpt><trkpt lat="21.84611608099343" lon="-102.53268027796207"><ele>1921.0</ele><time>2026-03-22T13:45:08.01Z</time></trkpt><trkpt lat="21.846035980520114" lon="-102.53267166822604"><ele>1921.0000000000002</ele><time>2026-03-22T13:45:09.01Z</time></trkpt><trkpt lat="21.845947765040975" lon="-102.53267004709501"><ele>1921.0</ele><time>2026-03-22T13:45:10.01Z</time></trkpt><trkpt lat="21.845863480106647" lon="-102.53266503342755"><ele>1921.0</ele><time>2026-03-22T13:45:11.01Z</time></trkpt><trkpt lat="21.845787904436623" lon="-102.53264494004563"><ele>1921.0</ele><time>2026-03-22T13:45:12.01Z</time></trkpt><trkpt lat="21.84570599066121" lon="-102.53262426972634"><ele>1921.0000000000002</ele><time>2026-03-22T13:45:13.01Z</time></trkpt><trkpt lat="21.84562877256255" lon="-102.53260404081283"><ele>1921.0</ele><time>2026-03-22T13:45:14.01Z</time></trkpt><trkpt lat="21.845553351697607" lon="-102.53258194755394"><ele>1921.0000000000002</ele><time>2026-03-22T13:45:15.01Z</time></trkpt><trkpt lat="21.84547768892403" lon="-102.5325598768601"><ele>1921.0</ele><time>2026-03-22T13:45:16.01Z</time></trkpt><trkpt lat="21.845401486685716" lon="-102.53253216927165"><ele>1921.0</ele><time>2026-03-22T13:45:17.01Z</time></trkpt><trkpt lat="21.84532187054992" lon="-102.53251739123525"><ele>1921.0</ele><time>2026-03-22T13:45:18.01Z</time></trkpt><trkpt lat="21.84524686115562" lon="-102.53248689122822"><ele>1921.0000000000002</ele><time>2026-03-22T13:45:19.01Z</time></trkpt><trkpt lat="21.845163992205414" lon="-102.53246020044163"><ele>1921.0</ele><time>2026-03-22T13:45:20.01Z</time></trkpt><trkpt lat="21.84508238229169" lon="-102.53244081219601"><ele>1921.0000000000002</ele><time>2026-03-22T13:45:21.01Z</time></trkpt><trkpt lat="21.8450022042427" lon="-102.53242239218177"><ele>1921.0</ele><time>2026-03-22T13:45:22.011Z</time></trkpt><trkpt lat="21.844932554683393" lon="-102.53239785026709"><ele>1921.0</ele><time>2026-03-22T13:45:23.011Z</time></trkpt><trkpt lat="21.844858920590163" lon="-102.53237880957728"><ele>1921.0</ele><time>2026-03-22T13:45:24.011Z</time></trkpt><trkpt lat="21.84477783558785" lon="-102.53235768518682"><ele>1921.0000000000002</ele><time>2026-03-22T13:45:25.011Z</time></trkpt><trkpt lat="21.844699252247487" lon="-102.53233996092693"><ele>1921.0</ele><time>2026-03-22T13:45:26.012Z</time></trkpt><trkpt lat="21.84461953933827" lon="-102.53231578224708"><ele>1921.0000000000002</ele><time>2026-03-22T13:45:27.012Z</time></trkpt><trkpt lat="21.844533248744085" lon="-102.53229809404135"><ele>1921.0</ele><time>2026-03-22T13:45:28.012Z</time></trkpt><trkpt lat="21.84445351437153" lon="-102.53227525603886"><ele>1921.0</ele><time>2026-03-22T13:45:29.012Z</time></trkpt><trkpt lat="21.844372240854284" lon="-102.53226005355765"><ele>1921.0</ele><time>2026-03-22T13:45:30.012Z</time></trkpt><trkpt lat="21.844284113080096" lon="-102.5322460422436"><ele>1921.0000000000002</ele><time>2026-03-22T13:45:31.011Z</time></trkpt><trkpt lat="21.844194220365818" lon="-102.5322334290613"><ele>1921.0</ele><time>2026-03-22T13:45:32.011Z</time></trkpt><trkpt lat="21.844108160377395" lon="-102.532224993154"><ele>1920.6</ele><time>2026-03-22T13:45:33.011Z</time></trkpt><trkpt lat="21.844014898443024" lon="-102.53221973558907"><ele>1920.1999999999998</ele><time>2026-03-22T13:45:34.011Z</time></trkpt><trkpt lat="21.843924860042915" lon="-102.53222710032959"><ele>1919.8000000000002</ele><time>2026-03-22T13:45:35.011Z</time></trkpt><trkpt lat="21.843833303033247" lon="-102.53223759656107"><ele>1919.4</ele><time>2026-03-22T13:45:36.011Z</time></trkpt><trkpt lat="21.84374383359779" lon="-102.53225837707022"><ele>1919.0</ele><time>2026-03-22T13:45:37.011Z</time></trkpt><trkpt lat="21.843657398275266" lon="-102.5322811856149"><ele>1919.0</ele><time>2026-03-22T13:45:38.011Z</time></trkpt><trkpt lat="21.843566250210177" lon="-102.53230765262695"><ele>1919.0</ele><time>2026-03-22T13:45:39.011Z</time></trkpt><trkpt lat="21.843479692749234" lon="-102.53233143716153"><ele>1919.0</ele><time>2026-03-22T13:45:40.011Z</time></trkpt><trkpt lat="21.843391606361607" lon="-102.53236102791107"><ele>1919.0</ele><time>2026-03-22T13:45:41.011Z</time></trkpt><trkpt lat="21.843309113508806" lon="-102.53239428018598"><ele>1919.0</ele><time>2026-03-22T13:45:42.011Z</time></trkpt><trkpt lat="21.84322451512038" lon="-102.53243350707068"><ele>1918.6</ele><time>2026-03-22T13:45:43.011Z</time></trkpt><trkpt lat="21.843142689604324" lon="-102.53247548381654"><ele>1918.2</ele><time>2026-03-22T13:45:44.011Z</time></trkpt><trkpt lat="21.843063162667566" lon="-102.5325262190496"><ele>1917.7999999999997</ele><time>2026-03-22T13:45:45.011Z</time></trkpt><trkpt lat="21.842990266412162" lon="-102.53257032860446"><ele>1917.3999999999999</ele><time>2026-03-22T13:45:46.011Z</time></trkpt><trkpt lat="21.842910171310862" lon="-102.5326310820981"><ele>1917.0</ele><time>2026-03-22T13:45:47.011Z</time></trkpt><trkpt lat="21.842835850534787" lon="-102.53268845800997"><ele>1917.0</ele><time>2026-03-22T13:45:48.011Z</time></trkpt><trkpt lat="21.842765553550528" lon="-102.53273970425722"><ele>1917.0</ele><time>2026-03-22T13:45:49.011Z</time></trkpt><trkpt lat="21.842700839610565" lon="-102.5328060321767"><ele>1917.0</ele><time>2026-03-22T13:45:50.011Z</time></trkpt><trkpt lat="21.842634593912415" lon="-102.53287023017582"><ele>1917.0</ele><time>2026-03-22T13:45:51.011Z</time></trkpt><trkpt lat="21.842564174342755" lon="-102.5329348453669"><ele>1917.0</ele><time>2026-03-22T13:45:52.011Z</time></trkpt><trkpt lat="21.842492608515094" lon="-102.53299796763326"><ele>1917.0</ele><time>2026-03-22T13:45:53.011Z</time></trkpt><trkpt lat="21.842427257081948" lon="-102.53306276466239"><ele>1917.0</ele><time>2026-03-22T13:45:54.011Z</time></trkpt><trkpt lat="21.842358480531463" lon="-102.53312314664663"><ele>1917.0</ele><time>2026-03-22T13:45:55.011Z</time></trkpt><trkpt lat="21.84228882433276" lon="-102.53319154267776"><ele>1917.0</ele><time>2026-03-22T13:45:56.011Z</time></trkpt><trkpt lat="21.84222222764938" lon="-102.53325891454621"><ele>1917.0</ele><time>2026-03-22T13:45:57.011Z</time></trkpt><trkpt lat="21.84216019310122" lon="-102.53331289668182"><ele>1917.0</ele><time>2026-03-22T13:45:58.011Z</time></trkpt><trkpt lat="21.842094301848153" lon="-102.53337783630624"><ele>1917.0</ele><time>2026-03-22T13:45:59.011Z</time></trkpt><trkpt lat="21.84203437589075" lon="-102.53343297462247"><ele>1917.0</ele><time>2026-03-22T13:46:00.011Z</time></trkpt><trkpt lat="21.841973646841332" lon="-102.5334905719641"><ele>1917.0</ele><time>2026-03-22T13:46:01.011Z</time></trkpt><trkpt lat="21.84191280778919" lon="-102.53355203089797"><ele>1917.0</ele><time>2026-03-22T13:46:02.011Z</time></trkpt><trkpt lat="21.8418505613801" lon="-102.53360828352302"><ele>1917.0</ele><time>2026-03-22T13:46:03.011Z</time></trkpt><trkpt lat="21.841794954517113" lon="-102.53366626462415"><ele>1917.0</ele><time>2026-03-22T13:46:04.011Z</time></trkpt><trkpt lat="21.84174017604124" lon="-102.53371947534644"><ele>1917.0</ele><time>2026-03-22T13:46:05.011Z</time></trkpt><trkpt lat="21.8416776147748" lon="-102.53377936032264"><ele>1917.0</ele><time>2026-03-22T13:46:06.011Z</time></trkpt><trkpt lat="21.841618276555483" lon="-102.53383869745578"><ele>1917.0</ele><time>2026-03-22T13:46:07.011Z</time></trkpt><trkpt lat="21.841555289316968" lon="-102.53389664247588"><ele>1917.0</ele><time>2026-03-22T13:46:08.011Z</time></trkpt><trkpt lat="21.84149393764257" lon="-102.53395546438513"><ele>1917.0</ele><time>2026-03-22T13:46:09.011Z</time></trkpt><trkpt lat="21.84143144524689" lon="-102.53401248915605"><ele>1917.0</ele><time>2026-03-22T13:46:10.011Z</time></trkpt><trkpt lat="21.84138021874863" lon="-102.53407003297262"><ele>1917.0</ele><time>2026-03-22T13:46:11.011Z</time></trkpt><trkpt lat="21.841327109126972" lon="-102.53411656419378"><ele>1917.0</ele><time>2026-03-22T13:46:12.011Z</time></trkpt><trkpt lat="21.84126435950393" lon="-102.53417324013621"><ele>1917.0</ele><time>2026-03-22T13:46:13.011Z</time></trkpt><trkpt lat="21.841208502495846" lon="-102.53422596624313"><ele>1917.0</ele><time>2026-03-22T13:46:14.011Z</time></trkpt><trkpt lat="21.841155410378203" lon="-102.5342787689344"><ele>1917.0</ele><time>2026-03-22T13:46:15.011Z</time></trkpt><trkpt lat="21.841098982669752" lon="-102.53433829819029"><ele>1917.0</ele><time>2026-03-22T13:46:16.011Z</time></trkpt><trkpt lat="21.841041238388073" lon="-102.53438731695523"><ele>1917.0</ele><time>2026-03-22T13:46:17.011Z</time></trkpt><trkpt lat="21.8409745440128" lon="-102.53444711767109"><ele>1917.285714285714</ele><time>2026-03-22T13:46:18.011Z</time></trkpt><trkpt lat="21.840920366994926" lon="-102.53450167482048"><ele>1917.5714285714284</ele><time>2026-03-22T13:46:19.011Z</time></trkpt><trkpt lat="21.840863971195397" lon="-102.53455411485652"><ele>1917.857142857143</ele><time>2026-03-22T13:46:20.011Z</time></trkpt><trkpt lat="21.840807480610863" lon="-102.5346098624077"><ele>1918.142857142857</ele><time>2026-03-22T13:46:21.011Z</time></trkpt><trkpt lat="21.840757111705656" lon="-102.5346519442962"><ele>1918.4285714285716</ele><time>2026-03-22T13:46:22.011Z</time></trkpt><trkpt lat="21.840704289860327" lon="-102.5347087184724"><ele>1918.714285714286</ele><time>2026-03-22T13:46:23.011Z</time></trkpt><trkpt lat="21.840646071422672" lon="-102.5347604787948"><ele>1919.0000000000002</ele><time>2026-03-22T13:46:24.011Z</time></trkpt><trkpt lat="21.840585092916925" lon="-102.53481751209732"><ele>1919.1428571428573</ele><time>2026-03-22T13:46:25.011Z</time></trkpt><trkpt lat="21.84053066596321" lon="-102.53486535622098"><ele>1919.2857142857142</ele><time>2026-03-22T13:46:26.01Z</time></trkpt><trkpt lat="21.840478237754038" lon="-102.53491135188116"><ele>1919.4285714285716</ele><time>2026-03-22T13:46:27.01Z</time></trkpt><trkpt lat="21.840423302854795" lon="-102.53495777779054"><ele>1919.5714285714287</ele><time>2026-03-22T13:46:28.01Z</time></trkpt><trkpt lat="21.840365903238183" lon="-102.53501109944574"><ele>1919.7142857142858</ele><time>2026-03-22T13:46:29.01Z</time></trkpt><trkpt lat="21.84031145428065" lon="-102.53505475977472"><ele>1919.857142857143</ele><time>2026-03-22T13:46:30.01Z</time></trkpt><trkpt lat="21.84026076112885" lon="-102.5351010156895"><ele>1920.0</ele><time>2026-03-22T13:46:31.01Z</time></trkpt><trkpt lat="21.84020609564941" lon="-102.53514732097086"><ele>1920.0</ele><time>2026-03-22T13:46:32.01Z</time></trkpt><trkpt lat="21.840143429503062" lon="-102.53519325453617"><ele>1920.0</ele><time>2026-03-22T13:46:33.01Z</time></trkpt><trkpt lat="21.840081759580897" lon="-102.53524205224659"><ele>1920.0</ele><time>2026-03-22T13:46:34.01Z</time></trkpt><trkpt lat="21.840016306018644" lon="-102.53528214139818"><ele>1920.0</ele><time>2026-03-22T13:46:35.01Z</time></trkpt><trkpt lat="21.839961295525686" lon="-102.53531650121244"><ele>1920.0</ele><time>2026-03-22T13:46:36.01Z</time></trkpt><trkpt lat="21.839903467537788" lon="-102.53535115034373"><ele>1920.0</ele><time>2026-03-22T13:46:37.01Z</time></trkpt><trkpt lat="21.83983177162488" lon="-102.5353813386676"><ele>1920.0</ele><time>2026-03-22T13:46:38.01Z</time></trkpt><trkpt lat="21.839768491078466" lon="-102.53541646699183"><ele>1919.857142857143</ele><time>2026-03-22T13:46:39.01Z</time></trkpt><trkpt lat="21.83970728931167" lon="-102.5354342966805"><ele>1919.7142857142858</ele><time>2026-03-22T13:46:40.01Z</time></trkpt><trkpt lat="21.839646070145015" lon="-102.53545655313273"><ele>1919.5714285714287</ele><time>2026-03-22T13:46:41.01Z</time></trkpt><trkpt lat="21.83958569909471" lon="-102.53548121848439"><ele>1919.4285714285716</ele><time>2026-03-22T13:46:42.01Z</time></trkpt><trkpt lat="21.839463383107393" lon="-102.53551302991944"><ele>1919.2857142857142</ele><time>2026-03-22T13:46:44.01Z</time></trkpt><trkpt lat="21.839400865049676" lon="-102.53553095336629"><ele>1919.1428571428573</ele><time>2026-03-22T13:46:45.01Z</time></trkpt><trkpt lat="21.839336443534666" lon="-102.53554560062479"><ele>1919.0000000000002</ele><time>2026-03-22T13:46:46.01Z</time></trkpt><trkpt lat="21.839267845618046" lon="-102.53555448223717"><ele>1919.4285714285716</ele><time>2026-03-22T13:46:47.01Z</time></trkpt><trkpt lat="21.83920473091777" lon="-102.53556047727493"><ele>1919.857142857143</ele><time>2026-03-22T13:46:48.01Z</time></trkpt><trkpt lat="21.839133108403942" lon="-102.53556923640029"><ele>1920.2857142857142</ele><time>2026-03-22T13:46:49.01Z</time></trkpt><trkpt lat="21.839061633165294" lon="-102.5355753445397"><ele>1920.7142857142858</ele><time>2026-03-22T13:46:50.01Z</time></trkpt><trkpt lat="21.838990578963084" lon="-102.53557262162983"><ele>1921.1428571428569</ele><time>2026-03-22T13:46:51.01Z</time></trkpt><trkpt lat="21.838921362118462" lon="-102.53556557499793"><ele>1921.5714285714284</ele><time>2026-03-22T13:46:52.01Z</time></trkpt><trkpt lat="21.838851169445654" lon="-102.53555728522042"><ele>1922.0</ele><time>2026-03-22T13:46:53.01Z</time></trkpt><trkpt lat="21.838784409131566" lon="-102.5355485149635"><ele>1921.9999999999998</ele><time>2026-03-22T13:46:54.01Z</time></trkpt><trkpt lat="21.83871247671769" lon="-102.5355437111634"><ele>1922.0</ele><time>2026-03-22T13:46:55.01Z</time></trkpt><trkpt lat="21.838577281818104" lon="-102.53551787149199"><ele>1922.0</ele><time>2026-03-22T13:46:57.01Z</time></trkpt><trkpt lat="21.838514053807156" lon="-102.53550105633111"><ele>1922.0</ele><time>2026-03-22T13:46:58.01Z</time></trkpt><trkpt lat="21.838447690319246" lon="-102.53548297300003"><ele>1921.9999999999998</ele><time>2026-03-22T13:46:59.01Z</time></trkpt><trkpt lat="21.838384950290294" lon="-102.53547041712159"><ele>1922.0</ele><time>2026-03-22T13:47:00.01Z</time></trkpt><trkpt lat="21.83826447036217" lon="-102.53544927408528"><ele>1921.75</ele><time>2026-03-22T13:47:02.01Z</time></trkpt><trkpt lat="21.838141917069876" lon="-102.53541821460837"><ele>1921.5</ele><time>2026-03-22T13:47:04.01Z</time></trkpt><trkpt lat="21.838023775752255" lon="-102.5353913852978"><ele>1921.25</ele><time>2026-03-22T13:47:06.01Z</time></trkpt><trkpt lat="21.837898628920108" lon="-102.5353649379103"><ele>1921.0</ele><time>2026-03-22T13:47:08.01Z</time></trkpt><trkpt lat="21.8377880916492" lon="-102.53533445080654"><ele>1921.0</ele><time>2026-03-22T13:47:10.01Z</time></trkpt><trkpt lat="21.837672690729924" lon="-102.53530888571682"><ele>1921.0</ele><time>2026-03-22T13:47:12.01Z</time></trkpt><trkpt lat="21.83756022163185" lon="-102.53528596686104"><ele>1921.0</ele><time>2026-03-22T13:47:14.01Z</time></trkpt><trkpt lat="21.837449180378904" lon="-102.53525793629778"><ele>1921.0</ele><time>2026-03-22T13:47:16.01Z</time></trkpt><trkpt lat="21.837344758728197" lon="-102.53523208640514"><ele>1921.8</ele><time>2026-03-22T13:47:18.01Z</time></trkpt><trkpt lat="21.83727751080703" lon="-102.53521631449881"><ele>1922.6</ele><time>2026-03-22T13:47:19.01Z</time></trkpt><trkpt lat="21.837173457462974" lon="-102.53519117844685"><ele>1923.4</ele><time>2026-03-22T13:47:21.01Z</time></trkpt><trkpt lat="21.837056670652473" lon="-102.53516407936785"><ele>1924.2</ele><time>2026-03-22T13:47:23.01Z</time></trkpt><trkpt lat="21.836954155136322" lon="-102.53513570339578"><ele>1925.0</ele><time>2026-03-22T13:47:25.01Z</time></trkpt><trkpt lat="21.836839506217498" lon="-102.53510883486277"><ele>1925.8</ele><time>2026-03-22T13:47:27.01Z</time></trkpt><trkpt lat="21.836724359645416" lon="-102.53508011735133"><ele>1926.6</ele><time>2026-03-22T13:47:29.011Z</time></trkpt><trkpt lat="21.836616559459053" lon="-102.53505468980242"><ele>1927.4</ele><time>2026-03-22T13:47:31.011Z</time></trkpt><trkpt lat="21.836509487129884" lon="-102.53503021788374"><ele>1928.2</ele><time>2026-03-22T13:47:33.012Z</time></trkpt><trkpt lat="21.836447263644672" lon="-102.53501539376653"><ele>1929.0</ele><time>2026-03-22T13:47:34.012Z</time></trkpt><trkpt lat="21.83633373209171" lon="-102.53498743728989"><ele>1929.0</ele><time>2026-03-22T13:47:36.012Z</time></trkpt><trkpt lat="21.83621679207201" lon="-102.53496299143822"><ele>1929.0</ele><time>2026-03-22T13:47:38.012Z</time></trkpt><trkpt lat="21.836106254260155" lon="-102.5349385327407"><ele>1929.0</ele><time>2026-03-22T13:47:40.011Z</time></trkpt><trkpt lat="21.83598926280459" lon="-102.5349132623332"><ele>1929.0</ele><time>2026-03-22T13:47:42.011Z</time></trkpt><trkpt lat="21.83587588877479" lon="-102.53488734600919"><ele>1929.2</ele><time>2026-03-22T13:47:44.011Z</time></trkpt><trkpt lat="21.835769625483824" lon="-102.5348576783378"><ele>1929.4</ele><time>2026-03-22T13:47:46.011Z</time></trkpt><trkpt lat="21.83570520763526" lon="-102.53484323788022"><ele>1929.6</ele><time>2026-03-22T13:47:47.011Z</time></trkpt><trkpt lat="21.835581680971508" lon="-102.53481467600984"><ele>1929.8</ele><time>2026-03-22T13:47:49.011Z</time></trkpt><trkpt lat="21.83551768098737" lon="-102.53479804139116"><ele>1930.0</ele><time>2026-03-22T13:47:50.011Z</time></trkpt><trkpt lat="21.835392075957753" lon="-102.53476628776843"><ele>1930.0000000000002</ele><time>2026-03-22T13:47:52.011Z</time></trkpt><trkpt lat="21.835259729780816" lon="-102.53473999663551"><ele>1930.0</ele><time>2026-03-22T13:47:54.011Z</time></trkpt><trkpt lat="21.835182072316808" lon="-102.53471964411848"><ele>1930.0</ele><time>2026-03-22T13:47:55.011Z</time></trkpt><trkpt lat="21.835108295585623" lon="-102.53470327420308"><ele>1930.0</ele><time>2026-03-22T13:47:56.011Z</time></trkpt><trkpt lat="21.835044659652095" lon="-102.53468825479683"><ele>1930.0000000000002</ele><time>2026-03-22T13:47:57.011Z</time></trkpt><trkpt lat="21.834974800938813" lon="-102.53466948142163"><ele>1930.0</ele><time>2026-03-22T13:47:58.011Z</time></trkpt><trkpt lat="21.834836193364755" lon="-102.53463237327543"><ele>1930.0000000000002</ele><time>2026-03-22T13:48:00.011Z</time></trkpt><trkpt lat="21.83475533173266" lon="-102.53461329101839"><ele>1930.0</ele><time>2026-03-22T13:48:01.011Z</time></trkpt><trkpt lat="21.8346771271675" lon="-102.53459932876756"><ele>1930.0</ele><time>2026-03-22T13:48:02.011Z</time></trkpt><trkpt lat="21.834600061502172" lon="-102.53457565541497"><ele>1930.0</ele><time>2026-03-22T13:48:03.011Z</time></trkpt><trkpt lat="21.834515489095235" lon="-102.53455744975082"><ele>1930.0000000000002</ele><time>2026-03-22T13:48:04.011Z</time></trkpt><trkpt lat="21.834427360501568" lon="-102.53453978223139"><ele>1930.0</ele><time>2026-03-22T13:48:05.011Z</time></trkpt><trkpt lat="21.834348979567373" lon="-102.53452020879513"><ele>1929.8333333333335</ele><time>2026-03-22T13:48:06.011Z</time></trkpt><trkpt lat="21.834269310806434" lon="-102.53450181008085"><ele>1929.6666666666667</ele><time>2026-03-22T13:48:07.011Z</time></trkpt><trkpt lat="21.834190262778243" lon="-102.53448343569922"><ele>1929.5</ele><time>2026-03-22T13:48:08.011Z</time></trkpt><trkpt lat="21.83410902925599" lon="-102.53446589083244"><ele>1929.3333333333335</ele><time>2026-03-22T13:48:09.011Z</time></trkpt><trkpt lat="21.834033003710964" lon="-102.53445268477185"><ele>1929.1666666666667</ele><time>2026-03-22T13:48:10.011Z</time></trkpt><trkpt lat="21.833953807357155" lon="-102.53443354656739"><ele>1929.0</ele><time>2026-03-22T13:48:11.011Z</time></trkpt><trkpt lat="21.833869703813075" lon="-102.53441079644543"><ele>1929.0</ele><time>2026-03-22T13:48:12.011Z</time></trkpt><trkpt lat="21.83378877114919" lon="-102.53439177316976"><ele>1929.0</ele><time>2026-03-22T13:48:13.011Z</time></trkpt><trkpt lat="21.83370627128967" lon="-102.53437387941649"><ele>1929.0</ele><time>2026-03-22T13:48:14.011Z</time></trkpt><trkpt lat="21.833628350850127" lon="-102.53435324944726"><ele>1929.0</ele><time>2026-03-22T13:48:15.011Z</time></trkpt><trkpt lat="21.833547765155775" lon="-102.5343334889158"><ele>1929.0</ele><time>2026-03-22T13:48:16.011Z</time></trkpt><trkpt lat="21.833458622866097" lon="-102.53431299711157"><ele>1929.0</ele><time>2026-03-22T13:48:17.011Z</time></trkpt><trkpt lat="21.833369245573202" lon="-102.53429419820792"><ele>1929.1666666666667</ele><time>2026-03-22T13:48:18.011Z</time></trkpt><trkpt lat="21.833294812617034" lon="-102.5342809202718"><ele>1929.3333333333335</ele><time>2026-03-22T13:48:19.011Z</time></trkpt><trkpt lat="21.833218022819356" lon="-102.53426194267863"><ele>1929.5</ele><time>2026-03-22T13:48:20.011Z</time></trkpt><trkpt lat="21.83313734956463" lon="-102.5342445589312"><ele>1929.6666666666667</ele><time>2026-03-22T13:48:21.011Z</time></trkpt><trkpt lat="21.833054135172773" lon="-102.53422323235708"><ele>1929.8333333333335</ele><time>2026-03-22T13:48:22.011Z</time></trkpt><trkpt lat="21.832966636821634" lon="-102.53420162996649"><ele>1930.0</ele><time>2026-03-22T13:48:23.011Z</time></trkpt><trkpt lat="21.832886161641916" lon="-102.53418486067147"><ele>1930.0000000000002</ele><time>2026-03-22T13:48:24.011Z</time></trkpt><trkpt lat="21.832801654476814" lon="-102.53417188599474"><ele>1930.0</ele><time>2026-03-22T13:48:25.011Z</time></trkpt><trkpt lat="21.832719821516925" lon="-102.5341528536534"><ele>1930.0</ele><time>2026-03-22T13:48:26.011Z</time></trkpt><trkpt lat="21.832638391058698" lon="-102.5341278378207"><ele>1930.0</ele><time>2026-03-22T13:48:27.011Z</time></trkpt><trkpt lat="21.832553343968975" lon="-102.53411227910887"><ele>1930.0000000000002</ele><time>2026-03-22T13:48:28.011Z</time></trkpt><trkpt lat="21.832472836562538" lon="-102.53409148570594"><ele>1930.0</ele><time>2026-03-22T13:48:29.011Z</time></trkpt><trkpt lat="21.832399138039698" lon="-102.5340707459036"><ele>1930.1666666666667</ele><time>2026-03-22T13:48:30.011Z</time></trkpt><trkpt lat="21.832323033736767" lon="-102.53405034334085"><ele>1930.3333333333335</ele><time>2026-03-22T13:48:31.011Z</time></trkpt><trkpt lat="21.8322450117313" lon="-102.5340310644788"><ele>1930.5</ele><time>2026-03-22T13:48:32.011Z</time></trkpt><trkpt lat="21.832167467785737" lon="-102.53401395904802"><ele>1930.6666666666665</ele><time>2026-03-22T13:48:33.011Z</time></trkpt><trkpt lat="21.832086494111017" lon="-102.53399627451473"><ele>1930.8333333333333</ele><time>2026-03-22T13:48:34.011Z</time></trkpt><trkpt lat="21.832013740725696" lon="-102.53397744005903"><ele>1931.0</ele><time>2026-03-22T13:48:35.011Z</time></trkpt><trkpt lat="21.831936739750155" lon="-102.53396028371797"><ele>1930.9999999999998</ele><time>2026-03-22T13:48:36.01Z</time></trkpt><trkpt lat="21.83185761312833" lon="-102.53394519710392"><ele>1931.0</ele><time>2026-03-22T13:48:37.01Z</time></trkpt><trkpt lat="21.831780279183974" lon="-102.53393172049746"><ele>1930.9999999999998</ele><time>2026-03-22T13:48:38.01Z</time></trkpt><trkpt lat="21.83170590501441" lon="-102.53390952220269"><ele>1930.9999999999998</ele><time>2026-03-22T13:48:39.01Z</time></trkpt><trkpt lat="21.831635551777133" lon="-102.53389644002019"><ele>1931.0</ele><time>2026-03-22T13:48:40.01Z</time></trkpt><trkpt lat="21.831567941408537" lon="-102.53387938076409"><ele>1930.9999999999998</ele><time>2026-03-22T13:48:41.01Z</time></trkpt><trkpt lat="21.83149980354472" lon="-102.53386423734705"><ele>1930.9999999999998</ele><time>2026-03-22T13:48:42.01Z</time></trkpt><trkpt lat="21.831433010148828" lon="-102.53384691493576"><ele>1930.8571428571427</ele><time>2026-03-22T13:48:43.01Z</time></trkpt><trkpt lat="21.831361527826402" lon="-102.53382955220465"><ele>1930.7142857142858</ele><time>2026-03-22T13:48:44.01Z</time></trkpt><trkpt lat="21.831298621509713" lon="-102.53381284634563"><ele>1930.5714285714284</ele><time>2026-03-22T13:48:45.01Z</time></trkpt><trkpt lat="21.83122884294441" lon="-102.53379937644667"><ele>1930.4285714285713</ele><time>2026-03-22T13:48:46.01Z</time></trkpt><trkpt lat="21.83116150377416" lon="-102.5337851462703"><ele>1930.2857142857142</ele><time>2026-03-22T13:48:47.01Z</time></trkpt><trkpt lat="21.831092819590527" lon="-102.53376873062916"><ele>1930.142857142857</ele><time>2026-03-22T13:48:48.01Z</time></trkpt><trkpt lat="21.83102139480092" lon="-102.53374813573694"><ele>1930.0</ele><time>2026-03-22T13:48:49.01Z</time></trkpt><trkpt lat="21.83095252825641" lon="-102.53373322178395"><ele>1930.0</ele><time>2026-03-22T13:48:50.01Z</time></trkpt><trkpt lat="21.830884654354062" lon="-102.53371579146304"><ele>1930.0</ele><time>2026-03-22T13:48:51.01Z</time></trkpt><trkpt lat="21.830822666749427" lon="-102.5336974243548"><ele>1930.0</ele><time>2026-03-22T13:48:52.01Z</time></trkpt><trkpt lat="21.83075437521494" lon="-102.5336821027812"><ele>1930.0</ele><time>2026-03-22T13:48:53.01Z</time></trkpt><trkpt lat="21.830691938356523" lon="-102.53367156410373"><ele>1930.0</ele><time>2026-03-22T13:48:54.01Z</time></trkpt><trkpt lat="21.830626036546672" lon="-102.5336537658913"><ele>1930.0</ele><time>2026-03-22T13:48:55.01Z</time></trkpt><trkpt lat="21.83055508329847" lon="-102.53363707348804"><ele>1930.0</ele><time>2026-03-22T13:48:56.01Z</time></trkpt><trkpt lat="21.830489570142998" lon="-102.53362141356578"><ele>1930.0000000000002</ele><time>2026-03-22T13:48:57.01Z</time></trkpt><trkpt lat="21.830423948966974" lon="-102.5336128430311"><ele>1930.0</ele><time>2026-03-22T13:48:58.01Z</time></trkpt><trkpt lat="21.830304069781292" lon="-102.53357895788368"><ele>1930.0</ele><time>2026-03-22T13:49:00.01Z</time></trkpt><trkpt lat="21.83023946144815" lon="-102.5335599065773"><ele>1930.0</ele><time>2026-03-22T13:49:01.01Z</time></trkpt><trkpt lat="21.8301724135651" lon="-102.53354858590676"><ele>1930.0000000000002</ele><time>2026-03-22T13:49:02.01Z</time></trkpt><trkpt lat="21.830062909892074" lon="-102.53352227417813"><ele>1930.0</ele><time>2026-03-22T13:49:04.01Z</time></trkpt><trkpt lat="21.829938965225807" lon="-102.53349283698728"><ele>1931.0</ele><time>2026-03-22T13:49:06.01Z</time></trkpt><trkpt lat="21.829816609521128" lon="-102.53346351267076"><ele>1932.0</ele><time>2026-03-22T13:49:08.01Z</time></trkpt><trkpt lat="21.829692173311763" lon="-102.5334472716939"><ele>1933.0</ele><time>2026-03-22T13:49:10.01Z</time></trkpt><trkpt lat="21.829571788222218" lon="-102.53340900948733"><ele>1934.0</ele><time>2026-03-22T13:49:12.01Z</time></trkpt><trkpt lat="21.82950739071886" lon="-102.5333913884216"><ele>1935.0</ele><time>2026-03-22T13:49:13.01Z</time></trkpt><trkpt lat="21.829444847445327" lon="-102.5333778267709"><ele>1935.0</ele><time>2026-03-22T13:49:14.01Z</time></trkpt><trkpt lat="21.82937885826229" lon="-102.53335866252651"><ele>1935.0</ele><time>2026-03-22T13:49:15.01Z</time></trkpt><trkpt lat="21.829308272093932" lon="-102.53334277748466"><ele>1935.0</ele><time>2026-03-22T13:49:16.01Z</time></trkpt><trkpt lat="21.829190748272413" lon="-102.5333216928848"><ele>1935.0</ele><time>2026-03-22T13:49:18.01Z</time></trkpt><trkpt lat="21.829065072969044" lon="-102.53328646269367"><ele>1935.0</ele><time>2026-03-22T13:49:20.01Z</time></trkpt><trkpt lat="21.829002413857104" lon="-102.53326826025256"><ele>1935.5</ele><time>2026-03-22T13:49:21.01Z</time></trkpt><trkpt lat="21.8289309678697" lon="-102.53325279651776"><ele>1936.0</ele><time>2026-03-22T13:49:22.01Z</time></trkpt><trkpt lat="21.8288668570292" lon="-102.53323743394944"><ele>1936.5</ele><time>2026-03-22T13:49:23.01Z</time></trkpt><trkpt lat="21.828789656755607" lon="-102.53322108654382"><ele>1937.0</ele><time>2026-03-22T13:49:24.01Z</time></trkpt><trkpt lat="21.828721013373936" lon="-102.53320809766767"><ele>1937.5</ele><time>2026-03-22T13:49:25.01Z</time></trkpt><trkpt lat="21.828637525686343" lon="-102.53318597107892"><ele>1938.0</ele><time>2026-03-22T13:49:26.01Z</time></trkpt><trkpt lat="21.828559178105994" lon="-102.53316663090946"><ele>1938.0</ele><time>2026-03-22T13:49:27.01Z</time></trkpt><trkpt lat="21.828482826852465" lon="-102.53314211320692"><ele>1938.0</ele><time>2026-03-22T13:49:28.01Z</time></trkpt><trkpt lat="21.828399045102135" lon="-102.533121197974"><ele>1938.0</ele><time>2026-03-22T13:49:29.01Z</time></trkpt><trkpt lat="21.82832342166229" lon="-102.53310881224114"><ele>1938.0</ele><time>2026-03-22T13:49:30.01Z</time></trkpt><trkpt lat="21.828241005783376" lon="-102.53308951729758"><ele>1938.0</ele><time>2026-03-22T13:49:31.01Z</time></trkpt><trkpt lat="21.828159586228317" lon="-102.53306666078919"><ele>1938.0</ele><time>2026-03-22T13:49:32.01Z</time></trkpt><trkpt lat="21.82807859723244" lon="-102.5330493949108"><ele>1938.3333333333333</ele><time>2026-03-22T13:49:33.01Z</time></trkpt><trkpt lat="21.82799445195367" lon="-102.53303591264039"><ele>1938.6666666666665</ele><time>2026-03-22T13:49:34.011Z</time></trkpt><trkpt lat="21.827899509922403" lon="-102.53301351081286"><ele>1939.0</ele><time>2026-03-22T13:49:35.012Z</time></trkpt><trkpt lat="21.82781258192065" lon="-102.53299641497989"><ele>1939.3333333333333</ele><time>2026-03-22T13:49:36.012Z</time></trkpt><trkpt lat="21.827729127824053" lon="-102.53297572881633"><ele>1939.6666666666665</ele><time>2026-03-22T13:49:37.012Z</time></trkpt><trkpt lat="21.827646945889253" lon="-102.53295349813897"><ele>1940.0</ele><time>2026-03-22T13:49:38.011Z</time></trkpt><trkpt lat="21.82757150706736" lon="-102.532929775778"><ele>1939.8333333333333</ele><time>2026-03-22T13:49:39.011Z</time></trkpt><trkpt lat="21.8274841590233" lon="-102.53290932314685"><ele>1939.6666666666665</ele><time>2026-03-22T13:49:40.012Z</time></trkpt><trkpt lat="21.827401746230525" lon="-102.53288809053447"><ele>1939.5</ele><time>2026-03-22T13:49:41.011Z</time></trkpt><trkpt lat="21.827325795773593" lon="-102.53287347441241"><ele>1939.3333333333335</ele><time>2026-03-22T13:49:42.011Z</time></trkpt><trkpt lat="21.827246344352336" lon="-102.5328498572811"><ele>1939.1666666666667</ele><time>2026-03-22T13:49:43.012Z</time></trkpt><trkpt lat="21.827162445576135" lon="-102.53282959734213"><ele>1939.0</ele><time>2026-03-22T13:49:44.011Z</time></trkpt><trkpt lat="21.82708942745853" lon="-102.53281214052102"><ele>1939.0000000000002</ele><time>2026-03-22T13:49:45.011Z</time></trkpt><trkpt lat="21.82701332194213" lon="-102.53278822107465"><ele>1939.0</ele><time>2026-03-22T13:49:46.012Z</time></trkpt><trkpt lat="21.826930338985292" lon="-102.53276380802973"><ele>1939.0</ele><time>2026-03-22T13:49:47.012Z</time></trkpt><trkpt lat="21.826851692883352" lon="-102.5327301356223"><ele>1939.0</ele><time>2026-03-22T13:49:48.012Z</time></trkpt><trkpt lat="21.826777052809362" lon="-102.53268846087337"><ele>1939.0000000000002</ele><time>2026-03-22T13:49:49.012Z</time></trkpt><trkpt lat="21.826706403098008" lon="-102.53264236534469"><ele>1939.0</ele><time>2026-03-22T13:49:50.012Z</time></trkpt><trkpt lat="21.826638214606895" lon="-102.5325923619132"><ele>1939.6666666666667</ele><time>2026-03-22T13:49:51.012Z</time></trkpt><trkpt lat="21.826575193128253" lon="-102.53253531920888"><ele>1940.3333333333335</ele><time>2026-03-22T13:49:52.012Z</time></trkpt><trkpt lat="21.82651812052203" lon="-102.53246740183306"><ele>1941.0</ele><time>2026-03-22T13:49:53.012Z</time></trkpt><trkpt lat="21.826460915504" lon="-102.53239747884352"><ele>1941.6666666666665</ele><time>2026-03-22T13:49:54.012Z</time></trkpt><trkpt lat="21.826411878388146" lon="-102.53232264366146"><ele>1942.3333333333333</ele><time>2026-03-22T13:49:55.012Z</time></trkpt><trkpt lat="21.82637332355323" lon="-102.53224940930272"><ele>1943.0</ele><time>2026-03-22T13:49:56.012Z</time></trkpt><trkpt lat="21.826328088707886" lon="-102.53217370435145"><ele>1942.9999999999998</ele><time>2026-03-22T13:49:57.012Z</time></trkpt><trkpt lat="21.82629207258193" lon="-102.53209281418636"><ele>1943.0</ele><time>2026-03-22T13:49:58.012Z</time></trkpt><trkpt lat="21.826268280176198" lon="-102.53200409268032"><ele>1943.0</ele><time>2026-03-22T13:49:59.012Z</time></trkpt><trkpt lat="21.82625111804942" lon="-102.53191083517682"><ele>1943.0</ele><time>2026-03-22T13:50:00.012Z</time></trkpt><trkpt lat="21.826237060805305" lon="-102.53182190627065"><ele>1942.9999999999998</ele><time>2026-03-22T13:50:01.012Z</time></trkpt><trkpt lat="21.82622872148959" lon="-102.53173003974051"><ele>1943.0</ele><time>2026-03-22T13:50:02.012Z</time></trkpt><trkpt lat="21.82622251980664" lon="-102.53163844607974"><ele>1942.8333333333333</ele><time>2026-03-22T13:50:03.012Z</time></trkpt><trkpt lat="21.826215961435825" lon="-102.5315539076722"><ele>1942.6666666666665</ele><time>2026-03-22T13:50:04.012Z</time></trkpt><trkpt lat="21.82620850628217" lon="-102.53146677478475"><ele>1942.5</ele><time>2026-03-22T13:50:05.012Z</time></trkpt><trkpt lat="21.826200874829045" lon="-102.53136778752813"><ele>1942.3333333333335</ele><time>2026-03-22T13:50:06.012Z</time></trkpt><trkpt lat="21.82619648442043" lon="-102.53126982159876"><ele>1942.1666666666667</ele><time>2026-03-22T13:50:07.012Z</time></trkpt><trkpt lat="21.826184997532923" lon="-102.53117808180082"><ele>1942.0</ele><time>2026-03-22T13:50:08.012Z</time></trkpt><trkpt lat="21.826180465920324" lon="-102.531082322445"><ele>1942.0000000000002</ele><time>2026-03-22T13:50:09.012Z</time></trkpt><trkpt lat="21.826172960256688" lon="-102.53099464525974"><ele>1942.0</ele><time>2026-03-22T13:50:10.012Z</time></trkpt><trkpt lat="21.82616241844765" lon="-102.53090216059535"><ele>1942.0</ele><time>2026-03-22T13:50:11.012Z</time></trkpt><trkpt lat="21.826149804381924" lon="-102.53081240692052"><ele>1942.0</ele><time>2026-03-22T13:50:12.012Z</time></trkpt><trkpt lat="21.82614232774882" lon="-102.53072857816504"><ele>1942.0000000000002</ele><time>2026-03-22T13:50:13.012Z</time></trkpt><trkpt lat="21.826137673851413" lon="-102.53064648993518"><ele>1942.0</ele><time>2026-03-22T13:50:14.012Z</time></trkpt><trkpt lat="21.826125188768266" lon="-102.53056138268718"><ele>1942.0000000000002</ele><time>2026-03-22T13:50:15.012Z</time></trkpt><trkpt lat="21.82610766130178" lon="-102.53047869570656"><ele>1942.0</ele><time>2026-03-22T13:50:16.012Z</time></trkpt><trkpt lat="21.826086426460837" lon="-102.53039338893703"><ele>1942.0</ele><time>2026-03-22T13:50:17.012Z</time></trkpt><trkpt lat="21.826064377588498" lon="-102.53031713686455"><ele>1942.0</ele><time>2026-03-22T13:50:18.012Z</time></trkpt><trkpt lat="21.82604203703739" lon="-102.53023785005318"><ele>1942.0000000000002</ele><time>2026-03-22T13:50:19.012Z</time></trkpt><trkpt lat="21.826021703638563" lon="-102.53016221959255"><ele>1942.0</ele><time>2026-03-22T13:50:20.011Z</time></trkpt><trkpt lat="21.825999638647197" lon="-102.53008688543764"><ele>1943.1428571428573</ele><time>2026-03-22T13:50:21.011Z</time></trkpt><trkpt lat="21.825971577573714" lon="-102.53001283830856"><ele>1944.2857142857144</ele><time>2026-03-22T13:50:22.011Z</time></trkpt><trkpt lat="21.82594061713438" lon="-102.52993820073908"><ele>1945.4285714285716</ele><time>2026-03-22T13:50:23.011Z</time></trkpt><trkpt lat="21.825907033063192" lon="-102.52986804524684"><ele>1946.5714285714284</ele><time>2026-03-22T13:50:24.011Z</time></trkpt><trkpt lat="21.825871973239067" lon="-102.52979727589101"><ele>1947.7142857142856</ele><time>2026-03-22T13:50:25.011Z</time></trkpt><trkpt lat="21.825833917897288" lon="-102.529733553332"><ele>1948.8571428571427</ele><time>2026-03-22T13:50:26.011Z</time></trkpt><trkpt lat="21.82579823111726" lon="-102.52966847751436"><ele>1950.0</ele><time>2026-03-22T13:50:27.011Z</time></trkpt><trkpt lat="21.825762352110903" lon="-102.52960730963001"><ele>1949.5714285714284</ele><time>2026-03-22T13:50:28.011Z</time></trkpt><trkpt lat="21.825718012787533" lon="-102.52954453742393"><ele>1949.1428571428569</ele><time>2026-03-22T13:50:29.011Z</time></trkpt><trkpt lat="21.825677394348805" lon="-102.52948437904612"><ele>1948.7142857142858</ele><time>2026-03-22T13:50:30.011Z</time></trkpt><trkpt lat="21.825634337721272" lon="-102.52943211785306"><ele>1948.2857142857142</ele><time>2026-03-22T13:50:31.011Z</time></trkpt><trkpt lat="21.82559073297287" lon="-102.52936713256393"><ele>1947.857142857143</ele><time>2026-03-22T13:50:32.011Z</time></trkpt><trkpt lat="21.825541807614897" lon="-102.52930857587951"><ele>1947.4285714285716</ele><time>2026-03-22T13:50:33.011Z</time></trkpt><trkpt lat="21.82549531847242" lon="-102.52924322982136"><ele>1947.0000000000002</ele><time>2026-03-22T13:50:34.011Z</time></trkpt><trkpt lat="21.82544999733959" lon="-102.529183014457"><ele>1947.0</ele><time>2026-03-22T13:50:35.011Z</time></trkpt><trkpt lat="21.825401913941654" lon="-102.52911890716365"><ele>1947.0</ele><time>2026-03-22T13:50:36.011Z</time></trkpt><trkpt lat="21.825354963095926" lon="-102.52905687901159"><ele>1947.0</ele><time>2026-03-22T13:50:37.011Z</time></trkpt><trkpt lat="21.825308434877684" lon="-102.52898973171733"><ele>1947.0</ele><time>2026-03-22T13:50:38.011Z</time></trkpt><trkpt lat="21.825255538416783" lon="-102.52892883567561"><ele>1947.0</ele><time>2026-03-22T13:50:39.011Z</time></trkpt><trkpt lat="21.825209791466502" lon="-102.52885981799228"><ele>1947.0</ele><time>2026-03-22T13:50:40.011Z</time></trkpt><trkpt lat="21.82516004342963" lon="-102.52879611232036"><ele>1947.6666666666667</ele><time>2026-03-22T13:50:41.011Z</time></trkpt><trkpt lat="21.825109506833808" lon="-102.52873465632062"><ele>1948.3333333333335</ele><time>2026-03-22T13:50:42.011Z</time></trkpt><trkpt lat="21.825056549984332" lon="-102.528673493284"><ele>1949.0</ele><time>2026-03-22T13:50:43.011Z</time></trkpt><trkpt lat="21.825005224969676" lon="-102.52861699092556"><ele>1949.6666666666667</ele><time>2026-03-22T13:50:44.011Z</time></trkpt><trkpt lat="21.82494960993389" lon="-102.52856168123894"><ele>1950.3333333333335</ele><time>2026-03-22T13:50:45.011Z</time></trkpt><trkpt lat="21.824889976597053" lon="-102.52850425013325"><ele>1951.0</ele><time>2026-03-22T13:50:46.011Z</time></trkpt><trkpt lat="21.824829893815025" lon="-102.52845945161995"><ele>1951.0000000000002</ele><time>2026-03-22T13:50:47.011Z</time></trkpt><trkpt lat="21.824763582941696" lon="-102.52841668290236"><ele>1951.0</ele><time>2026-03-22T13:50:48.011Z</time></trkpt><trkpt lat="21.824690891815333" lon="-102.52837735666951"><ele>1951.0</ele><time>2026-03-22T13:50:49.011Z</time></trkpt><trkpt lat="21.8246098601014" lon="-102.52833712267092"><ele>1951.0</ele><time>2026-03-22T13:50:50.011Z</time></trkpt><trkpt lat="21.824532718545818" lon="-102.52831288581412"><ele>1951.0000000000002</ele><time>2026-03-22T13:50:51.011Z</time></trkpt><trkpt lat="21.824442940404797" lon="-102.52829054368316"><ele>1951.0</ele><time>2026-03-22T13:50:52.011Z</time></trkpt><trkpt lat="21.82436857747773" lon="-102.52827332905224"><ele>1952.1999999999998</ele><time>2026-03-22T13:50:53.011Z</time></trkpt><trkpt lat="21.824278333948175" lon="-102.52826707220319"><ele>1953.3999999999999</ele><time>2026-03-22T13:50:54.011Z</time></trkpt><trkpt lat="21.82420236304141" lon="-102.52826811877395"><ele>1954.6</ele><time>2026-03-22T13:50:55.011Z</time></trkpt><trkpt lat="21.82411958024954" lon="-102.52827634685387"><ele>1955.8</ele><time>2026-03-22T13:50:56.011Z</time></trkpt><trkpt lat="21.824024843655053" lon="-102.5282823005982"><ele>1957.0</ele><time>2026-03-22T13:50:57.011Z</time></trkpt><trkpt lat="21.823918256151497" lon="-102.5283011517054"><ele>1957.0</ele><time>2026-03-22T13:50:58.011Z</time></trkpt><trkpt lat="21.823814161114495" lon="-102.52831040045089"><ele>1956.9999999999998</ele><time>2026-03-22T13:50:59.011Z</time></trkpt><trkpt lat="21.823714476299532" lon="-102.5283201016099"><ele>1956.9999999999998</ele><time>2026-03-22T13:51:00.011Z</time></trkpt><trkpt lat="21.823614581390544" lon="-102.52832706859981"><ele>1957.0</ele><time>2026-03-22T13:51:01.011Z</time></trkpt><trkpt lat="21.82350675762932" lon="-102.5283381212245"><ele>1957.0</ele><time>2026-03-22T13:51:02.011Z</time></trkpt><trkpt lat="21.82340471584221" lon="-102.52835486209364"><ele>1957.1999999999998</ele><time>2026-03-22T13:51:03.011Z</time></trkpt><trkpt lat="21.82330148744414" lon="-102.52836762297514"><ele>1957.3999999999999</ele><time>2026-03-22T13:51:04.011Z</time></trkpt><trkpt lat="21.823203323970656" lon="-102.52837308548936"><ele>1957.6000000000001</ele><time>2026-03-22T13:51:05.011Z</time></trkpt><trkpt lat="21.8231115533062" lon="-102.52838015980984"><ele>1957.8000000000002</ele><time>2026-03-22T13:51:06.011Z</time></trkpt><trkpt lat="21.823015267362667" lon="-102.52838888420477"><ele>1958.0</ele><time>2026-03-22T13:51:07.011Z</time></trkpt><trkpt lat="21.822911347312605" lon="-102.52841001346683"><ele>1958.0</ele><time>2026-03-22T13:51:08.011Z</time></trkpt><trkpt lat="21.822805467567004" lon="-102.52843540563526"><ele>1958.0000000000002</ele><time>2026-03-22T13:51:09.011Z</time></trkpt><trkpt lat="21.82269577090026" lon="-102.52846752575714"><ele>1958.0000000000002</ele><time>2026-03-22T13:51:10.011Z</time></trkpt><trkpt lat="21.822589823831215" lon="-102.52850541562083"><ele>1958.0</ele><time>2026-03-22T13:51:11.011Z</time></trkpt><trkpt lat="21.82249342159832" lon="-102.5285629352519"><ele>1958.0</ele><time>2026-03-22T13:51:12.011Z</time></trkpt><trkpt lat="21.82238862584133" lon="-102.52863187652639"><ele>1956.5</ele><time>2026-03-22T13:51:13.011Z</time></trkpt><trkpt lat="21.82229207084427" lon="-102.52869957834591"><ele>1955.0</ele><time>2026-03-22T13:51:14.011Z</time></trkpt><trkpt lat="21.822196592926122" lon="-102.52878002386886"><ele>1953.5</ele><time>2026-03-22T13:51:15.011Z</time></trkpt><trkpt lat="21.82209994954943" lon="-102.5288610441044"><ele>1952.0</ele><time>2026-03-22T13:51:16.011Z</time></trkpt><trkpt lat="21.822005080051138" lon="-102.52893285945896"><ele>1952.75</ele><time>2026-03-22T13:51:17.011Z</time></trkpt><trkpt lat="21.82190872411129" lon="-102.52901539368618"><ele>1953.5</ele><time>2026-03-22T13:51:18.011Z</time></trkpt><trkpt lat="21.82181255600297" lon="-102.52908032980393"><ele>1954.25</ele><time>2026-03-22T13:51:19.011Z</time></trkpt><trkpt lat="21.821709614090263" lon="-102.52912815739894"><ele>1955.0</ele><time>2026-03-22T13:51:20.011Z</time></trkpt><trkpt lat="21.82159243865333" lon="-102.5291629125272"><ele>1955.0</ele><time>2026-03-22T13:51:21.011Z</time></trkpt><trkpt lat="21.821471450186717" lon="-102.52917396793552"><ele>1955.0</ele><time>2026-03-22T13:51:22.011Z</time></trkpt><trkpt lat="21.821347310193545" lon="-102.52916322375954"><ele>1955.0</ele><time>2026-03-22T13:51:23.011Z</time></trkpt><trkpt lat="21.82123481797911" lon="-102.52913097946865"><ele>1955.0</ele><time>2026-03-22T13:51:24.011Z</time></trkpt><trkpt lat="21.821130799935453" lon="-102.52907345562242"><ele>1955.0</ele><time>2026-03-22T13:51:25.011Z</time></trkpt><trkpt lat="21.82103265173974" lon="-102.52900585454854"><ele>1955.0</ele><time>2026-03-22T13:51:26.011Z</time></trkpt><trkpt lat="21.820946419852646" lon="-102.52892742889763"><ele>1955.0</ele><time>2026-03-22T13:51:27.011Z</time></trkpt><trkpt lat="21.820872791120717" lon="-102.52884026893818"><ele>1955.0</ele><time>2026-03-22T13:51:28.011Z</time></trkpt><trkpt lat="21.820813332983594" lon="-102.52874680906189"><ele>1955.0</ele><time>2026-03-22T13:51:29.011Z</time></trkpt><trkpt lat="21.820765580460105" lon="-102.52864637271394"><ele>1955.1666666666665</ele><time>2026-03-22T13:51:30.011Z</time></trkpt><trkpt lat="21.82072852844791" lon="-102.52855079777169"><ele>1955.3333333333333</ele><time>2026-03-22T13:51:31.011Z</time></trkpt><trkpt lat="21.82069609296454" lon="-102.52846766356319"><ele>1955.5</ele><time>2026-03-22T13:51:32.011Z</time></trkpt><trkpt lat="21.820658353612316" lon="-102.52838399575647"><ele>1955.6666666666665</ele><time>2026-03-22T13:51:33.011Z</time></trkpt><trkpt lat="21.82061978163534" lon="-102.52830617562248"><ele>1955.8333333333333</ele><time>2026-03-22T13:51:34.011Z</time></trkpt><trkpt lat="21.82058719479803" lon="-102.52822517641371"><ele>1956.0</ele><time>2026-03-22T13:51:35.01Z</time></trkpt><trkpt lat="21.82055116806225" lon="-102.52815274889426"><ele>1956.0</ele><time>2026-03-22T13:51:36.01Z</time></trkpt><trkpt lat="21.82051478539654" lon="-102.52807182853722"><ele>1956.0</ele><time>2026-03-22T13:51:37.01Z</time></trkpt><trkpt lat="21.820476127437516" lon="-102.52799124218936"><ele>1956.0</ele><time>2026-03-22T13:51:38.01Z</time></trkpt><trkpt lat="21.820437803022468" lon="-102.52790229890672"><ele>1956.0</ele><time>2026-03-22T13:51:39.01Z</time></trkpt><trkpt lat="21.820398993490887" lon="-102.5278149187102"><ele>1956.0</ele><time>2026-03-22T13:51:40.011Z</time></trkpt><trkpt lat="21.820362971498316" lon="-102.5277302610402"><ele>1956.0</ele><time>2026-03-22T13:51:41.011Z</time></trkpt><trkpt lat="21.820333869420526" lon="-102.52764300552433"><ele>1956.0</ele><time>2026-03-22T13:51:42.011Z</time></trkpt><trkpt lat="21.82028804432093" lon="-102.52755647888345"><ele>1956.0</ele><time>2026-03-22T13:51:43.012Z</time></trkpt><trkpt lat="21.820255960288556" lon="-102.52747270270876"><ele>1956.0</ele><time>2026-03-22T13:51:44.011Z</time></trkpt><trkpt lat="21.820221121711068" lon="-102.52739223360423"><ele>1956.0</ele><time>2026-03-22T13:51:45.011Z</time></trkpt><trkpt lat="21.820184864993188" lon="-102.5273163286825"><ele>1956.0</ele><time>2026-03-22T13:51:46.012Z</time></trkpt><trkpt lat="21.820149210435847" lon="-102.52724279335287"><ele>1956.0</ele><time>2026-03-22T13:51:47.011Z</time></trkpt><trkpt lat="21.820104945940614" lon="-102.52716776594475"><ele>1956.5</ele><time>2026-03-22T13:51:48.011Z</time></trkpt><trkpt lat="21.82005961818626" lon="-102.52709586018287"><ele>1957.0</ele><time>2026-03-22T13:51:49.011Z</time></trkpt><trkpt lat="21.820007052460266" lon="-102.52702908700427"><ele>1957.5</ele><time>2026-03-22T13:51:50.012Z</time></trkpt><trkpt lat="21.819948695033254" lon="-102.52697068551461"><ele>1958.0</ele><time>2026-03-22T13:51:51.012Z</time></trkpt><trkpt lat="21.819883999868075" lon="-102.52691678957201"><ele>1958.5</ele><time>2026-03-22T13:51:52.011Z</time></trkpt><trkpt lat="21.819815815685423" lon="-102.52687355457341"><ele>1959.0</ele><time>2026-03-22T13:51:53.011Z</time></trkpt><trkpt lat="21.819743168331122" lon="-102.52682490961796"><ele>1959.0</ele><time>2026-03-22T13:51:54.011Z</time></trkpt><trkpt lat="21.819670073550707" lon="-102.5267835615277"><ele>1959.0</ele><time>2026-03-22T13:51:55.011Z</time></trkpt><trkpt lat="21.819601036353507" lon="-102.52674725651008"><ele>1959.0</ele><time>2026-03-22T13:51:56.011Z</time></trkpt><trkpt lat="21.81953156436177" lon="-102.52671788332796"><ele>1959.0</ele><time>2026-03-22T13:51:57.011Z</time></trkpt><trkpt lat="21.81945722570145" lon="-102.52667673818435"><ele>1959.0</ele><time>2026-03-22T13:51:58.011Z</time></trkpt><trkpt lat="21.819388323878318" lon="-102.52663494068658"><ele>1959.0</ele><time>2026-03-22T13:51:59.011Z</time></trkpt><trkpt lat="21.819318080435696" lon="-102.52659522638756"><ele>1960.7142857142853</ele><time>2026-03-22T13:52:00.011Z</time></trkpt><trkpt lat="21.819258356461646" lon="-102.52656090408846"><ele>1962.4285714285713</ele><time>2026-03-22T13:52:01.011Z</time></trkpt><trkpt lat="21.819200531064794" lon="-102.52652442722706"><ele>1964.1428571428569</ele><time>2026-03-22T13:52:02.011Z</time></trkpt><trkpt lat="21.819138939726336" lon="-102.52649192211607"><ele>1965.8571428571427</ele><time>2026-03-22T13:52:03.011Z</time></trkpt><trkpt lat="21.819073564151314" lon="-102.52646606589897"><ele>1967.5714285714284</ele><time>2026-03-22T13:52:04.011Z</time></trkpt><trkpt lat="21.819010819568412" lon="-102.52644318204763"><ele>1969.2857142857142</ele><time>2026-03-22T13:52:05.011Z</time></trkpt><trkpt lat="21.818942611700926" lon="-102.52641644555001"><ele>1971.0</ele><time>2026-03-22T13:52:06.011Z</time></trkpt><trkpt lat="21.818874227738746" lon="-102.5263968207662"><ele>1971.0</ele><time>2026-03-22T13:52:07.011Z</time></trkpt><trkpt lat="21.818761365532207" lon="-102.52638405861948"><ele>1971.0</ele><time>2026-03-22T13:52:09.011Z</time></trkpt><trkpt lat="21.818696953093077" lon="-102.52637567259552"><ele>1971.0</ele><time>2026-03-22T13:52:10.011Z</time></trkpt><trkpt lat="21.818594230064136" lon="-102.52636885809977"><ele>1971.0</ele><time>2026-03-22T13:52:12.011Z</time></trkpt><trkpt lat="21.818481410975597" lon="-102.52636609722876"><ele>1971.0</ele><time>2026-03-22T13:52:14.011Z</time></trkpt><trkpt lat="21.818352708323246" lon="-102.52637668276475"><ele>1972.4</ele><time>2026-03-22T13:52:16.011Z</time></trkpt><trkpt lat="21.81828896661552" lon="-102.52637680864164"><ele>1973.8</ele><time>2026-03-22T13:52:17.011Z</time></trkpt><trkpt lat="21.81816835965289" lon="-102.52637837374591"><ele>1975.2000000000003</ele><time>2026-03-22T13:52:19.011Z</time></trkpt><trkpt lat="21.81805316659425" lon="-102.52638677540256"><ele>1976.6000000000001</ele><time>2026-03-22T13:52:21.011Z</time></trkpt><trkpt lat="21.817935086573815" lon="-102.52639602727356"><ele>1978.0</ele><time>2026-03-22T13:52:23.011Z</time></trkpt><trkpt lat="21.817825040734228" lon="-102.52639365042418"><ele>1978.0</ele><time>2026-03-22T13:52:25.011Z</time></trkpt><trkpt lat="21.81771093009882" lon="-102.52640765309778"><ele>1978.0</ele><time>2026-03-22T13:52:27.011Z</time></trkpt><trkpt lat="21.817594677452956" lon="-102.52641047909216"><ele>1978.0</ele><time>2026-03-22T13:52:29.011Z</time></trkpt><trkpt lat="21.817485948980167" lon="-102.52642074242169"><ele>1978.0</ele><time>2026-03-22T13:52:31.011Z</time></trkpt><trkpt lat="21.8173740889654" lon="-102.52641586718758"><ele>1979.0</ele><time>2026-03-22T13:52:33.011Z</time></trkpt><trkpt lat="21.81726927721035" lon="-102.52641652891657"><ele>1980.0000000000002</ele><time>2026-03-22T13:52:35.011Z</time></trkpt><trkpt lat="21.817150842838103" lon="-102.52642317238296"><ele>1981.0000000000002</ele><time>2026-03-22T13:52:37.011Z</time></trkpt><trkpt lat="21.81708263359695" lon="-102.52642209630301"><ele>1982.0</ele><time>2026-03-22T13:52:38.011Z</time></trkpt><trkpt lat="21.81695552921164" lon="-102.52642515940937"><ele>1983.0</ele><time>2026-03-22T13:52:40.011Z</time></trkpt><trkpt lat="21.81683194686025" lon="-102.5264126671139"><ele>1984.4</ele><time>2026-03-22T13:52:42.011Z</time></trkpt><trkpt lat="21.816711573528146" lon="-102.52640174098022"><ele>1985.8000000000002</ele><time>2026-03-22T13:52:44.011Z</time></trkpt><trkpt lat="21.8165921541915" lon="-102.52637667245804"><ele>1987.2</ele><time>2026-03-22T13:52:46.01Z</time></trkpt><trkpt lat="21.816472112752635" lon="-102.52635546228036"><ele>1988.6</ele><time>2026-03-22T13:52:48.01Z</time></trkpt><trkpt lat="21.81640900618587" lon="-102.52633718014715"><ele>1990.0</ele><time>2026-03-22T13:52:49.01Z</time></trkpt><trkpt lat="21.816296091571704" lon="-102.52629855716334"><ele>1990.0000000000002</ele><time>2026-03-22T13:52:51.01Z</time></trkpt><trkpt lat="21.81617718856702" lon="-102.52625916162076"><ele>1990.0</ele><time>2026-03-22T13:52:53.01Z</time></trkpt><trkpt lat="21.816112935030837" lon="-102.52623747931783"><ele>1990.0</ele><time>2026-03-22T13:52:54.01Z</time></trkpt><trkpt lat="21.816045733484515" lon="-102.52621583972952"><ele>1990.0</ele><time>2026-03-22T13:52:55.01Z</time></trkpt><trkpt lat="21.815977439812578" lon="-102.52619556009493"><ele>1990.0000000000002</ele><time>2026-03-22T13:52:56.01Z</time></trkpt><trkpt lat="21.81591137157905" lon="-102.52617658664154"><ele>1990.0</ele><time>2026-03-22T13:52:57.01Z</time></trkpt><trkpt lat="21.81584096261158" lon="-102.52615990862776"><ele>1989.3333333333335</ele><time>2026-03-22T13:52:58.01Z</time></trkpt><trkpt lat="21.815776789407682" lon="-102.52614287049838"><ele>1988.6666666666667</ele><time>2026-03-22T13:52:59.01Z</time></trkpt><trkpt lat="21.815712105047098" lon="-102.52612594082089"><ele>1988.0</ele><time>2026-03-22T13:53:00.01Z</time></trkpt><trkpt lat="21.81564953970312" lon="-102.52610318089947"><ele>1987.3333333333335</ele><time>2026-03-22T13:53:01.01Z</time></trkpt><trkpt lat="21.815584183300533" lon="-102.52608628723483"><ele>1986.6666666666667</ele><time>2026-03-22T13:53:02.01Z</time></trkpt><trkpt lat="21.81551543232301" lon="-102.52606524020821"><ele>1986.0</ele><time>2026-03-22T13:53:03.01Z</time></trkpt><trkpt lat="21.815388744378225" lon="-102.52603439251172"><ele>1986.0</ele><time>2026-03-22T13:53:05.01Z</time></trkpt><trkpt lat="21.815315155231687" lon="-102.52600831766267"><ele>1986.0</ele><time>2026-03-22T13:53:06.01Z</time></trkpt><trkpt lat="21.815243110440015" lon="-102.52598254784941"><ele>1986.0</ele><time>2026-03-22T13:53:07.01Z</time></trkpt><trkpt lat="21.81517167861339" lon="-102.52595222700913"><ele>1986.0</ele><time>2026-03-22T13:53:08.01Z</time></trkpt><trkpt lat="21.81510850006757" lon="-102.52591924321172"><ele>1986.0</ele><time>2026-03-22T13:53:09.01Z</time></trkpt><trkpt lat="21.815051288304623" lon="-102.52587385385941"><ele>1986.0</ele><time>2026-03-22T13:53:10.01Z</time></trkpt><trkpt lat="21.81498966108925" lon="-102.52582131691383"><ele>1987.142857142857</ele><time>2026-03-22T13:53:11.01Z</time></trkpt><trkpt lat="21.814940587572835" lon="-102.52576993661907"><ele>1988.2857142857142</ele><time>2026-03-22T13:53:12.01Z</time></trkpt><trkpt lat="21.814894254605846" lon="-102.5257163499092"><ele>1989.4285714285713</ele><time>2026-03-22T13:53:13.01Z</time></trkpt><trkpt lat="21.814844015694604" lon="-102.5256605036882"><ele>1990.5714285714284</ele><time>2026-03-22T13:53:14.01Z</time></trkpt><trkpt lat="21.814782995559582" lon="-102.52560401447646"><ele>1991.7142857142858</ele><time>2026-03-22T13:53:15.01Z</time></trkpt><trkpt lat="21.81473254327154" lon="-102.52554529449961"><ele>1992.8571428571427</ele><time>2026-03-22T13:53:16.01Z</time></trkpt><trkpt lat="21.814680850307315" lon="-102.52549554628455"><ele>1993.9999999999998</ele><time>2026-03-22T13:53:17.01Z</time></trkpt><trkpt lat="21.81462782488858" lon="-102.52544882709871"><ele>1993.9999999999998</ele><time>2026-03-22T13:53:18.01Z</time></trkpt><trkpt lat="21.8145648602653" lon="-102.52540472253368"><ele>1994.0</ele><time>2026-03-22T13:53:19.01Z</time></trkpt><trkpt lat="21.814442210540523" lon="-102.52535758194354"><ele>1994.0</ele><time>2026-03-22T13:53:21.01Z</time></trkpt><trkpt lat="21.81436403163836" lon="-102.5253370388313"><ele>1994.0</ele><time>2026-03-22T13:53:22.01Z</time></trkpt><trkpt lat="21.8142983258743" lon="-102.52531508025928"><ele>1993.9999999999998</ele><time>2026-03-22T13:53:23.01Z</time></trkpt><trkpt lat="21.814234030656294" lon="-102.52529898548278"><ele>1994.0</ele><time>2026-03-22T13:53:24.01Z</time></trkpt><trkpt lat="21.814167593244647" lon="-102.52528212032918"><ele>1993.6</ele><time>2026-03-22T13:53:25.01Z</time></trkpt><trkpt lat="21.81410687690572" lon="-102.52526055491849"><ele>1993.2</ele><time>2026-03-22T13:53:26.01Z</time></trkpt><trkpt lat="21.814044715534404" lon="-102.52524832438071"><ele>1992.7999999999997</ele><time>2026-03-22T13:53:27.01Z</time></trkpt><trkpt lat="21.81392543583905" lon="-102.52521883578025"><ele>1992.3999999999999</ele><time>2026-03-22T13:53:29.01Z</time></trkpt><trkpt lat="21.813818478810354" lon="-102.52519303507319"><ele>1992.0</ele><time>2026-03-22T13:53:31.01Z</time></trkpt><trkpt lat="21.8136971114511" lon="-102.52516898185979"><ele>1992.0</ele><time>2026-03-22T13:53:33.01Z</time></trkpt><trkpt lat="21.81358897330705" lon="-102.52514066685632"><ele>1991.9999999999998</ele><time>2026-03-22T13:53:35.01Z</time></trkpt><trkpt lat="21.813474398678412" lon="-102.52511908125554"><ele>1991.9999999999998</ele><time>2026-03-22T13:53:37.01Z</time></trkpt><trkpt lat="21.81335685031911" lon="-102.52509816054275"><ele>1992.0</ele><time>2026-03-22T13:53:39.01Z</time></trkpt><trkpt lat="21.813290823795274" lon="-102.52508207248758"><ele>1992.0</ele><time>2026-03-22T13:53:40.01Z</time></trkpt><trkpt lat="21.813226141572244" lon="-102.52507211218828"><ele>1993.8</ele><time>2026-03-22T13:53:41.01Z</time></trkpt><trkpt lat="21.813121915218648" lon="-102.5250582965446"><ele>1995.6</ele><time>2026-03-22T13:53:43.01Z</time></trkpt><trkpt lat="21.813007757665428" lon="-102.52506244919336"><ele>1997.3999999999999</ele><time>2026-03-22T13:53:45.01Z</time></trkpt><trkpt lat="21.812894419472514" lon="-102.52507927107894"><ele>1999.1999999999998</ele><time>2026-03-22T13:53:47.011Z</time></trkpt><trkpt lat="21.812789571443947" lon="-102.52509044076459"><ele>2001.0</ele><time>2026-03-22T13:53:49.012Z</time></trkpt><trkpt lat="21.81266616813856" lon="-102.5251205781629"><ele>2002.0</ele><time>2026-03-22T13:53:51.011Z</time></trkpt><trkpt lat="21.812563169060876" lon="-102.5251432448818"><ele>2003.0</ele><time>2026-03-22T13:53:53.011Z</time></trkpt><trkpt lat="21.812459081223146" lon="-102.52515453541054"><ele>2004.0</ele><time>2026-03-22T13:53:55.012Z</time></trkpt><trkpt lat="21.81236379055085" lon="-102.52515128461705"><ele>2005.0</ele><time>2026-03-22T13:53:57.011Z</time></trkpt><trkpt lat="21.81230030339175" lon="-102.52514632578603"><ele>2006.0</ele><time>2026-03-22T13:53:58.012Z</time></trkpt><trkpt lat="21.812182241730333" lon="-102.52512812617806"><ele>2006.0</ele><time>2026-03-22T13:54:00.011Z</time></trkpt><trkpt lat="21.812123930493254" lon="-102.52510255930551"><ele>2006.0</ele><time>2026-03-22T13:54:01.011Z</time></trkpt><trkpt lat="21.812000583092498" lon="-102.52505582621531"><ele>2006.0</ele><time>2026-03-22T13:54:03.011Z</time></trkpt><trkpt lat="21.811939271595524" lon="-102.52502868109946"><ele>2006.0</ele><time>2026-03-22T13:54:04.011Z</time></trkpt><trkpt lat="21.811832828654627" lon="-102.5249917170084"><ele>2006.0</ele><time>2026-03-22T13:54:06.011Z</time></trkpt><trkpt lat="21.81171829161634" lon="-102.52495254314461"><ele>2007.4</ele><time>2026-03-22T13:54:08.011Z</time></trkpt><trkpt lat="21.811649947612267" lon="-102.52494114053783"><ele>2008.8</ele><time>2026-03-22T13:54:09.011Z</time></trkpt><trkpt lat="21.811540739490095" lon="-102.52494212182134"><ele>2010.2000000000003</ele><time>2026-03-22T13:54:11.011Z</time></trkpt><trkpt lat="21.811434384835813" lon="-102.5249816707924"><ele>2011.6000000000001</ele><time>2026-03-22T13:54:13.011Z</time></trkpt><trkpt lat="21.81134589164976" lon="-102.52504781244946"><ele>2013.0</ele><time>2026-03-22T13:54:15.011Z</time></trkpt><trkpt lat="21.8112726761457" lon="-102.52510082620759"><ele>2013.0</ele><time>2026-03-22T13:54:17.011Z</time></trkpt><trkpt lat="21.8111839324363" lon="-102.52515699590398"><ele>2013.0000000000002</ele><time>2026-03-22T13:54:19.011Z</time></trkpt><trkpt lat="21.811102221305994" lon="-102.52522123500273"><ele>2013.0000000000002</ele><time>2026-03-22T13:54:21.011Z</time></trkpt><trkpt lat="21.811013957708667" lon="-102.52526961465932"><ele>2013.0</ele><time>2026-03-22T13:54:23.011Z</time></trkpt><trkpt lat="21.810914655390473" lon="-102.52528237692256"><ele>2013.0</ele><time>2026-03-22T13:54:25.011Z</time></trkpt><trkpt lat="21.810820443757663" lon="-102.52526363181714"><ele>2013.6666666666667</ele><time>2026-03-22T13:54:27.011Z</time></trkpt><trkpt lat="21.81075114177273" lon="-102.52522682081066"><ele>2014.3333333333335</ele><time>2026-03-22T13:54:29.011Z</time></trkpt><trkpt lat="21.81069609423724" lon="-102.52517209231894"><ele>2015.0</ele><time>2026-03-22T13:54:31.011Z</time></trkpt><trkpt lat="21.810647653734822" lon="-102.52511276354215"><ele>2015.6666666666667</ele><time>2026-03-22T13:54:33.011Z</time></trkpt><trkpt lat="21.810612306904734" lon="-102.52505191390797"><ele>2016.3333333333335</ele><time>2026-03-22T13:54:35.011Z</time></trkpt><trkpt lat="21.810564328278534" lon="-102.52496599676074"><ele>2017.0</ele><time>2026-03-22T13:54:38.011Z</time></trkpt><trkpt lat="21.810543424967445" lon="-102.52490053683532"><ele>2017.0000000000002</ele><time>2026-03-22T13:54:40.011Z</time></trkpt><trkpt lat="21.81049083401704" lon="-102.52484289986711"><ele>2017.0</ele><time>2026-03-22T13:54:42.011Z</time></trkpt><trkpt lat="21.81043497655549" lon="-102.52479942857815"><ele>2017.0</ele><time>2026-03-22T13:54:44.01Z</time></trkpt><trkpt lat="21.810366886113883" lon="-102.52477882889512"><ele>2017.0</ele><time>2026-03-22T13:54:46.01Z</time></trkpt><trkpt lat="21.81029343832153" lon="-102.52478962590108"><ele>2017.0000000000002</ele><time>2026-03-22T13:54:50.01Z</time></trkpt><trkpt lat="21.810216308073926" lon="-102.52480962206613"><ele>2017.0</ele><time>2026-03-22T13:54:54.01Z</time></trkpt><trkpt lat="21.81013635034418" lon="-102.52485251155636"><ele>2019.3333333333335</ele><time>2026-03-22T13:54:58.01Z</time></trkpt><trkpt lat="21.810062442819905" lon="-102.52488212636034"><ele>2021.6666666666667</ele><time>2026-03-22T13:55:01.01Z</time></trkpt><trkpt lat="21.80998850447281" lon="-102.52491557776668"><ele>2024.0</ele><time>2026-03-22T13:55:04.01Z</time></trkpt><trkpt lat="21.809933945157063" lon="-102.52496273698935"><ele>2026.3333333333335</ele><time>2026-03-22T13:55:06.01Z</time></trkpt><trkpt lat="21.80985981637683" lon="-102.52501210597275"><ele>2028.6666666666667</ele><time>2026-03-22T13:55:09.01Z</time></trkpt><trkpt lat="21.8098038587856" lon="-102.52506250638186"><ele>2031.0</ele><time>2026-03-22T13:55:11.01Z</time></trkpt><trkpt lat="21.809744410458475" lon="-102.52511502108584"><ele>2031.0000000000002</ele><time>2026-03-22T13:55:13.01Z</time></trkpt><trkpt lat="21.80969005562793" lon="-102.52515310523272"><ele>2031.0</ele><time>2026-03-22T13:55:15.01Z</time></trkpt><trkpt lat="21.80963148891206" lon="-102.52519849678244"><ele>2031.0000000000002</ele><time>2026-03-22T13:55:17.01Z</time></trkpt><trkpt lat="21.809573902196167" lon="-102.52523530173451"><ele>2031.0000000000002</ele><time>2026-03-22T13:55:19.01Z</time></trkpt><trkpt lat="21.80951633752262" lon="-102.52526851296433"><ele>2031.0</ele><time>2026-03-22T13:55:21.01Z</time></trkpt><trkpt lat="21.809446501079606" lon="-102.52532694546336"><ele>2031.0000000000002</ele><time>2026-03-22T13:55:24.01Z</time></trkpt><trkpt lat="21.809387138362446" lon="-102.5253709028674"><ele>2031.0000000000002</ele><time>2026-03-22T13:55:26.01Z</time></trkpt><trkpt lat="21.809325778285665" lon="-102.52540397099764"><ele>2032.8333333333333</ele><time>2026-03-22T13:55:28.01Z</time></trkpt><trkpt lat="21.80925548701351" lon="-102.52545905755757"><ele>2034.6666666666665</ele><time>2026-03-22T13:55:30.01Z</time></trkpt><trkpt lat="21.809199689234195" lon="-102.52549417931336"><ele>2036.5</ele><time>2026-03-22T13:55:31.01Z</time></trkpt><trkpt lat="21.809136372139303" lon="-102.5255362959496"><ele>2038.3333333333333</ele><time>2026-03-22T13:55:32.01Z</time></trkpt><trkpt lat="21.809029379687935" lon="-102.52559711956715"><ele>2040.1666666666665</ele><time>2026-03-22T13:55:34.01Z</time></trkpt><trkpt lat="21.80897646936695" lon="-102.5256347543178"><ele>2042.0</ele><time>2026-03-22T13:55:35.01Z</time></trkpt><trkpt lat="21.808923379951246" lon="-102.52567344980218"><ele>2042.0</ele><time>2026-03-22T13:55:36.01Z</time></trkpt><trkpt lat="21.80886035961962" lon="-102.52571208847817"><ele>2041.9999999999998</ele><time>2026-03-22T13:55:37.01Z</time></trkpt><trkpt lat="21.808759481332732" lon="-102.52578217069819"><ele>2041.9999999999998</ele><time>2026-03-22T13:55:39.01Z</time></trkpt><trkpt lat="21.80866612105419" lon="-102.52584231094814"><ele>2042.0</ele><time>2026-03-22T13:55:41.01Z</time></trkpt><trkpt lat="21.80858953553486" lon="-102.52589815255996"><ele>2042.0</ele><time>2026-03-22T13:55:42.01Z</time></trkpt><trkpt lat="21.808530182983155" lon="-102.52593953448553"><ele>2041.3333333333333</ele><time>2026-03-22T13:55:43.01Z</time></trkpt><trkpt lat="21.808473180364487" lon="-102.52597606840877"><ele>2040.6666666666665</ele><time>2026-03-22T13:55:44.01Z</time></trkpt><trkpt lat="21.808416316144523" lon="-102.52601591529125"><ele>2040.0</ele><time>2026-03-22T13:55:45.01Z</time></trkpt><trkpt lat="21.808360186829358" lon="-102.52604979630816"><ele>2039.3333333333335</ele><time>2026-03-22T13:55:46.01Z</time></trkpt><trkpt lat="21.80826092192478" lon="-102.52611397828855"><ele>2038.6666666666667</ele><time>2026-03-22T13:55:48.01Z</time></trkpt><trkpt lat="21.808163074974484" lon="-102.52617616178635"><ele>2038.0</ele><time>2026-03-22T13:55:50.01Z</time></trkpt><trkpt lat="21.808067401459653" lon="-102.52622745272511"><ele>2041.5</ele><time>2026-03-22T13:55:52.011Z</time></trkpt><trkpt lat="21.807960090283352" lon="-102.5262742366561"><ele>2045.0</ele><time>2026-03-22T13:55:54.011Z</time></trkpt><trkpt lat="21.807851946523915" lon="-102.52631096881797"><ele>2048.5</ele><time>2026-03-22T13:55:56.011Z</time></trkpt><trkpt lat="21.80773792287305" lon="-102.52633143076135"><ele>2052.0</ele><time>2026-03-22T13:55:58.011Z</time></trkpt><trkpt lat="21.80763411261142" lon="-102.52635268322003"><ele>2052.0</ele><time>2026-03-22T13:56:00.012Z</time></trkpt><trkpt lat="21.807529402843116" lon="-102.52635533817613"><ele>2052.0</ele><time>2026-03-22T13:56:02.012Z</time></trkpt><trkpt lat="21.80741785829167" lon="-102.5263525821941"><ele>2052.0</ele><time>2026-03-22T13:56:04.011Z</time></trkpt><trkpt lat="21.80735448249169" lon="-102.52635270410799"><ele>2052.0</ele><time>2026-03-22T13:56:05.011Z</time></trkpt><trkpt lat="21.807229485434224" lon="-102.52634881255771"><ele>2052.0</ele><time>2026-03-22T13:56:07.011Z</time></trkpt><trkpt lat="21.807157679279797" lon="-102.52634753057701"><ele>2052.0000000000005</ele><time>2026-03-22T13:56:08.011Z</time></trkpt><trkpt lat="21.80708042666121" lon="-102.52634233748903"><ele>2052.0</ele><time>2026-03-22T13:56:09.011Z</time></trkpt><trkpt lat="21.807010905014362" lon="-102.52633385517923"><ele>2052.0</ele><time>2026-03-22T13:56:10.011Z</time></trkpt><trkpt lat="21.80693749124809" lon="-102.52633106590844"><ele>2052.0</ele><time>2026-03-22T13:56:11.011Z</time></trkpt><trkpt lat="21.806869543983723" lon="-102.52632629115583"><ele>2052.0</ele><time>2026-03-22T13:56:12.011Z</time></trkpt><trkpt lat="21.806803362009294" lon="-102.52631665642232"><ele>2052.0000000000005</ele><time>2026-03-22T13:56:13.011Z</time></trkpt><trkpt lat="21.80672865789101" lon="-102.5263121484423"><ele>2052.0</ele><time>2026-03-22T13:56:14.011Z</time></trkpt><trkpt lat="21.806650730924993" lon="-102.52630437045275"><ele>2052.5</ele><time>2026-03-22T13:56:15.011Z</time></trkpt><trkpt lat="21.806578260956076" lon="-102.52629757550284"><ele>2053.0</ele><time>2026-03-22T13:56:16.011Z</time></trkpt><trkpt lat="21.806506319238377" lon="-102.52628249627126"><ele>2053.5</ele><time>2026-03-22T13:56:17.011Z</time></trkpt><trkpt lat="21.806434173623657" lon="-102.52626581285693"><ele>2054.0</ele><time>2026-03-22T13:56:18.011Z</time></trkpt><trkpt lat="21.806357409782123" lon="-102.52624216282405"><ele>2054.5</ele><time>2026-03-22T13:56:19.011Z</time></trkpt><trkpt lat="21.806284378024607" lon="-102.52621727655473"><ele>2055.0</ele><time>2026-03-22T13:56:20.011Z</time></trkpt><trkpt lat="21.80621307826515" lon="-102.52619129973931"><ele>2053.0</ele><time>2026-03-22T13:56:21.011Z</time></trkpt><trkpt lat="21.80613415652723" lon="-102.5261593414589"><ele>2051.0</ele><time>2026-03-22T13:56:22.011Z</time></trkpt><trkpt lat="21.80605000976157" lon="-102.52612018531275"><ele>2049.0</ele><time>2026-03-22T13:56:23.011Z</time></trkpt><trkpt lat="21.805970831257703" lon="-102.52608504538074"><ele>2047.0</ele><time>2026-03-22T13:56:24.011Z</time></trkpt><trkpt lat="21.80589020151347" lon="-102.52603911964182"><ele>2045.0</ele><time>2026-03-22T13:56:25.011Z</time></trkpt><trkpt lat="21.805815103729675" lon="-102.52599826790568"><ele>2043.0</ele><time>2026-03-22T13:56:26.011Z</time></trkpt><trkpt lat="21.805735940809846" lon="-102.52596056734501"><ele>2043.0</ele><time>2026-03-22T13:56:27.011Z</time></trkpt><trkpt lat="21.805662155660375" lon="-102.5259225765502"><ele>2043.0</ele><time>2026-03-22T13:56:28.011Z</time></trkpt><trkpt lat="21.805589185571616" lon="-102.52588941607151"><ele>2043.0</ele><time>2026-03-22T13:56:29.011Z</time></trkpt><trkpt lat="21.80551231843037" lon="-102.52584656685289"><ele>2043.0</ele><time>2026-03-22T13:56:30.011Z</time></trkpt><trkpt lat="21.805440022410522" lon="-102.52580515668842"><ele>2043.0</ele><time>2026-03-22T13:56:31.01Z</time></trkpt><trkpt lat="21.805362829522043" lon="-102.52576296299837"><ele>2043.0</ele><time>2026-03-22T13:56:32.01Z</time></trkpt><trkpt lat="21.805283509498846" lon="-102.52572144995155"><ele>2043.0</ele><time>2026-03-22T13:56:33.01Z</time></trkpt><trkpt lat="21.805202337888403" lon="-102.52567718669799"><ele>2043.0</ele><time>2026-03-22T13:56:34.01Z</time></trkpt><trkpt lat="21.8051236360646" lon="-102.52563745394059"><ele>2043.0</ele><time>2026-03-22T13:56:35.01Z</time></trkpt><trkpt lat="21.805049205726476" lon="-102.52559778648215"><ele>2043.0</ele><time>2026-03-22T13:56:36.01Z</time></trkpt><trkpt lat="21.80497252533719" lon="-102.52555426137963"><ele>2043.0</ele><time>2026-03-22T13:56:37.01Z</time></trkpt><trkpt lat="21.804898569730348" lon="-102.5255181113358"><ele>2043.0</ele><time>2026-03-22T13:56:38.01Z</time></trkpt><trkpt lat="21.804814350812165" lon="-102.52548072994531"><ele>2043.2</ele><time>2026-03-22T13:56:39.01Z</time></trkpt><trkpt lat="21.8047337817622" lon="-102.52544242045731"><ele>2043.4</ele><time>2026-03-22T13:56:40.01Z</time></trkpt><trkpt lat="21.804651356419537" lon="-102.52539638374142"><ele>2043.6000000000001</ele><time>2026-03-22T13:56:41.01Z</time></trkpt><trkpt lat="21.804569285992187" lon="-102.52535357726205"><ele>2043.8000000000002</ele><time>2026-03-22T13:56:42.01Z</time></trkpt><trkpt lat="21.804483390308132" lon="-102.52531392975676"><ele>2044.0</ele><time>2026-03-22T13:56:43.01Z</time></trkpt><trkpt lat="21.804401731007825" lon="-102.52526490773597"><ele>2044.8000000000002</ele><time>2026-03-22T13:56:44.01Z</time></trkpt><trkpt lat="21.80432021129419" lon="-102.5252155056451"><ele>2045.6000000000001</ele><time>2026-03-22T13:56:45.01Z</time></trkpt><trkpt lat="21.80423702076681" lon="-102.52517204805176"><ele>2046.4</ele><time>2026-03-22T13:56:46.01Z</time></trkpt><trkpt lat="21.804152817260352" lon="-102.52512845921883"><ele>2047.2</ele><time>2026-03-22T13:56:47.01Z</time></trkpt><trkpt lat="21.80406931686751" lon="-102.52508453150163"><ele>2048.0</ele><time>2026-03-22T13:56:48.01Z</time></trkpt><trkpt lat="21.80399438770456" lon="-102.52504556534068"><ele>2048.0</ele><time>2026-03-22T13:56:49.01Z</time></trkpt><trkpt lat="21.803922236184533" lon="-102.52500818021508"><ele>2048.0</ele><time>2026-03-22T13:56:50.01Z</time></trkpt><trkpt lat="21.8038360825198" lon="-102.52496089106906"><ele>2048.0</ele><time>2026-03-22T13:56:51.01Z</time></trkpt><trkpt lat="21.803748838323344" lon="-102.52491161868349"><ele>2048.0</ele><time>2026-03-22T13:56:52.01Z</time></trkpt><trkpt lat="21.8036636760505" lon="-102.52487003140774"><ele>2048.0</ele><time>2026-03-22T13:56:53.01Z</time></trkpt><trkpt lat="21.803576299866485" lon="-102.52482670005686"><ele>2046.6000000000001</ele><time>2026-03-22T13:56:54.01Z</time></trkpt><trkpt lat="21.803488838216378" lon="-102.52478158975546"><ele>2045.2000000000003</ele><time>2026-03-22T13:56:55.01Z</time></trkpt><trkpt lat="21.80340015539359" lon="-102.52474121220422"><ele>2043.8</ele><time>2026-03-22T13:56:56.01Z</time></trkpt><trkpt lat="21.803312162060173" lon="-102.52469699101891"><ele>2042.4</ele><time>2026-03-22T13:56:57.01Z</time></trkpt><trkpt lat="21.803220058271798" lon="-102.52465108944553"><ele>2041.0</ele><time>2026-03-22T13:56:58.01Z</time></trkpt><trkpt lat="21.803127353832004" lon="-102.5246039957888"><ele>2041.8</ele><time>2026-03-22T13:56:59.01Z</time></trkpt><trkpt lat="21.80302960007908" lon="-102.52455565462391"><ele>2042.6</ele><time>2026-03-22T13:57:00.01Z</time></trkpt><trkpt lat="21.802923912755396" lon="-102.5245246991113"><ele>2043.4</ele><time>2026-03-22T13:57:01.01Z</time></trkpt><trkpt lat="21.802818658497493" lon="-102.52449257407298"><ele>2044.2</ele><time>2026-03-22T13:57:02.01Z</time></trkpt><trkpt lat="21.802718741233097" lon="-102.52446542507163"><ele>2045.0</ele><time>2026-03-22T13:57:03.01Z</time></trkpt><trkpt lat="21.80260390383609" lon="-102.52444116837388"><ele>2045.0</ele><time>2026-03-22T13:57:04.01Z</time></trkpt><trkpt lat="21.802490258786268" lon="-102.5244206017966"><ele>2045.0</ele><time>2026-03-22T13:57:05.01Z</time></trkpt><trkpt lat="21.80237385570488" lon="-102.52440362408231"><ele>2045.0</ele><time>2026-03-22T13:57:06.01Z</time></trkpt><trkpt lat="21.802249307300524" lon="-102.52439564039157"><ele>2045.0</ele><time>2026-03-22T13:57:07.01Z</time></trkpt><trkpt lat="21.802128593334174" lon="-102.52438738288805"><ele>2045.0</ele><time>2026-03-22T13:57:08.01Z</time></trkpt><trkpt lat="21.802006113663044" lon="-102.52437392680109"><ele>2045.0</ele><time>2026-03-22T13:57:09.01Z</time></trkpt><trkpt lat="21.80187959096666" lon="-102.52435866857114"><ele>2045.0</ele><time>2026-03-22T13:57:10.01Z</time></trkpt><trkpt lat="21.801748781634007" lon="-102.52434146007248"><ele>2045.0</ele><time>2026-03-22T13:57:11.01Z</time></trkpt><trkpt lat="21.801621647621864" lon="-102.52432450062024"><ele>2043.25</ele><time>2026-03-22T13:57:12.01Z</time></trkpt><trkpt lat="21.801488053427775" lon="-102.5243105518172"><ele>2041.5</ele><time>2026-03-22T13:57:13.01Z</time></trkpt><trkpt lat="21.801346324994384" lon="-102.52429221056458"><ele>2039.75</ele><time>2026-03-22T13:57:14.01Z</time></trkpt><trkpt lat="21.80120847713562" lon="-102.52427980325812"><ele>2038.0</ele><time>2026-03-22T13:57:15.01Z</time></trkpt><trkpt lat="21.801065059157647" lon="-102.52426442056303"><ele>2036.75</ele><time>2026-03-22T13:57:16.01Z</time></trkpt><trkpt lat="21.800928582317532" lon="-102.52424883235345"><ele>2035.5</ele><time>2026-03-22T13:57:17.01Z</time></trkpt><trkpt lat="21.80079170435857" lon="-102.52423670726473"><ele>2034.25</ele><time>2026-03-22T13:57:18.01Z</time></trkpt><trkpt lat="21.80065265388752" lon="-102.52422362151586"><ele>2033.0</ele><time>2026-03-22T13:57:19.01Z</time></trkpt><trkpt lat="21.800520052743224" lon="-102.5242070715766"><ele>2033.0</ele><time>2026-03-22T13:57:20.01Z</time></trkpt><trkpt lat="21.80039603550168" lon="-102.52418985187104"><ele>2033.0</ele><time>2026-03-22T13:57:21.01Z</time></trkpt><trkpt lat="21.800277960140072" lon="-102.52417735466786"><ele>2033.0</ele><time>2026-03-22T13:57:22.01Z</time></trkpt><trkpt lat="21.800145659401917" lon="-102.52415476901962"><ele>2033.0</ele><time>2026-03-22T13:57:23.01Z</time></trkpt><trkpt lat="21.800026876217103" lon="-102.52413901547243"><ele>2033.5</ele><time>2026-03-22T13:57:24.01Z</time></trkpt><trkpt lat="21.79990859405745" lon="-102.52412197483045"><ele>2034.0</ele><time>2026-03-22T13:57:25.01Z</time></trkpt><trkpt lat="21.799792200833764" lon="-102.52410978041786"><ele>2034.5</ele><time>2026-03-22T13:57:26.01Z</time></trkpt><trkpt lat="21.799666896712406" lon="-102.52409131574302"><ele>2035.0</ele><time>2026-03-22T13:57:27.01Z</time></trkpt><trkpt lat="21.79954587986763" lon="-102.52407667872639"><ele>2035.0</ele><time>2026-03-22T13:57:28.01Z</time></trkpt><trkpt lat="21.799417716702667" lon="-102.52406211467596"><ele>2035.0</ele><time>2026-03-22T13:57:29.01Z</time></trkpt><trkpt lat="21.799299630275343" lon="-102.52404882043611"><ele>2035.0</ele><time>2026-03-22T13:57:30.01Z</time></trkpt><trkpt lat="21.799186694625263" lon="-102.52403520019496"><ele>2035.0</ele><time>2026-03-22T13:57:31.01Z</time></trkpt><trkpt lat="21.799057244825484" lon="-102.52401894051731"><ele>2034.0</ele><time>2026-03-22T13:57:32.01Z</time></trkpt><trkpt lat="21.79894050889314" lon="-102.524006608613"><ele>2033.0</ele><time>2026-03-22T13:57:33.01Z</time></trkpt><trkpt lat="21.7988174845702" lon="-102.5239940998312"><ele>2032.0</ele><time>2026-03-22T13:57:34.01Z</time></trkpt><trkpt lat="21.798690209655497" lon="-102.5239781168932"><ele>2031.0</ele><time>2026-03-22T13:57:35.01Z</time></trkpt><trkpt lat="21.798565819664578" lon="-102.52396562981349"><ele>2029.5</ele><time>2026-03-22T13:57:36.01Z</time></trkpt><trkpt lat="21.798433487534318" lon="-102.5239525201855"><ele>2028.0</ele><time>2026-03-22T13:57:37.01Z</time></trkpt><trkpt lat="21.79829850664347" lon="-102.52393499770011"><ele>2026.5</ele><time>2026-03-22T13:57:38.01Z</time></trkpt><trkpt lat="21.798171561943132" lon="-102.52391989409317"><ele>2025.0</ele><time>2026-03-22T13:57:39.01Z</time></trkpt><trkpt lat="21.798040129897352" lon="-102.52390542556175"><ele>2025.0</ele><time>2026-03-22T13:57:40.01Z</time></trkpt><trkpt lat="21.79790406577375" lon="-102.52389468424768"><ele>2025.0</ele><time>2026-03-22T13:57:41.01Z</time></trkpt><trkpt lat="21.797769738151175" lon="-102.52389192185383"><ele>2025.0</ele><time>2026-03-22T13:57:42.01Z</time></trkpt><trkpt lat="21.797634154989183" lon="-102.52388972627767"><ele>2025.0</ele><time>2026-03-22T13:57:43.01Z</time></trkpt><trkpt lat="21.79749799421321" lon="-102.52389542149751"><ele>2024.25</ele><time>2026-03-22T13:57:44.01Z</time></trkpt><trkpt lat="21.797370037292215" lon="-102.52390640605977"><ele>2023.5</ele><time>2026-03-22T13:57:45.01Z</time></trkpt><trkpt lat="21.797242469044438" lon="-102.52392429108235"><ele>2022.75</ele><time>2026-03-22T13:57:46.01Z</time></trkpt><trkpt lat="21.797110238845526" lon="-102.52395168032481"><ele>2022.0</ele><time>2026-03-22T13:57:47.01Z</time></trkpt><trkpt lat="21.7969858389379" lon="-102.5239863318061"><ele>2022.0</ele><time>2026-03-22T13:57:48.01Z</time></trkpt><trkpt lat="21.796861337260577" lon="-102.5240215703339"><ele>2022.0</ele><time>2026-03-22T13:57:49.01Z</time></trkpt><trkpt lat="21.79674120229845" lon="-102.52406727878909"><ele>2022.0</ele><time>2026-03-22T13:57:50.01Z</time></trkpt><trkpt lat="21.796619520347946" lon="-102.52410717121283"><ele>2022.0</ele><time>2026-03-22T13:57:51.01Z</time></trkpt><trkpt lat="21.796501521717023" lon="-102.52414381904596"><ele>2022.0</ele><time>2026-03-22T13:57:52.01Z</time></trkpt><trkpt lat="21.796384850654352" lon="-102.52418363441998"><ele>2022.0</ele><time>2026-03-22T13:57:53.009Z</time></trkpt><trkpt lat="21.796266105489284" lon="-102.52422264348698"><ele>2022.0</ele><time>2026-03-22T13:57:54.009Z</time></trkpt><trkpt lat="21.796148771018437" lon="-102.52426028212183"><ele>2022.0</ele><time>2026-03-22T13:57:55.009Z</time></trkpt><trkpt lat="21.79603012632778" lon="-102.52429569004383"><ele>2024.75</ele><time>2026-03-22T13:57:56.009Z</time></trkpt><trkpt lat="21.795905343580195" lon="-102.5243372872656"><ele>2027.5</ele><time>2026-03-22T13:57:57.009Z</time></trkpt><trkpt lat="21.79578331717926" lon="-102.5243764969156"><ele>2030.25</ele><time>2026-03-22T13:57:58.011Z</time></trkpt><trkpt lat="21.79566254240075" lon="-102.52441685503403"><ele>2033.0</ele><time>2026-03-22T13:57:59.011Z</time></trkpt><trkpt lat="21.795546257202194" lon="-102.52445872780842"><ele>2033.0</ele><time>2026-03-22T13:58:00.011Z</time></trkpt><trkpt lat="21.795426213199203" lon="-102.5244966018839"><ele>2033.0</ele><time>2026-03-22T13:58:01.011Z</time></trkpt><trkpt lat="21.795304670616712" lon="-102.52453589770583"><ele>2033.0</ele><time>2026-03-22T13:58:02.011Z</time></trkpt><trkpt lat="21.795175840778064" lon="-102.52457528245448"><ele>2033.0</ele><time>2026-03-22T13:58:03.011Z</time></trkpt><trkpt lat="21.79504209346296" lon="-102.52461629291447"><ele>2027.0</ele><time>2026-03-22T13:58:04.012Z</time></trkpt><trkpt lat="21.794909819677862" lon="-102.52465379950316"><ele>2021.0</ele><time>2026-03-22T13:58:05.011Z</time></trkpt><trkpt lat="21.794780849928213" lon="-102.52469617090411"><ele>2015.0</ele><time>2026-03-22T13:58:06.011Z</time></trkpt><trkpt lat="21.79465675055939" lon="-102.52473526501362"><ele>2009.0</ele><time>2026-03-22T13:58:07.011Z</time></trkpt><trkpt lat="21.79453335181402" lon="-102.52477174791005"><ele>2009.0</ele><time>2026-03-22T13:58:08.011Z</time></trkpt><trkpt lat="21.794409324350596" lon="-102.52479436189107"><ele>2009.0</ele><time>2026-03-22T13:58:09.011Z</time></trkpt><trkpt lat="21.794285045138274" lon="-102.52480217084155"><ele>2009.0</ele><time>2026-03-22T13:58:10.012Z</time></trkpt><trkpt lat="21.794157712802864" lon="-102.52479349025954"><ele>2009.0</ele><time>2026-03-22T13:58:11.011Z</time></trkpt><trkpt lat="21.79402498224888" lon="-102.52477811599992"><ele>2011.25</ele><time>2026-03-22T13:58:12.011Z</time></trkpt><trkpt lat="21.79390395396266" lon="-102.52474876478911"><ele>2013.5</ele><time>2026-03-22T13:58:13.011Z</time></trkpt><trkpt lat="21.79378822730174" lon="-102.52469443400352"><ele>2015.75</ele><time>2026-03-22T13:58:14.011Z</time></trkpt><trkpt lat="21.79368000378519" lon="-102.52463147234953"><ele>2018.0</ele><time>2026-03-22T13:58:15.011Z</time></trkpt><trkpt lat="21.79357166504859" lon="-102.52456726207593"><ele>2020.0</ele><time>2026-03-22T13:58:16.011Z</time></trkpt><trkpt lat="21.793461787242986" lon="-102.52450298608869"><ele>2022.0</ele><time>2026-03-22T13:58:17.011Z</time></trkpt><trkpt lat="21.793347588881602" lon="-102.52443510397339"><ele>2024.0</ele><time>2026-03-22T13:58:18.011Z</time></trkpt><trkpt lat="21.79324052384097" lon="-102.5243721895921"><ele>2026.0</ele><time>2026-03-22T13:58:19.011Z</time></trkpt><trkpt lat="21.793131661451763" lon="-102.52430718312132"><ele>2026.0</ele><time>2026-03-22T13:58:20.011Z</time></trkpt><trkpt lat="21.79302511075043" lon="-102.5242404235782"><ele>2026.0</ele><time>2026-03-22T13:58:21.011Z</time></trkpt><trkpt lat="21.792918870272885" lon="-102.52417400353626"><ele>2026.0</ele><time>2026-03-22T13:58:22.011Z</time></trkpt><trkpt lat="21.792812940625375" lon="-102.5241060894479"><ele>2026.0</ele><time>2026-03-22T13:58:23.011Z</time></trkpt><trkpt lat="21.792717665048865" lon="-102.52403917676398"><ele>2026.0</ele><time>2026-03-22T13:58:24.011Z</time></trkpt><trkpt lat="21.792624967689235" lon="-102.52396765447477"><ele>2026.0</ele><time>2026-03-22T13:58:25.011Z</time></trkpt><trkpt lat="21.792536949591852" lon="-102.52388707768446"><ele>2026.0</ele><time>2026-03-22T13:58:26.011Z</time></trkpt><trkpt lat="21.792450857407907" lon="-102.52379936234266"><ele>2026.0</ele><time>2026-03-22T13:58:27.011Z</time></trkpt><trkpt lat="21.792376062756922" lon="-102.5237055499579"><ele>2026.0</ele><time>2026-03-22T13:58:28.011Z</time></trkpt><trkpt lat="21.79230775367851" lon="-102.52360093581004"><ele>2026.0</ele><time>2026-03-22T13:58:29.011Z</time></trkpt><trkpt lat="21.79225122249647" lon="-102.5234839844118"><ele>2026.0</ele><time>2026-03-22T13:58:30.011Z</time></trkpt><trkpt lat="21.792206114549895" lon="-102.52335997875129"><ele>2026.0</ele><time>2026-03-22T13:58:31.011Z</time></trkpt><trkpt lat="21.79216893097566" lon="-102.52323234423004"><ele>2026.0</ele><time>2026-03-22T13:58:32.011Z</time></trkpt><trkpt lat="21.792145859265027" lon="-102.52309998700855"><ele>2026.0</ele><time>2026-03-22T13:58:33.011Z</time></trkpt><trkpt lat="21.792134766626337" lon="-102.52296017198407"><ele>2026.0</ele><time>2026-03-22T13:58:34.011Z</time></trkpt><trkpt lat="21.792123572297143" lon="-102.52281682492197"><ele>2026.0</ele><time>2026-03-22T13:58:35.011Z</time></trkpt><trkpt lat="21.792104546969128" lon="-102.5226760038919"><ele>2025.75</ele><time>2026-03-22T13:58:36.011Z</time></trkpt><trkpt lat="21.792084897783948" lon="-102.52253564315716"><ele>2025.5</ele><time>2026-03-22T13:58:37.011Z</time></trkpt><trkpt lat="21.792064027697258" lon="-102.52239334659528"><ele>2025.25</ele><time>2026-03-22T13:58:38.011Z</time></trkpt><trkpt lat="21.79204907673064" lon="-102.52224907466292"><ele>2025.0</ele><time>2026-03-22T13:58:39.011Z</time></trkpt><trkpt lat="21.792032725132852" lon="-102.52211393530237"><ele>2025.25</ele><time>2026-03-22T13:58:40.011Z</time></trkpt><trkpt lat="21.79201801919853" lon="-102.52197098438512"><ele>2025.5</ele><time>2026-03-22T13:58:41.011Z</time></trkpt><trkpt lat="21.792004234524114" lon="-102.52183410012192"><ele>2025.75</ele><time>2026-03-22T13:58:42.011Z</time></trkpt><trkpt lat="21.79199198753527" lon="-102.52170086640419"><ele>2026.0</ele><time>2026-03-22T13:58:43.011Z</time></trkpt><trkpt lat="21.79197943912493" lon="-102.52157736531737"><ele>2026.0</ele><time>2026-03-22T13:58:44.011Z</time></trkpt><trkpt lat="21.791965078150337" lon="-102.521453285917"><ele>2026.0</ele><time>2026-03-22T13:58:45.011Z</time></trkpt><trkpt lat="21.791947577855908" lon="-102.52132830167646"><ele>2026.0</ele><time>2026-03-22T13:58:46.011Z</time></trkpt><trkpt lat="21.791932460071298" lon="-102.52120225259999"><ele>2026.0</ele><time>2026-03-22T13:58:47.011Z</time></trkpt><trkpt lat="21.79191975735488" lon="-102.52108363958858"><ele>2027.0</ele><time>2026-03-22T13:58:48.011Z</time></trkpt><trkpt lat="21.791905246876926" lon="-102.52096688000391"><ele>2028.0</ele><time>2026-03-22T13:58:49.011Z</time></trkpt><trkpt lat="21.79188729087258" lon="-102.52084829455558"><ele>2029.0</ele><time>2026-03-22T13:58:50.011Z</time></trkpt><trkpt lat="21.791875280297138" lon="-102.52073058929666"><ele>2030.0</ele><time>2026-03-22T13:58:51.011Z</time></trkpt><trkpt lat="21.791862989428918" lon="-102.52062042428055"><ele>2031.0</ele><time>2026-03-22T13:58:52.011Z</time></trkpt><trkpt lat="21.791845363971856" lon="-102.52050702352692"><ele>2030.1999999999998</ele><time>2026-03-22T13:58:53.011Z</time></trkpt><trkpt lat="21.791834321418033" lon="-102.5203921515278"><ele>2029.3999999999999</ele><time>2026-03-22T13:58:54.011Z</time></trkpt><trkpt lat="21.791820131611072" lon="-102.52027315466397"><ele>2028.6</ele><time>2026-03-22T13:58:55.011Z</time></trkpt><trkpt lat="21.791805135535274" lon="-102.52016124016797"><ele>2027.8</ele><time>2026-03-22T13:58:56.011Z</time></trkpt><trkpt lat="21.791790955623796" lon="-102.52004366232023"><ele>2027.0</ele><time>2026-03-22T13:58:57.011Z</time></trkpt><trkpt lat="21.79177662560064" lon="-102.51992349368493"><ele>2027.0</ele><time>2026-03-22T13:58:58.011Z</time></trkpt><trkpt lat="21.791758163420994" lon="-102.51981133545789"><ele>2026.9999999999998</ele><time>2026-03-22T13:58:59.011Z</time></trkpt><trkpt lat="21.79173372304156" lon="-102.5197018644079"><ele>2026.9999999999998</ele><time>2026-03-22T13:59:00.011Z</time></trkpt><trkpt lat="21.791705759665387" lon="-102.51959640085754"><ele>2027.0</ele><time>2026-03-22T13:59:01.011Z</time></trkpt><trkpt lat="21.791669102896186" lon="-102.51949769560544"><ele>2027.0</ele><time>2026-03-22T13:59:02.011Z</time></trkpt><trkpt lat="21.79162087150197" lon="-102.51941007349309"><ele>2028.0</ele><time>2026-03-22T13:59:03.011Z</time></trkpt><trkpt lat="21.791570156814956" lon="-102.51932513306355"><ele>2028.9999999999998</ele><time>2026-03-22T13:59:04.011Z</time></trkpt><trkpt lat="21.791511034754613" lon="-102.51924948790597"><ele>2029.9999999999998</ele><time>2026-03-22T13:59:05.011Z</time></trkpt><trkpt lat="21.79144860045181" lon="-102.51918101860181"><ele>2031.0</ele><time>2026-03-22T13:59:06.011Z</time></trkpt><trkpt lat="21.79137960323365" lon="-102.51911812356562"><ele>2032.0</ele><time>2026-03-22T13:59:07.011Z</time></trkpt><trkpt lat="21.79131138267907" lon="-102.51906336374932"><ele>2032.0000000000002</ele><time>2026-03-22T13:59:08.011Z</time></trkpt><trkpt lat="21.791238976352794" lon="-102.5190110155955"><ele>2032.0</ele><time>2026-03-22T13:59:09.011Z</time></trkpt><trkpt lat="21.79116702551855" lon="-102.51896398578795"><ele>2032.0</ele><time>2026-03-22T13:59:10.011Z</time></trkpt><trkpt lat="21.791089161406042" lon="-102.51892845578693"><ele>2032.0</ele><time>2026-03-22T13:59:11.011Z</time></trkpt><trkpt lat="21.791006592632044" lon="-102.51889811476323"><ele>2032.0000000000002</ele><time>2026-03-22T13:59:12.011Z</time></trkpt><trkpt lat="21.79092988753738" lon="-102.51886791429595"><ele>2032.0</ele><time>2026-03-22T13:59:13.011Z</time></trkpt><trkpt lat="21.79085564963507" lon="-102.51884208417904"><ele>2031.8333333333335</ele><time>2026-03-22T13:59:14.011Z</time></trkpt><trkpt lat="21.790778109264984" lon="-102.51881666922283"><ele>2031.6666666666667</ele><time>2026-03-22T13:59:15.011Z</time></trkpt><trkpt lat="21.790701067992845" lon="-102.51878882884363"><ele>2031.5</ele><time>2026-03-22T13:59:16.011Z</time></trkpt><trkpt lat="21.790625693160298" lon="-102.51876616834039"><ele>2031.3333333333335</ele><time>2026-03-22T13:59:17.011Z</time></trkpt><trkpt lat="21.79055117695638" lon="-102.51874980994809"><ele>2031.1666666666667</ele><time>2026-03-22T13:59:18.011Z</time></trkpt><trkpt lat="21.79048457754584" lon="-102.51872755019755"><ele>2031.0</ele><time>2026-03-22T13:59:19.011Z</time></trkpt><trkpt lat="21.790417994013723" lon="-102.51870465332803"><ele>2032.1428571428573</ele><time>2026-03-22T13:59:20.011Z</time></trkpt><trkpt lat="21.790349025261303" lon="-102.51868174272248"><ele>2033.2857142857142</ele><time>2026-03-22T13:59:21.011Z</time></trkpt><trkpt lat="21.790279919418072" lon="-102.5186610632866"><ele>2034.4285714285716</ele><time>2026-03-22T13:59:22.011Z</time></trkpt><trkpt lat="21.79020995942448" lon="-102.51863972412721"><ele>2035.5714285714287</ele><time>2026-03-22T13:59:23.011Z</time></trkpt><trkpt lat="21.790140712108204" lon="-102.51862733416436"><ele>2036.7142857142858</ele><time>2026-03-22T13:59:24.011Z</time></trkpt><trkpt lat="21.79007154479072" lon="-102.51860603184313"><ele>2037.857142857143</ele><time>2026-03-22T13:59:25.01Z</time></trkpt><trkpt lat="21.790000602055816" lon="-102.51858138924062"><ele>2039.0</ele><time>2026-03-22T13:59:26.01Z</time></trkpt><trkpt lat="21.789931480452267" lon="-102.5185564103943"><ele>2039.1428571428573</ele><time>2026-03-22T13:59:27.01Z</time></trkpt><trkpt lat="21.78986529725895" lon="-102.51853549399308"><ele>2039.2857142857142</ele><time>2026-03-22T13:59:28.01Z</time></trkpt><trkpt lat="21.789800005156877" lon="-102.51851728984356"><ele>2039.4285714285716</ele><time>2026-03-22T13:59:29.01Z</time></trkpt><trkpt lat="21.78973586692985" lon="-102.51850048904701"><ele>2039.5714285714287</ele><time>2026-03-22T13:59:30.01Z</time></trkpt><trkpt lat="21.789659762053503" lon="-102.51847980395429"><ele>2039.7142857142858</ele><time>2026-03-22T13:59:31.01Z</time></trkpt><trkpt lat="21.78958804951175" lon="-102.51845566092405"><ele>2039.857142857143</ele><time>2026-03-22T13:59:32.01Z</time></trkpt><trkpt lat="21.789514286356205" lon="-102.51842878592048"><ele>2040.0</ele><time>2026-03-22T13:59:33.01Z</time></trkpt><trkpt lat="21.78944436879842" lon="-102.51840850934244"><ele>2040.0</ele><time>2026-03-22T13:59:34.01Z</time></trkpt><trkpt lat="21.78937636832234" lon="-102.51839101149353"><ele>2040.0000000000002</ele><time>2026-03-22T13:59:35.01Z</time></trkpt><trkpt lat="21.789302981538835" lon="-102.51837183088219"><ele>2040.0</ele><time>2026-03-22T13:59:36.01Z</time></trkpt><trkpt lat="21.789232198894112" lon="-102.51835000511781"><ele>2040.0</ele><time>2026-03-22T13:59:37.01Z</time></trkpt><trkpt lat="21.78916232278318" lon="-102.51832234163022"><ele>2040.0000000000002</ele><time>2026-03-22T13:59:38.01Z</time></trkpt><trkpt lat="21.789093827964685" lon="-102.5182996514465"><ele>2040.0</ele><time>2026-03-22T13:59:39.01Z</time></trkpt><trkpt lat="21.789015114940938" lon="-102.51827936843259"><ele>2040.0</ele><time>2026-03-22T13:59:40.01Z</time></trkpt><trkpt lat="21.78893878065259" lon="-102.51825860135403"><ele>2040.0</ele><time>2026-03-22T13:59:41.01Z</time></trkpt><trkpt lat="21.788862235178332" lon="-102.51824050891078"><ele>2040.0</ele><time>2026-03-22T13:59:42.01Z</time></trkpt><trkpt lat="21.788782016025234" lon="-102.5182181200769"><ele>2040.0</ele><time>2026-03-22T13:59:43.01Z</time></trkpt><trkpt lat="21.788702477895082" lon="-102.51819934746685"><ele>2040.0</ele><time>2026-03-22T13:59:44.01Z</time></trkpt><trkpt lat="21.788616286501487" lon="-102.51817986160631"><ele>2040.0</ele><time>2026-03-22T13:59:45.01Z</time></trkpt><trkpt lat="21.78852856448118" lon="-102.51816611174173"><ele>2040.0</ele><time>2026-03-22T13:59:46.01Z</time></trkpt><trkpt lat="21.78844136150662" lon="-102.5181531717401"><ele>2040.0</ele><time>2026-03-22T13:59:47.01Z</time></trkpt><trkpt lat="21.788343229416654" lon="-102.51813837450393"><ele>2040.0</ele><time>2026-03-22T13:59:48.01Z</time></trkpt><trkpt lat="21.788245441558185" lon="-102.51812746773298"><ele>2040.0</ele><time>2026-03-22T13:59:49.01Z</time></trkpt><trkpt lat="21.78814956678664" lon="-102.51811897918735"><ele>2040.0</ele><time>2026-03-22T13:59:50.01Z</time></trkpt><trkpt lat="21.78805098140958" lon="-102.51811343099475"><ele>2040.0</ele><time>2026-03-22T13:59:51.01Z</time></trkpt><trkpt lat="21.7879456016782" lon="-102.5181140736138"><ele>2040.0</ele><time>2026-03-22T13:59:52.01Z</time></trkpt><trkpt lat="21.78784018023944" lon="-102.51811036628584"><ele>2040.0</ele><time>2026-03-22T13:59:53.01Z</time></trkpt><trkpt lat="21.787737800396897" lon="-102.51810361123094"><ele>2040.0</ele><time>2026-03-22T13:59:54.01Z</time></trkpt><trkpt lat="21.787624810481102" lon="-102.51810225366985"><ele>2040.0</ele><time>2026-03-22T13:59:55.01Z</time></trkpt><trkpt lat="21.78751216297543" lon="-102.51810169116757"><ele>2040.0</ele><time>2026-03-22T13:59:56.01Z</time></trkpt><trkpt lat="21.78739430695387" lon="-102.51810399529403"><ele>2039.5</ele><time>2026-03-22T13:59:57.01Z</time></trkpt><trkpt lat="21.787280225851564" lon="-102.51810117440658"><ele>2039.0</ele><time>2026-03-22T13:59:58.01Z</time></trkpt><trkpt lat="21.787158423207806" lon="-102.5180983506553"><ele>2038.5</ele><time>2026-03-22T13:59:59.01Z</time></trkpt><trkpt lat="21.787034183056658" lon="-102.51809598035746"><ele>2038.0</ele><time>2026-03-22T14:00:00.01Z</time></trkpt><trkpt lat="21.786907683385106" lon="-102.5180935699118"><ele>2038.0</ele><time>2026-03-22T14:00:01.01Z</time></trkpt><trkpt lat="21.786785661513235" lon="-102.51809094351069"><ele>2038.0</ele><time>2026-03-22T14:00:02.01Z</time></trkpt><trkpt lat="21.78666553719274" lon="-102.51809017555503"><ele>2038.0</ele><time>2026-03-22T14:00:03.01Z</time></trkpt><trkpt lat="21.78653876712541" lon="-102.51808665101893"><ele>2038.0</ele><time>2026-03-22T14:00:04.011Z</time></trkpt><trkpt lat="21.786412149146138" lon="-102.51808492765237"><ele>2038.0</ele><time>2026-03-22T14:00:05.012Z</time></trkpt><trkpt lat="21.78629636613084" lon="-102.5180842466671"><ele>2038.0</ele><time>2026-03-22T14:00:06.012Z</time></trkpt><trkpt lat="21.786170949079402" lon="-102.51808350389146"><ele>2038.0</ele><time>2026-03-22T14:00:07.011Z</time></trkpt><trkpt lat="21.78604078904883" lon="-102.51807754516949"><ele>2038.0</ele><time>2026-03-22T14:00:08.011Z</time></trkpt><trkpt lat="21.78591604466572" lon="-102.51807850250009"><ele>2037.25</ele><time>2026-03-22T14:00:09.011Z</time></trkpt><trkpt lat="21.785789419131866" lon="-102.51807767133091"><ele>2036.5</ele><time>2026-03-22T14:00:10.011Z</time></trkpt><trkpt lat="21.785660205247954" lon="-102.51808111326199"><ele>2035.75</ele><time>2026-03-22T14:00:11.01Z</time></trkpt><trkpt lat="21.785532427515953" lon="-102.51808015541481"><ele>2035.0</ele><time>2026-03-22T14:00:12.01Z</time></trkpt><trkpt lat="21.785402800356984" lon="-102.51807954346938"><ele>2035.0</ele><time>2026-03-22T14:00:13.011Z</time></trkpt><trkpt lat="21.785276064782934" lon="-102.51807806002799"><ele>2035.0</ele><time>2026-03-22T14:00:14.011Z</time></trkpt><trkpt lat="21.785147834194387" lon="-102.51807183713323"><ele>2035.0</ele><time>2026-03-22T14:00:15.011Z</time></trkpt><trkpt lat="21.785021938767446" lon="-102.51806744192733"><ele>2035.0</ele><time>2026-03-22T14:00:16.011Z</time></trkpt><trkpt lat="21.784899232986238" lon="-102.51805551745348"><ele>2035.5</ele><time>2026-03-22T14:00:17.011Z</time></trkpt><trkpt lat="21.784771649378516" lon="-102.5180413956602"><ele>2036.0</ele><time>2026-03-22T14:00:18.011Z</time></trkpt><trkpt lat="21.784643153791052" lon="-102.51800575753794"><ele>2036.5</ele><time>2026-03-22T14:00:19.011Z</time></trkpt><trkpt lat="21.784520742279724" lon="-102.5179580705019"><ele>2037.0</ele><time>2026-03-22T14:00:20.011Z</time></trkpt><trkpt lat="21.784386968894278" lon="-102.5178980989748"><ele>2034.0</ele><time>2026-03-22T14:00:21.011Z</time></trkpt><trkpt lat="21.78425984896553" lon="-102.51783601005279"><ele>2031.0</ele><time>2026-03-22T14:00:22.011Z</time></trkpt><trkpt lat="21.784136125681083" lon="-102.51777009263985"><ele>2028.0</ele><time>2026-03-22T14:00:23.011Z</time></trkpt><trkpt lat="21.784010060798213" lon="-102.51770658049622"><ele>2025.0</ele><time>2026-03-22T14:00:24.011Z</time></trkpt><trkpt lat="21.783869352938623" lon="-102.51764352904522"><ele>2025.0</ele><time>2026-03-22T14:00:25.011Z</time></trkpt><trkpt lat="21.783729483249125" lon="-102.5175689678145"><ele>2025.0</ele><time>2026-03-22T14:00:26.011Z</time></trkpt><trkpt lat="21.783594908030278" lon="-102.51750755125676"><ele>2025.0</ele><time>2026-03-22T14:00:27.011Z</time></trkpt><trkpt lat="21.78345924185054" lon="-102.517440554238"><ele>2024.5</ele><time>2026-03-22T14:00:28.011Z</time></trkpt><trkpt lat="21.78331999312622" lon="-102.51737802302716"><ele>2024.0</ele><time>2026-03-22T14:00:29.011Z</time></trkpt><trkpt lat="21.783181897084276" lon="-102.51732491772471"><ele>2023.5</ele><time>2026-03-22T14:00:30.011Z</time></trkpt><trkpt lat="21.783049299349376" lon="-102.51727682123398"><ele>2023.0</ele><time>2026-03-22T14:00:31.011Z</time></trkpt><trkpt lat="21.782920129702788" lon="-102.51724967015721"><ele>2023.0</ele><time>2026-03-22T14:00:32.011Z</time></trkpt><trkpt lat="21.78279358070951" lon="-102.51723316254004"><ele>2023.0</ele><time>2026-03-22T14:00:33.011Z</time></trkpt><trkpt lat="21.782668392705563" lon="-102.51722800793131"><ele>2023.0</ele><time>2026-03-22T14:00:34.011Z</time></trkpt><trkpt lat="21.78255834703085" lon="-102.51723325877717"><ele>2023.0</ele><time>2026-03-22T14:00:35.011Z</time></trkpt><trkpt lat="21.782451511710093" lon="-102.51725430394721"><ele>2023.0</ele><time>2026-03-22T14:00:36.011Z</time></trkpt><trkpt lat="21.782328646451838" lon="-102.51726347026032"><ele>2023.0</ele><time>2026-03-22T14:00:37.011Z</time></trkpt><trkpt lat="21.78220797287816" lon="-102.51727555299207"><ele>2023.0</ele><time>2026-03-22T14:00:38.011Z</time></trkpt><trkpt lat="21.782098679327763" lon="-102.51726694712181"><ele>2023.0</ele><time>2026-03-22T14:00:39.011Z</time></trkpt><trkpt lat="21.782002842372457" lon="-102.5172323826576"><ele>2023.0</ele><time>2026-03-22T14:00:40.011Z</time></trkpt><trkpt lat="21.78191533263534" lon="-102.51715127722821"><ele>2023.0</ele><time>2026-03-22T14:00:41.011Z</time></trkpt><trkpt lat="21.78183591384157" lon="-102.51705363239007"><ele>2023.0</ele><time>2026-03-22T14:00:42.011Z</time></trkpt><trkpt lat="21.78178252320188" lon="-102.5169394807841"><ele>2023.0</ele><time>2026-03-22T14:00:43.011Z</time></trkpt><trkpt lat="21.78175128666337" lon="-102.51682609268133"><ele>2022.2</ele><time>2026-03-22T14:00:44.011Z</time></trkpt><trkpt lat="21.781718989203235" lon="-102.51670909162696"><ele>2021.4</ele><time>2026-03-22T14:00:45.011Z</time></trkpt><trkpt lat="21.78168698466511" lon="-102.51660167159382"><ele>2020.6000000000001</ele><time>2026-03-22T14:00:46.011Z</time></trkpt><trkpt lat="21.781647124684195" lon="-102.51649238298488"><ele>2019.8000000000002</ele><time>2026-03-22T14:00:47.011Z</time></trkpt><trkpt lat="21.781603865725156" lon="-102.51638186512187"><ele>2019.0</ele><time>2026-03-22T14:00:48.011Z</time></trkpt><trkpt lat="21.781563835389036" lon="-102.51627759959472"><ele>2018.75</ele><time>2026-03-22T14:00:49.011Z</time></trkpt><trkpt lat="21.78153741212931" lon="-102.51615510053071"><ele>2018.5</ele><time>2026-03-22T14:00:50.011Z</time></trkpt><trkpt lat="21.781525800678317" lon="-102.51603372183826"><ele>2018.25</ele><time>2026-03-22T14:00:51.011Z</time></trkpt><trkpt lat="21.781535964650214" lon="-102.51591879887219"><ele>2018.0</ele><time>2026-03-22T14:00:52.011Z</time></trkpt><trkpt lat="21.781568318976735" lon="-102.51579243673851"><ele>2018.0</ele><time>2026-03-22T14:00:53.011Z</time></trkpt><trkpt lat="21.78163250301211" lon="-102.5156726840417"><ele>2018.0</ele><time>2026-03-22T14:00:54.011Z</time></trkpt><trkpt lat="21.781715322984283" lon="-102.51555947297189"><ele>2018.0</ele><time>2026-03-22T14:00:55.01Z</time></trkpt><trkpt lat="21.78181778563051" lon="-102.5154666087605"><ele>2018.0</ele><time>2026-03-22T14:00:56.01Z</time></trkpt><trkpt lat="21.781940224546755" lon="-102.51541148299722"><ele>2016.0</ele><time>2026-03-22T14:00:57.01Z</time></trkpt><trkpt lat="21.782072923792004" lon="-102.51538547633473"><ele>2014.0</ele><time>2026-03-22T14:00:58.01Z</time></trkpt><trkpt lat="21.782199808016657" lon="-102.51535727854609"><ele>2012.0</ele><time>2026-03-22T14:00:59.01Z</time></trkpt><trkpt lat="21.782323752277126" lon="-102.51532628727233"><ele>2010.0</ele><time>2026-03-22T14:01:00.01Z</time></trkpt><trkpt lat="21.78244128247049" lon="-102.51528678249666"><ele>2010.0</ele><time>2026-03-22T14:01:01.01Z</time></trkpt><trkpt lat="21.782545154936262" lon="-102.51522659396777"><ele>2010.0</ele><time>2026-03-22T14:01:02.01Z</time></trkpt><trkpt lat="21.782634235821753" lon="-102.51513791173724"><ele>2010.0</ele><time>2026-03-22T14:01:03.01Z</time></trkpt><trkpt lat="21.782697082761747" lon="-102.51503900136206"><ele>2010.0</ele><time>2026-03-22T14:01:04.01Z</time></trkpt><trkpt lat="21.78272662465951" lon="-102.51492962878233"><ele>2010.0</ele><time>2026-03-22T14:01:05.01Z</time></trkpt><trkpt lat="21.782715924449466" lon="-102.51480818590058"><ele>2010.0</ele><time>2026-03-22T14:01:06.01Z</time></trkpt><trkpt lat="21.78265582578944" lon="-102.51469673037333"><ele>2010.0</ele><time>2026-03-22T14:01:07.01Z</time></trkpt><trkpt lat="21.782567945673996" lon="-102.51461266976624"><ele>2010.0</ele><time>2026-03-22T14:01:08.01Z</time></trkpt><trkpt lat="21.782453926403473" lon="-102.51454707860991"><ele>2012.0</ele><time>2026-03-22T14:01:09.01Z</time></trkpt><trkpt lat="21.782331971841018" lon="-102.51451680796328"><ele>2014.0</ele><time>2026-03-22T14:01:10.01Z</time></trkpt><trkpt lat="21.78220363087535" lon="-102.51450165364074"><ele>2016.0</ele><time>2026-03-22T14:01:11.01Z</time></trkpt><trkpt lat="21.7820573001657" lon="-102.51448394456285"><ele>2018.0</ele><time>2026-03-22T14:01:12.01Z</time></trkpt><trkpt lat="21.781916769225983" lon="-102.5144729175516"><ele>2017.25</ele><time>2026-03-22T14:01:13.01Z</time></trkpt><trkpt lat="21.781777856983606" lon="-102.5144523399338"><ele>2016.5</ele><time>2026-03-22T14:01:14.01Z</time></trkpt><trkpt lat="21.781642294669663" lon="-102.51441416876335"><ele>2015.75</ele><time>2026-03-22T14:01:15.01Z</time></trkpt><trkpt lat="21.781508784706745" lon="-102.51436773522325"><ele>2015.0</ele><time>2026-03-22T14:01:16.01Z</time></trkpt><trkpt lat="21.781368731107065" lon="-102.51431939289802"><ele>2015.0</ele><time>2026-03-22T14:01:17.01Z</time></trkpt><trkpt lat="21.781221556498853" lon="-102.5142768775732"><ele>2015.0</ele><time>2026-03-22T14:01:18.01Z</time></trkpt><trkpt lat="21.781072472215786" lon="-102.51423431104989"><ele>2015.0</ele><time>2026-03-22T14:01:19.01Z</time></trkpt><trkpt lat="21.78092576241473" lon="-102.51419008235644"><ele>2010.6666666666665</ele><time>2026-03-22T14:01:20.01Z</time></trkpt><trkpt lat="21.78077523385011" lon="-102.51414414106489"><ele>2006.3333333333335</ele><time>2026-03-22T14:01:21.01Z</time></trkpt><trkpt lat="21.780626642252773" lon="-102.51408498682306"><ele>2002.0</ele><time>2026-03-22T14:01:22.01Z</time></trkpt><trkpt lat="21.780487039184685" lon="-102.51400258926589"><ele>2002.0</ele><time>2026-03-22T14:01:23.01Z</time></trkpt><trkpt lat="21.780363550376418" lon="-102.51389279007614"><ele>2002.0</ele><time>2026-03-22T14:01:24.01Z</time></trkpt><trkpt lat="21.780246722614002" lon="-102.51377052398682"><ele>2002.0</ele><time>2026-03-22T14:01:25.01Z</time></trkpt><trkpt lat="21.78012959235095" lon="-102.51364782426711"><ele>2003.0</ele><time>2026-03-22T14:01:26.01Z</time></trkpt><trkpt lat="21.780005268505455" lon="-102.51354198520943"><ele>2004.0</ele><time>2026-03-22T14:01:27.01Z</time></trkpt><trkpt lat="21.779867373778437" lon="-102.51346606662555"><ele>2005.0</ele><time>2026-03-22T14:01:28.01Z</time></trkpt><trkpt lat="21.77971196479358" lon="-102.51341169349547"><ele>2005.0</ele><time>2026-03-22T14:01:29.01Z</time></trkpt><trkpt lat="21.779557203175198" lon="-102.51336069487846"><ele>2005.0</ele><time>2026-03-22T14:01:30.01Z</time></trkpt><trkpt lat="21.779403928493835" lon="-102.51331420347111"><ele>2005.0</ele><time>2026-03-22T14:01:31.01Z</time></trkpt><trkpt lat="21.77925555093696" lon="-102.51326574510435"><ele>2001.0</ele><time>2026-03-22T14:01:32.01Z</time></trkpt><trkpt lat="21.77911021719875" lon="-102.51321140426461"><ele>1997.0</ele><time>2026-03-22T14:01:33.01Z</time></trkpt><trkpt lat="21.778959533185144" lon="-102.51314964990449"><ele>1993.0</ele><time>2026-03-22T14:01:34.01Z</time></trkpt><trkpt lat="21.77880913252004" lon="-102.51310088119128"><ele>1993.0</ele><time>2026-03-22T14:01:35.01Z</time></trkpt><trkpt lat="21.778656612859063" lon="-102.51304868726294"><ele>1993.0</ele><time>2026-03-22T14:01:36.01Z</time></trkpt><trkpt lat="21.77850943867815" lon="-102.51300040556922"><ele>1993.0</ele><time>2026-03-22T14:01:37.01Z</time></trkpt><trkpt lat="21.778359343063634" lon="-102.51294578242596"><ele>1991.0</ele><time>2026-03-22T14:01:38.01Z</time></trkpt><trkpt lat="21.778212599130676" lon="-102.51289461820906"><ele>1989.0</ele><time>2026-03-22T14:01:39.01Z</time></trkpt><trkpt lat="21.778060246374782" lon="-102.51283819743928"><ele>1987.0</ele><time>2026-03-22T14:01:40.01Z</time></trkpt><trkpt lat="21.777915521407255" lon="-102.51279018646291"><ele>1987.0</ele><time>2026-03-22T14:01:41.01Z</time></trkpt><trkpt lat="21.777771176027386" lon="-102.51273720144711"><ele>1987.0</ele><time>2026-03-22T14:01:42.01Z</time></trkpt><trkpt lat="21.777623535572573" lon="-102.51268803797224"><ele>1987.0</ele><time>2026-03-22T14:01:43.01Z</time></trkpt><trkpt lat="21.777475745457938" lon="-102.51263373493859"><ele>1987.0</ele><time>2026-03-22T14:01:44.01Z</time></trkpt><trkpt lat="21.777326722560204" lon="-102.51258396843512"><ele>1987.0</ele><time>2026-03-22T14:01:45.01Z</time></trkpt><trkpt lat="21.777177936078125" lon="-102.51254435099955"><ele>1987.0</ele><time>2026-03-22T14:01:46.01Z</time></trkpt><trkpt lat="21.77701754556022" lon="-102.51251031787625"><ele>1987.0</ele><time>2026-03-22T14:01:47.01Z</time></trkpt><trkpt lat="21.776862640798615" lon="-102.51249625982713"><ele>1987.0</ele><time>2026-03-22T14:01:48.01Z</time></trkpt><trkpt lat="21.776704475058057" lon="-102.51249114627957"><ele>1987.0</ele><time>2026-03-22T14:01:49.01Z</time></trkpt><trkpt lat="21.77654199073708" lon="-102.51248975303311"><ele>1986.6666666666667</ele><time>2026-03-22T14:01:50.01Z</time></trkpt><trkpt lat="21.776384140779342" lon="-102.51249389661425"><ele>1986.3333333333335</ele><time>2026-03-22T14:01:51.01Z</time></trkpt><trkpt lat="21.77623042383789" lon="-102.51250088515593"><ele>1986.0</ele><time>2026-03-22T14:01:52.01Z</time></trkpt><trkpt lat="21.776082611115186" lon="-102.51250146624403"><ele>1985.3333333333335</ele><time>2026-03-22T14:01:53.01Z</time></trkpt><trkpt lat="21.775926443104716" lon="-102.51250749635156"><ele>1984.6666666666667</ele><time>2026-03-22T14:01:54.01Z</time></trkpt><trkpt lat="21.77576900020782" lon="-102.512507870962"><ele>1984.0</ele><time>2026-03-22T14:01:55.01Z</time></trkpt><trkpt lat="21.775622501233663" lon="-102.51251776865918"><ele>1984.0</ele><time>2026-03-22T14:01:56.01Z</time></trkpt><trkpt lat="21.775477318708358" lon="-102.51252564766922"><ele>1984.0</ele><time>2026-03-22T14:01:57.01Z</time></trkpt><trkpt lat="21.77533613939482" lon="-102.51252897267413"><ele>1984.0</ele><time>2026-03-22T14:01:58.01Z</time></trkpt><trkpt lat="21.77519595883631" lon="-102.51253620676741"><ele>1984.0</ele><time>2026-03-22T14:01:59.01Z</time></trkpt><trkpt lat="21.77504568131456" lon="-102.51254394979784"><ele>1982.6666666666667</ele><time>2026-03-22T14:02:00.01Z</time></trkpt><trkpt lat="21.77488799320674" lon="-102.51255280184766"><ele>1981.3333333333335</ele><time>2026-03-22T14:02:01.01Z</time></trkpt><trkpt lat="21.774733816997188" lon="-102.51255737420075"><ele>1980.0</ele><time>2026-03-22T14:02:02.01Z</time></trkpt><trkpt lat="21.774574579770906" lon="-102.5125598884322"><ele>1980.0</ele><time>2026-03-22T14:02:03.01Z</time></trkpt><trkpt lat="21.77441852333001" lon="-102.51256523663689"><ele>1980.0</ele><time>2026-03-22T14:02:04.01Z</time></trkpt><trkpt lat="21.77426037681719" lon="-102.51257667242976"><ele>1980.0</ele><time>2026-03-22T14:02:05.01Z</time></trkpt><trkpt lat="21.77410029904472" lon="-102.51258000479068"><ele>1979.3333333333335</ele><time>2026-03-22T14:02:06.01Z</time></trkpt><trkpt lat="21.77394428312903" lon="-102.51258861806694"><ele>1978.6666666666667</ele><time>2026-03-22T14:02:07.01Z</time></trkpt><trkpt lat="21.77379173131888" lon="-102.51259799784107"><ele>1978.0</ele><time>2026-03-22T14:02:08.01Z</time></trkpt><trkpt lat="21.773632123949522" lon="-102.51260718251197"><ele>1975.3333333333335</ele><time>2026-03-22T14:02:09.01Z</time></trkpt><trkpt lat="21.77346895163633" lon="-102.51261600910398"><ele>1972.6666666666665</ele><time>2026-03-22T14:02:10.011Z</time></trkpt><trkpt lat="21.77330665170538" lon="-102.51262623720815"><ele>1970.0</ele><time>2026-03-22T14:02:11.01Z</time></trkpt><trkpt lat="21.773149702111724" lon="-102.51263151390225"><ele>1970.0</ele><time>2026-03-22T14:02:12.01Z</time></trkpt><trkpt lat="21.77299352845847" lon="-102.5126404126712"><ele>1970.0</ele><time>2026-03-22T14:02:13.011Z</time></trkpt><trkpt lat="21.772842297934467" lon="-102.5126440128585"><ele>1970.0</ele><time>2026-03-22T14:02:14.011Z</time></trkpt><trkpt lat="21.772683031630883" lon="-102.51265108079241"><ele>1970.0</ele><time>2026-03-22T14:02:15.011Z</time></trkpt><trkpt lat="21.772519871311122" lon="-102.51266002008441"><ele>1970.0</ele><time>2026-03-22T14:02:16.011Z</time></trkpt><trkpt lat="21.772368245341667" lon="-102.51266573426774"><ele>1970.0</ele><time>2026-03-22T14:02:17.011Z</time></trkpt><trkpt lat="21.77221299703945" lon="-102.51267626433307"><ele>1970.0</ele><time>2026-03-22T14:02:18.011Z</time></trkpt><trkpt lat="21.772067885846234" lon="-102.5126820304878"><ele>1970.0</ele><time>2026-03-22T14:02:19.011Z</time></trkpt><trkpt lat="21.771919015122894" lon="-102.51268348406182"><ele>1970.0</ele><time>2026-03-22T14:02:20.011Z</time></trkpt><trkpt lat="21.771771803626915" lon="-102.51269279869307"><ele>1970.0</ele><time>2026-03-22T14:02:21.011Z</time></trkpt><trkpt lat="21.771630583619796" lon="-102.51270043290904"><ele>1969.25</ele><time>2026-03-22T14:02:22.011Z</time></trkpt><trkpt lat="21.77148578946675" lon="-102.51271156294484"><ele>1968.5</ele><time>2026-03-22T14:02:23.011Z</time></trkpt><trkpt lat="21.771348223970147" lon="-102.51271599250867"><ele>1967.75</ele><time>2026-03-22T14:02:24.011Z</time></trkpt><trkpt lat="21.771209416551486" lon="-102.51271709345198"><ele>1967.0</ele><time>2026-03-22T14:02:25.011Z</time></trkpt><trkpt lat="21.77106519978053" lon="-102.51272149135563"><ele>1965.75</ele><time>2026-03-22T14:02:26.011Z</time></trkpt><trkpt lat="21.770926213885975" lon="-102.51273113569786"><ele>1964.5</ele><time>2026-03-22T14:02:27.011Z</time></trkpt><trkpt lat="21.770785270412322" lon="-102.51273639961505"><ele>1963.25</ele><time>2026-03-22T14:02:28.011Z</time></trkpt><trkpt lat="21.77064508563453" lon="-102.51274089061266"><ele>1962.0</ele><time>2026-03-22T14:02:29.011Z</time></trkpt><trkpt lat="21.770504918637883" lon="-102.51273839994903"><ele>1962.0</ele><time>2026-03-22T14:02:30.011Z</time></trkpt><trkpt lat="21.770369636241806" lon="-102.51274679837178"><ele>1962.0</ele><time>2026-03-22T14:02:31.011Z</time></trkpt><trkpt lat="21.770234275516575" lon="-102.51275022324202"><ele>1962.0</ele><time>2026-03-22T14:02:32.011Z</time></trkpt><trkpt lat="21.770096672883362" lon="-102.51275902058237"><ele>1962.0</ele><time>2026-03-22T14:02:33.011Z</time></trkpt><trkpt lat="21.769957668068937" lon="-102.51276921189779"><ele>1962.0</ele><time>2026-03-22T14:02:34.011Z</time></trkpt><trkpt lat="21.769818711792325" lon="-102.51278205531649"><ele>1962.0</ele><time>2026-03-22T14:02:35.011Z</time></trkpt><trkpt lat="21.769681165951237" lon="-102.51278770505937"><ele>1962.0</ele><time>2026-03-22T14:02:36.011Z</time></trkpt><trkpt lat="21.76953516496294" lon="-102.51279629895056"><ele>1962.0</ele><time>2026-03-22T14:02:37.011Z</time></trkpt><trkpt lat="21.769394104975927" lon="-102.51279738413265"><ele>1961.0</ele><time>2026-03-22T14:02:38.011Z</time></trkpt><trkpt lat="21.769250615046555" lon="-102.51280689392425"><ele>1960.0</ele><time>2026-03-22T14:02:39.01Z</time></trkpt><trkpt lat="21.769102488560804" lon="-102.51281482824061"><ele>1959.0</ele><time>2026-03-22T14:02:40.01Z</time></trkpt><trkpt lat="21.768963055176332" lon="-102.51281991323596"><ele>1958.0</ele><time>2026-03-22T14:02:41.01Z</time></trkpt><trkpt lat="21.76881314885258" lon="-102.51282533212895"><ele>1958.0</ele><time>2026-03-22T14:02:42.01Z</time></trkpt><trkpt lat="21.768670830993372" lon="-102.5128297347536"><ele>1958.0</ele><time>2026-03-22T14:02:43.01Z</time></trkpt><trkpt lat="21.768528036270276" lon="-102.51283595288348"><ele>1958.0</ele><time>2026-03-22T14:02:44.01Z</time></trkpt><trkpt lat="21.768385479080404" lon="-102.51284448641894"><ele>1958.0</ele><time>2026-03-22T14:02:45.01Z</time></trkpt><trkpt lat="21.768242921959224" lon="-102.51285058807066"><ele>1957.5</ele><time>2026-03-22T14:02:46.01Z</time></trkpt><trkpt lat="21.768098100680838" lon="-102.51285720978169"><ele>1957.0</ele><time>2026-03-22T14:02:47.01Z</time></trkpt><trkpt lat="21.767958715602383" lon="-102.51286936900333"><ele>1956.5</ele><time>2026-03-22T14:02:48.01Z</time></trkpt><trkpt lat="21.76781655515023" lon="-102.51287469125045"><ele>1956.0</ele><time>2026-03-22T14:02:49.01Z</time></trkpt><trkpt lat="21.767677823300016" lon="-102.51287993602999"><ele>1956.0</ele><time>2026-03-22T14:02:50.01Z</time></trkpt><trkpt lat="21.76754475196435" lon="-102.51288303626863"><ele>1956.0</ele><time>2026-03-22T14:02:51.01Z</time></trkpt><trkpt lat="21.767411914373636" lon="-102.51289193308472"><ele>1956.0</ele><time>2026-03-22T14:02:52.01Z</time></trkpt><trkpt lat="21.767288431359713" lon="-102.51289921476932"><ele>1956.0</ele><time>2026-03-22T14:02:53.01Z</time></trkpt><trkpt lat="21.76716771324189" lon="-102.51290067958442"><ele>1956.0</ele><time>2026-03-22T14:02:54.01Z</time></trkpt><trkpt lat="21.767044166906672" lon="-102.51289431185653"><ele>1956.0</ele><time>2026-03-22T14:02:55.01Z</time></trkpt><trkpt lat="21.7669265652064" lon="-102.51286520630872"><ele>1956.0</ele><time>2026-03-22T14:02:56.01Z</time></trkpt><trkpt lat="21.766810039976267" lon="-102.51280220977311"><ele>1956.0</ele><time>2026-03-22T14:02:57.01Z</time></trkpt><trkpt lat="21.766714970170593" lon="-102.51271803914692"><ele>1955.5</ele><time>2026-03-22T14:02:58.01Z</time></trkpt><trkpt lat="21.766630367177555" lon="-102.51261388003832"><ele>1955.0</ele><time>2026-03-22T14:02:59.01Z</time></trkpt><trkpt lat="21.766567704874937" lon="-102.51247810497749"><ele>1954.5</ele><time>2026-03-22T14:03:00.01Z</time></trkpt><trkpt lat="21.76654064502265" lon="-102.51233985634666"><ele>1954.0</ele><time>2026-03-22T14:03:01.01Z</time></trkpt><trkpt lat="21.766535054416675" lon="-102.51220065147602"><ele>1953.5</ele><time>2026-03-22T14:03:02.01Z</time></trkpt><trkpt lat="21.76654442882939" lon="-102.51205944178821"><ele>1953.0</ele><time>2026-03-22T14:03:03.01Z</time></trkpt><trkpt lat="21.766570675324523" lon="-102.51191952974807"><ele>1952.5</ele><time>2026-03-22T14:03:04.01Z</time></trkpt><trkpt lat="21.76659481940312" lon="-102.51177338137673"><ele>1952.0</ele><time>2026-03-22T14:03:05.01Z</time></trkpt><trkpt lat="21.766621734927117" lon="-102.51162442137885"><ele>1952.0</ele><time>2026-03-22T14:03:06.01Z</time></trkpt><trkpt lat="21.766646874821554" lon="-102.51147496371875"><ele>1952.0</ele><time>2026-03-22T14:03:07.01Z</time></trkpt><trkpt lat="21.766667746158113" lon="-102.51132832429285"><ele>1952.0</ele><time>2026-03-22T14:03:08.01Z</time></trkpt><trkpt lat="21.76669463431742" lon="-102.51118259594519"><ele>1952.0</ele><time>2026-03-22T14:03:09.01Z</time></trkpt><trkpt lat="21.766715211043568" lon="-102.51103649718799"><ele>1951.25</ele><time>2026-03-22T14:03:10.01Z</time></trkpt><trkpt lat="21.766737248853946" lon="-102.51089617294227"><ele>1950.5</ele><time>2026-03-22T14:03:11.01Z</time></trkpt><trkpt lat="21.766764867091684" lon="-102.51075753582465"><ele>1949.75</ele><time>2026-03-22T14:03:12.01Z</time></trkpt><trkpt lat="21.766785904687953" lon="-102.51061737547236"><ele>1949.0</ele><time>2026-03-22T14:03:13.01Z</time></trkpt><trkpt lat="21.766805975366474" lon="-102.51048386488945"><ele>1949.0</ele><time>2026-03-22T14:03:14.01Z</time></trkpt><trkpt lat="21.766829344134504" lon="-102.51034469509077"><ele>1949.0</ele><time>2026-03-22T14:03:15.01Z</time></trkpt><trkpt lat="21.76684877352725" lon="-102.51021371816556"><ele>1949.0</ele><time>2026-03-22T14:03:16.01Z</time></trkpt><trkpt lat="21.76686984898787" lon="-102.51007939257538"><ele>1949.0</ele><time>2026-03-22T14:03:17.01Z</time></trkpt><trkpt lat="21.766889264115434" lon="-102.5099520698178"><ele>1947.5</ele><time>2026-03-22T14:03:18.01Z</time></trkpt><trkpt lat="21.76691218158167" lon="-102.50982761400924"><ele>1946.0</ele><time>2026-03-22T14:03:19.01Z</time></trkpt><trkpt lat="21.766934229521826" lon="-102.50970120288412"><ele>1944.5</ele><time>2026-03-22T14:03:20.01Z</time></trkpt><trkpt lat="21.766953692946064" lon="-102.50956824084437"><ele>1943.0</ele><time>2026-03-22T14:03:21.01Z</time></trkpt><trkpt lat="21.766973123407315" lon="-102.50944679986769"><ele>1943.0</ele><time>2026-03-22T14:03:22.01Z</time></trkpt><trkpt lat="21.766991822591066" lon="-102.50931791609707"><ele>1943.0</ele><time>2026-03-22T14:03:23.01Z</time></trkpt><trkpt lat="21.767015017107212" lon="-102.50917918341676"><ele>1943.0</ele><time>2026-03-22T14:03:24.01Z</time></trkpt><trkpt lat="21.76703791373836" lon="-102.5090416544153"><ele>1943.0</ele><time>2026-03-22T14:03:25.01Z</time></trkpt><trkpt lat="21.76705683313123" lon="-102.5089040325045"><ele>1943.0</ele><time>2026-03-22T14:03:26.01Z</time></trkpt><trkpt lat="21.767083576294635" lon="-102.50875804286994"><ele>1943.0</ele><time>2026-03-22T14:03:27.01Z</time></trkpt><trkpt lat="21.76711022326477" lon="-102.50860952591668"><ele>1943.0</ele><time>2026-03-22T14:03:28.01Z</time></trkpt><trkpt lat="21.76713492776824" lon="-102.5084642149925"><ele>1943.0</ele><time>2026-03-22T14:03:29.01Z</time></trkpt><trkpt lat="21.76714370650895" lon="-102.50830878211784"><ele>1942.25</ele><time>2026-03-22T14:03:30.01Z</time></trkpt><trkpt lat="21.767125562917464" lon="-102.50815481461169"><ele>1941.5</ele><time>2026-03-22T14:03:31.01Z</time></trkpt><trkpt lat="21.767083904816584" lon="-102.50801794255634"><ele>1940.75</ele><time>2026-03-22T14:03:32.01Z</time></trkpt><trkpt lat="21.767029775217143" lon="-102.50788531293964"><ele>1940.0</ele><time>2026-03-22T14:03:33.01Z</time></trkpt><trkpt lat="21.766947475253737" lon="-102.50776385528798"><ele>1940.75</ele><time>2026-03-22T14:03:34.01Z</time></trkpt><trkpt lat="21.766842556250232" lon="-102.50764367779725"><ele>1941.5</ele><time>2026-03-22T14:03:35.01Z</time></trkpt><trkpt lat="21.766741679626925" lon="-102.50753808605792"><ele>1942.25</ele><time>2026-03-22T14:03:36.01Z</time></trkpt><trkpt lat="21.766633268738882" lon="-102.50741863459929"><ele>1943.0</ele><time>2026-03-22T14:03:37.01Z</time></trkpt><trkpt lat="21.766532333700045" lon="-102.5072950638633"><ele>1943.0</ele><time>2026-03-22T14:03:38.01Z</time></trkpt><trkpt lat="21.76642836341243" lon="-102.50717439093611"><ele>1943.0</ele><time>2026-03-22T14:03:39.01Z</time></trkpt><trkpt lat="21.7663257879239" lon="-102.50706283298173"><ele>1943.0</ele><time>2026-03-22T14:03:40.01Z</time></trkpt><trkpt lat="21.76623247973577" lon="-102.50694445761356"><ele>1943.0</ele><time>2026-03-22T14:03:41.01Z</time></trkpt><trkpt lat="21.766134085919262" lon="-102.50682834646892"><ele>1943.75</ele><time>2026-03-22T14:03:42.01Z</time></trkpt><trkpt lat="21.76604277827746" lon="-102.50671667475274"><ele>1944.5</ele><time>2026-03-22T14:03:43.01Z</time></trkpt><trkpt lat="21.765956844496117" lon="-102.50661145636913"><ele>1945.25</ele><time>2026-03-22T14:03:44.01Z</time></trkpt><trkpt lat="21.76586447530639" lon="-102.50650179594977"><ele>1946.0</ele><time>2026-03-22T14:03:45.01Z</time></trkpt><trkpt lat="21.765773085024932" lon="-102.50639784316958"><ele>1946.0</ele><time>2026-03-22T14:03:46.01Z</time></trkpt><trkpt lat="21.765682144385092" lon="-102.50629233245957"><ele>1946.0</ele><time>2026-03-22T14:03:47.01Z</time></trkpt><trkpt lat="21.765593575535" lon="-102.50618838911478"><ele>1946.0</ele><time>2026-03-22T14:03:48.01Z</time></trkpt><trkpt lat="21.765504309492822" lon="-102.50608086895096"><ele>1946.0</ele><time>2026-03-22T14:03:49.01Z</time></trkpt><trkpt lat="21.765422327834166" lon="-102.50597350594545"><ele>1945.5</ele><time>2026-03-22T14:03:50.01Z</time></trkpt><trkpt lat="21.765337992342477" lon="-102.50586543693537"><ele>1945.0</ele><time>2026-03-22T14:03:51.01Z</time></trkpt><trkpt lat="21.765248712397728" lon="-102.5057665581671"><ele>1944.5</ele><time>2026-03-22T14:03:52.01Z</time></trkpt><trkpt lat="21.765160972083752" lon="-102.50566060792423"><ele>1944.0</ele><time>2026-03-22T14:03:53.01Z</time></trkpt><trkpt lat="21.76507414203867" lon="-102.50556270550197"><ele>1944.0</ele><time>2026-03-22T14:03:54.01Z</time></trkpt><trkpt lat="21.764986678573212" lon="-102.50545417788096"><ele>1944.0</ele><time>2026-03-22T14:03:55.01Z</time></trkpt><trkpt lat="21.7648952348738" lon="-102.50534326952626"><ele>1944.0</ele><time>2026-03-22T14:03:56.01Z</time></trkpt><trkpt lat="21.76479735896854" lon="-102.5052245531623"><ele>1944.0</ele><time>2026-03-22T14:03:57.01Z</time></trkpt><trkpt lat="21.764699913781296" lon="-102.50511431147173"><ele>1941.5</ele><time>2026-03-22T14:03:58.01Z</time></trkpt><trkpt lat="21.76460081719094" lon="-102.50500185922087"><ele>1939.0</ele><time>2026-03-22T14:03:59.01Z</time></trkpt><trkpt lat="21.764498461305237" lon="-102.50488281698713"><ele>1936.5</ele><time>2026-03-22T14:04:00.01Z</time></trkpt><trkpt lat="21.764401467648256" lon="-102.50476575312157"><ele>1934.0</ele><time>2026-03-22T14:04:01.009Z</time></trkpt><trkpt lat="21.76429012316777" lon="-102.50464153197365"><ele>1931.3333333333333</ele><time>2026-03-22T14:04:02.009Z</time></trkpt><trkpt lat="21.76418533759041" lon="-102.50451616774417"><ele>1928.6666666666665</ele><time>2026-03-22T14:04:03.009Z</time></trkpt><trkpt lat="21.764081406368597" lon="-102.50438802943926"><ele>1926.0</ele><time>2026-03-22T14:04:04.009Z</time></trkpt><trkpt lat="21.763980463216605" lon="-102.50426395854187"><ele>1926.0</ele><time>2026-03-22T14:04:05.009Z</time></trkpt><trkpt lat="21.763876509340246" lon="-102.50413391150836"><ele>1926.0</ele><time>2026-03-22T14:04:06.009Z</time></trkpt><trkpt lat="21.763768286961792" lon="-102.50400432613705"><ele>1926.0</ele><time>2026-03-22T14:04:07.009Z</time></trkpt><trkpt lat="21.763656498252004" lon="-102.50387260969161"><ele>1923.6666666666665</ele><time>2026-03-22T14:04:08.009Z</time></trkpt><trkpt lat="21.763543612124828" lon="-102.50374236950633"><ele>1921.3333333333333</ele><time>2026-03-22T14:04:09.009Z</time></trkpt><trkpt lat="21.76342529731805" lon="-102.50361030699334"><ele>1919.0</ele><time>2026-03-22T14:04:10.009Z</time></trkpt><trkpt lat="21.763320537881377" lon="-102.50347485933999"><ele>1918.6666666666665</ele><time>2026-03-22T14:04:11.009Z</time></trkpt><trkpt lat="21.763215042435338" lon="-102.50335002382805"><ele>1918.3333333333335</ele><time>2026-03-22T14:04:12.009Z</time></trkpt><trkpt lat="21.76310634751384" lon="-102.50321826338518"><ele>1918.0</ele><time>2026-03-22T14:04:13.009Z</time></trkpt><trkpt lat="21.762993630055202" lon="-102.5030839035684"><ele>1918.0</ele><time>2026-03-22T14:04:14.009Z</time></trkpt><trkpt lat="21.76288046501958" lon="-102.50294501844267"><ele>1918.0</ele><time>2026-03-22T14:04:15.009Z</time></trkpt><trkpt lat="21.762768418728726" lon="-102.50281295356399"><ele>1918.0</ele><time>2026-03-22T14:04:16.011Z</time></trkpt><trkpt lat="21.762655916302908" lon="-102.50268427309274"><ele>1916.3333333333335</ele><time>2026-03-22T14:04:17.011Z</time></trkpt><trkpt lat="21.762544318218843" lon="-102.50255245214457"><ele>1914.6666666666665</ele><time>2026-03-22T14:04:18.011Z</time></trkpt><trkpt lat="21.762436257736457" lon="-102.50242677698597"><ele>1913.0</ele><time>2026-03-22T14:04:19.011Z</time></trkpt><trkpt lat="21.76233006486657" lon="-102.50228952336832"><ele>1913.0</ele><time>2026-03-22T14:04:20.01Z</time></trkpt><trkpt lat="21.76222695599125" lon="-102.50216713721069"><ele>1913.0</ele><time>2026-03-22T14:04:21.01Z</time></trkpt><trkpt lat="21.762124095102145" lon="-102.5020398729281"><ele>1913.0</ele><time>2026-03-22T14:04:22.011Z</time></trkpt><trkpt lat="21.762025260023627" lon="-102.5019213970919"><ele>1913.25</ele><time>2026-03-22T14:04:23.011Z</time></trkpt><trkpt lat="21.76192334025774" lon="-102.50179790873757"><ele>1913.5</ele><time>2026-03-22T14:04:24.011Z</time></trkpt><trkpt lat="21.761829051325417" lon="-102.50167948608924"><ele>1913.75</ele><time>2026-03-22T14:04:25.011Z</time></trkpt><trkpt lat="21.761737435589424" lon="-102.50156664670367"><ele>1914.0</ele><time>2026-03-22T14:04:26.011Z</time></trkpt><trkpt lat="21.761650072504768" lon="-102.50145691466179"><ele>1913.0</ele><time>2026-03-22T14:04:27.011Z</time></trkpt><trkpt lat="21.761557835019648" lon="-102.50136183424293"><ele>1912.0</ele><time>2026-03-22T14:04:28.011Z</time></trkpt><trkpt lat="21.7614746486447" lon="-102.50126755695686"><ele>1911.0</ele><time>2026-03-22T14:04:29.01Z</time></trkpt><trkpt lat="21.76139027525674" lon="-102.50118018164436"><ele>1910.0</ele><time>2026-03-22T14:04:30.01Z</time></trkpt><trkpt lat="21.761300164021335" lon="-102.50109985522113"><ele>1910.4</ele><time>2026-03-22T14:04:31.01Z</time></trkpt><trkpt lat="21.76121463318014" lon="-102.50101740612595"><ele>1910.8</ele><time>2026-03-22T14:04:32.01Z</time></trkpt><trkpt lat="21.761128590513554" lon="-102.50094045623176"><ele>1911.1999999999998</ele><time>2026-03-22T14:04:33.01Z</time></trkpt><trkpt lat="21.761041383269628" lon="-102.50087886524962"><ele>1911.6</ele><time>2026-03-22T14:04:34.01Z</time></trkpt><trkpt lat="21.760955401124182" lon="-102.50081563071248"><ele>1912.0</ele><time>2026-03-22T14:04:35.01Z</time></trkpt><trkpt lat="21.760880207608054" lon="-102.50075817150535"><ele>1912.0</ele><time>2026-03-22T14:04:36.01Z</time></trkpt><trkpt lat="21.76080340191283" lon="-102.50068500883009"><ele>1911.9999999999998</ele><time>2026-03-22T14:04:37.01Z</time></trkpt><trkpt lat="21.760718149531197" lon="-102.50060866653625"><ele>1911.9999999999998</ele><time>2026-03-22T14:04:38.01Z</time></trkpt><trkpt lat="21.76063076533323" lon="-102.50053853417414"><ele>1912.0</ele><time>2026-03-22T14:04:39.01Z</time></trkpt><trkpt lat="21.760536288626614" lon="-102.50046599121836"><ele>1912.0</ele><time>2026-03-22T14:04:40.01Z</time></trkpt><trkpt lat="21.760448904635176" lon="-102.50039479279852"><ele>1912.0</ele><time>2026-03-22T14:04:41.01Z</time></trkpt><trkpt lat="21.760345675895696" lon="-102.50030930173898"><ele>1912.0</ele><time>2026-03-22T14:04:42.01Z</time></trkpt><trkpt lat="21.76025141625105" lon="-102.50023895011259"><ele>1912.0</ele><time>2026-03-22T14:04:43.01Z</time></trkpt><trkpt lat="21.76014996141678" lon="-102.50015178484851"><ele>1912.0</ele><time>2026-03-22T14:04:44.01Z</time></trkpt><trkpt lat="21.76004145676553" lon="-102.50006510414377"><ele>1912.0</ele><time>2026-03-22T14:04:45.01Z</time></trkpt><trkpt lat="21.759935036007164" lon="-102.49998153498166"><ele>1912.0</ele><time>2026-03-22T14:04:46.01Z</time></trkpt><trkpt lat="21.759819791000204" lon="-102.49988356350804"><ele>1912.0</ele><time>2026-03-22T14:04:47.01Z</time></trkpt><trkpt lat="21.759706535217898" lon="-102.4997909503297"><ele>1912.0</ele><time>2026-03-22T14:04:48.01Z</time></trkpt><trkpt lat="21.759592129775356" lon="-102.49969980284533"><ele>1912.0</ele><time>2026-03-22T14:04:49.01Z</time></trkpt><trkpt lat="21.759480462202838" lon="-102.49961114602664"><ele>1912.0</ele><time>2026-03-22T14:04:50.01Z</time></trkpt><trkpt lat="21.759370359248155" lon="-102.49951131257603"><ele>1912.0</ele><time>2026-03-22T14:04:51.01Z</time></trkpt><trkpt lat="21.759270491833696" lon="-102.49940726952866"><ele>1912.0</ele><time>2026-03-22T14:04:52.01Z</time></trkpt><trkpt lat="21.759170950864966" lon="-102.49929114548445"><ele>1911.5</ele><time>2026-03-22T14:04:53.01Z</time></trkpt><trkpt lat="21.759090363395597" lon="-102.4991586142381"><ele>1911.0</ele><time>2026-03-22T14:04:54.01Z</time></trkpt><trkpt lat="21.759026722062234" lon="-102.49901920651251"><ele>1910.5</ele><time>2026-03-22T14:04:55.01Z</time></trkpt><trkpt lat="21.75898212378747" lon="-102.49887292485545"><ele>1910.0</ele><time>2026-03-22T14:04:56.01Z</time></trkpt><trkpt lat="21.758949893604424" lon="-102.49872646808467"><ele>1910.0</ele><time>2026-03-22T14:04:57.01Z</time></trkpt><trkpt lat="21.758930096860475" lon="-102.49858234303517"><ele>1910.0</ele><time>2026-03-22T14:04:58.01Z</time></trkpt><trkpt lat="21.758920441426934" lon="-102.49843912493846"><ele>1910.0</ele><time>2026-03-22T14:04:59.01Z</time></trkpt><trkpt lat="21.758917343618073" lon="-102.49829805986246"><ele>1910.0</ele><time>2026-03-22T14:05:00.01Z</time></trkpt><trkpt lat="21.758920017196697" lon="-102.4981596458548"><ele>1910.0</ele><time>2026-03-22T14:05:01.01Z</time></trkpt><trkpt lat="21.758918524920457" lon="-102.49803083285289"><ele>1910.0</ele><time>2026-03-22T14:05:02.01Z</time></trkpt><trkpt lat="21.75891546558235" lon="-102.49789430598513"><ele>1910.0</ele><time>2026-03-22T14:05:03.01Z</time></trkpt><trkpt lat="21.758911721572538" lon="-102.49776850923878"><ele>1910.0</ele><time>2026-03-22T14:05:04.01Z</time></trkpt><trkpt lat="21.758902144248907" lon="-102.49763517891623"><ele>1910.8</ele><time>2026-03-22T14:05:05.01Z</time></trkpt><trkpt lat="21.75889975369402" lon="-102.49751839596415"><ele>1911.6</ele><time>2026-03-22T14:05:06.01Z</time></trkpt><trkpt lat="21.75889899145595" lon="-102.49740394039873"><ele>1912.4</ele><time>2026-03-22T14:05:07.01Z</time></trkpt><trkpt lat="21.75889701398142" lon="-102.497278464276"><ele>1913.2</ele><time>2026-03-22T14:05:08.01Z</time></trkpt><trkpt lat="21.75889031949112" lon="-102.49717344843499"><ele>1914.0</ele><time>2026-03-22T14:05:09.01Z</time></trkpt><trkpt lat="21.758888530081133" lon="-102.49706580364963"><ele>1914.4</ele><time>2026-03-22T14:05:10.01Z</time></trkpt><trkpt lat="21.75888133774304" lon="-102.49696251683919"><ele>1914.8000000000002</ele><time>2026-03-22T14:05:11.01Z</time></trkpt><trkpt lat="21.758882439347442" lon="-102.4968553256934"><ele>1915.1999999999998</ele><time>2026-03-22T14:05:12.01Z</time></trkpt><trkpt lat="21.758880807254954" lon="-102.49676285745257"><ele>1915.6</ele><time>2026-03-22T14:05:13.01Z</time></trkpt><trkpt lat="21.758878082029817" lon="-102.49666764305641"><ele>1916.0</ele><time>2026-03-22T14:05:14.01Z</time></trkpt><trkpt lat="21.7588806211927" lon="-102.49657451481923"><ele>1916.0</ele><time>2026-03-22T14:05:15.01Z</time></trkpt><trkpt lat="21.75888084072252" lon="-102.49647092692605"><ele>1916.0</ele><time>2026-03-22T14:05:16.01Z</time></trkpt><trkpt lat="21.758878988813812" lon="-102.49637354552469"><ele>1916.0</ele><time>2026-03-22T14:05:17.01Z</time></trkpt><trkpt lat="21.75887907437576" lon="-102.49626887544063"><ele>1916.0</ele><time>2026-03-22T14:05:18.01Z</time></trkpt><trkpt lat="21.758872302832362" lon="-102.49616335723366"><ele>1916.0</ele><time>2026-03-22T14:05:19.01Z</time></trkpt><trkpt lat="21.758866042355137" lon="-102.49606764149392"><ele>1915.8</ele><time>2026-03-22T14:05:20.01Z</time></trkpt><trkpt lat="21.75886071447617" lon="-102.49595118793573"><ele>1915.6</ele><time>2026-03-22T14:05:21.01Z</time></trkpt><trkpt lat="21.75885840630575" lon="-102.49585703749366"><ele>1915.4</ele><time>2026-03-22T14:05:22.01Z</time></trkpt><trkpt lat="21.75885470888449" lon="-102.49575818148304"><ele>1915.2</ele><time>2026-03-22T14:05:23.01Z</time></trkpt><trkpt lat="21.75885294326274" lon="-102.49564757427443"><ele>1915.0</ele><time>2026-03-22T14:05:24.01Z</time></trkpt><trkpt lat="21.758847814777138" lon="-102.49554100055494"><ele>1915.0</ele><time>2026-03-22T14:05:25.009Z</time></trkpt><trkpt lat="21.758844428495454" lon="-102.49543687461991"><ele>1915.0</ele><time>2026-03-22T14:05:26.009Z</time></trkpt><trkpt lat="21.758838037019686" lon="-102.4953244744448"><ele>1915.0</ele><time>2026-03-22T14:05:27.009Z</time></trkpt><trkpt lat="21.75882696341658" lon="-102.49521028036312"><ele>1915.0</ele><time>2026-03-22T14:05:28.009Z</time></trkpt><trkpt lat="21.7588124125933" lon="-102.49509578581771"><ele>1915.0</ele><time>2026-03-22T14:05:29.009Z</time></trkpt><trkpt lat="21.758795515717175" lon="-102.49499113748418"><ele>1915.0</ele><time>2026-03-22T14:05:30.009Z</time></trkpt><trkpt lat="21.758766600589162" lon="-102.49487963447766"><ele>1915.0</ele><time>2026-03-22T14:05:31.009Z</time></trkpt><trkpt lat="21.758737495288884" lon="-102.49477237724336"><ele>1915.0</ele><time>2026-03-22T14:05:32.009Z</time></trkpt><trkpt lat="21.75871297980102" lon="-102.49466846568158"><ele>1915.0</ele><time>2026-03-22T14:05:33.009Z</time></trkpt><trkpt lat="21.75869033793798" lon="-102.49456340709463"><ele>1915.0</ele><time>2026-03-22T14:05:34.009Z</time></trkpt><trkpt lat="21.7586600153453" lon="-102.49445575664045"><ele>1915.0</ele><time>2026-03-22T14:05:35.009Z</time></trkpt><trkpt lat="21.758628320822563" lon="-102.49435426438765"><ele>1915.0</ele><time>2026-03-22T14:05:36.009Z</time></trkpt><trkpt lat="21.758597496632802" lon="-102.49425619779977"><ele>1915.0</ele><time>2026-03-22T14:05:37.009Z</time></trkpt><trkpt lat="21.758565813099185" lon="-102.4941440404236"><ele>1915.0</ele><time>2026-03-22T14:05:38.009Z</time></trkpt><trkpt lat="21.758529279267666" lon="-102.49404183161833"><ele>1915.0</ele><time>2026-03-22T14:05:39.009Z</time></trkpt><trkpt lat="21.758493690797675" lon="-102.49394493263394"><ele>1914.8</ele><time>2026-03-22T14:05:40.009Z</time></trkpt><trkpt lat="21.75846283681692" lon="-102.49383952485233"><ele>1914.6</ele><time>2026-03-22T14:05:41.009Z</time></trkpt><trkpt lat="21.758430727285557" lon="-102.49373679720341"><ele>1914.4</ele><time>2026-03-22T14:05:42.009Z</time></trkpt><trkpt lat="21.75839542430617" lon="-102.4936341544305"><ele>1914.2</ele><time>2026-03-22T14:05:43.009Z</time></trkpt><trkpt lat="21.75836443947901" lon="-102.49353009533061"><ele>1914.0</ele><time>2026-03-22T14:05:44.009Z</time></trkpt><trkpt lat="21.75833577319594" lon="-102.49342188812702"><ele>1914.0</ele><time>2026-03-22T14:05:45.009Z</time></trkpt><trkpt lat="21.758300063335312" lon="-102.49331686494789"><ele>1914.0</ele><time>2026-03-22T14:05:46.009Z</time></trkpt><trkpt lat="21.758262321214094" lon="-102.49320821272629"><ele>1914.0</ele><time>2026-03-22T14:05:47.009Z</time></trkpt><trkpt lat="21.75822822991886" lon="-102.49310125227062"><ele>1914.0</ele><time>2026-03-22T14:05:48.009Z</time></trkpt><trkpt lat="21.75819921147648" lon="-102.49299550660709"><ele>1914.0</ele><time>2026-03-22T14:05:49.009Z</time></trkpt><trkpt lat="21.75816326243236" lon="-102.4928881096982"><ele>1913.8000000000002</ele><time>2026-03-22T14:05:50.009Z</time></trkpt><trkpt lat="21.758126846010565" lon="-102.49278363761242"><ele>1913.6000000000001</ele><time>2026-03-22T14:05:51.009Z</time></trkpt><trkpt lat="21.758096231298975" lon="-102.49267393943725"><ele>1913.4</ele><time>2026-03-22T14:05:52.009Z</time></trkpt><trkpt lat="21.758060860818627" lon="-102.49257128940121"><ele>1913.2</ele><time>2026-03-22T14:05:53.009Z</time></trkpt><trkpt lat="21.75802871828959" lon="-102.49246361584186"><ele>1913.0</ele><time>2026-03-22T14:05:54.009Z</time></trkpt><trkpt lat="21.75799389941549" lon="-102.4923542487021"><ele>1913.0</ele><time>2026-03-22T14:05:55.009Z</time></trkpt><trkpt lat="21.7579599172805" lon="-102.49224808456128"><ele>1913.0000000000002</ele><time>2026-03-22T14:05:56.009Z</time></trkpt><trkpt lat="21.757926447203857" lon="-102.49214228133403"><ele>1913.0000000000002</ele><time>2026-03-22T14:05:57.009Z</time></trkpt><trkpt lat="21.757890618811377" lon="-102.49203221110858"><ele>1913.0</ele><time>2026-03-22T14:05:58.009Z</time></trkpt><trkpt lat="21.757861746178133" lon="-102.49192704607299"><ele>1913.0</ele><time>2026-03-22T14:05:59.009Z</time></trkpt><trkpt lat="21.75783123796233" lon="-102.49181019674116"><ele>1912.8000000000002</ele><time>2026-03-22T14:06:00.009Z</time></trkpt><trkpt lat="21.757799135207783" lon="-102.49170296072722"><ele>1912.6000000000001</ele><time>2026-03-22T14:06:01.009Z</time></trkpt><trkpt lat="21.757766752405878" lon="-102.49160373511391"><ele>1912.3999999999999</ele><time>2026-03-22T14:06:02.009Z</time></trkpt><trkpt lat="21.75773794411261" lon="-102.4915019496277"><ele>1912.1999999999998</ele><time>2026-03-22T14:06:03.009Z</time></trkpt><trkpt lat="21.75770655696013" lon="-102.49140909388494"><ele>1912.0</ele><time>2026-03-22T14:06:04.009Z</time></trkpt><trkpt lat="21.757679590388772" lon="-102.49131426212985"><ele>1911.0</ele><time>2026-03-22T14:06:05.009Z</time></trkpt><trkpt lat="21.75764501012926" lon="-102.49121175377655"><ele>1909.9999999999998</ele><time>2026-03-22T14:06:06.009Z</time></trkpt><trkpt lat="21.757614824139594" lon="-102.49111571583688"><ele>1908.9999999999998</ele><time>2026-03-22T14:06:07.009Z</time></trkpt><trkpt lat="21.757583982190816" lon="-102.49101665678144"><ele>1908.0</ele><time>2026-03-22T14:06:08.009Z</time></trkpt><trkpt lat="21.757557947237707" lon="-102.49092882122991"><ele>1907.0</ele><time>2026-03-22T14:06:09.009Z</time></trkpt><trkpt lat="21.75752774178663" lon="-102.4908442104255"><ele>1906.9999999999998</ele><time>2026-03-22T14:06:10.009Z</time></trkpt><trkpt lat="21.757501082009686" lon="-102.49077436382012"><ele>1907.0</ele><time>2026-03-22T14:06:11.009Z</time></trkpt><trkpt lat="21.757475334209012" lon="-102.490703025811"><ele>1907.0</ele><time>2026-03-22T14:06:12.009Z</time></trkpt><trkpt lat="21.75745012492903" lon="-102.49063097457592"><ele>1907.0</ele><time>2026-03-22T14:06:13.009Z</time></trkpt><trkpt lat="21.757426419821595" lon="-102.49056434409374"><ele>1906.9999999999998</ele><time>2026-03-22T14:06:14.009Z</time></trkpt><trkpt lat="21.757370692386008" lon="-102.490451410703"><ele>1907.0</ele><time>2026-03-22T14:06:16.009Z</time></trkpt><trkpt lat="21.757271682937112" lon="-102.49041043153122"><ele>1907.0</ele><time>2026-03-22T14:06:18.009Z</time></trkpt><trkpt lat="21.757135922180375" lon="-102.49046984127844"><ele>1906.9999999999998</ele><time>2026-03-22T14:06:20.009Z</time></trkpt><trkpt lat="21.757087372020923" lon="-102.49051839786085"><ele>1906.9999999999998</ele><time>2026-03-22T14:06:21.011Z</time></trkpt><trkpt lat="21.75698044983035" lon="-102.49062624349769"><ele>1907.0</ele><time>2026-03-22T14:06:23.011Z</time></trkpt><trkpt lat="21.756924135983127" lon="-102.49069518964488"><ele>1907.0</ele><time>2026-03-22T14:06:24.011Z</time></trkpt><trkpt lat="21.756858720280924" lon="-102.4907758593128"><ele>1907.1999999999998</ele><time>2026-03-22T14:06:25.01Z</time></trkpt><trkpt lat="21.756783838802114" lon="-102.49085277475102"><ele>1907.3999999999999</ele><time>2026-03-22T14:06:26.01Z</time></trkpt><trkpt lat="21.756713577563215" lon="-102.49093130197028"><ele>1907.6000000000001</ele><time>2026-03-22T14:06:27.011Z</time></trkpt><trkpt lat="21.756642897162696" lon="-102.49101100718232"><ele>1907.8000000000002</ele><time>2026-03-22T14:06:28.011Z</time></trkpt><trkpt lat="21.756578206985072" lon="-102.49109418948149"><ele>1908.0</ele><time>2026-03-22T14:06:29.011Z</time></trkpt><trkpt lat="21.756500748113822" lon="-102.49118085813528"><ele>1908.2</ele><time>2026-03-22T14:06:30.011Z</time></trkpt><trkpt lat="21.75642075224545" lon="-102.49127270815595"><ele>1908.4</ele><time>2026-03-22T14:06:31.011Z</time></trkpt><trkpt lat="21.756345138048445" lon="-102.4913603658962"><ele>1908.6000000000001</ele><time>2026-03-22T14:06:32.011Z</time></trkpt><trkpt lat="21.756273955687192" lon="-102.49144700711156"><ele>1908.8000000000002</ele><time>2026-03-22T14:06:33.011Z</time></trkpt><trkpt lat="21.756204217036093" lon="-102.49153557784204"><ele>1909.0</ele><time>2026-03-22T14:06:34.011Z</time></trkpt><trkpt lat="21.75613966625019" lon="-102.4916227181848"><ele>1909.0</ele><time>2026-03-22T14:06:35.011Z</time></trkpt><trkpt lat="21.756068445275783" lon="-102.49170196812251"><ele>1909.0</ele><time>2026-03-22T14:06:36.011Z</time></trkpt><trkpt lat="21.755998952460196" lon="-102.49177981364905"><ele>1909.0</ele><time>2026-03-22T14:06:37.011Z</time></trkpt><trkpt lat="21.755927656068298" lon="-102.49186918882525"><ele>1909.0</ele><time>2026-03-22T14:06:38.011Z</time></trkpt><trkpt lat="21.755851635583557" lon="-102.49195530894802"><ele>1909.0</ele><time>2026-03-22T14:06:39.011Z</time></trkpt><trkpt lat="21.755774216424953" lon="-102.4920510790681"><ele>1908.5</ele><time>2026-03-22T14:06:40.011Z</time></trkpt><trkpt lat="21.755694601817964" lon="-102.49214289281531"><ele>1908.0</ele><time>2026-03-22T14:06:41.011Z</time></trkpt><trkpt lat="21.755619862480835" lon="-102.49223558482504"><ele>1907.5</ele><time>2026-03-22T14:06:42.011Z</time></trkpt><trkpt lat="21.755534551431985" lon="-102.49232897891054"><ele>1907.0</ele><time>2026-03-22T14:06:43.011Z</time></trkpt><trkpt lat="21.75545599567903" lon="-102.49241745892775"><ele>1907.0</ele><time>2026-03-22T14:06:44.011Z</time></trkpt><trkpt lat="21.755379419248218" lon="-102.49250642355801"><ele>1907.0</ele><time>2026-03-22T14:06:45.011Z</time></trkpt><trkpt lat="21.75529740384103" lon="-102.49259996507243"><ele>1907.0</ele><time>2026-03-22T14:06:46.011Z</time></trkpt><trkpt lat="21.755217448769717" lon="-102.49269345316925"><ele>1907.0</ele><time>2026-03-22T14:06:47.011Z</time></trkpt><trkpt lat="21.755140955752104" lon="-102.4927896873544"><ele>1907.25</ele><time>2026-03-22T14:06:48.011Z</time></trkpt><trkpt lat="21.755057629433832" lon="-102.492889349577"><ele>1907.5</ele><time>2026-03-22T14:06:49.011Z</time></trkpt><trkpt lat="21.754976463577496" lon="-102.49297681580006"><ele>1907.75</ele><time>2026-03-22T14:06:50.011Z</time></trkpt><trkpt lat="21.75490082430714" lon="-102.49307220498073"><ele>1908.0</ele><time>2026-03-22T14:06:51.011Z</time></trkpt><trkpt lat="21.754813490387594" lon="-102.49316687246623"><ele>1907.5</ele><time>2026-03-22T14:06:52.011Z</time></trkpt><trkpt lat="21.754725162334324" lon="-102.49326569195206"><ele>1907.0</ele><time>2026-03-22T14:06:53.011Z</time></trkpt><trkpt lat="21.75464507984555" lon="-102.4933638311617"><ele>1906.5</ele><time>2026-03-22T14:06:54.011Z</time></trkpt><trkpt lat="21.754553654794215" lon="-102.49346601398543"><ele>1906.0</ele><time>2026-03-22T14:06:55.011Z</time></trkpt><trkpt lat="21.754472514922437" lon="-102.49356862705068"><ele>1906.0</ele><time>2026-03-22T14:06:56.011Z</time></trkpt><trkpt lat="21.754377065749193" lon="-102.49368053452089"><ele>1906.0</ele><time>2026-03-22T14:06:57.011Z</time></trkpt><trkpt lat="21.754273635957826" lon="-102.49378827181863"><ele>1906.0</ele><time>2026-03-22T14:06:58.011Z</time></trkpt><trkpt lat="21.75417445343837" lon="-102.49390115477327"><ele>1906.0</ele><time>2026-03-22T14:06:59.011Z</time></trkpt><trkpt lat="21.754083273538562" lon="-102.49401655243372"><ele>1904.5</ele><time>2026-03-22T14:07:00.011Z</time></trkpt><trkpt lat="21.753981870183463" lon="-102.49413598425855"><ele>1903.0</ele><time>2026-03-22T14:07:01.011Z</time></trkpt><trkpt lat="21.753881508385025" lon="-102.49425040204568"><ele>1901.5</ele><time>2026-03-22T14:07:02.011Z</time></trkpt><trkpt lat="21.75377983282867" lon="-102.49437340372994"><ele>1900.0</ele><time>2026-03-22T14:07:03.011Z</time></trkpt><trkpt lat="21.753679443131738" lon="-102.49449934592215"><ele>1900.0</ele><time>2026-03-22T14:07:04.011Z</time></trkpt><trkpt lat="21.75357359300434" lon="-102.49461501397674"><ele>1900.0</ele><time>2026-03-22T14:07:05.011Z</time></trkpt><trkpt lat="21.753471784682496" lon="-102.49473267893134"><ele>1900.0</ele><time>2026-03-22T14:07:06.011Z</time></trkpt><trkpt lat="21.75337809387745" lon="-102.49485042356595"><ele>1900.0</ele><time>2026-03-22T14:07:07.011Z</time></trkpt><trkpt lat="21.753287052095388" lon="-102.49496319671591"><ele>1900.0</ele><time>2026-03-22T14:07:08.011Z</time></trkpt><trkpt lat="21.753198749338278" lon="-102.49506713248853"><ele>1900.0</ele><time>2026-03-22T14:07:09.011Z</time></trkpt><trkpt lat="21.753104270956708" lon="-102.49515919936691"><ele>1900.0</ele><time>2026-03-22T14:07:10.011Z</time></trkpt><trkpt lat="21.753023734564813" lon="-102.49523162106796"><ele>1900.0</ele><time>2026-03-22T14:07:11.011Z</time></trkpt><trkpt lat="21.752934317812116" lon="-102.49529915614491"><ele>1900.0</ele><time>2026-03-22T14:07:12.011Z</time></trkpt><trkpt lat="21.75283643878116" lon="-102.49535741323237"><ele>1900.0</ele><time>2026-03-22T14:07:13.011Z</time></trkpt><trkpt lat="21.752754485928637" lon="-102.49539812338072"><ele>1900.0</ele><time>2026-03-22T14:07:14.011Z</time></trkpt><trkpt lat="21.752658724203236" lon="-102.49542680372497"><ele>1900.0</ele><time>2026-03-22T14:07:15.011Z</time></trkpt><trkpt lat="21.752562640045678" lon="-102.49545079960325"><ele>1900.0</ele><time>2026-03-22T14:07:16.011Z</time></trkpt><trkpt lat="21.752454120719502" lon="-102.49546831642809"><ele>1900.75</ele><time>2026-03-22T14:07:17.011Z</time></trkpt><trkpt lat="21.75233521469028" lon="-102.495483432688"><ele>1901.5</ele><time>2026-03-22T14:07:18.011Z</time></trkpt><trkpt lat="21.752225245762688" lon="-102.495490267161"><ele>1902.25</ele><time>2026-03-22T14:07:19.011Z</time></trkpt><trkpt lat="21.75211628974776" lon="-102.49548626929342"><ele>1903.0</ele><time>2026-03-22T14:07:20.011Z</time></trkpt><trkpt lat="21.75199577771882" lon="-102.49546819340382"><ele>1903.0</ele><time>2026-03-22T14:07:21.011Z</time></trkpt><trkpt lat="21.75188546041098" lon="-102.49544622706233"><ele>1903.0</ele><time>2026-03-22T14:07:22.011Z</time></trkpt><trkpt lat="21.751764137365022" lon="-102.49541821130347"><ele>1903.0</ele><time>2026-03-22T14:07:23.011Z</time></trkpt><trkpt lat="21.751649517482758" lon="-102.49538914076373"><ele>1903.0</ele><time>2026-03-22T14:07:24.011Z</time></trkpt><trkpt lat="21.751535886387863" lon="-102.49536002741878"><ele>1902.2</ele><time>2026-03-22T14:07:25.011Z</time></trkpt><trkpt lat="21.751420843192502" lon="-102.49533389032608"><ele>1901.4</ele><time>2026-03-22T14:07:26.011Z</time></trkpt><trkpt lat="21.75131510219109" lon="-102.4953069677124"><ele>1900.6000000000001</ele><time>2026-03-22T14:07:27.011Z</time></trkpt><trkpt lat="21.751215125728653" lon="-102.49528104499045"><ele>1899.8000000000002</ele><time>2026-03-22T14:07:28.011Z</time></trkpt><trkpt lat="21.751107891006892" lon="-102.49525020921882"><ele>1899.0</ele><time>2026-03-22T14:07:29.011Z</time></trkpt><trkpt lat="21.751004940335317" lon="-102.49522379773609"><ele>1898.75</ele><time>2026-03-22T14:07:30.011Z</time></trkpt><trkpt lat="21.750882217775068" lon="-102.49519361218283"><ele>1898.5</ele><time>2026-03-22T14:07:31.011Z</time></trkpt><trkpt lat="21.750764418814498" lon="-102.49516866201456"><ele>1898.25</ele><time>2026-03-22T14:07:32.011Z</time></trkpt><trkpt lat="21.75064959807872" lon="-102.495144375294"><ele>1898.0</ele><time>2026-03-22T14:07:33.011Z</time></trkpt><trkpt lat="21.750525264477755" lon="-102.49511478247356"><ele>1898.0</ele><time>2026-03-22T14:07:34.011Z</time></trkpt><trkpt lat="21.750405530276364" lon="-102.49508241492143"><ele>1898.0</ele><time>2026-03-22T14:07:35.011Z</time></trkpt><trkpt lat="21.7502871010962" lon="-102.4950535358992"><ele>1898.0</ele><time>2026-03-22T14:07:36.011Z</time></trkpt><trkpt lat="21.750174546586834" lon="-102.49502550190789"><ele>1898.0</ele><time>2026-03-22T14:07:37.011Z</time></trkpt><trkpt lat="21.750056959012124" lon="-102.49499555201044"><ele>1897.0</ele><time>2026-03-22T14:07:38.011Z</time></trkpt><trkpt lat="21.749939538489475" lon="-102.49496927515544"><ele>1896.0</ele><time>2026-03-22T14:07:39.011Z</time></trkpt><trkpt lat="21.749823650707125" lon="-102.49494072675226"><ele>1895.0</ele><time>2026-03-22T14:07:40.011Z</time></trkpt><trkpt lat="21.749704037667208" lon="-102.49491243140726"><ele>1894.0</ele><time>2026-03-22T14:07:41.011Z</time></trkpt><trkpt lat="21.749581786554767" lon="-102.49488849907911"><ele>1894.0</ele><time>2026-03-22T14:07:42.011Z</time></trkpt><trkpt lat="21.749464253390517" lon="-102.49486003465852"><ele>1894.0</ele><time>2026-03-22T14:07:43.011Z</time></trkpt><trkpt lat="21.74934561236771" lon="-102.49483082412753"><ele>1894.0</ele><time>2026-03-22T14:07:44.01Z</time></trkpt><trkpt lat="21.749229134394913" lon="-102.4948015053743"><ele>1894.0</ele><time>2026-03-22T14:07:45.01Z</time></trkpt><trkpt lat="21.74910362695499" lon="-102.49477254534627"><ele>1894.25</ele><time>2026-03-22T14:07:46.01Z</time></trkpt><trkpt lat="21.748987723113064" lon="-102.4947447884028"><ele>1894.5</ele><time>2026-03-22T14:07:47.01Z</time></trkpt><trkpt lat="21.748858862562074" lon="-102.494718381418"><ele>1894.75</ele><time>2026-03-22T14:07:48.01Z</time></trkpt><trkpt lat="21.748738004819472" lon="-102.4946861224117"><ele>1895.0</ele><time>2026-03-22T14:07:49.01Z</time></trkpt><trkpt lat="21.748618679796873" lon="-102.49466317148311"><ele>1894.25</ele><time>2026-03-22T14:07:50.01Z</time></trkpt><trkpt lat="21.748497003173448" lon="-102.49463220578556"><ele>1893.5</ele><time>2026-03-22T14:07:51.01Z</time></trkpt><trkpt lat="21.748381394681765" lon="-102.49460168798242"><ele>1892.75</ele><time>2026-03-22T14:07:52.01Z</time></trkpt><trkpt lat="21.748267172836552" lon="-102.49456786498592"><ele>1892.0</ele><time>2026-03-22T14:07:53.01Z</time></trkpt><trkpt lat="21.748149454716582" lon="-102.4945356081853"><ele>1892.0</ele><time>2026-03-22T14:07:54.01Z</time></trkpt><trkpt lat="21.748033057070828" lon="-102.4945084766838"><ele>1892.0</ele><time>2026-03-22T14:07:55.01Z</time></trkpt><trkpt lat="21.74791485144697" lon="-102.49447668474593"><ele>1892.0</ele><time>2026-03-22T14:07:56.01Z</time></trkpt><trkpt lat="21.747793640152583" lon="-102.49445063324912"><ele>1892.0</ele><time>2026-03-22T14:07:57.01Z</time></trkpt><trkpt lat="21.747670188348856" lon="-102.4944221664075"><ele>1891.25</ele><time>2026-03-22T14:07:58.01Z</time></trkpt><trkpt lat="21.747551511509606" lon="-102.49438985140571"><ele>1890.5</ele><time>2026-03-22T14:07:59.01Z</time></trkpt><trkpt lat="21.747424755861477" lon="-102.494358950174"><ele>1889.75</ele><time>2026-03-22T14:08:00.01Z</time></trkpt><trkpt lat="21.747303768170084" lon="-102.49433830746037"><ele>1889.0</ele><time>2026-03-22T14:08:01.01Z</time></trkpt><trkpt lat="21.747183657439443" lon="-102.49430507996476"><ele>1889.0</ele><time>2026-03-22T14:08:02.01Z</time></trkpt><trkpt lat="21.747054650921655" lon="-102.49427144327038"><ele>1889.0</ele><time>2026-03-22T14:08:03.01Z</time></trkpt><trkpt lat="21.746929458506575" lon="-102.49423938847288"><ele>1889.0</ele><time>2026-03-22T14:08:04.01Z</time></trkpt><trkpt lat="21.74679596955511" lon="-102.49420768042357"><ele>1889.0</ele><time>2026-03-22T14:08:05.01Z</time></trkpt><trkpt lat="21.746667142181554" lon="-102.4941758656882"><ele>1888.75</ele><time>2026-03-22T14:08:06.01Z</time></trkpt><trkpt lat="21.74653625616582" lon="-102.49414587189837"><ele>1888.5</ele><time>2026-03-22T14:08:07.01Z</time></trkpt><trkpt lat="21.74640237700527" lon="-102.49411018037812"><ele>1888.25</ele><time>2026-03-22T14:08:08.01Z</time></trkpt><trkpt lat="21.746258760734428" lon="-102.49407934032054"><ele>1888.0</ele><time>2026-03-22T14:08:09.01Z</time></trkpt><trkpt lat="21.74612853284339" lon="-102.49404602370367"><ele>1887.5</ele><time>2026-03-22T14:08:10.01Z</time></trkpt><trkpt lat="21.745992487150485" lon="-102.49401991691062"><ele>1887.0</ele><time>2026-03-22T14:08:11.01Z</time></trkpt><trkpt lat="21.74585588990266" lon="-102.49398520422758"><ele>1886.5</ele><time>2026-03-22T14:08:12.01Z</time></trkpt><trkpt lat="21.745717979736966" lon="-102.49395436073526"><ele>1886.0</ele><time>2026-03-22T14:08:13.01Z</time></trkpt><trkpt lat="21.745573008075475" lon="-102.49391696968593"><ele>1886.0</ele><time>2026-03-22T14:08:14.01Z</time></trkpt><trkpt lat="21.74543493006848" lon="-102.49387961041614"><ele>1886.0</ele><time>2026-03-22T14:08:15.01Z</time></trkpt><trkpt lat="21.74529497875566" lon="-102.49384770571278"><ele>1886.0</ele><time>2026-03-22T14:08:16.01Z</time></trkpt><trkpt lat="21.745155396325238" lon="-102.49381300680531"><ele>1886.0</ele><time>2026-03-22T14:08:17.01Z</time></trkpt><trkpt lat="21.74501812832545" lon="-102.49378069008904"><ele>1885.75</ele><time>2026-03-22T14:08:18.01Z</time></trkpt><trkpt lat="21.744883293402058" lon="-102.49374785061455"><ele>1885.5</ele><time>2026-03-22T14:08:19.01Z</time></trkpt><trkpt lat="21.74474717230884" lon="-102.49371695887793"><ele>1885.25</ele><time>2026-03-22T14:08:20.01Z</time></trkpt><trkpt lat="21.744612111596293" lon="-102.49368413253468"><ele>1885.0</ele><time>2026-03-22T14:08:21.01Z</time></trkpt><trkpt lat="21.744476522821273" lon="-102.49365278124664"><ele>1884.25</ele><time>2026-03-22T14:08:22.01Z</time></trkpt><trkpt lat="21.744352348662467" lon="-102.49362297347038"><ele>1883.5</ele><time>2026-03-22T14:08:23.01Z</time></trkpt><trkpt lat="21.744220167804986" lon="-102.4935958513901"><ele>1882.75</ele><time>2026-03-22T14:08:24.01Z</time></trkpt><trkpt lat="21.744096954465963" lon="-102.49356121787744"><ele>1882.0</ele><time>2026-03-22T14:08:25.01Z</time></trkpt><trkpt lat="21.74397332145604" lon="-102.49353683578596"><ele>1882.0</ele><time>2026-03-22T14:08:26.01Z</time></trkpt><trkpt lat="21.74384373307473" lon="-102.493509822104"><ele>1882.0</ele><time>2026-03-22T14:08:27.011Z</time></trkpt><trkpt lat="21.7437244713425" lon="-102.49348368384193"><ele>1882.0</ele><time>2026-03-22T14:08:28.011Z</time></trkpt><trkpt lat="21.743601442940818" lon="-102.49344983253805"><ele>1882.0</ele><time>2026-03-22T14:08:29.011Z</time></trkpt><trkpt lat="21.743484493918935" lon="-102.49342169189504"><ele>1881.75</ele><time>2026-03-22T14:08:30.011Z</time></trkpt><trkpt lat="21.74336583843181" lon="-102.49339225444633"><ele>1881.5</ele><time>2026-03-22T14:08:31.011Z</time></trkpt><trkpt lat="21.743255544652158" lon="-102.49336639082016"><ele>1881.25</ele><time>2026-03-22T14:08:32.011Z</time></trkpt><trkpt lat="21.743141188306524" lon="-102.49334255147464"><ele>1881.0</ele><time>2026-03-22T14:08:33.011Z</time></trkpt><trkpt lat="21.743026462152677" lon="-102.49331728034676"><ele>1881.0</ele><time>2026-03-22T14:08:34.01Z</time></trkpt><trkpt lat="21.742911347308354" lon="-102.49329169931076"><ele>1881.0</ele><time>2026-03-22T14:08:35.01Z</time></trkpt><trkpt lat="21.742793117896404" lon="-102.49326002603098"><ele>1881.0</ele><time>2026-03-22T14:08:36.011Z</time></trkpt><trkpt lat="21.742684030077776" lon="-102.49323412158722"><ele>1881.0</ele><time>2026-03-22T14:08:37.011Z</time></trkpt><trkpt lat="21.742576060518054" lon="-102.49320978494588"><ele>1881.1999999999998</ele><time>2026-03-22T14:08:38.011Z</time></trkpt><trkpt lat="21.742469515241723" lon="-102.49318610122296"><ele>1881.3999999999999</ele><time>2026-03-22T14:08:39.011Z</time></trkpt><trkpt lat="21.742370374105704" lon="-102.49316108145851"><ele>1881.6</ele><time>2026-03-22T14:08:40.011Z</time></trkpt><trkpt lat="21.742279819414367" lon="-102.49313694943902"><ele>1881.8</ele><time>2026-03-22T14:08:41.011Z</time></trkpt><trkpt lat="21.742183577787372" lon="-102.49311966200642"><ele>1882.0</ele><time>2026-03-22T14:08:42.011Z</time></trkpt><trkpt lat="21.742083762853078" lon="-102.4930930423637"><ele>1882.0</ele><time>2026-03-22T14:08:43.01Z</time></trkpt><trkpt lat="21.741990064122348" lon="-102.4930694753222"><ele>1881.9999999999998</ele><time>2026-03-22T14:08:44.01Z</time></trkpt><trkpt lat="21.741890748112723" lon="-102.49304859701772"><ele>1881.9999999999998</ele><time>2026-03-22T14:08:45.01Z</time></trkpt><trkpt lat="21.741791015183605" lon="-102.4930270212364"><ele>1882.0</ele><time>2026-03-22T14:08:46.01Z</time></trkpt><trkpt lat="21.741682996127754" lon="-102.49300098320418"><ele>1882.0</ele><time>2026-03-22T14:08:47.01Z</time></trkpt><trkpt lat="21.74157285364283" lon="-102.49297420946817"><ele>1882.0</ele><time>2026-03-22T14:08:48.01Z</time></trkpt><trkpt lat="21.741458175900835" lon="-102.49294965804883"><ele>1882.0</ele><time>2026-03-22T14:08:49.01Z</time></trkpt><trkpt lat="21.741337652449943" lon="-102.4929280852321"><ele>1882.0</ele><time>2026-03-22T14:08:50.01Z</time></trkpt><trkpt lat="21.741223485504566" lon="-102.49290472854334"><ele>1882.0</ele><time>2026-03-22T14:08:51.01Z</time></trkpt><trkpt lat="21.741110133585682" lon="-102.49287589636651"><ele>1881.75</ele><time>2026-03-22T14:08:52.01Z</time></trkpt><trkpt lat="21.740991617635416" lon="-102.49284817220831"><ele>1881.5</ele><time>2026-03-22T14:08:53.01Z</time></trkpt><trkpt lat="21.740873556131415" lon="-102.49281672716556"><ele>1881.25</ele><time>2026-03-22T14:08:54.01Z</time></trkpt><trkpt lat="21.740750785955946" lon="-102.49278463361331"><ele>1881.0</ele><time>2026-03-22T14:08:55.01Z</time></trkpt><trkpt lat="21.74063226815773" lon="-102.49276225559205"><ele>1881.0</ele><time>2026-03-22T14:08:56.01Z</time></trkpt><trkpt lat="21.74051460181763" lon="-102.4927353515653"><ele>1881.0</ele><time>2026-03-22T14:08:57.01Z</time></trkpt><trkpt lat="21.740393569659815" lon="-102.49270636714118"><ele>1881.0</ele><time>2026-03-22T14:08:58.01Z</time></trkpt><trkpt lat="21.74026912135568" lon="-102.49267770947512"><ele>1881.0</ele><time>2026-03-22T14:08:59.01Z</time></trkpt><trkpt lat="21.740141154595232" lon="-102.4926492313213"><ele>1879.5</ele><time>2026-03-22T14:09:00.01Z</time></trkpt><trkpt lat="21.740017342499215" lon="-102.49262147316718"><ele>1878.0</ele><time>2026-03-22T14:09:01.01Z</time></trkpt><trkpt lat="21.739898387661082" lon="-102.49259244261393"><ele>1876.5</ele><time>2026-03-22T14:09:02.01Z</time></trkpt><trkpt lat="21.739773202523995" lon="-102.49256004934131"><ele>1875.0</ele><time>2026-03-22T14:09:03.01Z</time></trkpt><trkpt lat="21.73964864076624" lon="-102.49252616624598"><ele>1875.0</ele><time>2026-03-22T14:09:04.01Z</time></trkpt><trkpt lat="21.739523112922303" lon="-102.49249932230892"><ele>1875.0</ele><time>2026-03-22T14:09:05.01Z</time></trkpt><trkpt lat="21.73940155739251" lon="-102.49247035446844"><ele>1875.0</ele><time>2026-03-22T14:09:06.01Z</time></trkpt><trkpt lat="21.739280805166022" lon="-102.49244580862275"><ele>1875.0</ele><time>2026-03-22T14:09:07.01Z</time></trkpt><trkpt lat="21.739158430235324" lon="-102.49241342927448"><ele>1874.25</ele><time>2026-03-22T14:09:08.01Z</time></trkpt><trkpt lat="21.739033223913534" lon="-102.49238330395569"><ele>1873.5</ele><time>2026-03-22T14:09:09.01Z</time></trkpt><trkpt lat="21.738913202253798" lon="-102.49235457626278"><ele>1872.75</ele><time>2026-03-22T14:09:10.01Z</time></trkpt><trkpt lat="21.738790801911087" lon="-102.49232942565914"><ele>1872.0</ele><time>2026-03-22T14:09:11.01Z</time></trkpt><trkpt lat="21.73866573352563" lon="-102.49230302578943"><ele>1871.25</ele><time>2026-03-22T14:09:12.01Z</time></trkpt><trkpt lat="21.73854323778594" lon="-102.49227029215723"><ele>1870.5</ele><time>2026-03-22T14:09:13.01Z</time></trkpt><trkpt lat="21.738424855296795" lon="-102.49224149987933"><ele>1869.75</ele><time>2026-03-22T14:09:14.01Z</time></trkpt><trkpt lat="21.738304844271358" lon="-102.49221325644707"><ele>1869.0</ele><time>2026-03-22T14:09:15.01Z</time></trkpt><trkpt lat="21.73818937883547" lon="-102.4921826110517"><ele>1869.0</ele><time>2026-03-22T14:09:16.01Z</time></trkpt><trkpt lat="21.738064878987384" lon="-102.49215586624481"><ele>1869.0</ele><time>2026-03-22T14:09:17.01Z</time></trkpt><trkpt lat="21.737947510889217" lon="-102.4921313988101"><ele>1869.0</ele><time>2026-03-22T14:09:18.01Z</time></trkpt><trkpt lat="21.737828250158923" lon="-102.49209986332"><ele>1869.0</ele><time>2026-03-22T14:09:19.01Z</time></trkpt><trkpt lat="21.737707212734666" lon="-102.49207045605696"><ele>1869.75</ele><time>2026-03-22T14:09:20.01Z</time></trkpt><trkpt lat="21.737584696175603" lon="-102.49204012303358"><ele>1870.5</ele><time>2026-03-22T14:09:21.01Z</time></trkpt><trkpt lat="21.737463200750916" lon="-102.4920075606911"><ele>1871.25</ele><time>2026-03-22T14:09:22.01Z</time></trkpt><trkpt lat="21.737343351089027" lon="-102.49197885392994"><ele>1872.0</ele><time>2026-03-22T14:09:23.01Z</time></trkpt><trkpt lat="21.737231342424746" lon="-102.49194988995527"><ele>1872.0</ele><time>2026-03-22T14:09:24.01Z</time></trkpt><trkpt lat="21.737115944231043" lon="-102.49192493445135"><ele>1872.0</ele><time>2026-03-22T14:09:25.01Z</time></trkpt><trkpt lat="21.737002240011215" lon="-102.49189861393792"><ele>1872.0</ele><time>2026-03-22T14:09:26.01Z</time></trkpt><trkpt lat="21.736883406194874" lon="-102.49187091245096"><ele>1872.0</ele><time>2026-03-22T14:09:27.01Z</time></trkpt><trkpt lat="21.736770925065613" lon="-102.49183950267341"><ele>1871.0</ele><time>2026-03-22T14:09:28.01Z</time></trkpt><trkpt lat="21.736652675501965" lon="-102.4918083980987"><ele>1870.0</ele><time>2026-03-22T14:09:29.01Z</time></trkpt><trkpt lat="21.736535605537018" lon="-102.49177909168692"><ele>1869.0</ele><time>2026-03-22T14:09:30.01Z</time></trkpt><trkpt lat="21.736419326813383" lon="-102.49174878296554"><ele>1868.0</ele><time>2026-03-22T14:09:31.01Z</time></trkpt><trkpt lat="21.73630936728863" lon="-102.49172117035336"><ele>1868.0</ele><time>2026-03-22T14:09:32.01Z</time></trkpt><trkpt lat="21.73619984800765" lon="-102.49169186968558"><ele>1868.0</ele><time>2026-03-22T14:09:33.01Z</time></trkpt><trkpt lat="21.736084635385264" lon="-102.49166404038579"><ele>1868.0</ele><time>2026-03-22T14:09:34.01Z</time></trkpt><trkpt lat="21.735968534596743" lon="-102.49163816423632"><ele>1868.0</ele><time>2026-03-22T14:09:35.01Z</time></trkpt><trkpt lat="21.735855591016477" lon="-102.4916143554793"><ele>1867.0</ele><time>2026-03-22T14:09:36.01Z</time></trkpt><trkpt lat="21.735746975484833" lon="-102.4915953128558"><ele>1866.0000000000002</ele><time>2026-03-22T14:09:37.01Z</time></trkpt><trkpt lat="21.735644833328156" lon="-102.4915763278893"><ele>1865.0000000000002</ele><time>2026-03-22T14:09:38.01Z</time></trkpt><trkpt lat="21.73554618682741" lon="-102.49155484865454"><ele>1864.0</ele><time>2026-03-22T14:09:39.01Z</time></trkpt><trkpt lat="21.73545087727177" lon="-102.49153156837106"><ele>1863.0</ele><time>2026-03-22T14:09:40.01Z</time></trkpt><trkpt lat="21.73536111794247" lon="-102.49150562217147"><ele>1863.0</ele><time>2026-03-22T14:09:41.01Z</time></trkpt><trkpt lat="21.735279581706337" lon="-102.49147085960433"><ele>1863.0000000000002</ele><time>2026-03-22T14:09:42.01Z</time></trkpt><trkpt lat="21.735204205771858" lon="-102.49140939479048"><ele>1863.0000000000002</ele><time>2026-03-22T14:09:43.01Z</time></trkpt><trkpt lat="21.735154611498825" lon="-102.49131521693754"><ele>1863.0</ele><time>2026-03-22T14:09:44.01Z</time></trkpt><trkpt lat="21.73512160835993" lon="-102.49121189915026"><ele>1863.0</ele><time>2026-03-22T14:09:45.01Z</time></trkpt><trkpt lat="21.73509887178547" lon="-102.4911032776571"><ele>1861.25</ele><time>2026-03-22T14:09:46.01Z</time></trkpt><trkpt lat="21.73507995147729" lon="-102.49098568767906"><ele>1859.5</ele><time>2026-03-22T14:09:47.01Z</time></trkpt><trkpt lat="21.735063958904156" lon="-102.49086515694634"><ele>1857.75</ele><time>2026-03-22T14:09:48.01Z</time></trkpt><trkpt lat="21.73504193891795" lon="-102.49073991325595"><ele>1856.0</ele><time>2026-03-22T14:09:49.01Z</time></trkpt><trkpt lat="21.735019710141874" lon="-102.49061383611621"><ele>1856.0</ele><time>2026-03-22T14:09:50.01Z</time></trkpt><trkpt lat="21.734996306309842" lon="-102.49048263599896"><ele>1856.0</ele><time>2026-03-22T14:09:51.01Z</time></trkpt><trkpt lat="21.73497337862758" lon="-102.49034450138586"><ele>1856.0</ele><time>2026-03-22T14:09:52.01Z</time></trkpt><trkpt lat="21.734950226392005" lon="-102.49021027389114"><ele>1856.0</ele><time>2026-03-22T14:09:53.01Z</time></trkpt><trkpt lat="21.734920813069348" lon="-102.49006702664519"><ele>1855.75</ele><time>2026-03-22T14:09:54.01Z</time></trkpt><trkpt lat="21.73489146022941" lon="-102.4899264517728"><ele>1855.5</ele><time>2026-03-22T14:09:55.01Z</time></trkpt><trkpt lat="21.734862860150105" lon="-102.48977142402927"><ele>1855.25</ele><time>2026-03-22T14:09:56.01Z</time></trkpt><trkpt lat="21.734836759484107" lon="-102.4896259392162"><ele>1855.0</ele><time>2026-03-22T14:09:57.01Z</time></trkpt><trkpt lat="21.734807856754074" lon="-102.48947007347432"><ele>1855.5</ele><time>2026-03-22T14:09:58.01Z</time></trkpt><trkpt lat="21.734782494807515" lon="-102.48932860026987"><ele>1856.0</ele><time>2026-03-22T14:09:59.01Z</time></trkpt><trkpt lat="21.734748641542676" lon="-102.48919164247539"><ele>1856.5</ele><time>2026-03-22T14:10:00.01Z</time></trkpt><trkpt lat="21.734701203286544" lon="-102.48905745635875"><ele>1857.0</ele><time>2026-03-22T14:10:01.01Z</time></trkpt><trkpt lat="21.734626123960734" lon="-102.48894224243281"><ele>1857.0</ele><time>2026-03-22T14:10:02.01Z</time></trkpt><trkpt lat="21.734526011074" lon="-102.48884745064029"><ele>1857.0</ele><time>2026-03-22T14:10:03.01Z</time></trkpt><trkpt lat="21.7344135115682" lon="-102.48877225102848"><ele>1857.0</ele><time>2026-03-22T14:10:04.01Z</time></trkpt><trkpt lat="21.73429938188106" lon="-102.48871425428926"><ele>1857.0</ele><time>2026-03-22T14:10:05.009Z</time></trkpt><trkpt lat="21.73417287729079" lon="-102.48866130311474"><ele>1857.0</ele><time>2026-03-22T14:10:06.009Z</time></trkpt><trkpt lat="21.734048928618" lon="-102.48861443799639"><ele>1857.0</ele><time>2026-03-22T14:10:07.009Z</time></trkpt><trkpt lat="21.73393049235814" lon="-102.48856491381954"><ele>1857.0</ele><time>2026-03-22T14:10:08.009Z</time></trkpt><trkpt lat="21.733811573709243" lon="-102.48852329196168"><ele>1857.0</ele><time>2026-03-22T14:10:09.009Z</time></trkpt><trkpt lat="21.733698445956325" lon="-102.48847723969725"><ele>1857.0</ele><time>2026-03-22T14:10:10.009Z</time></trkpt><trkpt lat="21.73358029556731" lon="-102.48842319285205"><ele>1857.0</ele><time>2026-03-22T14:10:11.009Z</time></trkpt><trkpt lat="21.733459506980893" lon="-102.48837371371641"><ele>1857.0</ele><time>2026-03-22T14:10:12.009Z</time></trkpt><trkpt lat="21.733344173186975" lon="-102.48832024915943"><ele>1857.0</ele><time>2026-03-22T14:10:13.009Z</time></trkpt><trkpt lat="21.73324216357666" lon="-102.48825630616929"><ele>1857.0</ele><time>2026-03-22T14:10:14.009Z</time></trkpt><trkpt lat="21.733153608258732" lon="-102.4881740603124"><ele>1857.0</ele><time>2026-03-22T14:10:15.009Z</time></trkpt><trkpt lat="21.733076425855668" lon="-102.4880633213215"><ele>1857.0</ele><time>2026-03-22T14:10:16.009Z</time></trkpt><trkpt lat="21.733004903135893" lon="-102.48795857130396"><ele>1857.0</ele><time>2026-03-22T14:10:17.009Z</time></trkpt><trkpt lat="21.73294615837" lon="-102.48784195056432"><ele>1856.75</ele><time>2026-03-22T14:10:18.009Z</time></trkpt><trkpt lat="21.73289801945891" lon="-102.4877241327864"><ele>1856.5</ele><time>2026-03-22T14:10:19.009Z</time></trkpt><trkpt lat="21.732851137816304" lon="-102.4876034633599"><ele>1856.25</ele><time>2026-03-22T14:10:20.009Z</time></trkpt><trkpt lat="21.73279946938974" lon="-102.48747955412546"><ele>1856.0</ele><time>2026-03-22T14:10:21.009Z</time></trkpt><trkpt lat="21.732747531036235" lon="-102.48735635717368"><ele>1856.5</ele><time>2026-03-22T14:10:22.009Z</time></trkpt><trkpt lat="21.73269323641772" lon="-102.48723283733477"><ele>1857.0</ele><time>2026-03-22T14:10:23.009Z</time></trkpt><trkpt lat="21.732638792932594" lon="-102.4871132728776"><ele>1857.5</ele><time>2026-03-22T14:10:24.009Z</time></trkpt><trkpt lat="21.732595364526397" lon="-102.48698959721723"><ele>1858.0</ele><time>2026-03-22T14:10:25.009Z</time></trkpt><trkpt lat="21.732554054845668" lon="-102.4868679260285"><ele>1856.75</ele><time>2026-03-22T14:10:26.009Z</time></trkpt><trkpt lat="21.7325316962549" lon="-102.48673641280774"><ele>1855.5</ele><time>2026-03-22T14:10:27.009Z</time></trkpt><trkpt lat="21.732521983184153" lon="-102.48658195993295"><ele>1854.25</ele><time>2026-03-22T14:10:28.009Z</time></trkpt><trkpt lat="21.73254837462367" lon="-102.48644921948042"><ele>1853.0</ele><time>2026-03-22T14:10:29.009Z</time></trkpt><trkpt lat="21.73259303710274" lon="-102.4863191547889"><ele>1853.25</ele><time>2026-03-22T14:10:30.009Z</time></trkpt><trkpt lat="21.732648594471954" lon="-102.48619845617931"><ele>1853.5</ele><time>2026-03-22T14:10:31.009Z</time></trkpt><trkpt lat="21.732706297735838" lon="-102.48606158821305"><ele>1853.75</ele><time>2026-03-22T14:10:32.011Z</time></trkpt><trkpt lat="21.732763205919273" lon="-102.48591624689152"><ele>1854.0</ele><time>2026-03-22T14:10:33.011Z</time></trkpt><trkpt lat="21.73281929793363" lon="-102.48577294396374"><ele>1852.25</ele><time>2026-03-22T14:10:34.011Z</time></trkpt><trkpt lat="21.732872669496942" lon="-102.4856384080124"><ele>1850.5</ele><time>2026-03-22T14:10:35.011Z</time></trkpt><trkpt lat="21.732930724839697" lon="-102.48549568440426"><ele>1848.75</ele><time>2026-03-22T14:10:36.011Z</time></trkpt><trkpt lat="21.73298843444338" lon="-102.4853517062096"><ele>1847.0</ele><time>2026-03-22T14:10:37.011Z</time></trkpt><trkpt lat="21.733047827625963" lon="-102.48520360428448"><ele>1845.3333333333333</ele><time>2026-03-22T14:10:38.011Z</time></trkpt><trkpt lat="21.733102524050924" lon="-102.48505436436936"><ele>1843.6666666666665</ele><time>2026-03-22T14:10:39.011Z</time></trkpt><trkpt lat="21.73315727802228" lon="-102.48490295134053"><ele>1842.0</ele><time>2026-03-22T14:10:40.011Z</time></trkpt><trkpt lat="21.73321280872051" lon="-102.48475115423776"><ele>1842.0</ele><time>2026-03-22T14:10:41.011Z</time></trkpt><trkpt lat="21.733275609258722" lon="-102.48460001144194"><ele>1842.0</ele><time>2026-03-22T14:10:42.011Z</time></trkpt><trkpt lat="21.733337419834065" lon="-102.48445199444514"><ele>1842.0</ele><time>2026-03-22T14:10:43.011Z</time></trkpt><trkpt lat="21.73339921810538" lon="-102.48429519000211"><ele>1841.6666666666665</ele><time>2026-03-22T14:10:44.01Z</time></trkpt><trkpt lat="21.733450936634576" lon="-102.48414426402836"><ele>1841.3333333333333</ele><time>2026-03-22T14:10:45.011Z</time></trkpt><trkpt lat="21.73350754876404" lon="-102.48398926258228"><ele>1841.0</ele><time>2026-03-22T14:10:46.011Z</time></trkpt><trkpt lat="21.733563701782582" lon="-102.48383552579378"><ele>1840.0</ele><time>2026-03-22T14:10:47.011Z</time></trkpt><trkpt lat="21.7336208210585" lon="-102.48368076104758"><ele>1839.0</ele><time>2026-03-22T14:10:48.011Z</time></trkpt><trkpt lat="21.733683067020202" lon="-102.48352555573513"><ele>1838.0</ele><time>2026-03-22T14:10:49.011Z</time></trkpt><trkpt lat="21.73374328517974" lon="-102.48337964914515"><ele>1838.0</ele><time>2026-03-22T14:10:50.011Z</time></trkpt><trkpt lat="21.733792433317834" lon="-102.48322762148462"><ele>1838.0</ele><time>2026-03-22T14:10:51.011Z</time></trkpt><trkpt lat="21.733841089522848" lon="-102.48307750884952"><ele>1838.0</ele><time>2026-03-22T14:10:52.011Z</time></trkpt><trkpt lat="21.733891642411553" lon="-102.48293863451917"><ele>1838.0</ele><time>2026-03-22T14:10:53.011Z</time></trkpt><trkpt lat="21.73394657499347" lon="-102.48280113315977"><ele>1838.0</ele><time>2026-03-22T14:10:54.011Z</time></trkpt><trkpt lat="21.734002314007665" lon="-102.48266349064033"><ele>1838.0</ele><time>2026-03-22T14:10:55.011Z</time></trkpt><trkpt lat="21.73405958993247" lon="-102.48252373803706"><ele>1838.0</ele><time>2026-03-22T14:10:56.011Z</time></trkpt><trkpt lat="21.73410995187664" lon="-102.4823990853435"><ele>1838.0</ele><time>2026-03-22T14:10:57.011Z</time></trkpt><trkpt lat="21.734155998689527" lon="-102.48227590852807"><ele>1838.0</ele><time>2026-03-22T14:10:58.011Z</time></trkpt><trkpt lat="21.734199264803276" lon="-102.48216314594703"><ele>1838.0</ele><time>2026-03-22T14:10:59.011Z</time></trkpt><trkpt lat="21.73423746755271" lon="-102.48203063555533"><ele>1838.0</ele><time>2026-03-22T14:11:00.011Z</time></trkpt><trkpt lat="21.734284422854362" lon="-102.4819060679956"><ele>1838.0</ele><time>2026-03-22T14:11:01.011Z</time></trkpt><trkpt lat="21.73433892978218" lon="-102.48177870570149"><ele>1838.0</ele><time>2026-03-22T14:11:02.011Z</time></trkpt><trkpt lat="21.734382103896206" lon="-102.48165454932226"><ele>1838.0</ele><time>2026-03-22T14:11:03.011Z</time></trkpt><trkpt lat="21.734435699497283" lon="-102.48152105206209"><ele>1838.0</ele><time>2026-03-22T14:11:04.011Z</time></trkpt><trkpt lat="21.734483318703575" lon="-102.48139082947145"><ele>1838.0</ele><time>2026-03-22T14:11:05.011Z</time></trkpt><trkpt lat="21.73453053303112" lon="-102.48126517591336"><ele>1835.75</ele><time>2026-03-22T14:11:06.011Z</time></trkpt><trkpt lat="21.734571860583213" lon="-102.48113130364085"><ele>1833.5</ele><time>2026-03-22T14:11:07.011Z</time></trkpt><trkpt lat="21.73460629167771" lon="-102.48099769028066"><ele>1831.25</ele><time>2026-03-22T14:11:08.011Z</time></trkpt><trkpt lat="21.734630801611956" lon="-102.48085776335351"><ele>1829.0</ele><time>2026-03-22T14:11:09.011Z</time></trkpt><trkpt lat="21.73464552573005" lon="-102.48071822588433"><ele>1829.0</ele><time>2026-03-22T14:11:10.01Z</time></trkpt><trkpt lat="21.734654300844966" lon="-102.48058161311553"><ele>1829.0</ele><time>2026-03-22T14:11:11.01Z</time></trkpt><trkpt lat="21.734648481858024" lon="-102.48043201903742"><ele>1829.0</ele><time>2026-03-22T14:11:12.01Z</time></trkpt><trkpt lat="21.734635739154637" lon="-102.48027966036014"><ele>1829.0</ele><time>2026-03-22T14:11:13.01Z</time></trkpt><trkpt lat="21.734605322177828" lon="-102.48012898241741"><ele>1828.75</ele><time>2026-03-22T14:11:14.01Z</time></trkpt><trkpt lat="21.73457124389014" lon="-102.47997863628272"><ele>1828.5</ele><time>2026-03-22T14:11:15.01Z</time></trkpt><trkpt lat="21.734539864619947" lon="-102.47981922875057"><ele>1828.25</ele><time>2026-03-22T14:11:16.01Z</time></trkpt><trkpt lat="21.734511315549778" lon="-102.47967116376479"><ele>1828.0</ele><time>2026-03-22T14:11:17.01Z</time></trkpt><trkpt lat="21.73448173070822" lon="-102.47952191396251"><ele>1827.75</ele><time>2026-03-22T14:11:18.01Z</time></trkpt><trkpt lat="21.734452944248105" lon="-102.47936921192337"><ele>1827.5</ele><time>2026-03-22T14:11:19.01Z</time></trkpt><trkpt lat="21.734425762655356" lon="-102.47921407518176"><ele>1827.25</ele><time>2026-03-22T14:11:20.01Z</time></trkpt><trkpt lat="21.73440075278944" lon="-102.47905952062966"><ele>1827.0</ele><time>2026-03-22T14:11:21.01Z</time></trkpt><trkpt lat="21.73437178240939" lon="-102.47890825831622"><ele>1826.0</ele><time>2026-03-22T14:11:22.01Z</time></trkpt><trkpt lat="21.7343458045545" lon="-102.47875152997082"><ele>1825.0</ele><time>2026-03-22T14:11:23.01Z</time></trkpt><trkpt lat="21.734311496461743" lon="-102.47860194137738"><ele>1824.0</ele><time>2026-03-22T14:11:24.01Z</time></trkpt><trkpt lat="21.734283407720422" lon="-102.47844736409739"><ele>1823.0</ele><time>2026-03-22T14:11:25.01Z</time></trkpt><trkpt lat="21.734257759063702" lon="-102.47828758673498"><ele>1823.0</ele><time>2026-03-22T14:11:26.01Z</time></trkpt><trkpt lat="21.734232699671157" lon="-102.4781363808816"><ele>1823.0</ele><time>2026-03-22T14:11:27.01Z</time></trkpt><trkpt lat="21.734198783229225" lon="-102.47798154496022"><ele>1823.0</ele><time>2026-03-22T14:11:28.01Z</time></trkpt><trkpt lat="21.73416987868737" lon="-102.47782961394564"><ele>1823.0</ele><time>2026-03-22T14:11:29.01Z</time></trkpt><trkpt lat="21.734142474424512" lon="-102.47767160680819"><ele>1822.0</ele><time>2026-03-22T14:11:30.01Z</time></trkpt><trkpt lat="21.73412268630076" lon="-102.47751696215393"><ele>1821.0</ele><time>2026-03-22T14:11:31.01Z</time></trkpt><trkpt lat="21.734088172983387" lon="-102.4773663380276"><ele>1820.0</ele><time>2026-03-22T14:11:32.01Z</time></trkpt><trkpt lat="21.734057632214085" lon="-102.47721818774552"><ele>1819.0</ele><time>2026-03-22T14:11:33.01Z</time></trkpt><trkpt lat="21.73403201513245" lon="-102.47706404548373"><ele>1819.0</ele><time>2026-03-22T14:11:34.01Z</time></trkpt><trkpt lat="21.734002189188118" lon="-102.4769065274963"><ele>1819.0</ele><time>2026-03-22T14:11:35.01Z</time></trkpt><trkpt lat="21.73397220347683" lon="-102.47675294085471"><ele>1819.0</ele><time>2026-03-22T14:11:36.01Z</time></trkpt><trkpt lat="21.733947352035667" lon="-102.47661039066901"><ele>1819.0</ele><time>2026-03-22T14:11:37.01Z</time></trkpt><trkpt lat="21.73392612986419" lon="-102.47646877421236"><ele>1819.0</ele><time>2026-03-22T14:11:38.01Z</time></trkpt><trkpt lat="21.733902884068964" lon="-102.47633516939828"><ele>1819.0</ele><time>2026-03-22T14:11:39.01Z</time></trkpt><trkpt lat="21.733877129345345" lon="-102.47621069080468"><ele>1819.0</ele><time>2026-03-22T14:11:40.01Z</time></trkpt><trkpt lat="21.733852080231905" lon="-102.47606526635191"><ele>1819.0</ele><time>2026-03-22T14:11:41.01Z</time></trkpt><trkpt lat="21.73383298551076" lon="-102.47592651875729"><ele>1819.0</ele><time>2026-03-22T14:11:42.01Z</time></trkpt><trkpt lat="21.733806917182733" lon="-102.47579195693974"><ele>1819.0</ele><time>2026-03-22T14:11:43.01Z</time></trkpt><trkpt lat="21.73378150648778" lon="-102.47565662650882"><ele>1819.0</ele><time>2026-03-22T14:11:44.01Z</time></trkpt><trkpt lat="21.73375788966763" lon="-102.47552043838151"><ele>1819.0</ele><time>2026-03-22T14:11:45.01Z</time></trkpt><trkpt lat="21.73373057441392" lon="-102.4753881079"><ele>1818.75</ele><time>2026-03-22T14:11:46.01Z</time></trkpt><trkpt lat="21.733710078088084" lon="-102.47525667763162"><ele>1818.5</ele><time>2026-03-22T14:11:47.01Z</time></trkpt><trkpt lat="21.733688693883348" lon="-102.47513011014266"><ele>1818.25</ele><time>2026-03-22T14:11:48.01Z</time></trkpt><trkpt lat="21.73366729603381" lon="-102.4749982704702"><ele>1818.0</ele><time>2026-03-22T14:11:49.01Z</time></trkpt><trkpt lat="21.733639771155143" lon="-102.47487430252188"><ele>1818.0</ele><time>2026-03-22T14:11:50.01Z</time></trkpt><trkpt lat="21.733617787650093" lon="-102.47474184071203"><ele>1818.0</ele><time>2026-03-22T14:11:51.01Z</time></trkpt><trkpt lat="21.733599466561316" lon="-102.47461969054491"><ele>1818.0</ele><time>2026-03-22T14:11:52.01Z</time></trkpt><trkpt lat="21.733581590307434" lon="-102.47449527034432"><ele>1818.0</ele><time>2026-03-22T14:11:53.01Z</time></trkpt><trkpt lat="21.733558188049486" lon="-102.47436884991228"><ele>1817.5</ele><time>2026-03-22T14:11:54.01Z</time></trkpt><trkpt lat="21.73353144473874" lon="-102.47424941466565"><ele>1817.0</ele><time>2026-03-22T14:11:55.01Z</time></trkpt><trkpt lat="21.733507217828073" lon="-102.47412592196304"><ele>1816.5</ele><time>2026-03-22T14:11:56.01Z</time></trkpt><trkpt lat="21.733476210626325" lon="-102.47400605630453"><ele>1816.0</ele><time>2026-03-22T14:11:57.01Z</time></trkpt><trkpt lat="21.73344863677807" lon="-102.47388289385036"><ele>1816.25</ele><time>2026-03-22T14:11:58.01Z</time></trkpt><trkpt lat="21.733429266693722" lon="-102.47375348000226"><ele>1816.5</ele><time>2026-03-22T14:11:59.01Z</time></trkpt><trkpt lat="21.733405508372034" lon="-102.4736200384133"><ele>1816.75</ele><time>2026-03-22T14:12:00.01Z</time></trkpt><trkpt lat="21.73338746315468" lon="-102.47349086258461"><ele>1817.0</ele><time>2026-03-22T14:12:01.01Z</time></trkpt><trkpt lat="21.733367580132605" lon="-102.4733657347764"><ele>1817.0</ele><time>2026-03-22T14:12:02.01Z</time></trkpt><trkpt lat="21.73334792215259" lon="-102.47324094192157"><ele>1817.0</ele><time>2026-03-22T14:12:03.01Z</time></trkpt><trkpt lat="21.733321153577457" lon="-102.4731189558697"><ele>1817.0</ele><time>2026-03-22T14:12:04.01Z</time></trkpt><trkpt lat="21.733296097885273" lon="-102.4729962226314"><ele>1817.0</ele><time>2026-03-22T14:12:05.01Z</time></trkpt><trkpt lat="21.733268505556417" lon="-102.4728785058291"><ele>1817.5</ele><time>2026-03-22T14:12:06.01Z</time></trkpt><trkpt lat="21.733244804907326" lon="-102.4727549164345"><ele>1818.0</ele><time>2026-03-22T14:12:07.01Z</time></trkpt><trkpt lat="21.73321576040931" lon="-102.47263413911871"><ele>1818.5</ele><time>2026-03-22T14:12:08.01Z</time></trkpt><trkpt lat="21.733180828339986" lon="-102.47251171444199"><ele>1819.0</ele><time>2026-03-22T14:12:09.01Z</time></trkpt><trkpt lat="21.733140260636592" lon="-102.4723906614052"><ele>1819.0</ele><time>2026-03-22T14:12:10.01Z</time></trkpt><trkpt lat="21.733098691914762" lon="-102.47227074755511"><ele>1819.0</ele><time>2026-03-22T14:12:11.01Z</time></trkpt><trkpt lat="21.7330526947851" lon="-102.47215698879725"><ele>1819.0</ele><time>2026-03-22T14:12:12.01Z</time></trkpt><trkpt lat="21.733006332025223" lon="-102.47204400554517"><ele>1819.0</ele><time>2026-03-22T14:12:13.01Z</time></trkpt><trkpt lat="21.73295352457383" lon="-102.47193213220018"><ele>1819.5</ele><time>2026-03-22T14:12:14.01Z</time></trkpt><trkpt lat="21.73289795436021" lon="-102.47182776136967"><ele>1820.0</ele><time>2026-03-22T14:12:15.01Z</time></trkpt><trkpt lat="21.73283943413445" lon="-102.4717180838786"><ele>1820.5</ele><time>2026-03-22T14:12:16.01Z</time></trkpt><trkpt lat="21.732774893734494" lon="-102.47161704850195"><ele>1821.0</ele><time>2026-03-22T14:12:17.01Z</time></trkpt><trkpt lat="21.732707111559453" lon="-102.47150945310081"><ele>1820.5</ele><time>2026-03-22T14:12:18.01Z</time></trkpt><trkpt lat="21.732636134735014" lon="-102.47140777139721"><ele>1820.0</ele><time>2026-03-22T14:12:19.01Z</time></trkpt><trkpt lat="21.732565885578847" lon="-102.47130518854271"><ele>1819.5</ele><time>2026-03-22T14:12:20.01Z</time></trkpt><trkpt lat="21.73249951761457" lon="-102.471202784679"><ele>1819.0</ele><time>2026-03-22T14:12:21.01Z</time></trkpt><trkpt lat="21.732433068859873" lon="-102.47110146229974"><ele>1819.0</ele><time>2026-03-22T14:12:22.01Z</time></trkpt><trkpt lat="21.732368988566627" lon="-102.47099989123046"><ele>1819.0</ele><time>2026-03-22T14:12:23.01Z</time></trkpt><trkpt lat="21.732302358761" lon="-102.47089600808451"><ele>1819.0</ele><time>2026-03-22T14:12:24.01Z</time></trkpt><trkpt lat="21.732233538314926" lon="-102.47079352630186"><ele>1819.0</ele><time>2026-03-22T14:12:25.01Z</time></trkpt><trkpt lat="21.73216405589231" lon="-102.47069246108413"><ele>1819.0</ele><time>2026-03-22T14:12:26.01Z</time></trkpt><trkpt lat="21.73209445206568" lon="-102.47058977041738"><ele>1819.0</ele><time>2026-03-22T14:12:27.01Z</time></trkpt><trkpt lat="21.732030221692607" lon="-102.47048798903228"><ele>1819.0</ele><time>2026-03-22T14:12:28.01Z</time></trkpt><trkpt lat="21.731967391741566" lon="-102.47039233194711"><ele>1819.0</ele><time>2026-03-22T14:12:29.01Z</time></trkpt><trkpt lat="21.731903749302834" lon="-102.47029311918433"><ele>1818.2</ele><time>2026-03-22T14:12:30.01Z</time></trkpt><trkpt lat="21.731839722719307" lon="-102.47019829694396"><ele>1817.4</ele><time>2026-03-22T14:12:31.01Z</time></trkpt><trkpt lat="21.731776176006747" lon="-102.47009877587558"><ele>1816.6</ele><time>2026-03-22T14:12:32.01Z</time></trkpt><trkpt lat="21.731712944383602" lon="-102.47000137068542"><ele>1815.8</ele><time>2026-03-22T14:12:33.009Z</time></trkpt><trkpt lat="21.731645490576266" lon="-102.46990470042479"><ele>1815.0</ele><time>2026-03-22T14:12:34.009Z</time></trkpt><trkpt lat="21.731581852037035" lon="-102.4698082745455"><ele>1815.0</ele><time>2026-03-22T14:12:35.009Z</time></trkpt><trkpt lat="21.73151713346782" lon="-102.46970991737035"><ele>1815.0</ele><time>2026-03-22T14:12:36.009Z</time></trkpt><trkpt lat="21.731457345991714" lon="-102.46961371469733"><ele>1815.0</ele><time>2026-03-22T14:12:37.009Z</time></trkpt><trkpt lat="21.73139463934855" lon="-102.46951265466387"><ele>1815.0</ele><time>2026-03-22T14:12:38.011Z</time></trkpt><trkpt lat="21.73133343730164" lon="-102.46941471251442"><ele>1815.0</ele><time>2026-03-22T14:12:39.01Z</time></trkpt><trkpt lat="21.73126580572918" lon="-102.46931042128698"><ele>1815.25</ele><time>2026-03-22T14:12:40.01Z</time></trkpt><trkpt lat="21.731198208770458" lon="-102.46921779553571"><ele>1815.5</ele><time>2026-03-22T14:12:41.011Z</time></trkpt><trkpt lat="21.731134616071273" lon="-102.46911406676112"><ele>1815.75</ele><time>2026-03-22T14:12:42.011Z</time></trkpt><trkpt lat="21.731068316928226" lon="-102.469011784689"><ele>1816.0</ele><time>2026-03-22T14:12:43.011Z</time></trkpt><trkpt lat="21.731004766110164" lon="-102.46890580041284"><ele>1816.5</ele><time>2026-03-22T14:12:44.011Z</time></trkpt><trkpt lat="21.73093753678633" lon="-102.46880566498126"><ele>1817.0</ele><time>2026-03-22T14:12:45.011Z</time></trkpt><trkpt lat="21.730865703773173" lon="-102.468706623976"><ele>1817.5</ele><time>2026-03-22T14:12:46.011Z</time></trkpt><trkpt lat="21.73079515883297" lon="-102.46861405351166"><ele>1818.0</ele><time>2026-03-22T14:12:47.01Z</time></trkpt><trkpt lat="21.730732587950357" lon="-102.46852083848282"><ele>1818.0</ele><time>2026-03-22T14:12:48.011Z</time></trkpt><trkpt lat="21.730671032966825" lon="-102.46842512274083"><ele>1818.0000000000002</ele><time>2026-03-22T14:12:49.011Z</time></trkpt><trkpt lat="21.730610315230123" lon="-102.46832475886137"><ele>1818.0000000000002</ele><time>2026-03-22T14:12:50.011Z</time></trkpt><trkpt lat="21.73055069425285" lon="-102.46823020734642"><ele>1818.0</ele><time>2026-03-22T14:12:51.011Z</time></trkpt><trkpt lat="21.730490184598864" lon="-102.46813956498362"><ele>1818.0</ele><time>2026-03-22T14:12:52.011Z</time></trkpt><trkpt lat="21.730427671036608" lon="-102.468044467649"><ele>1818.0</ele><time>2026-03-22T14:12:53.011Z</time></trkpt><trkpt lat="21.730373463673597" lon="-102.46795301579218"><ele>1818.0000000000002</ele><time>2026-03-22T14:12:54.011Z</time></trkpt><trkpt lat="21.730321987412623" lon="-102.46785871074574"><ele>1818.0000000000002</ele><time>2026-03-22T14:12:55.011Z</time></trkpt><trkpt lat="21.730272018472558" lon="-102.46775675737341"><ele>1818.0</ele><time>2026-03-22T14:12:56.011Z</time></trkpt><trkpt lat="21.7302301457771" lon="-102.46764825610067"><ele>1818.0</ele><time>2026-03-22T14:12:57.011Z</time></trkpt><trkpt lat="21.73019718895108" lon="-102.46753938155138"><ele>1818.0</ele><time>2026-03-22T14:12:58.011Z</time></trkpt><trkpt lat="21.730165916674174" lon="-102.46742798740597"><ele>1818.0000000000002</ele><time>2026-03-22T14:12:59.011Z</time></trkpt><trkpt lat="21.730137362482076" lon="-102.46730724726318"><ele>1818.0000000000002</ele><time>2026-03-22T14:13:00.011Z</time></trkpt><trkpt lat="21.730105778080354" lon="-102.4671932200777"><ele>1818.0</ele><time>2026-03-22T14:13:01.011Z</time></trkpt><trkpt lat="21.730083284787522" lon="-102.46708070155667"><ele>1818.0</ele><time>2026-03-22T14:13:02.011Z</time></trkpt><trkpt lat="21.730061175740012" lon="-102.46697103210268"><ele>1818.0</ele><time>2026-03-22T14:13:03.011Z</time></trkpt><trkpt lat="21.730032767749798" lon="-102.46685783358333"><ele>1818.0000000000002</ele><time>2026-03-22T14:13:04.011Z</time></trkpt><trkpt lat="21.730004527011374" lon="-102.46674923975635"><ele>1818.0000000000002</ele><time>2026-03-22T14:13:05.011Z</time></trkpt><trkpt lat="21.729976576378306" lon="-102.4666346080228"><ele>1818.0</ele><time>2026-03-22T14:13:06.011Z</time></trkpt><trkpt lat="21.7299478738687" lon="-102.46652536731041"><ele>1818.0</ele><time>2026-03-22T14:13:07.011Z</time></trkpt><trkpt lat="21.72991886189466" lon="-102.46641949024213"><ele>1818.0</ele><time>2026-03-22T14:13:08.011Z</time></trkpt><trkpt lat="21.72989537970583" lon="-102.46631331389408"><ele>1818.0000000000002</ele><time>2026-03-22T14:13:09.011Z</time></trkpt><trkpt lat="21.729867404380272" lon="-102.46620209082633"><ele>1818.0000000000002</ele><time>2026-03-22T14:13:10.011Z</time></trkpt><trkpt lat="21.729850525643744" lon="-102.46610013243054"><ele>1818.0</ele><time>2026-03-22T14:13:11.011Z</time></trkpt><trkpt lat="21.729829043831284" lon="-102.46599673959356"><ele>1818.0</ele><time>2026-03-22T14:13:12.011Z</time></trkpt><trkpt lat="21.72980649906312" lon="-102.46588931226533"><ele>1818.2</ele><time>2026-03-22T14:13:13.011Z</time></trkpt><trkpt lat="21.72978688398759" lon="-102.46578588039787"><ele>1818.4</ele><time>2026-03-22T14:13:14.011Z</time></trkpt><trkpt lat="21.729771181571827" lon="-102.46568181292642"><ele>1818.6000000000001</ele><time>2026-03-22T14:13:15.011Z</time></trkpt><trkpt lat="21.729761822181885" lon="-102.46557091467858"><ele>1818.8000000000002</ele><time>2026-03-22T14:13:16.011Z</time></trkpt><trkpt lat="21.72975153000215" lon="-102.46546279764942"><ele>1819.0</ele><time>2026-03-22T14:13:17.011Z</time></trkpt><trkpt lat="21.729749715856787" lon="-102.46534345587841"><ele>1818.6</ele><time>2026-03-22T14:13:18.011Z</time></trkpt><trkpt lat="21.72973892807502" lon="-102.46522252487318"><ele>1818.2</ele><time>2026-03-22T14:13:19.011Z</time></trkpt><trkpt lat="21.729730183231187" lon="-102.46511128226074"><ele>1817.7999999999997</ele><time>2026-03-22T14:13:20.011Z</time></trkpt><trkpt lat="21.72972407516276" lon="-102.46500235022539"><ele>1817.3999999999999</ele><time>2026-03-22T14:13:21.011Z</time></trkpt><trkpt lat="21.72971457221671" lon="-102.46487916553086"><ele>1817.0</ele><time>2026-03-22T14:13:22.011Z</time></trkpt><trkpt lat="21.72970994939585" lon="-102.46475858131741"><ele>1817.0</ele><time>2026-03-22T14:13:23.011Z</time></trkpt><trkpt lat="21.729699876648137" lon="-102.46463342685135"><ele>1817.0</ele><time>2026-03-22T14:13:24.011Z</time></trkpt><trkpt lat="21.729682470854204" lon="-102.46451279391296"><ele>1817.0</ele><time>2026-03-22T14:13:25.011Z</time></trkpt><trkpt lat="21.729662892705313" lon="-102.46438644010048"><ele>1817.0</ele><time>2026-03-22T14:13:26.011Z</time></trkpt><trkpt lat="21.729631365724522" lon="-102.46425595484209"><ele>1815.5</ele><time>2026-03-22T14:13:27.011Z</time></trkpt><trkpt lat="21.729589642925635" lon="-102.46413029443715"><ele>1814.0</ele><time>2026-03-22T14:13:28.011Z</time></trkpt><trkpt lat="21.729536717077558" lon="-102.4640085680764"><ele>1812.5</ele><time>2026-03-22T14:13:29.011Z</time></trkpt><trkpt lat="21.729471726722583" lon="-102.46388537591957"><ele>1811.0</ele><time>2026-03-22T14:13:30.011Z</time></trkpt><trkpt lat="21.729405854637978" lon="-102.46377608513106"><ele>1810.25</ele><time>2026-03-22T14:13:31.011Z</time></trkpt><trkpt lat="21.72933685624923" lon="-102.46365216643218"><ele>1809.5</ele><time>2026-03-22T14:13:32.011Z</time></trkpt><trkpt lat="21.729268947869834" lon="-102.46352761155138"><ele>1808.75</ele><time>2026-03-22T14:13:33.011Z</time></trkpt><trkpt lat="21.729207096465764" lon="-102.4634068950598"><ele>1808.0</ele><time>2026-03-22T14:13:34.011Z</time></trkpt><trkpt lat="21.729132146767604" lon="-102.46327150759025"><ele>1808.0</ele><time>2026-03-22T14:13:35.011Z</time></trkpt><trkpt lat="21.729056372320773" lon="-102.46314526766372"><ele>1808.0</ele><time>2026-03-22T14:13:36.011Z</time></trkpt><trkpt lat="21.728983399016006" lon="-102.46301734192286"><ele>1808.0</ele><time>2026-03-22T14:13:37.011Z</time></trkpt><trkpt lat="21.728912733270164" lon="-102.46288601741318"><ele>1808.0</ele><time>2026-03-22T14:13:38.011Z</time></trkpt><trkpt lat="21.728840416868543" lon="-102.46275496346178"><ele>1807.5</ele><time>2026-03-22T14:13:39.011Z</time></trkpt><trkpt lat="21.72876700059263" lon="-102.46261860791425"><ele>1807.0</ele><time>2026-03-22T14:13:40.011Z</time></trkpt><trkpt lat="21.728698332244935" lon="-102.46248765071546"><ele>1806.5</ele><time>2026-03-22T14:13:41.01Z</time></trkpt><trkpt lat="21.72861610988928" lon="-102.46235476523543"><ele>1806.0</ele><time>2026-03-22T14:13:42.01Z</time></trkpt><trkpt lat="21.72854313215431" lon="-102.46222169575348"><ele>1805.0</ele><time>2026-03-22T14:13:43.01Z</time></trkpt><trkpt lat="21.72847577852744" lon="-102.46209205435457"><ele>1804.0</ele><time>2026-03-22T14:13:44.01Z</time></trkpt><trkpt lat="21.728407120863995" lon="-102.46195575631072"><ele>1803.0</ele><time>2026-03-22T14:13:45.01Z</time></trkpt><trkpt lat="21.728335073923155" lon="-102.4618224154955"><ele>1802.0</ele><time>2026-03-22T14:13:46.01Z</time></trkpt><trkpt lat="21.728254616400253" lon="-102.46169257208177"><ele>1802.0</ele><time>2026-03-22T14:13:47.01Z</time></trkpt><trkpt lat="21.728184218136693" lon="-102.46155801279451"><ele>1802.0</ele><time>2026-03-22T14:13:48.01Z</time></trkpt><trkpt lat="21.72811054486149" lon="-102.46141994371148"><ele>1802.0</ele><time>2026-03-22T14:13:49.01Z</time></trkpt><trkpt lat="21.728032733577805" lon="-102.46128580885792"><ele>1802.0</ele><time>2026-03-22T14:13:50.01Z</time></trkpt><trkpt lat="21.727961706442418" lon="-102.4611501100274"><ele>1802.0</ele><time>2026-03-22T14:13:51.01Z</time></trkpt><trkpt lat="21.727889247434938" lon="-102.4610145960991"><ele>1802.0</ele><time>2026-03-22T14:13:52.01Z</time></trkpt><trkpt lat="21.727816166778037" lon="-102.46088335281449"><ele>1802.0</ele><time>2026-03-22T14:13:53.01Z</time></trkpt><trkpt lat="21.72774906372603" lon="-102.46075348553845"><ele>1802.0</ele><time>2026-03-22T14:13:54.01Z</time></trkpt><trkpt lat="21.72768421005023" lon="-102.46062119795442"><ele>1802.0</ele><time>2026-03-22T14:13:55.01Z</time></trkpt><trkpt lat="21.727620602662817" lon="-102.4604879100934"><ele>1802.0</ele><time>2026-03-22T14:13:56.01Z</time></trkpt><trkpt lat="21.727572597252035" lon="-102.46034724635545"><ele>1802.0</ele><time>2026-03-22T14:13:57.01Z</time></trkpt><trkpt lat="21.727537600486315" lon="-102.46019486074037"><ele>1802.0</ele><time>2026-03-22T14:13:58.01Z</time></trkpt><trkpt lat="21.727508216867662" lon="-102.46004281835407"><ele>1800.75</ele><time>2026-03-22T14:13:59.01Z</time></trkpt><trkpt lat="21.727499632757464" lon="-102.45988212212495"><ele>1799.5</ele><time>2026-03-22T14:14:00.01Z</time></trkpt><trkpt lat="21.727490977728067" lon="-102.45972555037343"><ele>1798.25</ele><time>2026-03-22T14:14:01.01Z</time></trkpt><trkpt lat="21.72747906440062" lon="-102.45956774203128"><ele>1797.0</ele><time>2026-03-22T14:14:02.01Z</time></trkpt><trkpt lat="21.727463579301183" lon="-102.45940117181698"><ele>1795.75</ele><time>2026-03-22T14:14:03.01Z</time></trkpt><trkpt lat="21.72744896072649" lon="-102.45924127719569"><ele>1794.5</ele><time>2026-03-22T14:14:04.01Z</time></trkpt><trkpt lat="21.727429980302063" lon="-102.45908575114827"><ele>1793.25</ele><time>2026-03-22T14:14:05.01Z</time></trkpt><trkpt lat="21.727421803590037" lon="-102.45892613611103"><ele>1792.0</ele><time>2026-03-22T14:14:06.01Z</time></trkpt><trkpt lat="21.727401419103522" lon="-102.45876838132087"><ele>1792.0</ele><time>2026-03-22T14:14:07.01Z</time></trkpt><trkpt lat="21.727388693560286" lon="-102.45860180252095"><ele>1792.0</ele><time>2026-03-22T14:14:08.01Z</time></trkpt><trkpt lat="21.727376860078493" lon="-102.45844461535374"><ele>1792.0</ele><time>2026-03-22T14:14:09.01Z</time></trkpt><trkpt lat="21.727365938047786" lon="-102.45829040029976"><ele>1792.0</ele><time>2026-03-22T14:14:10.01Z</time></trkpt><trkpt lat="21.727349195165036" lon="-102.4581384531766"><ele>1792.0</ele><time>2026-03-22T14:14:11.01Z</time></trkpt><trkpt lat="21.727333959429703" lon="-102.45799096426974"><ele>1792.0</ele><time>2026-03-22T14:14:12.01Z</time></trkpt><trkpt lat="21.72731825088841" lon="-102.45784750856386"><ele>1792.0</ele><time>2026-03-22T14:14:13.01Z</time></trkpt><trkpt lat="21.727302926052673" lon="-102.45770487571573"><ele>1792.0</ele><time>2026-03-22T14:14:14.01Z</time></trkpt><trkpt lat="21.72728819151146" lon="-102.45757126938861"><ele>1791.5</ele><time>2026-03-22T14:14:15.01Z</time></trkpt><trkpt lat="21.727277384435155" lon="-102.45743322205963"><ele>1791.0</ele><time>2026-03-22T14:14:16.01Z</time></trkpt><trkpt lat="21.727268913746137" lon="-102.4572883170303"><ele>1790.5</ele><time>2026-03-22T14:14:17.01Z</time></trkpt><trkpt lat="21.727253311570315" lon="-102.45715101851184"><ele>1790.0</ele><time>2026-03-22T14:14:18.01Z</time></trkpt><trkpt lat="21.727239759763055" lon="-102.45701103727778"><ele>1789.75</ele><time>2026-03-22T14:14:19.01Z</time></trkpt><trkpt lat="21.72723016502923" lon="-102.45687249524546"><ele>1789.5</ele><time>2026-03-22T14:14:20.01Z</time></trkpt><trkpt lat="21.7272133520136" lon="-102.45673826989481"><ele>1789.25</ele><time>2026-03-22T14:14:21.01Z</time></trkpt><trkpt lat="21.72720114245115" lon="-102.45661145404542"><ele>1789.0</ele><time>2026-03-22T14:14:22.01Z</time></trkpt><trkpt lat="21.727189994211308" lon="-102.4564811650093"><ele>1789.0</ele><time>2026-03-22T14:14:23.01Z</time></trkpt><trkpt lat="21.727176603050452" lon="-102.45635258349564"><ele>1789.0</ele><time>2026-03-22T14:14:24.01Z</time></trkpt><trkpt lat="21.72716725509236" lon="-102.45623061505476"><ele>1789.0</ele><time>2026-03-22T14:14:25.01Z</time></trkpt><trkpt lat="21.72715596483799" lon="-102.45611512557322"><ele>1789.0</ele><time>2026-03-22T14:14:26.01Z</time></trkpt><trkpt lat="21.727143176138675" lon="-102.45600346551282"><ele>1789.0</ele><time>2026-03-22T14:14:27.01Z</time></trkpt><trkpt lat="21.727136576833747" lon="-102.45589281773897"><ele>1789.8000000000002</ele><time>2026-03-22T14:14:28.01Z</time></trkpt><trkpt lat="21.72712536103498" lon="-102.45578817702317"><ele>1790.6000000000001</ele><time>2026-03-22T14:14:29.01Z</time></trkpt><trkpt lat="21.727114111288603" lon="-102.45568926326851"><ele>1791.4</ele><time>2026-03-22T14:14:30.01Z</time></trkpt><trkpt lat="21.727105907108882" lon="-102.45558860958522"><ele>1792.2</ele><time>2026-03-22T14:14:31.01Z</time></trkpt><trkpt lat="21.727099035254273" lon="-102.45549319811882"><ele>1793.0</ele><time>2026-03-22T14:14:32.01Z</time></trkpt><trkpt lat="21.72708877588944" lon="-102.45540533132436"><ele>1794.3333333333333</ele><time>2026-03-22T14:14:33.01Z</time></trkpt><trkpt lat="21.727083646526047" lon="-102.45530722611822"><ele>1795.6666666666665</ele><time>2026-03-22T14:14:34.01Z</time></trkpt><trkpt lat="21.727077809208986" lon="-102.45521620828565"><ele>1797.0</ele><time>2026-03-22T14:14:35.01Z</time></trkpt><trkpt lat="21.727069066420388" lon="-102.45512805708192"><ele>1798.3333333333335</ele><time>2026-03-22T14:14:36.01Z</time></trkpt><trkpt lat="21.727056940165507" lon="-102.45503420633898"><ele>1799.6666666666667</ele><time>2026-03-22T14:14:37.01Z</time></trkpt><trkpt lat="21.72704415189592" lon="-102.45494003867006"><ele>1801.0</ele><time>2026-03-22T14:14:38.01Z</time></trkpt><trkpt lat="21.727034818869193" lon="-102.45485155474783"><ele>1801.0000000000002</ele><time>2026-03-22T14:14:39.01Z</time></trkpt><trkpt lat="21.727030159600176" lon="-102.45476332494808"><ele>1801.0</ele><time>2026-03-22T14:14:40.01Z</time></trkpt><trkpt lat="21.72702470363299" lon="-102.45467898358397"><ele>1801.0</ele><time>2026-03-22T14:14:41.01Z</time></trkpt><trkpt lat="21.727015264141965" lon="-102.45459109974085"><ele>1801.0</ele><time>2026-03-22T14:14:42.01Z</time></trkpt><trkpt lat="21.7270043423949" lon="-102.45450643818474"><ele>1801.0000000000002</ele><time>2026-03-22T14:14:43.01Z</time></trkpt><trkpt lat="21.726996980275327" lon="-102.45442045954871"><ele>1801.0</ele><time>2026-03-22T14:14:44.01Z</time></trkpt><trkpt lat="21.72699251407428" lon="-102.45433488790121"><ele>1801.3333333333335</ele><time>2026-03-22T14:14:45.01Z</time></trkpt><trkpt lat="21.726982639839566" lon="-102.45424430977484"><ele>1801.6666666666667</ele><time>2026-03-22T14:14:46.01Z</time></trkpt><trkpt lat="21.726973931047482" lon="-102.45415774058193"><ele>1802.0</ele><time>2026-03-22T14:14:47.011Z</time></trkpt><trkpt lat="21.726967940852024" lon="-102.45406910036856"><ele>1802.3333333333335</ele><time>2026-03-22T14:14:48.01Z</time></trkpt><trkpt lat="21.726959705491563" lon="-102.4539812506857"><ele>1802.6666666666667</ele><time>2026-03-22T14:14:49.01Z</time></trkpt><trkpt lat="21.72695189592412" lon="-102.45389416775109"><ele>1803.0</ele><time>2026-03-22T14:14:50.01Z</time></trkpt><trkpt lat="21.726946728322933" lon="-102.45380703396353"><ele>1803.3333333333333</ele><time>2026-03-22T14:14:51.01Z</time></trkpt><trkpt lat="21.726937918058102" lon="-102.45372056365471"><ele>1803.6666666666665</ele><time>2026-03-22T14:14:52.01Z</time></trkpt><trkpt lat="21.726930900895642" lon="-102.45363065553822"><ele>1804.0</ele><time>2026-03-22T14:14:53.011Z</time></trkpt><trkpt lat="21.726921148529858" lon="-102.45354383342617"><ele>1804.3333333333333</ele><time>2026-03-22T14:14:54.011Z</time></trkpt><trkpt lat="21.72691137960352" lon="-102.45344639389066"><ele>1804.6666666666665</ele><time>2026-03-22T14:14:55.011Z</time></trkpt><trkpt lat="21.72690168081217" lon="-102.45335852684723"><ele>1805.0</ele><time>2026-03-22T14:14:56.011Z</time></trkpt><trkpt lat="21.726894690045615" lon="-102.4532664611001"><ele>1804.6666666666665</ele><time>2026-03-22T14:14:57.01Z</time></trkpt><trkpt lat="21.7268861900998" lon="-102.45317281866454"><ele>1804.3333333333333</ele><time>2026-03-22T14:14:58.01Z</time></trkpt><trkpt lat="21.726877524036293" lon="-102.45308065878211"><ele>1804.0</ele><time>2026-03-22T14:14:59.01Z</time></trkpt><trkpt lat="21.72686804226916" lon="-102.45298944477982"><ele>1803.6666666666665</ele><time>2026-03-22T14:15:00.01Z</time></trkpt><trkpt lat="21.726864282037276" lon="-102.4528907034861"><ele>1803.3333333333333</ele><time>2026-03-22T14:15:01.01Z</time></trkpt><trkpt lat="21.7268674255925" lon="-102.45279162120788"><ele>1803.0</ele><time>2026-03-22T14:15:02.01Z</time></trkpt><trkpt lat="21.7268777285972" lon="-102.45269725163759"><ele>1803.0</ele><time>2026-03-22T14:15:03.01Z</time></trkpt><trkpt lat="21.726893563315393" lon="-102.45259718120505"><ele>1803.0</ele><time>2026-03-22T14:15:04.01Z</time></trkpt><trkpt lat="21.7269154346595" lon="-102.45250923288874"><ele>1803.0</ele><time>2026-03-22T14:15:05.01Z</time></trkpt><trkpt lat="21.7269359216677" lon="-102.45241519529586"><ele>1803.0</ele><time>2026-03-22T14:15:06.01Z</time></trkpt><trkpt lat="21.726957847056728" lon="-102.45232643095518"><ele>1803.0</ele><time>2026-03-22T14:15:07.01Z</time></trkpt><trkpt lat="21.72698238645404" lon="-102.452242238168"><ele>1803.0</ele><time>2026-03-22T14:15:08.01Z</time></trkpt><trkpt lat="21.72702226433481" lon="-102.45215206235338"><ele>1803.8000000000002</ele><time>2026-03-22T14:15:09.01Z</time></trkpt><trkpt lat="21.727065873324758" lon="-102.4520628773349"><ele>1804.6000000000001</ele><time>2026-03-22T14:15:10.01Z</time></trkpt><trkpt lat="21.72710901817569" lon="-102.45197717118504"><ele>1805.3999999999999</ele><time>2026-03-22T14:15:11.01Z</time></trkpt><trkpt lat="21.727160246405262" lon="-102.4518947432367"><ele>1806.1999999999998</ele><time>2026-03-22T14:15:12.01Z</time></trkpt><trkpt lat="21.727213364157436" lon="-102.45181333634272"><ele>1807.0</ele><time>2026-03-22T14:15:13.01Z</time></trkpt><trkpt lat="21.727267522339584" lon="-102.45173619207962"><ele>1807.0000000000002</ele><time>2026-03-22T14:15:14.01Z</time></trkpt><trkpt lat="21.727322469598118" lon="-102.45165517737722"><ele>1807.0</ele><time>2026-03-22T14:15:15.01Z</time></trkpt><trkpt lat="21.72738204832538" lon="-102.4515839711966"><ele>1807.0</ele><time>2026-03-22T14:15:16.01Z</time></trkpt><trkpt lat="21.72744545562375" lon="-102.45151496725109"><ele>1807.0</ele><time>2026-03-22T14:15:17.01Z</time></trkpt><trkpt lat="21.727500874260166" lon="-102.45144310742451"><ele>1807.0000000000002</ele><time>2026-03-22T14:15:18.01Z</time></trkpt><trkpt lat="21.727557992776358" lon="-102.45137407832739"><ele>1807.0</ele><time>2026-03-22T14:15:19.01Z</time></trkpt><trkpt lat="21.72762148649545" lon="-102.45129158577457"><ele>1807.1999999999998</ele><time>2026-03-22T14:15:20.01Z</time></trkpt><trkpt lat="21.72768745233322" lon="-102.45120542280846"><ele>1807.3999999999999</ele><time>2026-03-22T14:15:21.01Z</time></trkpt><trkpt lat="21.727747222346736" lon="-102.45112887266414"><ele>1807.6000000000001</ele><time>2026-03-22T14:15:22.01Z</time></trkpt><trkpt lat="21.727817253834083" lon="-102.45104567989492"><ele>1807.8000000000002</ele><time>2026-03-22T14:15:23.01Z</time></trkpt><trkpt lat="21.727882216366844" lon="-102.45096404873131"><ele>1808.0</ele><time>2026-03-22T14:15:24.01Z</time></trkpt><trkpt lat="21.727935097848277" lon="-102.45089003686532"><ele>1808.0</ele><time>2026-03-22T14:15:25.01Z</time></trkpt><trkpt lat="21.72800180420225" lon="-102.45081032618958"><ele>1808.0000000000002</ele><time>2026-03-22T14:15:26.01Z</time></trkpt><trkpt lat="21.72807024967105" lon="-102.45073077518929"><ele>1808.0000000000002</ele><time>2026-03-22T14:15:27.01Z</time></trkpt><trkpt lat="21.728146187114262" lon="-102.45065165396645"><ele>1808.0</ele><time>2026-03-22T14:15:28.01Z</time></trkpt><trkpt lat="21.72821941448088" lon="-102.45057224348724"><ele>1808.0</ele><time>2026-03-22T14:15:29.01Z</time></trkpt><trkpt lat="21.728290827318776" lon="-102.45049532545951"><ele>1806.75</ele><time>2026-03-22T14:15:30.01Z</time></trkpt><trkpt lat="21.728468266007784" lon="-102.45036077681874"><ele>1805.5</ele><time>2026-03-22T14:15:32.01Z</time></trkpt><trkpt lat="21.728553313677246" lon="-102.4502996679629"><ele>1804.25</ele><time>2026-03-22T14:15:33.01Z</time></trkpt><trkpt lat="21.728650440996613" lon="-102.45025207985174"><ele>1803.0</ele><time>2026-03-22T14:15:34.01Z</time></trkpt><trkpt lat="21.72876036645972" lon="-102.45021370352299"><ele>1803.0</ele><time>2026-03-22T14:15:35.01Z</time></trkpt><trkpt lat="21.72885050617556" lon="-102.4501713885052"><ele>1803.0000000000002</ele><time>2026-03-22T14:15:36.01Z</time></trkpt><trkpt lat="21.728951290072224" lon="-102.45013043102418"><ele>1803.0000000000002</ele><time>2026-03-22T14:15:37.01Z</time></trkpt><trkpt lat="21.729065412816198" lon="-102.4500963283163"><ele>1803.0</ele><time>2026-03-22T14:15:38.01Z</time></trkpt><trkpt lat="21.729167924683377" lon="-102.4500650472964"><ele>1803.0</ele><time>2026-03-22T14:15:39.01Z</time></trkpt><trkpt lat="21.729276903172586" lon="-102.4500318578507"><ele>1803.0</ele><time>2026-03-22T14:15:40.01Z</time></trkpt><trkpt lat="21.729382492360212" lon="-102.44999655690744"><ele>1803.0000000000002</ele><time>2026-03-22T14:15:41.01Z</time></trkpt><trkpt lat="21.729486198068365" lon="-102.44996172427734"><ele>1803.0000000000002</ele><time>2026-03-22T14:15:42.01Z</time></trkpt><trkpt lat="21.729581470666005" lon="-102.4499270291214"><ele>1803.0</ele><time>2026-03-22T14:15:43.01Z</time></trkpt><trkpt lat="21.729679236097553" lon="-102.44988226301443"><ele>1803.0</ele><time>2026-03-22T14:15:44.01Z</time></trkpt><trkpt lat="21.729775276463425" lon="-102.44982236263313"><ele>1803.6000000000001</ele><time>2026-03-22T14:15:45.01Z</time></trkpt><trkpt lat="21.729861402124587" lon="-102.44975286219318"><ele>1804.2000000000003</ele><time>2026-03-22T14:15:46.01Z</time></trkpt><trkpt lat="21.729946122207068" lon="-102.44966977622978"><ele>1804.8</ele><time>2026-03-22T14:15:47.01Z</time></trkpt><trkpt lat="21.73000396591932" lon="-102.44958236368807"><ele>1805.4</ele><time>2026-03-22T14:15:48.01Z</time></trkpt><trkpt lat="21.730043990300896" lon="-102.44946132316815"><ele>1806.0</ele><time>2026-03-22T14:15:49.01Z</time></trkpt><trkpt lat="21.730062684672745" lon="-102.44934760987333"><ele>1803.25</ele><time>2026-03-22T14:15:50.01Z</time></trkpt><trkpt lat="21.730069269316832" lon="-102.44922731529934"><ele>1800.5</ele><time>2026-03-22T14:15:51.01Z</time></trkpt><trkpt lat="21.73007632706194" lon="-102.44910904351256"><ele>1797.75</ele><time>2026-03-22T14:15:52.01Z</time></trkpt><trkpt lat="21.73006870959892" lon="-102.44897909185694"><ele>1795.0</ele><time>2026-03-22T14:15:53.01Z</time></trkpt><trkpt lat="21.730064372683717" lon="-102.44885900794941"><ele>1795.25</ele><time>2026-03-22T14:15:54.01Z</time></trkpt><trkpt lat="21.730066001694848" lon="-102.44873816941339"><ele>1795.5</ele><time>2026-03-22T14:15:55.01Z</time></trkpt><trkpt lat="21.730067746033058" lon="-102.44860488021392"><ele>1795.75</ele><time>2026-03-22T14:15:56.01Z</time></trkpt><trkpt lat="21.730070598711727" lon="-102.44848216322687"><ele>1796.0</ele><time>2026-03-22T14:15:57.01Z</time></trkpt><trkpt lat="21.73007118565951" lon="-102.44836199509822"><ele>1796.0</ele><time>2026-03-22T14:15:58.01Z</time></trkpt><trkpt lat="21.730071227621725" lon="-102.44824491783712"><ele>1796.0</ele><time>2026-03-22T14:15:59.01Z</time></trkpt><trkpt lat="21.730071529208935" lon="-102.44812551391009"><ele>1796.0</ele><time>2026-03-22T14:16:00.01Z</time></trkpt><trkpt lat="21.73007133856395" lon="-102.44800179693475"><ele>1796.0</ele><time>2026-03-22T14:16:01.01Z</time></trkpt><trkpt lat="21.73007546370805" lon="-102.44788522761846"><ele>1796.0</ele><time>2026-03-22T14:16:02.01Z</time></trkpt><trkpt lat="21.7300761213472" lon="-102.44777191195601"><ele>1796.6</ele><time>2026-03-22T14:16:03.01Z</time></trkpt><trkpt lat="21.730075968821932" lon="-102.44765572275439"><ele>1797.1999999999998</ele><time>2026-03-22T14:16:04.009Z</time></trkpt><trkpt lat="21.730069628580942" lon="-102.44753554391046"><ele>1797.8000000000002</ele><time>2026-03-22T14:16:05.009Z</time></trkpt><trkpt lat="21.730067949406443" lon="-102.44742346955897"><ele>1798.4</ele><time>2026-03-22T14:16:06.009Z</time></trkpt><trkpt lat="21.730066350161426" lon="-102.44730328036778"><ele>1799.0</ele><time>2026-03-22T14:16:07.009Z</time></trkpt><trkpt lat="21.73006744576801" lon="-102.4471829655713"><ele>1798.6</ele><time>2026-03-22T14:16:08.009Z</time></trkpt><trkpt lat="21.730065357555766" lon="-102.44706774738488"><ele>1798.2</ele><time>2026-03-22T14:16:09.009Z</time></trkpt><trkpt lat="21.73006777162598" lon="-102.44694993417092"><ele>1797.7999999999997</ele><time>2026-03-22T14:16:10.009Z</time></trkpt><trkpt lat="21.730070780283096" lon="-102.44683349332793"><ele>1797.3999999999999</ele><time>2026-03-22T14:16:11.009Z</time></trkpt><trkpt lat="21.730069972471075" lon="-102.4467190237349"><ele>1797.0</ele><time>2026-03-22T14:16:12.009Z</time></trkpt><trkpt lat="21.73007464432151" lon="-102.44660068691475"><ele>1797.0</ele><time>2026-03-22T14:16:13.009Z</time></trkpt><trkpt lat="21.730076239663855" lon="-102.44648855986065"><ele>1796.9999999999998</ele><time>2026-03-22T14:16:14.009Z</time></trkpt><trkpt lat="21.73007384751599" lon="-102.4463681243737"><ele>1796.9999999999998</ele><time>2026-03-22T14:16:15.009Z</time></trkpt><trkpt lat="21.730080351162666" lon="-102.44625894072831"><ele>1797.0</ele><time>2026-03-22T14:16:16.009Z</time></trkpt><trkpt lat="21.730076082088324" lon="-102.44614490956167"><ele>1797.0</ele><time>2026-03-22T14:16:17.009Z</time></trkpt><trkpt lat="21.730073229625745" lon="-102.44602708045119"><ele>1797.8</ele><time>2026-03-22T14:16:18.009Z</time></trkpt><trkpt lat="21.730064642304608" lon="-102.44591010483263"><ele>1798.6</ele><time>2026-03-22T14:16:19.009Z</time></trkpt><trkpt lat="21.73004849911633" lon="-102.44579200923948"><ele>1799.3999999999999</ele><time>2026-03-22T14:16:20.009Z</time></trkpt><trkpt lat="21.73001540278334" lon="-102.44568064134431"><ele>1800.1999999999998</ele><time>2026-03-22T14:16:21.009Z</time></trkpt><trkpt lat="21.729965517692897" lon="-102.44557229235762"><ele>1801.0</ele><time>2026-03-22T14:16:22.009Z</time></trkpt><trkpt lat="21.72990475569209" lon="-102.44546618843674"><ele>1801.25</ele><time>2026-03-22T14:16:23.009Z</time></trkpt><trkpt lat="21.729833456577552" lon="-102.44536316100726"><ele>1801.5</ele><time>2026-03-22T14:16:24.009Z</time></trkpt><trkpt lat="21.72975854298645" lon="-102.44527741092877"><ele>1801.75</ele><time>2026-03-22T14:16:25.009Z</time></trkpt><trkpt lat="21.729682542705117" lon="-102.44519348796499"><ele>1802.0</ele><time>2026-03-22T14:16:26.009Z</time></trkpt><trkpt lat="21.729598039958326" lon="-102.44511006405683"><ele>1802.0</ele><time>2026-03-22T14:16:27.009Z</time></trkpt><trkpt lat="21.72951507837897" lon="-102.44504274703799"><ele>1801.9999999999998</ele><time>2026-03-22T14:16:28.009Z</time></trkpt><trkpt lat="21.729436423996237" lon="-102.44497332059629"><ele>1801.9999999999998</ele><time>2026-03-22T14:16:29.009Z</time></trkpt><trkpt lat="21.729369737615926" lon="-102.4449007701528"><ele>1802.0</ele><time>2026-03-22T14:16:30.009Z</time></trkpt><trkpt lat="21.72929819687445" lon="-102.44483060236796"><ele>1802.0</ele><time>2026-03-22T14:16:31.009Z</time></trkpt><trkpt lat="21.729229359916555" lon="-102.44476187218615"><ele>1802.1666666666665</ele><time>2026-03-22T14:16:32.009Z</time></trkpt><trkpt lat="21.729163234487693" lon="-102.44469727957166"><ele>1802.3333333333333</ele><time>2026-03-22T14:16:33.009Z</time></trkpt><trkpt lat="21.729098476672053" lon="-102.4446379555322"><ele>1802.5</ele><time>2026-03-22T14:16:34.009Z</time></trkpt><trkpt lat="21.729031659278707" lon="-102.44457081881613"><ele>1802.6666666666665</ele><time>2026-03-22T14:16:35.009Z</time></trkpt><trkpt lat="21.728960509093096" lon="-102.44450956338969"><ele>1802.8333333333333</ele><time>2026-03-22T14:16:36.009Z</time></trkpt><trkpt lat="21.728894850153146" lon="-102.44444551404418"><ele>1803.0</ele><time>2026-03-22T14:16:37.009Z</time></trkpt><trkpt lat="21.728825810517783" lon="-102.44438031110128"><ele>1803.0</ele><time>2026-03-22T14:16:38.009Z</time></trkpt><trkpt lat="21.72875392644421" lon="-102.44431169787303"><ele>1803.0000000000002</ele><time>2026-03-22T14:16:39.009Z</time></trkpt><trkpt lat="21.728685560253275" lon="-102.44424093157185"><ele>1803.0000000000002</ele><time>2026-03-22T14:16:40.009Z</time></trkpt><trkpt lat="21.728612148325094" lon="-102.44417614330415"><ele>1803.0</ele><time>2026-03-22T14:16:41.009Z</time></trkpt><trkpt lat="21.72854523581392" lon="-102.44410939775764"><ele>1803.0</ele><time>2026-03-22T14:16:42.009Z</time></trkpt><trkpt lat="21.72847105295697" lon="-102.44403377971695"><ele>1803.0</ele><time>2026-03-22T14:16:43.009Z</time></trkpt><trkpt lat="21.728407345338855" lon="-102.4439668701439"><ele>1803.0000000000002</ele><time>2026-03-22T14:16:44.009Z</time></trkpt><trkpt lat="21.728343445074913" lon="-102.4438964360155"><ele>1803.0000000000002</ele><time>2026-03-22T14:16:45.009Z</time></trkpt><trkpt lat="21.728286263528865" lon="-102.44381816280408"><ele>1803.0</ele><time>2026-03-22T14:16:46.009Z</time></trkpt><trkpt lat="21.728218964653998" lon="-102.44374012684264"><ele>1803.0</ele><time>2026-03-22T14:16:47.009Z</time></trkpt><trkpt lat="21.728157857810658" lon="-102.44365731662631"><ele>1803.4</ele><time>2026-03-22T14:16:48.009Z</time></trkpt><trkpt lat="21.72809984533234" lon="-102.44357713326005"><ele>1803.8000000000002</ele><time>2026-03-22T14:16:49.009Z</time></trkpt><trkpt lat="21.728040615362996" lon="-102.44349083722823"><ele>1804.2</ele><time>2026-03-22T14:16:50.011Z</time></trkpt><trkpt lat="21.72798768686003" lon="-102.44340044763955"><ele>1804.6</ele><time>2026-03-22T14:16:51.011Z</time></trkpt><trkpt lat="21.727942631017818" lon="-102.4433093415958"><ele>1805.0</ele><time>2026-03-22T14:16:52.011Z</time></trkpt><trkpt lat="21.72790179702688" lon="-102.44322207359325"><ele>1805.0</ele><time>2026-03-22T14:16:53.011Z</time></trkpt><trkpt lat="21.727866308878347" lon="-102.44312565289594"><ele>1805.0</ele><time>2026-03-22T14:16:54.01Z</time></trkpt><trkpt lat="21.727826973904634" lon="-102.44303240000535"><ele>1805.0</ele><time>2026-03-22T14:16:55.01Z</time></trkpt><trkpt lat="21.727791083967354" lon="-102.4429385915949"><ele>1805.0</ele><time>2026-03-22T14:16:56.011Z</time></trkpt><trkpt lat="21.727756095273655" lon="-102.44284462214246"><ele>1805.0</ele><time>2026-03-22T14:16:57.011Z</time></trkpt><trkpt lat="21.72772052479597" lon="-102.4427601375508"><ele>1804.9999999999998</ele><time>2026-03-22T14:16:58.011Z</time></trkpt><trkpt lat="21.727683870353715" lon="-102.44267285700742"><ele>1805.0</ele><time>2026-03-22T14:16:59.011Z</time></trkpt><trkpt lat="21.72764900177049" lon="-102.44259255327952"><ele>1805.0</ele><time>2026-03-22T14:17:00.01Z</time></trkpt><trkpt lat="21.727618643837353" lon="-102.44251189815986"><ele>1805.0</ele><time>2026-03-22T14:17:01.01Z</time></trkpt><trkpt lat="21.727586445895515" lon="-102.44244033398238"><ele>1804.9999999999998</ele><time>2026-03-22T14:17:02.011Z</time></trkpt><trkpt lat="21.727558903549294" lon="-102.44236582076087"><ele>1805.0</ele><time>2026-03-22T14:17:03.011Z</time></trkpt><trkpt lat="21.727536492903685" lon="-102.44229680794298"><ele>1805.0</ele><time>2026-03-22T14:17:04.011Z</time></trkpt><trkpt lat="21.727505780749087" lon="-102.44222701395834"><ele>1805.0</ele><time>2026-03-22T14:17:05.011Z</time></trkpt><trkpt lat="21.72747990914758" lon="-102.44216486866718"><ele>1805.0</ele><time>2026-03-22T14:17:06.011Z</time></trkpt><trkpt lat="21.727421083855276" lon="-102.44203915156078"><ele>1805.0</ele><time>2026-03-22T14:17:08.011Z</time></trkpt><trkpt lat="21.72737729140223" lon="-102.441924341066"><ele>1805.0</ele><time>2026-03-22T14:17:10.011Z</time></trkpt><trkpt lat="21.7273264245398" lon="-102.4417969139002"><ele>1806.6666666666665</ele><time>2026-03-22T14:17:12.011Z</time></trkpt><trkpt lat="21.72728676270114" lon="-102.44168296090378"><ele>1808.3333333333333</ele><time>2026-03-22T14:17:14.011Z</time></trkpt><trkpt lat="21.727237084509134" lon="-102.44156408525878"><ele>1810.0</ele><time>2026-03-22T14:17:16.011Z</time></trkpt><trkpt lat="21.727213598711266" lon="-102.44149374487326"><ele>1811.6666666666665</ele><time>2026-03-22T14:17:17.011Z</time></trkpt><trkpt lat="21.72718468092557" lon="-102.44142547994082"><ele>1813.3333333333333</ele><time>2026-03-22T14:17:18.011Z</time></trkpt><trkpt lat="21.727160305908264" lon="-102.44135560024976"><ele>1815.0</ele><time>2026-03-22T14:17:19.011Z</time></trkpt><trkpt lat="21.727120123245687" lon="-102.44122129594923"><ele>1815.6666666666667</ele><time>2026-03-22T14:17:21.011Z</time></trkpt><trkpt lat="21.72709627113703" lon="-102.44114920065427"><ele>1816.3333333333335</ele><time>2026-03-22T14:17:22.011Z</time></trkpt><trkpt lat="21.72707468605486" lon="-102.44107186110803"><ele>1817.0</ele><time>2026-03-22T14:17:23.011Z</time></trkpt><trkpt lat="21.72706195693328" lon="-102.44098913670426"><ele>1817.6666666666667</ele><time>2026-03-22T14:17:24.011Z</time></trkpt><trkpt lat="21.72704467615311" lon="-102.44090416938583"><ele>1818.3333333333335</ele><time>2026-03-22T14:17:25.011Z</time></trkpt><trkpt lat="21.72703235815016" lon="-102.44082956012267"><ele>1819.0</ele><time>2026-03-22T14:17:26.011Z</time></trkpt><trkpt lat="21.727013262190304" lon="-102.44073887836149"><ele>1819.0000000000002</ele><time>2026-03-22T14:17:27.011Z</time></trkpt><trkpt lat="21.7270019126939" lon="-102.44065164532176"><ele>1819.0</ele><time>2026-03-22T14:17:28.011Z</time></trkpt><trkpt lat="21.72699635186895" lon="-102.44057065517575"><ele>1819.0</ele><time>2026-03-22T14:17:29.011Z</time></trkpt><trkpt lat="21.726992212415727" lon="-102.44047474192136"><ele>1819.0</ele><time>2026-03-22T14:17:30.011Z</time></trkpt><trkpt lat="21.726986785113958" lon="-102.44039121563775"><ele>1819.0000000000002</ele><time>2026-03-22T14:17:31.011Z</time></trkpt><trkpt lat="21.726993141175228" lon="-102.44030205858704"><ele>1819.0</ele><time>2026-03-22T14:17:32.011Z</time></trkpt><trkpt lat="21.726990777017352" lon="-102.4402125380277"><ele>1819.0</ele><time>2026-03-22T14:17:33.011Z</time></trkpt><trkpt lat="21.72699852338087" lon="-102.44011835355485"><ele>1819.0</ele><time>2026-03-22T14:17:34.011Z</time></trkpt><trkpt lat="21.72700409282894" lon="-102.44002201682297"><ele>1819.0</ele><time>2026-03-22T14:17:35.011Z</time></trkpt><trkpt lat="21.727011305985485" lon="-102.43991885387577"><ele>1819.0</ele><time>2026-03-22T14:17:36.01Z</time></trkpt><trkpt lat="21.727016718529185" lon="-102.43982571842268"><ele>1819.0</ele><time>2026-03-22T14:17:37.01Z</time></trkpt><trkpt lat="21.72702696283565" lon="-102.43971960528381"><ele>1818.8000000000002</ele><time>2026-03-22T14:17:38.01Z</time></trkpt><trkpt lat="21.72703980120653" lon="-102.43961136260937"><ele>1818.6000000000001</ele><time>2026-03-22T14:17:39.01Z</time></trkpt><trkpt lat="21.72705308926627" lon="-102.43950785665041"><ele>1818.4</ele><time>2026-03-22T14:17:40.01Z</time></trkpt><trkpt lat="21.727058967028604" lon="-102.43939682221644"><ele>1818.2</ele><time>2026-03-22T14:17:41.01Z</time></trkpt><trkpt lat="21.72705090475264" lon="-102.43928575759033"><ele>1818.0</ele><time>2026-03-22T14:17:42.01Z</time></trkpt><trkpt lat="21.727037500650493" lon="-102.43917428792672"><ele>1818.0</ele><time>2026-03-22T14:17:43.01Z</time></trkpt><trkpt lat="21.727009006231604" lon="-102.43906282579368"><ele>1818.0000000000002</ele><time>2026-03-22T14:17:44.01Z</time></trkpt><trkpt lat="21.72696758146371" lon="-102.43895291448965"><ele>1818.0000000000002</ele><time>2026-03-22T14:17:45.01Z</time></trkpt><trkpt lat="21.72690895583123" lon="-102.43884589019981"><ele>1818.0</ele><time>2026-03-22T14:17:46.01Z</time></trkpt><trkpt lat="21.726837730480387" lon="-102.43874726895889"><ele>1818.0</ele><time>2026-03-22T14:17:47.01Z</time></trkpt><trkpt lat="21.726749947804983" lon="-102.43866575937334"><ele>1815.75</ele><time>2026-03-22T14:17:48.01Z</time></trkpt><trkpt lat="21.726650138145676" lon="-102.43859446889655"><ele>1813.5</ele><time>2026-03-22T14:17:49.01Z</time></trkpt><trkpt lat="21.726539835849614" lon="-102.438535545835"><ele>1811.25</ele><time>2026-03-22T14:17:50.01Z</time></trkpt><trkpt lat="21.726423681651735" lon="-102.43849151103666"><ele>1809.0</ele><time>2026-03-22T14:17:51.01Z</time></trkpt><trkpt lat="21.726301498454305" lon="-102.43845430414208"><ele>1809.0</ele><time>2026-03-22T14:17:52.01Z</time></trkpt><trkpt lat="21.7261757304986" lon="-102.43842803469464"><ele>1809.0</ele><time>2026-03-22T14:17:53.01Z</time></trkpt><trkpt lat="21.726051080958207" lon="-102.43840210121252"><ele>1809.0</ele><time>2026-03-22T14:17:54.01Z</time></trkpt><trkpt lat="21.72593438643084" lon="-102.43837598480228"><ele>1809.0</ele><time>2026-03-22T14:17:55.01Z</time></trkpt><trkpt lat="21.72581467249028" lon="-102.4383437557144"><ele>1807.75</ele><time>2026-03-22T14:17:56.01Z</time></trkpt><trkpt lat="21.725697101987436" lon="-102.43830865111674"><ele>1806.5</ele><time>2026-03-22T14:17:57.01Z</time></trkpt><trkpt lat="21.72557398238775" lon="-102.43827448252496"><ele>1805.25</ele><time>2026-03-22T14:17:58.01Z</time></trkpt><trkpt lat="21.725446611344466" lon="-102.43824268621054"><ele>1804.0</ele><time>2026-03-22T14:17:59.01Z</time></trkpt><trkpt lat="21.725326736081946" lon="-102.43821185806453"><ele>1804.0</ele><time>2026-03-22T14:18:00.01Z</time></trkpt><trkpt lat="21.72520671879448" lon="-102.43816040423978"><ele>1804.0</ele><time>2026-03-22T14:18:01.01Z</time></trkpt><trkpt lat="21.725101907872258" lon="-102.43808526440425"><ele>1804.0</ele><time>2026-03-22T14:18:02.01Z</time></trkpt><trkpt lat="21.725008823216466" lon="-102.43798944547261"><ele>1804.0</ele><time>2026-03-22T14:18:03.01Z</time></trkpt><trkpt lat="21.724926752723732" lon="-102.43788653486928"><ele>1804.0</ele><time>2026-03-22T14:18:04.01Z</time></trkpt><trkpt lat="21.724860815931766" lon="-102.43776771808456"><ele>1804.0</ele><time>2026-03-22T14:18:05.01Z</time></trkpt><trkpt lat="21.72481797504454" lon="-102.43763571389356"><ele>1804.0</ele><time>2026-03-22T14:18:06.01Z</time></trkpt><trkpt lat="21.72478998871319" lon="-102.43750798406434"><ele>1804.0</ele><time>2026-03-22T14:18:07.01Z</time></trkpt><trkpt lat="21.72477521134522" lon="-102.43737157478371"><ele>1804.0</ele><time>2026-03-22T14:18:08.01Z</time></trkpt><trkpt lat="21.724772184286888" lon="-102.43723606412063"><ele>1804.0</ele><time>2026-03-22T14:18:09.01Z</time></trkpt><trkpt lat="21.724774640028844" lon="-102.43710525334829"><ele>1804.0</ele><time>2026-03-22T14:18:10.01Z</time></trkpt><trkpt lat="21.7247717448904" lon="-102.43697969403601"><ele>1804.0</ele><time>2026-03-22T14:18:11.01Z</time></trkpt><trkpt lat="21.724763218396404" lon="-102.43684733366989"><ele>1804.25</ele><time>2026-03-22T14:18:12.01Z</time></trkpt><trkpt lat="21.72475881671555" lon="-102.43670976753063"><ele>1804.5</ele><time>2026-03-22T14:18:13.01Z</time></trkpt><trkpt lat="21.724750675002486" lon="-102.43657299137065"><ele>1804.75</ele><time>2026-03-22T14:18:14.01Z</time></trkpt><trkpt lat="21.724750211527212" lon="-102.43643937717145"><ele>1805.0</ele><time>2026-03-22T14:18:15.01Z</time></trkpt><trkpt lat="21.724762648030172" lon="-102.43630967963415"><ele>1803.25</ele><time>2026-03-22T14:18:16.01Z</time></trkpt><trkpt lat="21.724779048884667" lon="-102.43617820669527"><ele>1801.5</ele><time>2026-03-22T14:18:17.01Z</time></trkpt><trkpt lat="21.724805297278376" lon="-102.43604325202479"><ele>1799.75</ele><time>2026-03-22T14:18:18.01Z</time></trkpt><trkpt lat="21.724849419345187" lon="-102.43591496460891"><ele>1798.0</ele><time>2026-03-22T14:18:19.01Z</time></trkpt><trkpt lat="21.72489885095325" lon="-102.43579590035914"><ele>1798.0</ele><time>2026-03-22T14:18:20.01Z</time></trkpt><trkpt lat="21.724960016570442" lon="-102.43567418786816"><ele>1798.0</ele><time>2026-03-22T14:18:21.01Z</time></trkpt><trkpt lat="21.725039861831362" lon="-102.43556281970406"><ele>1798.0</ele><time>2026-03-22T14:18:22.01Z</time></trkpt><trkpt lat="21.725133331233685" lon="-102.43545405687587"><ele>1798.0</ele><time>2026-03-22T14:18:23.01Z</time></trkpt><trkpt lat="21.72523526464336" lon="-102.43535549448737"><ele>1796.25</ele><time>2026-03-22T14:18:24.01Z</time></trkpt><trkpt lat="21.72534754876454" lon="-102.43525955169915"><ele>1794.5</ele><time>2026-03-22T14:18:25.01Z</time></trkpt><trkpt lat="21.72546001211917" lon="-102.4351680063259"><ele>1792.75</ele><time>2026-03-22T14:18:26.01Z</time></trkpt><trkpt lat="21.725580164708624" lon="-102.4350709131715"><ele>1791.0</ele><time>2026-03-22T14:18:27.01Z</time></trkpt><trkpt lat="21.725697196065045" lon="-102.43497063380458"><ele>1791.0</ele><time>2026-03-22T14:18:28.01Z</time></trkpt><trkpt lat="21.725820369682214" lon="-102.43486656471306"><ele>1791.0</ele><time>2026-03-22T14:18:29.01Z</time></trkpt><trkpt lat="21.725940130851875" lon="-102.43476247814431"><ele>1791.0</ele><time>2026-03-22T14:18:30.01Z</time></trkpt><trkpt lat="21.726063506295542" lon="-102.43465573806463"><ele>1789.6666666666665</ele><time>2026-03-22T14:18:31.01Z</time></trkpt><trkpt lat="21.726185983756714" lon="-102.43455139205142"><ele>1788.3333333333333</ele><time>2026-03-22T14:18:32.01Z</time></trkpt><trkpt lat="21.726309095453423" lon="-102.43444775581175"><ele>1787.0</ele><time>2026-03-22T14:18:33.01Z</time></trkpt><trkpt lat="21.726426940607475" lon="-102.43434051340353"><ele>1787.0</ele><time>2026-03-22T14:18:34.01Z</time></trkpt><trkpt lat="21.72653051866577" lon="-102.43422129464467"><ele>1787.0</ele><time>2026-03-22T14:18:35.01Z</time></trkpt><trkpt lat="21.72662140510145" lon="-102.43409159301048"><ele>1787.0</ele><time>2026-03-22T14:18:36.01Z</time></trkpt><trkpt lat="21.72669102656713" lon="-102.43395053161645"><ele>1789.0</ele><time>2026-03-22T14:18:37.01Z</time></trkpt><trkpt lat="21.726735241411596" lon="-102.43379377518346"><ele>1791.0</ele><time>2026-03-22T14:18:38.01Z</time></trkpt><trkpt lat="21.72677013825688" lon="-102.43363805497866"><ele>1793.0</ele><time>2026-03-22T14:18:39.01Z</time></trkpt><trkpt lat="21.726789637351477" lon="-102.43348479226621"><ele>1795.0</ele><time>2026-03-22T14:18:40.01Z</time></trkpt><trkpt lat="21.72679435816985" lon="-102.43334565348556"><ele>1795.0</ele><time>2026-03-22T14:18:41.01Z</time></trkpt><trkpt lat="21.726787462233112" lon="-102.43319993490852"><ele>1795.0</ele><time>2026-03-22T14:18:42.01Z</time></trkpt><trkpt lat="21.72677609686707" lon="-102.43306342765618"><ele>1795.0</ele><time>2026-03-22T14:18:43.01Z</time></trkpt><trkpt lat="21.726771610604864" lon="-102.43293081559354"><ele>1795.0</ele><time>2026-03-22T14:18:44.01Z</time></trkpt><trkpt lat="21.72675385344025" lon="-102.43280109902798"><ele>1795.75</ele><time>2026-03-22T14:18:45.01Z</time></trkpt><trkpt lat="21.726724123366207" lon="-102.4326912195948"><ele>1796.5</ele><time>2026-03-22T14:18:46.01Z</time></trkpt><trkpt lat="21.726659210593617" lon="-102.4325727495938"><ele>1797.25</ele><time>2026-03-22T14:18:47.01Z</time></trkpt><trkpt lat="21.726573465328887" lon="-102.43247387986241"><ele>1798.0</ele><time>2026-03-22T14:18:48.01Z</time></trkpt><trkpt lat="21.72647669405154" lon="-102.43240874875332"><ele>1798.0</ele><time>2026-03-22T14:18:49.01Z</time></trkpt><trkpt lat="21.726355032535466" lon="-102.43237342575169"><ele>1798.0</ele><time>2026-03-22T14:18:50.01Z</time></trkpt><trkpt lat="21.72623260797846" lon="-102.43234346126037"><ele>1798.0</ele><time>2026-03-22T14:18:51.01Z</time></trkpt><trkpt lat="21.726109367359566" lon="-102.43232262466897"><ele>1798.0</ele><time>2026-03-22T14:18:52.01Z</time></trkpt><trkpt lat="21.725989683114886" lon="-102.43230559379222"><ele>1796.75</ele><time>2026-03-22T14:18:53.01Z</time></trkpt><trkpt lat="21.72587087108788" lon="-102.43228583009623"><ele>1795.5</ele><time>2026-03-22T14:18:54.01Z</time></trkpt><trkpt lat="21.7257454575727" lon="-102.43225077560805"><ele>1794.25</ele><time>2026-03-22T14:18:55.01Z</time></trkpt><trkpt lat="21.7256345345187" lon="-102.43220348351316"><ele>1793.0</ele><time>2026-03-22T14:18:56.01Z</time></trkpt><trkpt lat="21.72553443116233" lon="-102.43211966594139"><ele>1790.5</ele><time>2026-03-22T14:18:57.011Z</time></trkpt><trkpt lat="21.72545600493964" lon="-102.4320151259429"><ele>1788.0</ele><time>2026-03-22T14:18:58.011Z</time></trkpt><trkpt lat="21.7254032132479" lon="-102.43188328033897"><ele>1785.5</ele><time>2026-03-22T14:18:59.01Z</time></trkpt><trkpt lat="21.72538991603328" lon="-102.43174088722594"><ele>1783.0</ele><time>2026-03-22T14:19:00.01Z</time></trkpt><trkpt lat="21.725406598711526" lon="-102.4316018752175"><ele>1783.0</ele><time>2026-03-22T14:19:01.01Z</time></trkpt><trkpt lat="21.725444680784495" lon="-102.43146078924802"><ele>1783.0</ele><time>2026-03-22T14:19:02.011Z</time></trkpt><trkpt lat="21.7255019843485" lon="-102.43132367655578"><ele>1783.0</ele><time>2026-03-22T14:19:03.01Z</time></trkpt><trkpt lat="21.72556233850824" lon="-102.43119845037751"><ele>1783.0</ele><time>2026-03-22T14:19:04.01Z</time></trkpt><trkpt lat="21.72562337986063" lon="-102.43107700579753"><ele>1782.25</ele><time>2026-03-22T14:19:05.011Z</time></trkpt><trkpt lat="21.725689531012907" lon="-102.43094191814414"><ele>1781.5</ele><time>2026-03-22T14:19:06.011Z</time></trkpt><trkpt lat="21.72576060578548" lon="-102.43081668263547"><ele>1780.75</ele><time>2026-03-22T14:19:07.011Z</time></trkpt><trkpt lat="21.72584111988735" lon="-102.43069654627529"><ele>1780.0</ele><time>2026-03-22T14:19:08.011Z</time></trkpt><trkpt lat="21.72592836781552" lon="-102.43058584946479"><ele>1780.0</ele><time>2026-03-22T14:19:09.011Z</time></trkpt><trkpt lat="21.72602013779919" lon="-102.43048553803133"><ele>1780.0</ele><time>2026-03-22T14:19:10.011Z</time></trkpt><trkpt lat="21.72612142180364" lon="-102.43039563189718"><ele>1780.0</ele><time>2026-03-22T14:19:11.011Z</time></trkpt><trkpt lat="21.726224035303716" lon="-102.43030689196011"><ele>1780.0</ele><time>2026-03-22T14:19:12.011Z</time></trkpt><trkpt lat="21.726319182847526" lon="-102.4302316129544"><ele>1780.75</ele><time>2026-03-22T14:19:13.011Z</time></trkpt><trkpt lat="21.726407628304557" lon="-102.43015515653285"><ele>1781.5</ele><time>2026-03-22T14:19:14.011Z</time></trkpt><trkpt lat="21.72650555971291" lon="-102.43007580777163"><ele>1782.25</ele><time>2026-03-22T14:19:15.011Z</time></trkpt><trkpt lat="21.726589835995025" lon="-102.4299933323288"><ele>1783.0</ele><time>2026-03-22T14:19:16.011Z</time></trkpt><trkpt lat="21.726665966428993" lon="-102.42990583368817"><ele>1783.0</ele><time>2026-03-22T14:19:17.011Z</time></trkpt><trkpt lat="21.72672988588744" lon="-102.42982065004102"><ele>1783.0000000000002</ele><time>2026-03-22T14:19:18.011Z</time></trkpt><trkpt lat="21.726790369910592" lon="-102.42972589399817"><ele>1783.0000000000002</ele><time>2026-03-22T14:19:19.011Z</time></trkpt><trkpt lat="21.72682938202362" lon="-102.42962261329372"><ele>1783.0</ele><time>2026-03-22T14:19:20.011Z</time></trkpt><trkpt lat="21.72685513108241" lon="-102.42951275561724"><ele>1783.0</ele><time>2026-03-22T14:19:21.011Z</time></trkpt><trkpt lat="21.726871382884656" lon="-102.42941712526921"><ele>1783.6000000000001</ele><time>2026-03-22T14:19:22.011Z</time></trkpt><trkpt lat="21.72689061490903" lon="-102.4293134746397"><ele>1784.2000000000003</ele><time>2026-03-22T14:19:23.011Z</time></trkpt><trkpt lat="21.726909586203064" lon="-102.42921188594119"><ele>1784.8</ele><time>2026-03-22T14:19:24.011Z</time></trkpt><trkpt lat="21.726926053546432" lon="-102.42910907559681"><ele>1785.4</ele><time>2026-03-22T14:19:25.011Z</time></trkpt><trkpt lat="21.72693964356159" lon="-102.42900784221462"><ele>1786.0</ele><time>2026-03-22T14:19:26.011Z</time></trkpt><trkpt lat="21.726957688704786" lon="-102.42890598930148"><ele>1786.0</ele><time>2026-03-22T14:19:27.011Z</time></trkpt><trkpt lat="21.726969583062704" lon="-102.42881703974767"><ele>1786.0</ele><time>2026-03-22T14:19:33.011Z</time></trkpt><trkpt lat="21.7269802699704" lon="-102.42873440617473"><ele>1786.0</ele><time>2026-03-22T14:19:36.011Z</time></trkpt><trkpt lat="21.72701259026078" lon="-102.4285194525593"><ele>1786.0</ele><time>2026-03-22T14:19:37.011Z</time></trkpt><trkpt lat="21.727042216307932" lon="-102.42833259863649"><ele>1788.0</ele><time>2026-03-22T14:19:38.011Z</time></trkpt><trkpt lat="21.727072030772945" lon="-102.42819485876244"><ele>1790.0</ele><time>2026-03-22T14:19:39.011Z</time></trkpt><trkpt lat="21.727096001087844" lon="-102.42807647656439"><ele>1792.0</ele><time>2026-03-22T14:19:40.011Z</time></trkpt><trkpt lat="21.72712145661466" lon="-102.42797229351429"><ele>1794.0</ele><time>2026-03-22T14:19:41.011Z</time></trkpt><trkpt lat="21.72714176221603" lon="-102.42787733060528"><ele>1796.0</ele><time>2026-03-22T14:19:42.011Z</time></trkpt><trkpt lat="21.727160079860305" lon="-102.42777929498368"><ele>1797.1999999999998</ele><time>2026-03-22T14:19:43.01Z</time></trkpt><trkpt lat="21.72717844596015" lon="-102.42766743504917"><ele>1798.3999999999999</ele><time>2026-03-22T14:19:44.01Z</time></trkpt><trkpt lat="21.727206228477954" lon="-102.42756207206236"><ele>1799.6</ele><time>2026-03-22T14:19:45.01Z</time></trkpt><trkpt lat="21.727228460403918" lon="-102.427477566833"><ele>1800.8</ele><time>2026-03-22T14:19:46.01Z</time></trkpt><trkpt lat="21.72725573976235" lon="-102.42738917475815"><ele>1802.0</ele><time>2026-03-22T14:19:47.01Z</time></trkpt><trkpt lat="21.72727112218595" lon="-102.4273016218782"><ele>1802.0</ele><time>2026-03-22T14:19:48.01Z</time></trkpt><trkpt lat="21.727283224791144" lon="-102.4272162462643"><ele>1801.9999999999998</ele><time>2026-03-22T14:19:49.01Z</time></trkpt><trkpt lat="21.72730246088646" lon="-102.42713496726714"><ele>1801.9999999999998</ele><time>2026-03-22T14:19:50.01Z</time></trkpt><trkpt lat="21.727313796251487" lon="-102.42705053819425"><ele>1802.0</ele><time>2026-03-22T14:19:53.01Z</time></trkpt><trkpt lat="21.727336482284393" lon="-102.42698461374881"><ele>1802.0</ele><time>2026-03-22T14:19:55.01Z</time></trkpt><trkpt lat="21.727361949311103" lon="-102.42681531732246"><ele>1803.3333333333333</ele><time>2026-03-22T14:19:57.01Z</time></trkpt><trkpt lat="21.727381688200882" lon="-102.42670830611124"><ele>1804.6666666666665</ele><time>2026-03-22T14:19:58.01Z</time></trkpt><trkpt lat="21.727398997553337" lon="-102.4266192303214"><ele>1806.0</ele><time>2026-03-22T14:19:59.01Z</time></trkpt><trkpt lat="21.727404180479336" lon="-102.4265493770289"><ele>1807.3333333333335</ele><time>2026-03-22T14:20:00.01Z</time></trkpt><trkpt lat="21.727410369058887" lon="-102.42646506056971"><ele>1808.6666666666667</ele><time>2026-03-22T14:20:01.01Z</time></trkpt><trkpt lat="21.727423995343397" lon="-102.42639108677632"><ele>1810.0</ele><time>2026-03-22T14:20:02.01Z</time></trkpt><trkpt lat="21.72743343523826" lon="-102.42626296572973"><ele>1811.25</ele><time>2026-03-22T14:20:04.01Z</time></trkpt><trkpt lat="21.727441653664382" lon="-102.42613400535085"><ele>1812.5</ele><time>2026-03-22T14:20:06.01Z</time></trkpt><trkpt lat="21.727456710647306" lon="-102.42599249733118"><ele>1813.75</ele><time>2026-03-22T14:20:08.01Z</time></trkpt><trkpt lat="21.727454362542765" lon="-102.42587519087921"><ele>1815.0</ele><time>2026-03-22T14:20:10.01Z</time></trkpt><trkpt lat="21.72744742640238" lon="-102.42576758944206"><ele>1815.0</ele><time>2026-03-22T14:20:12.01Z</time></trkpt><trkpt lat="21.727424492988483" lon="-102.42567561264732"><ele>1815.0</ele><time>2026-03-22T14:20:15.01Z</time></trkpt><trkpt lat="21.727400263057927" lon="-102.42558397359765"><ele>1815.0</ele><time>2026-03-22T14:20:18.01Z</time></trkpt><trkpt lat="21.727378337980028" lon="-102.42551180720629"><ele>1815.0</ele><time>2026-03-22T14:20:20.01Z</time></trkpt><trkpt lat="21.727340965921783" lon="-102.42542988282104"><ele>1815.0</ele><time>2026-03-22T14:20:23.01Z</time></trkpt><trkpt lat="21.727302991921928" lon="-102.42533802644046"><ele>1815.0</ele><time>2026-03-22T14:20:26.01Z</time></trkpt><trkpt lat="21.727288473257797" lon="-102.42526904535983"><ele>1816.0</ele><time>2026-03-22T14:20:28.01Z</time></trkpt><trkpt lat="21.72724589349245" lon="-102.42521564747372"><ele>1817.0</ele><time>2026-03-22T14:20:30.01Z</time></trkpt><trkpt lat="21.727215143583987" lon="-102.42514250683247"><ele>1818.0</ele><time>2026-03-22T14:20:32.01Z</time></trkpt><trkpt lat="21.727180455091972" lon="-102.42508581636241"><ele>1819.0</ele><time>2026-03-22T14:20:33.01Z</time></trkpt><trkpt lat="21.727134670815463" lon="-102.42503489855673"><ele>1820.0</ele><time>2026-03-22T14:20:34.01Z</time></trkpt><trkpt lat="21.727087283517644" lon="-102.42498641914892"><ele>1821.0</ele><time>2026-03-22T14:20:35.01Z</time></trkpt><trkpt lat="21.72703752841841" lon="-102.42491470338875"><ele>1822.0</ele><time>2026-03-22T14:20:37.01Z</time></trkpt><trkpt lat="21.72699301569421" lon="-102.42485188049146"><ele>1822.0</ele><time>2026-03-22T14:20:40.01Z</time></trkpt><trkpt lat="21.72691293939212" lon="-102.42472785875123"><ele>1821.9999999999998</ele><time>2026-03-22T14:20:43.01Z</time></trkpt><trkpt lat="21.726841680243126" lon="-102.42465812422967"><ele>1821.9999999999998</ele><time>2026-03-22T14:20:44.01Z</time></trkpt><trkpt lat="21.726780150850377" lon="-102.42459916696225"><ele>1822.0</ele><time>2026-03-22T14:20:45.01Z</time></trkpt><trkpt lat="21.72671599891473" lon="-102.42454427569378"><ele>1822.0</ele><time>2026-03-22T14:20:46.01Z</time></trkpt><trkpt lat="21.726668253312138" lon="-102.42448911029379"><ele>1823.0000000000002</ele><time>2026-03-22T14:20:47.01Z</time></trkpt><trkpt lat="21.726617428962285" lon="-102.4244421661958"><ele>1824.0</ele><time>2026-03-22T14:20:48.01Z</time></trkpt><trkpt lat="21.726557805833842" lon="-102.42440287976115"><ele>1825.0</ele><time>2026-03-22T14:20:49.01Z</time></trkpt><trkpt lat="21.726504129707177" lon="-102.4243515509162"><ele>1826.0</ele><time>2026-03-22T14:20:50.01Z</time></trkpt><trkpt lat="21.72644705181553" lon="-102.42430101865493"><ele>1827.0000000000002</ele><time>2026-03-22T14:20:51.01Z</time></trkpt><trkpt lat="21.726392055070406" lon="-102.42425138057028"><ele>1828.0</ele><time>2026-03-22T14:20:52.01Z</time></trkpt><trkpt lat="21.726296604108587" lon="-102.42417032339284"><ele>1828.0000000000002</ele><time>2026-03-22T14:20:54.01Z</time></trkpt><trkpt lat="21.72624738713026" lon="-102.42412459871416"><ele>1828.0</ele><time>2026-03-22T14:20:55.01Z</time></trkpt><trkpt lat="21.726197285691505" lon="-102.42408204152608"><ele>1828.0</ele><time>2026-03-22T14:20:56.01Z</time></trkpt><trkpt lat="21.726104756984547" lon="-102.42399811590568"><ele>1828.0</ele><time>2026-03-22T14:20:58.01Z</time></trkpt><trkpt lat="21.72601173917536" lon="-102.42391452692601"><ele>1828.0000000000002</ele><time>2026-03-22T14:21:00.01Z</time></trkpt><trkpt lat="21.725957229134853" lon="-102.42386853656046"><ele>1828.0</ele><time>2026-03-22T14:21:01.01Z</time></trkpt><trkpt lat="21.725858694965137" lon="-102.42377936982669"><ele>1828.75</ele><time>2026-03-22T14:21:03.01Z</time></trkpt><trkpt lat="21.725774303485224" lon="-102.42370124173351"><ele>1829.5</ele><time>2026-03-22T14:21:05.01Z</time></trkpt><trkpt lat="21.72567974649553" lon="-102.42361932050032"><ele>1830.25</ele><time>2026-03-22T14:21:07.011Z</time></trkpt><trkpt lat="21.725581318161673" lon="-102.42352792426152"><ele>1831.0</ele><time>2026-03-22T14:21:09.01Z</time></trkpt><trkpt lat="21.725477295695484" lon="-102.42343387569782"><ele>1831.0</ele><time>2026-03-22T14:21:11.01Z</time></trkpt><trkpt lat="21.725427368726034" lon="-102.4233922060439"><ele>1830.9999999999998</ele><time>2026-03-22T14:21:12.01Z</time></trkpt><trkpt lat="21.72537213382982" lon="-102.42334116400065"><ele>1831.0</ele><time>2026-03-22T14:21:13.01Z</time></trkpt><trkpt lat="21.7253174486118" lon="-102.42329108534942"><ele>1831.0</ele><time>2026-03-22T14:21:14.01Z</time></trkpt><trkpt lat="21.72526969221491" lon="-102.4232426202835"><ele>1830.9999999999998</ele><time>2026-03-22T14:21:15.011Z</time></trkpt><trkpt lat="21.725209463390996" lon="-102.42319317053331"><ele>1831.0</ele><time>2026-03-22T14:21:16.011Z</time></trkpt><trkpt lat="21.725153172929097" lon="-102.42314656308737"><ele>1831.0</ele><time>2026-03-22T14:21:17.011Z</time></trkpt><trkpt lat="21.725085123544176" lon="-102.42309035111667"><ele>1831.1666666666667</ele><time>2026-03-22T14:21:18.01Z</time></trkpt><trkpt lat="21.72502650261531" lon="-102.42303852536372"><ele>1831.3333333333335</ele><time>2026-03-22T14:21:19.01Z</time></trkpt><trkpt lat="21.724965434482545" lon="-102.42298193731553"><ele>1831.5</ele><time>2026-03-22T14:21:20.01Z</time></trkpt><trkpt lat="21.724896133407814" lon="-102.42292653294905"><ele>1831.6666666666665</ele><time>2026-03-22T14:21:21.01Z</time></trkpt><trkpt lat="21.724827608663066" lon="-102.42286490816416"><ele>1831.8333333333333</ele><time>2026-03-22T14:21:22.01Z</time></trkpt><trkpt lat="21.724753158456924" lon="-102.42280619138467"><ele>1832.0</ele><time>2026-03-22T14:21:23.01Z</time></trkpt><trkpt lat="21.724686802832412" lon="-102.42274518816217"><ele>1832.0</ele><time>2026-03-22T14:21:24.01Z</time></trkpt><trkpt lat="21.72461910613064" lon="-102.42268483821535"><ele>1831.9999999999998</ele><time>2026-03-22T14:21:25.01Z</time></trkpt><trkpt lat="21.724554939878615" lon="-102.42261418699327"><ele>1831.9999999999998</ele><time>2026-03-22T14:21:26.01Z</time></trkpt><trkpt lat="21.724487009901278" lon="-102.42254676319627"><ele>1832.0</ele><time>2026-03-22T14:21:27.01Z</time></trkpt><trkpt lat="21.72441769456649" lon="-102.42248273072"><ele>1832.0</ele><time>2026-03-22T14:21:28.01Z</time></trkpt><trkpt lat="21.724348517535724" lon="-102.42241854233427"><ele>1832.0</ele><time>2026-03-22T14:21:29.01Z</time></trkpt><trkpt lat="21.724273027999917" lon="-102.42235287143609"><ele>1831.9999999999998</ele><time>2026-03-22T14:21:30.01Z</time></trkpt><trkpt lat="21.724201202404217" lon="-102.42228836343266"><ele>1831.9999999999998</ele><time>2026-03-22T14:21:31.01Z</time></trkpt><trkpt lat="21.724127222476707" lon="-102.42222196374445"><ele>1832.0</ele><time>2026-03-22T14:21:32.01Z</time></trkpt><trkpt lat="21.724051046656395" lon="-102.42215237165881"><ele>1832.0</ele><time>2026-03-22T14:21:33.01Z</time></trkpt><trkpt lat="21.723973546730964" lon="-102.42209249047607"><ele>1831.6</ele><time>2026-03-22T14:21:34.01Z</time></trkpt><trkpt lat="21.723892537778184" lon="-102.4220189902216"><ele>1831.1999999999998</ele><time>2026-03-22T14:21:35.01Z</time></trkpt><trkpt lat="21.723808910837505" lon="-102.42194740215389"><ele>1830.8</ele><time>2026-03-22T14:21:36.01Z</time></trkpt><trkpt lat="21.723730835168524" lon="-102.42187301350063"><ele>1830.4</ele><time>2026-03-22T14:21:37.01Z</time></trkpt><trkpt lat="21.723643996477858" lon="-102.42179866919959"><ele>1830.0</ele><time>2026-03-22T14:21:38.01Z</time></trkpt><trkpt lat="21.723562336101928" lon="-102.42172129440007"><ele>1830.0</ele><time>2026-03-22T14:21:39.01Z</time></trkpt><trkpt lat="21.723478895489333" lon="-102.42163991698168"><ele>1830.0</ele><time>2026-03-22T14:21:40.01Z</time></trkpt><trkpt lat="21.723391922748657" lon="-102.42155691112036"><ele>1830.0</ele><time>2026-03-22T14:21:41.01Z</time></trkpt><trkpt lat="21.723313244470223" lon="-102.42148320095914"><ele>1830.0</ele><time>2026-03-22T14:21:42.01Z</time></trkpt><trkpt lat="21.723231165959774" lon="-102.42140460492799"><ele>1830.0</ele><time>2026-03-22T14:21:43.01Z</time></trkpt><trkpt lat="21.72314822916306" lon="-102.42132425742913"><ele>1829.0</ele><time>2026-03-22T14:21:44.01Z</time></trkpt><trkpt lat="21.723066034088543" lon="-102.42123751074934"><ele>1828.0</ele><time>2026-03-22T14:21:45.01Z</time></trkpt><trkpt lat="21.72298221388593" lon="-102.42115592566415"><ele>1827.0</ele><time>2026-03-22T14:21:46.01Z</time></trkpt><trkpt lat="21.72289797324657" lon="-102.42106799638864"><ele>1826.0</ele><time>2026-03-22T14:21:47.01Z</time></trkpt><trkpt lat="21.722817042430147" lon="-102.42097488894201"><ele>1826.0</ele><time>2026-03-22T14:21:48.01Z</time></trkpt><trkpt lat="21.72274223659609" lon="-102.42087653781635"><ele>1826.0</ele><time>2026-03-22T14:21:49.01Z</time></trkpt><trkpt lat="21.722670002504213" lon="-102.42077485084647"><ele>1826.0</ele><time>2026-03-22T14:21:50.01Z</time></trkpt><trkpt lat="21.722601288715012" lon="-102.42066723073046"><ele>1826.0</ele><time>2026-03-22T14:21:51.01Z</time></trkpt><trkpt lat="21.722537497907823" lon="-102.4205565875368"><ele>1824.75</ele><time>2026-03-22T14:21:52.01Z</time></trkpt><trkpt lat="21.722482127841353" lon="-102.42043238919099"><ele>1823.5</ele><time>2026-03-22T14:21:53.01Z</time></trkpt><trkpt lat="21.722429241920743" lon="-102.42031019328826"><ele>1822.25</ele><time>2026-03-22T14:21:54.01Z</time></trkpt><trkpt lat="21.72238310327896" lon="-102.42018753527618"><ele>1821.0</ele><time>2026-03-22T14:21:55.01Z</time></trkpt><trkpt lat="21.72233985663289" lon="-102.42005786768217"><ele>1821.0</ele><time>2026-03-22T14:21:56.01Z</time></trkpt><trkpt lat="21.722303691071843" lon="-102.41992557933587"><ele>1821.0</ele><time>2026-03-22T14:21:57.01Z</time></trkpt><trkpt lat="21.72227063119727" lon="-102.41979097446051"><ele>1821.0</ele><time>2026-03-22T14:21:58.01Z</time></trkpt><trkpt lat="21.72225005048" lon="-102.41964735650473"><ele>1821.0</ele><time>2026-03-22T14:21:59.01Z</time></trkpt><trkpt lat="21.72222429122629" lon="-102.4195150545511"><ele>1820.0</ele><time>2026-03-22T14:22:00.01Z</time></trkpt><trkpt lat="21.722209055962335" lon="-102.4193720222946"><ele>1819.0</ele><time>2026-03-22T14:22:01.01Z</time></trkpt><trkpt lat="21.72220283104909" lon="-102.41922006175714"><ele>1818.0</ele><time>2026-03-22T14:22:02.01Z</time></trkpt><trkpt lat="21.722196318065347" lon="-102.41907509582404"><ele>1817.0</ele><time>2026-03-22T14:22:03.01Z</time></trkpt><trkpt lat="21.72219189057366" lon="-102.41892741558868"><ele>1816.0</ele><time>2026-03-22T14:22:04.01Z</time></trkpt><trkpt lat="21.72217826830093" lon="-102.4187781624445"><ele>1815.0</ele><time>2026-03-22T14:22:05.01Z</time></trkpt><trkpt lat="21.72217087419968" lon="-102.41862363698422"><ele>1814.0</ele><time>2026-03-22T14:22:06.01Z</time></trkpt><trkpt lat="21.722164357649802" lon="-102.41846971214672"><ele>1813.0</ele><time>2026-03-22T14:22:07.01Z</time></trkpt><trkpt lat="21.722156732445487" lon="-102.41830862244085"><ele>1813.0</ele><time>2026-03-22T14:22:08.01Z</time></trkpt><trkpt lat="21.722147088820257" lon="-102.41814048661227"><ele>1813.0</ele><time>2026-03-22T14:22:09.01Z</time></trkpt><trkpt lat="21.72213892169324" lon="-102.4179727967175"><ele>1813.0</ele><time>2026-03-22T14:22:10.01Z</time></trkpt><trkpt lat="21.72212960249014" lon="-102.41780264789193"><ele>1811.3333333333335</ele><time>2026-03-22T14:22:11.01Z</time></trkpt><trkpt lat="21.722112671860426" lon="-102.41763701327882"><ele>1809.6666666666665</ele><time>2026-03-22T14:22:12.01Z</time></trkpt><trkpt lat="21.722106193301535" lon="-102.41746650541299"><ele>1808.0</ele><time>2026-03-22T14:22:13.01Z</time></trkpt><trkpt lat="21.72209613151673" lon="-102.4172927703823"><ele>1805.0</ele><time>2026-03-22T14:22:14.01Z</time></trkpt><trkpt lat="21.722092137733288" lon="-102.41711094382178"><ele>1802.0</ele><time>2026-03-22T14:22:15.01Z</time></trkpt><trkpt lat="21.72208160375645" lon="-102.41694440681795"><ele>1799.0</ele><time>2026-03-22T14:22:16.01Z</time></trkpt><trkpt lat="21.722066615593683" lon="-102.4167640348427"><ele>1799.0</ele><time>2026-03-22T14:22:17.01Z</time></trkpt><trkpt lat="21.722054500657347" lon="-102.41658655502177"><ele>1799.0</ele><time>2026-03-22T14:22:18.01Z</time></trkpt><trkpt lat="21.722039102566423" lon="-102.41641607855156"><ele>1799.0</ele><time>2026-03-22T14:22:19.01Z</time></trkpt><trkpt lat="21.72202334207205" lon="-102.41624380375261"><ele>1799.3333333333333</ele><time>2026-03-22T14:22:20.01Z</time></trkpt><trkpt lat="21.722006703085434" lon="-102.41607694981401"><ele>1799.6666666666665</ele><time>2026-03-22T14:22:21.01Z</time></trkpt><trkpt lat="21.721999514988248" lon="-102.4159059091184"><ele>1800.0</ele><time>2026-03-22T14:22:22.01Z</time></trkpt><trkpt lat="21.721990022346283" lon="-102.41573790407341"><ele>1800.0</ele><time>2026-03-22T14:22:23.01Z</time></trkpt><trkpt lat="21.721979532291847" lon="-102.41557031722895"><ele>1800.0</ele><time>2026-03-22T14:22:24.01Z</time></trkpt><trkpt lat="21.721967787893256" lon="-102.4154136308931"><ele>1800.0</ele><time>2026-03-22T14:22:25.01Z</time></trkpt><trkpt lat="21.721962579324508" lon="-102.41525738888254"><ele>1800.0</ele><time>2026-03-22T14:22:26.01Z</time></trkpt><trkpt lat="21.721952031989012" lon="-102.41511233605807"><ele>1801.5</ele><time>2026-03-22T14:22:27.01Z</time></trkpt><trkpt lat="21.721939313565933" lon="-102.4149739873043"><ele>1803.0</ele><time>2026-03-22T14:22:28.01Z</time></trkpt><trkpt lat="21.721922710944828" lon="-102.41483661518895"><ele>1804.5</ele><time>2026-03-22T14:22:29.01Z</time></trkpt><trkpt lat="21.721910579074542" lon="-102.41470302015826"><ele>1806.0</ele><time>2026-03-22T14:22:30.01Z</time></trkpt><trkpt lat="21.721900080112885" lon="-102.4145807486882"><ele>1806.0</ele><time>2026-03-22T14:22:31.01Z</time></trkpt><trkpt lat="21.72189737614888" lon="-102.41445685730841"><ele>1806.0</ele><time>2026-03-22T14:22:32.01Z</time></trkpt><trkpt lat="21.721895589707202" lon="-102.41432985079422"><ele>1806.0</ele><time>2026-03-22T14:22:33.01Z</time></trkpt><trkpt lat="21.721889127520463" lon="-102.41420134571739"><ele>1806.0</ele><time>2026-03-22T14:22:34.01Z</time></trkpt><trkpt lat="21.721873919876266" lon="-102.41408451436546"><ele>1806.0</ele><time>2026-03-22T14:22:35.01Z</time></trkpt><trkpt lat="21.72186404378127" lon="-102.41395765122883"><ele>1806.0</ele><time>2026-03-22T14:22:36.01Z</time></trkpt><trkpt lat="21.721853299837605" lon="-102.41383455807434"><ele>1806.0</ele><time>2026-03-22T14:22:37.01Z</time></trkpt><trkpt lat="21.72184800417623" lon="-102.41371296100142"><ele>1806.0</ele><time>2026-03-22T14:22:38.01Z</time></trkpt><trkpt lat="21.721841848018133" lon="-102.41359719182311"><ele>1806.1999999999998</ele><time>2026-03-22T14:22:39.009Z</time></trkpt><trkpt lat="21.721835310745345" lon="-102.41348614423394"><ele>1806.3999999999999</ele><time>2026-03-22T14:22:40.009Z</time></trkpt><trkpt lat="21.721826891601197" lon="-102.41339419809115"><ele>1806.6</ele><time>2026-03-22T14:22:41.009Z</time></trkpt><trkpt lat="21.72181060558018" lon="-102.41329592517783"><ele>1806.8</ele><time>2026-03-22T14:22:42.009Z</time></trkpt><trkpt lat="21.721793904109006" lon="-102.4132021744242"><ele>1807.0</ele><time>2026-03-22T14:22:43.009Z</time></trkpt><trkpt lat="21.721774747305684" lon="-102.41310912122555"><ele>1807.0000000000002</ele><time>2026-03-22T14:22:44.009Z</time></trkpt><trkpt lat="21.721749849573417" lon="-102.4130146088921"><ele>1807.0</ele><time>2026-03-22T14:22:45.009Z</time></trkpt><trkpt lat="21.721733236629397" lon="-102.41292946006027"><ele>1807.0</ele><time>2026-03-22T14:22:46.009Z</time></trkpt><trkpt lat="21.721733289189157" lon="-102.4128408713001"><ele>1807.0</ele><time>2026-03-22T14:22:47.009Z</time></trkpt><trkpt lat="21.721754033995158" lon="-102.41276025167208"><ele>1807.0000000000002</ele><time>2026-03-22T14:22:48.009Z</time></trkpt><trkpt lat="21.72185529557292" lon="-102.41270408629791"><ele>1807.0</ele><time>2026-03-22T14:22:50.009Z</time></trkpt><trkpt lat="21.72192408673955" lon="-102.41270993486975"><ele>1807.1666666666667</ele><time>2026-03-22T14:22:51.009Z</time></trkpt><trkpt lat="21.722033484566" lon="-102.41273102936748"><ele>1807.3333333333335</ele><time>2026-03-22T14:22:53.009Z</time></trkpt><trkpt lat="21.72214459078626" lon="-102.41273616123172"><ele>1807.5</ele><time>2026-03-22T14:22:55.009Z</time></trkpt><trkpt lat="21.72221486467941" lon="-102.41274292395724"><ele>1807.6666666666665</ele><time>2026-03-22T14:22:56.009Z</time></trkpt><trkpt lat="21.722284899727235" lon="-102.41275041491946"><ele>1807.8333333333333</ele><time>2026-03-22T14:22:57.009Z</time></trkpt><trkpt lat="21.722354145369753" lon="-102.41276175753069"><ele>1808.0</ele><time>2026-03-22T14:22:58.009Z</time></trkpt><trkpt lat="21.722426713814404" lon="-102.41276599987809"><ele>1807.9999999999998</ele><time>2026-03-22T14:22:59.009Z</time></trkpt><trkpt lat="21.72250997449344" lon="-102.41276189115996"><ele>1808.0</ele><time>2026-03-22T14:23:00.009Z</time></trkpt><trkpt lat="21.722602083733335" lon="-102.41276850784084"><ele>1808.0</ele><time>2026-03-22T14:23:01.009Z</time></trkpt><trkpt lat="21.722686443323486" lon="-102.41278283339183"><ele>1808.0</ele><time>2026-03-22T14:23:02.009Z</time></trkpt><trkpt lat="21.7227729965033" lon="-102.41280128666827"><ele>1807.9999999999998</ele><time>2026-03-22T14:23:03.009Z</time></trkpt><trkpt lat="21.722859305010953" lon="-102.41281881717379"><ele>1808.0</ele><time>2026-03-22T14:23:04.009Z</time></trkpt><trkpt lat="21.722940134518314" lon="-102.41285407343088"><ele>1808.0</ele><time>2026-03-22T14:23:05.009Z</time></trkpt><trkpt lat="21.72303457862477" lon="-102.41287290450161"><ele>1808.0000000000002</ele><time>2026-03-22T14:23:06.009Z</time></trkpt><trkpt lat="21.723118729410977" lon="-102.41289173598939"><ele>1808.0000000000002</ele><time>2026-03-22T14:23:07.01Z</time></trkpt><trkpt lat="21.723208994256634" lon="-102.41291521092526"><ele>1808.0</ele><time>2026-03-22T14:23:08.01Z</time></trkpt><trkpt lat="21.723297664617554" lon="-102.41293333580958"><ele>1808.0</ele><time>2026-03-22T14:23:09.01Z</time></trkpt><trkpt lat="21.723389795243943" lon="-102.41295528445471"><ele>1808.0</ele><time>2026-03-22T14:23:10.01Z</time></trkpt><trkpt lat="21.723479274858622" lon="-102.41298295684587"><ele>1808.0000000000002</ele><time>2026-03-22T14:23:11.011Z</time></trkpt><trkpt lat="21.72357596783201" lon="-102.41299968040471"><ele>1808.0000000000002</ele><time>2026-03-22T14:23:12.011Z</time></trkpt><trkpt lat="21.723666714630834" lon="-102.41301678332928"><ele>1808.0</ele><time>2026-03-22T14:23:13.011Z</time></trkpt><trkpt lat="21.723756924418293" lon="-102.413041676604"><ele>1808.0</ele><time>2026-03-22T14:23:14.01Z</time></trkpt><trkpt lat="21.72384903446619" lon="-102.41306445039075"><ele>1808.6000000000001</ele><time>2026-03-22T14:23:15.01Z</time></trkpt><trkpt lat="21.72394429308395" lon="-102.41308323090273"><ele>1809.2000000000003</ele><time>2026-03-22T14:23:16.01Z</time></trkpt><trkpt lat="21.72403956955696" lon="-102.41310292332577"><ele>1809.8</ele><time>2026-03-22T14:23:17.01Z</time></trkpt><trkpt lat="21.72413438313619" lon="-102.4131242319545"><ele>1810.4</ele><time>2026-03-22T14:23:18.01Z</time></trkpt><trkpt lat="21.724232212695135" lon="-102.41315161516776"><ele>1811.0</ele><time>2026-03-22T14:23:19.011Z</time></trkpt><trkpt lat="21.72432098018254" lon="-102.41316999280663"><ele>1811.8</ele><time>2026-03-22T14:23:20.011Z</time></trkpt><trkpt lat="21.724414106548235" lon="-102.41318898439752"><ele>1812.6</ele><time>2026-03-22T14:23:21.011Z</time></trkpt><trkpt lat="21.724510607575684" lon="-102.41320479014632"><ele>1813.4</ele><time>2026-03-22T14:23:22.011Z</time></trkpt><trkpt lat="21.72459221187797" lon="-102.4132219165184"><ele>1814.2</ele><time>2026-03-22T14:23:23.011Z</time></trkpt><trkpt lat="21.72468534986875" lon="-102.41324390299292"><ele>1815.0</ele><time>2026-03-22T14:23:24.011Z</time></trkpt><trkpt lat="21.72477193752141" lon="-102.4132599811957"><ele>1815.0</ele><time>2026-03-22T14:23:25.011Z</time></trkpt><trkpt lat="21.724858338540365" lon="-102.41327687587822"><ele>1815.0</ele><time>2026-03-22T14:23:26.011Z</time></trkpt><trkpt lat="21.724941068547775" lon="-102.4132970694591"><ele>1815.0</ele><time>2026-03-22T14:23:27.011Z</time></trkpt><trkpt lat="21.725022476311178" lon="-102.41331494632566"><ele>1815.0</ele><time>2026-03-22T14:23:28.011Z</time></trkpt><trkpt lat="21.725103399756847" lon="-102.41333495350847"><ele>1815.0</ele><time>2026-03-22T14:23:29.011Z</time></trkpt><trkpt lat="21.72518694140009" lon="-102.41335590627487"><ele>1815.0</ele><time>2026-03-22T14:23:30.011Z</time></trkpt><trkpt lat="21.725275776094485" lon="-102.41337492248053"><ele>1815.0</ele><time>2026-03-22T14:23:31.011Z</time></trkpt><trkpt lat="21.725362273218263" lon="-102.41339581080642"><ele>1815.0</ele><time>2026-03-22T14:23:32.011Z</time></trkpt><trkpt lat="21.72545009488647" lon="-102.41341471654322"><ele>1815.0</ele><time>2026-03-22T14:23:33.011Z</time></trkpt><trkpt lat="21.725542616716506" lon="-102.41343713809262"><ele>1815.0</ele><time>2026-03-22T14:23:34.011Z</time></trkpt><trkpt lat="21.725623270589708" lon="-102.41344585203053"><ele>1815.0</ele><time>2026-03-22T14:23:35.011Z</time></trkpt><trkpt lat="21.72570558410445" lon="-102.41346821060918"><ele>1815.0</ele><time>2026-03-22T14:23:36.011Z</time></trkpt><trkpt lat="21.725787639320743" lon="-102.41348673410447"><ele>1815.0</ele><time>2026-03-22T14:23:37.011Z</time></trkpt><trkpt lat="21.725868255957234" lon="-102.41350242647252"><ele>1815.0</ele><time>2026-03-22T14:23:38.011Z</time></trkpt><trkpt lat="21.725949468820065" lon="-102.41352255737624"><ele>1815.0</ele><time>2026-03-22T14:23:39.011Z</time></trkpt><trkpt lat="21.72604371779207" lon="-102.4135437305388"><ele>1815.0</ele><time>2026-03-22T14:23:40.011Z</time></trkpt><trkpt lat="21.726130680302067" lon="-102.4135651951817"><ele>1815.0</ele><time>2026-03-22T14:23:41.011Z</time></trkpt><trkpt lat="21.726210418420685" lon="-102.41358410010817"><ele>1815.0</ele><time>2026-03-22T14:23:42.011Z</time></trkpt><trkpt lat="21.726293873689173" lon="-102.41360376099439"><ele>1815.0</ele><time>2026-03-22T14:23:43.011Z</time></trkpt><trkpt lat="21.726385669018907" lon="-102.41362483029481"><ele>1815.0</ele><time>2026-03-22T14:23:44.011Z</time></trkpt><trkpt lat="21.726473974856773" lon="-102.41364010419376"><ele>1815.0</ele><time>2026-03-22T14:23:45.011Z</time></trkpt><trkpt lat="21.726559458928104" lon="-102.41365354682569"><ele>1815.0</ele><time>2026-03-22T14:23:46.011Z</time></trkpt><trkpt lat="21.726650137694666" lon="-102.41366847325584"><ele>1815.0</ele><time>2026-03-22T14:23:47.011Z</time></trkpt><trkpt lat="21.72674874776892" lon="-102.41368141523002"><ele>1815.0</ele><time>2026-03-22T14:23:48.011Z</time></trkpt><trkpt lat="21.72684707380699" lon="-102.41369023410815"><ele>1815.0</ele><time>2026-03-22T14:23:49.011Z</time></trkpt><trkpt lat="21.726946305436982" lon="-102.41369623068752"><ele>1815.0</ele><time>2026-03-22T14:23:50.01Z</time></trkpt><trkpt lat="21.727043383730326" lon="-102.4136996989462"><ele>1815.0</ele><time>2026-03-22T14:23:51.01Z</time></trkpt><trkpt lat="21.727157375038033" lon="-102.41370135703431"><ele>1815.0</ele><time>2026-03-22T14:23:52.01Z</time></trkpt><trkpt lat="21.727242521553755" lon="-102.41370060961705"><ele>1815.0</ele><time>2026-03-22T14:23:53.01Z</time></trkpt><trkpt lat="21.727339073746798" lon="-102.41371231922477"><ele>1815.0</ele><time>2026-03-22T14:23:54.01Z</time></trkpt><trkpt lat="21.727432082770274" lon="-102.41370848374822"><ele>1815.0</ele><time>2026-03-22T14:23:55.01Z</time></trkpt><trkpt lat="21.727537322788056" lon="-102.41370655447686"><ele>1815.0</ele><time>2026-03-22T14:23:56.01Z</time></trkpt><trkpt lat="21.727629177092414" lon="-102.41370763350147"><ele>1815.0</ele><time>2026-03-22T14:23:57.01Z</time></trkpt><trkpt lat="21.727738271356206" lon="-102.41371420659529"><ele>1815.0</ele><time>2026-03-22T14:23:58.01Z</time></trkpt><trkpt lat="21.727836789517834" lon="-102.41371070404536"><ele>1815.0</ele><time>2026-03-22T14:23:59.01Z</time></trkpt><trkpt lat="21.727942957724963" lon="-102.41371689783983"><ele>1815.0</ele><time>2026-03-22T14:24:00.01Z</time></trkpt><trkpt lat="21.72805908934148" lon="-102.41371516091381"><ele>1815.0</ele><time>2026-03-22T14:24:01.01Z</time></trkpt><trkpt lat="21.72816924318021" lon="-102.41372057032434"><ele>1815.0</ele><time>2026-03-22T14:24:02.01Z</time></trkpt><trkpt lat="21.72826686503424" lon="-102.41372212334998"><ele>1815.0</ele><time>2026-03-22T14:24:03.01Z</time></trkpt><trkpt lat="21.72837234626128" lon="-102.41372442191523"><ele>1815.0</ele><time>2026-03-22T14:24:04.01Z</time></trkpt><trkpt lat="21.72848003478462" lon="-102.41372844370754"><ele>1815.0</ele><time>2026-03-22T14:24:05.01Z</time></trkpt><trkpt lat="21.728591435843946" lon="-102.41373251101513"><ele>1815.0</ele><time>2026-03-22T14:24:06.01Z</time></trkpt><trkpt lat="21.728696179793758" lon="-102.41373017501125"><ele>1815.0</ele><time>2026-03-22T14:24:07.01Z</time></trkpt><trkpt lat="21.72880470260586" lon="-102.41373173861595"><ele>1815.6</ele><time>2026-03-22T14:24:08.01Z</time></trkpt><trkpt lat="21.728910429477086" lon="-102.41373381243325"><ele>1816.2</ele><time>2026-03-22T14:24:09.01Z</time></trkpt><trkpt lat="21.729021010119784" lon="-102.41373499515144"><ele>1816.8000000000002</ele><time>2026-03-22T14:24:10.01Z</time></trkpt><trkpt lat="21.72911867160214" lon="-102.41374563026923"><ele>1817.4</ele><time>2026-03-22T14:24:11.01Z</time></trkpt><trkpt lat="21.729224293218792" lon="-102.41374445682256"><ele>1818.0</ele><time>2026-03-22T14:24:12.01Z</time></trkpt><trkpt lat="21.729329837577872" lon="-102.41374659858094"><ele>1818.2</ele><time>2026-03-22T14:24:13.01Z</time></trkpt><trkpt lat="21.729427005344583" lon="-102.41374878887736"><ele>1818.4</ele><time>2026-03-22T14:24:14.01Z</time></trkpt><trkpt lat="21.72953534960007" lon="-102.41375187991365"><ele>1818.6000000000001</ele><time>2026-03-22T14:24:15.01Z</time></trkpt><trkpt lat="21.729643844990875" lon="-102.413753499574"><ele>1818.8000000000002</ele><time>2026-03-22T14:24:16.01Z</time></trkpt><trkpt lat="21.729744359884823" lon="-102.41376008574488"><ele>1819.0</ele><time>2026-03-22T14:24:17.01Z</time></trkpt><trkpt lat="21.72985638010418" lon="-102.41375199953943"><ele>1819.0</ele><time>2026-03-22T14:24:18.01Z</time></trkpt><trkpt lat="21.729962733410243" lon="-102.4137586005244"><ele>1819.0</ele><time>2026-03-22T14:24:19.01Z</time></trkpt><trkpt lat="21.730066962253577" lon="-102.41375594625737"><ele>1819.0</ele><time>2026-03-22T14:24:20.01Z</time></trkpt><trkpt lat="21.73017307797738" lon="-102.41375888282391"><ele>1819.0</ele><time>2026-03-22T14:24:21.01Z</time></trkpt><trkpt lat="21.730284562206236" lon="-102.41375891578213"><ele>1819.0</ele><time>2026-03-22T14:24:22.01Z</time></trkpt><trkpt lat="21.73038675889082" lon="-102.41376160638042"><ele>1819.0</ele><time>2026-03-22T14:24:23.01Z</time></trkpt><trkpt lat="21.730485142342083" lon="-102.41376624484023"><ele>1819.0</ele><time>2026-03-22T14:24:24.01Z</time></trkpt><trkpt lat="21.73059062864316" lon="-102.41376825101167"><ele>1819.0</ele><time>2026-03-22T14:24:25.01Z</time></trkpt><trkpt lat="21.730694402486755" lon="-102.4137637015649"><ele>1819.0</ele><time>2026-03-22T14:24:26.01Z</time></trkpt><trkpt lat="21.73079534395353" lon="-102.41376603212325"><ele>1819.0</ele><time>2026-03-22T14:24:27.01Z</time></trkpt><trkpt lat="21.730893134931968" lon="-102.41377201463327"><ele>1819.0</ele><time>2026-03-22T14:24:28.01Z</time></trkpt><trkpt lat="21.730986283198156" lon="-102.41376787001882"><ele>1819.0</ele><time>2026-03-22T14:24:29.01Z</time></trkpt><trkpt lat="21.731083158070387" lon="-102.41377339976952"><ele>1819.0</ele><time>2026-03-22T14:24:30.01Z</time></trkpt><trkpt lat="21.731176490728288" lon="-102.41377681438206"><ele>1819.0</ele><time>2026-03-22T14:24:31.01Z</time></trkpt><trkpt lat="21.731269949421304" lon="-102.41377253924998"><ele>1819.0</ele><time>2026-03-22T14:24:32.01Z</time></trkpt><trkpt lat="21.731362194549213" lon="-102.41377128781222"><ele>1819.1666666666667</ele><time>2026-03-22T14:24:33.01Z</time></trkpt><trkpt lat="21.73145067150126" lon="-102.41377525025827"><ele>1819.3333333333335</ele><time>2026-03-22T14:24:34.01Z</time></trkpt><trkpt lat="21.731535427935146" lon="-102.41377968372609"><ele>1819.5</ele><time>2026-03-22T14:24:35.01Z</time></trkpt><trkpt lat="21.731623933950157" lon="-102.41377798617803"><ele>1819.6666666666665</ele><time>2026-03-22T14:24:36.01Z</time></trkpt><trkpt lat="21.73170842965234" lon="-102.41377929937461"><ele>1819.8333333333333</ele><time>2026-03-22T14:24:37.01Z</time></trkpt><trkpt lat="21.73179784428455" lon="-102.41377726426923"><ele>1820.0</ele><time>2026-03-22T14:24:38.01Z</time></trkpt><trkpt lat="21.73188200992512" lon="-102.41378340043849"><ele>1820.4</ele><time>2026-03-22T14:24:39.01Z</time></trkpt><trkpt lat="21.73197874330268" lon="-102.41377375833488"><ele>1820.8</ele><time>2026-03-22T14:24:40.01Z</time></trkpt><trkpt lat="21.73206768581492" lon="-102.41377858006165"><ele>1821.1999999999998</ele><time>2026-03-22T14:24:41.01Z</time></trkpt><trkpt lat="21.732155429278148" lon="-102.41378066717881"><ele>1821.6</ele><time>2026-03-22T14:24:42.01Z</time></trkpt><trkpt lat="21.732244469912995" lon="-102.41378249177505"><ele>1822.0</ele><time>2026-03-22T14:24:43.01Z</time></trkpt><trkpt lat="21.732331768179826" lon="-102.41377638203512"><ele>1822.0000000000002</ele><time>2026-03-22T14:24:44.01Z</time></trkpt><trkpt lat="21.732410333694656" lon="-102.41378253393212"><ele>1822.0</ele><time>2026-03-22T14:24:45.01Z</time></trkpt><trkpt lat="21.732499962134796" lon="-102.41378087501252"><ele>1822.0</ele><time>2026-03-22T14:24:46.01Z</time></trkpt><trkpt lat="21.732585763242675" lon="-102.41378052045336"><ele>1822.0</ele><time>2026-03-22T14:24:47.01Z</time></trkpt><trkpt lat="21.732662322177976" lon="-102.4137803002073"><ele>1822.0000000000002</ele><time>2026-03-22T14:24:48.01Z</time></trkpt><trkpt lat="21.732745867224367" lon="-102.4137792455419"><ele>1822.0</ele><time>2026-03-22T14:24:49.01Z</time></trkpt><trkpt lat="21.73282507027395" lon="-102.41378183612521"><ele>1822.1666666666667</ele><time>2026-03-22T14:24:50.01Z</time></trkpt><trkpt lat="21.732903819130758" lon="-102.41378912835839"><ele>1822.3333333333335</ele><time>2026-03-22T14:24:51.01Z</time></trkpt><trkpt lat="21.732983389250283" lon="-102.4137859251599"><ele>1822.5</ele><time>2026-03-22T14:24:52.01Z</time></trkpt><trkpt lat="21.733068073806432" lon="-102.41379467004872"><ele>1822.6666666666665</ele><time>2026-03-22T14:24:53.01Z</time></trkpt><trkpt lat="21.73314711464067" lon="-102.41379273165649"><ele>1822.8333333333333</ele><time>2026-03-22T14:24:54.01Z</time></trkpt><trkpt lat="21.73322784798254" lon="-102.41379210213155"><ele>1823.0</ele><time>2026-03-22T14:24:55.01Z</time></trkpt><trkpt lat="21.73330291428517" lon="-102.41379446243708"><ele>1822.9999999999998</ele><time>2026-03-22T14:24:56.01Z</time></trkpt><trkpt lat="21.73337732277371" lon="-102.41379260623769"><ele>1823.0</ele><time>2026-03-22T14:24:57.01Z</time></trkpt><trkpt lat="21.733463164006942" lon="-102.41379601835366"><ele>1823.0</ele><time>2026-03-22T14:24:58.01Z</time></trkpt><trkpt lat="21.733543694858113" lon="-102.41379736491736"><ele>1823.0</ele><time>2026-03-22T14:24:59.01Z</time></trkpt><trkpt lat="21.733627215379492" lon="-102.41379737309104"><ele>1822.9999999999998</ele><time>2026-03-22T14:25:00.01Z</time></trkpt><trkpt lat="21.733706066350763" lon="-102.41379012441436"><ele>1823.0</ele><time>2026-03-22T14:25:01.01Z</time></trkpt><trkpt lat="21.73379261385785" lon="-102.4137999957562"><ele>1823.6666666666665</ele><time>2026-03-22T14:25:02.01Z</time></trkpt><trkpt lat="21.733879840604175" lon="-102.41380090315008"><ele>1824.3333333333333</ele><time>2026-03-22T14:25:03.01Z</time></trkpt><trkpt lat="21.733969080308352" lon="-102.4137976458063"><ele>1825.0</ele><time>2026-03-22T14:25:04.01Z</time></trkpt><trkpt lat="21.734056065862347" lon="-102.4137967769034"><ele>1825.6666666666665</ele><time>2026-03-22T14:25:05.01Z</time></trkpt><trkpt lat="21.734147281608465" lon="-102.41379860424385"><ele>1826.3333333333333</ele><time>2026-03-22T14:25:06.01Z</time></trkpt><trkpt lat="21.734238985744792" lon="-102.41380271949457"><ele>1827.0</ele><time>2026-03-22T14:25:07.01Z</time></trkpt><trkpt lat="21.734329228262432" lon="-102.41379860849584"><ele>1827.6666666666667</ele><time>2026-03-22T14:25:08.01Z</time></trkpt><trkpt lat="21.734420495148193" lon="-102.41380282104683"><ele>1828.3333333333335</ele><time>2026-03-22T14:25:09.01Z</time></trkpt><trkpt lat="21.734509720699528" lon="-102.41380306604682"><ele>1829.0</ele><time>2026-03-22T14:25:10.01Z</time></trkpt><trkpt lat="21.734597246778772" lon="-102.4138035485767"><ele>1829.6666666666667</ele><time>2026-03-22T14:25:11.01Z</time></trkpt><trkpt lat="21.73468561762205" lon="-102.41380494029873"><ele>1830.3333333333335</ele><time>2026-03-22T14:25:12.01Z</time></trkpt><trkpt lat="21.734774407121" lon="-102.41380849221541"><ele>1831.0</ele><time>2026-03-22T14:25:13.01Z</time></trkpt><trkpt lat="21.7348617603864" lon="-102.41380761564375"><ele>1831.0000000000002</ele><time>2026-03-22T14:25:14.01Z</time></trkpt><trkpt lat="21.734948416402663" lon="-102.41380741311596"><ele>1831.0</ele><time>2026-03-22T14:25:15.01Z</time></trkpt><trkpt lat="21.73504250528419" lon="-102.41380478630504"><ele>1831.0</ele><time>2026-03-22T14:25:16.01Z</time></trkpt><trkpt lat="21.73513173825818" lon="-102.41381269825104"><ele>1831.0</ele><time>2026-03-22T14:25:17.01Z</time></trkpt><trkpt lat="21.735220123411892" lon="-102.41381470843457"><ele>1831.0000000000002</ele><time>2026-03-22T14:25:18.01Z</time></trkpt><trkpt lat="21.735301229993937" lon="-102.41380918424981"><ele>1831.0</ele><time>2026-03-22T14:25:19.01Z</time></trkpt><trkpt lat="21.735390634924332" lon="-102.41381642586472"><ele>1831.5000000000002</ele><time>2026-03-22T14:25:20.01Z</time></trkpt><trkpt lat="21.73547370311192" lon="-102.41382070677717"><ele>1832.0</ele><time>2026-03-22T14:25:21.01Z</time></trkpt><trkpt lat="21.735555033525838" lon="-102.41381622524364"><ele>1832.5</ele><time>2026-03-22T14:25:22.011Z</time></trkpt><trkpt lat="21.735641254705403" lon="-102.41381553537028"><ele>1833.0</ele><time>2026-03-22T14:25:23.01Z</time></trkpt><trkpt lat="21.73572914918005" lon="-102.41381892716079"><ele>1833.5000000000002</ele><time>2026-03-22T14:25:24.01Z</time></trkpt><trkpt lat="21.735815533122572" lon="-102.41382213858552"><ele>1834.0</ele><time>2026-03-22T14:25:25.01Z</time></trkpt><trkpt lat="21.735907218094813" lon="-102.41381963972464"><ele>1834.0000000000002</ele><time>2026-03-22T14:25:26.011Z</time></trkpt><trkpt lat="21.735986484198918" lon="-102.41381798348837"><ele>1834.0</ele><time>2026-03-22T14:25:27.011Z</time></trkpt><trkpt lat="21.73606660022146" lon="-102.4138259679633"><ele>1834.0</ele><time>2026-03-22T14:25:28.011Z</time></trkpt><trkpt lat="21.736148611934993" lon="-102.413822979387"><ele>1834.0</ele><time>2026-03-22T14:25:29.011Z</time></trkpt><trkpt lat="21.736241782254027" lon="-102.41382817078399"><ele>1834.0000000000002</ele><time>2026-03-22T14:25:30.011Z</time></trkpt><trkpt lat="21.73632001394755" lon="-102.41382737915742"><ele>1834.0</ele><time>2026-03-22T14:25:31.011Z</time></trkpt><trkpt lat="21.736405328781082" lon="-102.41382075427248"><ele>1834.5000000000002</ele><time>2026-03-22T14:25:32.011Z</time></trkpt><trkpt lat="21.736485926279563" lon="-102.41383089092518"><ele>1835.0</ele><time>2026-03-22T14:25:33.011Z</time></trkpt><trkpt lat="21.73657457623894" lon="-102.41383116419757"><ele>1835.5</ele><time>2026-03-22T14:25:34.011Z</time></trkpt><trkpt lat="21.73665165749603" lon="-102.41382724531798"><ele>1836.0</ele><time>2026-03-22T14:25:35.011Z</time></trkpt><trkpt lat="21.736730785306097" lon="-102.41383097292551"><ele>1836.5000000000002</ele><time>2026-03-22T14:25:36.011Z</time></trkpt><trkpt lat="21.736808888815244" lon="-102.41382429266278"><ele>1837.0</ele><time>2026-03-22T14:25:37.011Z</time></trkpt><trkpt lat="21.736888429459807" lon="-102.41383188664953"><ele>1837.1666666666667</ele><time>2026-03-22T14:25:38.011Z</time></trkpt><trkpt lat="21.736971375036003" lon="-102.41383548263023"><ele>1837.3333333333335</ele><time>2026-03-22T14:25:39.011Z</time></trkpt><trkpt lat="21.737052648014632" lon="-102.41383737385277"><ele>1837.5</ele><time>2026-03-22T14:25:40.011Z</time></trkpt><trkpt lat="21.737131870174363" lon="-102.41384178939452"><ele>1837.6666666666665</ele><time>2026-03-22T14:25:41.011Z</time></trkpt><trkpt lat="21.73721825507927" lon="-102.41384400642353"><ele>1837.8333333333333</ele><time>2026-03-22T14:25:42.01Z</time></trkpt><trkpt lat="21.73730191552569" lon="-102.41384500992388"><ele>1838.0</ele><time>2026-03-22T14:25:43.01Z</time></trkpt><trkpt lat="21.737386751054874" lon="-102.41384831739576"><ele>1837.9999999999998</ele><time>2026-03-22T14:25:44.01Z</time></trkpt><trkpt lat="21.73746579049825" lon="-102.41385235550008"><ele>1838.0</ele><time>2026-03-22T14:25:45.01Z</time></trkpt><trkpt lat="21.737548358230892" lon="-102.41384946910782"><ele>1838.0</ele><time>2026-03-22T14:25:46.01Z</time></trkpt><trkpt lat="21.737632682997205" lon="-102.41385066907996"><ele>1838.0</ele><time>2026-03-22T14:25:47.01Z</time></trkpt><trkpt lat="21.73771162612487" lon="-102.41384802769389"><ele>1837.9999999999998</ele><time>2026-03-22T14:25:48.01Z</time></trkpt><trkpt lat="21.737796312349573" lon="-102.41384401564439"><ele>1838.0</ele><time>2026-03-22T14:25:49.01Z</time></trkpt><trkpt lat="21.73788453287178" lon="-102.413845746497"><ele>1838.1666666666665</ele><time>2026-03-22T14:25:50.01Z</time></trkpt><trkpt lat="21.737958149308646" lon="-102.41385348846403"><ele>1838.3333333333333</ele><time>2026-03-22T14:25:51.01Z</time></trkpt><trkpt lat="21.738048984747554" lon="-102.4138557381394"><ele>1838.5</ele><time>2026-03-22T14:25:52.01Z</time></trkpt><trkpt lat="21.73813803675517" lon="-102.41385977121118"><ele>1838.6666666666665</ele><time>2026-03-22T14:25:53.01Z</time></trkpt><trkpt lat="21.73822512985899" lon="-102.4138604336086"><ele>1838.8333333333333</ele><time>2026-03-22T14:25:54.01Z</time></trkpt><trkpt lat="21.73830733970166" lon="-102.41386536996546"><ele>1839.0</ele><time>2026-03-22T14:25:55.01Z</time></trkpt><trkpt lat="21.73839189373582" lon="-102.41386403781702"><ele>1839.0</ele><time>2026-03-22T14:25:56.01Z</time></trkpt><trkpt lat="21.73847681221679" lon="-102.41386349386799"><ele>1839.0</ele><time>2026-03-22T14:25:57.01Z</time></trkpt><trkpt lat="21.73855990578116" lon="-102.41386128465463"><ele>1839.0</ele><time>2026-03-22T14:25:58.01Z</time></trkpt><trkpt lat="21.738643568676626" lon="-102.41386251785511"><ele>1839.0</ele><time>2026-03-22T14:25:59.01Z</time></trkpt><trkpt lat="21.738720791679853" lon="-102.4138589406275"><ele>1839.0</ele><time>2026-03-22T14:26:00.01Z</time></trkpt><trkpt lat="21.73880472728846" lon="-102.41385923302526"><ele>1839.0</ele><time>2026-03-22T14:26:01.01Z</time></trkpt><trkpt lat="21.738897936032156" lon="-102.4138704640273"><ele>1839.3333333333333</ele><time>2026-03-22T14:26:02.01Z</time></trkpt><trkpt lat="21.73897952842476" lon="-102.41387205790906"><ele>1839.6666666666665</ele><time>2026-03-22T14:26:03.01Z</time></trkpt><trkpt lat="21.73905974122581" lon="-102.41386950701668"><ele>1840.0</ele><time>2026-03-22T14:26:04.01Z</time></trkpt><trkpt lat="21.739146611729232" lon="-102.41386794110603"><ele>1840.3333333333333</ele><time>2026-03-22T14:26:05.01Z</time></trkpt><trkpt lat="21.739229321694324" lon="-102.41386926699272"><ele>1840.6666666666665</ele><time>2026-03-22T14:26:06.01Z</time></trkpt><trkpt lat="21.73931431108823" lon="-102.41387458705213"><ele>1841.0</ele><time>2026-03-22T14:26:07.01Z</time></trkpt><trkpt lat="21.739392483122202" lon="-102.41387182094408"><ele>1841.1666666666665</ele><time>2026-03-22T14:26:08.01Z</time></trkpt><trkpt lat="21.73947175070035" lon="-102.41387155993"><ele>1841.3333333333333</ele><time>2026-03-22T14:26:09.01Z</time></trkpt><trkpt lat="21.73955469034763" lon="-102.4138735382809"><ele>1841.5</ele><time>2026-03-22T14:26:10.01Z</time></trkpt><trkpt lat="21.739637044434456" lon="-102.41387419688445"><ele>1841.6666666666665</ele><time>2026-03-22T14:26:11.01Z</time></trkpt><trkpt lat="21.739719512983914" lon="-102.41387349438685"><ele>1841.8333333333333</ele><time>2026-03-22T14:26:12.01Z</time></trkpt><trkpt lat="21.73980820619411" lon="-102.41387942783665"><ele>1842.0</ele><time>2026-03-22T14:26:13.01Z</time></trkpt><trkpt lat="21.739894956121177" lon="-102.41388526383602"><ele>1842.0</ele><time>2026-03-22T14:26:14.01Z</time></trkpt><trkpt lat="21.73997644440662" lon="-102.41387946908901"><ele>1842.0</ele><time>2026-03-22T14:26:15.01Z</time></trkpt><trkpt lat="21.740055258444944" lon="-102.41388303132838"><ele>1842.0</ele><time>2026-03-22T14:26:16.01Z</time></trkpt><trkpt lat="21.740129947046935" lon="-102.41388346899475"><ele>1842.0</ele><time>2026-03-22T14:26:17.01Z</time></trkpt><trkpt lat="21.74022107785921" lon="-102.41387705195211"><ele>1842.0</ele><time>2026-03-22T14:26:18.01Z</time></trkpt><trkpt lat="21.74030330526659" lon="-102.41388514838935"><ele>1842.0</ele><time>2026-03-22T14:26:19.01Z</time></trkpt><trkpt lat="21.74038435522366" lon="-102.41388235337027"><ele>1842.3333333333333</ele><time>2026-03-22T14:26:20.01Z</time></trkpt><trkpt lat="21.740469336914526" lon="-102.41388641968446"><ele>1842.6666666666665</ele><time>2026-03-22T14:26:21.01Z</time></trkpt><trkpt lat="21.74054972659577" lon="-102.41388225075862"><ele>1843.0</ele><time>2026-03-22T14:26:22.01Z</time></trkpt><trkpt lat="21.740631155165108" lon="-102.41388723522549"><ele>1843.3333333333333</ele><time>2026-03-22T14:26:23.01Z</time></trkpt><trkpt lat="21.740704503179032" lon="-102.41388655711796"><ele>1843.6666666666665</ele><time>2026-03-22T14:26:24.01Z</time></trkpt><trkpt lat="21.740780565836133" lon="-102.4138953126469"><ele>1844.0</ele><time>2026-03-22T14:26:25.01Z</time></trkpt><trkpt lat="21.74086248211306" lon="-102.41388879174109"><ele>1843.9999999999998</ele><time>2026-03-22T14:26:26.01Z</time></trkpt><trkpt lat="21.740937608346762" lon="-102.41388959214564"><ele>1844.0</ele><time>2026-03-22T14:26:27.01Z</time></trkpt><trkpt lat="21.741011270009587" lon="-102.41389138117276"><ele>1844.0</ele><time>2026-03-22T14:26:28.01Z</time></trkpt><trkpt lat="21.741090223354444" lon="-102.41389231191064"><ele>1844.0</ele><time>2026-03-22T14:26:29.01Z</time></trkpt><trkpt lat="21.74116052124609" lon="-102.41389025013441"><ele>1843.9999999999998</ele><time>2026-03-22T14:26:30.01Z</time></trkpt><trkpt lat="21.74123291215757" lon="-102.41389535457706"><ele>1844.0</ele><time>2026-03-22T14:26:31.01Z</time></trkpt><trkpt lat="21.741316175976202" lon="-102.41389295681257"><ele>1844.1666666666665</ele><time>2026-03-22T14:26:32.01Z</time></trkpt><trkpt lat="21.741387497511177" lon="-102.41390250249992"><ele>1844.3333333333333</ele><time>2026-03-22T14:26:33.01Z</time></trkpt><trkpt lat="21.7414622960537" lon="-102.4139052311663"><ele>1844.5</ele><time>2026-03-22T14:26:34.01Z</time></trkpt><trkpt lat="21.74153844406054" lon="-102.41390964435989"><ele>1844.6666666666665</ele><time>2026-03-22T14:26:35.01Z</time></trkpt><trkpt lat="21.74161335476112" lon="-102.41391298867335"><ele>1844.8333333333333</ele><time>2026-03-22T14:26:36.01Z</time></trkpt><trkpt lat="21.741691630509344" lon="-102.41391200390227"><ele>1845.0</ele><time>2026-03-22T14:26:37.01Z</time></trkpt><trkpt lat="21.741774951804484" lon="-102.41391379370377"><ele>1845.0</ele><time>2026-03-22T14:26:38.01Z</time></trkpt><trkpt lat="21.74185374347296" lon="-102.41391584490721"><ele>1845.0</ele><time>2026-03-22T14:26:39.01Z</time></trkpt><trkpt lat="21.74193347481929" lon="-102.41391527278186"><ele>1845.0</ele><time>2026-03-22T14:26:40.01Z</time></trkpt><trkpt lat="21.742016804565477" lon="-102.41391421768597"><ele>1845.0</ele><time>2026-03-22T14:26:41.01Z</time></trkpt><trkpt lat="21.742098374625105" lon="-102.4139162207074"><ele>1845.0</ele><time>2026-03-22T14:26:42.01Z</time></trkpt><trkpt lat="21.74218265553664" lon="-102.41392329354424"><ele>1845.0</ele><time>2026-03-22T14:26:43.01Z</time></trkpt><trkpt lat="21.74226435957766" lon="-102.41392461542874"><ele>1845.1666666666667</ele><time>2026-03-22T14:26:44.01Z</time></trkpt><trkpt lat="21.742350130510594" lon="-102.41392444061978"><ele>1845.3333333333335</ele><time>2026-03-22T14:26:45.01Z</time></trkpt><trkpt lat="21.742435963956275" lon="-102.4139266174887"><ele>1845.5</ele><time>2026-03-22T14:26:46.01Z</time></trkpt><trkpt lat="21.742518000111602" lon="-102.41392495152137"><ele>1845.6666666666667</ele><time>2026-03-22T14:26:47.01Z</time></trkpt><trkpt lat="21.742596655716955" lon="-102.41392269823145"><ele>1845.8333333333335</ele><time>2026-03-22T14:26:48.01Z</time></trkpt><trkpt lat="21.742684875094778" lon="-102.41392001437673"><ele>1846.0</ele><time>2026-03-22T14:26:49.01Z</time></trkpt><trkpt lat="21.742762905842696" lon="-102.41391710241042"><ele>1846.1666666666667</ele><time>2026-03-22T14:26:50.01Z</time></trkpt><trkpt lat="21.742854181079892" lon="-102.41391760560818"><ele>1846.3333333333335</ele><time>2026-03-22T14:26:51.01Z</time></trkpt><trkpt lat="21.74293776452631" lon="-102.41392379806587"><ele>1846.5</ele><time>2026-03-22T14:26:52.01Z</time></trkpt><trkpt lat="21.743028944896913" lon="-102.4139244346795"><ele>1846.6666666666665</ele><time>2026-03-22T14:26:53.01Z</time></trkpt><trkpt lat="21.74311386258497" lon="-102.41393204837685"><ele>1846.8333333333333</ele><time>2026-03-22T14:26:54.01Z</time></trkpt><trkpt lat="21.743207649587198" lon="-102.41392545401601"><ele>1847.0</ele><time>2026-03-22T14:26:55.01Z</time></trkpt><trkpt lat="21.743300213142795" lon="-102.41392864331952"><ele>1847.0</ele><time>2026-03-22T14:26:56.01Z</time></trkpt><trkpt lat="21.743389791738448" lon="-102.41392981367775"><ele>1846.9999999999998</ele><time>2026-03-22T14:26:57.01Z</time></trkpt><trkpt lat="21.743483767660052" lon="-102.41393146698586"><ele>1846.9999999999998</ele><time>2026-03-22T14:26:58.01Z</time></trkpt><trkpt lat="21.743573422490314" lon="-102.41393716187063"><ele>1847.0</ele><time>2026-03-22T14:26:59.01Z</time></trkpt><trkpt lat="21.74365991694315" lon="-102.41393767363888"><ele>1847.0</ele><time>2026-03-22T14:27:00.01Z</time></trkpt><trkpt lat="21.743757532952568" lon="-102.41394279324508"><ele>1847.3999999999999</ele><time>2026-03-22T14:27:01.01Z</time></trkpt><trkpt lat="21.74384410228945" lon="-102.41394694237543"><ele>1847.7999999999997</ele><time>2026-03-22T14:27:02.009Z</time></trkpt><trkpt lat="21.743935838287072" lon="-102.41395812639333"><ele>1848.2</ele><time>2026-03-22T14:27:03.009Z</time></trkpt><trkpt lat="21.744024715650173" lon="-102.41397426725518"><ele>1848.6</ele><time>2026-03-22T14:27:04.009Z</time></trkpt><trkpt lat="21.744112203751502" lon="-102.41399280999117"><ele>1849.0</ele><time>2026-03-22T14:27:05.009Z</time></trkpt><trkpt lat="21.744205789105372" lon="-102.41400982712065"><ele>1849.0000000000002</ele><time>2026-03-22T14:27:06.009Z</time></trkpt><trkpt lat="21.744287247896487" lon="-102.4140252233522"><ele>1849.0</ele><time>2026-03-22T14:27:07.009Z</time></trkpt><trkpt lat="21.74437685484831" lon="-102.41404917790061"><ele>1849.0</ele><time>2026-03-22T14:27:08.009Z</time></trkpt><trkpt lat="21.74446253257252" lon="-102.41408222300686"><ele>1849.0</ele><time>2026-03-22T14:27:09.009Z</time></trkpt><trkpt lat="21.744546745517717" lon="-102.41411027151332"><ele>1849.0000000000002</ele><time>2026-03-22T14:27:10.009Z</time></trkpt><trkpt lat="21.74463118807312" lon="-102.4141408201627"><ele>1849.0</ele><time>2026-03-22T14:27:11.009Z</time></trkpt><trkpt lat="21.744709967669852" lon="-102.4141711323913"><ele>1849.5000000000002</ele><time>2026-03-22T14:27:12.009Z</time></trkpt><trkpt lat="21.744784974922908" lon="-102.41419918183976"><ele>1850.0</ele><time>2026-03-22T14:27:13.009Z</time></trkpt><trkpt lat="21.74485603592026" lon="-102.41423165234158"><ele>1850.5</ele><time>2026-03-22T14:27:14.009Z</time></trkpt><trkpt lat="21.74493580025279" lon="-102.4142681385553"><ele>1851.0</ele><time>2026-03-22T14:27:15.009Z</time></trkpt><trkpt lat="21.745006327719366" lon="-102.4143031944394"><ele>1851.5000000000002</ele><time>2026-03-22T14:27:16.009Z</time></trkpt><trkpt lat="21.74508045304191" lon="-102.41434611530194"><ele>1852.0</ele><time>2026-03-22T14:27:17.009Z</time></trkpt><trkpt lat="21.745159188434098" lon="-102.41438369700289"><ele>1852.6666666666667</ele><time>2026-03-22T14:27:18.009Z</time></trkpt><trkpt lat="21.74522070237308" lon="-102.4144121230245"><ele>1853.3333333333335</ele><time>2026-03-22T14:27:19.01Z</time></trkpt><trkpt lat="21.745283682613422" lon="-102.41444277698693"><ele>1854.0</ele><time>2026-03-22T14:27:20.011Z</time></trkpt><trkpt lat="21.745345177056386" lon="-102.41446243245778"><ele>1854.6666666666665</ele><time>2026-03-22T14:27:21.01Z</time></trkpt><trkpt lat="21.74541971605252" lon="-102.41449659223775"><ele>1855.3333333333333</ele><time>2026-03-22T14:27:22.01Z</time></trkpt><trkpt lat="21.745480830710047" lon="-102.4145262417216"><ele>1856.0</ele><time>2026-03-22T14:27:23.01Z</time></trkpt><trkpt lat="21.7455979006907" lon="-102.41457691853537"><ele>1856.0000000000002</ele><time>2026-03-22T14:27:25.01Z</time></trkpt><trkpt lat="21.745657065831534" lon="-102.41460432760866"><ele>1856.0</ele><time>2026-03-22T14:27:26.01Z</time></trkpt><trkpt lat="21.745718769162316" lon="-102.41463656743841"><ele>1856.0000000000002</ele><time>2026-03-22T14:27:27.01Z</time></trkpt><trkpt lat="21.745790003087343" lon="-102.41467667900336"><ele>1856.0000000000002</ele><time>2026-03-22T14:27:28.01Z</time></trkpt><trkpt lat="21.745855650092878" lon="-102.41470487630284"><ele>1856.0</ele><time>2026-03-22T14:27:29.01Z</time></trkpt><trkpt lat="21.745914890281494" lon="-102.41473381791458"><ele>1856.0000000000002</ele><time>2026-03-22T14:27:30.01Z</time></trkpt><trkpt lat="21.745975398131453" lon="-102.41476010347034"><ele>1856.0000000000002</ele><time>2026-03-22T14:27:31.011Z</time></trkpt><trkpt lat="21.746037996873792" lon="-102.4147814853104"><ele>1856.6666666666665</ele><time>2026-03-22T14:27:32.01Z</time></trkpt><trkpt lat="21.74610427940834" lon="-102.41481433361359"><ele>1857.3333333333333</ele><time>2026-03-22T14:27:33.01Z</time></trkpt><trkpt lat="21.746170450757095" lon="-102.4148523367088"><ele>1858.0</ele><time>2026-03-22T14:27:34.01Z</time></trkpt><trkpt lat="21.746238718524666" lon="-102.41488294021622"><ele>1858.6666666666665</ele><time>2026-03-22T14:27:35.01Z</time></trkpt><trkpt lat="21.746313856182244" lon="-102.41491966836807"><ele>1859.3333333333333</ele><time>2026-03-22T14:27:36.01Z</time></trkpt><trkpt lat="21.74638010999996" lon="-102.41495796710487"><ele>1860.0</ele><time>2026-03-22T14:27:37.01Z</time></trkpt><trkpt lat="21.74644615970171" lon="-102.41498851880903"><ele>1860.0</ele><time>2026-03-22T14:27:38.01Z</time></trkpt><trkpt lat="21.746508816451797" lon="-102.41501891056608"><ele>1860.0</ele><time>2026-03-22T14:27:39.01Z</time></trkpt><trkpt lat="21.746576044810407" lon="-102.4150488965395"><ele>1860.0</ele><time>2026-03-22T14:27:40.01Z</time></trkpt><trkpt lat="21.74664498501016" lon="-102.415081913239"><ele>1860.0</ele><time>2026-03-22T14:27:41.01Z</time></trkpt><trkpt lat="21.746710140300365" lon="-102.41510875032523"><ele>1860.0</ele><time>2026-03-22T14:27:42.01Z</time></trkpt><trkpt lat="21.746770368521872" lon="-102.41514154045035"><ele>1860.0</ele><time>2026-03-22T14:27:43.01Z</time></trkpt><trkpt lat="21.746837899122323" lon="-102.41517732727407"><ele>1860.0</ele><time>2026-03-22T14:27:44.01Z</time></trkpt><trkpt lat="21.746906269437254" lon="-102.41521025666724"><ele>1860.0</ele><time>2026-03-22T14:27:45.01Z</time></trkpt><trkpt lat="21.74697343756065" lon="-102.41524166931956"><ele>1860.0</ele><time>2026-03-22T14:27:46.01Z</time></trkpt><trkpt lat="21.747049012655538" lon="-102.41527767210351"><ele>1860.0</ele><time>2026-03-22T14:27:47.01Z</time></trkpt><trkpt lat="21.747116331038075" lon="-102.41531211644222"><ele>1860.0</ele><time>2026-03-22T14:27:48.01Z</time></trkpt><trkpt lat="21.747190912507385" lon="-102.41534670077007"><ele>1860.0</ele><time>2026-03-22T14:27:49.01Z</time></trkpt><trkpt lat="21.74726170134804" lon="-102.41537746190518"><ele>1860.0</ele><time>2026-03-22T14:27:50.01Z</time></trkpt><trkpt lat="21.747329918152456" lon="-102.41541230436324"><ele>1860.0</ele><time>2026-03-22T14:27:51.01Z</time></trkpt><trkpt lat="21.747394540664654" lon="-102.415441969076"><ele>1860.0</ele><time>2026-03-22T14:27:52.01Z</time></trkpt><trkpt lat="21.747472394089215" lon="-102.41547369971883"><ele>1860.0</ele><time>2026-03-22T14:27:53.01Z</time></trkpt><trkpt lat="21.747552119882094" lon="-102.41550763633742"><ele>1860.0</ele><time>2026-03-22T14:27:54.01Z</time></trkpt><trkpt lat="21.747622082033605" lon="-102.4155339260712"><ele>1860.0</ele><time>2026-03-22T14:27:55.01Z</time></trkpt><trkpt lat="21.74769106335723" lon="-102.41556487300778"><ele>1860.0</ele><time>2026-03-22T14:27:56.01Z</time></trkpt><trkpt lat="21.747763854984807" lon="-102.41560086130976"><ele>1860.4285714285713</ele><time>2026-03-22T14:27:57.01Z</time></trkpt><trkpt lat="21.747830406565278" lon="-102.41563607666811"><ele>1860.8571428571431</ele><time>2026-03-22T14:27:58.01Z</time></trkpt><trkpt lat="21.747894161680097" lon="-102.41566668814325"><ele>1861.2857142857144</ele><time>2026-03-22T14:27:59.01Z</time></trkpt><trkpt lat="21.747957402541246" lon="-102.4156946470408"><ele>1861.7142857142858</ele><time>2026-03-22T14:28:00.01Z</time></trkpt><trkpt lat="21.748028695316652" lon="-102.41573577043312"><ele>1862.1428571428573</ele><time>2026-03-22T14:28:01.01Z</time></trkpt><trkpt lat="21.748098687074997" lon="-102.41576433252436"><ele>1862.571428571429</ele><time>2026-03-22T14:28:02.01Z</time></trkpt><trkpt lat="21.748159156339558" lon="-102.41578929671715"><ele>1863.0000000000002</ele><time>2026-03-22T14:28:03.01Z</time></trkpt><trkpt lat="21.748226057642327" lon="-102.41581975153069"><ele>1863.0</ele><time>2026-03-22T14:28:04.01Z</time></trkpt><trkpt lat="21.748295267695298" lon="-102.41585447271862"><ele>1863.0</ele><time>2026-03-22T14:28:05.01Z</time></trkpt><trkpt lat="21.748365863488402" lon="-102.41588381573244"><ele>1863.0</ele><time>2026-03-22T14:28:06.01Z</time></trkpt><trkpt lat="21.748436049032197" lon="-102.41591257621678"><ele>1863.0</ele><time>2026-03-22T14:28:07.01Z</time></trkpt><trkpt lat="21.748507666669955" lon="-102.41593571994157"><ele>1863.0</ele><time>2026-03-22T14:28:08.009Z</time></trkpt><trkpt lat="21.748591479283395" lon="-102.4159632202661"><ele>1863.0</ele><time>2026-03-22T14:28:09.009Z</time></trkpt><trkpt lat="21.74865658733125" lon="-102.41597479815948"><ele>1863.5</ele><time>2026-03-22T14:28:10.009Z</time></trkpt><trkpt lat="21.748731958942574" lon="-102.41599375046196"><ele>1864.0</ele><time>2026-03-22T14:28:11.009Z</time></trkpt><trkpt lat="21.748810594258504" lon="-102.4160161963932"><ele>1864.5</ele><time>2026-03-22T14:28:12.009Z</time></trkpt><trkpt lat="21.74888288303451" lon="-102.41603172858485"><ele>1865.0</ele><time>2026-03-22T14:28:13.009Z</time></trkpt><trkpt lat="21.74895982867798" lon="-102.41604126789167"><ele>1865.5</ele><time>2026-03-22T14:28:14.009Z</time></trkpt><trkpt lat="21.74903199154165" lon="-102.41605128188044"><ele>1866.0</ele><time>2026-03-22T14:28:15.009Z</time></trkpt><trkpt lat="21.749102775845913" lon="-102.4160571410096"><ele>1866.0</ele><time>2026-03-22T14:28:16.009Z</time></trkpt><trkpt lat="21.74917755714825" lon="-102.41606988369145"><ele>1865.9999999999998</ele><time>2026-03-22T14:28:17.009Z</time></trkpt><trkpt lat="21.749251100224004" lon="-102.41607953111563"><ele>1866.0</ele><time>2026-03-22T14:28:18.009Z</time></trkpt><trkpt lat="21.749323787288656" lon="-102.41608575786246"><ele>1866.0</ele><time>2026-03-22T14:28:19.009Z</time></trkpt><trkpt lat="21.749389313486784" lon="-102.41608892348847"><ele>1865.9999999999998</ele><time>2026-03-22T14:28:20.009Z</time></trkpt><trkpt lat="21.74945613486523" lon="-102.41608783189989"><ele>1866.0</ele><time>2026-03-22T14:28:21.009Z</time></trkpt><trkpt lat="21.749538640639663" lon="-102.41608804854734"><ele>1866.0</ele><time>2026-03-22T14:28:22.009Z</time></trkpt><trkpt lat="21.749607880547597" lon="-102.41608242085685"><ele>1866.6666666666667</ele><time>2026-03-22T14:28:23.009Z</time></trkpt><trkpt lat="21.749682278157508" lon="-102.41608268947552"><ele>1867.3333333333335</ele><time>2026-03-22T14:28:24.009Z</time></trkpt><trkpt lat="21.74975521372049" lon="-102.4160782016258"><ele>1868.0</ele><time>2026-03-22T14:28:25.009Z</time></trkpt><trkpt lat="21.7498310309142" lon="-102.4160776391598"><ele>1868.6666666666667</ele><time>2026-03-22T14:28:26.009Z</time></trkpt><trkpt lat="21.74990892591528" lon="-102.41605895254881"><ele>1869.3333333333335</ele><time>2026-03-22T14:28:27.009Z</time></trkpt><trkpt lat="21.749979955074803" lon="-102.41605099426052"><ele>1870.0</ele><time>2026-03-22T14:28:28.009Z</time></trkpt><trkpt lat="21.750057224657322" lon="-102.41604340888495"><ele>1870.0000000000002</ele><time>2026-03-22T14:28:29.009Z</time></trkpt><trkpt lat="21.750136210511247" lon="-102.41603326248442"><ele>1870.0</ele><time>2026-03-22T14:28:30.009Z</time></trkpt><trkpt lat="21.750210882495445" lon="-102.41602320771533"><ele>1870.0</ele><time>2026-03-22T14:28:31.009Z</time></trkpt><trkpt lat="21.7502864136605" lon="-102.4160141441067"><ele>1870.0</ele><time>2026-03-22T14:28:32.009Z</time></trkpt><trkpt lat="21.75035540992934" lon="-102.41600464487352"><ele>1870.0000000000002</ele><time>2026-03-22T14:28:33.009Z</time></trkpt><trkpt lat="21.75044112022877" lon="-102.41599131473261"><ele>1870.0</ele><time>2026-03-22T14:28:34.009Z</time></trkpt><trkpt lat="21.750513655917004" lon="-102.41598678621301"><ele>1870.3333333333335</ele><time>2026-03-22T14:28:35.009Z</time></trkpt><trkpt lat="21.75058430168841" lon="-102.41598325725339"><ele>1870.6666666666667</ele><time>2026-03-22T14:28:36.009Z</time></trkpt><trkpt lat="21.75065794094898" lon="-102.415972004829"><ele>1871.0</ele><time>2026-03-22T14:28:37.009Z</time></trkpt><trkpt lat="21.750739021207973" lon="-102.41595825353723"><ele>1871.3333333333335</ele><time>2026-03-22T14:28:38.009Z</time></trkpt><trkpt lat="21.750815105226252" lon="-102.41594866214622"><ele>1871.6666666666667</ele><time>2026-03-22T14:28:39.009Z</time></trkpt><trkpt lat="21.75089520629695" lon="-102.41593737855173"><ele>1872.0</ele><time>2026-03-22T14:28:40.009Z</time></trkpt><trkpt lat="21.750968630503202" lon="-102.41592190502793"><ele>1872.2857142857144</ele><time>2026-03-22T14:28:41.009Z</time></trkpt><trkpt lat="21.751043537005742" lon="-102.41591075208734"><ele>1872.571428571429</ele><time>2026-03-22T14:28:42.009Z</time></trkpt><trkpt lat="21.751113403885274" lon="-102.41590154614518"><ele>1872.857142857143</ele><time>2026-03-22T14:28:43.009Z</time></trkpt><trkpt lat="21.751182510867068" lon="-102.41589376748338"><ele>1873.1428571428573</ele><time>2026-03-22T14:28:44.009Z</time></trkpt><trkpt lat="21.751252444998673" lon="-102.41588117887592"><ele>1873.4285714285716</ele><time>2026-03-22T14:28:45.009Z</time></trkpt><trkpt lat="21.7513233403993" lon="-102.41587106338096"><ele>1873.7142857142858</ele><time>2026-03-22T14:28:46.009Z</time></trkpt><trkpt lat="21.75139935412196" lon="-102.41586286084286"><ele>1874.0</ele><time>2026-03-22T14:28:47.009Z</time></trkpt><trkpt lat="21.751474671576226" lon="-102.41585569505348"><ele>1874.0</ele><time>2026-03-22T14:28:48.009Z</time></trkpt><trkpt lat="21.751544391567172" lon="-102.4158466603041"><ele>1874.0</ele><time>2026-03-22T14:28:49.009Z</time></trkpt><trkpt lat="21.75161518336604" lon="-102.41583246121252"><ele>1874.0</ele><time>2026-03-22T14:28:50.009Z</time></trkpt><trkpt lat="21.751688895634494" lon="-102.41582195103027"><ele>1874.0</ele><time>2026-03-22T14:28:51.009Z</time></trkpt><trkpt lat="21.75175669909959" lon="-102.41581557352421"><ele>1874.0</ele><time>2026-03-22T14:28:52.009Z</time></trkpt><trkpt lat="21.751829066293528" lon="-102.41580750525382"><ele>1874.0</ele><time>2026-03-22T14:28:53.009Z</time></trkpt><trkpt lat="21.751903888421943" lon="-102.41579857358312"><ele>1874.0</ele><time>2026-03-22T14:28:54.009Z</time></trkpt><trkpt lat="21.75197523473472" lon="-102.41578946569258"><ele>1873.8333333333333</ele><time>2026-03-22T14:28:55.009Z</time></trkpt><trkpt lat="21.752045894402418" lon="-102.41578117093194"><ele>1873.6666666666665</ele><time>2026-03-22T14:28:56.009Z</time></trkpt><trkpt lat="21.75211295034788" lon="-102.41577502611054"><ele>1873.5</ele><time>2026-03-22T14:28:57.009Z</time></trkpt><trkpt lat="21.752183877164388" lon="-102.41576957769308"><ele>1873.3333333333335</ele><time>2026-03-22T14:28:58.009Z</time></trkpt><trkpt lat="21.75225604515446" lon="-102.41576370147011"><ele>1873.1666666666667</ele><time>2026-03-22T14:28:59.009Z</time></trkpt><trkpt lat="21.75232983112952" lon="-102.4157557085784"><ele>1873.0</ele><time>2026-03-22T14:29:00.009Z</time></trkpt><trkpt lat="21.75246733186407" lon="-102.41576069154243"><ele>1873.0</ele><time>2026-03-22T14:29:02.009Z</time></trkpt><trkpt lat="21.752538651414586" lon="-102.41575504841406"><ele>1872.9999999999998</ele><time>2026-03-22T14:29:03.009Z</time></trkpt><trkpt lat="21.75260430923757" lon="-102.41575947899003"><ele>1873.0</ele><time>2026-03-22T14:29:04.009Z</time></trkpt><trkpt lat="21.75267629345006" lon="-102.41576315543186"><ele>1873.0</ele><time>2026-03-22T14:29:05.009Z</time></trkpt><trkpt lat="21.752745676135188" lon="-102.4157662576571"><ele>1872.9999999999998</ele><time>2026-03-22T14:29:06.009Z</time></trkpt><trkpt lat="21.752816093809273" lon="-102.415774004553"><ele>1873.0</ele><time>2026-03-22T14:29:07.009Z</time></trkpt><trkpt lat="21.752893494839576" lon="-102.4157799022659"><ele>1873.0</ele><time>2026-03-22T14:29:08.009Z</time></trkpt><trkpt lat="21.752971336225734" lon="-102.41578910447342"><ele>1873.2857142857142</ele><time>2026-03-22T14:29:09.009Z</time></trkpt><trkpt lat="21.753043336865268" lon="-102.41580070551264"><ele>1873.5714285714284</ele><time>2026-03-22T14:29:10.009Z</time></trkpt><trkpt lat="21.7531218137651" lon="-102.41580743103275"><ele>1873.8571428571427</ele><time>2026-03-22T14:29:11.009Z</time></trkpt><trkpt lat="21.75319051280049" lon="-102.41582234544018"><ele>1874.1428571428569</ele><time>2026-03-22T14:29:12.009Z</time></trkpt><trkpt lat="21.753266169740694" lon="-102.41583676685707"><ele>1874.4285714285713</ele><time>2026-03-22T14:29:13.009Z</time></trkpt><trkpt lat="21.75334036696942" lon="-102.41584225512095"><ele>1874.7142857142853</ele><time>2026-03-22T14:29:14.009Z</time></trkpt><trkpt lat="21.753414867861235" lon="-102.41585035216436"><ele>1874.9999999999998</ele><time>2026-03-22T14:29:15.009Z</time></trkpt><trkpt lat="21.75349362037349" lon="-102.41586219128057"><ele>1875.5</ele><time>2026-03-22T14:29:16.009Z</time></trkpt><trkpt lat="21.753575383470316" lon="-102.41587502911116"><ele>1876.0</ele><time>2026-03-22T14:29:17.009Z</time></trkpt><trkpt lat="21.753658781919953" lon="-102.41587927893397"><ele>1876.5</ele><time>2026-03-22T14:29:18.009Z</time></trkpt><trkpt lat="21.753733527386647" lon="-102.41589751167211"><ele>1877.0</ele><time>2026-03-22T14:29:19.009Z</time></trkpt><trkpt lat="21.75380710654897" lon="-102.41591141604921"><ele>1877.5</ele><time>2026-03-22T14:29:20.009Z</time></trkpt><trkpt lat="21.753886332646918" lon="-102.41591767616815"><ele>1878.0</ele><time>2026-03-22T14:29:21.009Z</time></trkpt><trkpt lat="21.753961345966076" lon="-102.41592559861942"><ele>1878.0</ele><time>2026-03-22T14:29:22.009Z</time></trkpt><trkpt lat="21.75403530538909" lon="-102.41593876620344"><ele>1878.0</ele><time>2026-03-22T14:29:23.009Z</time></trkpt><trkpt lat="21.754114626381128" lon="-102.4159565735266"><ele>1878.0</ele><time>2026-03-22T14:29:24.009Z</time></trkpt><trkpt lat="21.754189756793174" lon="-102.41596205064108"><ele>1878.0</ele><time>2026-03-22T14:29:25.01Z</time></trkpt><trkpt lat="21.754274229382084" lon="-102.41596923581595"><ele>1878.0</ele><time>2026-03-22T14:29:26.01Z</time></trkpt><trkpt lat="21.754348728234454" lon="-102.41597570658793"><ele>1878.0</ele><time>2026-03-22T14:29:27.01Z</time></trkpt><trkpt lat="21.754422035102788" lon="-102.41598665138514"><ele>1878.0</ele><time>2026-03-22T14:29:28.01Z</time></trkpt><trkpt lat="21.754500466580506" lon="-102.41599853091051"><ele>1878.0</ele><time>2026-03-22T14:29:29.01Z</time></trkpt><trkpt lat="21.754583434191424" lon="-102.41600900747129"><ele>1878.0</ele><time>2026-03-22T14:29:30.01Z</time></trkpt><trkpt lat="21.754665861949864" lon="-102.41602204827387"><ele>1878.0</ele><time>2026-03-22T14:29:31.01Z</time></trkpt><trkpt lat="21.754749151364834" lon="-102.4160332011895"><ele>1878.0</ele><time>2026-03-22T14:29:32.01Z</time></trkpt><trkpt lat="21.754828570059757" lon="-102.41604422731737"><ele>1878.0</ele><time>2026-03-22T14:29:33.01Z</time></trkpt><trkpt lat="21.754904528568765" lon="-102.41605350739219"><ele>1878.0</ele><time>2026-03-22T14:29:34.01Z</time></trkpt><trkpt lat="21.754976559447808" lon="-102.41606291893187"><ele>1878.0</ele><time>2026-03-22T14:29:35.01Z</time></trkpt><trkpt lat="21.75505434090633" lon="-102.41607278332748"><ele>1878.0</ele><time>2026-03-22T14:29:36.01Z</time></trkpt><trkpt lat="21.755137084443458" lon="-102.41608584444349"><ele>1878.0</ele><time>2026-03-22T14:29:37.01Z</time></trkpt><trkpt lat="21.7552195210634" lon="-102.4160970970639"><ele>1878.0</ele><time>2026-03-22T14:29:38.01Z</time></trkpt><trkpt lat="21.75529777227559" lon="-102.41611766195176"><ele>1878.0</ele><time>2026-03-22T14:29:39.01Z</time></trkpt><trkpt lat="21.755377884388473" lon="-102.41613132790779"><ele>1878.3333333333333</ele><time>2026-03-22T14:29:40.01Z</time></trkpt><trkpt lat="21.7554628204094" lon="-102.41614410135335"><ele>1878.6666666666665</ele><time>2026-03-22T14:29:41.01Z</time></trkpt><trkpt lat="21.755546139079172" lon="-102.41615468625757"><ele>1879.0</ele><time>2026-03-22T14:29:42.01Z</time></trkpt><trkpt lat="21.755626074591547" lon="-102.41616275143511"><ele>1879.3333333333333</ele><time>2026-03-22T14:29:43.01Z</time></trkpt><trkpt lat="21.75571802537041" lon="-102.4161788645474"><ele>1879.6666666666665</ele><time>2026-03-22T14:29:44.01Z</time></trkpt><trkpt lat="21.75580900953464" lon="-102.41618907641093"><ele>1880.0</ele><time>2026-03-22T14:29:45.01Z</time></trkpt><trkpt lat="21.75589862792818" lon="-102.41620609069851"><ele>1879.9999999999998</ele><time>2026-03-22T14:29:46.01Z</time></trkpt><trkpt lat="21.755983699775097" lon="-102.41622028355542"><ele>1880.0</ele><time>2026-03-22T14:29:47.01Z</time></trkpt><trkpt lat="21.75607518082504" lon="-102.41623622391472"><ele>1880.0</ele><time>2026-03-22T14:29:48.01Z</time></trkpt><trkpt lat="21.756161112885557" lon="-102.41624969185274"><ele>1880.0</ele><time>2026-03-22T14:29:49.01Z</time></trkpt><trkpt lat="21.75624751426883" lon="-102.41625088629442"><ele>1879.9999999999998</ele><time>2026-03-22T14:29:50.01Z</time></trkpt><trkpt lat="21.75632564209395" lon="-102.4162640202264"><ele>1880.0</ele><time>2026-03-22T14:29:51.01Z</time></trkpt><trkpt lat="21.756410858523726" lon="-102.41627748423663"><ele>1879.9999999999998</ele><time>2026-03-22T14:29:52.01Z</time></trkpt><trkpt lat="21.756496921601077" lon="-102.41629318885934"><ele>1880.0</ele><time>2026-03-22T14:29:53.01Z</time></trkpt><trkpt lat="21.756577135381637" lon="-102.41629973353534"><ele>1880.0</ele><time>2026-03-22T14:29:54.01Z</time></trkpt><trkpt lat="21.756658682625147" lon="-102.41631256654011"><ele>1880.0</ele><time>2026-03-22T14:29:55.01Z</time></trkpt><trkpt lat="21.75673954170207" lon="-102.41632721861433"><ele>1879.9999999999998</ele><time>2026-03-22T14:29:56.01Z</time></trkpt><trkpt lat="21.75683942229726" lon="-102.41634137549198"><ele>1880.0</ele><time>2026-03-22T14:29:57.01Z</time></trkpt><trkpt lat="21.756925213724394" lon="-102.41635276366424"><ele>1880.6666666666665</ele><time>2026-03-22T14:29:58.01Z</time></trkpt><trkpt lat="21.757011898520958" lon="-102.41636536032065"><ele>1881.3333333333333</ele><time>2026-03-22T14:29:59.01Z</time></trkpt><trkpt lat="21.75709756879924" lon="-102.41637796903"><ele>1882.0</ele><time>2026-03-22T14:30:00.01Z</time></trkpt><trkpt lat="21.757177406813998" lon="-102.41638948670088"><ele>1882.6666666666665</ele><time>2026-03-22T14:30:01.01Z</time></trkpt><trkpt lat="21.7572632186215" lon="-102.41640328254852"><ele>1883.3333333333333</ele><time>2026-03-22T14:30:02.01Z</time></trkpt><trkpt lat="21.75735114941346" lon="-102.41642043189862"><ele>1884.0</ele><time>2026-03-22T14:30:03.01Z</time></trkpt><trkpt lat="21.757430702842946" lon="-102.41643039841354"><ele>1884.0</ele><time>2026-03-22T14:30:04.01Z</time></trkpt><trkpt lat="21.75752171077738" lon="-102.41644092201078"><ele>1884.0</ele><time>2026-03-22T14:30:05.01Z</time></trkpt><trkpt lat="21.75760265308925" lon="-102.41644726655213"><ele>1884.0</ele><time>2026-03-22T14:30:06.01Z</time></trkpt><trkpt lat="21.757686025396364" lon="-102.41645670908972"><ele>1884.0</ele><time>2026-03-22T14:30:07.01Z</time></trkpt><trkpt lat="21.757767864231276" lon="-102.41646434799256"><ele>1884.0</ele><time>2026-03-22T14:30:08.01Z</time></trkpt><trkpt lat="21.757848039737333" lon="-102.41647660864676"><ele>1884.0</ele><time>2026-03-22T14:30:09.01Z</time></trkpt><trkpt lat="21.757932062895787" lon="-102.41648520584947"><ele>1884.3333333333333</ele><time>2026-03-22T14:30:10.01Z</time></trkpt><trkpt lat="21.758013523440713" lon="-102.41649746356244"><ele>1884.6666666666665</ele><time>2026-03-22T14:30:11.01Z</time></trkpt><trkpt lat="21.758100912961467" lon="-102.41651596738896"><ele>1885.0</ele><time>2026-03-22T14:30:12.01Z</time></trkpt><trkpt lat="21.75818549143611" lon="-102.41652630420258"><ele>1885.3333333333333</ele><time>2026-03-22T14:30:13.01Z</time></trkpt><trkpt lat="21.758269786675065" lon="-102.41653878732878"><ele>1885.6666666666665</ele><time>2026-03-22T14:30:14.01Z</time></trkpt><trkpt lat="21.758361374003325" lon="-102.41655325208008"><ele>1886.0</ele><time>2026-03-22T14:30:15.01Z</time></trkpt><trkpt lat="21.758444459897" lon="-102.4165667015388"><ele>1886.0</ele><time>2026-03-22T14:30:16.01Z</time></trkpt><trkpt lat="21.758532481717857" lon="-102.41658662182"><ele>1886.0</ele><time>2026-03-22T14:30:17.009Z</time></trkpt><trkpt lat="21.758621927104667" lon="-102.41660771599017"><ele>1886.0</ele><time>2026-03-22T14:30:18.009Z</time></trkpt><trkpt lat="21.75871157623346" lon="-102.41663661179338"><ele>1886.0</ele><time>2026-03-22T14:30:19.009Z</time></trkpt><trkpt lat="21.758795982299336" lon="-102.4166624736382"><ele>1886.0</ele><time>2026-03-22T14:30:20.009Z</time></trkpt><trkpt lat="21.75887926631327" lon="-102.41669505820485"><ele>1886.1666666666665</ele><time>2026-03-22T14:30:21.009Z</time></trkpt><trkpt lat="21.758958081349714" lon="-102.4167268724268"><ele>1886.3333333333333</ele><time>2026-03-22T14:30:22.009Z</time></trkpt><trkpt lat="21.759035768211543" lon="-102.41675998246214"><ele>1886.5</ele><time>2026-03-22T14:30:23.009Z</time></trkpt><trkpt lat="21.7591220057676" lon="-102.4168032471325"><ele>1886.6666666666665</ele><time>2026-03-22T14:30:24.009Z</time></trkpt><trkpt lat="21.75921479449818" lon="-102.41684321036587"><ele>1886.8333333333333</ele><time>2026-03-22T14:30:25.009Z</time></trkpt><trkpt lat="21.75929124859508" lon="-102.41688144539253"><ele>1887.0</ele><time>2026-03-22T14:30:26.009Z</time></trkpt><trkpt lat="21.75936939821509" lon="-102.41692473740233"><ele>1887.3333333333333</ele><time>2026-03-22T14:30:27.009Z</time></trkpt><trkpt lat="21.759443422267264" lon="-102.41696108309083"><ele>1887.6666666666665</ele><time>2026-03-22T14:30:28.009Z</time></trkpt><trkpt lat="21.759522678130605" lon="-102.4170091564474"><ele>1888.0</ele><time>2026-03-22T14:30:29.009Z</time></trkpt><trkpt lat="21.759589972209312" lon="-102.41705195509117"><ele>1888.3333333333333</ele><time>2026-03-22T14:30:30.009Z</time></trkpt><trkpt lat="21.759659051887557" lon="-102.41710133188464"><ele>1888.6666666666665</ele><time>2026-03-22T14:30:31.009Z</time></trkpt><trkpt lat="21.75972941933137" lon="-102.41715095267749"><ele>1889.0</ele><time>2026-03-22T14:30:32.009Z</time></trkpt><trkpt lat="21.75980052245382" lon="-102.41719421401677"><ele>1888.9999999999998</ele><time>2026-03-22T14:30:33.009Z</time></trkpt><trkpt lat="21.75986677468052" lon="-102.41724391585748"><ele>1889.0</ele><time>2026-03-22T14:30:34.009Z</time></trkpt><trkpt lat="21.75993450831431" lon="-102.41729066411088"><ele>1889.0</ele><time>2026-03-22T14:30:35.009Z</time></trkpt><trkpt lat="21.760007391948733" lon="-102.41733893327364"><ele>1889.0</ele><time>2026-03-22T14:30:36.009Z</time></trkpt><trkpt lat="21.760075987231655" lon="-102.41739498461577"><ele>1888.9999999999998</ele><time>2026-03-22T14:30:37.009Z</time></trkpt><trkpt lat="21.760148077559368" lon="-102.41744898064331"><ele>1889.0</ele><time>2026-03-22T14:30:38.009Z</time></trkpt><trkpt lat="21.760220124925414" lon="-102.41750475492881"><ele>1889.0</ele><time>2026-03-22T14:30:39.009Z</time></trkpt><trkpt lat="21.760292050539597" lon="-102.41756285693965"><ele>1889.0</ele><time>2026-03-22T14:30:40.009Z</time></trkpt><trkpt lat="21.760364603734818" lon="-102.41762742548293"><ele>1889.0</ele><time>2026-03-22T14:30:41.009Z</time></trkpt><trkpt lat="21.760433464963757" lon="-102.4176969365829"><ele>1889.0</ele><time>2026-03-22T14:30:42.009Z</time></trkpt><trkpt lat="21.760504445889435" lon="-102.4177662475114"><ele>1889.0</ele><time>2026-03-22T14:30:43.009Z</time></trkpt><trkpt lat="21.76057213006833" lon="-102.41784489028956"><ele>1889.0</ele><time>2026-03-22T14:30:44.009Z</time></trkpt><trkpt lat="21.760647946540583" lon="-102.41792049641846"><ele>1889.0</ele><time>2026-03-22T14:30:45.009Z</time></trkpt><trkpt lat="21.760715856201763" lon="-102.41799897338521"><ele>1889.0</ele><time>2026-03-22T14:30:46.009Z</time></trkpt><trkpt lat="21.76078340801426" lon="-102.418083763632"><ele>1889.0</ele><time>2026-03-22T14:30:47.009Z</time></trkpt><trkpt lat="21.76084624993782" lon="-102.418163919195"><ele>1889.0</ele><time>2026-03-22T14:30:48.009Z</time></trkpt><trkpt lat="21.760910171558983" lon="-102.41825570357618"><ele>1889.0</ele><time>2026-03-22T14:30:49.009Z</time></trkpt><trkpt lat="21.76096919425851" lon="-102.41833496930097"><ele>1889.0</ele><time>2026-03-22T14:30:50.009Z</time></trkpt><trkpt lat="21.761025862978112" lon="-102.41841508217604"><ele>1889.0</ele><time>2026-03-22T14:30:51.009Z</time></trkpt><trkpt lat="21.761082387891488" lon="-102.41849654468858"><ele>1889.0</ele><time>2026-03-22T14:30:52.009Z</time></trkpt><trkpt lat="21.76114150705508" lon="-102.41857453260805"><ele>1889.0</ele><time>2026-03-22T14:30:53.009Z</time></trkpt><trkpt lat="21.761199570892447" lon="-102.41865571520209"><ele>1889.2</ele><time>2026-03-22T14:30:54.009Z</time></trkpt><trkpt lat="21.76125867745576" lon="-102.41873612246175"><ele>1889.4</ele><time>2026-03-22T14:30:55.009Z</time></trkpt><trkpt lat="21.761315390997037" lon="-102.41882165075897"><ele>1889.6</ele><time>2026-03-22T14:30:56.009Z</time></trkpt><trkpt lat="21.761375486647115" lon="-102.41891264317802"><ele>1889.8</ele><time>2026-03-22T14:30:57.009Z</time></trkpt><trkpt lat="21.761444306042772" lon="-102.41900862831727"><ele>1890.0</ele><time>2026-03-22T14:30:58.009Z</time></trkpt><trkpt lat="21.761507106099565" lon="-102.41909539499326"><ele>1890.4</ele><time>2026-03-22T14:30:59.009Z</time></trkpt><trkpt lat="21.76157617902595" lon="-102.4191842203295"><ele>1890.8</ele><time>2026-03-22T14:31:00.009Z</time></trkpt><trkpt lat="21.761641346659317" lon="-102.41927261413063"><ele>1891.1999999999998</ele><time>2026-03-22T14:31:01.009Z</time></trkpt><trkpt lat="21.76170699874994" lon="-102.41934681748575"><ele>1891.6</ele><time>2026-03-22T14:31:02.009Z</time></trkpt><trkpt lat="21.76177779753151" lon="-102.41942538485024"><ele>1892.0</ele><time>2026-03-22T14:31:03.009Z</time></trkpt><trkpt lat="21.761844092480576" lon="-102.4194948700954"><ele>1892.1999999999998</ele><time>2026-03-22T14:31:04.009Z</time></trkpt><trkpt lat="21.761916693640522" lon="-102.4195643002625"><ele>1892.3999999999999</ele><time>2026-03-22T14:31:05.009Z</time></trkpt><trkpt lat="21.761989660112963" lon="-102.41962537582336"><ele>1892.6000000000001</ele><time>2026-03-22T14:31:06.009Z</time></trkpt><trkpt lat="21.7620632601583" lon="-102.41968863775608"><ele>1892.8000000000002</ele><time>2026-03-22T14:31:07.009Z</time></trkpt><trkpt lat="21.762144487606697" lon="-102.41975202853637"><ele>1893.0</ele><time>2026-03-22T14:31:08.009Z</time></trkpt><trkpt lat="21.762220603792493" lon="-102.41980477452285"><ele>1893.0</ele><time>2026-03-22T14:31:09.009Z</time></trkpt><trkpt lat="21.76229750066256" lon="-102.41985553278056"><ele>1893.0000000000002</ele><time>2026-03-22T14:31:10.009Z</time></trkpt><trkpt lat="21.762373446136017" lon="-102.41990671777302"><ele>1893.0000000000002</ele><time>2026-03-22T14:31:11.009Z</time></trkpt><trkpt lat="21.76245933736678" lon="-102.41995907113301"><ele>1893.0</ele><time>2026-03-22T14:31:12.009Z</time></trkpt><trkpt lat="21.762534061335373" lon="-102.42000186307003"><ele>1893.0</ele><time>2026-03-22T14:31:13.009Z</time></trkpt><trkpt lat="21.762622091117034" lon="-102.42004899283336"><ele>1893.6000000000001</ele><time>2026-03-22T14:31:14.009Z</time></trkpt><trkpt lat="21.762711392492005" lon="-102.42009419180981"><ele>1894.2000000000003</ele><time>2026-03-22T14:31:15.009Z</time></trkpt><trkpt lat="21.762793577385416" lon="-102.42012595689084"><ele>1894.8</ele><time>2026-03-22T14:31:16.009Z</time></trkpt><trkpt lat="21.762889440430946" lon="-102.42016052078986"><ele>1895.4</ele><time>2026-03-22T14:31:17.009Z</time></trkpt><trkpt lat="21.762984876757674" lon="-102.42018991017815"><ele>1896.0</ele><time>2026-03-22T14:31:18.009Z</time></trkpt><trkpt lat="21.76306793152179" lon="-102.420208750045"><ele>1896.0</ele><time>2026-03-22T14:31:19.009Z</time></trkpt><trkpt lat="21.763158874566532" lon="-102.42023248901017"><ele>1896.0</ele><time>2026-03-22T14:31:20.009Z</time></trkpt><trkpt lat="21.763250548891186" lon="-102.42024929754226"><ele>1896.0</ele><time>2026-03-22T14:31:21.009Z</time></trkpt><trkpt lat="21.763341268937182" lon="-102.42026655800493"><ele>1896.0</ele><time>2026-03-22T14:31:22.009Z</time></trkpt><trkpt lat="21.76342509068647" lon="-102.42027130199331"><ele>1896.0</ele><time>2026-03-22T14:31:23.009Z</time></trkpt><trkpt lat="21.76352331083858" lon="-102.42028653224939"><ele>1895.6666666666667</ele><time>2026-03-22T14:31:24.009Z</time></trkpt><trkpt lat="21.763614786313163" lon="-102.42029185055597"><ele>1895.3333333333335</ele><time>2026-03-22T14:31:25.009Z</time></trkpt><trkpt lat="21.763702246688116" lon="-102.4202868672195"><ele>1895.0</ele><time>2026-03-22T14:31:26.009Z</time></trkpt><trkpt lat="21.763789862848252" lon="-102.42028332695136"><ele>1894.6666666666667</ele><time>2026-03-22T14:31:27.009Z</time></trkpt><trkpt lat="21.763875310769684" lon="-102.42027984366679"><ele>1894.3333333333335</ele><time>2026-03-22T14:31:28.009Z</time></trkpt><trkpt lat="21.763959422957633" lon="-102.42027732206704"><ele>1894.0</ele><time>2026-03-22T14:31:29.009Z</time></trkpt><trkpt lat="21.76405261963702" lon="-102.42026837263327"><ele>1894.0000000000002</ele><time>2026-03-22T14:31:30.009Z</time></trkpt><trkpt lat="21.764137092989333" lon="-102.42026196282131"><ele>1894.0</ele><time>2026-03-22T14:31:31.01Z</time></trkpt><trkpt lat="21.764218076146097" lon="-102.4202547735317"><ele>1894.0</ele><time>2026-03-22T14:31:32.01Z</time></trkpt><trkpt lat="21.764296926940084" lon="-102.42024933662687"><ele>1894.0</ele><time>2026-03-22T14:31:33.01Z</time></trkpt><trkpt lat="21.764380393170143" lon="-102.420244023341"><ele>1894.0000000000002</ele><time>2026-03-22T14:31:34.01Z</time></trkpt><trkpt lat="21.764468434492624" lon="-102.42023685072913"><ele>1894.0</ele><time>2026-03-22T14:31:35.01Z</time></trkpt><trkpt lat="21.76455218293463" lon="-102.42022546265815"><ele>1894.1666666666667</ele><time>2026-03-22T14:31:36.01Z</time></trkpt><trkpt lat="21.764628216778817" lon="-102.4202191902546"><ele>1894.3333333333335</ele><time>2026-03-22T14:31:37.01Z</time></trkpt><trkpt lat="21.764705504335467" lon="-102.42020847956779"><ele>1894.5</ele><time>2026-03-22T14:31:38.009Z</time></trkpt><trkpt lat="21.764784671560456" lon="-102.42020218195857"><ele>1894.6666666666665</ele><time>2026-03-22T14:31:39.009Z</time></trkpt><trkpt lat="21.764866862914698" lon="-102.42019833974015"><ele>1894.8333333333333</ele><time>2026-03-22T14:31:40.01Z</time></trkpt><trkpt lat="21.764943061894346" lon="-102.42019074815072"><ele>1895.0</ele><time>2026-03-22T14:31:41.009Z</time></trkpt><trkpt lat="21.76502260360946" lon="-102.42018765604243"><ele>1894.9999999999998</ele><time>2026-03-22T14:31:42.009Z</time></trkpt><trkpt lat="21.76510652038549" lon="-102.42018543598495"><ele>1895.0</ele><time>2026-03-22T14:31:43.01Z</time></trkpt><trkpt lat="21.76518469262893" lon="-102.42018067074557"><ele>1895.0</ele><time>2026-03-22T14:31:44.01Z</time></trkpt><trkpt lat="21.765263759856573" lon="-102.42017344013593"><ele>1895.0</ele><time>2026-03-22T14:31:45.01Z</time></trkpt><trkpt lat="21.76534143275915" lon="-102.42016845002544"><ele>1894.9999999999998</ele><time>2026-03-22T14:31:46.01Z</time></trkpt><trkpt lat="21.76542015855262" lon="-102.42016157960646"><ele>1895.0</ele><time>2026-03-22T14:31:47.01Z</time></trkpt><trkpt lat="21.76549653614569" lon="-102.42015218120125"><ele>1895.3333333333333</ele><time>2026-03-22T14:31:48.01Z</time></trkpt><trkpt lat="21.765583968965498" lon="-102.4201462881819"><ele>1895.6666666666665</ele><time>2026-03-22T14:31:49.01Z</time></trkpt><trkpt lat="21.76565762925841" lon="-102.42013506416822"><ele>1896.0</ele><time>2026-03-22T14:31:50.01Z</time></trkpt><trkpt lat="21.765739351474323" lon="-102.42012643389685"><ele>1896.3333333333335</ele><time>2026-03-22T14:31:51.01Z</time></trkpt><trkpt lat="21.765817303898217" lon="-102.4201188391597"><ele>1896.6666666666667</ele><time>2026-03-22T14:31:52.01Z</time></trkpt><trkpt lat="21.765900808105847" lon="-102.42011357745722"><ele>1897.0</ele><time>2026-03-22T14:31:53.01Z</time></trkpt><trkpt lat="21.765983398656807" lon="-102.42010743825033"><ele>1897.3333333333335</ele><time>2026-03-22T14:31:54.01Z</time></trkpt><trkpt lat="21.7660552086216" lon="-102.42010122290417"><ele>1897.6666666666667</ele><time>2026-03-22T14:31:55.01Z</time></trkpt><trkpt lat="21.766186069133603" lon="-102.42010767334769"><ele>1898.0</ele><time>2026-03-22T14:31:57.01Z</time></trkpt><trkpt lat="21.766260520349388" lon="-102.4201227302846"><ele>1898.3333333333335</ele><time>2026-03-22T14:31:58.01Z</time></trkpt><trkpt lat="21.76633993383936" lon="-102.42012138965859"><ele>1898.6666666666667</ele><time>2026-03-22T14:31:59.01Z</time></trkpt><trkpt lat="21.76642295577757" lon="-102.42013006683833"><ele>1899.0</ele><time>2026-03-22T14:32:00.01Z</time></trkpt><trkpt lat="21.766507266414177" lon="-102.42013823423699"><ele>1899.0</ele><time>2026-03-22T14:32:01.01Z</time></trkpt><trkpt lat="21.766586926312442" lon="-102.4201444622838"><ele>1899.0</ele><time>2026-03-22T14:32:02.01Z</time></trkpt><trkpt lat="21.766670710519772" lon="-102.42016370208412"><ele>1899.0</ele><time>2026-03-22T14:32:03.01Z</time></trkpt><trkpt lat="21.76675003492755" lon="-102.42018539419333"><ele>1899.0</ele><time>2026-03-22T14:32:04.01Z</time></trkpt><trkpt lat="21.76683095361541" lon="-102.4202095611393"><ele>1899.0</ele><time>2026-03-22T14:32:05.01Z</time></trkpt><trkpt lat="21.766910307337643" lon="-102.42023814877405"><ele>1899.0</ele><time>2026-03-22T14:32:06.01Z</time></trkpt><trkpt lat="21.766985170181076" lon="-102.42026522471075"><ele>1899.5</ele><time>2026-03-22T14:32:07.01Z</time></trkpt><trkpt lat="21.767060096480726" lon="-102.42029294253418"><ele>1900.0</ele><time>2026-03-22T14:32:08.01Z</time></trkpt><trkpt lat="21.7671373139128" lon="-102.42033064544962"><ele>1900.5</ele><time>2026-03-22T14:32:09.01Z</time></trkpt><trkpt lat="21.767212418778957" lon="-102.4203593178989"><ele>1901.0</ele><time>2026-03-22T14:32:10.01Z</time></trkpt><trkpt lat="21.76728506794496" lon="-102.42039186201286"><ele>1901.5</ele><time>2026-03-22T14:32:11.01Z</time></trkpt><trkpt lat="21.767360586361534" lon="-102.42042120410325"><ele>1902.0</ele><time>2026-03-22T14:32:12.01Z</time></trkpt><trkpt lat="21.767436139403898" lon="-102.42045019319025"><ele>1902.0</ele><time>2026-03-22T14:32:13.01Z</time></trkpt><trkpt lat="21.767516758700427" lon="-102.42048199549615"><ele>1902.0</ele><time>2026-03-22T14:32:14.01Z</time></trkpt><trkpt lat="21.76759507292087" lon="-102.42051167244354"><ele>1902.0</ele><time>2026-03-22T14:32:15.01Z</time></trkpt><trkpt lat="21.76767045425222" lon="-102.42053629233139"><ele>1902.0</ele><time>2026-03-22T14:32:16.01Z</time></trkpt><trkpt lat="21.767745088270146" lon="-102.42056218980048"><ele>1902.0</ele><time>2026-03-22T14:32:17.01Z</time></trkpt><trkpt lat="21.767830109371303" lon="-102.4205867706776"><ele>1902.0</ele><time>2026-03-22T14:32:18.01Z</time></trkpt><trkpt lat="21.76792376245593" lon="-102.4206041045603"><ele>1901.6666666666667</ele><time>2026-03-22T14:32:19.01Z</time></trkpt><trkpt lat="21.76799887813117" lon="-102.42061130766399"><ele>1901.3333333333335</ele><time>2026-03-22T14:32:20.01Z</time></trkpt><trkpt lat="21.768086127630482" lon="-102.42062960447838"><ele>1901.0</ele><time>2026-03-22T14:32:21.01Z</time></trkpt><trkpt lat="21.768167083682236" lon="-102.42064077145407"><ele>1900.6666666666667</ele><time>2026-03-22T14:32:22.01Z</time></trkpt><trkpt lat="21.768246705134505" lon="-102.42065795200891"><ele>1900.3333333333335</ele><time>2026-03-22T14:32:23.01Z</time></trkpt><trkpt lat="21.768328573575143" lon="-102.42066464512222"><ele>1900.0</ele><time>2026-03-22T14:32:24.009Z</time></trkpt><trkpt lat="21.768414003429022" lon="-102.42066009807736"><ele>1900.0000000000002</ele><time>2026-03-22T14:32:25.009Z</time></trkpt><trkpt lat="21.768496223930498" lon="-102.42064983167872"><ele>1900.0</ele><time>2026-03-22T14:32:26.009Z</time></trkpt><trkpt lat="21.768596060468997" lon="-102.42064798678616"><ele>1900.0</ele><time>2026-03-22T14:32:27.009Z</time></trkpt><trkpt lat="21.76867860576086" lon="-102.42064432082987"><ele>1900.0</ele><time>2026-03-22T14:32:28.009Z</time></trkpt><trkpt lat="21.768764214495796" lon="-102.42064366276398"><ele>1900.0000000000002</ele><time>2026-03-22T14:32:29.009Z</time></trkpt><trkpt lat="21.7688543746877" lon="-102.42063660202137"><ele>1900.0</ele><time>2026-03-22T14:32:30.009Z</time></trkpt><trkpt lat="21.76894248068428" lon="-102.4206191997341"><ele>1900.0</ele><time>2026-03-22T14:32:31.009Z</time></trkpt><trkpt lat="21.769045404883673" lon="-102.4205980286627"><ele>1900.0</ele><time>2026-03-22T14:32:32.009Z</time></trkpt><trkpt lat="21.769134201166285" lon="-102.42057595886128"><ele>1900.0</ele><time>2026-03-22T14:32:33.009Z</time></trkpt><trkpt lat="21.769236384622097" lon="-102.42054874491606"><ele>1900.0</ele><time>2026-03-22T14:32:34.009Z</time></trkpt><trkpt lat="21.76932259792259" lon="-102.42051828386707"><ele>1900.0</ele><time>2026-03-22T14:32:35.009Z</time></trkpt><trkpt lat="21.769410025443868" lon="-102.42048178120564"><ele>1900.4</ele><time>2026-03-22T14:32:36.009Z</time></trkpt><trkpt lat="21.769493911704917" lon="-102.42045095807151"><ele>1900.8</ele><time>2026-03-22T14:32:37.009Z</time></trkpt><trkpt lat="21.76958959514414" lon="-102.42040733357807"><ele>1901.1999999999998</ele><time>2026-03-22T14:32:38.009Z</time></trkpt><trkpt lat="21.769664424047082" lon="-102.42036518592938"><ele>1901.6</ele><time>2026-03-22T14:32:39.009Z</time></trkpt><trkpt lat="21.769741607031087" lon="-102.42032060537719"><ele>1902.0</ele><time>2026-03-22T14:32:40.009Z</time></trkpt><trkpt lat="21.769822841190066" lon="-102.42026845974466"><ele>1902.0</ele><time>2026-03-22T14:32:41.009Z</time></trkpt><trkpt lat="21.769904816470312" lon="-102.42022251060222"><ele>1902.0</ele><time>2026-03-22T14:32:42.009Z</time></trkpt><trkpt lat="21.76997552594804" lon="-102.4201703756162"><ele>1902.0</ele><time>2026-03-22T14:32:43.009Z</time></trkpt><trkpt lat="21.770054236295085" lon="-102.42011862799929"><ele>1902.0</ele><time>2026-03-22T14:32:44.009Z</time></trkpt><trkpt lat="21.770127402798046" lon="-102.42007348752931"><ele>1902.0</ele><time>2026-03-22T14:32:45.009Z</time></trkpt><trkpt lat="21.77020357023379" lon="-102.42002178382681"><ele>1902.0</ele><time>2026-03-22T14:32:46.009Z</time></trkpt><trkpt lat="21.770276767132657" lon="-102.41997521930419"><ele>1902.0</ele><time>2026-03-22T14:32:47.009Z</time></trkpt><trkpt lat="21.770353835655897" lon="-102.4199214605855"><ele>1901.9999999999998</ele><time>2026-03-22T14:32:48.009Z</time></trkpt><trkpt lat="21.770427282819547" lon="-102.419873110046"><ele>1901.9999999999998</ele><time>2026-03-22T14:32:49.009Z</time></trkpt><trkpt lat="21.770508713576714" lon="-102.41982476304916"><ele>1902.0</ele><time>2026-03-22T14:32:50.009Z</time></trkpt><trkpt lat="21.770585774914284" lon="-102.41978025235136"><ele>1902.0</ele><time>2026-03-22T14:32:51.009Z</time></trkpt><trkpt lat="21.770666006782232" lon="-102.4197292355536"><ele>1902.0</ele><time>2026-03-22T14:32:52.009Z</time></trkpt><trkpt lat="21.77074383400614" lon="-102.41967760230989"><ele>1902.0</ele><time>2026-03-22T14:32:53.009Z</time></trkpt><trkpt lat="21.770817288904457" lon="-102.41962909405781"><ele>1902.0</ele><time>2026-03-22T14:32:54.009Z</time></trkpt><trkpt lat="21.770888255955345" lon="-102.41958908619281"><ele>1902.0</ele><time>2026-03-22T14:32:55.009Z</time></trkpt><trkpt lat="21.770966680827648" lon="-102.41954038214928"><ele>1902.0</ele><time>2026-03-22T14:32:56.009Z</time></trkpt><trkpt lat="21.77103574051485" lon="-102.41949682994091"><ele>1902.0</ele><time>2026-03-22T14:32:57.009Z</time></trkpt><trkpt lat="21.771107400996975" lon="-102.41944931629698"><ele>1902.6666666666667</ele><time>2026-03-22T14:32:58.009Z</time></trkpt><trkpt lat="21.77118752877884" lon="-102.41939853952788"><ele>1903.3333333333335</ele><time>2026-03-22T14:32:59.009Z</time></trkpt><trkpt lat="21.771264703562235" lon="-102.41935128864424"><ele>1904.0</ele><time>2026-03-22T14:33:00.009Z</time></trkpt><trkpt lat="21.77133822630472" lon="-102.41930273282979"><ele>1904.6666666666667</ele><time>2026-03-22T14:33:01.009Z</time></trkpt><trkpt lat="21.77140787248863" lon="-102.41925641243427"><ele>1905.3333333333335</ele><time>2026-03-22T14:33:02.009Z</time></trkpt><trkpt lat="21.771470203203492" lon="-102.4192123724254"><ele>1906.0</ele><time>2026-03-22T14:33:03.009Z</time></trkpt><trkpt lat="21.771543977751588" lon="-102.41916083002057"><ele>1906.0000000000002</ele><time>2026-03-22T14:33:04.009Z</time></trkpt><trkpt lat="21.771606636626" lon="-102.41912311252615"><ele>1906.0</ele><time>2026-03-22T14:33:05.009Z</time></trkpt><trkpt lat="21.771680303002633" lon="-102.419079236789"><ele>1906.0</ele><time>2026-03-22T14:33:06.009Z</time></trkpt><trkpt lat="21.771752268883386" lon="-102.41903645766192"><ele>1906.0</ele><time>2026-03-22T14:33:07.009Z</time></trkpt><trkpt lat="21.771820287866237" lon="-102.41899045147817"><ele>1906.0000000000002</ele><time>2026-03-22T14:33:08.009Z</time></trkpt><trkpt lat="21.771892279717836" lon="-102.4189461618095"><ele>1906.0</ele><time>2026-03-22T14:33:09.009Z</time></trkpt><trkpt lat="21.771960165956727" lon="-102.41890488659999"><ele>1906.0000000000002</ele><time>2026-03-22T14:33:10.009Z</time></trkpt><trkpt lat="21.772034178602752" lon="-102.41885715452575"><ele>1906.0</ele><time>2026-03-22T14:33:11.009Z</time></trkpt><trkpt lat="21.772103494275598" lon="-102.41881268704547"><ele>1906.0</ele><time>2026-03-22T14:33:12.009Z</time></trkpt><trkpt lat="21.77217453143574" lon="-102.41876828971454"><ele>1906.0</ele><time>2026-03-22T14:33:13.009Z</time></trkpt><trkpt lat="21.772244340266287" lon="-102.41872471699834"><ele>1906.0000000000002</ele><time>2026-03-22T14:33:14.009Z</time></trkpt><trkpt lat="21.77231770977779" lon="-102.41868076762145"><ele>1906.0</ele><time>2026-03-22T14:33:15.009Z</time></trkpt><trkpt lat="21.772386272364724" lon="-102.41863860596885"><ele>1906.6666666666667</ele><time>2026-03-22T14:33:16.009Z</time></trkpt><trkpt lat="21.772453830390806" lon="-102.41859217348859"><ele>1907.3333333333335</ele><time>2026-03-22T14:33:17.009Z</time></trkpt><trkpt lat="21.772527169453895" lon="-102.41854415989104"><ele>1908.0</ele><time>2026-03-22T14:33:18.009Z</time></trkpt><trkpt lat="21.7725948994595" lon="-102.41850208721567"><ele>1908.6666666666665</ele><time>2026-03-22T14:33:19.009Z</time></trkpt><trkpt lat="21.772676588044497" lon="-102.4184509601902"><ele>1909.3333333333333</ele><time>2026-03-22T14:33:20.009Z</time></trkpt><trkpt lat="21.772736939663517" lon="-102.4184221019833"><ele>1910.0</ele><time>2026-03-22T14:33:21.009Z</time></trkpt><trkpt lat="21.772823604048043" lon="-102.41837771672694"><ele>1910.1666666666665</ele><time>2026-03-22T14:33:22.009Z</time></trkpt><trkpt lat="21.77290143373902" lon="-102.41833096875368"><ele>1910.3333333333333</ele><time>2026-03-22T14:33:23.009Z</time></trkpt><trkpt lat="21.77296947934916" lon="-102.41828463546825"><ele>1910.5</ele><time>2026-03-22T14:33:24.009Z</time></trkpt><trkpt lat="21.773038985058633" lon="-102.41823800609106"><ele>1910.6666666666665</ele><time>2026-03-22T14:33:25.009Z</time></trkpt><trkpt lat="21.773114739304255" lon="-102.41819345211138"><ele>1910.8333333333333</ele><time>2026-03-22T14:33:26.009Z</time></trkpt><trkpt lat="21.773186805883157" lon="-102.41814440689843"><ele>1911.0</ele><time>2026-03-22T14:33:27.009Z</time></trkpt><trkpt lat="21.77325832579437" lon="-102.41809782517177"><ele>1911.0</ele><time>2026-03-22T14:33:28.009Z</time></trkpt><trkpt lat="21.77333467455843" lon="-102.4180496406844"><ele>1911.0</ele><time>2026-03-22T14:33:29.009Z</time></trkpt><trkpt lat="21.773404848572554" lon="-102.41801083087171"><ele>1911.0</ele><time>2026-03-22T14:33:30.009Z</time></trkpt><trkpt lat="21.773477806404706" lon="-102.41796317373418"><ele>1911.0</ele><time>2026-03-22T14:33:31.009Z</time></trkpt><trkpt lat="21.773548347410237" lon="-102.41791868723064"><ele>1911.0</ele><time>2026-03-22T14:33:32.009Z</time></trkpt><trkpt lat="21.773613717701753" lon="-102.41787695360654"><ele>1911.0</ele><time>2026-03-22T14:33:33.009Z</time></trkpt><trkpt lat="21.77368518189221" lon="-102.41783928778527"><ele>1911.5</ele><time>2026-03-22T14:33:34.009Z</time></trkpt><trkpt lat="21.773752402857767" lon="-102.41779841162533"><ele>1912.0</ele><time>2026-03-22T14:33:35.009Z</time></trkpt><trkpt lat="21.77382183596409" lon="-102.41775918298633"><ele>1912.5</ele><time>2026-03-22T14:33:36.009Z</time></trkpt><trkpt lat="21.773893606026725" lon="-102.41771973431212"><ele>1913.0</ele><time>2026-03-22T14:33:37.01Z</time></trkpt><trkpt lat="21.77395928027093" lon="-102.41767949885377"><ele>1913.5</ele><time>2026-03-22T14:33:38.01Z</time></trkpt><trkpt lat="21.77403450664299" lon="-102.41763716955892"><ele>1914.0</ele><time>2026-03-22T14:33:39.01Z</time></trkpt><trkpt lat="21.77409401487389" lon="-102.41759955693715"><ele>1914.0</ele><time>2026-03-22T14:33:40.01Z</time></trkpt><trkpt lat="21.774158966778664" lon="-102.41755025323423"><ele>1914.0</ele><time>2026-03-22T14:33:41.01Z</time></trkpt><trkpt lat="21.77423570335708" lon="-102.41751289924825"><ele>1914.0</ele><time>2026-03-22T14:33:42.01Z</time></trkpt><trkpt lat="21.774308931468084" lon="-102.41746613580939"><ele>1914.0</ele><time>2026-03-22T14:33:43.01Z</time></trkpt><trkpt lat="21.774377433091047" lon="-102.41741333211314"><ele>1914.0</ele><time>2026-03-22T14:33:44.01Z</time></trkpt><trkpt lat="21.774448378783593" lon="-102.41735495929689"><ele>1914.0</ele><time>2026-03-22T14:33:45.01Z</time></trkpt><trkpt lat="21.774505538355243" lon="-102.41729271895979"><ele>1914.0</ele><time>2026-03-22T14:33:46.01Z</time></trkpt><trkpt lat="21.774560811423335" lon="-102.41722863854514"><ele>1914.0</ele><time>2026-03-22T14:33:47.01Z</time></trkpt><trkpt lat="21.77461424940014" lon="-102.41715329251454"><ele>1914.0</ele><time>2026-03-22T14:33:48.01Z</time></trkpt><trkpt lat="21.774665324712238" lon="-102.41707270431284"><ele>1914.0</ele><time>2026-03-22T14:33:49.01Z</time></trkpt><trkpt lat="21.774695881269665" lon="-102.41699980378775"><ele>1914.0</ele><time>2026-03-22T14:33:50.01Z</time></trkpt><trkpt lat="21.774719995274168" lon="-102.41690341667444"><ele>1914.0</ele><time>2026-03-22T14:33:51.01Z</time></trkpt><trkpt lat="21.774744742506144" lon="-102.41681769350984"><ele>1914.0</ele><time>2026-03-22T14:33:52.01Z</time></trkpt><trkpt lat="21.77477203546379" lon="-102.41673696004209"><ele>1914.0</ele><time>2026-03-22T14:33:53.01Z</time></trkpt><trkpt lat="21.774795507965464" lon="-102.41665094012973"><ele>1914.0</ele><time>2026-03-22T14:33:54.01Z</time></trkpt><trkpt lat="21.77482072333539" lon="-102.41656740927475"><ele>1914.0</ele><time>2026-03-22T14:33:55.01Z</time></trkpt><trkpt lat="21.77484279994447" lon="-102.41648867703331"><ele>1914.0</ele><time>2026-03-22T14:33:56.01Z</time></trkpt><trkpt lat="21.77486823114836" lon="-102.41640516834708"><ele>1914.0</ele><time>2026-03-22T14:33:57.01Z</time></trkpt><trkpt lat="21.77489218618229" lon="-102.41632802678421"><ele>1914.0</ele><time>2026-03-22T14:33:58.01Z</time></trkpt><trkpt lat="21.77492345543422" lon="-102.41625562111345"><ele>1914.0000000000002</ele><time>2026-03-22T14:33:59.01Z</time></trkpt><trkpt lat="21.77495000204793" lon="-102.41618484871074"><ele>1914.0</ele><time>2026-03-22T14:34:00.01Z</time></trkpt><trkpt lat="21.77496654572311" lon="-102.41611633824125"><ele>1914.0</ele><time>2026-03-22T14:34:01.01Z</time></trkpt><trkpt lat="21.77499180011765" lon="-102.41603918550918"><ele>1914.0000000000002</ele><time>2026-03-22T14:34:02.01Z</time></trkpt><trkpt lat="21.77503084679678" lon="-102.41597125669269"><ele>1914.0</ele><time>2026-03-22T14:34:03.01Z</time></trkpt><trkpt lat="21.775074793756826" lon="-102.41589717738725"><ele>1914.0</ele><time>2026-03-22T14:34:04.01Z</time></trkpt><trkpt lat="21.77512241214894" lon="-102.41583425952061"><ele>1914.0</ele><time>2026-03-22T14:34:05.01Z</time></trkpt><trkpt lat="21.775182075342684" lon="-102.41577345751254"><ele>1914.0</ele><time>2026-03-22T14:34:06.01Z</time></trkpt><trkpt lat="21.77524982697671" lon="-102.41571420213516"><ele>1914.0</ele><time>2026-03-22T14:34:07.01Z</time></trkpt><trkpt lat="21.775317197238287" lon="-102.41566764118934"><ele>1914.0</ele><time>2026-03-22T14:34:08.01Z</time></trkpt><trkpt lat="21.775383474305624" lon="-102.41562240674254"><ele>1914.0</ele><time>2026-03-22T14:34:09.01Z</time></trkpt><trkpt lat="21.77545187296406" lon="-102.41557083030425"><ele>1914.0</ele><time>2026-03-22T14:34:10.01Z</time></trkpt><trkpt lat="21.775521734616962" lon="-102.41552060546728"><ele>1914.3333333333333</ele><time>2026-03-22T14:34:11.01Z</time></trkpt><trkpt lat="21.77558576194628" lon="-102.41547346212319"><ele>1914.6666666666665</ele><time>2026-03-22T14:34:12.01Z</time></trkpt><trkpt lat="21.77566213411709" lon="-102.41542049493692"><ele>1915.0</ele><time>2026-03-22T14:34:13.01Z</time></trkpt><trkpt lat="21.77573410513421" lon="-102.4153677513296"><ele>1915.3333333333333</ele><time>2026-03-22T14:34:14.01Z</time></trkpt><trkpt lat="21.775804555854897" lon="-102.41531460429019"><ele>1915.6666666666665</ele><time>2026-03-22T14:34:15.01Z</time></trkpt><trkpt lat="21.775872411985965" lon="-102.41527005910493"><ele>1916.0</ele><time>2026-03-22T14:34:16.01Z</time></trkpt><trkpt lat="21.775948159379467" lon="-102.4152097398601"><ele>1915.6666666666665</ele><time>2026-03-22T14:34:17.01Z</time></trkpt><trkpt lat="21.776030007577727" lon="-102.41514419789215"><ele>1915.3333333333333</ele><time>2026-03-22T14:34:18.01Z</time></trkpt><trkpt lat="21.776098412334925" lon="-102.41508807128055"><ele>1915.0</ele><time>2026-03-22T14:34:19.01Z</time></trkpt><trkpt lat="21.77615771654483" lon="-102.41503721958796"><ele>1914.6666666666665</ele><time>2026-03-22T14:34:20.008Z</time></trkpt><trkpt lat="21.776223184468083" lon="-102.414986269774"><ele>1914.3333333333333</ele><time>2026-03-22T14:34:21.007Z</time></trkpt><trkpt lat="21.776293501775097" lon="-102.4149349152823"><ele>1914.0</ele><time>2026-03-22T14:34:22.006Z</time></trkpt><trkpt lat="21.77636315942911" lon="-102.41488014148096"><ele>1914.0</ele><time>2026-03-22T14:34:23.005Z</time></trkpt><trkpt lat="21.7764229932947" lon="-102.41482567220179"><ele>1914.0</ele><time>2026-03-22T14:34:24.004Z</time></trkpt><trkpt lat="21.776478697211132" lon="-102.41478016463371"><ele>1914.0</ele><time>2026-03-22T14:34:25.003Z</time></trkpt><trkpt lat="21.776536501407726" lon="-102.41473448912221"><ele>1914.0</ele><time>2026-03-22T14:34:26.002Z</time></trkpt><trkpt lat="21.77660050604262" lon="-102.41468669016834"><ele>1914.0</ele><time>2026-03-22T14:34:27.001Z</time></trkpt><trkpt lat="21.776669623856446" lon="-102.4146353347818"><ele>1914.0</ele><time>2026-03-22T14:34:28Z</time></trkpt><trkpt lat="21.776730566938962" lon="-102.41458198680354"><ele>1914.3333333333333</ele><time>2026-03-22T14:34:29Z</time></trkpt><trkpt lat="21.776792396742863" lon="-102.41453232293094"><ele>1914.6666666666665</ele><time>2026-03-22T14:34:29.999Z</time></trkpt><trkpt lat="21.77685859228747" lon="-102.41448367434695"><ele>1915.0</ele><time>2026-03-22T14:34:30.998Z</time></trkpt><trkpt lat="21.776926142205934" lon="-102.41443655336474"><ele>1915.3333333333333</ele><time>2026-03-22T14:34:31.998Z</time></trkpt><trkpt lat="21.776984383432218" lon="-102.41439293026112"><ele>1915.6666666666665</ele><time>2026-03-22T14:34:32.997Z</time></trkpt><trkpt lat="21.777048869086627" lon="-102.41433627524502"><ele>1916.0</ele><time>2026-03-22T14:34:33.997Z</time></trkpt><trkpt lat="21.777121401143482" lon="-102.41429069430474"><ele>1915.9999999999998</ele><time>2026-03-22T14:34:34.996Z</time></trkpt><trkpt lat="21.777190319044156" lon="-102.41424009502418"><ele>1916.0</ele><time>2026-03-22T14:34:35.996Z</time></trkpt><trkpt lat="21.777255846688245" lon="-102.41418892432212"><ele>1916.0</ele><time>2026-03-22T14:34:36.995Z</time></trkpt><trkpt lat="21.777322595925078" lon="-102.41414020938915"><ele>1916.0</ele><time>2026-03-22T14:34:37.995Z</time></trkpt><trkpt lat="21.77738447773564" lon="-102.41409577784036"><ele>1915.9999999999998</ele><time>2026-03-22T14:34:38.994Z</time></trkpt><trkpt lat="21.777451266072735" lon="-102.4140481016084"><ele>1916.0</ele><time>2026-03-22T14:34:39.994Z</time></trkpt><trkpt lat="21.77752327927545" lon="-102.41400217821631"><ele>1915.9999999999998</ele><time>2026-03-22T14:34:40.994Z</time></trkpt><trkpt lat="21.777586280831265" lon="-102.41395380712795"><ele>1916.0</ele><time>2026-03-22T14:34:41.993Z</time></trkpt><trkpt lat="21.77765267728884" lon="-102.41390288275667"><ele>1916.0</ele><time>2026-03-22T14:34:42.993Z</time></trkpt><trkpt lat="21.777712723516935" lon="-102.41385122380343"><ele>1916.0</ele><time>2026-03-22T14:34:43.993Z</time></trkpt><trkpt lat="21.77777705778628" lon="-102.41380197379057"><ele>1915.9999999999998</ele><time>2026-03-22T14:34:44.992Z</time></trkpt><trkpt lat="21.77783981275189" lon="-102.41375465776308"><ele>1916.0</ele><time>2026-03-22T14:34:45.992Z</time></trkpt><trkpt lat="21.777905919117213" lon="-102.41370245942721"><ele>1916.4999999999998</ele><time>2026-03-22T14:34:46.992Z</time></trkpt><trkpt lat="21.77797553546634" lon="-102.41365769694059"><ele>1917.0</ele><time>2026-03-22T14:34:47.992Z</time></trkpt><trkpt lat="21.7780384118995" lon="-102.41360631866931"><ele>1917.5</ele><time>2026-03-22T14:34:48.991Z</time></trkpt><trkpt lat="21.778102628329243" lon="-102.41355526171228"><ele>1918.0</ele><time>2026-03-22T14:34:49.991Z</time></trkpt><trkpt lat="21.778174525393784" lon="-102.4135096675379"><ele>1918.4999999999998</ele><time>2026-03-22T14:34:50.991Z</time></trkpt><trkpt lat="21.77822981461592" lon="-102.41346153417875"><ele>1919.0</ele><time>2026-03-22T14:34:51.991Z</time></trkpt><trkpt lat="21.778301841129295" lon="-102.41340657789215"><ele>1918.9999999999998</ele><time>2026-03-22T14:34:52.991Z</time></trkpt><trkpt lat="21.778356241332343" lon="-102.41335685814222"><ele>1919.0</ele><time>2026-03-22T14:34:53.991Z</time></trkpt><trkpt lat="21.778420869547332" lon="-102.41330095465581"><ele>1919.0</ele><time>2026-03-22T14:34:54.99Z</time></trkpt><trkpt lat="21.778490169459115" lon="-102.41326085281285"><ele>1919.0</ele><time>2026-03-22T14:34:55.99Z</time></trkpt><trkpt lat="21.778565335585224" lon="-102.4131978256252"><ele>1918.9999999999998</ele><time>2026-03-22T14:34:56.99Z</time></trkpt><trkpt lat="21.77863426959091" lon="-102.41313850102757"><ele>1919.0</ele><time>2026-03-22T14:34:57.99Z</time></trkpt><trkpt lat="21.778700367459056" lon="-102.41309039717403"><ele>1918.6</ele><time>2026-03-22T14:34:58.99Z</time></trkpt><trkpt lat="21.77877074708068" lon="-102.41303565150872"><ele>1918.2</ele><time>2026-03-22T14:34:59.99Z</time></trkpt><trkpt lat="21.778849224913582" lon="-102.41298056284471"><ele>1917.7999999999997</ele><time>2026-03-22T14:35:00.99Z</time></trkpt><trkpt lat="21.778925749367108" lon="-102.41292931916048"><ele>1917.3999999999999</ele><time>2026-03-22T14:35:01.99Z</time></trkpt><trkpt lat="21.779000793718996" lon="-102.41287009763576"><ele>1917.0</ele><time>2026-03-22T14:35:02.989Z</time></trkpt><trkpt lat="21.77906928763041" lon="-102.41281383661698"><ele>1916.8</ele><time>2026-03-22T14:35:03.989Z</time></trkpt><trkpt lat="21.779142017363252" lon="-102.41275765076294"><ele>1916.6</ele><time>2026-03-22T14:35:04.989Z</time></trkpt><trkpt lat="21.779216898753237" lon="-102.41269989076324"><ele>1916.3999999999999</ele><time>2026-03-22T14:35:05.989Z</time></trkpt><trkpt lat="21.779291072180797" lon="-102.41264297940032"><ele>1916.1999999999998</ele><time>2026-03-22T14:35:06.989Z</time></trkpt><trkpt lat="21.779372160099047" lon="-102.41257777292003"><ele>1916.0</ele><time>2026-03-22T14:35:07.989Z</time></trkpt><trkpt lat="21.779451339534827" lon="-102.41252038077086"><ele>1916.4</ele><time>2026-03-22T14:35:08.989Z</time></trkpt><trkpt lat="21.77953067746119" lon="-102.41246516805198"><ele>1916.8</ele><time>2026-03-22T14:35:09.989Z</time></trkpt><trkpt lat="21.779606779451786" lon="-102.41239822365415"><ele>1917.2000000000003</ele><time>2026-03-22T14:35:10.989Z</time></trkpt><trkpt lat="21.779683975768076" lon="-102.41234185964743"><ele>1917.6000000000001</ele><time>2026-03-22T14:35:11.989Z</time></trkpt><trkpt lat="21.77976188386627" lon="-102.41228650323566"><ele>1918.0</ele><time>2026-03-22T14:35:12.989Z</time></trkpt><trkpt lat="21.779845210108377" lon="-102.41222875169416"><ele>1918.0</ele><time>2026-03-22T14:35:13.989Z</time></trkpt><trkpt lat="21.77992259545589" lon="-102.41217298764771"><ele>1918.0000000000002</ele><time>2026-03-22T14:35:14.989Z</time></trkpt><trkpt lat="21.779999751718645" lon="-102.41211569485077"><ele>1918.0000000000002</ele><time>2026-03-22T14:35:15.989Z</time></trkpt><trkpt lat="21.7800771617718" lon="-102.41206101092811"><ele>1918.0</ele><time>2026-03-22T14:35:16.989Z</time></trkpt><trkpt lat="21.780150656882462" lon="-102.4120059595756"><ele>1918.0</ele><time>2026-03-22T14:35:17.989Z</time></trkpt><trkpt lat="21.780219994003804" lon="-102.41194827347701"><ele>1917.6000000000001</ele><time>2026-03-22T14:35:18.988Z</time></trkpt><trkpt lat="21.780290267973616" lon="-102.41189594446357"><ele>1917.2000000000003</ele><time>2026-03-22T14:35:19.988Z</time></trkpt><trkpt lat="21.780371627680235" lon="-102.41183576008676"><ele>1916.8</ele><time>2026-03-22T14:35:20.988Z</time></trkpt><trkpt lat="21.7804506638096" lon="-102.41177227130845"><ele>1916.4</ele><time>2026-03-22T14:35:21.988Z</time></trkpt><trkpt lat="21.780517705436694" lon="-102.4117082861827"><ele>1916.0</ele><time>2026-03-22T14:35:22.988Z</time></trkpt><trkpt lat="21.780593106910338" lon="-102.41163449317735"><ele>1916.0</ele><time>2026-03-22T14:35:23.988Z</time></trkpt><trkpt lat="21.780663036757574" lon="-102.41156770247292"><ele>1916.0</ele><time>2026-03-22T14:35:24.988Z</time></trkpt><trkpt lat="21.78073055442573" lon="-102.41149071613007"><ele>1916.0</ele><time>2026-03-22T14:35:25.988Z</time></trkpt><trkpt lat="21.780798138367704" lon="-102.41141087191018"><ele>1916.0</ele><time>2026-03-22T14:35:26.988Z</time></trkpt><trkpt lat="21.780875499784038" lon="-102.41133232160229"><ele>1916.0</ele><time>2026-03-22T14:35:27.988Z</time></trkpt><trkpt lat="21.780953622110847" lon="-102.41125112047135"><ele>1916.0</ele><time>2026-03-22T14:35:28.988Z</time></trkpt><trkpt lat="21.781036094055022" lon="-102.41117065328524"><ele>1916.0</ele><time>2026-03-22T14:35:29.988Z</time></trkpt><trkpt lat="21.781113440249662" lon="-102.41109389122872"><ele>1916.0</ele><time>2026-03-22T14:35:30.988Z</time></trkpt><trkpt lat="21.781196901907936" lon="-102.41101250132633"><ele>1916.0</ele><time>2026-03-22T14:35:31.988Z</time></trkpt><trkpt lat="21.781275325020786" lon="-102.41092943829895"><ele>1916.0</ele><time>2026-03-22T14:35:32.988Z</time></trkpt><trkpt lat="21.78136521728248" lon="-102.41084117759785"><ele>1916.0</ele><time>2026-03-22T14:35:33.988Z</time></trkpt><trkpt lat="21.781440648036902" lon="-102.41075603635319"><ele>1916.0</ele><time>2026-03-22T14:35:34.988Z</time></trkpt><trkpt lat="21.78152006723918" lon="-102.4106695956168"><ele>1916.0</ele><time>2026-03-22T14:35:35.988Z</time></trkpt><trkpt lat="21.781600866729562" lon="-102.41059035107942"><ele>1916.0</ele><time>2026-03-22T14:35:36.988Z</time></trkpt><trkpt lat="21.781684630167213" lon="-102.41050668502646"><ele>1916.0</ele><time>2026-03-22T14:35:37.988Z</time></trkpt><trkpt lat="21.781764841938703" lon="-102.41042725988878"><ele>1915.8</ele><time>2026-03-22T14:35:38.988Z</time></trkpt><trkpt lat="21.781847165860604" lon="-102.4103432443894"><ele>1915.6</ele><time>2026-03-22T14:35:39.988Z</time></trkpt><trkpt lat="21.781922997649772" lon="-102.4102635469033"><ele>1915.4</ele><time>2026-03-22T14:35:40.988Z</time></trkpt><trkpt lat="21.782001308678524" lon="-102.41018339354987"><ele>1915.2</ele><time>2026-03-22T14:35:41.988Z</time></trkpt><trkpt lat="21.782075932683245" lon="-102.4100982958078"><ele>1915.0</ele><time>2026-03-22T14:35:42.989Z</time></trkpt><trkpt lat="21.782156188326407" lon="-102.41001865677931"><ele>1915.4</ele><time>2026-03-22T14:35:43.988Z</time></trkpt><trkpt lat="21.782231818536573" lon="-102.40994630907758"><ele>1915.8</ele><time>2026-03-22T14:35:44.988Z</time></trkpt><trkpt lat="21.782303522418427" lon="-102.40986910033669"><ele>1916.1999999999998</ele><time>2026-03-22T14:35:45.989Z</time></trkpt><trkpt lat="21.782371336972325" lon="-102.40979651514773"><ele>1916.6</ele><time>2026-03-22T14:35:46.988Z</time></trkpt><trkpt lat="21.782444227277395" lon="-102.40971573917564"><ele>1917.0</ele><time>2026-03-22T14:35:47.988Z</time></trkpt><trkpt lat="21.782514643027348" lon="-102.4096428586994"><ele>1917.1666666666667</ele><time>2026-03-22T14:35:48.989Z</time></trkpt><trkpt lat="21.782579086853165" lon="-102.40957173050963"><ele>1917.3333333333335</ele><time>2026-03-22T14:35:49.989Z</time></trkpt><trkpt lat="21.78264458553388" lon="-102.40950564260231"><ele>1917.5</ele><time>2026-03-22T14:35:50.989Z</time></trkpt><trkpt lat="21.7827085565395" lon="-102.40944344567446"><ele>1917.6666666666667</ele><time>2026-03-22T14:35:51.989Z</time></trkpt><trkpt lat="21.78276699979459" lon="-102.40938493199691"><ele>1917.8333333333335</ele><time>2026-03-22T14:35:52.989Z</time></trkpt><trkpt lat="21.782822113482897" lon="-102.40932649110047"><ele>1918.0</ele><time>2026-03-22T14:35:53.989Z</time></trkpt><trkpt lat="21.782895804931815" lon="-102.40925517231659"><ele>1918.0000000000002</ele><time>2026-03-22T14:35:54.989Z</time></trkpt><trkpt lat="21.782954995928318" lon="-102.4091955568855"><ele>1918.0</ele><time>2026-03-22T14:35:55.989Z</time></trkpt><trkpt lat="21.783023616356974" lon="-102.40912534517106"><ele>1918.0</ele><time>2026-03-22T14:35:56.989Z</time></trkpt><trkpt lat="21.783083473012702" lon="-102.40905961243752"><ele>1918.0</ele><time>2026-03-22T14:35:57.989Z</time></trkpt><trkpt lat="21.78314241284523" lon="-102.40899670440646"><ele>1918.0000000000002</ele><time>2026-03-22T14:35:58.989Z</time></trkpt><trkpt lat="21.783208206867762" lon="-102.40893414908206"><ele>1918.0</ele><time>2026-03-22T14:35:59.989Z</time></trkpt><trkpt lat="21.783272210609642" lon="-102.40886786037215"><ele>1918.4</ele><time>2026-03-22T14:36:00.989Z</time></trkpt><trkpt lat="21.783338024266225" lon="-102.40879901455641"><ele>1918.8000000000002</ele><time>2026-03-22T14:36:01.989Z</time></trkpt><trkpt lat="21.783402616822542" lon="-102.40873403669741"><ele>1919.2</ele><time>2026-03-22T14:36:02.989Z</time></trkpt><trkpt lat="21.783469558350664" lon="-102.40866783689944"><ele>1919.6</ele><time>2026-03-22T14:36:03.989Z</time></trkpt><trkpt lat="21.783538560535632" lon="-102.40860168876776"><ele>1920.0</ele><time>2026-03-22T14:36:04.989Z</time></trkpt><trkpt lat="21.783604685357115" lon="-102.40852785187084"><ele>1920.1666666666667</ele><time>2026-03-22T14:36:05.989Z</time></trkpt><trkpt lat="21.78366803017584" lon="-102.40847099430528"><ele>1920.3333333333335</ele><time>2026-03-22T14:36:06.989Z</time></trkpt><trkpt lat="21.78374070664905" lon="-102.40839815619114"><ele>1920.5</ele><time>2026-03-22T14:36:07.989Z</time></trkpt><trkpt lat="21.78380448346213" lon="-102.40833459582724"><ele>1920.6666666666667</ele><time>2026-03-22T14:36:08.989Z</time></trkpt><trkpt lat="21.783867761844462" lon="-102.40827041369957"><ele>1920.8333333333335</ele><time>2026-03-22T14:36:09.989Z</time></trkpt><trkpt lat="21.78393382290222" lon="-102.40820318829216"><ele>1921.0</ele><time>2026-03-22T14:36:10.989Z</time></trkpt><trkpt lat="21.783996598917938" lon="-102.40813474019677"><ele>1921.0</ele><time>2026-03-22T14:36:11.989Z</time></trkpt><trkpt lat="21.784057431651206" lon="-102.40807210876987"><ele>1921.0</ele><time>2026-03-22T14:36:12.989Z</time></trkpt><trkpt lat="21.784124433657936" lon="-102.40800338447217"><ele>1921.0</ele><time>2026-03-22T14:36:13.989Z</time></trkpt><trkpt lat="21.784188036644057" lon="-102.40794125360752"><ele>1921.0</ele><time>2026-03-22T14:36:14.989Z</time></trkpt><trkpt lat="21.78425878042857" lon="-102.40787135717717"><ele>1921.0</ele><time>2026-03-22T14:36:15.989Z</time></trkpt><trkpt lat="21.78432523871596" lon="-102.40780350968451"><ele>1920.6</ele><time>2026-03-22T14:36:16.989Z</time></trkpt><trkpt lat="21.784396273194446" lon="-102.40773108834149"><ele>1920.1999999999998</ele><time>2026-03-22T14:36:17.989Z</time></trkpt><trkpt lat="21.784463760240474" lon="-102.40766087632218"><ele>1919.8000000000002</ele><time>2026-03-22T14:36:18.989Z</time></trkpt><trkpt lat="21.784528116766595" lon="-102.40759381849567"><ele>1919.4</ele><time>2026-03-22T14:36:19.989Z</time></trkpt><trkpt lat="21.784594930882523" lon="-102.40752180573172"><ele>1919.0</ele><time>2026-03-22T14:36:20.989Z</time></trkpt><trkpt lat="21.784664433528427" lon="-102.40745135691243"><ele>1919.0</ele><time>2026-03-22T14:36:21.988Z</time></trkpt><trkpt lat="21.78472935221171" lon="-102.40737874377845"><ele>1919.0</ele><time>2026-03-22T14:36:22.988Z</time></trkpt><trkpt lat="21.784791611277285" lon="-102.40731023483693"><ele>1919.0</ele><time>2026-03-22T14:36:23.988Z</time></trkpt><trkpt lat="21.78487164094769" lon="-102.40722776962119"><ele>1919.0</ele><time>2026-03-22T14:36:24.988Z</time></trkpt><trkpt lat="21.784930215051656" lon="-102.40716700186002"><ele>1919.0</ele><time>2026-03-22T14:36:25.988Z</time></trkpt><trkpt lat="21.784992071899694" lon="-102.40709485169933"><ele>1919.2</ele><time>2026-03-22T14:36:26.988Z</time></trkpt><trkpt lat="21.785062663925757" lon="-102.40702820283573"><ele>1919.4</ele><time>2026-03-22T14:36:27.988Z</time></trkpt><trkpt lat="21.78513220431748" lon="-102.40695597018856"><ele>1919.6</ele><time>2026-03-22T14:36:28.988Z</time></trkpt><trkpt lat="21.785198787566575" lon="-102.40689222561645"><ele>1919.8</ele><time>2026-03-22T14:36:29.988Z</time></trkpt><trkpt lat="21.785263513460926" lon="-102.40682078495095"><ele>1920.0</ele><time>2026-03-22T14:36:30.988Z</time></trkpt><trkpt lat="21.785331292729936" lon="-102.40675425732377"><ele>1920.2</ele><time>2026-03-22T14:36:31.988Z</time></trkpt><trkpt lat="21.785399420170148" lon="-102.40667925440755"><ele>1920.4</ele><time>2026-03-22T14:36:32.988Z</time></trkpt><trkpt lat="21.78546831748334" lon="-102.40661325243825"><ele>1920.6</ele><time>2026-03-22T14:36:33.988Z</time></trkpt><trkpt lat="21.785539577087892" lon="-102.40653539583853"><ele>1920.8</ele><time>2026-03-22T14:36:34.988Z</time></trkpt><trkpt lat="21.785609727950316" lon="-102.40646506522329"><ele>1921.0</ele><time>2026-03-22T14:36:35.988Z</time></trkpt><trkpt lat="21.785684343026606" lon="-102.40638664410741"><ele>1920.8</ele><time>2026-03-22T14:36:36.988Z</time></trkpt><trkpt lat="21.785763436356206" lon="-102.40631061474477"><ele>1920.6</ele><time>2026-03-22T14:36:37.988Z</time></trkpt><trkpt lat="21.785834832769037" lon="-102.40624148177024"><ele>1920.4</ele><time>2026-03-22T14:36:38.988Z</time></trkpt><trkpt lat="21.785901441607816" lon="-102.4061667722964"><ele>1920.2</ele><time>2026-03-22T14:36:39.988Z</time></trkpt><trkpt lat="21.785969558495342" lon="-102.40608824333356"><ele>1920.0</ele><time>2026-03-22T14:36:40.988Z</time></trkpt><trkpt lat="21.786047791314186" lon="-102.40601464313501"><ele>1920.4</ele><time>2026-03-22T14:36:41.988Z</time></trkpt><trkpt lat="21.78611914691056" lon="-102.40593809871751"><ele>1920.8</ele><time>2026-03-22T14:36:42.988Z</time></trkpt><trkpt lat="21.786189828889924" lon="-102.40585982520801"><ele>1921.1999999999998</ele><time>2026-03-22T14:36:43.988Z</time></trkpt><trkpt lat="21.786260094746833" lon="-102.40578441538906"><ele>1921.6</ele><time>2026-03-22T14:36:44.988Z</time></trkpt><trkpt lat="21.786327819954884" lon="-102.40571026671854"><ele>1922.0</ele><time>2026-03-22T14:36:45.988Z</time></trkpt><trkpt lat="21.786401808491323" lon="-102.40563714369364"><ele>1922.0</ele><time>2026-03-22T14:36:46.988Z</time></trkpt><trkpt lat="21.786476838817713" lon="-102.40556039260318"><ele>1921.9999999999998</ele><time>2026-03-22T14:36:47.988Z</time></trkpt><trkpt lat="21.786549363256544" lon="-102.40548757160276"><ele>1921.9999999999998</ele><time>2026-03-22T14:36:48.988Z</time></trkpt><trkpt lat="21.786623936327523" lon="-102.40541833700364"><ele>1922.0</ele><time>2026-03-22T14:36:49.988Z</time></trkpt><trkpt lat="21.78669884742843" lon="-102.40534916373147"><ele>1922.0</ele><time>2026-03-22T14:36:50.988Z</time></trkpt><trkpt lat="21.786769490632526" lon="-102.4052722342846"><ele>1921.3999999999999</ele><time>2026-03-22T14:36:51.988Z</time></trkpt><trkpt lat="21.786846921568742" lon="-102.40519017218742"><ele>1920.7999999999997</ele><time>2026-03-22T14:36:52.988Z</time></trkpt><trkpt lat="21.7869193670775" lon="-102.40511485841621"><ele>1920.2</ele><time>2026-03-22T14:36:53.988Z</time></trkpt><trkpt lat="21.786984887574224" lon="-102.40504007493315"><ele>1919.6</ele><time>2026-03-22T14:36:54.988Z</time></trkpt><trkpt lat="21.787050621341447" lon="-102.4049770100712"><ele>1919.0</ele><time>2026-03-22T14:36:55.988Z</time></trkpt><trkpt lat="21.787122689372715" lon="-102.40489786646091"><ele>1918.9999999999998</ele><time>2026-03-22T14:36:56.988Z</time></trkpt><trkpt lat="21.78718937825349" lon="-102.40483385745559"><ele>1919.0</ele><time>2026-03-22T14:36:57.988Z</time></trkpt><trkpt lat="21.78726046312421" lon="-102.40476339723229"><ele>1919.0</ele><time>2026-03-22T14:36:58.988Z</time></trkpt><trkpt lat="21.78732442545431" lon="-102.40470246592625"><ele>1919.0</ele><time>2026-03-22T14:36:59.988Z</time></trkpt><trkpt lat="21.787381371548353" lon="-102.40464145130873"><ele>1918.9999999999998</ele><time>2026-03-22T14:37:00.988Z</time></trkpt><trkpt lat="21.787444470056577" lon="-102.40457145196211"><ele>1919.0</ele><time>2026-03-22T14:37:01.988Z</time></trkpt><trkpt lat="21.787505177875733" lon="-102.40451390480247"><ele>1919.1666666666665</ele><time>2026-03-22T14:37:02.988Z</time></trkpt><trkpt lat="21.787568174215583" lon="-102.40445428404921"><ele>1919.3333333333333</ele><time>2026-03-22T14:37:03.988Z</time></trkpt><trkpt lat="21.78763295473351" lon="-102.40439722778714"><ele>1919.5</ele><time>2026-03-22T14:37:04.988Z</time></trkpt><trkpt lat="21.78771114447228" lon="-102.4043463361388"><ele>1919.6666666666665</ele><time>2026-03-22T14:37:05.988Z</time></trkpt><trkpt lat="21.78778985138355" lon="-102.40433594167865"><ele>1919.8333333333333</ele><time>2026-03-22T14:37:06.988Z</time></trkpt><trkpt lat="21.787868469463387" lon="-102.40435776952366"><ele>1920.0</ele><time>2026-03-22T14:37:07.988Z</time></trkpt><trkpt lat="21.787942453211993" lon="-102.40441960006478"><ele>1920.0</ele><time>2026-03-22T14:37:08.988Z</time></trkpt><trkpt lat="21.78801611136996" lon="-102.4044964617376"><ele>1920.0</ele><time>2026-03-22T14:37:09.988Z</time></trkpt><trkpt lat="21.78808069513326" lon="-102.40456465535146"><ele>1920.0</ele><time>2026-03-22T14:37:10.988Z</time></trkpt><trkpt lat="21.788149781193763" lon="-102.40463466015383"><ele>1920.0</ele><time>2026-03-22T14:37:11.988Z</time></trkpt><trkpt lat="21.788226746051794" lon="-102.4047085788029"><ele>1920.0</ele><time>2026-03-22T14:37:12.988Z</time></trkpt><trkpt lat="21.788294084871783" lon="-102.40477500999658"><ele>1920.0</ele><time>2026-03-22T14:37:13.988Z</time></trkpt><trkpt lat="21.78836121749839" lon="-102.40483583962049"><ele>1920.0</ele><time>2026-03-22T14:37:14.988Z</time></trkpt><trkpt lat="21.78842388338651" lon="-102.40490155738038"><ele>1920.0</ele><time>2026-03-22T14:37:15.988Z</time></trkpt><trkpt lat="21.788487972233813" lon="-102.40496012896567"><ele>1920.0</ele><time>2026-03-22T14:37:16.988Z</time></trkpt><trkpt lat="21.788566398320107" lon="-102.40503433534634"><ele>1920.0</ele><time>2026-03-22T14:37:17.988Z</time></trkpt><trkpt lat="21.788636902422624" lon="-102.40510473989765"><ele>1920.0</ele><time>2026-03-22T14:37:18.988Z</time></trkpt><trkpt lat="21.788705073417493" lon="-102.40517183397019"><ele>1920.0</ele><time>2026-03-22T14:37:19.988Z</time></trkpt><trkpt lat="21.78877416125361" lon="-102.40523935706325"><ele>1920.0</ele><time>2026-03-22T14:37:20.988Z</time></trkpt><trkpt lat="21.788843447444027" lon="-102.40530534824535"><ele>1920.0</ele><time>2026-03-22T14:37:21.988Z</time></trkpt><trkpt lat="21.788918455323717" lon="-102.40537526406757"><ele>1920.0</ele><time>2026-03-22T14:37:22.988Z</time></trkpt><trkpt lat="21.788984538523525" lon="-102.40544465099701"><ele>1920.4</ele><time>2026-03-22T14:37:23.988Z</time></trkpt><trkpt lat="21.789057213706453" lon="-102.4055185700351"><ele>1920.8</ele><time>2026-03-22T14:37:24.988Z</time></trkpt><trkpt lat="21.789124703846433" lon="-102.40558266721003"><ele>1921.1999999999998</ele><time>2026-03-22T14:37:25.987Z</time></trkpt><trkpt lat="21.789196466654364" lon="-102.40565210878849"><ele>1921.6</ele><time>2026-03-22T14:37:26.987Z</time></trkpt><trkpt lat="21.78926681518752" lon="-102.40572688496995"><ele>1922.0</ele><time>2026-03-22T14:37:27.987Z</time></trkpt><trkpt lat="21.789337610659203" lon="-102.40579077808347"><ele>1921.6</ele><time>2026-03-22T14:37:28.987Z</time></trkpt><trkpt lat="21.78940768339932" lon="-102.40585662666372"><ele>1921.1999999999998</ele><time>2026-03-22T14:37:29.987Z</time></trkpt><trkpt lat="21.789476600170026" lon="-102.40591974310726"><ele>1920.8</ele><time>2026-03-22T14:37:30.987Z</time></trkpt><trkpt lat="21.789547981361675" lon="-102.40598966907422"><ele>1920.4</ele><time>2026-03-22T14:37:31.987Z</time></trkpt><trkpt lat="21.789619514684176" lon="-102.40605625980606"><ele>1920.0</ele><time>2026-03-22T14:37:32.987Z</time></trkpt><trkpt lat="21.789693304412964" lon="-102.40612544230542"><ele>1920.0</ele><time>2026-03-22T14:37:33.987Z</time></trkpt><trkpt lat="21.78975996627753" lon="-102.40619181693347"><ele>1920.0</ele><time>2026-03-22T14:37:34.987Z</time></trkpt><trkpt lat="21.78982615678658" lon="-102.40625818813535"><ele>1920.0</ele><time>2026-03-22T14:37:35.987Z</time></trkpt><trkpt lat="21.789890184074814" lon="-102.40632326303952"><ele>1920.0</ele><time>2026-03-22T14:37:36.987Z</time></trkpt><trkpt lat="21.789955832760914" lon="-102.40638634304153"><ele>1920.0</ele><time>2026-03-22T14:37:37.987Z</time></trkpt><trkpt lat="21.79002476565908" lon="-102.40645392069393"><ele>1920.0</ele><time>2026-03-22T14:37:38.987Z</time></trkpt><trkpt lat="21.790094962789176" lon="-102.40651840343922"><ele>1920.0</ele><time>2026-03-22T14:37:39.987Z</time></trkpt><trkpt lat="21.79016118751758" lon="-102.4065834895747"><ele>1920.0</ele><time>2026-03-22T14:37:40.987Z</time></trkpt><trkpt lat="21.79023357312906" lon="-102.40665307250649"><ele>1920.0</ele><time>2026-03-22T14:37:41.987Z</time></trkpt><trkpt lat="21.790303182412043" lon="-102.40672204337412"><ele>1920.0</ele><time>2026-03-22T14:37:42.987Z</time></trkpt><trkpt lat="21.790371473569767" lon="-102.40679018366099"><ele>1920.0</ele><time>2026-03-22T14:37:43.987Z</time></trkpt><trkpt lat="21.790443670524514" lon="-102.40685596734454"><ele>1920.0</ele><time>2026-03-22T14:37:44.987Z</time></trkpt><trkpt lat="21.790516358279785" lon="-102.40692559405375"><ele>1920.0</ele><time>2026-03-22T14:37:45.987Z</time></trkpt><trkpt lat="21.79059339191098" lon="-102.4069951831793"><ele>1920.0</ele><time>2026-03-22T14:37:46.987Z</time></trkpt><trkpt lat="21.790671749782145" lon="-102.40706081320634"><ele>1920.0</ele><time>2026-03-22T14:37:47.987Z</time></trkpt><trkpt lat="21.79075086813795" lon="-102.4071132536318"><ele>1921.0</ele><time>2026-03-22T14:37:48.989Z</time></trkpt><trkpt lat="21.790848309367078" lon="-102.4071626123923"><ele>1922.0</ele><time>2026-03-22T14:37:49.989Z</time></trkpt><trkpt lat="21.7909419295133" lon="-102.4071880269376"><ele>1923.0</ele><time>2026-03-22T14:37:50.989Z</time></trkpt><trkpt lat="21.791038718353747" lon="-102.40719494864084"><ele>1924.0</ele><time>2026-03-22T14:37:51.988Z</time></trkpt><trkpt lat="21.79113361326467" lon="-102.40718433466057"><ele>1925.0</ele><time>2026-03-22T14:37:52.989Z</time></trkpt><trkpt lat="21.791240188638415" lon="-102.40716520140134"><ele>1924.0</ele><time>2026-03-22T14:37:53.989Z</time></trkpt><trkpt lat="21.791340826042198" lon="-102.40714728938161"><ele>1923.0</ele><time>2026-03-22T14:37:54.988Z</time></trkpt><trkpt lat="21.791441712327522" lon="-102.40713162922452"><ele>1922.0</ele><time>2026-03-22T14:37:55.988Z</time></trkpt><trkpt lat="21.79154360411129" lon="-102.40712353149688"><ele>1921.0</ele><time>2026-03-22T14:37:56.988Z</time></trkpt><trkpt lat="21.791643227588356" lon="-102.4071294253281"><ele>1920.0</ele><time>2026-03-22T14:37:57.988Z</time></trkpt><trkpt lat="21.79174259550215" lon="-102.40714004301441"><ele>1919.8</ele><time>2026-03-22T14:37:58.988Z</time></trkpt><trkpt lat="21.791844434446936" lon="-102.40715798406816"><ele>1919.6</ele><time>2026-03-22T14:37:59.988Z</time></trkpt><trkpt lat="21.791943658847693" lon="-102.40717978541574"><ele>1919.4</ele><time>2026-03-22T14:38:00.988Z</time></trkpt><trkpt lat="21.79204827564023" lon="-102.4071987734214"><ele>1919.2</ele><time>2026-03-22T14:38:01.988Z</time></trkpt><trkpt lat="21.792147943719403" lon="-102.40722247323714"><ele>1919.0</ele><time>2026-03-22T14:38:02.988Z</time></trkpt><trkpt lat="21.79224834348142" lon="-102.40724771396421"><ele>1920.4</ele><time>2026-03-22T14:38:03.988Z</time></trkpt><trkpt lat="21.7923395279344" lon="-102.40727112966867"><ele>1921.8000000000002</ele><time>2026-03-22T14:38:04.988Z</time></trkpt><trkpt lat="21.79243440802986" lon="-102.40729092777501"><ele>1923.1999999999998</ele><time>2026-03-22T14:38:05.988Z</time></trkpt><trkpt lat="21.79254050184542" lon="-102.40731708177596"><ele>1924.6</ele><time>2026-03-22T14:38:06.988Z</time></trkpt><trkpt lat="21.79263758613995" lon="-102.4073431369087"><ele>1926.0</ele><time>2026-03-22T14:38:07.988Z</time></trkpt><trkpt lat="21.79273822999392" lon="-102.40737288631469"><ele>1926.0</ele><time>2026-03-22T14:38:08.988Z</time></trkpt><trkpt lat="21.79284266093844" lon="-102.40740682554255"><ele>1926.0</ele><time>2026-03-22T14:38:09.988Z</time></trkpt><trkpt lat="21.792939969109703" lon="-102.40743642640956"><ele>1926.0</ele><time>2026-03-22T14:38:10.988Z</time></trkpt><trkpt lat="21.793029930332573" lon="-102.40746459948394"><ele>1926.0</ele><time>2026-03-22T14:38:11.988Z</time></trkpt><trkpt lat="21.79312046859903" lon="-102.40749020678183"><ele>1926.0</ele><time>2026-03-22T14:38:12.988Z</time></trkpt><trkpt lat="21.79320803383829" lon="-102.40751656860017"><ele>1926.0</ele><time>2026-03-22T14:38:13.988Z</time></trkpt><trkpt lat="21.793294447557418" lon="-102.40754066377873"><ele>1926.0</ele><time>2026-03-22T14:38:14.988Z</time></trkpt><trkpt lat="21.793381244683655" lon="-102.4075669824429"><ele>1926.0</ele><time>2026-03-22T14:38:15.988Z</time></trkpt><trkpt lat="21.79346998694086" lon="-102.40759998363616"><ele>1926.0</ele><time>2026-03-22T14:38:16.988Z</time></trkpt><trkpt lat="21.793554665637718" lon="-102.40763313591471"><ele>1926.0</ele><time>2026-03-22T14:38:17.988Z</time></trkpt><trkpt lat="21.793637206188315" lon="-102.40766864134895"><ele>1925.4</ele><time>2026-03-22T14:38:18.988Z</time></trkpt><trkpt lat="21.79372498639006" lon="-102.40770946097064"><ele>1924.8</ele><time>2026-03-22T14:38:19.988Z</time></trkpt><trkpt lat="21.793807585542062" lon="-102.40775597418708"><ele>1924.2000000000003</ele><time>2026-03-22T14:38:20.988Z</time></trkpt><trkpt lat="21.79389176313161" lon="-102.4078082506468"><ele>1923.6000000000001</ele><time>2026-03-22T14:38:21.988Z</time></trkpt><trkpt lat="21.793966689207004" lon="-102.4078676752141"><ele>1923.0</ele><time>2026-03-22T14:38:22.988Z</time></trkpt><trkpt lat="21.79404036885349" lon="-102.40792630440772"><ele>1923.0</ele><time>2026-03-22T14:38:23.988Z</time></trkpt><trkpt lat="21.794112818167317" lon="-102.40798986873993"><ele>1923.0000000000002</ele><time>2026-03-22T14:38:24.988Z</time></trkpt><trkpt lat="21.794180984211838" lon="-102.40805254485198"><ele>1923.0000000000002</ele><time>2026-03-22T14:38:25.988Z</time></trkpt><trkpt lat="21.79425373554186" lon="-102.40812226313956"><ele>1923.0</ele><time>2026-03-22T14:38:26.987Z</time></trkpt><trkpt lat="21.79432371208489" lon="-102.40819216156991"><ele>1923.0</ele><time>2026-03-22T14:38:27.987Z</time></trkpt><trkpt lat="21.794378166542952" lon="-102.40824626296276"><ele>1923.6666666666667</ele><time>2026-03-22T14:38:28.987Z</time></trkpt><trkpt lat="21.794436716892715" lon="-102.40829931923845"><ele>1924.3333333333335</ele><time>2026-03-22T14:38:29.987Z</time></trkpt><trkpt lat="21.79449873672605" lon="-102.40835467453621"><ele>1925.0</ele><time>2026-03-22T14:38:30.987Z</time></trkpt><trkpt lat="21.794563944577433" lon="-102.40840928024103"><ele>1925.6666666666667</ele><time>2026-03-22T14:38:31.987Z</time></trkpt><trkpt lat="21.79463660665653" lon="-102.4084595978284"><ele>1926.3333333333335</ele><time>2026-03-22T14:38:32.987Z</time></trkpt><trkpt lat="21.794715045646864" lon="-102.40849674964863"><ele>1927.0</ele><time>2026-03-22T14:38:33.987Z</time></trkpt><trkpt lat="21.794789350357306" lon="-102.40851608948853"><ele>1927.0</ele><time>2026-03-22T14:38:34.987Z</time></trkpt><trkpt lat="21.794886556970425" lon="-102.40850113733504"><ele>1926.9999999999998</ele><time>2026-03-22T14:38:35.987Z</time></trkpt><trkpt lat="21.794978441022785" lon="-102.40849294205053"><ele>1926.9999999999998</ele><time>2026-03-22T14:38:36.987Z</time></trkpt><trkpt lat="21.795065424897967" lon="-102.40849668209984"><ele>1927.0</ele><time>2026-03-22T14:38:37.987Z</time></trkpt><trkpt lat="21.795145925047567" lon="-102.40846693971449"><ele>1927.0</ele><time>2026-03-22T14:38:38.987Z</time></trkpt><trkpt lat="21.79523103264572" lon="-102.40842380768765"><ele>1927.0</ele><time>2026-03-22T14:38:39.987Z</time></trkpt><trkpt lat="21.795312152572713" lon="-102.40836213078715"><ele>1926.9999999999998</ele><time>2026-03-22T14:38:40.987Z</time></trkpt><trkpt lat="21.795382276086357" lon="-102.40828360184807"><ele>1926.9999999999998</ele><time>2026-03-22T14:38:41.987Z</time></trkpt><trkpt lat="21.795444988811504" lon="-102.40819599251337"><ele>1927.0</ele><time>2026-03-22T14:38:42.987Z</time></trkpt><trkpt lat="21.79550419762441" lon="-102.40812641603314"><ele>1927.0</ele><time>2026-03-22T14:38:43.987Z</time></trkpt><trkpt lat="21.795569027671938" lon="-102.40804669884271"><ele>1927.0</ele><time>2026-03-22T14:38:44.987Z</time></trkpt><trkpt lat="21.795634817731212" lon="-102.40797453710839"><ele>1926.9999999999998</ele><time>2026-03-22T14:38:45.987Z</time></trkpt><trkpt lat="21.795703256826428" lon="-102.40790586999694"><ele>1926.9999999999998</ele><time>2026-03-22T14:38:46.987Z</time></trkpt><trkpt lat="21.79576900964136" lon="-102.40783217704083"><ele>1927.0</ele><time>2026-03-22T14:38:47.987Z</time></trkpt><trkpt lat="21.79583338236595" lon="-102.40776487413656"><ele>1927.0</ele><time>2026-03-22T14:38:48.987Z</time></trkpt><trkpt lat="21.795905450283865" lon="-102.40768053178802"><ele>1927.0</ele><time>2026-03-22T14:38:49.987Z</time></trkpt><trkpt lat="21.7959775089327" lon="-102.40761183198165"><ele>1926.9999999999998</ele><time>2026-03-22T14:38:50.987Z</time></trkpt><trkpt lat="21.796042622510218" lon="-102.4075296887915"><ele>1926.9999999999998</ele><time>2026-03-22T14:38:51.987Z</time></trkpt><trkpt lat="21.79610670415158" lon="-102.40745921299482"><ele>1927.0</ele><time>2026-03-22T14:38:52.987Z</time></trkpt><trkpt lat="21.796171992586892" lon="-102.40739099790311"><ele>1927.0</ele><time>2026-03-22T14:38:53.987Z</time></trkpt><trkpt lat="21.796240820162165" lon="-102.4073139316993"><ele>1926.8</ele><time>2026-03-22T14:38:54.987Z</time></trkpt><trkpt lat="21.79630005512409" lon="-102.40724608982462"><ele>1926.6</ele><time>2026-03-22T14:38:55.987Z</time></trkpt><trkpt lat="21.79635277886979" lon="-102.40715999238448"><ele>1926.3999999999999</ele><time>2026-03-22T14:38:56.987Z</time></trkpt><trkpt lat="21.796418031273852" lon="-102.40707911077581"><ele>1926.1999999999998</ele><time>2026-03-22T14:38:57.987Z</time></trkpt><trkpt lat="21.796475519658184" lon="-102.4069984516166"><ele>1926.0</ele><time>2026-03-22T14:38:58.987Z</time></trkpt><trkpt lat="21.796535519767133" lon="-102.40691919837924"><ele>1925.8</ele><time>2026-03-22T14:38:59.987Z</time></trkpt><trkpt lat="21.796594133700996" lon="-102.40682878203087"><ele>1925.6</ele><time>2026-03-22T14:39:00.987Z</time></trkpt><trkpt lat="21.796661483843742" lon="-102.40675213924295"><ele>1925.4</ele><time>2026-03-22T14:39:01.987Z</time></trkpt><trkpt lat="21.79672713711749" lon="-102.40666147790017"><ele>1925.2</ele><time>2026-03-22T14:39:02.987Z</time></trkpt><trkpt lat="21.796791517274716" lon="-102.40657942148633"><ele>1925.0</ele><time>2026-03-22T14:39:03.987Z</time></trkpt><trkpt lat="21.796860297923224" lon="-102.40648912881227"><ele>1924.25</ele><time>2026-03-22T14:39:04.987Z</time></trkpt><trkpt lat="21.79693050513692" lon="-102.40639369833382"><ele>1923.5</ele><time>2026-03-22T14:39:05.987Z</time></trkpt><trkpt lat="21.796999709106096" lon="-102.4062903831216"><ele>1922.75</ele><time>2026-03-22T14:39:06.987Z</time></trkpt><trkpt lat="21.797067802712647" lon="-102.40619835480803"><ele>1922.0</ele><time>2026-03-22T14:39:07.987Z</time></trkpt><trkpt lat="21.79713594201628" lon="-102.4060966581406"><ele>1921.75</ele><time>2026-03-22T14:39:08.987Z</time></trkpt><trkpt lat="21.797202233149882" lon="-102.4060015175693"><ele>1921.5</ele><time>2026-03-22T14:39:09.987Z</time></trkpt><trkpt lat="21.797274330672167" lon="-102.40590292906175"><ele>1921.25</ele><time>2026-03-22T14:39:10.987Z</time></trkpt><trkpt lat="21.797346225472268" lon="-102.40581184223926"><ele>1921.0</ele><time>2026-03-22T14:39:11.987Z</time></trkpt><trkpt lat="21.797423043718105" lon="-102.40571110913703"><ele>1921.0</ele><time>2026-03-22T14:39:12.987Z</time></trkpt><trkpt lat="21.79749650897438" lon="-102.40561428578766"><ele>1921.0</ele><time>2026-03-22T14:39:13.987Z</time></trkpt><trkpt lat="21.797561380879753" lon="-102.40552244575203"><ele>1921.0</ele><time>2026-03-22T14:39:14.987Z</time></trkpt><trkpt lat="21.79764213518931" lon="-102.40544084959292"><ele>1921.0</ele><time>2026-03-22T14:39:15.987Z</time></trkpt><trkpt lat="21.79772459428501" lon="-102.40536325241472"><ele>1921.0</ele><time>2026-03-22T14:39:16.987Z</time></trkpt><trkpt lat="21.79780390938753" lon="-102.40528505609676"><ele>1920.1999999999998</ele><time>2026-03-22T14:39:17.987Z</time></trkpt><trkpt lat="21.79789238131914" lon="-102.4052117844916"><ele>1919.3999999999999</ele><time>2026-03-22T14:39:18.987Z</time></trkpt><trkpt lat="21.797979641248734" lon="-102.40515058201184"><ele>1918.6</ele><time>2026-03-22T14:39:19.987Z</time></trkpt><trkpt lat="21.798059292820934" lon="-102.40508705170558"><ele>1917.8</ele><time>2026-03-22T14:39:20.987Z</time></trkpt><trkpt lat="21.7981428421393" lon="-102.40503043635793"><ele>1917.0</ele><time>2026-03-22T14:39:21.987Z</time></trkpt><trkpt lat="21.798218753905054" lon="-102.4049844504033"><ele>1917.0</ele><time>2026-03-22T14:39:22.987Z</time></trkpt><trkpt lat="21.798288277894482" lon="-102.40494158180488"><ele>1917.0</ele><time>2026-03-22T14:39:23.987Z</time></trkpt><trkpt lat="21.79836411849916" lon="-102.40490500774101"><ele>1917.0</ele><time>2026-03-22T14:39:24.987Z</time></trkpt><trkpt lat="21.798440520479243" lon="-102.40487931290392"><ele>1917.0</ele><time>2026-03-22T14:39:25.987Z</time></trkpt><trkpt lat="21.79850957282632" lon="-102.40485648224674"><ele>1917.0</ele><time>2026-03-22T14:39:26.987Z</time></trkpt><trkpt lat="21.7985746615206" lon="-102.40484099337714"><ele>1917.0</ele><time>2026-03-22T14:39:27.987Z</time></trkpt><trkpt lat="21.798697985444303" lon="-102.40479639984528"><ele>1916.6</ele><time>2026-03-22T14:39:29.987Z</time></trkpt><trkpt lat="21.798749570989894" lon="-102.40473302764674"><ele>1916.1999999999998</ele><time>2026-03-22T14:39:30.986Z</time></trkpt><trkpt lat="21.798791761045344" lon="-102.40464340828814"><ele>1915.8</ele><time>2026-03-22T14:39:31.986Z</time></trkpt><trkpt lat="21.798818115336324" lon="-102.40454656880442"><ele>1915.4</ele><time>2026-03-22T14:39:32.986Z</time></trkpt><trkpt lat="21.798844486608413" lon="-102.40444573813751"><ele>1915.0</ele><time>2026-03-22T14:39:33.986Z</time></trkpt><trkpt lat="21.798876222053078" lon="-102.40434507982928"><ele>1914.5</ele><time>2026-03-22T14:39:34.986Z</time></trkpt><trkpt lat="21.79890754263329" lon="-102.40423024551673"><ele>1914.0</ele><time>2026-03-22T14:39:35.986Z</time></trkpt><trkpt lat="21.79893545055703" lon="-102.4041063406855"><ele>1913.5</ele><time>2026-03-22T14:39:36.986Z</time></trkpt><trkpt lat="21.798959287059443" lon="-102.40398697034139"><ele>1913.0</ele><time>2026-03-22T14:39:37.986Z</time></trkpt><trkpt lat="21.798984089075248" lon="-102.40386059967956"><ele>1913.0</ele><time>2026-03-22T14:39:38.986Z</time></trkpt><trkpt lat="21.799013897870516" lon="-102.40372571460632"><ele>1913.0</ele><time>2026-03-22T14:39:39.986Z</time></trkpt><trkpt lat="21.799034572825786" lon="-102.40359540117458"><ele>1913.0</ele><time>2026-03-22T14:39:40.986Z</time></trkpt><trkpt lat="21.799062504199266" lon="-102.40346801226414"><ele>1913.0</ele><time>2026-03-22T14:39:41.986Z</time></trkpt><trkpt lat="21.79909044751094" lon="-102.40333247104205"><ele>1913.0</ele><time>2026-03-22T14:39:42.986Z</time></trkpt><trkpt lat="21.799125033509377" lon="-102.40319119422801"><ele>1913.0</ele><time>2026-03-22T14:39:43.986Z</time></trkpt><trkpt lat="21.79916191009939" lon="-102.40304923719903"><ele>1913.0</ele><time>2026-03-22T14:39:44.986Z</time></trkpt><trkpt lat="21.79919259968578" lon="-102.40290483182963"><ele>1913.0</ele><time>2026-03-22T14:39:45.986Z</time></trkpt><trkpt lat="21.799221409618735" lon="-102.40277400513885"><ele>1913.0</ele><time>2026-03-22T14:39:46.986Z</time></trkpt><trkpt lat="21.799256518110177" lon="-102.40263869314565"><ele>1913.0</ele><time>2026-03-22T14:39:47.986Z</time></trkpt><trkpt lat="21.799288750888014" lon="-102.4025033162567"><ele>1913.0</ele><time>2026-03-22T14:39:48.986Z</time></trkpt><trkpt lat="21.799313970822972" lon="-102.40237247345225"><ele>1913.0</ele><time>2026-03-22T14:39:49.986Z</time></trkpt><trkpt lat="21.79933900113192" lon="-102.40223850423249"><ele>1912.0</ele><time>2026-03-22T14:39:50.986Z</time></trkpt><trkpt lat="21.79936526170031" lon="-102.4021063759271"><ele>1911.0</ele><time>2026-03-22T14:39:51.986Z</time></trkpt><trkpt lat="21.79939427051404" lon="-102.4019764832609"><ele>1910.0</ele><time>2026-03-22T14:39:52.986Z</time></trkpt><trkpt lat="21.799422258928775" lon="-102.4018477742207"><ele>1909.0</ele><time>2026-03-22T14:39:53.986Z</time></trkpt><trkpt lat="21.79945295944994" lon="-102.40171680912391"><ele>1909.0</ele><time>2026-03-22T14:39:54.987Z</time></trkpt><trkpt lat="21.799478908178987" lon="-102.40159034182388"><ele>1909.0</ele><time>2026-03-22T14:39:55.988Z</time></trkpt><trkpt lat="21.79950784317528" lon="-102.40145870335161"><ele>1909.0</ele><time>2026-03-22T14:39:56.988Z</time></trkpt><trkpt lat="21.799541534089872" lon="-102.4013223557568"><ele>1909.0</ele><time>2026-03-22T14:39:57.987Z</time></trkpt><trkpt lat="21.79957076402144" lon="-102.40119368370247"><ele>1909.25</ele><time>2026-03-22T14:39:58.988Z</time></trkpt><trkpt lat="21.799598341159804" lon="-102.40106196049906"><ele>1909.5</ele><time>2026-03-22T14:39:59.988Z</time></trkpt><trkpt lat="21.799625931412045" lon="-102.4009331563326"><ele>1909.75</ele><time>2026-03-22T14:40:00.988Z</time></trkpt><trkpt lat="21.799657018869812" lon="-102.4008051650123"><ele>1910.0</ele><time>2026-03-22T14:40:01.988Z</time></trkpt><trkpt lat="21.799686385479184" lon="-102.40068460877663"><ele>1910.0</ele><time>2026-03-22T14:40:02.988Z</time></trkpt><trkpt lat="21.799713954929057" lon="-102.40055181641118"><ele>1910.0</ele><time>2026-03-22T14:40:03.988Z</time></trkpt><trkpt lat="21.799743658757375" lon="-102.40041478446192"><ele>1910.0</ele><time>2026-03-22T14:40:04.987Z</time></trkpt><trkpt lat="21.799769430946572" lon="-102.40028883483419"><ele>1910.0</ele><time>2026-03-22T14:40:05.987Z</time></trkpt><trkpt lat="21.799797391994435" lon="-102.4001601501124"><ele>1909.5</ele><time>2026-03-22T14:40:06.987Z</time></trkpt><trkpt lat="21.799822426993224" lon="-102.40003615510685"><ele>1909.0</ele><time>2026-03-22T14:40:07.988Z</time></trkpt><trkpt lat="21.799849863185813" lon="-102.39990468716736"><ele>1908.5</ele><time>2026-03-22T14:40:08.988Z</time></trkpt><trkpt lat="21.79987338040927" lon="-102.39978257736134"><ele>1908.0</ele><time>2026-03-22T14:40:09.988Z</time></trkpt><trkpt lat="21.799900604171857" lon="-102.39966344158954"><ele>1907.5</ele><time>2026-03-22T14:40:10.988Z</time></trkpt><trkpt lat="21.799929240487877" lon="-102.3995383203609"><ele>1907.0</ele><time>2026-03-22T14:40:11.988Z</time></trkpt><trkpt lat="21.79996212969056" lon="-102.39940057791469"><ele>1906.5</ele><time>2026-03-22T14:40:12.988Z</time></trkpt><trkpt lat="21.799996501972437" lon="-102.39926207748337"><ele>1906.0</ele><time>2026-03-22T14:40:13.988Z</time></trkpt><trkpt lat="21.800026477802298" lon="-102.39912932123795"><ele>1906.0</ele><time>2026-03-22T14:40:14.988Z</time></trkpt><trkpt lat="21.800059858597088" lon="-102.3989987158722"><ele>1906.0</ele><time>2026-03-22T14:40:15.988Z</time></trkpt><trkpt lat="21.800089910915666" lon="-102.3988713429412"><ele>1906.0</ele><time>2026-03-22T14:40:16.988Z</time></trkpt><trkpt lat="21.80011906456131" lon="-102.39873792085173"><ele>1906.0</ele><time>2026-03-22T14:40:17.988Z</time></trkpt><trkpt lat="21.800146618245126" lon="-102.39861269513878"><ele>1905.5</ele><time>2026-03-22T14:40:18.988Z</time></trkpt><trkpt lat="21.800172128278" lon="-102.39848514712241"><ele>1905.0</ele><time>2026-03-22T14:40:19.988Z</time></trkpt><trkpt lat="21.80019927202219" lon="-102.39835360235334"><ele>1904.5</ele><time>2026-03-22T14:40:20.987Z</time></trkpt><trkpt lat="21.800230810325907" lon="-102.39822005854663"><ele>1904.0</ele><time>2026-03-22T14:40:21.987Z</time></trkpt><trkpt lat="21.80025739505509" lon="-102.39809045892518"><ele>1903.5</ele><time>2026-03-22T14:40:22.987Z</time></trkpt><trkpt lat="21.80028490887304" lon="-102.39795610139171"><ele>1903.0</ele><time>2026-03-22T14:40:23.987Z</time></trkpt><trkpt lat="21.800301752016104" lon="-102.39784216131775"><ele>1902.5</ele><time>2026-03-22T14:40:24.987Z</time></trkpt><trkpt lat="21.800326105285304" lon="-102.39771692745738"><ele>1902.0</ele><time>2026-03-22T14:40:25.987Z</time></trkpt><trkpt lat="21.80035219551504" lon="-102.39759624962441"><ele>1902.0</ele><time>2026-03-22T14:40:26.987Z</time></trkpt><trkpt lat="21.80037449206277" lon="-102.39747125342458"><ele>1902.0</ele><time>2026-03-22T14:40:27.987Z</time></trkpt><trkpt lat="21.800403737400902" lon="-102.39734565712087"><ele>1902.0</ele><time>2026-03-22T14:40:28.987Z</time></trkpt><trkpt lat="21.800433972776883" lon="-102.39722549009032"><ele>1902.0</ele><time>2026-03-22T14:40:29.987Z</time></trkpt><trkpt lat="21.80045509060954" lon="-102.3971074187868"><ele>1901.6</ele><time>2026-03-22T14:40:30.987Z</time></trkpt><trkpt lat="21.800477792540224" lon="-102.3969957692408"><ele>1901.1999999999998</ele><time>2026-03-22T14:40:31.987Z</time></trkpt><trkpt lat="21.80050381379191" lon="-102.39688686987031"><ele>1900.8</ele><time>2026-03-22T14:40:32.987Z</time></trkpt><trkpt lat="21.800528046766377" lon="-102.39676833098999"><ele>1900.4</ele><time>2026-03-22T14:40:33.987Z</time></trkpt><trkpt lat="21.800551341031323" lon="-102.39664475702794"><ele>1900.0</ele><time>2026-03-22T14:40:34.987Z</time></trkpt><trkpt lat="21.800577076872518" lon="-102.39652496661152"><ele>1900.0</ele><time>2026-03-22T14:40:35.987Z</time></trkpt><trkpt lat="21.80060333265231" lon="-102.39639914580144"><ele>1900.0</ele><time>2026-03-22T14:40:36.987Z</time></trkpt><trkpt lat="21.8006310927657" lon="-102.3962723036329"><ele>1900.0</ele><time>2026-03-22T14:40:37.987Z</time></trkpt><trkpt lat="21.80065480653377" lon="-102.39615057533653"><ele>1900.0</ele><time>2026-03-22T14:40:38.987Z</time></trkpt><trkpt lat="21.800680899367933" lon="-102.39602550320652"><ele>1899.25</ele><time>2026-03-22T14:40:39.987Z</time></trkpt><trkpt lat="21.8007095632924" lon="-102.39589957526191"><ele>1898.5</ele><time>2026-03-22T14:40:40.987Z</time></trkpt><trkpt lat="21.80074030600314" lon="-102.39577148165725"><ele>1897.75</ele><time>2026-03-22T14:40:41.987Z</time></trkpt><trkpt lat="21.80076353616722" lon="-102.39564446784165"><ele>1897.0</ele><time>2026-03-22T14:40:42.987Z</time></trkpt><trkpt lat="21.80079530681373" lon="-102.39550446851433"><ele>1897.0</ele><time>2026-03-22T14:40:43.987Z</time></trkpt><trkpt lat="21.80083251560359" lon="-102.39537469726122"><ele>1897.0</ele><time>2026-03-22T14:40:44.987Z</time></trkpt><trkpt lat="21.80087619777909" lon="-102.39524416467945"><ele>1897.0</ele><time>2026-03-22T14:40:45.987Z</time></trkpt><trkpt lat="21.80092810733446" lon="-102.39510876298654"><ele>1897.0</ele><time>2026-03-22T14:40:46.987Z</time></trkpt><trkpt lat="21.80098889764021" lon="-102.39496956651652"><ele>1896.5</ele><time>2026-03-22T14:40:47.987Z</time></trkpt><trkpt lat="21.8010558593717" lon="-102.39482972344409"><ele>1896.0</ele><time>2026-03-22T14:40:48.987Z</time></trkpt><trkpt lat="21.801132381424527" lon="-102.3946932101756"><ele>1895.5</ele><time>2026-03-22T14:40:49.987Z</time></trkpt><trkpt lat="21.801209477085873" lon="-102.39456409718522"><ele>1895.0</ele><time>2026-03-22T14:40:50.987Z</time></trkpt><trkpt lat="21.801296356165317" lon="-102.39443823988017"><ele>1893.3333333333333</ele><time>2026-03-22T14:40:51.987Z</time></trkpt><trkpt lat="21.801395893749866" lon="-102.39432249657438"><ele>1891.6666666666665</ele><time>2026-03-22T14:40:52.987Z</time></trkpt><trkpt lat="21.801512922512828" lon="-102.39421041186974"><ele>1890.0</ele><time>2026-03-22T14:40:53.987Z</time></trkpt><trkpt lat="21.801625950261467" lon="-102.39409987886758"><ele>1890.0</ele><time>2026-03-22T14:40:54.987Z</time></trkpt><trkpt lat="21.80173932445048" lon="-102.39398879934407"><ele>1890.0</ele><time>2026-03-22T14:40:55.987Z</time></trkpt><trkpt lat="21.801856472905147" lon="-102.39388150025765"><ele>1890.0</ele><time>2026-03-22T14:40:56.987Z</time></trkpt><trkpt lat="21.801983275669134" lon="-102.39377248397564"><ele>1887.0</ele><time>2026-03-22T14:40:57.987Z</time></trkpt><trkpt lat="21.802111540836318" lon="-102.39365732559115"><ele>1884.0</ele><time>2026-03-22T14:40:58.987Z</time></trkpt><trkpt lat="21.802235121843836" lon="-102.39353896349657"><ele>1881.0</ele><time>2026-03-22T14:40:59.987Z</time></trkpt><trkpt lat="21.802356563842988" lon="-102.3934247050221"><ele>1881.0</ele><time>2026-03-22T14:41:00.987Z</time></trkpt><trkpt lat="21.80248224916862" lon="-102.39330921952984"><ele>1881.0</ele><time>2026-03-22T14:41:01.987Z</time></trkpt><trkpt lat="21.80261094060534" lon="-102.39318957528258"><ele>1881.0</ele><time>2026-03-22T14:41:02.987Z</time></trkpt><trkpt lat="21.80273731259736" lon="-102.39306566157411"><ele>1878.6666666666665</ele><time>2026-03-22T14:41:03.987Z</time></trkpt><trkpt lat="21.802863952102204" lon="-102.39294902366284"><ele>1876.3333333333333</ele><time>2026-03-22T14:41:04.987Z</time></trkpt><trkpt lat="21.80300379767034" lon="-102.39282463934205"><ele>1874.0</ele><time>2026-03-22T14:41:05.987Z</time></trkpt><trkpt lat="21.80313140806444" lon="-102.39270228613707"><ele>1874.0</ele><time>2026-03-22T14:41:06.987Z</time></trkpt><trkpt lat="21.80326682075102" lon="-102.39257510797891"><ele>1874.0</ele><time>2026-03-22T14:41:07.987Z</time></trkpt><trkpt lat="21.80339675437218" lon="-102.39244687319889"><ele>1874.0</ele><time>2026-03-22T14:41:08.987Z</time></trkpt><trkpt lat="21.803529931786677" lon="-102.39232190717935"><ele>1873.0</ele><time>2026-03-22T14:41:09.987Z</time></trkpt><trkpt lat="21.80365348887309" lon="-102.39219584710412"><ele>1872.0</ele><time>2026-03-22T14:41:10.987Z</time></trkpt><trkpt lat="21.803793811880908" lon="-102.39207939110399"><ele>1871.0</ele><time>2026-03-22T14:41:11.987Z</time></trkpt><trkpt lat="21.8039351087497" lon="-102.39196140587205"><ele>1870.0</ele><time>2026-03-22T14:41:12.987Z</time></trkpt><trkpt lat="21.804071716325623" lon="-102.39184036362909"><ele>1869.0</ele><time>2026-03-22T14:41:13.987Z</time></trkpt><trkpt lat="21.804214026213558" lon="-102.39171238181387"><ele>1868.0</ele><time>2026-03-22T14:41:14.987Z</time></trkpt><trkpt lat="21.804352147035583" lon="-102.39158883932912"><ele>1865.3333333333333</ele><time>2026-03-22T14:41:15.987Z</time></trkpt><trkpt lat="21.80448985099966" lon="-102.3914615246646"><ele>1862.6666666666665</ele><time>2026-03-22T14:41:16.987Z</time></trkpt><trkpt lat="21.80462901462488" lon="-102.39133406479807"><ele>1860.0</ele><time>2026-03-22T14:41:17.987Z</time></trkpt><trkpt lat="21.804766085986746" lon="-102.39120486472899"><ele>1859.6666666666665</ele><time>2026-03-22T14:41:18.987Z</time></trkpt><trkpt lat="21.804910767534544" lon="-102.39107661927632"><ele>1859.3333333333333</ele><time>2026-03-22T14:41:19.987Z</time></trkpt><trkpt lat="21.805055040470396" lon="-102.3909434442197"><ele>1859.0</ele><time>2026-03-22T14:41:20.987Z</time></trkpt><trkpt lat="21.805195788876656" lon="-102.39081370640599"><ele>1857.3333333333333</ele><time>2026-03-22T14:41:21.987Z</time></trkpt><trkpt lat="21.80533875654127" lon="-102.39068217927384"><ele>1855.6666666666665</ele><time>2026-03-22T14:41:22.987Z</time></trkpt><trkpt lat="21.805487319197354" lon="-102.39054481817995"><ele>1854.0</ele><time>2026-03-22T14:41:23.987Z</time></trkpt><trkpt lat="21.805633475644314" lon="-102.39040986998573"><ele>1853.0</ele><time>2026-03-22T14:41:24.987Z</time></trkpt><trkpt lat="21.80577787042562" lon="-102.39027624269234"><ele>1852.0</ele><time>2026-03-22T14:41:25.987Z</time></trkpt><trkpt lat="21.805923087219696" lon="-102.39013994081242"><ele>1851.0</ele><time>2026-03-22T14:41:26.987Z</time></trkpt><trkpt lat="21.80606808138515" lon="-102.39000728807653"><ele>1850.6666666666665</ele><time>2026-03-22T14:41:27.987Z</time></trkpt><trkpt lat="21.806216022402495" lon="-102.38987284153471"><ele>1850.3333333333333</ele><time>2026-03-22T14:41:28.986Z</time></trkpt><trkpt lat="21.806361759729196" lon="-102.38973795065381"><ele>1850.0</ele><time>2026-03-22T14:41:29.986Z</time></trkpt><trkpt lat="21.806501336071335" lon="-102.38960740586832"><ele>1849.3333333333333</ele><time>2026-03-22T14:41:30.986Z</time></trkpt><trkpt lat="21.806633407537166" lon="-102.38948558210916"><ele>1848.6666666666665</ele><time>2026-03-22T14:41:31.986Z</time></trkpt><trkpt lat="21.80676088069301" lon="-102.38936419364282"><ele>1848.0</ele><time>2026-03-22T14:41:32.986Z</time></trkpt><trkpt lat="21.80688324004982" lon="-102.38923936372247"><ele>1849.6666666666665</ele><time>2026-03-22T14:41:33.986Z</time></trkpt><trkpt lat="21.80700056216653" lon="-102.3891244840982"><ele>1851.3333333333333</ele><time>2026-03-22T14:41:34.986Z</time></trkpt><trkpt lat="21.807115867269136" lon="-102.38901035999594"><ele>1853.0</ele><time>2026-03-22T14:41:35.986Z</time></trkpt><trkpt lat="21.807228154295125" lon="-102.38890010743926"><ele>1852.5</ele><time>2026-03-22T14:41:36.986Z</time></trkpt><trkpt lat="21.80734316942634" lon="-102.38878936440837"><ele>1852.0</ele><time>2026-03-22T14:41:37.986Z</time></trkpt><trkpt lat="21.807454227816432" lon="-102.38867989839164"><ele>1851.5</ele><time>2026-03-22T14:41:38.986Z</time></trkpt><trkpt lat="21.80756102830973" lon="-102.38857500865198"><ele>1851.0</ele><time>2026-03-22T14:41:39.986Z</time></trkpt><trkpt lat="21.807667905609176" lon="-102.38847275698835"><ele>1852.75</ele><time>2026-03-22T14:41:40.986Z</time></trkpt><trkpt lat="21.807774870283605" lon="-102.38836797012776"><ele>1854.5</ele><time>2026-03-22T14:41:41.986Z</time></trkpt><trkpt lat="21.807874676134347" lon="-102.38827421248514"><ele>1856.25</ele><time>2026-03-22T14:41:42.986Z</time></trkpt><trkpt lat="21.80797593815634" lon="-102.38817376757329"><ele>1858.0</ele><time>2026-03-22T14:41:43.986Z</time></trkpt><trkpt lat="21.808073146500586" lon="-102.3880775040332"><ele>1857.75</ele><time>2026-03-22T14:41:44.986Z</time></trkpt><trkpt lat="21.80816418754816" lon="-102.3879919064955"><ele>1857.5</ele><time>2026-03-22T14:41:45.986Z</time></trkpt><trkpt lat="21.808255413736173" lon="-102.38790987532298"><ele>1857.25</ele><time>2026-03-22T14:41:46.986Z</time></trkpt><trkpt lat="21.808343174613373" lon="-102.38783315960899"><ele>1857.0</ele><time>2026-03-22T14:41:47.986Z</time></trkpt><trkpt lat="21.80842515801834" lon="-102.38775273689627"><ele>1857.8</ele><time>2026-03-22T14:41:48.986Z</time></trkpt><trkpt lat="21.808509884845158" lon="-102.38767054237816"><ele>1858.6</ele><time>2026-03-22T14:41:49.986Z</time></trkpt><trkpt lat="21.808588553473783" lon="-102.38759792703313"><ele>1859.3999999999999</ele><time>2026-03-22T14:41:50.986Z</time></trkpt><trkpt lat="21.808669447319776" lon="-102.38753131010023"><ele>1860.1999999999998</ele><time>2026-03-22T14:41:51.986Z</time></trkpt><trkpt lat="21.808739025479074" lon="-102.38746216849208"><ele>1861.0</ele><time>2026-03-22T14:41:52.986Z</time></trkpt><trkpt lat="21.80880423449005" lon="-102.38739858319151"><ele>1861.0</ele><time>2026-03-22T14:41:53.986Z</time></trkpt><trkpt lat="21.808874462460967" lon="-102.38733710313326"><ele>1861.0</ele><time>2026-03-22T14:41:54.986Z</time></trkpt><trkpt lat="21.808941937304876" lon="-102.38728387961775"><ele>1861.0</ele><time>2026-03-22T14:41:55.986Z</time></trkpt><trkpt lat="21.809010040238626" lon="-102.38721507024003"><ele>1861.0</ele><time>2026-03-22T14:41:56.986Z</time></trkpt><trkpt lat="21.80908267292278" lon="-102.38714417648535"><ele>1861.0</ele><time>2026-03-22T14:41:57.986Z</time></trkpt><trkpt lat="21.80915371647095" lon="-102.38707533514008"><ele>1861.0</ele><time>2026-03-22T14:41:58.986Z</time></trkpt><trkpt lat="21.80922473079673" lon="-102.38700964895548"><ele>1861.0</ele><time>2026-03-22T14:41:59.986Z</time></trkpt><trkpt lat="21.80929479206484" lon="-102.38693726717538"><ele>1861.0</ele><time>2026-03-22T14:42:00.988Z</time></trkpt><trkpt lat="21.809370214414" lon="-102.38686848393232"><ele>1861.0</ele><time>2026-03-22T14:42:01.987Z</time></trkpt><trkpt lat="21.809447983190164" lon="-102.38679528283252"><ele>1861.0</ele><time>2026-03-22T14:42:02.987Z</time></trkpt><trkpt lat="21.809528752086578" lon="-102.38672038074924"><ele>1861.0</ele><time>2026-03-22T14:42:03.987Z</time></trkpt><trkpt lat="21.809608626191668" lon="-102.38663952560584"><ele>1861.0</ele><time>2026-03-22T14:42:04.987Z</time></trkpt><trkpt lat="21.809694354948178" lon="-102.38655577540082"><ele>1861.0</ele><time>2026-03-22T14:42:05.987Z</time></trkpt><trkpt lat="21.809774464661743" lon="-102.38647929331303"><ele>1861.0</ele><time>2026-03-22T14:42:06.987Z</time></trkpt><trkpt lat="21.809859426971297" lon="-102.38640077434015"><ele>1861.0</ele><time>2026-03-22T14:42:07.987Z</time></trkpt><trkpt lat="21.809949936117413" lon="-102.38631685261109"><ele>1860.8</ele><time>2026-03-22T14:42:08.987Z</time></trkpt><trkpt lat="21.8100330602006" lon="-102.38623844825544"><ele>1860.6</ele><time>2026-03-22T14:42:09.987Z</time></trkpt><trkpt lat="21.810115473894278" lon="-102.38616163632639"><ele>1860.4</ele><time>2026-03-22T14:42:10.987Z</time></trkpt><trkpt lat="21.810198727743796" lon="-102.38608009765714"><ele>1860.2</ele><time>2026-03-22T14:42:11.987Z</time></trkpt><trkpt lat="21.81027763824492" lon="-102.38600025950298"><ele>1860.0</ele><time>2026-03-22T14:42:12.988Z</time></trkpt><trkpt lat="21.810361790717476" lon="-102.385922937369"><ele>1860.0</ele><time>2026-03-22T14:42:13.987Z</time></trkpt><trkpt lat="21.810447754962066" lon="-102.38584672039796"><ele>1860.0</ele><time>2026-03-22T14:42:14.987Z</time></trkpt><trkpt lat="21.810535728795934" lon="-102.38576058801556"><ele>1860.0</ele><time>2026-03-22T14:42:15.987Z</time></trkpt><trkpt lat="21.810614285040316" lon="-102.38568857259403"><ele>1860.0</ele><time>2026-03-22T14:42:16.987Z</time></trkpt><trkpt lat="21.810704795954965" lon="-102.3856031905382"><ele>1860.0</ele><time>2026-03-22T14:42:17.987Z</time></trkpt><trkpt lat="21.81078978203199" lon="-102.38552428696057"><ele>1860.0</ele><time>2026-03-22T14:42:18.987Z</time></trkpt><trkpt lat="21.810872589948755" lon="-102.38544167721625"><ele>1860.0</ele><time>2026-03-22T14:42:19.987Z</time></trkpt><trkpt lat="21.810956415451376" lon="-102.38535861272376"><ele>1860.0</ele><time>2026-03-22T14:42:20.987Z</time></trkpt><trkpt lat="21.81103882101804" lon="-102.38528923007891"><ele>1860.0</ele><time>2026-03-22T14:42:21.987Z</time></trkpt><trkpt lat="21.81112881700372" lon="-102.38520579532435"><ele>1859.25</ele><time>2026-03-22T14:42:22.987Z</time></trkpt><trkpt lat="21.811218357296337" lon="-102.38512011931921"><ele>1858.5</ele><time>2026-03-22T14:42:23.987Z</time></trkpt><trkpt lat="21.811305222726613" lon="-102.38503434606234"><ele>1857.75</ele><time>2026-03-22T14:42:24.987Z</time></trkpt><trkpt lat="21.811394488246684" lon="-102.3849478023684"><ele>1857.0</ele><time>2026-03-22T14:42:25.987Z</time></trkpt><trkpt lat="21.81148411173078" lon="-102.38486185349046"><ele>1857.0</ele><time>2026-03-22T14:42:26.987Z</time></trkpt><trkpt lat="21.811575450720554" lon="-102.38477476828757"><ele>1857.0</ele><time>2026-03-22T14:42:27.987Z</time></trkpt><trkpt lat="21.811667810402906" lon="-102.38468764215116"><ele>1857.0</ele><time>2026-03-22T14:42:28.987Z</time></trkpt><trkpt lat="21.811754189846106" lon="-102.38460465035995"><ele>1857.0</ele><time>2026-03-22T14:42:29.987Z</time></trkpt><trkpt lat="21.811844115244075" lon="-102.38452545842493"><ele>1856.25</ele><time>2026-03-22T14:42:30.987Z</time></trkpt><trkpt lat="21.81193440227532" lon="-102.3844362801779"><ele>1855.5</ele><time>2026-03-22T14:42:31.987Z</time></trkpt><trkpt lat="21.812024151218544" lon="-102.38435327396506"><ele>1854.75</ele><time>2026-03-22T14:42:32.987Z</time></trkpt><trkpt lat="21.812121086274246" lon="-102.38426722753225"><ele>1854.0</ele><time>2026-03-22T14:42:33.987Z</time></trkpt><trkpt lat="21.812206285134984" lon="-102.38418819034423"><ele>1854.0</ele><time>2026-03-22T14:42:34.987Z</time></trkpt><trkpt lat="21.81230002859436" lon="-102.38410233659913"><ele>1854.0</ele><time>2026-03-22T14:42:35.987Z</time></trkpt><trkpt lat="21.81238792748763" lon="-102.38402129637416"><ele>1854.0</ele><time>2026-03-22T14:42:36.987Z</time></trkpt><trkpt lat="21.812489557713423" lon="-102.38392981410716"><ele>1854.0</ele><time>2026-03-22T14:42:37.987Z</time></trkpt><trkpt lat="21.812582576259686" lon="-102.38383710810503"><ele>1854.0</ele><time>2026-03-22T14:42:38.987Z</time></trkpt><trkpt lat="21.812670193204124" lon="-102.38374406065837"><ele>1854.0</ele><time>2026-03-22T14:42:39.987Z</time></trkpt><trkpt lat="21.812759098359887" lon="-102.38366174458517"><ele>1854.0</ele><time>2026-03-22T14:42:40.987Z</time></trkpt><trkpt lat="21.81285252400416" lon="-102.38358249329674"><ele>1854.0</ele><time>2026-03-22T14:42:41.987Z</time></trkpt><trkpt lat="21.812939147079973" lon="-102.38349807982391"><ele>1854.0</ele><time>2026-03-22T14:42:42.987Z</time></trkpt><trkpt lat="21.81302870358901" lon="-102.38341779400916"><ele>1854.0</ele><time>2026-03-22T14:42:43.987Z</time></trkpt><trkpt lat="21.81312564130365" lon="-102.38333340798104"><ele>1854.0</ele><time>2026-03-22T14:42:44.987Z</time></trkpt><trkpt lat="21.8132113371862" lon="-102.38325615557936"><ele>1854.0</ele><time>2026-03-22T14:42:45.987Z</time></trkpt><trkpt lat="21.813302384789992" lon="-102.38317710298425"><ele>1854.0</ele><time>2026-03-22T14:42:46.987Z</time></trkpt><trkpt lat="21.813392528965778" lon="-102.38309332192347"><ele>1854.0</ele><time>2026-03-22T14:42:47.986Z</time></trkpt><trkpt lat="21.813481433200874" lon="-102.38300955151675"><ele>1854.0</ele><time>2026-03-22T14:42:48.986Z</time></trkpt><trkpt lat="21.81356927896547" lon="-102.38292831237108"><ele>1854.0</ele><time>2026-03-22T14:42:49.986Z</time></trkpt><trkpt lat="21.813665905419562" lon="-102.38284070831966"><ele>1853.0</ele><time>2026-03-22T14:42:50.986Z</time></trkpt><trkpt lat="21.813766029885542" lon="-102.3827490808916"><ele>1852.0</ele><time>2026-03-22T14:42:51.986Z</time></trkpt><trkpt lat="21.81386594058335" lon="-102.38265512474167"><ele>1851.0</ele><time>2026-03-22T14:42:52.986Z</time></trkpt><trkpt lat="21.813963090149308" lon="-102.38257141133532"><ele>1850.0</ele><time>2026-03-22T14:42:53.986Z</time></trkpt><trkpt lat="21.814061331735235" lon="-102.38247953391996"><ele>1850.0</ele><time>2026-03-22T14:42:54.986Z</time></trkpt><trkpt lat="21.814160954677654" lon="-102.38238023157237"><ele>1850.0</ele><time>2026-03-22T14:42:55.986Z</time></trkpt><trkpt lat="21.814258167628687" lon="-102.38229018990202"><ele>1850.0</ele><time>2026-03-22T14:42:56.986Z</time></trkpt><trkpt lat="21.81436422838392" lon="-102.38219519286193"><ele>1850.0</ele><time>2026-03-22T14:42:57.986Z</time></trkpt><trkpt lat="21.814465158363003" lon="-102.38209584187902"><ele>1849.5</ele><time>2026-03-22T14:42:58.986Z</time></trkpt><trkpt lat="21.814567459125126" lon="-102.38199698146698"><ele>1849.0</ele><time>2026-03-22T14:42:59.986Z</time></trkpt><trkpt lat="21.814678275512975" lon="-102.38190038807616"><ele>1848.5</ele><time>2026-03-22T14:43:00.986Z</time></trkpt><trkpt lat="21.814783762815242" lon="-102.38180689248703"><ele>1848.0</ele><time>2026-03-22T14:43:01.986Z</time></trkpt><trkpt lat="21.814890816037195" lon="-102.38171738300234"><ele>1848.0</ele><time>2026-03-22T14:43:02.986Z</time></trkpt><trkpt lat="21.814992743864575" lon="-102.38162296850588"><ele>1848.0</ele><time>2026-03-22T14:43:03.986Z</time></trkpt><trkpt lat="21.815101910996276" lon="-102.38153149526521"><ele>1848.0</ele><time>2026-03-22T14:43:04.986Z</time></trkpt><trkpt lat="21.81521392352612" lon="-102.38143408240546"><ele>1848.0</ele><time>2026-03-22T14:43:05.986Z</time></trkpt><trkpt lat="21.81531785782592" lon="-102.38133819707492"><ele>1847.25</ele><time>2026-03-22T14:43:06.986Z</time></trkpt><trkpt lat="21.81542476673113" lon="-102.3812396644605"><ele>1846.5</ele><time>2026-03-22T14:43:07.986Z</time></trkpt><trkpt lat="21.81553352531672" lon="-102.38114247033522"><ele>1845.75</ele><time>2026-03-22T14:43:08.986Z</time></trkpt><trkpt lat="21.815635897826862" lon="-102.38104399302009"><ele>1845.0</ele><time>2026-03-22T14:43:09.986Z</time></trkpt><trkpt lat="21.81574067961343" lon="-102.38094114248126"><ele>1845.0</ele><time>2026-03-22T14:43:10.986Z</time></trkpt><trkpt lat="21.815843551675798" lon="-102.38084686923732"><ele>1845.0</ele><time>2026-03-22T14:43:11.986Z</time></trkpt><trkpt lat="21.815942915650034" lon="-102.38074226596899"><ele>1845.0</ele><time>2026-03-22T14:43:12.986Z</time></trkpt><trkpt lat="21.816042310633037" lon="-102.38064777468506"><ele>1845.0</ele><time>2026-03-22T14:43:13.986Z</time></trkpt><trkpt lat="21.816140242925794" lon="-102.38054598488631"><ele>1844.5</ele><time>2026-03-22T14:43:14.986Z</time></trkpt><trkpt lat="21.81623463046572" lon="-102.38045892082786"><ele>1844.0</ele><time>2026-03-22T14:43:15.986Z</time></trkpt><trkpt lat="21.816324217733587" lon="-102.38037069428974"><ele>1843.5</ele><time>2026-03-22T14:43:16.986Z</time></trkpt><trkpt lat="21.816422482260826" lon="-102.3802813620936"><ele>1843.0</ele><time>2026-03-22T14:43:17.986Z</time></trkpt><trkpt lat="21.816520368833388" lon="-102.38020552347294"><ele>1843.0</ele><time>2026-03-22T14:43:18.986Z</time></trkpt><trkpt lat="21.816621283858428" lon="-102.38012384660526"><ele>1843.0</ele><time>2026-03-22T14:43:19.986Z</time></trkpt><trkpt lat="21.8167249419217" lon="-102.38004544571336"><ele>1843.0</ele><time>2026-03-22T14:43:20.986Z</time></trkpt><trkpt lat="21.816829431797423" lon="-102.37997458318078"><ele>1843.0</ele><time>2026-03-22T14:43:21.986Z</time></trkpt><trkpt lat="21.816922111849514" lon="-102.37990367313455"><ele>1843.0</ele><time>2026-03-22T14:43:22.986Z</time></trkpt><trkpt lat="21.817019932275404" lon="-102.37983385363515"><ele>1843.0000000000002</ele><time>2026-03-22T14:43:23.986Z</time></trkpt><trkpt lat="21.81711678529874" lon="-102.37977493789995"><ele>1843.0000000000002</ele><time>2026-03-22T14:43:24.986Z</time></trkpt><trkpt lat="21.81721240929623" lon="-102.37971798841336"><ele>1843.0</ele><time>2026-03-22T14:43:25.986Z</time></trkpt><trkpt lat="21.817302904371022" lon="-102.37966957364176"><ele>1843.0</ele><time>2026-03-22T14:43:26.986Z</time></trkpt><trkpt lat="21.817399131842446" lon="-102.37961690376513"><ele>1843.0</ele><time>2026-03-22T14:43:27.986Z</time></trkpt><trkpt lat="21.817485019676944" lon="-102.37957493541883"><ele>1843.0000000000002</ele><time>2026-03-22T14:43:28.986Z</time></trkpt><trkpt lat="21.817568735418828" lon="-102.37953121949963"><ele>1843.0000000000002</ele><time>2026-03-22T14:43:29.986Z</time></trkpt><trkpt lat="21.817653381174367" lon="-102.37948753943478"><ele>1843.0</ele><time>2026-03-22T14:43:30.986Z</time></trkpt><trkpt lat="21.81773545633226" lon="-102.37944562005461"><ele>1843.0</ele><time>2026-03-22T14:43:31.986Z</time></trkpt><trkpt lat="21.817815945660783" lon="-102.3794100130319"><ele>1844.1666666666667</ele><time>2026-03-22T14:43:32.986Z</time></trkpt><trkpt lat="21.817899547237964" lon="-102.37937214506705"><ele>1845.3333333333335</ele><time>2026-03-22T14:43:33.986Z</time></trkpt><trkpt lat="21.8179769360069" lon="-102.37933907388525"><ele>1846.5</ele><time>2026-03-22T14:43:34.986Z</time></trkpt><trkpt lat="21.818052791666055" lon="-102.37930518202096"><ele>1847.6666666666665</ele><time>2026-03-22T14:43:35.986Z</time></trkpt><trkpt lat="21.818131677654005" lon="-102.37926574366094"><ele>1848.8333333333333</ele><time>2026-03-22T14:43:36.986Z</time></trkpt><trkpt lat="21.81821242941283" lon="-102.37922150211024"><ele>1850.0</ele><time>2026-03-22T14:43:37.986Z</time></trkpt><trkpt lat="21.8182970243926" lon="-102.37917879915969"><ele>1850.0</ele><time>2026-03-22T14:43:38.986Z</time></trkpt><trkpt lat="21.818381069690698" lon="-102.37913627252573"><ele>1850.0</ele><time>2026-03-22T14:43:39.986Z</time></trkpt><trkpt lat="21.818462848543465" lon="-102.37909422003796"><ele>1850.0</ele><time>2026-03-22T14:43:40.986Z</time></trkpt><trkpt lat="21.81854660724115" lon="-102.37905548596976"><ele>1850.0</ele><time>2026-03-22T14:43:41.986Z</time></trkpt><trkpt lat="21.81863152013024" lon="-102.37901723110524"><ele>1850.0</ele><time>2026-03-22T14:43:42.986Z</time></trkpt><trkpt lat="21.81871245205724" lon="-102.37898412110806"><ele>1850.4</ele><time>2026-03-22T14:43:43.986Z</time></trkpt><trkpt lat="21.818801920036137" lon="-102.3789391929618"><ele>1850.8</ele><time>2026-03-22T14:43:44.986Z</time></trkpt><trkpt lat="21.818887232529335" lon="-102.37889668996337"><ele>1851.1999999999998</ele><time>2026-03-22T14:43:45.986Z</time></trkpt><trkpt lat="21.818967470436277" lon="-102.37885393084845"><ele>1851.6</ele><time>2026-03-22T14:43:46.986Z</time></trkpt><trkpt lat="21.819042316647224" lon="-102.37881820859707"><ele>1852.0</ele><time>2026-03-22T14:43:47.986Z</time></trkpt><trkpt lat="21.81911770790007" lon="-102.37877335230378"><ele>1851.8333333333335</ele><time>2026-03-22T14:43:48.986Z</time></trkpt><trkpt lat="21.819198439751588" lon="-102.37873513489238"><ele>1851.6666666666667</ele><time>2026-03-22T14:43:49.986Z</time></trkpt><trkpt lat="21.819277086102254" lon="-102.37869333946082"><ele>1851.5</ele><time>2026-03-22T14:43:50.986Z</time></trkpt><trkpt lat="21.819357298751143" lon="-102.37865642466035"><ele>1851.3333333333335</ele><time>2026-03-22T14:43:51.985Z</time></trkpt><trkpt lat="21.81943812224124" lon="-102.37861778697214"><ele>1851.1666666666667</ele><time>2026-03-22T14:43:52.985Z</time></trkpt><trkpt lat="21.81951815912698" lon="-102.3785789894382"><ele>1851.0</ele><time>2026-03-22T14:43:53.985Z</time></trkpt><trkpt lat="21.819594817027696" lon="-102.37854244875169"><ele>1851.0</ele><time>2026-03-22T14:43:54.985Z</time></trkpt><trkpt lat="21.819672189236346" lon="-102.37850297855945"><ele>1851.0</ele><time>2026-03-22T14:43:55.985Z</time></trkpt><trkpt lat="21.819753192213057" lon="-102.37846299755319"><ele>1851.0</ele><time>2026-03-22T14:43:56.985Z</time></trkpt><trkpt lat="21.81983521181303" lon="-102.37842072455133"><ele>1851.0</ele><time>2026-03-22T14:43:57.985Z</time></trkpt><trkpt lat="21.819910622855943" lon="-102.37837881821979"><ele>1851.0</ele><time>2026-03-22T14:43:58.985Z</time></trkpt><trkpt lat="21.81998241065665" lon="-102.37834305816723"><ele>1851.0</ele><time>2026-03-22T14:43:59.985Z</time></trkpt><trkpt lat="21.82006161555891" lon="-102.37830366499512"><ele>1851.0</ele><time>2026-03-22T14:44:00.985Z</time></trkpt><trkpt lat="21.82013743986901" lon="-102.37826866834463"><ele>1851.0</ele><time>2026-03-22T14:44:01.985Z</time></trkpt><trkpt lat="21.82021628049866" lon="-102.37823079083098"><ele>1851.0</ele><time>2026-03-22T14:44:02.985Z</time></trkpt><trkpt lat="21.8202982517312" lon="-102.37819451911724"><ele>1851.0</ele><time>2026-03-22T14:44:03.985Z</time></trkpt><trkpt lat="21.82037119569003" lon="-102.37816279376462"><ele>1851.0</ele><time>2026-03-22T14:44:04.985Z</time></trkpt><trkpt lat="21.820453300871787" lon="-102.37812088530984"><ele>1851.0</ele><time>2026-03-22T14:44:05.986Z</time></trkpt><trkpt lat="21.820529255180467" lon="-102.3780788470531"><ele>1851.5</ele><time>2026-03-22T14:44:06.986Z</time></trkpt><trkpt lat="21.82060348330009" lon="-102.37804377105678"><ele>1852.0</ele><time>2026-03-22T14:44:07.986Z</time></trkpt><trkpt lat="21.820677296036184" lon="-102.37800548043835"><ele>1852.5</ele><time>2026-03-22T14:44:08.986Z</time></trkpt><trkpt lat="21.820752731275384" lon="-102.37796535716855"><ele>1853.0</ele><time>2026-03-22T14:44:09.986Z</time></trkpt><trkpt lat="21.820816634977184" lon="-102.37793757621887"><ele>1853.5</ele><time>2026-03-22T14:44:10.986Z</time></trkpt><trkpt lat="21.820897490349807" lon="-102.37789888212565"><ele>1854.0</ele><time>2026-03-22T14:44:11.987Z</time></trkpt><trkpt lat="21.820966030081635" lon="-102.37786513927217"><ele>1853.428571428571</ele><time>2026-03-22T14:44:12.986Z</time></trkpt><trkpt lat="21.821041348581755" lon="-102.37783820714107"><ele>1852.8571428571427</ele><time>2026-03-22T14:44:13.986Z</time></trkpt><trkpt lat="21.821115191973796" lon="-102.37780941925115"><ele>1852.2857142857142</ele><time>2026-03-22T14:44:14.986Z</time></trkpt><trkpt lat="21.821185875405927" lon="-102.37778731852626"><ele>1851.7142857142856</ele><time>2026-03-22T14:44:15.986Z</time></trkpt><trkpt lat="21.82125683296071" lon="-102.3777732182597"><ele>1851.1428571428569</ele><time>2026-03-22T14:44:16.986Z</time></trkpt><trkpt lat="21.82132722245215" lon="-102.37774980947671"><ele>1850.5714285714287</ele><time>2026-03-22T14:44:17.987Z</time></trkpt><trkpt lat="21.821394006524557" lon="-102.37773157435768"><ele>1850.0</ele><time>2026-03-22T14:44:18.986Z</time></trkpt><trkpt lat="21.821468691759303" lon="-102.37771217896781"><ele>1849.9999999999998</ele><time>2026-03-22T14:44:19.986Z</time></trkpt><trkpt lat="21.82153598520722" lon="-102.37769466558667"><ele>1850.0</ele><time>2026-03-22T14:44:20.986Z</time></trkpt><trkpt lat="21.82161247377643" lon="-102.37767870099563"><ele>1850.0</ele><time>2026-03-22T14:44:21.986Z</time></trkpt><trkpt lat="21.821691147008806" lon="-102.37766173382553"><ele>1850.0</ele><time>2026-03-22T14:44:22.986Z</time></trkpt><trkpt lat="21.821766990739622" lon="-102.37764887936578"><ele>1849.9999999999998</ele><time>2026-03-22T14:44:23.986Z</time></trkpt><trkpt lat="21.82184531583176" lon="-102.3776409189503"><ele>1850.0</ele><time>2026-03-22T14:44:24.986Z</time></trkpt><trkpt lat="21.821917266692193" lon="-102.3776310314942"><ele>1850.4999999999998</ele><time>2026-03-22T14:44:25.986Z</time></trkpt><trkpt lat="21.82199833483529" lon="-102.37762184646903"><ele>1851.0</ele><time>2026-03-22T14:44:26.986Z</time></trkpt><trkpt lat="21.822079397514443" lon="-102.37761674482391"><ele>1851.5</ele><time>2026-03-22T14:44:27.986Z</time></trkpt><trkpt lat="21.822145603533766" lon="-102.37760971291634"><ele>1852.0</ele><time>2026-03-22T14:44:28.986Z</time></trkpt><trkpt lat="21.822231214207346" lon="-102.37760338674703"><ele>1852.4999999999998</ele><time>2026-03-22T14:44:29.986Z</time></trkpt><trkpt lat="21.822308528114092" lon="-102.3775979130242"><ele>1853.0</ele><time>2026-03-22T14:44:30.986Z</time></trkpt><trkpt lat="21.822393082422355" lon="-102.3775900481153"><ele>1852.9999999999998</ele><time>2026-03-22T14:44:31.986Z</time></trkpt><trkpt lat="21.822471018646347" lon="-102.37757938782407"><ele>1853.0</ele><time>2026-03-22T14:44:32.986Z</time></trkpt><trkpt lat="21.822548646673358" lon="-102.37756917098415"><ele>1853.0</ele><time>2026-03-22T14:44:33.986Z</time></trkpt><trkpt lat="21.822627398814973" lon="-102.37755727633805"><ele>1853.0</ele><time>2026-03-22T14:44:34.986Z</time></trkpt><trkpt lat="21.822704212823044" lon="-102.3775515259666"><ele>1852.9999999999998</ele><time>2026-03-22T14:44:35.986Z</time></trkpt><trkpt lat="21.822778223682953" lon="-102.37754287592215"><ele>1853.0</ele><time>2026-03-22T14:44:36.986Z</time></trkpt><trkpt lat="21.822856557815356" lon="-102.37753506965706"><ele>1852.9999999999998</ele><time>2026-03-22T14:44:37.986Z</time></trkpt><trkpt lat="21.822975163852643" lon="-102.37752899214834"><ele>1853.0</ele><time>2026-03-22T14:44:39.986Z</time></trkpt><trkpt lat="21.823037843613896" lon="-102.37752210130023"><ele>1853.0</ele><time>2026-03-22T14:44:40.986Z</time></trkpt><trkpt lat="21.82310200930407" lon="-102.37751702592368"><ele>1853.0</ele><time>2026-03-22T14:44:41.986Z</time></trkpt><trkpt lat="21.823173533286006" lon="-102.37752109881656"><ele>1852.9999999999998</ele><time>2026-03-22T14:44:42.986Z</time></trkpt><trkpt lat="21.82324960372526" lon="-102.37751304843509"><ele>1853.0</ele><time>2026-03-22T14:44:43.986Z</time></trkpt><trkpt lat="21.82333588020038" lon="-102.37750528015597"><ele>1853.0</ele><time>2026-03-22T14:44:44.986Z</time></trkpt><trkpt lat="21.823425824007156" lon="-102.37750358192866"><ele>1853.0000000000002</ele><time>2026-03-22T14:44:45.986Z</time></trkpt><trkpt lat="21.823514633979556" lon="-102.37749113141342"><ele>1853.0000000000002</ele><time>2026-03-22T14:44:46.986Z</time></trkpt><trkpt lat="21.823610769230523" lon="-102.37748189541578"><ele>1853.0</ele><time>2026-03-22T14:44:47.986Z</time></trkpt><trkpt lat="21.823697360197404" lon="-102.37747193067261"><ele>1853.0</ele><time>2026-03-22T14:44:48.986Z</time></trkpt><trkpt lat="21.823803131462576" lon="-102.37746003794393"><ele>1851.75</ele><time>2026-03-22T14:44:49.986Z</time></trkpt><trkpt lat="21.823914259398677" lon="-102.37744787683607"><ele>1850.5</ele><time>2026-03-22T14:44:50.986Z</time></trkpt><trkpt lat="21.824037693421904" lon="-102.37744064445799"><ele>1849.25</ele><time>2026-03-22T14:44:51.986Z</time></trkpt><trkpt lat="21.82416394080582" lon="-102.37742533164314"><ele>1848.0</ele><time>2026-03-22T14:44:52.986Z</time></trkpt><trkpt lat="21.82428936810449" lon="-102.3774149227327"><ele>1847.0</ele><time>2026-03-22T14:44:53.986Z</time></trkpt><trkpt lat="21.824421674223363" lon="-102.37740098891017"><ele>1846.0</ele><time>2026-03-22T14:44:54.986Z</time></trkpt><trkpt lat="21.82456221616138" lon="-102.37738758067175"><ele>1845.0</ele><time>2026-03-22T14:44:55.986Z</time></trkpt><trkpt lat="21.824697064529552" lon="-102.3773737786426"><ele>1844.0</ele><time>2026-03-22T14:44:56.986Z</time></trkpt><trkpt lat="21.824835575086656" lon="-102.37735624532486"><ele>1844.0</ele><time>2026-03-22T14:44:57.986Z</time></trkpt><trkpt lat="21.824975366650776" lon="-102.37734188039684"><ele>1844.0</ele><time>2026-03-22T14:44:58.986Z</time></trkpt><trkpt lat="21.82511894830273" lon="-102.37732917590958"><ele>1844.0</ele><time>2026-03-22T14:44:59.985Z</time></trkpt><trkpt lat="21.82525971336216" lon="-102.37731108117715"><ele>1844.0</ele><time>2026-03-22T14:45:00.985Z</time></trkpt><trkpt lat="21.825398263708045" lon="-102.37730703229137"><ele>1844.0</ele><time>2026-03-22T14:45:01.985Z</time></trkpt><trkpt lat="21.825531489837722" lon="-102.37729256667166"><ele>1844.0</ele><time>2026-03-22T14:45:02.985Z</time></trkpt><trkpt lat="21.825663605874563" lon="-102.3772832133227"><ele>1844.0</ele><time>2026-03-22T14:45:03.985Z</time></trkpt><trkpt lat="21.825794004422367" lon="-102.377265780044"><ele>1844.0</ele><time>2026-03-22T14:45:04.985Z</time></trkpt><trkpt lat="21.825913580584043" lon="-102.37725168251399"><ele>1844.6</ele><time>2026-03-22T14:45:05.985Z</time></trkpt><trkpt lat="21.826021385975658" lon="-102.37724223978827"><ele>1845.2</ele><time>2026-03-22T14:45:06.985Z</time></trkpt><trkpt lat="21.82611734295383" lon="-102.37723598452165"><ele>1845.7999999999997</ele><time>2026-03-22T14:45:07.985Z</time></trkpt><trkpt lat="21.82621778071202" lon="-102.37722640808242"><ele>1846.3999999999999</ele><time>2026-03-22T14:45:08.985Z</time></trkpt><trkpt lat="21.8263086933831" lon="-102.3772180995224"><ele>1847.0</ele><time>2026-03-22T14:45:09.985Z</time></trkpt><trkpt lat="21.82639658425892" lon="-102.37720907502839"><ele>1846.9999999999998</ele><time>2026-03-22T14:45:10.985Z</time></trkpt><trkpt lat="21.826479851893946" lon="-102.37720088264489"><ele>1847.0</ele><time>2026-03-22T14:45:11.985Z</time></trkpt><trkpt lat="21.826560063298196" lon="-102.37719349698081"><ele>1847.0</ele><time>2026-03-22T14:45:12.985Z</time></trkpt><trkpt lat="21.82663398632361" lon="-102.37718912277796"><ele>1847.0</ele><time>2026-03-22T14:45:13.985Z</time></trkpt><trkpt lat="21.826714558926096" lon="-102.37718430545773"><ele>1846.9999999999998</ele><time>2026-03-22T14:45:14.985Z</time></trkpt><trkpt lat="21.82678729890497" lon="-102.37717766070578"><ele>1847.0</ele><time>2026-03-22T14:45:15.985Z</time></trkpt><trkpt lat="21.82686582141875" lon="-102.37716721330638"><ele>1847.8571428571427</ele><time>2026-03-22T14:45:16.985Z</time></trkpt><trkpt lat="21.826936247753718" lon="-102.37716346273207"><ele>1848.7142857142858</ele><time>2026-03-22T14:45:17.985Z</time></trkpt><trkpt lat="21.827006311173367" lon="-102.37715628444296"><ele>1849.5714285714284</ele><time>2026-03-22T14:45:18.985Z</time></trkpt><trkpt lat="21.82708325639081" lon="-102.37714918669342"><ele>1850.4285714285713</ele><time>2026-03-22T14:45:19.985Z</time></trkpt><trkpt lat="21.827152138177105" lon="-102.37714291730151"><ele>1851.2857142857142</ele><time>2026-03-22T14:45:20.985Z</time></trkpt><trkpt lat="21.827222774085897" lon="-102.37712855545257"><ele>1852.142857142857</ele><time>2026-03-22T14:45:21.985Z</time></trkpt><trkpt lat="21.827293245268553" lon="-102.3771213132716"><ele>1853.0</ele><time>2026-03-22T14:45:22.985Z</time></trkpt><trkpt lat="21.827361200527594" lon="-102.3771169453127"><ele>1852.9999999999998</ele><time>2026-03-22T14:45:23.985Z</time></trkpt><trkpt lat="21.827431120197136" lon="-102.37711362396591"><ele>1853.0</ele><time>2026-03-22T14:45:24.985Z</time></trkpt><trkpt lat="21.82750763021455" lon="-102.3771045752897"><ele>1853.0</ele><time>2026-03-22T14:45:25.985Z</time></trkpt><trkpt lat="21.82763653623253" lon="-102.37709108643348"><ele>1853.0</ele><time>2026-03-22T14:45:27.985Z</time></trkpt><trkpt lat="21.827701883865345" lon="-102.37708200607437"><ele>1852.9999999999998</ele><time>2026-03-22T14:45:28.985Z</time></trkpt><trkpt lat="21.8277688210497" lon="-102.37707585958742"><ele>1853.0</ele><time>2026-03-22T14:45:29.985Z</time></trkpt><trkpt lat="21.827838527123973" lon="-102.37706749234718"><ele>1853.6000000000001</ele><time>2026-03-22T14:45:30.985Z</time></trkpt><trkpt lat="21.82790492031302" lon="-102.37706147782022"><ele>1854.2000000000003</ele><time>2026-03-22T14:45:31.985Z</time></trkpt><trkpt lat="21.828026226717878" lon="-102.37705082036865"><ele>1854.8</ele><time>2026-03-22T14:45:33.985Z</time></trkpt><trkpt lat="21.82815031244604" lon="-102.37704381082585"><ele>1855.4</ele><time>2026-03-22T14:45:35.985Z</time></trkpt><trkpt lat="21.828279032708" lon="-102.37703159792109"><ele>1856.0</ele><time>2026-03-22T14:45:37.985Z</time></trkpt><trkpt lat="21.828342909351385" lon="-102.37702261203084"><ele>1856.0000000000002</ele><time>2026-03-22T14:45:38.985Z</time></trkpt><trkpt lat="21.828414841227232" lon="-102.37701450226916"><ele>1856.0</ele><time>2026-03-22T14:45:39.985Z</time></trkpt><trkpt lat="21.828482460086715" lon="-102.37701480942734"><ele>1856.0000000000002</ele><time>2026-03-22T14:45:40.985Z</time></trkpt><trkpt lat="21.8285558903035" lon="-102.37700943496695"><ele>1856.0000000000002</ele><time>2026-03-22T14:45:41.985Z</time></trkpt><trkpt lat="21.828624566275003" lon="-102.37700385674536"><ele>1856.0</ele><time>2026-03-22T14:45:42.985Z</time></trkpt><trkpt lat="21.828691210361036" lon="-102.37699274858025"><ele>1856.0000000000002</ele><time>2026-03-22T14:45:43.985Z</time></trkpt><trkpt lat="21.828762244661824" lon="-102.37698845190243"><ele>1856.0000000000002</ele><time>2026-03-22T14:45:44.985Z</time></trkpt><trkpt lat="21.82883408211915" lon="-102.37698323584922"><ele>1856.1666666666665</ele><time>2026-03-22T14:45:45.985Z</time></trkpt><trkpt lat="21.82890665791097" lon="-102.37697760611431"><ele>1856.3333333333333</ele><time>2026-03-22T14:45:46.985Z</time></trkpt><trkpt lat="21.8289796415587" lon="-102.3769783799438"><ele>1856.5</ele><time>2026-03-22T14:45:47.985Z</time></trkpt><trkpt lat="21.82904653983972" lon="-102.37697692492053"><ele>1856.6666666666665</ele><time>2026-03-22T14:45:48.985Z</time></trkpt><trkpt lat="21.829180492793448" lon="-102.3769653182752"><ele>1856.8333333333333</ele><time>2026-03-22T14:45:50.985Z</time></trkpt><trkpt lat="21.829243471077472" lon="-102.37695821702792"><ele>1857.0</ele><time>2026-03-22T14:45:51.985Z</time></trkpt><trkpt lat="21.829316713831663" lon="-102.37695015836195"><ele>1857.3333333333333</ele><time>2026-03-22T14:45:52.985Z</time></trkpt><trkpt lat="21.829452535329693" lon="-102.37693690474185"><ele>1857.6666666666665</ele><time>2026-03-22T14:45:54.985Z</time></trkpt><trkpt lat="21.82952050343711" lon="-102.37692978547706"><ele>1858.0</ele><time>2026-03-22T14:45:55.985Z</time></trkpt><trkpt lat="21.829588159372353" lon="-102.37692376650399"><ele>1858.3333333333333</ele><time>2026-03-22T14:45:56.985Z</time></trkpt><trkpt lat="21.829662491203383" lon="-102.37692003207192"><ele>1858.6666666666665</ele><time>2026-03-22T14:45:57.985Z</time></trkpt><trkpt lat="21.829743805778254" lon="-102.37690927763062"><ele>1859.0</ele><time>2026-03-22T14:45:58.985Z</time></trkpt><trkpt lat="21.82981859931509" lon="-102.37690591965651"><ele>1858.9999999999998</ele><time>2026-03-22T14:45:59.985Z</time></trkpt><trkpt lat="21.829903421179257" lon="-102.37689390802882"><ele>1859.0</ele><time>2026-03-22T14:46:00.985Z</time></trkpt><trkpt lat="21.829974343574353" lon="-102.37689289142403"><ele>1859.0</ele><time>2026-03-22T14:46:01.985Z</time></trkpt><trkpt lat="21.830055350535048" lon="-102.37688610305293"><ele>1859.0</ele><time>2026-03-22T14:46:02.985Z</time></trkpt><trkpt lat="21.83013372552405" lon="-102.37688088072376"><ele>1858.9999999999998</ele><time>2026-03-22T14:46:03.984Z</time></trkpt><trkpt lat="21.830206366637277" lon="-102.37687548643183"><ele>1859.0</ele><time>2026-03-22T14:46:04.984Z</time></trkpt><trkpt lat="21.830285994922466" lon="-102.37686798184502"><ele>1859.142857142857</ele><time>2026-03-22T14:46:05.984Z</time></trkpt><trkpt lat="21.830366191145387" lon="-102.37686246424352"><ele>1859.2857142857142</ele><time>2026-03-22T14:46:06.984Z</time></trkpt><trkpt lat="21.830439424699666" lon="-102.37685688789266"><ele>1859.4285714285713</ele><time>2026-03-22T14:46:07.984Z</time></trkpt><trkpt lat="21.83050651344434" lon="-102.3768502054558"><ele>1859.5714285714284</ele><time>2026-03-22T14:46:08.984Z</time></trkpt><trkpt lat="21.830579337977955" lon="-102.37684016634744"><ele>1859.7142857142858</ele><time>2026-03-22T14:46:09.984Z</time></trkpt><trkpt lat="21.830656480558414" lon="-102.37683123007807"><ele>1859.8571428571427</ele><time>2026-03-22T14:46:10.984Z</time></trkpt><trkpt lat="21.8307248044157" lon="-102.3768240501647"><ele>1860.0</ele><time>2026-03-22T14:46:11.986Z</time></trkpt><trkpt lat="21.83079855899895" lon="-102.37681571243783"><ele>1860.0</ele><time>2026-03-22T14:46:12.985Z</time></trkpt><trkpt lat="21.830865794536592" lon="-102.37681032925084"><ele>1860.0</ele><time>2026-03-22T14:46:13.985Z</time></trkpt><trkpt lat="21.830941544432665" lon="-102.37680540291562"><ele>1860.0</ele><time>2026-03-22T14:46:14.986Z</time></trkpt><trkpt lat="21.83101407460685" lon="-102.37679893449179"><ele>1860.0</ele><time>2026-03-22T14:46:15.986Z</time></trkpt><trkpt lat="21.831090443668597" lon="-102.37679548201301"><ele>1860.0</ele><time>2026-03-22T14:46:16.986Z</time></trkpt><trkpt lat="21.831163027338114" lon="-102.37679197450467"><ele>1860.0</ele><time>2026-03-22T14:46:17.985Z</time></trkpt><trkpt lat="21.83123358251846" lon="-102.37678870276082"><ele>1860.0</ele><time>2026-03-22T14:46:18.985Z</time></trkpt><trkpt lat="21.831308210275743" lon="-102.37678312019187"><ele>1860.2857142857142</ele><time>2026-03-22T14:46:19.985Z</time></trkpt><trkpt lat="21.831378838977237" lon="-102.37677626676302"><ele>1860.5714285714287</ele><time>2026-03-22T14:46:20.986Z</time></trkpt><trkpt lat="21.831449650567247" lon="-102.37676757447935"><ele>1860.857142857143</ele><time>2026-03-22T14:46:21.986Z</time></trkpt><trkpt lat="21.831519701057697" lon="-102.3767641191202"><ele>1861.142857142857</ele><time>2026-03-22T14:46:22.986Z</time></trkpt><trkpt lat="21.8315953064307" lon="-102.3767606524724"><ele>1861.4285714285716</ele><time>2026-03-22T14:46:23.985Z</time></trkpt><trkpt lat="21.83166745805433" lon="-102.37674914613405"><ele>1861.7142857142858</ele><time>2026-03-22T14:46:24.986Z</time></trkpt><trkpt lat="21.831740959334024" lon="-102.37674133961261"><ele>1862.0</ele><time>2026-03-22T14:46:25.986Z</time></trkpt><trkpt lat="21.831814621313715" lon="-102.37673567478951"><ele>1861.9999999999998</ele><time>2026-03-22T14:46:26.986Z</time></trkpt><trkpt lat="21.831889724977007" lon="-102.37672783474301"><ele>1862.0</ele><time>2026-03-22T14:46:27.986Z</time></trkpt><trkpt lat="21.83197062171978" lon="-102.37672325919635"><ele>1862.0</ele><time>2026-03-22T14:46:28.986Z</time></trkpt><trkpt lat="21.8320453235979" lon="-102.37671482968783"><ele>1862.0</ele><time>2026-03-22T14:46:29.986Z</time></trkpt><trkpt lat="21.832127765189437" lon="-102.37671246543958"><ele>1861.9999999999998</ele><time>2026-03-22T14:46:30.986Z</time></trkpt><trkpt lat="21.832198078767565" lon="-102.3766961206251"><ele>1862.0</ele><time>2026-03-22T14:46:31.986Z</time></trkpt><trkpt lat="21.83227314255378" lon="-102.37669335027896"><ele>1861.9999999999998</ele><time>2026-03-22T14:46:32.986Z</time></trkpt><trkpt lat="21.83235677561171" lon="-102.37668722890187"><ele>1862.0</ele><time>2026-03-22T14:46:33.986Z</time></trkpt><trkpt lat="21.83244249991504" lon="-102.37668179880816"><ele>1862.0</ele><time>2026-03-22T14:46:34.986Z</time></trkpt><trkpt lat="21.832511475184614" lon="-102.37667588715395"><ele>1862.0</ele><time>2026-03-22T14:46:35.986Z</time></trkpt><trkpt lat="21.83259248630012" lon="-102.37667157008202"><ele>1861.9999999999998</ele><time>2026-03-22T14:46:36.986Z</time></trkpt><trkpt lat="21.832673430085638" lon="-102.37666671188802"><ele>1862.0</ele><time>2026-03-22T14:46:37.986Z</time></trkpt><trkpt lat="21.832753802504186" lon="-102.37665830467604"><ele>1862.1666666666665</ele><time>2026-03-22T14:46:38.986Z</time></trkpt><trkpt lat="21.832829084468845" lon="-102.37665402725793"><ele>1862.3333333333333</ele><time>2026-03-22T14:46:39.986Z</time></trkpt><trkpt lat="21.832911504207456" lon="-102.37664613215277"><ele>1862.5</ele><time>2026-03-22T14:46:40.986Z</time></trkpt><trkpt lat="21.832989288314764" lon="-102.37662976051003"><ele>1862.6666666666665</ele><time>2026-03-22T14:46:41.986Z</time></trkpt><trkpt lat="21.83307319023308" lon="-102.3766259836893"><ele>1862.8333333333333</ele><time>2026-03-22T14:46:42.986Z</time></trkpt><trkpt lat="21.83315435007397" lon="-102.37662085292564"><ele>1863.0</ele><time>2026-03-22T14:46:43.986Z</time></trkpt><trkpt lat="21.833241673377533" lon="-102.37661062641793"><ele>1863.0</ele><time>2026-03-22T14:46:44.986Z</time></trkpt><trkpt lat="21.833322326968517" lon="-102.37660491665503"><ele>1863.0</ele><time>2026-03-22T14:46:45.986Z</time></trkpt><trkpt lat="21.833404967761467" lon="-102.37659647475364"><ele>1863.0</ele><time>2026-03-22T14:46:46.986Z</time></trkpt><trkpt lat="21.833486110557928" lon="-102.37658799429099"><ele>1863.0</ele><time>2026-03-22T14:46:47.986Z</time></trkpt><trkpt lat="21.833563385154164" lon="-102.37658472134217"><ele>1863.0</ele><time>2026-03-22T14:46:48.986Z</time></trkpt><trkpt lat="21.83364139584015" lon="-102.37657795952317"><ele>1863.0</ele><time>2026-03-22T14:46:49.986Z</time></trkpt><trkpt lat="21.833722582852147" lon="-102.3765707200461"><ele>1863.1666666666667</ele><time>2026-03-22T14:46:50.986Z</time></trkpt><trkpt lat="21.8338042701089" lon="-102.37656046608122"><ele>1863.3333333333335</ele><time>2026-03-22T14:46:51.986Z</time></trkpt><trkpt lat="21.833882799386732" lon="-102.37655783092198"><ele>1863.5</ele><time>2026-03-22T14:46:52.986Z</time></trkpt><trkpt lat="21.83396881326196" lon="-102.37654740749811"><ele>1863.6666666666667</ele><time>2026-03-22T14:46:53.986Z</time></trkpt><trkpt lat="21.83405043024976" lon="-102.37654270336158"><ele>1863.8333333333335</ele><time>2026-03-22T14:46:54.986Z</time></trkpt><trkpt lat="21.834141163065286" lon="-102.37653739312621"><ele>1864.0</ele><time>2026-03-22T14:46:55.986Z</time></trkpt><trkpt lat="21.83422364352594" lon="-102.37652445039393"><ele>1864.0000000000002</ele><time>2026-03-22T14:46:56.986Z</time></trkpt><trkpt lat="21.834301380694246" lon="-102.37651704381359"><ele>1864.0</ele><time>2026-03-22T14:46:57.986Z</time></trkpt><trkpt lat="21.834379021641098" lon="-102.37650765595713"><ele>1864.0</ele><time>2026-03-22T14:46:58.986Z</time></trkpt><trkpt lat="21.834464439998715" lon="-102.3765049781784"><ele>1864.0</ele><time>2026-03-22T14:46:59.986Z</time></trkpt><trkpt lat="21.834548988792818" lon="-102.37649710054608"><ele>1864.0000000000002</ele><time>2026-03-22T14:47:00.986Z</time></trkpt><trkpt lat="21.834628610168703" lon="-102.37648847785219"><ele>1864.0</ele><time>2026-03-22T14:47:01.986Z</time></trkpt><trkpt lat="21.834714199966214" lon="-102.3764793452986"><ele>1864.1666666666667</ele><time>2026-03-22T14:47:02.986Z</time></trkpt><trkpt lat="21.83479996545268" lon="-102.376473909404"><ele>1864.3333333333335</ele><time>2026-03-22T14:47:03.986Z</time></trkpt><trkpt lat="21.83487338396771" lon="-102.37647240716647"><ele>1864.5</ele><time>2026-03-22T14:47:04.986Z</time></trkpt><trkpt lat="21.834957519935557" lon="-102.37646157813099"><ele>1864.6666666666665</ele><time>2026-03-22T14:47:05.986Z</time></trkpt><trkpt lat="21.835041646814048" lon="-102.37645702872447"><ele>1864.8333333333333</ele><time>2026-03-22T14:47:06.986Z</time></trkpt><trkpt lat="21.835123059778027" lon="-102.37644488352413"><ele>1865.0</ele><time>2026-03-22T14:47:07.986Z</time></trkpt><trkpt lat="21.835203884308207" lon="-102.37643811709991"><ele>1865.1666666666665</ele><time>2026-03-22T14:47:08.986Z</time></trkpt><trkpt lat="21.83528641513708" lon="-102.37643099092496"><ele>1865.3333333333333</ele><time>2026-03-22T14:47:09.986Z</time></trkpt><trkpt lat="21.83536920340059" lon="-102.37643008028587"><ele>1865.5</ele><time>2026-03-22T14:47:10.986Z</time></trkpt><trkpt lat="21.835451442412563" lon="-102.37642285202135"><ele>1865.6666666666665</ele><time>2026-03-22T14:47:11.986Z</time></trkpt><trkpt lat="21.835527651563442" lon="-102.37641736982584"><ele>1865.8333333333333</ele><time>2026-03-22T14:47:12.986Z</time></trkpt><trkpt lat="21.835599469334834" lon="-102.37641061969845"><ele>1866.0</ele><time>2026-03-22T14:47:13.986Z</time></trkpt><trkpt lat="21.835679129246333" lon="-102.37640616522141"><ele>1866.0</ele><time>2026-03-22T14:47:14.986Z</time></trkpt><trkpt lat="21.835752219138826" lon="-102.37639867473499"><ele>1865.9999999999998</ele><time>2026-03-22T14:47:15.986Z</time></trkpt><trkpt lat="21.83582188918386" lon="-102.3763907601577"><ele>1866.0</ele><time>2026-03-22T14:47:16.986Z</time></trkpt><trkpt lat="21.835888842852984" lon="-102.37638185038803"><ele>1866.0</ele><time>2026-03-22T14:47:17.985Z</time></trkpt><trkpt lat="21.835961800513846" lon="-102.37637707441118"><ele>1865.9999999999998</ele><time>2026-03-22T14:47:18.985Z</time></trkpt><trkpt lat="21.836027672294954" lon="-102.3763724070819"><ele>1866.0</ele><time>2026-03-22T14:47:19.985Z</time></trkpt><trkpt lat="21.836093056427657" lon="-102.37636033200177"><ele>1866.0</ele><time>2026-03-22T14:47:20.985Z</time></trkpt><trkpt lat="21.83615733897421" lon="-102.37635648120119"><ele>1866.3333333333333</ele><time>2026-03-22T14:47:21.985Z</time></trkpt><trkpt lat="21.836224927863967" lon="-102.37635090156762"><ele>1866.6666666666665</ele><time>2026-03-22T14:47:22.985Z</time></trkpt><trkpt lat="21.836289319716375" lon="-102.37634456161227"><ele>1867.0</ele><time>2026-03-22T14:47:23.985Z</time></trkpt><trkpt lat="21.836413552438806" lon="-102.37633261714558"><ele>1867.3333333333333</ele><time>2026-03-22T14:47:25.985Z</time></trkpt><trkpt lat="21.836478947332893" lon="-102.37632499288709"><ele>1867.6666666666665</ele><time>2026-03-22T14:47:26.985Z</time></trkpt><trkpt lat="21.836589325969587" lon="-102.37631727995587"><ele>1868.0</ele><time>2026-03-22T14:47:28.985Z</time></trkpt><trkpt lat="21.836655387574076" lon="-102.37630828774861"><ele>1868.0</ele><time>2026-03-22T14:47:29.985Z</time></trkpt><trkpt lat="21.836773759892544" lon="-102.37629161645931"><ele>1868.0</ele><time>2026-03-22T14:47:31.985Z</time></trkpt><trkpt lat="21.836890980197406" lon="-102.37628504934652"><ele>1868.0</ele><time>2026-03-22T14:47:33.985Z</time></trkpt><trkpt lat="21.837008804729606" lon="-102.3762780100964"><ele>1868.0</ele><time>2026-03-22T14:47:35.985Z</time></trkpt><trkpt lat="21.837120535780254" lon="-102.37626847520875"><ele>1869.6000000000001</ele><time>2026-03-22T14:47:37.985Z</time></trkpt><trkpt lat="21.83723771864791" lon="-102.37626305063688"><ele>1871.2000000000003</ele><time>2026-03-22T14:47:39.985Z</time></trkpt><trkpt lat="21.83734559977504" lon="-102.37625175667661"><ele>1872.8</ele><time>2026-03-22T14:47:41.985Z</time></trkpt><trkpt lat="21.83743865296984" lon="-102.37624425142496"><ele>1874.4</ele><time>2026-03-22T14:47:43.985Z</time></trkpt><trkpt lat="21.837551293720104" lon="-102.37623646509421"><ele>1876.0</ele><time>2026-03-22T14:47:45.985Z</time></trkpt><trkpt lat="21.837667129238916" lon="-102.37623229414781"><ele>1877.1999999999998</ele><time>2026-03-22T14:47:47.985Z</time></trkpt><trkpt lat="21.837768900736155" lon="-102.37622664739689"><ele>1878.3999999999999</ele><time>2026-03-22T14:47:49.985Z</time></trkpt><trkpt lat="21.83783258462833" lon="-102.3762249358135"><ele>1879.6</ele><time>2026-03-22T14:47:50.985Z</time></trkpt><trkpt lat="21.837935588499445" lon="-102.37621621084433"><ele>1880.8</ele><time>2026-03-22T14:47:52.985Z</time></trkpt><trkpt lat="21.838049432440148" lon="-102.37619990575632"><ele>1882.0</ele><time>2026-03-22T14:47:54.985Z</time></trkpt><trkpt lat="21.838167667240477" lon="-102.37618725323027"><ele>1882.0</ele><time>2026-03-22T14:47:56.985Z</time></trkpt><trkpt lat="21.838233584266433" lon="-102.37618155042371"><ele>1881.9999999999998</ele><time>2026-03-22T14:47:57.985Z</time></trkpt><trkpt lat="21.838353595570588" lon="-102.37616810524517"><ele>1881.9999999999998</ele><time>2026-03-22T14:47:59.985Z</time></trkpt><trkpt lat="21.838420282270537" lon="-102.37615542125174"><ele>1882.0</ele><time>2026-03-22T14:48:00.985Z</time></trkpt><trkpt lat="21.838537311123844" lon="-102.37613290893287"><ele>1882.0</ele><time>2026-03-22T14:48:02.985Z</time></trkpt><trkpt lat="21.838648574075656" lon="-102.37612308408677"><ele>1883.3999999999999</ele><time>2026-03-22T14:48:04.985Z</time></trkpt><trkpt lat="21.838770132802853" lon="-102.3761191420369"><ele>1884.7999999999997</ele><time>2026-03-22T14:48:06.985Z</time></trkpt><trkpt lat="21.838834501770535" lon="-102.37611294840856"><ele>1886.2</ele><time>2026-03-22T14:48:07.985Z</time></trkpt><trkpt lat="21.83890428355438" lon="-102.37611292719238"><ele>1887.6</ele><time>2026-03-22T14:48:08.985Z</time></trkpt><trkpt lat="21.83901771213947" lon="-102.37609419353828"><ele>1889.0</ele><time>2026-03-22T14:48:10.985Z</time></trkpt><trkpt lat="21.839128105872557" lon="-102.37608077821743"><ele>1889.0</ele><time>2026-03-22T14:48:12.985Z</time></trkpt><trkpt lat="21.839236557955154" lon="-102.3760760903276"><ele>1889.0</ele><time>2026-03-22T14:48:14.985Z</time></trkpt><trkpt lat="21.839301385558894" lon="-102.37606825913556"><ele>1889.0</ele><time>2026-03-22T14:48:15.985Z</time></trkpt><trkpt lat="21.83941846989532" lon="-102.37606214854942"><ele>1889.0</ele><time>2026-03-22T14:48:17.986Z</time></trkpt><trkpt lat="21.83953209113886" lon="-102.37605057539821"><ele>1889.0</ele><time>2026-03-22T14:48:19.985Z</time></trkpt><trkpt lat="21.839651079346545" lon="-102.37604157056775"><ele>1890.0</ele><time>2026-03-22T14:48:21.985Z</time></trkpt><trkpt lat="21.83977198261015" lon="-102.376030044101"><ele>1891.0</ele><time>2026-03-22T14:48:23.985Z</time></trkpt><trkpt lat="21.839899471814796" lon="-102.37602174947905"><ele>1892.0</ele><time>2026-03-22T14:48:25.985Z</time></trkpt><trkpt lat="21.840030078692013" lon="-102.3760110158674"><ele>1893.0</ele><time>2026-03-22T14:48:27.985Z</time></trkpt><trkpt lat="21.840161237900798" lon="-102.37599835589057"><ele>1893.0</ele><time>2026-03-22T14:48:29.985Z</time></trkpt><trkpt lat="21.84023638437127" lon="-102.37598964655452"><ele>1893.0</ele><time>2026-03-22T14:48:30.985Z</time></trkpt><trkpt lat="21.84031516922373" lon="-102.37598679462991"><ele>1893.0</ele><time>2026-03-22T14:48:31.985Z</time></trkpt><trkpt lat="21.840390525090385" lon="-102.37597839818784"><ele>1893.0</ele><time>2026-03-22T14:48:32.985Z</time></trkpt><trkpt lat="21.8404667853939" lon="-102.37597115533205"><ele>1893.0</ele><time>2026-03-22T14:48:33.985Z</time></trkpt><trkpt lat="21.8405448857112" lon="-102.37596115710944"><ele>1893.0</ele><time>2026-03-22T14:48:34.985Z</time></trkpt><trkpt lat="21.840631089144654" lon="-102.37595552370297"><ele>1893.0</ele><time>2026-03-22T14:48:35.985Z</time></trkpt><trkpt lat="21.84071360584518" lon="-102.37594392389023"><ele>1893.0</ele><time>2026-03-22T14:48:36.985Z</time></trkpt><trkpt lat="21.84080559467024" lon="-102.37593121514713"><ele>1893.0</ele><time>2026-03-22T14:48:37.985Z</time></trkpt><trkpt lat="21.8408935903972" lon="-102.37591363603964"><ele>1893.0</ele><time>2026-03-22T14:48:38.985Z</time></trkpt><trkpt lat="21.840979024497184" lon="-102.37590084385828"><ele>1893.0</ele><time>2026-03-22T14:48:39.985Z</time></trkpt><trkpt lat="21.84106361452773" lon="-102.37588341648774"><ele>1893.0</ele><time>2026-03-22T14:48:40.985Z</time></trkpt><trkpt lat="21.841154611341413" lon="-102.37586284391337"><ele>1893.0</ele><time>2026-03-22T14:48:41.985Z</time></trkpt><trkpt lat="21.84125209839978" lon="-102.37584508759126"><ele>1893.0000000000002</ele><time>2026-03-22T14:48:42.985Z</time></trkpt><trkpt lat="21.841357216338718" lon="-102.37583166376851"><ele>1893.0000000000002</ele><time>2026-03-22T14:48:43.985Z</time></trkpt><trkpt lat="21.841459162031256" lon="-102.37580952844623"><ele>1893.0</ele><time>2026-03-22T14:48:44.985Z</time></trkpt><trkpt lat="21.841562998030412" lon="-102.3757926722603"><ele>1893.0</ele><time>2026-03-22T14:48:45.985Z</time></trkpt><trkpt lat="21.84167390436402" lon="-102.37577959874196"><ele>1893.0</ele><time>2026-03-22T14:48:46.985Z</time></trkpt><trkpt lat="21.84178348808022" lon="-102.37575874843614"><ele>1893.0</ele><time>2026-03-22T14:48:47.985Z</time></trkpt><trkpt lat="21.841897893391344" lon="-102.37574028415064"><ele>1893.0</ele><time>2026-03-22T14:48:48.985Z</time></trkpt><trkpt lat="21.842008846536192" lon="-102.37571710039118"><ele>1893.0</ele><time>2026-03-22T14:48:49.985Z</time></trkpt><trkpt lat="21.842119686215415" lon="-102.3756967623607"><ele>1892.0</ele><time>2026-03-22T14:48:50.985Z</time></trkpt><trkpt lat="21.842232816010444" lon="-102.37567929459952"><ele>1891.0</ele><time>2026-03-22T14:48:51.985Z</time></trkpt><trkpt lat="21.842348548658997" lon="-102.37565954506077"><ele>1890.0</ele><time>2026-03-22T14:48:52.985Z</time></trkpt><trkpt lat="21.84245773234628" lon="-102.37563594681632"><ele>1889.0</ele><time>2026-03-22T14:48:53.985Z</time></trkpt><trkpt lat="21.84256693467909" lon="-102.37561037684316"><ele>1888.25</ele><time>2026-03-22T14:48:54.985Z</time></trkpt><trkpt lat="21.842682719007396" lon="-102.37559158887024"><ele>1887.5</ele><time>2026-03-22T14:48:55.985Z</time></trkpt><trkpt lat="21.842801117281265" lon="-102.37556852544321"><ele>1886.75</ele><time>2026-03-22T14:48:56.985Z</time></trkpt><trkpt lat="21.8429208030268" lon="-102.37554968569482"><ele>1886.0</ele><time>2026-03-22T14:48:57.985Z</time></trkpt><trkpt lat="21.843043277817653" lon="-102.3755241088442"><ele>1885.75</ele><time>2026-03-22T14:48:58.985Z</time></trkpt><trkpt lat="21.843165533945616" lon="-102.37550720073193"><ele>1885.5</ele><time>2026-03-22T14:48:59.985Z</time></trkpt><trkpt lat="21.84329085801922" lon="-102.3754863086342"><ele>1885.25</ele><time>2026-03-22T14:49:00.985Z</time></trkpt><trkpt lat="21.843422042757705" lon="-102.37545612775511"><ele>1885.0</ele><time>2026-03-22T14:49:01.985Z</time></trkpt><trkpt lat="21.84355134935306" lon="-102.3754308657839"><ele>1884.75</ele><time>2026-03-22T14:49:02.985Z</time></trkpt><trkpt lat="21.843686679912498" lon="-102.37540950957543"><ele>1884.5</ele><time>2026-03-22T14:49:03.985Z</time></trkpt><trkpt lat="21.843820194043932" lon="-102.37539086814569"><ele>1884.25</ele><time>2026-03-22T14:49:04.985Z</time></trkpt><trkpt lat="21.843961059044023" lon="-102.37536732261947"><ele>1884.0</ele><time>2026-03-22T14:49:05.985Z</time></trkpt><trkpt lat="21.84409556971811" lon="-102.37534473725265"><ele>1884.0</ele><time>2026-03-22T14:49:06.985Z</time></trkpt><trkpt lat="21.844227744181666" lon="-102.37532247436128"><ele>1884.0</ele><time>2026-03-22T14:49:07.985Z</time></trkpt><trkpt lat="21.844362431152113" lon="-102.37529545591671"><ele>1884.0</ele><time>2026-03-22T14:49:08.985Z</time></trkpt><trkpt lat="21.844497823342962" lon="-102.3752678283638"><ele>1884.0</ele><time>2026-03-22T14:49:09.985Z</time></trkpt><trkpt lat="21.844632028077353" lon="-102.37524461886643"><ele>1883.5</ele><time>2026-03-22T14:49:10.985Z</time></trkpt><trkpt lat="21.844774145475608" lon="-102.37521625445805"><ele>1883.0</ele><time>2026-03-22T14:49:11.985Z</time></trkpt><trkpt lat="21.844914501080545" lon="-102.37519284487621"><ele>1882.5</ele><time>2026-03-22T14:49:12.985Z</time></trkpt><trkpt lat="21.845054359242038" lon="-102.37516589147342"><ele>1882.0</ele><time>2026-03-22T14:49:13.985Z</time></trkpt><trkpt lat="21.845193869033455" lon="-102.37513810995934"><ele>1881.5</ele><time>2026-03-22T14:49:14.985Z</time></trkpt><trkpt lat="21.845338503304273" lon="-102.37511455226704"><ele>1881.0</ele><time>2026-03-22T14:49:15.985Z</time></trkpt><trkpt lat="21.84548103431902" lon="-102.3750938249689"><ele>1880.5</ele><time>2026-03-22T14:49:16.985Z</time></trkpt><trkpt lat="21.845626198005565" lon="-102.37506976861371"><ele>1880.0</ele><time>2026-03-22T14:49:17.985Z</time></trkpt><trkpt lat="21.845774133942083" lon="-102.37505171632097"><ele>1880.0</ele><time>2026-03-22T14:49:18.985Z</time></trkpt><trkpt lat="21.845919456595375" lon="-102.37502961118129"><ele>1880.0</ele><time>2026-03-22T14:49:19.985Z</time></trkpt><trkpt lat="21.84606776141972" lon="-102.37500564042568"><ele>1880.0</ele><time>2026-03-22T14:49:20.985Z</time></trkpt><trkpt lat="21.846216430626534" lon="-102.37498307664575"><ele>1880.0</ele><time>2026-03-22T14:49:21.985Z</time></trkpt><trkpt lat="21.846362018972737" lon="-102.37495786190792"><ele>1880.0</ele><time>2026-03-22T14:49:22.984Z</time></trkpt><trkpt lat="21.84650383166524" lon="-102.37493230697613"><ele>1880.0</ele><time>2026-03-22T14:49:23.984Z</time></trkpt><trkpt lat="21.846642228007173" lon="-102.37490763014434"><ele>1880.0</ele><time>2026-03-22T14:49:24.984Z</time></trkpt><trkpt lat="21.84677999084637" lon="-102.3748828300366"><ele>1880.0</ele><time>2026-03-22T14:49:25.984Z</time></trkpt><trkpt lat="21.846916920889214" lon="-102.37485722658894"><ele>1880.75</ele><time>2026-03-22T14:49:26.984Z</time></trkpt><trkpt lat="21.847048649310004" lon="-102.37483007959912"><ele>1881.5</ele><time>2026-03-22T14:49:27.984Z</time></trkpt><trkpt lat="21.847179518755272" lon="-102.37480843850565"><ele>1882.25</ele><time>2026-03-22T14:49:28.984Z</time></trkpt><trkpt lat="21.8473103821603" lon="-102.37478781605333"><ele>1883.0</ele><time>2026-03-22T14:49:29.984Z</time></trkpt><trkpt lat="21.84743613773005" lon="-102.374768083786"><ele>1883.0</ele><time>2026-03-22T14:49:30.984Z</time></trkpt><trkpt lat="21.847554660941693" lon="-102.37474452957215"><ele>1883.0</ele><time>2026-03-22T14:49:31.984Z</time></trkpt><trkpt lat="21.847670841988194" lon="-102.37472440208056"><ele>1883.0</ele><time>2026-03-22T14:49:32.984Z</time></trkpt><trkpt lat="21.84778864558038" lon="-102.37470405270669"><ele>1883.0</ele><time>2026-03-22T14:49:33.984Z</time></trkpt><trkpt lat="21.84790442784029" lon="-102.37468391687773"><ele>1883.2</ele><time>2026-03-22T14:49:34.984Z</time></trkpt><trkpt lat="21.848017527807887" lon="-102.3746634437728"><ele>1883.4</ele><time>2026-03-22T14:49:35.984Z</time></trkpt><trkpt lat="21.848126986655824" lon="-102.37464465243868"><ele>1883.6000000000001</ele><time>2026-03-22T14:49:36.984Z</time></trkpt><trkpt lat="21.84823458330443" lon="-102.37462392938448"><ele>1883.8000000000002</ele><time>2026-03-22T14:49:37.984Z</time></trkpt><trkpt lat="21.848345064855273" lon="-102.37460175751626"><ele>1884.0</ele><time>2026-03-22T14:49:38.984Z</time></trkpt><trkpt lat="21.84845065594125" lon="-102.37458338756096"><ele>1884.0</ele><time>2026-03-22T14:49:39.984Z</time></trkpt><trkpt lat="21.84855550207829" lon="-102.37456200804753"><ele>1884.0</ele><time>2026-03-22T14:49:40.984Z</time></trkpt><trkpt lat="21.848657759084897" lon="-102.37454223198627"><ele>1884.0</ele><time>2026-03-22T14:49:41.984Z</time></trkpt><trkpt lat="21.848760872455138" lon="-102.3745225437826"><ele>1884.0</ele><time>2026-03-22T14:49:42.984Z</time></trkpt><trkpt lat="21.84887137241212" lon="-102.37450398155224"><ele>1884.0</ele><time>2026-03-22T14:49:43.984Z</time></trkpt><trkpt lat="21.84897646740975" lon="-102.37448262231054"><ele>1884.0</ele><time>2026-03-22T14:49:44.984Z</time></trkpt><trkpt lat="21.849078676479873" lon="-102.37446293455613"><ele>1884.0</ele><time>2026-03-22T14:49:45.984Z</time></trkpt><trkpt lat="21.84918421756371" lon="-102.37444168547079"><ele>1884.0</ele><time>2026-03-22T14:49:46.984Z</time></trkpt><trkpt lat="21.84929374886366" lon="-102.37442223886212"><ele>1884.0</ele><time>2026-03-22T14:49:47.984Z</time></trkpt><trkpt lat="21.84939801544893" lon="-102.37440073198898"><ele>1884.0</ele><time>2026-03-22T14:49:48.984Z</time></trkpt><trkpt lat="21.849507565185014" lon="-102.37437869423619"><ele>1884.4</ele><time>2026-03-22T14:49:49.984Z</time></trkpt><trkpt lat="21.849614353399996" lon="-102.37435639794526"><ele>1884.8000000000002</ele><time>2026-03-22T14:49:50.984Z</time></trkpt><trkpt lat="21.849721860605804" lon="-102.3743376510597"><ele>1885.1999999999998</ele><time>2026-03-22T14:49:51.984Z</time></trkpt><trkpt lat="21.849832534127323" lon="-102.37431993624936"><ele>1885.6</ele><time>2026-03-22T14:49:52.984Z</time></trkpt><trkpt lat="21.849939514299194" lon="-102.37430287516294"><ele>1886.0</ele><time>2026-03-22T14:49:53.984Z</time></trkpt><trkpt lat="21.850050288453456" lon="-102.37428496941683"><ele>1886.0</ele><time>2026-03-22T14:49:54.984Z</time></trkpt><trkpt lat="21.85015696402933" lon="-102.37426382696422"><ele>1886.0</ele><time>2026-03-22T14:49:55.984Z</time></trkpt><trkpt lat="21.850264191404637" lon="-102.37424657364961"><ele>1886.0</ele><time>2026-03-22T14:49:56.984Z</time></trkpt><trkpt lat="21.850375190166602" lon="-102.3742311152381"><ele>1886.0</ele><time>2026-03-22T14:49:57.984Z</time></trkpt><trkpt lat="21.850488206448947" lon="-102.37421329545619"><ele>1886.0</ele><time>2026-03-22T14:49:58.984Z</time></trkpt><trkpt lat="21.850609453249977" lon="-102.37419558391319"><ele>1886.0</ele><time>2026-03-22T14:49:59.984Z</time></trkpt><trkpt lat="21.85071761037462" lon="-102.37417808209216"><ele>1886.0</ele><time>2026-03-22T14:50:00.984Z</time></trkpt><trkpt lat="21.85083050165922" lon="-102.37415962650891"><ele>1886.0</ele><time>2026-03-22T14:50:01.984Z</time></trkpt><trkpt lat="21.85094511402008" lon="-102.3741441163993"><ele>1886.0</ele><time>2026-03-22T14:50:02.984Z</time></trkpt><trkpt lat="21.851057494683232" lon="-102.37412416887379"><ele>1885.75</ele><time>2026-03-22T14:50:03.984Z</time></trkpt><trkpt lat="21.8511686424123" lon="-102.37410006127301"><ele>1885.5</ele><time>2026-03-22T14:50:04.984Z</time></trkpt><trkpt lat="21.851278415262964" lon="-102.37407928332617"><ele>1885.25</ele><time>2026-03-22T14:50:05.984Z</time></trkpt><trkpt lat="21.851392510671207" lon="-102.37405742979857"><ele>1885.0</ele><time>2026-03-22T14:50:06.984Z</time></trkpt><trkpt lat="21.851503071997683" lon="-102.37403876200015"><ele>1885.0</ele><time>2026-03-22T14:50:07.984Z</time></trkpt><trkpt lat="21.851614081497292" lon="-102.37401520945087"><ele>1885.0</ele><time>2026-03-22T14:50:08.984Z</time></trkpt><trkpt lat="21.851721154087784" lon="-102.37399734404643"><ele>1885.0</ele><time>2026-03-22T14:50:09.984Z</time></trkpt><trkpt lat="21.851833419001657" lon="-102.37397846858914"><ele>1885.0</ele><time>2026-03-22T14:50:10.984Z</time></trkpt><trkpt lat="21.85195060072825" lon="-102.37395327434741"><ele>1885.0</ele><time>2026-03-22T14:50:11.984Z</time></trkpt><trkpt lat="21.852070550790227" lon="-102.37393486596258"><ele>1885.0</ele><time>2026-03-22T14:50:12.984Z</time></trkpt><trkpt lat="21.852185192458226" lon="-102.37391661378575"><ele>1885.0</ele><time>2026-03-22T14:50:13.984Z</time></trkpt><trkpt lat="21.85230600658942" lon="-102.37389467324125"><ele>1885.0</ele><time>2026-03-22T14:50:14.984Z</time></trkpt><trkpt lat="21.85242391060761" lon="-102.37387567340295"><ele>1884.75</ele><time>2026-03-22T14:50:15.984Z</time></trkpt><trkpt lat="21.85253801101893" lon="-102.37385356674096"><ele>1884.5</ele><time>2026-03-22T14:50:16.984Z</time></trkpt><trkpt lat="21.852659848401366" lon="-102.37383342217746"><ele>1884.25</ele><time>2026-03-22T14:50:17.984Z</time></trkpt><trkpt lat="21.852780453699907" lon="-102.37381540358133"><ele>1884.0</ele><time>2026-03-22T14:50:18.984Z</time></trkpt><trkpt lat="21.852909572915653" lon="-102.3737927996125"><ele>1883.0</ele><time>2026-03-22T14:50:19.984Z</time></trkpt><trkpt lat="21.85303008603024" lon="-102.37377598539348"><ele>1882.0</ele><time>2026-03-22T14:50:20.984Z</time></trkpt><trkpt lat="21.853162031740215" lon="-102.37375100082862"><ele>1881.0</ele><time>2026-03-22T14:50:21.984Z</time></trkpt><trkpt lat="21.853286147934025" lon="-102.37373288862327"><ele>1880.0</ele><time>2026-03-22T14:50:22.984Z</time></trkpt><trkpt lat="21.853414256863612" lon="-102.37370836950083"><ele>1879.25</ele><time>2026-03-22T14:50:23.985Z</time></trkpt><trkpt lat="21.853539651415044" lon="-102.37368582915958"><ele>1878.5</ele><time>2026-03-22T14:50:24.985Z</time></trkpt><trkpt lat="21.853666937515857" lon="-102.37366049315412"><ele>1877.75</ele><time>2026-03-22T14:50:25.985Z</time></trkpt><trkpt lat="21.853791921591284" lon="-102.37363383892006"><ele>1877.0</ele><time>2026-03-22T14:50:26.984Z</time></trkpt><trkpt lat="21.85392383009689" lon="-102.37361257598099"><ele>1877.0</ele><time>2026-03-22T14:50:27.984Z</time></trkpt><trkpt lat="21.854052972302846" lon="-102.3735876621208"><ele>1877.0</ele><time>2026-03-22T14:50:28.984Z</time></trkpt><trkpt lat="21.85418279650811" lon="-102.37356871016105"><ele>1877.0</ele><time>2026-03-22T14:50:29.984Z</time></trkpt><trkpt lat="21.854313539150073" lon="-102.37354579937714"><ele>1877.0</ele><time>2026-03-22T14:50:30.984Z</time></trkpt><trkpt lat="21.854445625108525" lon="-102.37352448239125"><ele>1877.25</ele><time>2026-03-22T14:50:31.984Z</time></trkpt><trkpt lat="21.854574705178155" lon="-102.37350034960012"><ele>1877.5</ele><time>2026-03-22T14:50:32.984Z</time></trkpt><trkpt lat="21.854706448402812" lon="-102.37347713812147"><ele>1877.75</ele><time>2026-03-22T14:50:33.984Z</time></trkpt><trkpt lat="21.854838789802777" lon="-102.37345433846049"><ele>1878.0</ele><time>2026-03-22T14:50:34.984Z</time></trkpt><trkpt lat="21.85497124175183" lon="-102.37343269756688"><ele>1878.0</ele><time>2026-03-22T14:50:35.984Z</time></trkpt><trkpt lat="21.855101604704018" lon="-102.37340837144873"><ele>1878.0</ele><time>2026-03-22T14:50:36.984Z</time></trkpt><trkpt lat="21.85522958147877" lon="-102.37338621418357"><ele>1878.0</ele><time>2026-03-22T14:50:37.984Z</time></trkpt><trkpt lat="21.85535831586232" lon="-102.37336607043518"><ele>1878.0</ele><time>2026-03-22T14:50:38.984Z</time></trkpt><trkpt lat="21.855484934696307" lon="-102.37334736845447"><ele>1878.25</ele><time>2026-03-22T14:50:39.984Z</time></trkpt><trkpt lat="21.855610496057636" lon="-102.37332675137344"><ele>1878.5</ele><time>2026-03-22T14:50:40.984Z</time></trkpt><trkpt lat="21.85573619481478" lon="-102.3733067499137"><ele>1878.75</ele><time>2026-03-22T14:50:41.984Z</time></trkpt><trkpt lat="21.85585928153844" lon="-102.37328604211207"><ele>1879.0</ele><time>2026-03-22T14:50:42.984Z</time></trkpt><trkpt lat="21.85598290121504" lon="-102.37326550259662"><ele>1879.0</ele><time>2026-03-22T14:50:43.984Z</time></trkpt><trkpt lat="21.856102555806988" lon="-102.37324424086927"><ele>1879.0</ele><time>2026-03-22T14:50:44.984Z</time></trkpt><trkpt lat="21.856220470878306" lon="-102.3732229132372"><ele>1879.0</ele><time>2026-03-22T14:50:45.984Z</time></trkpt><trkpt lat="21.856336501246098" lon="-102.37320002076413"><ele>1879.0</ele><time>2026-03-22T14:50:46.984Z</time></trkpt><trkpt lat="21.856453454676" lon="-102.37317919657765"><ele>1879.0</ele><time>2026-03-22T14:50:47.984Z</time></trkpt><trkpt lat="21.856571513780576" lon="-102.37315720759288"><ele>1879.0</ele><time>2026-03-22T14:50:48.984Z</time></trkpt><trkpt lat="21.856689206323647" lon="-102.37313567544223"><ele>1879.0</ele><time>2026-03-22T14:50:49.984Z</time></trkpt><trkpt lat="21.856807099988114" lon="-102.37311273070172"><ele>1879.0</ele><time>2026-03-22T14:50:50.984Z</time></trkpt><trkpt lat="21.856922754470546" lon="-102.37309170854414"><ele>1879.5</ele><time>2026-03-22T14:50:51.984Z</time></trkpt><trkpt lat="21.857034824119555" lon="-102.37307205117428"><ele>1880.0</ele><time>2026-03-22T14:50:52.984Z</time></trkpt><trkpt lat="21.857147186512048" lon="-102.37305385143189"><ele>1880.5</ele><time>2026-03-22T14:50:53.984Z</time></trkpt><trkpt lat="21.85726211983381" lon="-102.37303542688545"><ele>1881.0</ele><time>2026-03-22T14:50:54.984Z</time></trkpt><trkpt lat="21.85737147563637" lon="-102.37301691582265"><ele>1881.1999999999998</ele><time>2026-03-22T14:50:55.984Z</time></trkpt><trkpt lat="21.857481303864596" lon="-102.37299427038532"><ele>1881.3999999999999</ele><time>2026-03-22T14:50:56.984Z</time></trkpt><trkpt lat="21.857587941703972" lon="-102.37297311195161"><ele>1881.6</ele><time>2026-03-22T14:50:57.984Z</time></trkpt><trkpt lat="21.85769498793565" lon="-102.37295664263083"><ele>1881.8</ele><time>2026-03-22T14:50:58.984Z</time></trkpt><trkpt lat="21.857797389628963" lon="-102.37294104051992"><ele>1882.0</ele><time>2026-03-22T14:50:59.984Z</time></trkpt><trkpt lat="21.857903740954363" lon="-102.37292144192119"><ele>1882.3999999999999</ele><time>2026-03-22T14:51:00.984Z</time></trkpt><trkpt lat="21.8580004533602" lon="-102.37290154217641"><ele>1882.7999999999997</ele><time>2026-03-22T14:51:01.984Z</time></trkpt><trkpt lat="21.85809947483234" lon="-102.3728798130031"><ele>1883.2</ele><time>2026-03-22T14:51:02.984Z</time></trkpt><trkpt lat="21.858196286221368" lon="-102.37285812267832"><ele>1883.6</ele><time>2026-03-22T14:51:03.984Z</time></trkpt><trkpt lat="21.85829566104563" lon="-102.37283974930007"><ele>1884.0</ele><time>2026-03-22T14:51:04.984Z</time></trkpt><trkpt lat="21.858393507638404" lon="-102.37282063989807"><ele>1883.8000000000002</ele><time>2026-03-22T14:51:05.984Z</time></trkpt><trkpt lat="21.858487868878818" lon="-102.3728062140829"><ele>1883.6000000000001</ele><time>2026-03-22T14:51:06.983Z</time></trkpt><trkpt lat="21.858581877897603" lon="-102.37279059432781"><ele>1883.4</ele><time>2026-03-22T14:51:07.983Z</time></trkpt><trkpt lat="21.858676618281603" lon="-102.37277426676218"><ele>1883.2</ele><time>2026-03-22T14:51:08.983Z</time></trkpt><trkpt lat="21.858769006918866" lon="-102.37275875394687"><ele>1883.0</ele><time>2026-03-22T14:51:09.983Z</time></trkpt><trkpt lat="21.85886825156508" lon="-102.37274316943078"><ele>1883.0</ele><time>2026-03-22T14:51:10.983Z</time></trkpt><trkpt lat="21.85896688663377" lon="-102.37272775156472"><ele>1883.0000000000002</ele><time>2026-03-22T14:51:11.983Z</time></trkpt><trkpt lat="21.859065740725832" lon="-102.37271221727434"><ele>1883.0000000000002</ele><time>2026-03-22T14:51:12.983Z</time></trkpt><trkpt lat="21.859163061506557" lon="-102.37269829374355"><ele>1883.0</ele><time>2026-03-22T14:51:13.983Z</time></trkpt><trkpt lat="21.85925852535705" lon="-102.3726836563892"><ele>1883.0</ele><time>2026-03-22T14:51:14.983Z</time></trkpt><trkpt lat="21.859357043051226" lon="-102.3726694031997"><ele>1883.4</ele><time>2026-03-22T14:51:15.983Z</time></trkpt><trkpt lat="21.85945455004637" lon="-102.37265498913624"><ele>1883.8000000000002</ele><time>2026-03-22T14:51:16.983Z</time></trkpt><trkpt lat="21.859552127250925" lon="-102.37264219058211"><ele>1884.2</ele><time>2026-03-22T14:51:17.983Z</time></trkpt><trkpt lat="21.85965480402269" lon="-102.37262946877061"><ele>1884.6</ele><time>2026-03-22T14:51:18.983Z</time></trkpt><trkpt lat="21.8597634122519" lon="-102.37261225082247"><ele>1885.0</ele><time>2026-03-22T14:51:19.983Z</time></trkpt><trkpt lat="21.859863257234036" lon="-102.37259473769387"><ele>1885.0</ele><time>2026-03-22T14:51:20.983Z</time></trkpt><trkpt lat="21.859960957058686" lon="-102.37257534161938"><ele>1885.0</ele><time>2026-03-22T14:51:21.983Z</time></trkpt><trkpt lat="21.86006228462096" lon="-102.37255560362917"><ele>1885.0</ele><time>2026-03-22T14:51:22.983Z</time></trkpt><trkpt lat="21.860162317076895" lon="-102.37253709100744"><ele>1885.0</ele><time>2026-03-22T14:51:23.983Z</time></trkpt><trkpt lat="21.860264591661355" lon="-102.37251843783375"><ele>1885.0</ele><time>2026-03-22T14:51:24.983Z</time></trkpt><trkpt lat="21.86036948253613" lon="-102.37249710537581"><ele>1885.4</ele><time>2026-03-22T14:51:25.983Z</time></trkpt><trkpt lat="21.860474601422187" lon="-102.37247634085635"><ele>1885.8</ele><time>2026-03-22T14:51:26.983Z</time></trkpt><trkpt lat="21.86057035694368" lon="-102.37245433875692"><ele>1886.1999999999998</ele><time>2026-03-22T14:51:27.983Z</time></trkpt><trkpt lat="21.86066752803736" lon="-102.37243521990769"><ele>1886.6</ele><time>2026-03-22T14:51:28.983Z</time></trkpt><trkpt lat="21.860766417470526" lon="-102.3724187701916"><ele>1887.0</ele><time>2026-03-22T14:51:29.983Z</time></trkpt><trkpt lat="21.860861888451158" lon="-102.37240069802515"><ele>1886.8</ele><time>2026-03-22T14:51:30.983Z</time></trkpt><trkpt lat="21.860959133008407" lon="-102.372386854691"><ele>1886.6</ele><time>2026-03-22T14:51:31.983Z</time></trkpt><trkpt lat="21.861055017911546" lon="-102.37237151992123"><ele>1886.3999999999999</ele><time>2026-03-22T14:51:32.983Z</time></trkpt><trkpt lat="21.861146768063783" lon="-102.3723562566426"><ele>1886.1999999999998</ele><time>2026-03-22T14:51:33.983Z</time></trkpt><trkpt lat="21.861235790292316" lon="-102.37234153524427"><ele>1886.0</ele><time>2026-03-22T14:51:34.983Z</time></trkpt><trkpt lat="21.86132382140742" lon="-102.37232254749166"><ele>1885.9999999999998</ele><time>2026-03-22T14:51:35.983Z</time></trkpt><trkpt lat="21.86141297635683" lon="-102.37230757938204"><ele>1886.0</ele><time>2026-03-22T14:51:36.983Z</time></trkpt><trkpt lat="21.86150380077624" lon="-102.37229149432478"><ele>1886.0</ele><time>2026-03-22T14:51:37.983Z</time></trkpt><trkpt lat="21.861591941901168" lon="-102.37227292686715"><ele>1886.0</ele><time>2026-03-22T14:51:38.983Z</time></trkpt><trkpt lat="21.861678973633442" lon="-102.37225553489638"><ele>1885.9999999999998</ele><time>2026-03-22T14:51:39.983Z</time></trkpt><trkpt lat="21.861750041907346" lon="-102.37223941475135"><ele>1886.0</ele><time>2026-03-22T14:51:40.983Z</time></trkpt><trkpt lat="21.861836747370166" lon="-102.37222204235258"><ele>1885.9999999999998</ele><time>2026-03-22T14:51:41.983Z</time></trkpt><trkpt lat="21.861916475717027" lon="-102.37220279118694"><ele>1886.0</ele><time>2026-03-22T14:51:42.983Z</time></trkpt><trkpt lat="21.861994803785763" lon="-102.37218559685829"><ele>1886.0</ele><time>2026-03-22T14:51:43.983Z</time></trkpt><trkpt lat="21.862072784664146" lon="-102.3721651168819"><ele>1886.0</ele><time>2026-03-22T14:51:44.983Z</time></trkpt><trkpt lat="21.862155962832773" lon="-102.37213972096636"><ele>1885.9999999999998</ele><time>2026-03-22T14:51:45.983Z</time></trkpt><trkpt lat="21.862236223919133" lon="-102.37210911936475"><ele>1886.0</ele><time>2026-03-22T14:51:46.983Z</time></trkpt><trkpt lat="21.862312947188695" lon="-102.37207881268102"><ele>1885.9999999999998</ele><time>2026-03-22T14:51:47.983Z</time></trkpt><trkpt lat="21.862387445035665" lon="-102.37204377398636"><ele>1886.0</ele><time>2026-03-22T14:51:48.983Z</time></trkpt><trkpt lat="21.86246336321801" lon="-102.37200376714071"><ele>1886.0</ele><time>2026-03-22T14:51:49.983Z</time></trkpt><trkpt lat="21.862531965257357" lon="-102.37195839394896"><ele>1886.0</ele><time>2026-03-22T14:51:50.983Z</time></trkpt><trkpt lat="21.86260304343605" lon="-102.37191044184573"><ele>1885.9999999999998</ele><time>2026-03-22T14:51:51.983Z</time></trkpt><trkpt lat="21.862666155937518" lon="-102.37185747522803"><ele>1886.0</ele><time>2026-03-22T14:51:52.983Z</time></trkpt><trkpt lat="21.86272185889539" lon="-102.37180837532999"><ele>1885.6666666666665</ele><time>2026-03-22T14:51:53.983Z</time></trkpt><trkpt lat="21.862782880501186" lon="-102.37174579505204"><ele>1885.3333333333333</ele><time>2026-03-22T14:51:54.983Z</time></trkpt><trkpt lat="21.862840259817034" lon="-102.3716873921047"><ele>1885.0</ele><time>2026-03-22T14:51:55.983Z</time></trkpt><trkpt lat="21.862895612183763" lon="-102.37161969158163"><ele>1884.6666666666665</ele><time>2026-03-22T14:51:56.983Z</time></trkpt><trkpt lat="21.86294454647325" lon="-102.37155723304575"><ele>1884.3333333333333</ele><time>2026-03-22T14:51:57.983Z</time></trkpt><trkpt lat="21.86299287343541" lon="-102.37148315633596"><ele>1884.0</ele><time>2026-03-22T14:51:58.983Z</time></trkpt><trkpt lat="21.86303737149114" lon="-102.37141821223653"><ele>1884.1666666666667</ele><time>2026-03-22T14:51:59.983Z</time></trkpt><trkpt lat="21.86308503549331" lon="-102.37133829040172"><ele>1884.3333333333335</ele><time>2026-03-22T14:52:00.983Z</time></trkpt><trkpt lat="21.863124448449295" lon="-102.37126580435947"><ele>1884.5</ele><time>2026-03-22T14:52:01.983Z</time></trkpt><trkpt lat="21.863161265428122" lon="-102.37119193974847"><ele>1884.6666666666667</ele><time>2026-03-22T14:52:02.983Z</time></trkpt><trkpt lat="21.863197777701615" lon="-102.37111323116649"><ele>1884.8333333333335</ele><time>2026-03-22T14:52:03.983Z</time></trkpt><trkpt lat="21.863241783242984" lon="-102.3710381089423"><ele>1885.0</ele><time>2026-03-22T14:52:04.983Z</time></trkpt><trkpt lat="21.863284787854397" lon="-102.3709594553334"><ele>1885.0000000000002</ele><time>2026-03-22T14:52:05.983Z</time></trkpt><trkpt lat="21.863327636660227" lon="-102.37087594845218"><ele>1885.0</ele><time>2026-03-22T14:52:06.983Z</time></trkpt><trkpt lat="21.86336802042957" lon="-102.3707932568199"><ele>1885.0</ele><time>2026-03-22T14:52:07.983Z</time></trkpt><trkpt lat="21.86340208664563" lon="-102.3707031122906"><ele>1885.0</ele><time>2026-03-22T14:52:08.983Z</time></trkpt><trkpt lat="21.86342777998349" lon="-102.37061088055258"><ele>1885.0000000000002</ele><time>2026-03-22T14:52:09.983Z</time></trkpt><trkpt lat="21.86343371429849" lon="-102.37051804855464"><ele>1885.0</ele><time>2026-03-22T14:52:10.982Z</time></trkpt><trkpt lat="21.863417573954205" lon="-102.37041180486081"><ele>1885.2</ele><time>2026-03-22T14:52:11.982Z</time></trkpt><trkpt lat="21.863389151067864" lon="-102.37031132255181"><ele>1885.4</ele><time>2026-03-22T14:52:12.982Z</time></trkpt><trkpt lat="21.86334198256232" lon="-102.37021346013734"><ele>1885.6</ele><time>2026-03-22T14:52:13.982Z</time></trkpt><trkpt lat="21.863275891695817" lon="-102.37012270867822"><ele>1885.8</ele><time>2026-03-22T14:52:14.982Z</time></trkpt><trkpt lat="21.86319210269125" lon="-102.3700491339741"><ele>1886.0</ele><time>2026-03-22T14:52:15.982Z</time></trkpt><trkpt lat="21.863094704777577" lon="-102.36998759253302"><ele>1886.0</ele><time>2026-03-22T14:52:16.982Z</time></trkpt><trkpt lat="21.862989640123356" lon="-102.3699546763572"><ele>1886.0</ele><time>2026-03-22T14:52:17.982Z</time></trkpt><trkpt lat="21.862890287509494" lon="-102.36994152198251"><ele>1886.0</ele><time>2026-03-22T14:52:18.982Z</time></trkpt><trkpt lat="21.862806948364817" lon="-102.36996131110904"><ele>1886.0</ele><time>2026-03-22T14:52:19.982Z</time></trkpt><trkpt lat="21.86273542285899" lon="-102.37001075940394"><ele>1886.0</ele><time>2026-03-22T14:52:20.982Z</time></trkpt><trkpt lat="21.86268857534334" lon="-102.37008264988285"><ele>1885.9999999999998</ele><time>2026-03-22T14:52:21.982Z</time></trkpt><trkpt lat="21.86265462686817" lon="-102.37017226037187"><ele>1886.0</ele><time>2026-03-22T14:52:22.982Z</time></trkpt><trkpt lat="21.862657104120256" lon="-102.37027228048194"><ele>1886.0</ele><time>2026-03-22T14:52:23.982Z</time></trkpt><trkpt lat="21.86267172376119" lon="-102.37037200483283"><ele>1886.0</ele><time>2026-03-22T14:52:24.982Z</time></trkpt><trkpt lat="21.86270527035479" lon="-102.37045081099951"><ele>1885.9999999999998</ele><time>2026-03-22T14:52:25.982Z</time></trkpt><trkpt lat="21.86276394599803" lon="-102.37052542124619"><ele>1886.0</ele><time>2026-03-22T14:52:26.982Z</time></trkpt><trkpt lat="21.862823539753858" lon="-102.3705849593636"><ele>1885.8</ele><time>2026-03-22T14:52:27.982Z</time></trkpt><trkpt lat="21.862888771375154" lon="-102.37064729307004"><ele>1885.6</ele><time>2026-03-22T14:52:28.982Z</time></trkpt><trkpt lat="21.862958633391003" lon="-102.37071687589172"><ele>1885.4</ele><time>2026-03-22T14:52:29.984Z</time></trkpt><trkpt lat="21.86303538937995" lon="-102.37079165250259"><ele>1885.2</ele><time>2026-03-22T14:52:30.984Z</time></trkpt><trkpt lat="21.86311879564316" lon="-102.37084912668185"><ele>1885.0</ele><time>2026-03-22T14:52:31.984Z</time></trkpt><trkpt lat="21.8632082573565" lon="-102.37090673988497"><ele>1885.0</ele><time>2026-03-22T14:52:32.984Z</time></trkpt><trkpt lat="21.863297063581705" lon="-102.37096503015047"><ele>1885.0</ele><time>2026-03-22T14:52:33.984Z</time></trkpt><trkpt lat="21.863385034960874" lon="-102.37102166318662"><ele>1885.0</ele><time>2026-03-22T14:52:34.984Z</time></trkpt><trkpt lat="21.863472743768135" lon="-102.37107699830028"><ele>1885.0</ele><time>2026-03-22T14:52:35.983Z</time></trkpt><trkpt lat="21.86355644768566" lon="-102.37112561210787"><ele>1885.0</ele><time>2026-03-22T14:52:36.984Z</time></trkpt><trkpt lat="21.86365073729962" lon="-102.37118561338349"><ele>1885.4</ele><time>2026-03-22T14:52:37.984Z</time></trkpt><trkpt lat="21.863736598723676" lon="-102.37123243541149"><ele>1885.8</ele><time>2026-03-22T14:52:38.984Z</time></trkpt><trkpt lat="21.863832680905368" lon="-102.37127892375557"><ele>1886.1999999999998</ele><time>2026-03-22T14:52:39.984Z</time></trkpt><trkpt lat="21.863924681734012" lon="-102.37132838099215"><ele>1886.6</ele><time>2026-03-22T14:52:40.984Z</time></trkpt><trkpt lat="21.8640210096736" lon="-102.37136969856871"><ele>1887.0</ele><time>2026-03-22T14:52:41.984Z</time></trkpt><trkpt lat="21.864122776145443" lon="-102.3714128026301"><ele>1887.0</ele><time>2026-03-22T14:52:42.984Z</time></trkpt><trkpt lat="21.864218220710146" lon="-102.37144199607542"><ele>1886.9999999999998</ele><time>2026-03-22T14:52:43.984Z</time></trkpt><trkpt lat="21.864303946016882" lon="-102.37146538302702"><ele>1886.9999999999998</ele><time>2026-03-22T14:52:44.984Z</time></trkpt><trkpt lat="21.864415398331197" lon="-102.37148558385485"><ele>1887.0</ele><time>2026-03-22T14:52:45.984Z</time></trkpt><trkpt lat="21.864516329854684" lon="-102.3715051719143"><ele>1887.0</ele><time>2026-03-22T14:52:46.984Z</time></trkpt><trkpt lat="21.864617758674783" lon="-102.37152480671188"><ele>1887.8</ele><time>2026-03-22T14:52:47.984Z</time></trkpt><trkpt lat="21.864713502875706" lon="-102.37153827694515"><ele>1888.6</ele><time>2026-03-22T14:52:48.984Z</time></trkpt><trkpt lat="21.864813382608265" lon="-102.3715441444718"><ele>1889.3999999999999</ele><time>2026-03-22T14:52:49.984Z</time></trkpt><trkpt lat="21.8649167362312" lon="-102.37154544653995"><ele>1890.1999999999998</ele><time>2026-03-22T14:52:50.984Z</time></trkpt><trkpt lat="21.86502521788401" lon="-102.37154260708927"><ele>1891.0</ele><time>2026-03-22T14:52:51.984Z</time></trkpt><trkpt lat="21.86513108329308" lon="-102.37154597777024"><ele>1891.4</ele><time>2026-03-22T14:52:52.984Z</time></trkpt><trkpt lat="21.865234373698346" lon="-102.37153338942147"><ele>1891.8</ele><time>2026-03-22T14:52:53.984Z</time></trkpt><trkpt lat="21.865332862283665" lon="-102.37153097725628"><ele>1892.2000000000003</ele><time>2026-03-22T14:52:54.984Z</time></trkpt><trkpt lat="21.865427549265082" lon="-102.3715231316857"><ele>1892.6000000000001</ele><time>2026-03-22T14:52:55.984Z</time></trkpt><trkpt lat="21.865529090917324" lon="-102.37150823807366"><ele>1893.0</ele><time>2026-03-22T14:52:56.983Z</time></trkpt><trkpt lat="21.86561911022778" lon="-102.3714925933062"><ele>1893.0</ele><time>2026-03-22T14:52:57.983Z</time></trkpt><trkpt lat="21.865719537782333" lon="-102.37147405272424"><ele>1893.0000000000002</ele><time>2026-03-22T14:52:58.983Z</time></trkpt><trkpt lat="21.865804162557744" lon="-102.37146444205288"><ele>1893.0000000000002</ele><time>2026-03-22T14:52:59.983Z</time></trkpt><trkpt lat="21.865894516138646" lon="-102.37144730637317"><ele>1893.0</ele><time>2026-03-22T14:53:00.983Z</time></trkpt><trkpt lat="21.866000575121166" lon="-102.37142407802335"><ele>1893.0</ele><time>2026-03-22T14:53:01.983Z</time></trkpt><trkpt lat="21.86609727796671" lon="-102.37140657637153"><ele>1893.2</ele><time>2026-03-22T14:53:02.983Z</time></trkpt><trkpt lat="21.866195951078726" lon="-102.37138826138074"><ele>1893.4</ele><time>2026-03-22T14:53:03.983Z</time></trkpt><trkpt lat="21.86629452186328" lon="-102.37136776381998"><ele>1893.6000000000001</ele><time>2026-03-22T14:53:04.983Z</time></trkpt><trkpt lat="21.866401066525867" lon="-102.37134763583599"><ele>1893.8000000000002</ele><time>2026-03-22T14:53:05.983Z</time></trkpt><trkpt lat="21.866504205854483" lon="-102.37133694775234"><ele>1894.0</ele><time>2026-03-22T14:53:06.983Z</time></trkpt><trkpt lat="21.866595929223564" lon="-102.371320423303"><ele>1894.0</ele><time>2026-03-22T14:53:07.983Z</time></trkpt><trkpt lat="21.866689275296924" lon="-102.37130106200347"><ele>1894.0</ele><time>2026-03-22T14:53:08.983Z</time></trkpt><trkpt lat="21.866782097350047" lon="-102.37128639746344"><ele>1894.0</ele><time>2026-03-22T14:53:09.983Z</time></trkpt><trkpt lat="21.866871875137505" lon="-102.37127389015625"><ele>1894.0</ele><time>2026-03-22T14:53:10.983Z</time></trkpt><trkpt lat="21.86697439062646" lon="-102.37124913384979"><ele>1894.0</ele><time>2026-03-22T14:53:11.983Z</time></trkpt><trkpt lat="21.86707522895213" lon="-102.3712255372491"><ele>1894.0</ele><time>2026-03-22T14:53:12.983Z</time></trkpt><trkpt lat="21.867165453212507" lon="-102.37121419663865"><ele>1894.0</ele><time>2026-03-22T14:53:13.983Z</time></trkpt><trkpt lat="21.867263601297665" lon="-102.3711910613271"><ele>1894.0</ele><time>2026-03-22T14:53:14.983Z</time></trkpt><trkpt lat="21.867353645987567" lon="-102.371174081238"><ele>1894.0</ele><time>2026-03-22T14:53:15.983Z</time></trkpt><trkpt lat="21.867443600540923" lon="-102.37115952965819"><ele>1894.0</ele><time>2026-03-22T14:53:16.983Z</time></trkpt><trkpt lat="21.86753656701405" lon="-102.37114553639547"><ele>1894.0000000000002</ele><time>2026-03-22T14:53:17.983Z</time></trkpt><trkpt lat="21.8676239970352" lon="-102.37112613371097"><ele>1894.0</ele><time>2026-03-22T14:53:18.983Z</time></trkpt><trkpt lat="21.867706219974373" lon="-102.37111322879109"><ele>1894.0</ele><time>2026-03-22T14:53:19.983Z</time></trkpt><trkpt lat="21.867791437851498" lon="-102.37110508946684"><ele>1894.0</ele><time>2026-03-22T14:53:20.983Z</time></trkpt><trkpt lat="21.86787214049638" lon="-102.37108601261545"><ele>1894.0000000000002</ele><time>2026-03-22T14:53:21.983Z</time></trkpt><trkpt lat="21.86795452743943" lon="-102.37106857033947"><ele>1894.0</ele><time>2026-03-22T14:53:22.983Z</time></trkpt><trkpt lat="21.86803625621865" lon="-102.37105924752234"><ele>1894.0000000000002</ele><time>2026-03-22T14:53:23.983Z</time></trkpt><trkpt lat="21.868117363160355" lon="-102.37104563557277"><ele>1894.0</ele><time>2026-03-22T14:53:24.983Z</time></trkpt><trkpt lat="21.868194422664704" lon="-102.37103452136196"><ele>1894.0</ele><time>2026-03-22T14:53:25.983Z</time></trkpt><trkpt lat="21.86827109429279" lon="-102.37102701108678"><ele>1894.0</ele><time>2026-03-22T14:53:26.983Z</time></trkpt><trkpt lat="21.868350415337165" lon="-102.37101359151953"><ele>1894.0000000000002</ele><time>2026-03-22T14:53:27.983Z</time></trkpt><trkpt lat="21.868429103982955" lon="-102.3710001524775"><ele>1894.0</ele><time>2026-03-22T14:53:28.983Z</time></trkpt><trkpt lat="21.868508065131152" lon="-102.37099006983354"><ele>1894.1666666666667</ele><time>2026-03-22T14:53:29.983Z</time></trkpt><trkpt lat="21.8685881908498" lon="-102.37097617472244"><ele>1894.3333333333335</ele><time>2026-03-22T14:53:30.983Z</time></trkpt><trkpt lat="21.86867071759243" lon="-102.37096229712765"><ele>1894.5</ele><time>2026-03-22T14:53:31.983Z</time></trkpt><trkpt lat="21.868746278855472" lon="-102.37094711360653"><ele>1894.6666666666665</ele><time>2026-03-22T14:53:32.983Z</time></trkpt><trkpt lat="21.868822283553012" lon="-102.37092958249917"><ele>1894.8333333333333</ele><time>2026-03-22T14:53:33.983Z</time></trkpt><trkpt lat="21.868898290144273" lon="-102.370910267166"><ele>1895.0</ele><time>2026-03-22T14:53:34.983Z</time></trkpt><trkpt lat="21.868980276200983" lon="-102.37089185193597"><ele>1895.0</ele><time>2026-03-22T14:53:35.983Z</time></trkpt><trkpt lat="21.869069043276465" lon="-102.3708772278615"><ele>1895.0</ele><time>2026-03-22T14:53:36.983Z</time></trkpt><trkpt lat="21.869155870463654" lon="-102.37085896901422"><ele>1895.0</ele><time>2026-03-22T14:53:37.983Z</time></trkpt><trkpt lat="21.869246032866833" lon="-102.37084522504945"><ele>1895.0</ele><time>2026-03-22T14:53:38.983Z</time></trkpt><trkpt lat="21.869338685620967" lon="-102.37083112273369"><ele>1895.0</ele><time>2026-03-22T14:53:39.983Z</time></trkpt><trkpt lat="21.869435032037924" lon="-102.37081170265523"><ele>1895.3333333333333</ele><time>2026-03-22T14:53:40.983Z</time></trkpt><trkpt lat="21.869529578366965" lon="-102.37079525938081"><ele>1895.6666666666665</ele><time>2026-03-22T14:53:41.983Z</time></trkpt><trkpt lat="21.8696152492384" lon="-102.3707739709945"><ele>1896.0</ele><time>2026-03-22T14:53:42.983Z</time></trkpt><trkpt lat="21.869702343105114" lon="-102.370764980526"><ele>1896.3333333333335</ele><time>2026-03-22T14:53:43.983Z</time></trkpt><trkpt lat="21.869785292208945" lon="-102.37074585618905"><ele>1896.6666666666667</ele><time>2026-03-22T14:53:44.983Z</time></trkpt><trkpt lat="21.869872489614313" lon="-102.37074044053738"><ele>1897.0</ele><time>2026-03-22T14:53:45.983Z</time></trkpt><trkpt lat="21.86995775313304" lon="-102.37072526198745"><ele>1897.0000000000002</ele><time>2026-03-22T14:53:46.983Z</time></trkpt><trkpt lat="21.870045041972286" lon="-102.37070875443558"><ele>1897.0</ele><time>2026-03-22T14:53:47.983Z</time></trkpt><trkpt lat="21.870133879397887" lon="-102.37069422656472"><ele>1897.0</ele><time>2026-03-22T14:53:48.983Z</time></trkpt><trkpt lat="21.87022531187618" lon="-102.37068321977728"><ele>1897.0</ele><time>2026-03-22T14:53:49.983Z</time></trkpt><trkpt lat="21.870311998867795" lon="-102.37066829600386"><ele>1897.0000000000002</ele><time>2026-03-22T14:53:50.983Z</time></trkpt><trkpt lat="21.870396714600687" lon="-102.37064845630327"><ele>1897.0</ele><time>2026-03-22T14:53:51.983Z</time></trkpt><trkpt lat="21.87048064208387" lon="-102.37063304893536"><ele>1897.0000000000002</ele><time>2026-03-22T14:53:52.983Z</time></trkpt><trkpt lat="21.870567298726357" lon="-102.37062024206821"><ele>1897.0</ele><time>2026-03-22T14:53:53.983Z</time></trkpt><trkpt lat="21.87066070263569" lon="-102.37060499108746"><ele>1897.0</ele><time>2026-03-22T14:53:54.983Z</time></trkpt><trkpt lat="21.87073896816849" lon="-102.37059198987815"><ele>1897.0</ele><time>2026-03-22T14:53:55.983Z</time></trkpt><trkpt lat="21.870824994266975" lon="-102.3705766847911"><ele>1897.0000000000002</ele><time>2026-03-22T14:53:56.983Z</time></trkpt><trkpt lat="21.870912835334007" lon="-102.3705594677684"><ele>1897.0</ele><time>2026-03-22T14:53:57.983Z</time></trkpt><trkpt lat="21.87099818157189" lon="-102.37054892339418"><ele>1897.0</ele><time>2026-03-22T14:53:58.983Z</time></trkpt><trkpt lat="21.87109819728099" lon="-102.370528606289"><ele>1896.9999999999998</ele><time>2026-03-22T14:53:59.983Z</time></trkpt><trkpt lat="21.871198199939347" lon="-102.37050870120117"><ele>1896.9999999999998</ele><time>2026-03-22T14:54:00.983Z</time></trkpt><trkpt lat="21.871299387728072" lon="-102.37048939184575"><ele>1897.0</ele><time>2026-03-22T14:54:01.982Z</time></trkpt><trkpt lat="21.871398761154747" lon="-102.37047103932377"><ele>1897.0</ele><time>2026-03-22T14:54:02.982Z</time></trkpt><trkpt lat="21.87150560949083" lon="-102.37045027487979"><ele>1896.3999999999999</ele><time>2026-03-22T14:54:03.982Z</time></trkpt><trkpt lat="21.871613863439716" lon="-102.37042867688234"><ele>1895.7999999999997</ele><time>2026-03-22T14:54:04.982Z</time></trkpt><trkpt lat="21.871710651795564" lon="-102.37040936061295"><ele>1895.2</ele><time>2026-03-22T14:54:05.982Z</time></trkpt><trkpt lat="21.871818371778794" lon="-102.37039035072296"><ele>1894.6</ele><time>2026-03-22T14:54:06.982Z</time></trkpt><trkpt lat="21.871922971667836" lon="-102.37037122630448"><ele>1894.0</ele><time>2026-03-22T14:54:07.982Z</time></trkpt><trkpt lat="21.872035460689638" lon="-102.37035517663142"><ele>1893.75</ele><time>2026-03-22T14:54:08.982Z</time></trkpt><trkpt lat="21.872141719244826" lon="-102.37033445382866"><ele>1893.5</ele><time>2026-03-22T14:54:09.982Z</time></trkpt><trkpt lat="21.872262085482134" lon="-102.37031302253995"><ele>1893.25</ele><time>2026-03-22T14:54:10.982Z</time></trkpt><trkpt lat="21.872386710292517" lon="-102.37029051070888"><ele>1893.0</ele><time>2026-03-22T14:54:11.982Z</time></trkpt><trkpt lat="21.872509419919723" lon="-102.37026876098933"><ele>1893.75</ele><time>2026-03-22T14:54:12.982Z</time></trkpt><trkpt lat="21.872635345813894" lon="-102.37025223206406"><ele>1894.5</ele><time>2026-03-22T14:54:13.982Z</time></trkpt><trkpt lat="21.87275218057431" lon="-102.37024026372363"><ele>1895.25</ele><time>2026-03-22T14:54:14.982Z</time></trkpt><trkpt lat="21.872882920464743" lon="-102.37021920143245"><ele>1896.0</ele><time>2026-03-22T14:54:15.982Z</time></trkpt><trkpt lat="21.873003843351658" lon="-102.37020151248296"><ele>1896.0</ele><time>2026-03-22T14:54:16.982Z</time></trkpt><trkpt lat="21.873121795897067" lon="-102.37018511975609"><ele>1896.0</ele><time>2026-03-22T14:54:17.982Z</time></trkpt><trkpt lat="21.8732516705829" lon="-102.37016885165484"><ele>1896.0</ele><time>2026-03-22T14:54:18.982Z</time></trkpt><trkpt lat="21.8733899930157" lon="-102.37014778385546"><ele>1896.0</ele><time>2026-03-22T14:54:19.982Z</time></trkpt><trkpt lat="21.87351942203364" lon="-102.37012716704947"><ele>1896.75</ele><time>2026-03-22T14:54:20.982Z</time></trkpt><trkpt lat="21.873647323249923" lon="-102.37010230350047"><ele>1897.5</ele><time>2026-03-22T14:54:21.982Z</time></trkpt><trkpt lat="21.873770549732924" lon="-102.37007720339028"><ele>1898.25</ele><time>2026-03-22T14:54:22.982Z</time></trkpt><trkpt lat="21.873893349106492" lon="-102.37005197340491"><ele>1899.0</ele><time>2026-03-22T14:54:23.982Z</time></trkpt><trkpt lat="21.874014166591817" lon="-102.37002402697989"><ele>1899.0</ele><time>2026-03-22T14:54:24.982Z</time></trkpt><trkpt lat="21.874135856346363" lon="-102.36999506924577"><ele>1899.0</ele><time>2026-03-22T14:54:25.982Z</time></trkpt><trkpt lat="21.874260726115374" lon="-102.36996750243445"><ele>1899.0</ele><time>2026-03-22T14:54:26.982Z</time></trkpt><trkpt lat="21.87438419683964" lon="-102.36994542053415"><ele>1899.0</ele><time>2026-03-22T14:54:27.982Z</time></trkpt><trkpt lat="21.87450964769348" lon="-102.3699257274572"><ele>1898.25</ele><time>2026-03-22T14:54:28.982Z</time></trkpt><trkpt lat="21.874636733751014" lon="-102.36990494601726"><ele>1897.5</ele><time>2026-03-22T14:54:29.982Z</time></trkpt><trkpt lat="21.874762474682516" lon="-102.36988603885051"><ele>1896.75</ele><time>2026-03-22T14:54:30.982Z</time></trkpt><trkpt lat="21.8748900833996" lon="-102.36986179451989"><ele>1896.0</ele><time>2026-03-22T14:54:31.982Z</time></trkpt><trkpt lat="21.875017614690773" lon="-102.36984422075165"><ele>1896.25</ele><time>2026-03-22T14:54:32.982Z</time></trkpt><trkpt lat="21.87514265053018" lon="-102.3698249320412"><ele>1896.5</ele><time>2026-03-22T14:54:33.982Z</time></trkpt><trkpt lat="21.875263644873787" lon="-102.36980202090199"><ele>1896.75</ele><time>2026-03-22T14:54:34.983Z</time></trkpt><trkpt lat="21.875391858711357" lon="-102.36977917880583"><ele>1897.0</ele><time>2026-03-22T14:54:35.983Z</time></trkpt><trkpt lat="21.875510433721935" lon="-102.36975631834179"><ele>1897.0</ele><time>2026-03-22T14:54:36.983Z</time></trkpt><trkpt lat="21.875638649396947" lon="-102.36973325853555"><ele>1897.0</ele><time>2026-03-22T14:54:37.983Z</time></trkpt><trkpt lat="21.875766934452024" lon="-102.36971371531808"><ele>1897.0</ele><time>2026-03-22T14:54:38.984Z</time></trkpt><trkpt lat="21.875893132925015" lon="-102.36969047750259"><ele>1897.0</ele><time>2026-03-22T14:54:39.983Z</time></trkpt><trkpt lat="21.87601758971282" lon="-102.36967060065763"><ele>1896.5</ele><time>2026-03-22T14:54:40.983Z</time></trkpt><trkpt lat="21.876146907151202" lon="-102.36964960520766"><ele>1896.0</ele><time>2026-03-22T14:54:41.983Z</time></trkpt><trkpt lat="21.876271911725365" lon="-102.369631761478"><ele>1895.5</ele><time>2026-03-22T14:54:42.983Z</time></trkpt><trkpt lat="21.876395029383797" lon="-102.36960739752782"><ele>1895.0</ele><time>2026-03-22T14:54:43.983Z</time></trkpt><trkpt lat="21.876535834777073" lon="-102.36958274687697"><ele>1895.0</ele><time>2026-03-22T14:54:44.983Z</time></trkpt><trkpt lat="21.87666547583307" lon="-102.36956345868765"><ele>1895.0</ele><time>2026-03-22T14:54:45.983Z</time></trkpt><trkpt lat="21.87679445565087" lon="-102.3695400712891"><ele>1895.0</ele><time>2026-03-22T14:54:46.983Z</time></trkpt><trkpt lat="21.876927727512097" lon="-102.36951138201688"><ele>1895.0</ele><time>2026-03-22T14:54:47.983Z</time></trkpt><trkpt lat="21.877049352377302" lon="-102.36949029282862"><ele>1894.75</ele><time>2026-03-22T14:54:48.983Z</time></trkpt><trkpt lat="21.877176726156684" lon="-102.36947536390655"><ele>1894.5</ele><time>2026-03-22T14:54:49.983Z</time></trkpt><trkpt lat="21.87729952989277" lon="-102.3694545910122"><ele>1894.25</ele><time>2026-03-22T14:54:50.983Z</time></trkpt><trkpt lat="21.87742149254702" lon="-102.36943373150108"><ele>1894.0</ele><time>2026-03-22T14:54:51.983Z</time></trkpt><trkpt lat="21.87754341505666" lon="-102.36941454330007"><ele>1894.5</ele><time>2026-03-22T14:54:52.983Z</time></trkpt><trkpt lat="21.877663874480326" lon="-102.36939188929992"><ele>1895.0</ele><time>2026-03-22T14:54:53.983Z</time></trkpt><trkpt lat="21.87778187692842" lon="-102.36936950347204"><ele>1895.5</ele><time>2026-03-22T14:54:54.983Z</time></trkpt><trkpt lat="21.877900706473227" lon="-102.36934729646637"><ele>1896.0</ele><time>2026-03-22T14:54:55.983Z</time></trkpt><trkpt lat="21.8780153433439" lon="-102.36932516555073"><ele>1896.0</ele><time>2026-03-22T14:54:56.983Z</time></trkpt><trkpt lat="21.878129907769626" lon="-102.36930613124599"><ele>1896.0</ele><time>2026-03-22T14:54:57.983Z</time></trkpt><trkpt lat="21.87824690320027" lon="-102.3692883040738"><ele>1896.0</ele><time>2026-03-22T14:54:58.983Z</time></trkpt><trkpt lat="21.878362179943323" lon="-102.36927479777954"><ele>1896.0</ele><time>2026-03-22T14:54:59.983Z</time></trkpt><trkpt lat="21.87847438679811" lon="-102.36925652453299"><ele>1895.0</ele><time>2026-03-22T14:55:00.983Z</time></trkpt><trkpt lat="21.878597552096252" lon="-102.36923366066482"><ele>1894.0</ele><time>2026-03-22T14:55:01.983Z</time></trkpt><trkpt lat="21.878709774215753" lon="-102.3692111055331"><ele>1893.0</ele><time>2026-03-22T14:55:02.983Z</time></trkpt><trkpt lat="21.878828794818848" lon="-102.36918675798113"><ele>1892.0</ele><time>2026-03-22T14:55:03.983Z</time></trkpt><trkpt lat="21.878943814629654" lon="-102.36915944143259"><ele>1892.0</ele><time>2026-03-22T14:55:04.983Z</time></trkpt><trkpt lat="21.87906454300808" lon="-102.36913412993263"><ele>1892.0</ele><time>2026-03-22T14:55:05.983Z</time></trkpt><trkpt lat="21.87918876817277" lon="-102.36911649071038"><ele>1892.0</ele><time>2026-03-22T14:55:06.982Z</time></trkpt><trkpt lat="21.879311877757512" lon="-102.36909388825245"><ele>1892.0</ele><time>2026-03-22T14:55:07.982Z</time></trkpt><trkpt lat="21.87943019946092" lon="-102.36907224382948"><ele>1892.25</ele><time>2026-03-22T14:55:08.982Z</time></trkpt><trkpt lat="21.879551869146695" lon="-102.36905052499647"><ele>1892.5</ele><time>2026-03-22T14:55:09.982Z</time></trkpt><trkpt lat="21.87967299932075" lon="-102.36902927819355"><ele>1892.75</ele><time>2026-03-22T14:55:10.982Z</time></trkpt><trkpt lat="21.879789145305082" lon="-102.36900601031161"><ele>1893.0</ele><time>2026-03-22T14:55:11.982Z</time></trkpt><trkpt lat="21.879915056327558" lon="-102.36897904817717"><ele>1893.0</ele><time>2026-03-22T14:55:12.982Z</time></trkpt><trkpt lat="21.88003437185263" lon="-102.36894855436084"><ele>1893.0</ele><time>2026-03-22T14:55:13.982Z</time></trkpt><trkpt lat="21.880156309015128" lon="-102.36892147920157"><ele>1893.0</ele><time>2026-03-22T14:55:14.982Z</time></trkpt><trkpt lat="21.880278169323432" lon="-102.36888791185027"><ele>1893.0</ele><time>2026-03-22T14:55:15.982Z</time></trkpt><trkpt lat="21.880395015372095" lon="-102.36884946266488"><ele>1891.25</ele><time>2026-03-22T14:55:16.982Z</time></trkpt><trkpt lat="21.880514814430693" lon="-102.36882621130609"><ele>1889.5</ele><time>2026-03-22T14:55:17.982Z</time></trkpt><trkpt lat="21.880637931155032" lon="-102.36880277550402"><ele>1887.75</ele><time>2026-03-22T14:55:18.982Z</time></trkpt><trkpt lat="21.88077300347122" lon="-102.3687710804005"><ele>1886.0</ele><time>2026-03-22T14:55:19.982Z</time></trkpt><trkpt lat="21.880888597337442" lon="-102.36875818382569"><ele>1886.5</ele><time>2026-03-22T14:55:20.982Z</time></trkpt><trkpt lat="21.881006449663946" lon="-102.36872940556408"><ele>1887.0</ele><time>2026-03-22T14:55:21.982Z</time></trkpt><trkpt lat="21.881130806372692" lon="-102.36870609420795"><ele>1887.5</ele><time>2026-03-22T14:55:22.982Z</time></trkpt><trkpt lat="21.88125749627031" lon="-102.3686819470571"><ele>1888.0</ele><time>2026-03-22T14:55:23.982Z</time></trkpt><trkpt lat="21.88138360612122" lon="-102.36865992687494"><ele>1888.0</ele><time>2026-03-22T14:55:24.982Z</time></trkpt><trkpt lat="21.881508667147976" lon="-102.36863512341014"><ele>1888.0</ele><time>2026-03-22T14:55:25.982Z</time></trkpt><trkpt lat="21.881620448319925" lon="-102.36861158031881"><ele>1888.0</ele><time>2026-03-22T14:55:26.982Z</time></trkpt><trkpt lat="21.8817392277492" lon="-102.36859025313055"><ele>1888.0</ele><time>2026-03-22T14:55:27.982Z</time></trkpt><trkpt lat="21.88185422211731" lon="-102.36857063016589"><ele>1888.2</ele><time>2026-03-22T14:55:28.982Z</time></trkpt><trkpt lat="21.88196283346314" lon="-102.36855014492963"><ele>1888.4</ele><time>2026-03-22T14:55:29.982Z</time></trkpt><trkpt lat="21.88206937508717" lon="-102.36852704501864"><ele>1888.6000000000001</ele><time>2026-03-22T14:55:30.982Z</time></trkpt><trkpt lat="21.88216826547722" lon="-102.36850915318949"><ele>1888.8000000000002</ele><time>2026-03-22T14:55:31.982Z</time></trkpt><trkpt lat="21.882276737906817" lon="-102.36849873017424"><ele>1889.0</ele><time>2026-03-22T14:55:32.982Z</time></trkpt><trkpt lat="21.882375602453177" lon="-102.36848885178132"><ele>1888.9999999999998</ele><time>2026-03-22T14:55:33.982Z</time></trkpt><trkpt lat="21.88246797458918" lon="-102.36848023263039"><ele>1889.0</ele><time>2026-03-22T14:55:34.982Z</time></trkpt><trkpt lat="21.882552842564763" lon="-102.36847382699399"><ele>1889.0</ele><time>2026-03-22T14:55:35.982Z</time></trkpt><trkpt lat="21.88263826519188" lon="-102.36846683880538"><ele>1889.0</ele><time>2026-03-22T14:55:36.982Z</time></trkpt><trkpt lat="21.88272387224036" lon="-102.36845458625123"><ele>1888.9999999999998</ele><time>2026-03-22T14:55:37.982Z</time></trkpt><trkpt lat="21.882804619989987" lon="-102.3684617404567"><ele>1889.0</ele><time>2026-03-22T14:55:38.982Z</time></trkpt><trkpt lat="21.882875882623" lon="-102.36848544718787"><ele>1889.4</ele><time>2026-03-22T14:55:39.982Z</time></trkpt><trkpt lat="21.882972965219963" lon="-102.36855423751193"><ele>1889.8000000000002</ele><time>2026-03-22T14:55:41.982Z</time></trkpt><trkpt lat="21.883046829638143" lon="-102.36866958222123"><ele>1890.1999999999998</ele><time>2026-03-22T14:55:43.982Z</time></trkpt><trkpt lat="21.88308276472882" lon="-102.36875084286761"><ele>1890.6</ele><time>2026-03-22T14:55:44.982Z</time></trkpt><trkpt lat="21.883127167039145" lon="-102.36885318592115"><ele>1891.0</ele><time>2026-03-22T14:55:45.982Z</time></trkpt><trkpt lat="21.88315919060592" lon="-102.36897860525598"><ele>1891.0</ele><time>2026-03-22T14:55:46.982Z</time></trkpt><trkpt lat="21.883189706182414" lon="-102.3690859977046"><ele>1891.0</ele><time>2026-03-22T14:55:47.982Z</time></trkpt><trkpt lat="21.88321440906003" lon="-102.36918929435973"><ele>1891.0</ele><time>2026-03-22T14:55:48.982Z</time></trkpt><trkpt lat="21.883239814717964" lon="-102.36928863145666"><ele>1891.0</ele><time>2026-03-22T14:55:49.982Z</time></trkpt><trkpt lat="21.88326268878057" lon="-102.36939210884948"><ele>1891.0</ele><time>2026-03-22T14:55:50.982Z</time></trkpt><trkpt lat="21.88328304745874" lon="-102.36949398783673"><ele>1891.0</ele><time>2026-03-22T14:55:51.982Z</time></trkpt><trkpt lat="21.88331092722979" lon="-102.36959798487062"><ele>1891.0</ele><time>2026-03-22T14:55:52.982Z</time></trkpt><trkpt lat="21.883341290669726" lon="-102.3697091974973"><ele>1891.0</ele><time>2026-03-22T14:55:53.982Z</time></trkpt><trkpt lat="21.883371756871746" lon="-102.36981739313012"><ele>1891.0</ele><time>2026-03-22T14:55:54.982Z</time></trkpt><trkpt lat="21.883402451756954" lon="-102.36992072254101"><ele>1891.0</ele><time>2026-03-22T14:55:55.982Z</time></trkpt><trkpt lat="21.883428425630985" lon="-102.37003829245099"><ele>1890.8</ele><time>2026-03-22T14:55:56.982Z</time></trkpt><trkpt lat="21.883457637765385" lon="-102.37014836297043"><ele>1890.6</ele><time>2026-03-22T14:55:57.982Z</time></trkpt><trkpt lat="21.88348725610398" lon="-102.3702509238703"><ele>1890.4</ele><time>2026-03-22T14:55:58.982Z</time></trkpt><trkpt lat="21.883510918882838" lon="-102.37036206511448"><ele>1890.2</ele><time>2026-03-22T14:55:59.982Z</time></trkpt><trkpt lat="21.883540125798913" lon="-102.37047669999573"><ele>1890.0</ele><time>2026-03-22T14:56:00.982Z</time></trkpt><trkpt lat="21.883571368033696" lon="-102.37058969170262"><ele>1890.6</ele><time>2026-03-22T14:56:01.982Z</time></trkpt><trkpt lat="21.883603806648804" lon="-102.3707009045412"><ele>1891.2</ele><time>2026-03-22T14:56:02.982Z</time></trkpt><trkpt lat="21.883636469325623" lon="-102.37081094436867"><ele>1891.8000000000002</ele><time>2026-03-22T14:56:03.982Z</time></trkpt><trkpt lat="21.883667179706816" lon="-102.3709215324038"><ele>1892.4</ele><time>2026-03-22T14:56:04.982Z</time></trkpt><trkpt lat="21.883696954379968" lon="-102.37103304106466"><ele>1893.0</ele><time>2026-03-22T14:56:05.982Z</time></trkpt><trkpt lat="21.883724252991893" lon="-102.37114940960625"><ele>1893.0</ele><time>2026-03-22T14:56:06.982Z</time></trkpt><trkpt lat="21.883751239438276" lon="-102.37126718434395"><ele>1893.0000000000002</ele><time>2026-03-22T14:56:07.982Z</time></trkpt><trkpt lat="21.88378557369359" lon="-102.37138341925537"><ele>1893.0000000000002</ele><time>2026-03-22T14:56:08.982Z</time></trkpt><trkpt lat="21.883816997640245" lon="-102.37149746036405"><ele>1893.0</ele><time>2026-03-22T14:56:09.982Z</time></trkpt><trkpt lat="21.883847175221845" lon="-102.37160114061454"><ele>1893.0</ele><time>2026-03-22T14:56:10.981Z</time></trkpt><trkpt lat="21.883872089681045" lon="-102.3717065456179"><ele>1893.4</ele><time>2026-03-22T14:56:11.981Z</time></trkpt><trkpt lat="21.883907029155658" lon="-102.37181664174861"><ele>1893.8000000000002</ele><time>2026-03-22T14:56:12.981Z</time></trkpt><trkpt lat="21.883936259561246" lon="-102.37192376986032"><ele>1894.2</ele><time>2026-03-22T14:56:13.981Z</time></trkpt><trkpt lat="21.88396669757003" lon="-102.37202955429859"><ele>1894.6</ele><time>2026-03-22T14:56:14.981Z</time></trkpt><trkpt lat="21.883995399354067" lon="-102.37212795823213"><ele>1895.0</ele><time>2026-03-22T14:56:15.981Z</time></trkpt><trkpt lat="21.88402593599398" lon="-102.37223046738531"><ele>1895.4</ele><time>2026-03-22T14:56:16.981Z</time></trkpt><trkpt lat="21.88405157013507" lon="-102.37232857228204"><ele>1895.8</ele><time>2026-03-22T14:56:17.981Z</time></trkpt><trkpt lat="21.884077591478253" lon="-102.37243467171696"><ele>1896.1999999999998</ele><time>2026-03-22T14:56:18.981Z</time></trkpt><trkpt lat="21.88410756969605" lon="-102.37253553784298"><ele>1896.6</ele><time>2026-03-22T14:56:19.981Z</time></trkpt><trkpt lat="21.884131654327145" lon="-102.37264261534708"><ele>1897.0</ele><time>2026-03-22T14:56:20.981Z</time></trkpt><trkpt lat="21.884160133541886" lon="-102.3727527890172"><ele>1897.0</ele><time>2026-03-22T14:56:21.981Z</time></trkpt><trkpt lat="21.88418513236354" lon="-102.37285918719031"><ele>1896.9999999999998</ele><time>2026-03-22T14:56:22.981Z</time></trkpt><trkpt lat="21.884211690129444" lon="-102.37295977300276"><ele>1896.9999999999998</ele><time>2026-03-22T14:56:23.981Z</time></trkpt><trkpt lat="21.884240154407806" lon="-102.37306131924136"><ele>1897.0</ele><time>2026-03-22T14:56:24.981Z</time></trkpt><trkpt lat="21.88426734594795" lon="-102.37316870102072"><ele>1897.0</ele><time>2026-03-22T14:56:25.981Z</time></trkpt><trkpt lat="21.88429267560415" lon="-102.3732694016097"><ele>1896.8</ele><time>2026-03-22T14:56:26.981Z</time></trkpt><trkpt lat="21.884320338760947" lon="-102.37337401618227"><ele>1896.6</ele><time>2026-03-22T14:56:27.981Z</time></trkpt><trkpt lat="21.884348545481913" lon="-102.37347879080919"><ele>1896.3999999999999</ele><time>2026-03-22T14:56:28.981Z</time></trkpt><trkpt lat="21.884379609694555" lon="-102.3735730288551"><ele>1896.1999999999998</ele><time>2026-03-22T14:56:29.981Z</time></trkpt><trkpt lat="21.88441097364241" lon="-102.37366966600038"><ele>1896.0</ele><time>2026-03-22T14:56:30.981Z</time></trkpt><trkpt lat="21.884437748267334" lon="-102.3737662089163"><ele>1896.5</ele><time>2026-03-22T14:56:31.981Z</time></trkpt><trkpt lat="21.884460676992973" lon="-102.37386030231023"><ele>1897.0</ele><time>2026-03-22T14:56:32.981Z</time></trkpt><trkpt lat="21.884484678645826" lon="-102.37394855119322"><ele>1897.5</ele><time>2026-03-22T14:56:33.981Z</time></trkpt><trkpt lat="21.88450754600358" lon="-102.37404272388882"><ele>1898.0</ele><time>2026-03-22T14:56:34.981Z</time></trkpt><trkpt lat="21.884534336003735" lon="-102.37413893205064"><ele>1898.5</ele><time>2026-03-22T14:56:35.981Z</time></trkpt><trkpt lat="21.884558790059817" lon="-102.37422730272787"><ele>1899.0</ele><time>2026-03-22T14:56:36.981Z</time></trkpt><trkpt lat="21.88458659883472" lon="-102.37432126585043"><ele>1899.0</ele><time>2026-03-22T14:56:37.981Z</time></trkpt><trkpt lat="21.884608766719573" lon="-102.37441314586238"><ele>1899.0</ele><time>2026-03-22T14:56:38.981Z</time></trkpt><trkpt lat="21.884632278170127" lon="-102.37450343122279"><ele>1899.0</ele><time>2026-03-22T14:56:39.981Z</time></trkpt><trkpt lat="21.88465394474464" lon="-102.37459163976648"><ele>1899.0</ele><time>2026-03-22T14:56:40.982Z</time></trkpt><trkpt lat="21.884678054312115" lon="-102.37468309107257"><ele>1899.0</ele><time>2026-03-22T14:56:41.982Z</time></trkpt><trkpt lat="21.88470104327139" lon="-102.3747695433438"><ele>1899.0</ele><time>2026-03-22T14:56:42.982Z</time></trkpt><trkpt lat="21.88472624976689" lon="-102.37485872442151"><ele>1899.6666666666667</ele><time>2026-03-22T14:56:43.982Z</time></trkpt><trkpt lat="21.884751206667502" lon="-102.37495041203374"><ele>1900.3333333333335</ele><time>2026-03-22T14:56:44.982Z</time></trkpt><trkpt lat="21.88477326142193" lon="-102.37503741730693"><ele>1901.0</ele><time>2026-03-22T14:56:45.982Z</time></trkpt><trkpt lat="21.884798329117054" lon="-102.37512987267188"><ele>1901.6666666666667</ele><time>2026-03-22T14:56:46.982Z</time></trkpt><trkpt lat="21.884825346396287" lon="-102.37522524307163"><ele>1902.3333333333335</ele><time>2026-03-22T14:56:47.983Z</time></trkpt><trkpt lat="21.884849972237962" lon="-102.37531488560575"><ele>1903.0</ele><time>2026-03-22T14:56:48.983Z</time></trkpt><trkpt lat="21.884874576485462" lon="-102.37540797240024"><ele>1903.0000000000002</ele><time>2026-03-22T14:56:49.983Z</time></trkpt><trkpt lat="21.88489925053934" lon="-102.37549946603781"><ele>1903.0</ele><time>2026-03-22T14:56:50.982Z</time></trkpt><trkpt lat="21.884925628193056" lon="-102.37558827029686"><ele>1903.0</ele><time>2026-03-22T14:56:51.982Z</time></trkpt><trkpt lat="21.884949151789538" lon="-102.37568494240635"><ele>1903.0</ele><time>2026-03-22T14:56:52.983Z</time></trkpt><trkpt lat="21.884971853270116" lon="-102.37577991952463"><ele>1903.0000000000002</ele><time>2026-03-22T14:56:53.982Z</time></trkpt><trkpt lat="21.88499726589698" lon="-102.37587370366266"><ele>1903.0</ele><time>2026-03-22T14:56:54.982Z</time></trkpt><trkpt lat="21.88502236812055" lon="-102.37597150262403"><ele>1903.0</ele><time>2026-03-22T14:56:55.982Z</time></trkpt><trkpt lat="21.88504851408657" lon="-102.37606692098909"><ele>1903.0000000000002</ele><time>2026-03-22T14:56:56.982Z</time></trkpt><trkpt lat="21.885076108953218" lon="-102.37616014873001"><ele>1903.0000000000002</ele><time>2026-03-22T14:56:57.982Z</time></trkpt><trkpt lat="21.885098924341342" lon="-102.37625400912583"><ele>1903.0</ele><time>2026-03-22T14:56:58.982Z</time></trkpt><trkpt lat="21.885119436146663" lon="-102.37634479285386"><ele>1903.0</ele><time>2026-03-22T14:56:59.982Z</time></trkpt><trkpt lat="21.885141038150344" lon="-102.37644195868901"><ele>1903.0000000000002</ele><time>2026-03-22T14:57:00.982Z</time></trkpt><trkpt lat="21.88516698662575" lon="-102.37653783872965"><ele>1903.0</ele><time>2026-03-22T14:57:01.982Z</time></trkpt><trkpt lat="21.885198618310078" lon="-102.37663472107084"><ele>1903.0</ele><time>2026-03-22T14:57:02.982Z</time></trkpt><trkpt lat="21.885221913298007" lon="-102.37672235643055"><ele>1903.0</ele><time>2026-03-22T14:57:03.982Z</time></trkpt><trkpt lat="21.885248392471723" lon="-102.37681168993863"><ele>1903.0000000000002</ele><time>2026-03-22T14:57:04.982Z</time></trkpt><trkpt lat="21.885271498506015" lon="-102.3768995449941"><ele>1903.0</ele><time>2026-03-22T14:57:05.982Z</time></trkpt><trkpt lat="21.885297622148073" lon="-102.37699197299486"><ele>1903.0000000000002</ele><time>2026-03-22T14:57:06.982Z</time></trkpt><trkpt lat="21.885322961476316" lon="-102.37708028903036"><ele>1903.0</ele><time>2026-03-22T14:57:07.982Z</time></trkpt><trkpt lat="21.885341403287992" lon="-102.37717357772979"><ele>1903.0</ele><time>2026-03-22T14:57:08.982Z</time></trkpt><trkpt lat="21.885364587722055" lon="-102.37726546593836"><ele>1903.0</ele><time>2026-03-22T14:57:09.982Z</time></trkpt><trkpt lat="21.885390274620626" lon="-102.37735967454752"><ele>1903.0000000000002</ele><time>2026-03-22T14:57:10.982Z</time></trkpt><trkpt lat="21.885414648027485" lon="-102.37744876159603"><ele>1903.0</ele><time>2026-03-22T14:57:11.982Z</time></trkpt><trkpt lat="21.885435403310684" lon="-102.37753632421642"><ele>1903.3333333333335</ele><time>2026-03-22T14:57:12.982Z</time></trkpt><trkpt lat="21.885459265250528" lon="-102.37762271823813"><ele>1903.6666666666667</ele><time>2026-03-22T14:57:13.982Z</time></trkpt><trkpt lat="21.8854797145561" lon="-102.3777164660241"><ele>1904.0</ele><time>2026-03-22T14:57:14.982Z</time></trkpt><trkpt lat="21.885506008675225" lon="-102.37780828123734"><ele>1904.3333333333335</ele><time>2026-03-22T14:57:15.982Z</time></trkpt><trkpt lat="21.88553303569302" lon="-102.37789821162211"><ele>1904.6666666666667</ele><time>2026-03-22T14:57:16.982Z</time></trkpt><trkpt lat="21.88556030412634" lon="-102.37798866733677"><ele>1905.0</ele><time>2026-03-22T14:57:17.982Z</time></trkpt><trkpt lat="21.885585787529724" lon="-102.37807838853593"><ele>1905.8</ele><time>2026-03-22T14:57:18.982Z</time></trkpt><trkpt lat="21.885611858797176" lon="-102.37817153017278"><ele>1906.6</ele><time>2026-03-22T14:57:19.982Z</time></trkpt><trkpt lat="21.885637366548085" lon="-102.37826257868188"><ele>1907.4</ele><time>2026-03-22T14:57:20.982Z</time></trkpt><trkpt lat="21.885662324068555" lon="-102.37835379066411"><ele>1908.2</ele><time>2026-03-22T14:57:21.982Z</time></trkpt><trkpt lat="21.885687913902732" lon="-102.37845218701737"><ele>1909.0</ele><time>2026-03-22T14:57:22.982Z</time></trkpt><trkpt lat="21.8857122596584" lon="-102.37854553140845"><ele>1909.0</ele><time>2026-03-22T14:57:23.982Z</time></trkpt><trkpt lat="21.88573564502724" lon="-102.37864009450631"><ele>1909.0</ele><time>2026-03-22T14:57:24.982Z</time></trkpt><trkpt lat="21.88575850930519" lon="-102.37873453180106"><ele>1909.0</ele><time>2026-03-22T14:57:25.982Z</time></trkpt><trkpt lat="21.885782046980545" lon="-102.37882762122922"><ele>1909.0</ele><time>2026-03-22T14:57:26.982Z</time></trkpt><trkpt lat="21.885803015948838" lon="-102.37892616144464"><ele>1909.0</ele><time>2026-03-22T14:57:27.982Z</time></trkpt><trkpt lat="21.88582862619952" lon="-102.37902111229111"><ele>1909.5000000000002</ele><time>2026-03-22T14:57:28.982Z</time></trkpt><trkpt lat="21.88585312351062" lon="-102.37910852399486"><ele>1910.0</ele><time>2026-03-22T14:57:29.982Z</time></trkpt><trkpt lat="21.885878994853034" lon="-102.37919535629747"><ele>1910.5</ele><time>2026-03-22T14:57:30.982Z</time></trkpt><trkpt lat="21.885903847466384" lon="-102.37928801678817"><ele>1911.0</ele><time>2026-03-22T14:57:31.982Z</time></trkpt><trkpt lat="21.88592713298763" lon="-102.37938005980574"><ele>1911.5000000000002</ele><time>2026-03-22T14:57:32.982Z</time></trkpt><trkpt lat="21.88595262919514" lon="-102.37947639727442"><ele>1912.0</ele><time>2026-03-22T14:57:33.982Z</time></trkpt><trkpt lat="21.885973965929256" lon="-102.3795672628854"><ele>1912.0000000000002</ele><time>2026-03-22T14:57:34.981Z</time></trkpt><trkpt lat="21.88600054810519" lon="-102.3796587092769"><ele>1912.0</ele><time>2026-03-22T14:57:35.981Z</time></trkpt><trkpt lat="21.886025893491478" lon="-102.37975561700898"><ele>1912.0</ele><time>2026-03-22T14:57:36.981Z</time></trkpt><trkpt lat="21.88604925898253" lon="-102.3798372381343"><ele>1912.0</ele><time>2026-03-22T14:57:37.981Z</time></trkpt><trkpt lat="21.886079286177946" lon="-102.37993082805669"><ele>1912.0000000000002</ele><time>2026-03-22T14:57:38.981Z</time></trkpt><trkpt lat="21.886103708331987" lon="-102.38001920011641"><ele>1912.0</ele><time>2026-03-22T14:57:39.981Z</time></trkpt><trkpt lat="21.886127208584668" lon="-102.38011108049045"><ele>1912.0</ele><time>2026-03-22T14:57:40.981Z</time></trkpt><trkpt lat="21.88615128632213" lon="-102.38020639302792"><ele>1911.9999999999998</ele><time>2026-03-22T14:57:41.981Z</time></trkpt><trkpt lat="21.886174028340328" lon="-102.3802992547007"><ele>1911.9999999999998</ele><time>2026-03-22T14:57:42.981Z</time></trkpt><trkpt lat="21.886200755049877" lon="-102.38040155306756"><ele>1912.0</ele><time>2026-03-22T14:57:43.981Z</time></trkpt><trkpt lat="21.886228250084677" lon="-102.38050430969548"><ele>1912.0</ele><time>2026-03-22T14:57:44.981Z</time></trkpt><trkpt lat="21.886256852967247" lon="-102.38060924518057"><ele>1912.0</ele><time>2026-03-22T14:57:45.981Z</time></trkpt><trkpt lat="21.886284164839687" lon="-102.38071567383369"><ele>1911.9999999999998</ele><time>2026-03-22T14:57:46.981Z</time></trkpt><trkpt lat="21.886312169583086" lon="-102.3808163439245"><ele>1911.9999999999998</ele><time>2026-03-22T14:57:47.981Z</time></trkpt><trkpt lat="21.886339777381103" lon="-102.38091913122611"><ele>1912.0</ele><time>2026-03-22T14:57:48.981Z</time></trkpt><trkpt lat="21.886366715458827" lon="-102.38100989438368"><ele>1912.0</ele><time>2026-03-22T14:57:49.981Z</time></trkpt><trkpt lat="21.88639698890167" lon="-102.38110558375723"><ele>1912.0</ele><time>2026-03-22T14:57:50.981Z</time></trkpt><trkpt lat="21.886425780997648" lon="-102.38120427200285"><ele>1911.9999999999998</ele><time>2026-03-22T14:57:51.981Z</time></trkpt><trkpt lat="21.886450714082166" lon="-102.38130224460843"><ele>1911.9999999999998</ele><time>2026-03-22T14:57:52.981Z</time></trkpt><trkpt lat="21.88647656948703" lon="-102.38140148867"><ele>1912.0</ele><time>2026-03-22T14:57:53.981Z</time></trkpt><trkpt lat="21.88650447980169" lon="-102.38150209933875"><ele>1912.0</ele><time>2026-03-22T14:57:54.981Z</time></trkpt><trkpt lat="21.886534325128743" lon="-102.38159971654956"><ele>1912.0</ele><time>2026-03-22T14:57:55.981Z</time></trkpt><trkpt lat="21.886562308493684" lon="-102.38169605103292"><ele>1911.9999999999998</ele><time>2026-03-22T14:57:56.981Z</time></trkpt><trkpt lat="21.886589535017663" lon="-102.38179351843091"><ele>1911.9999999999998</ele><time>2026-03-22T14:57:57.981Z</time></trkpt><trkpt lat="21.886616072167183" lon="-102.38189335538304"><ele>1912.0</ele><time>2026-03-22T14:57:58.981Z</time></trkpt><trkpt lat="21.886640203434347" lon="-102.38199219219563"><ele>1912.0</ele><time>2026-03-22T14:57:59.981Z</time></trkpt><trkpt lat="21.886667744098588" lon="-102.3820985370135"><ele>1912.3999999999999</ele><time>2026-03-22T14:58:00.981Z</time></trkpt><trkpt lat="21.88669656610187" lon="-102.38218366985427"><ele>1912.7999999999997</ele><time>2026-03-22T14:58:01.981Z</time></trkpt><trkpt lat="21.886725047037142" lon="-102.38228318574045"><ele>1913.2</ele><time>2026-03-22T14:58:02.981Z</time></trkpt><trkpt lat="21.886747611304287" lon="-102.3823835869184"><ele>1913.6</ele><time>2026-03-22T14:58:03.981Z</time></trkpt><trkpt lat="21.88677408012801" lon="-102.38247955782754"><ele>1914.0</ele><time>2026-03-22T14:58:04.981Z</time></trkpt><trkpt lat="21.886796247415983" lon="-102.382583708186"><ele>1914.4</ele><time>2026-03-22T14:58:05.981Z</time></trkpt><trkpt lat="21.886819159493935" lon="-102.38267315311575"><ele>1914.8000000000002</ele><time>2026-03-22T14:58:06.981Z</time></trkpt><trkpt lat="21.88684288861697" lon="-102.38277748995873"><ele>1915.1999999999998</ele><time>2026-03-22T14:58:07.981Z</time></trkpt><trkpt lat="21.88686622431311" lon="-102.38287422218725"><ele>1915.6</ele><time>2026-03-22T14:58:08.981Z</time></trkpt><trkpt lat="21.88689242465687" lon="-102.38297320677037"><ele>1916.0</ele><time>2026-03-22T14:58:09.981Z</time></trkpt><trkpt lat="21.88691667651361" lon="-102.3830633642143"><ele>1916.6</ele><time>2026-03-22T14:58:10.981Z</time></trkpt><trkpt lat="21.886942164588007" lon="-102.3831591691726"><ele>1917.1999999999998</ele><time>2026-03-22T14:58:11.981Z</time></trkpt><trkpt lat="21.88696958988169" lon="-102.38325719337334"><ele>1917.8000000000002</ele><time>2026-03-22T14:58:12.981Z</time></trkpt><trkpt lat="21.886993727264436" lon="-102.3833514760609"><ele>1918.4</ele><time>2026-03-22T14:58:13.981Z</time></trkpt><trkpt lat="21.887020760434453" lon="-102.38344623357553"><ele>1919.0</ele><time>2026-03-22T14:58:14.981Z</time></trkpt><trkpt lat="21.887045838666733" lon="-102.3835442202175"><ele>1919.0</ele><time>2026-03-22T14:58:15.981Z</time></trkpt><trkpt lat="21.88707124337544" lon="-102.38363772568275"><ele>1919.0</ele><time>2026-03-22T14:58:16.981Z</time></trkpt><trkpt lat="21.887096130648754" lon="-102.38373055035446"><ele>1919.0</ele><time>2026-03-22T14:58:17.981Z</time></trkpt><trkpt lat="21.887122536133365" lon="-102.38382617572809"><ele>1919.0</ele><time>2026-03-22T14:58:18.981Z</time></trkpt><trkpt lat="21.88714686296146" lon="-102.38392074414361"><ele>1919.0</ele><time>2026-03-22T14:58:19.981Z</time></trkpt><trkpt lat="21.887175538588174" lon="-102.38401539840615"><ele>1918.3333333333333</ele><time>2026-03-22T14:58:20.981Z</time></trkpt><trkpt lat="21.887202590861165" lon="-102.38410491408187"><ele>1917.6666666666665</ele><time>2026-03-22T14:58:21.981Z</time></trkpt><trkpt lat="21.88722316512387" lon="-102.38419637935856"><ele>1917.0</ele><time>2026-03-22T14:58:22.981Z</time></trkpt><trkpt lat="21.88724352355344" lon="-102.3842845026192"><ele>1916.3333333333335</ele><time>2026-03-22T14:58:23.981Z</time></trkpt><trkpt lat="21.887268532477606" lon="-102.38437752785593"><ele>1915.6666666666667</ele><time>2026-03-22T14:58:24.981Z</time></trkpt><trkpt lat="21.887298326304492" lon="-102.38447227285654"><ele>1915.0</ele><time>2026-03-22T14:58:25.981Z</time></trkpt><trkpt lat="21.88732438838981" lon="-102.3845611794191"><ele>1915.0000000000002</ele><time>2026-03-22T14:58:26.981Z</time></trkpt><trkpt lat="21.88734950614338" lon="-102.38465171895129"><ele>1915.0</ele><time>2026-03-22T14:58:27.981Z</time></trkpt><trkpt lat="21.88737507943453" lon="-102.384745235345"><ele>1915.0</ele><time>2026-03-22T14:58:28.981Z</time></trkpt><trkpt lat="21.887398522920293" lon="-102.38484033550678"><ele>1915.0</ele><time>2026-03-22T14:58:29.981Z</time></trkpt><trkpt lat="21.887423180513125" lon="-102.38493216823802"><ele>1915.0000000000002</ele><time>2026-03-22T14:58:30.981Z</time></trkpt><trkpt lat="21.887448879969476" lon="-102.3850148846738"><ele>1915.0</ele><time>2026-03-22T14:58:31.981Z</time></trkpt><trkpt lat="21.88747016733706" lon="-102.38510529963679"><ele>1915.5000000000002</ele><time>2026-03-22T14:58:32.981Z</time></trkpt><trkpt lat="21.887496874776083" lon="-102.3851928710657"><ele>1916.0</ele><time>2026-03-22T14:58:33.981Z</time></trkpt><trkpt lat="21.887520061048917" lon="-102.38527496631424"><ele>1916.5</ele><time>2026-03-22T14:58:34.981Z</time></trkpt><trkpt lat="21.887543828108093" lon="-102.38535751193915"><ele>1917.0</ele><time>2026-03-22T14:58:35.981Z</time></trkpt><trkpt lat="21.887566758573286" lon="-102.38544806292884"><ele>1917.5000000000002</ele><time>2026-03-22T14:58:36.981Z</time></trkpt><trkpt lat="21.887592455829456" lon="-102.38553018091376"><ele>1918.0</ele><time>2026-03-22T14:58:37.981Z</time></trkpt><trkpt lat="21.887617872985306" lon="-102.38562250238304"><ele>1919.0000000000002</ele><time>2026-03-22T14:58:38.98Z</time></trkpt><trkpt lat="21.887641600477636" lon="-102.38571543876118"><ele>1920.0</ele><time>2026-03-22T14:58:39.98Z</time></trkpt><trkpt lat="21.887668464195688" lon="-102.38580588279548"><ele>1921.0</ele><time>2026-03-22T14:58:40.98Z</time></trkpt><trkpt lat="21.88769317099046" lon="-102.38589441252503"><ele>1922.0</ele><time>2026-03-22T14:58:41.98Z</time></trkpt><trkpt lat="21.887716844552028" lon="-102.38598387733472"><ele>1923.0000000000002</ele><time>2026-03-22T14:58:42.98Z</time></trkpt><trkpt lat="21.887739756807438" lon="-102.38607466381058"><ele>1924.0</ele><time>2026-03-22T14:58:43.98Z</time></trkpt><trkpt lat="21.88776328058608" lon="-102.38616407662528"><ele>1924.0000000000002</ele><time>2026-03-22T14:58:44.98Z</time></trkpt><trkpt lat="21.887790871131866" lon="-102.38625795942538"><ele>1924.0</ele><time>2026-03-22T14:58:45.98Z</time></trkpt><trkpt lat="21.887813026381448" lon="-102.38635068618304"><ele>1924.0</ele><time>2026-03-22T14:58:46.982Z</time></trkpt><trkpt lat="21.887838259265287" lon="-102.3864442520687"><ele>1924.0</ele><time>2026-03-22T14:58:47.982Z</time></trkpt><trkpt lat="21.887862945819194" lon="-102.38653673543318"><ele>1924.0000000000002</ele><time>2026-03-22T14:58:48.982Z</time></trkpt><trkpt lat="21.887890517267472" lon="-102.38662819951074"><ele>1924.0</ele><time>2026-03-22T14:58:49.981Z</time></trkpt><trkpt lat="21.88791855814036" lon="-102.38672417549962"><ele>1924.0</ele><time>2026-03-22T14:58:50.982Z</time></trkpt><trkpt lat="21.88794611255892" lon="-102.38681737308362"><ele>1924.0</ele><time>2026-03-22T14:58:51.982Z</time></trkpt><trkpt lat="21.887974159793455" lon="-102.38691420806677"><ele>1924.0</ele><time>2026-03-22T14:58:52.982Z</time></trkpt><trkpt lat="21.88800054000879" lon="-102.38701197883532"><ele>1924.0</ele><time>2026-03-22T14:58:53.981Z</time></trkpt><trkpt lat="21.888026381785856" lon="-102.38710912231127"><ele>1924.0</ele><time>2026-03-22T14:58:54.981Z</time></trkpt><trkpt lat="21.88805076142703" lon="-102.38720956463163"><ele>1924.0</ele><time>2026-03-22T14:58:55.981Z</time></trkpt><trkpt lat="21.88807198330396" lon="-102.387302814666"><ele>1924.0</ele><time>2026-03-22T14:58:56.982Z</time></trkpt><trkpt lat="21.88809346013886" lon="-102.38739854167031"><ele>1924.0</ele><time>2026-03-22T14:58:57.982Z</time></trkpt><trkpt lat="21.888119124128043" lon="-102.3874979724789"><ele>1924.0</ele><time>2026-03-22T14:58:58.982Z</time></trkpt><trkpt lat="21.888140239012323" lon="-102.38758830913541"><ele>1924.0</ele><time>2026-03-22T14:58:59.982Z</time></trkpt><trkpt lat="21.888166636974272" lon="-102.38768003078235"><ele>1924.0</ele><time>2026-03-22T14:59:00.982Z</time></trkpt><trkpt lat="21.888190512877436" lon="-102.3877837475757"><ele>1924.0</ele><time>2026-03-22T14:59:01.982Z</time></trkpt><trkpt lat="21.88821496655678" lon="-102.3878862640725"><ele>1924.0</ele><time>2026-03-22T14:59:02.982Z</time></trkpt><trkpt lat="21.888239840083624" lon="-102.38798897147396"><ele>1924.0</ele><time>2026-03-22T14:59:03.981Z</time></trkpt><trkpt lat="21.88826919391168" lon="-102.3880956224339"><ele>1924.0</ele><time>2026-03-22T14:59:04.981Z</time></trkpt><trkpt lat="21.888297451406366" lon="-102.38820047098588"><ele>1924.2</ele><time>2026-03-22T14:59:05.981Z</time></trkpt><trkpt lat="21.88832755311592" lon="-102.3883031433687"><ele>1924.4</ele><time>2026-03-22T14:59:06.981Z</time></trkpt><trkpt lat="21.888354906323894" lon="-102.38840239099912"><ele>1924.6</ele><time>2026-03-22T14:59:07.981Z</time></trkpt><trkpt lat="21.888379614869063" lon="-102.38850543511866"><ele>1924.8</ele><time>2026-03-22T14:59:08.981Z</time></trkpt><trkpt lat="21.88840536463976" lon="-102.38860925955605"><ele>1925.0</ele><time>2026-03-22T14:59:09.981Z</time></trkpt><trkpt lat="21.888432676837763" lon="-102.3887126408768"><ele>1924.4</ele><time>2026-03-22T14:59:10.981Z</time></trkpt><trkpt lat="21.888461090364505" lon="-102.3888149713203"><ele>1923.8</ele><time>2026-03-22T14:59:11.981Z</time></trkpt><trkpt lat="21.888486021285214" lon="-102.38891695345848"><ele>1923.1999999999998</ele><time>2026-03-22T14:59:12.981Z</time></trkpt><trkpt lat="21.88851403145533" lon="-102.38902584163479"><ele>1922.6</ele><time>2026-03-22T14:59:13.981Z</time></trkpt><trkpt lat="21.888538195731776" lon="-102.389137552318"><ele>1922.0</ele><time>2026-03-22T14:59:14.981Z</time></trkpt><trkpt lat="21.888565415307298" lon="-102.3892495313615"><ele>1922.0</ele><time>2026-03-22T14:59:15.981Z</time></trkpt><trkpt lat="21.888597787517078" lon="-102.38935681228477"><ele>1921.9999999999998</ele><time>2026-03-22T14:59:16.981Z</time></trkpt><trkpt lat="21.888635515862592" lon="-102.38946249045662"><ele>1921.9999999999998</ele><time>2026-03-22T14:59:17.981Z</time></trkpt><trkpt lat="21.888665009558984" lon="-102.38956987371625"><ele>1922.0</ele><time>2026-03-22T14:59:18.981Z</time></trkpt><trkpt lat="21.88869554616256" lon="-102.38967642584394"><ele>1922.0</ele><time>2026-03-22T14:59:19.981Z</time></trkpt><trkpt lat="21.888722952542267" lon="-102.38978358936552"><ele>1922.1999999999998</ele><time>2026-03-22T14:59:20.981Z</time></trkpt><trkpt lat="21.88874941408282" lon="-102.38989176567434"><ele>1922.3999999999999</ele><time>2026-03-22T14:59:21.981Z</time></trkpt><trkpt lat="21.8887794991755" lon="-102.38999755266329"><ele>1922.6000000000001</ele><time>2026-03-22T14:59:22.981Z</time></trkpt><trkpt lat="21.88880904601104" lon="-102.39010598827892"><ele>1922.8000000000002</ele><time>2026-03-22T14:59:23.981Z</time></trkpt><trkpt lat="21.88883374057125" lon="-102.39020810866374"><ele>1923.0</ele><time>2026-03-22T14:59:24.981Z</time></trkpt><trkpt lat="21.888859119184236" lon="-102.39031634722429"><ele>1923.0</ele><time>2026-03-22T14:59:25.981Z</time></trkpt><trkpt lat="21.888883077671572" lon="-102.39041725487422"><ele>1923.0000000000002</ele><time>2026-03-22T14:59:26.981Z</time></trkpt><trkpt lat="21.888907693376918" lon="-102.39051710286475"><ele>1923.0000000000002</ele><time>2026-03-22T14:59:27.981Z</time></trkpt><trkpt lat="21.88893591410264" lon="-102.39061882654487"><ele>1923.0</ele><time>2026-03-22T14:59:28.981Z</time></trkpt><trkpt lat="21.888965130556077" lon="-102.39071568515537"><ele>1923.0</ele><time>2026-03-22T14:59:29.981Z</time></trkpt><trkpt lat="21.888992662094786" lon="-102.39081143331339"><ele>1923.4</ele><time>2026-03-22T14:59:30.981Z</time></trkpt><trkpt lat="21.889019274372146" lon="-102.39090858716982"><ele>1923.8000000000002</ele><time>2026-03-22T14:59:31.981Z</time></trkpt><trkpt lat="21.889044572608515" lon="-102.39100124484249"><ele>1924.2</ele><time>2026-03-22T14:59:32.981Z</time></trkpt><trkpt lat="21.88907038998849" lon="-102.39109825248906"><ele>1924.6</ele><time>2026-03-22T14:59:33.981Z</time></trkpt><trkpt lat="21.889098108384513" lon="-102.39119803659895"><ele>1925.0</ele><time>2026-03-22T14:59:34.981Z</time></trkpt><trkpt lat="21.889126351871777" lon="-102.39130009619322"><ele>1925.2</ele><time>2026-03-22T14:59:35.981Z</time></trkpt><trkpt lat="21.88915227348903" lon="-102.39139609369842"><ele>1925.4</ele><time>2026-03-22T14:59:36.981Z</time></trkpt><trkpt lat="21.889180527941946" lon="-102.3914980206802"><ele>1925.6</ele><time>2026-03-22T14:59:37.981Z</time></trkpt><trkpt lat="21.88920655509944" lon="-102.39160211505433"><ele>1925.8</ele><time>2026-03-22T14:59:38.981Z</time></trkpt><trkpt lat="21.889234715691686" lon="-102.391696996663"><ele>1926.0</ele><time>2026-03-22T14:59:39.981Z</time></trkpt><trkpt lat="21.88926378737812" lon="-102.39179603831941"><ele>1926.0</ele><time>2026-03-22T14:59:40.981Z</time></trkpt><trkpt lat="21.88929188112839" lon="-102.3918953817084"><ele>1926.0</ele><time>2026-03-22T14:59:41.981Z</time></trkpt><trkpt lat="21.88931908743178" lon="-102.39199833013139"><ele>1926.0</ele><time>2026-03-22T14:59:42.981Z</time></trkpt><trkpt lat="21.889343918543325" lon="-102.39209304993724"><ele>1926.0</ele><time>2026-03-22T14:59:43.981Z</time></trkpt><trkpt lat="21.88937298920469" lon="-102.39218999388241"><ele>1926.0</ele><time>2026-03-22T14:59:44.981Z</time></trkpt><trkpt lat="21.889398662415598" lon="-102.39229030997797"><ele>1926.1999999999998</ele><time>2026-03-22T14:59:45.981Z</time></trkpt><trkpt lat="21.889424189249237" lon="-102.39238578078668"><ele>1926.3999999999999</ele><time>2026-03-22T14:59:46.981Z</time></trkpt><trkpt lat="21.889451214890016" lon="-102.39248168880245"><ele>1926.6</ele><time>2026-03-22T14:59:47.981Z</time></trkpt><trkpt lat="21.889474585599515" lon="-102.39257426498948"><ele>1926.8</ele><time>2026-03-22T14:59:48.981Z</time></trkpt><trkpt lat="21.8894980471626" lon="-102.39267238749224"><ele>1927.0</ele><time>2026-03-22T14:59:49.981Z</time></trkpt><trkpt lat="21.889523861120495" lon="-102.39276816161782"><ele>1927.0</ele><time>2026-03-22T14:59:50.981Z</time></trkpt><trkpt lat="21.889550612795652" lon="-102.39286487335055"><ele>1926.9999999999998</ele><time>2026-03-22T14:59:51.981Z</time></trkpt><trkpt lat="21.889575701357494" lon="-102.39295224838413"><ele>1926.9999999999998</ele><time>2026-03-22T14:59:52.981Z</time></trkpt><trkpt lat="21.889603526769964" lon="-102.3930553521868"><ele>1927.0</ele><time>2026-03-22T14:59:53.981Z</time></trkpt><trkpt lat="21.889629048294463" lon="-102.39315198771054"><ele>1927.0</ele><time>2026-03-22T14:59:54.981Z</time></trkpt><trkpt lat="21.889656420726507" lon="-102.39324788252492"><ele>1927.6</ele><time>2026-03-22T14:59:55.981Z</time></trkpt><trkpt lat="21.88967894115095" lon="-102.39334233565576"><ele>1928.1999999999998</ele><time>2026-03-22T14:59:56.981Z</time></trkpt><trkpt lat="21.88970308043727" lon="-102.39343864864013"><ele>1928.8</ele><time>2026-03-22T14:59:57.981Z</time></trkpt><trkpt lat="21.88972876273923" lon="-102.39354240628045"><ele>1929.4</ele><time>2026-03-22T14:59:58.981Z</time></trkpt><trkpt lat="21.889760866063416" lon="-102.39364225645896"><ele>1930.0</ele><time>2026-03-22T14:59:59.981Z</time></trkpt><trkpt lat="21.889787532392894" lon="-102.3937448844619"><ele>1930.0</ele><time>2026-03-22T15:00:00.981Z</time></trkpt><trkpt lat="21.889813677333244" lon="-102.39384602431053"><ele>1930.0</ele><time>2026-03-22T15:00:01.981Z</time></trkpt><trkpt lat="21.889840382726078" lon="-102.3939564813478"><ele>1930.0</ele><time>2026-03-22T15:00:02.981Z</time></trkpt><trkpt lat="21.889869448093062" lon="-102.39406672590194"><ele>1930.0</ele><time>2026-03-22T15:00:03.981Z</time></trkpt><trkpt lat="21.88990009824791" lon="-102.39417706808193"><ele>1930.0</ele><time>2026-03-22T15:00:04.981Z</time></trkpt><trkpt lat="21.8899314828524" lon="-102.39428948844814"><ele>1930.0</ele><time>2026-03-22T15:00:05.981Z</time></trkpt><trkpt lat="21.889961785742482" lon="-102.39440693777969"><ele>1930.0</ele><time>2026-03-22T15:00:06.981Z</time></trkpt><trkpt lat="21.88998842180425" lon="-102.39451510369142"><ele>1930.0</ele><time>2026-03-22T15:00:07.98Z</time></trkpt><trkpt lat="21.89001585481551" lon="-102.39462258833984"><ele>1930.0</ele><time>2026-03-22T15:00:08.98Z</time></trkpt><trkpt lat="21.890047556551146" lon="-102.39474166941444"><ele>1930.0</ele><time>2026-03-22T15:00:09.98Z</time></trkpt><trkpt lat="21.890078652353264" lon="-102.3948583110367"><ele>1927.5</ele><time>2026-03-22T15:00:10.98Z</time></trkpt><trkpt lat="21.89011268906831" lon="-102.39497829912881"><ele>1925.0</ele><time>2026-03-22T15:00:11.98Z</time></trkpt><trkpt lat="21.89014679099301" lon="-102.39509908392253"><ele>1922.5</ele><time>2026-03-22T15:00:12.98Z</time></trkpt><trkpt lat="21.890182267265764" lon="-102.39522563574832"><ele>1920.0</ele><time>2026-03-22T15:00:13.98Z</time></trkpt><trkpt lat="21.89021709959297" lon="-102.39535544633566"><ele>1920.0</ele><time>2026-03-22T15:00:14.98Z</time></trkpt><trkpt lat="21.890251192710515" lon="-102.3954864002302"><ele>1920.0</ele><time>2026-03-22T15:00:15.98Z</time></trkpt><trkpt lat="21.890285979782565" lon="-102.39561785617117"><ele>1920.0</ele><time>2026-03-22T15:00:16.98Z</time></trkpt><trkpt lat="21.890319774696845" lon="-102.39575374156117"><ele>1920.0</ele><time>2026-03-22T15:00:17.98Z</time></trkpt><trkpt lat="21.890355307805244" lon="-102.39588745279104"><ele>1919.75</ele><time>2026-03-22T15:00:18.98Z</time></trkpt><trkpt lat="21.890388867944882" lon="-102.39602624115476"><ele>1919.5</ele><time>2026-03-22T15:00:19.98Z</time></trkpt><trkpt lat="21.890424272321688" lon="-102.39616163017811"><ele>1919.25</ele><time>2026-03-22T15:00:20.98Z</time></trkpt><trkpt lat="21.89046063891455" lon="-102.39629783439244"><ele>1919.0</ele><time>2026-03-22T15:00:21.98Z</time></trkpt><trkpt lat="21.89049561520001" lon="-102.39643191408565"><ele>1919.75</ele><time>2026-03-22T15:00:22.98Z</time></trkpt><trkpt lat="21.89052909370209" lon="-102.39656953905761"><ele>1920.5</ele><time>2026-03-22T15:00:23.98Z</time></trkpt><trkpt lat="21.89056504598487" lon="-102.39670171643633"><ele>1921.25</ele><time>2026-03-22T15:00:24.98Z</time></trkpt><trkpt lat="21.89060028137181" lon="-102.39683417996721"><ele>1922.0</ele><time>2026-03-22T15:00:25.98Z</time></trkpt><trkpt lat="21.890634686439988" lon="-102.39696652831695"><ele>1922.0</ele><time>2026-03-22T15:00:26.98Z</time></trkpt><trkpt lat="21.890666876097196" lon="-102.39708729015601"><ele>1922.0</ele><time>2026-03-22T15:00:27.98Z</time></trkpt><trkpt lat="21.890703292081618" lon="-102.39721722647059"><ele>1922.0</ele><time>2026-03-22T15:00:28.98Z</time></trkpt><trkpt lat="21.890742161221052" lon="-102.3973474647336"><ele>1922.0</ele><time>2026-03-22T15:00:29.98Z</time></trkpt><trkpt lat="21.890775051056103" lon="-102.39747864270771"><ele>1923.5</ele><time>2026-03-22T15:00:30.98Z</time></trkpt><trkpt lat="21.890811679766298" lon="-102.39760726934318"><ele>1925.0</ele><time>2026-03-22T15:00:31.98Z</time></trkpt><trkpt lat="21.890849775631636" lon="-102.39772810229103"><ele>1926.5</ele><time>2026-03-22T15:00:32.98Z</time></trkpt><trkpt lat="21.890884939970064" lon="-102.3978641482209"><ele>1928.0</ele><time>2026-03-22T15:00:33.98Z</time></trkpt><trkpt lat="21.890916152326138" lon="-102.39799188861011"><ele>1926.75</ele><time>2026-03-22T15:00:34.98Z</time></trkpt><trkpt lat="21.89094925979065" lon="-102.39812034552622"><ele>1925.5</ele><time>2026-03-22T15:00:35.98Z</time></trkpt><trkpt lat="21.89098140685058" lon="-102.39825551611293"><ele>1924.25</ele><time>2026-03-22T15:00:36.98Z</time></trkpt><trkpt lat="21.891015649195136" lon="-102.39838064868911"><ele>1923.0</ele><time>2026-03-22T15:00:37.98Z</time></trkpt><trkpt lat="21.891054641180588" lon="-102.39851672436214"><ele>1923.0</ele><time>2026-03-22T15:00:38.98Z</time></trkpt><trkpt lat="21.89109178474261" lon="-102.39865132750903"><ele>1923.0</ele><time>2026-03-22T15:00:39.98Z</time></trkpt><trkpt lat="21.891125138315363" lon="-102.39877737336114"><ele>1923.0</ele><time>2026-03-22T15:00:40.98Z</time></trkpt><trkpt lat="21.89115541186968" lon="-102.39890227408335"><ele>1923.0</ele><time>2026-03-22T15:00:41.98Z</time></trkpt><trkpt lat="21.891188487236274" lon="-102.39901654794988"><ele>1924.25</ele><time>2026-03-22T15:00:42.98Z</time></trkpt><trkpt lat="21.891228672878633" lon="-102.3991343387833"><ele>1925.5</ele><time>2026-03-22T15:00:43.98Z</time></trkpt><trkpt lat="21.891255398749774" lon="-102.39925924554072"><ele>1926.75</ele><time>2026-03-22T15:00:44.98Z</time></trkpt><trkpt lat="21.891287564602774" lon="-102.39937390859188"><ele>1928.0</ele><time>2026-03-22T15:00:45.98Z</time></trkpt><trkpt lat="21.891316922327814" lon="-102.39948126878942"><ele>1928.0</ele><time>2026-03-22T15:00:46.98Z</time></trkpt><trkpt lat="21.89135111040719" lon="-102.39957637232811"><ele>1928.0000000000002</ele><time>2026-03-22T15:00:47.98Z</time></trkpt><trkpt lat="21.89138295981213" lon="-102.39967364693777"><ele>1928.0000000000002</ele><time>2026-03-22T15:00:48.98Z</time></trkpt><trkpt lat="21.89140695043026" lon="-102.39977089362193"><ele>1928.0</ele><time>2026-03-22T15:00:49.98Z</time></trkpt><trkpt lat="21.891431182127473" lon="-102.39985653666353"><ele>1928.0</ele><time>2026-03-22T15:00:50.98Z</time></trkpt><trkpt lat="21.89145016440191" lon="-102.39994885506115"><ele>1928.4999999999998</ele><time>2026-03-22T15:00:51.98Z</time></trkpt><trkpt lat="21.891472328230996" lon="-102.40003456961433"><ele>1929.0</ele><time>2026-03-22T15:00:52.981Z</time></trkpt><trkpt lat="21.8914977916134" lon="-102.40011562379648"><ele>1929.5</ele><time>2026-03-22T15:00:53.981Z</time></trkpt><trkpt lat="21.89152031971995" lon="-102.40019218848367"><ele>1930.0</ele><time>2026-03-22T15:00:54.981Z</time></trkpt><trkpt lat="21.891539009974927" lon="-102.40026363104522"><ele>1930.4999999999998</ele><time>2026-03-22T15:00:55.981Z</time></trkpt><trkpt lat="21.891556528420146" lon="-102.40033241817538"><ele>1931.0</ele><time>2026-03-22T15:00:56.98Z</time></trkpt><trkpt lat="21.89159246197419" lon="-102.40045791805893"><ele>1931.75</ele><time>2026-03-22T15:00:58.981Z</time></trkpt><trkpt lat="21.891627218845283" lon="-102.40058187091192"><ele>1932.5</ele><time>2026-03-22T15:01:00.981Z</time></trkpt><trkpt lat="21.8916628682846" lon="-102.40070516875299"><ele>1933.25</ele><time>2026-03-22T15:01:02.981Z</time></trkpt><trkpt lat="21.89168956633383" lon="-102.40083045827956"><ele>1934.0</ele><time>2026-03-22T15:01:04.981Z</time></trkpt><trkpt lat="21.89172244569029" lon="-102.40095196242684"><ele>1934.4</ele><time>2026-03-22T15:01:06.981Z</time></trkpt><trkpt lat="21.891758402969828" lon="-102.40107186882167"><ele>1934.8000000000002</ele><time>2026-03-22T15:01:08.981Z</time></trkpt><trkpt lat="21.89179132985954" lon="-102.40118384987441"><ele>1935.1999999999998</ele><time>2026-03-22T15:01:10.981Z</time></trkpt><trkpt lat="21.89182039736909" lon="-102.40130204084556"><ele>1935.6</ele><time>2026-03-22T15:01:12.981Z</time></trkpt><trkpt lat="21.89185182847201" lon="-102.40140522177713"><ele>1936.0</ele><time>2026-03-22T15:01:14.981Z</time></trkpt><trkpt lat="21.891875690710798" lon="-102.40147181329068"><ele>1937.8333333333335</ele><time>2026-03-22T15:01:18.981Z</time></trkpt><trkpt lat="21.891913445310724" lon="-102.40155882198539"><ele>1939.6666666666667</ele><time>2026-03-22T15:01:21.981Z</time></trkpt><trkpt lat="21.891923314708727" lon="-102.4016304677638"><ele>1941.5</ele><time>2026-03-22T15:01:23.981Z</time></trkpt><trkpt lat="21.891949831519604" lon="-102.40171505866219"><ele>1943.3333333333335</ele><time>2026-03-22T15:01:25.981Z</time></trkpt><trkpt lat="21.891979146966168" lon="-102.40179916421667"><ele>1945.1666666666667</ele><time>2026-03-22T15:01:27.981Z</time></trkpt><trkpt lat="21.8920032497312" lon="-102.40188916166362"><ele>1947.0</ele><time>2026-03-22T15:01:29.981Z</time></trkpt><trkpt lat="21.892026171971565" lon="-102.40198541075965"><ele>1947.0</ele><time>2026-03-22T15:01:31.981Z</time></trkpt><trkpt lat="21.89205128768958" lon="-102.40207405185144"><ele>1947.0</ele><time>2026-03-22T15:01:33.981Z</time></trkpt><trkpt lat="21.892076271028195" lon="-102.40216320612414"><ele>1947.0</ele><time>2026-03-22T15:01:35.981Z</time></trkpt><trkpt lat="21.892104810720504" lon="-102.40225793138117"><ele>1947.0</ele><time>2026-03-22T15:01:37.981Z</time></trkpt><trkpt lat="21.89212622376387" lon="-102.40235779703632"><ele>1947.0</ele><time>2026-03-22T15:01:39.981Z</time></trkpt><trkpt lat="21.89214280787476" lon="-102.40243620121952"><ele>1947.0</ele><time>2026-03-22T15:01:41.981Z</time></trkpt><trkpt lat="21.89216158104631" lon="-102.40251170991448"><ele>1948.0</ele><time>2026-03-22T15:01:43.981Z</time></trkpt><trkpt lat="21.89218360360554" lon="-102.40259182834448"><ele>1949.0</ele><time>2026-03-22T15:01:45.98Z</time></trkpt><trkpt lat="21.89220350028145" lon="-102.40267589428592"><ele>1950.0</ele><time>2026-03-22T15:01:47.98Z</time></trkpt><trkpt lat="21.892224756697736" lon="-102.40276565717018"><ele>1951.0</ele><time>2026-03-22T15:01:49.98Z</time></trkpt><trkpt lat="21.892242298420598" lon="-102.40283404792889"><ele>1952.0</ele><time>2026-03-22T15:01:50.98Z</time></trkpt><trkpt lat="21.89227022191837" lon="-102.40293893922797"><ele>1953.0</ele><time>2026-03-22T15:01:52.98Z</time></trkpt><trkpt lat="21.892286662445947" lon="-102.40303843461571"><ele>1953.4</ele><time>2026-03-22T15:01:53.98Z</time></trkpt><trkpt lat="21.89230607906202" lon="-102.40314684253414"><ele>1953.8000000000002</ele><time>2026-03-22T15:01:54.98Z</time></trkpt><trkpt lat="21.892324021319297" lon="-102.40323475342171"><ele>1954.2</ele><time>2026-03-22T15:01:55.98Z</time></trkpt><trkpt lat="21.892348402912347" lon="-102.40332453430614"><ele>1954.6</ele><time>2026-03-22T15:01:56.98Z</time></trkpt><trkpt lat="21.892370191684385" lon="-102.40342393236361"><ele>1955.0</ele><time>2026-03-22T15:01:57.98Z</time></trkpt><trkpt lat="21.892393799964637" lon="-102.40351765943454"><ele>1954.9999999999998</ele><time>2026-03-22T15:01:58.98Z</time></trkpt><trkpt lat="21.892419148777424" lon="-102.40362596113563"><ele>1955.0</ele><time>2026-03-22T15:01:59.98Z</time></trkpt><trkpt lat="21.89244343290027" lon="-102.40371582298468"><ele>1955.0</ele><time>2026-03-22T15:02:00.98Z</time></trkpt><trkpt lat="21.89246454729534" lon="-102.4038000392777"><ele>1955.0</ele><time>2026-03-22T15:02:01.98Z</time></trkpt><trkpt lat="21.892484677334096" lon="-102.40388853133928"><ele>1954.9999999999998</ele><time>2026-03-22T15:02:02.98Z</time></trkpt><trkpt lat="21.892506773621232" lon="-102.40396943599923"><ele>1955.0</ele><time>2026-03-22T15:02:03.98Z</time></trkpt><trkpt lat="21.89253082080467" lon="-102.40404891143233"><ele>1954.6666666666665</ele><time>2026-03-22T15:02:04.98Z</time></trkpt><trkpt lat="21.892548894681667" lon="-102.40412356240945"><ele>1954.3333333333333</ele><time>2026-03-22T15:02:05.98Z</time></trkpt><trkpt lat="21.892566464408084" lon="-102.40419581877607"><ele>1954.0</ele><time>2026-03-22T15:02:06.98Z</time></trkpt><trkpt lat="21.892593833292977" lon="-102.40430709739334"><ele>1953.6666666666665</ele><time>2026-03-22T15:02:07.98Z</time></trkpt><trkpt lat="21.89261882286013" lon="-102.40439984274254"><ele>1953.3333333333333</ele><time>2026-03-22T15:02:08.98Z</time></trkpt><trkpt lat="21.8926402871322" lon="-102.40449370437793"><ele>1953.0</ele><time>2026-03-22T15:02:09.98Z</time></trkpt><trkpt lat="21.892657494263428" lon="-102.40457100004132"><ele>1954.8000000000002</ele><time>2026-03-22T15:02:10.98Z</time></trkpt><trkpt lat="21.89267957643098" lon="-102.40465073218311"><ele>1956.6000000000001</ele><time>2026-03-22T15:02:11.98Z</time></trkpt><trkpt lat="21.892716340083265" lon="-102.40478815598837"><ele>1958.3999999999999</ele><time>2026-03-22T15:02:13.98Z</time></trkpt><trkpt lat="21.8927511368839" lon="-102.40490867571955"><ele>1960.1999999999998</ele><time>2026-03-22T15:02:15.98Z</time></trkpt><trkpt lat="21.89277034713278" lon="-102.40497652067269"><ele>1962.0</ele><time>2026-03-22T15:02:16.98Z</time></trkpt><trkpt lat="21.892812221405126" lon="-102.40510508871776"><ele>1962.25</ele><time>2026-03-22T15:02:18.98Z</time></trkpt><trkpt lat="21.892844989102866" lon="-102.40522309917401"><ele>1962.5</ele><time>2026-03-22T15:02:20.98Z</time></trkpt><trkpt lat="21.89287345605932" lon="-102.40534078737548"><ele>1962.75</ele><time>2026-03-22T15:02:22.98Z</time></trkpt><trkpt lat="21.892905121536437" lon="-102.40546583261235"><ele>1963.0</ele><time>2026-03-22T15:02:24.98Z</time></trkpt><trkpt lat="21.89293649995933" lon="-102.40559237767583"><ele>1963.0000000000002</ele><time>2026-03-22T15:02:26.98Z</time></trkpt><trkpt lat="21.892969992714708" lon="-102.4057085484605"><ele>1963.0</ele><time>2026-03-22T15:02:28.98Z</time></trkpt><trkpt lat="21.892991659956014" lon="-102.40577272184525"><ele>1963.0</ele><time>2026-03-22T15:02:29.98Z</time></trkpt><trkpt lat="21.893008575774076" lon="-102.40583961040646"><ele>1963.0</ele><time>2026-03-22T15:02:30.98Z</time></trkpt><trkpt lat="21.89302938747776" lon="-102.40590510517166"><ele>1963.0000000000002</ele><time>2026-03-22T15:02:31.98Z</time></trkpt><trkpt lat="21.89306380819171" lon="-102.40601774063812"><ele>1963.0</ele><time>2026-03-22T15:02:33.98Z</time></trkpt><trkpt lat="21.893080254148895" lon="-102.4060834197585"><ele>1963.0</ele><time>2026-03-22T15:02:34.98Z</time></trkpt><trkpt lat="21.89312115587287" lon="-102.40620412817754"><ele>1963.0000000000002</ele><time>2026-03-22T15:02:36.98Z</time></trkpt><trkpt lat="21.893161157785453" lon="-102.40633148385355"><ele>1963.0000000000002</ele><time>2026-03-22T15:02:38.98Z</time></trkpt><trkpt lat="21.89319841437053" lon="-102.40645394498323"><ele>1963.0</ele><time>2026-03-22T15:02:40.98Z</time></trkpt><trkpt lat="21.893216833519055" lon="-102.4065232192044"><ele>1963.0</ele><time>2026-03-22T15:02:41.98Z</time></trkpt><trkpt lat="21.893239591073204" lon="-102.40659394286659"><ele>1963.4</ele><time>2026-03-22T15:02:42.98Z</time></trkpt><trkpt lat="21.893276902716153" lon="-102.40671791837231"><ele>1963.8000000000002</ele><time>2026-03-22T15:02:44.98Z</time></trkpt><trkpt lat="21.893297657333814" lon="-102.4067901258961"><ele>1964.2</ele><time>2026-03-22T15:02:45.98Z</time></trkpt><trkpt lat="21.89333436162621" lon="-102.40692769177451"><ele>1964.6</ele><time>2026-03-22T15:02:47.98Z</time></trkpt><trkpt lat="21.893380114419656" lon="-102.40705217985918"><ele>1965.0</ele><time>2026-03-22T15:02:49.979Z</time></trkpt><trkpt lat="21.89339851638554" lon="-102.40711770430833"><ele>1964.0</ele><time>2026-03-22T15:02:50.979Z</time></trkpt><trkpt lat="21.89343951879162" lon="-102.40725767253686"><ele>1963.0</ele><time>2026-03-22T15:02:52.979Z</time></trkpt><trkpt lat="21.893451893631017" lon="-102.40733401877395"><ele>1962.0</ele><time>2026-03-22T15:02:53.979Z</time></trkpt><trkpt lat="21.893468654441186" lon="-102.40741443999549"><ele>1961.0</ele><time>2026-03-22T15:02:54.979Z</time></trkpt><trkpt lat="21.893489162311443" lon="-102.4074921788059"><ele>1960.0</ele><time>2026-03-22T15:02:55.979Z</time></trkpt><trkpt lat="21.893507916303395" lon="-102.40756936664411"><ele>1959.0</ele><time>2026-03-22T15:02:56.979Z</time></trkpt><trkpt lat="21.893527584127664" lon="-102.40764747586483"><ele>1959.0</ele><time>2026-03-22T15:02:57.979Z</time></trkpt><trkpt lat="21.893546413773013" lon="-102.40772671285389"><ele>1959.0</ele><time>2026-03-22T15:02:58.98Z</time></trkpt><trkpt lat="21.8935660950509" lon="-102.40781116199965"><ele>1959.0</ele><time>2026-03-22T15:02:59.98Z</time></trkpt><trkpt lat="21.893593739032276" lon="-102.40789152352018"><ele>1959.0</ele><time>2026-03-22T15:03:00.98Z</time></trkpt><trkpt lat="21.893617025874295" lon="-102.40797953766624"><ele>1959.0</ele><time>2026-03-22T15:03:01.981Z</time></trkpt><trkpt lat="21.89363358882722" lon="-102.40806033875165"><ele>1959.0</ele><time>2026-03-22T15:03:02.98Z</time></trkpt><trkpt lat="21.893661835735426" lon="-102.40815303235382"><ele>1959.8333333333333</ele><time>2026-03-22T15:03:03.98Z</time></trkpt><trkpt lat="21.893672904766397" lon="-102.408232025076"><ele>1960.6666666666665</ele><time>2026-03-22T15:03:04.981Z</time></trkpt><trkpt lat="21.893698636119293" lon="-102.40831507525724"><ele>1961.5</ele><time>2026-03-22T15:03:05.98Z</time></trkpt><trkpt lat="21.893719432291395" lon="-102.40840202113296"><ele>1962.3333333333333</ele><time>2026-03-22T15:03:06.98Z</time></trkpt><trkpt lat="21.8937459477276" lon="-102.40849673216142"><ele>1963.1666666666665</ele><time>2026-03-22T15:03:07.98Z</time></trkpt><trkpt lat="21.893764708514514" lon="-102.40857220388159"><ele>1964.0</ele><time>2026-03-22T15:03:08.98Z</time></trkpt><trkpt lat="21.893792679222962" lon="-102.40865421013845"><ele>1963.9999999999998</ele><time>2026-03-22T15:03:09.98Z</time></trkpt><trkpt lat="21.893808729125364" lon="-102.40874560832818"><ele>1964.0</ele><time>2026-03-22T15:03:10.98Z</time></trkpt><trkpt lat="21.893838980348633" lon="-102.40883496342063"><ele>1964.0</ele><time>2026-03-22T15:03:11.981Z</time></trkpt><trkpt lat="21.89385969300259" lon="-102.40892593611454"><ele>1964.0</ele><time>2026-03-22T15:03:12.98Z</time></trkpt><trkpt lat="21.893886125086116" lon="-102.40902164425604"><ele>1963.9999999999998</ele><time>2026-03-22T15:03:13.98Z</time></trkpt><trkpt lat="21.89391506683973" lon="-102.4091099856388"><ele>1964.0</ele><time>2026-03-22T15:03:14.98Z</time></trkpt><trkpt lat="21.893939222634966" lon="-102.40919776353769"><ele>1964.1666666666665</ele><time>2026-03-22T15:03:15.98Z</time></trkpt><trkpt lat="21.893968204852843" lon="-102.40928327502782"><ele>1964.3333333333333</ele><time>2026-03-22T15:03:16.98Z</time></trkpt><trkpt lat="21.89398842151314" lon="-102.4093703249096"><ele>1964.5</ele><time>2026-03-22T15:03:17.98Z</time></trkpt><trkpt lat="21.894012986355357" lon="-102.40946241438185"><ele>1964.6666666666665</ele><time>2026-03-22T15:03:18.98Z</time></trkpt><trkpt lat="21.894038719944877" lon="-102.40955742081148"><ele>1964.8333333333333</ele><time>2026-03-22T15:03:19.98Z</time></trkpt><trkpt lat="21.89405662259259" lon="-102.4096401427764"><ele>1965.0</ele><time>2026-03-22T15:03:20.98Z</time></trkpt><trkpt lat="21.894082013713668" lon="-102.40972567661538"><ele>1965.1666666666667</ele><time>2026-03-22T15:03:21.98Z</time></trkpt><trkpt lat="21.894103880868357" lon="-102.4098008375797"><ele>1965.3333333333335</ele><time>2026-03-22T15:03:22.98Z</time></trkpt><trkpt lat="21.89413135113281" lon="-102.40989902493389"><ele>1965.5</ele><time>2026-03-22T15:03:23.98Z</time></trkpt><trkpt lat="21.894156019494666" lon="-102.40998750028345"><ele>1965.6666666666667</ele><time>2026-03-22T15:03:24.98Z</time></trkpt><trkpt lat="21.894179205147164" lon="-102.41008574867236"><ele>1965.8333333333335</ele><time>2026-03-22T15:03:25.98Z</time></trkpt><trkpt lat="21.894199366210263" lon="-102.41017654572484"><ele>1966.0</ele><time>2026-03-22T15:03:26.98Z</time></trkpt><trkpt lat="21.894233436541555" lon="-102.41026526170798"><ele>1965.8</ele><time>2026-03-22T15:03:27.98Z</time></trkpt><trkpt lat="21.894258418744165" lon="-102.41034872888251"><ele>1965.6</ele><time>2026-03-22T15:03:28.98Z</time></trkpt><trkpt lat="21.894283584537472" lon="-102.41044939833618"><ele>1965.4</ele><time>2026-03-22T15:03:29.98Z</time></trkpt><trkpt lat="21.894308948132863" lon="-102.4105541055956"><ele>1965.2</ele><time>2026-03-22T15:03:30.98Z</time></trkpt><trkpt lat="21.89433899812938" lon="-102.41065236160767"><ele>1965.0</ele><time>2026-03-22T15:03:31.98Z</time></trkpt><trkpt lat="21.89436746547678" lon="-102.41074693478303"><ele>1965.8333333333333</ele><time>2026-03-22T15:03:32.98Z</time></trkpt><trkpt lat="21.894393765898318" lon="-102.41083048804755"><ele>1966.6666666666665</ele><time>2026-03-22T15:03:33.98Z</time></trkpt><trkpt lat="21.894415985158982" lon="-102.41091705962495"><ele>1967.5</ele><time>2026-03-22T15:03:34.98Z</time></trkpt><trkpt lat="21.89444246278708" lon="-102.41100747995374"><ele>1968.3333333333333</ele><time>2026-03-22T15:03:35.98Z</time></trkpt><trkpt lat="21.89446308312436" lon="-102.41110472185522"><ele>1969.1666666666665</ele><time>2026-03-22T15:03:36.98Z</time></trkpt><trkpt lat="21.894486361277504" lon="-102.41118757137073"><ele>1970.0</ele><time>2026-03-22T15:03:37.98Z</time></trkpt><trkpt lat="21.89451410543653" lon="-102.41127081193903"><ele>1970.1666666666665</ele><time>2026-03-22T15:03:38.98Z</time></trkpt><trkpt lat="21.89454387630372" lon="-102.41136658201103"><ele>1970.3333333333333</ele><time>2026-03-22T15:03:39.98Z</time></trkpt><trkpt lat="21.894565045474604" lon="-102.41144777016494"><ele>1970.5</ele><time>2026-03-22T15:03:40.98Z</time></trkpt><trkpt lat="21.894591354951736" lon="-102.41152878097238"><ele>1970.6666666666665</ele><time>2026-03-22T15:03:41.98Z</time></trkpt><trkpt lat="21.894619043605374" lon="-102.41162432691966"><ele>1970.8333333333333</ele><time>2026-03-22T15:03:42.98Z</time></trkpt><trkpt lat="21.89464166179828" lon="-102.41170726267698"><ele>1971.0</ele><time>2026-03-22T15:03:43.98Z</time></trkpt><trkpt lat="21.894664407074835" lon="-102.41178319594235"><ele>1971.0</ele><time>2026-03-22T15:03:44.98Z</time></trkpt><trkpt lat="21.894688918918643" lon="-102.41187477730756"><ele>1971.0</ele><time>2026-03-22T15:03:45.98Z</time></trkpt><trkpt lat="21.894708111426176" lon="-102.41194235209676"><ele>1971.0</ele><time>2026-03-22T15:03:46.98Z</time></trkpt><trkpt lat="21.89473306960214" lon="-102.41202374074847"><ele>1971.0</ele><time>2026-03-22T15:03:47.98Z</time></trkpt><trkpt lat="21.89474692687722" lon="-102.41210734802036"><ele>1971.0</ele><time>2026-03-22T15:03:48.98Z</time></trkpt><trkpt lat="21.894766700608578" lon="-102.4121877596579"><ele>1971.0</ele><time>2026-03-22T15:03:49.98Z</time></trkpt><trkpt lat="21.89479063963418" lon="-102.41226391388656"><ele>1971.0</ele><time>2026-03-22T15:03:50.98Z</time></trkpt><trkpt lat="21.894808005506064" lon="-102.4123358461877"><ele>1971.0</ele><time>2026-03-22T15:03:51.98Z</time></trkpt><trkpt lat="21.894827107065073" lon="-102.4124026654404"><ele>1971.0</ele><time>2026-03-22T15:03:52.98Z</time></trkpt><trkpt lat="21.894849419413827" lon="-102.4124780117567"><ele>1971.0</ele><time>2026-03-22T15:03:53.98Z</time></trkpt><trkpt lat="21.894883645917332" lon="-102.41260670407308"><ele>1971.0</ele><time>2026-03-22T15:03:55.98Z</time></trkpt><trkpt lat="21.89489980000682" lon="-102.41267599473356"><ele>1971.0</ele><time>2026-03-22T15:03:56.98Z</time></trkpt><trkpt lat="21.89492295991197" lon="-102.41274233751584"><ele>1971.0</ele><time>2026-03-22T15:03:57.98Z</time></trkpt><trkpt lat="21.894947353171137" lon="-102.41283040273025"><ele>1970.9999999999998</ele><time>2026-03-22T15:03:58.98Z</time></trkpt><trkpt lat="21.894962228359624" lon="-102.41290989681627"><ele>1971.0</ele><time>2026-03-22T15:03:59.98Z</time></trkpt><trkpt lat="21.89498574240361" lon="-102.41298368554463"><ele>1971.0</ele><time>2026-03-22T15:04:00.98Z</time></trkpt><trkpt lat="21.895009684350544" lon="-102.41305825198482"><ele>1970.9999999999998</ele><time>2026-03-22T15:04:01.98Z</time></trkpt><trkpt lat="21.89503096813357" lon="-102.41312318194514"><ele>1971.0</ele><time>2026-03-22T15:04:02.98Z</time></trkpt><trkpt lat="21.895054809541737" lon="-102.41319736713966"><ele>1971.0</ele><time>2026-03-22T15:04:03.98Z</time></trkpt><trkpt lat="21.89507012964427" lon="-102.41327715640811"><ele>1971.5</ele><time>2026-03-22T15:04:04.98Z</time></trkpt><trkpt lat="21.895088203013437" lon="-102.41334811025102"><ele>1972.0</ele><time>2026-03-22T15:04:05.98Z</time></trkpt><trkpt lat="21.895112783556357" lon="-102.41342260437686"><ele>1972.5</ele><time>2026-03-22T15:04:06.98Z</time></trkpt><trkpt lat="21.895128763472293" lon="-102.41348962361194"><ele>1973.0</ele><time>2026-03-22T15:04:07.98Z</time></trkpt><trkpt lat="21.895149324876392" lon="-102.41355719277779"><ele>1973.5</ele><time>2026-03-22T15:04:08.98Z</time></trkpt><trkpt lat="21.895176706936937" lon="-102.41362530469945"><ele>1974.0</ele><time>2026-03-22T15:04:09.98Z</time></trkpt><trkpt lat="21.895212504832656" lon="-102.413758828303"><ele>1975.0</ele><time>2026-03-22T15:04:11.98Z</time></trkpt><trkpt lat="21.895251022362096" lon="-102.41389262197336"><ele>1976.0</ele><time>2026-03-22T15:04:13.98Z</time></trkpt><trkpt lat="21.895269164007132" lon="-102.41396807608052"><ele>1977.0</ele><time>2026-03-22T15:04:14.98Z</time></trkpt><trkpt lat="21.89528840284483" lon="-102.41403598160434"><ele>1978.0</ele><time>2026-03-22T15:04:15.98Z</time></trkpt><trkpt lat="21.895310779367833" lon="-102.4141152854452"><ele>1979.0</ele><time>2026-03-22T15:04:16.979Z</time></trkpt><trkpt lat="21.895330673390635" lon="-102.41418250003672"><ele>1980.0</ele><time>2026-03-22T15:04:17.979Z</time></trkpt><trkpt lat="21.89535195149064" lon="-102.41425138777707"><ele>1980.0</ele><time>2026-03-22T15:04:18.979Z</time></trkpt><trkpt lat="21.89537558535553" lon="-102.41433089287125"><ele>1980.0</ele><time>2026-03-22T15:04:19.979Z</time></trkpt><trkpt lat="21.895396217681164" lon="-102.41440261209388"><ele>1980.0</ele><time>2026-03-22T15:04:20.979Z</time></trkpt><trkpt lat="21.89542808504556" lon="-102.4144862386803"><ele>1980.0</ele><time>2026-03-22T15:04:21.979Z</time></trkpt><trkpt lat="21.895449447710217" lon="-102.41455718878042"><ele>1980.0</ele><time>2026-03-22T15:04:22.979Z</time></trkpt><trkpt lat="21.895466111041678" lon="-102.41463163342077"><ele>1980.0</ele><time>2026-03-22T15:04:23.979Z</time></trkpt><trkpt lat="21.895486198018357" lon="-102.41471312695379"><ele>1980.8333333333333</ele><time>2026-03-22T15:04:24.979Z</time></trkpt><trkpt lat="21.895500942373868" lon="-102.41478313699956"><ele>1981.6666666666665</ele><time>2026-03-22T15:04:25.979Z</time></trkpt><trkpt lat="21.895526486046126" lon="-102.41486430367415"><ele>1982.5</ele><time>2026-03-22T15:04:26.979Z</time></trkpt><trkpt lat="21.89554536912965" lon="-102.41493820240908"><ele>1983.3333333333333</ele><time>2026-03-22T15:04:27.979Z</time></trkpt><trkpt lat="21.895575381064596" lon="-102.41503035282292"><ele>1984.1666666666665</ele><time>2026-03-22T15:04:28.979Z</time></trkpt><trkpt lat="21.895595893433637" lon="-102.41510239145369"><ele>1985.0</ele><time>2026-03-22T15:04:29.979Z</time></trkpt><trkpt lat="21.895617647216664" lon="-102.41518103246024"><ele>1984.9999999999998</ele><time>2026-03-22T15:04:30.979Z</time></trkpt><trkpt lat="21.89564233349643" lon="-102.41526056732327"><ele>1985.0</ele><time>2026-03-22T15:04:31.979Z</time></trkpt><trkpt lat="21.895661406423926" lon="-102.41534003800405"><ele>1985.0</ele><time>2026-03-22T15:04:32.979Z</time></trkpt><trkpt lat="21.89568575515089" lon="-102.41542228884153"><ele>1985.0</ele><time>2026-03-22T15:04:33.979Z</time></trkpt><trkpt lat="21.895705675094646" lon="-102.41550431680277"><ele>1984.9999999999998</ele><time>2026-03-22T15:04:34.979Z</time></trkpt><trkpt lat="21.89572950323075" lon="-102.4155969075937"><ele>1985.0</ele><time>2026-03-22T15:04:35.979Z</time></trkpt><trkpt lat="21.895752486285847" lon="-102.41568184272923"><ele>1984.8333333333333</ele><time>2026-03-22T15:04:36.979Z</time></trkpt><trkpt lat="21.895776483712716" lon="-102.41576949182722"><ele>1984.6666666666665</ele><time>2026-03-22T15:04:37.979Z</time></trkpt><trkpt lat="21.895796698619034" lon="-102.41585295742581"><ele>1984.5</ele><time>2026-03-22T15:04:38.979Z</time></trkpt><trkpt lat="21.89581710901346" lon="-102.41593932891078"><ele>1984.3333333333335</ele><time>2026-03-22T15:04:39.979Z</time></trkpt><trkpt lat="21.895838875128735" lon="-102.41603332596236"><ele>1984.1666666666667</ele><time>2026-03-22T15:04:40.979Z</time></trkpt><trkpt lat="21.895861104382558" lon="-102.41613203509685"><ele>1984.0</ele><time>2026-03-22T15:04:41.979Z</time></trkpt><trkpt lat="21.895880669739807" lon="-102.41623762232378"><ele>1983.3333333333335</ele><time>2026-03-22T15:04:42.979Z</time></trkpt><trkpt lat="21.89590396859334" lon="-102.4163273001373"><ele>1982.6666666666667</ele><time>2026-03-22T15:04:43.979Z</time></trkpt><trkpt lat="21.895930620426885" lon="-102.41643272203024"><ele>1982.0</ele><time>2026-03-22T15:04:44.979Z</time></trkpt><trkpt lat="21.895959547761326" lon="-102.41652661997371"><ele>1981.3333333333335</ele><time>2026-03-22T15:04:45.979Z</time></trkpt><trkpt lat="21.895992790838868" lon="-102.4166109284876"><ele>1980.6666666666667</ele><time>2026-03-22T15:04:46.979Z</time></trkpt><trkpt lat="21.89602351097624" lon="-102.41669393061692"><ele>1980.0</ele><time>2026-03-22T15:04:47.979Z</time></trkpt><trkpt lat="21.89604877373009" lon="-102.41679682113367"><ele>1978.8</ele><time>2026-03-22T15:04:48.979Z</time></trkpt><trkpt lat="21.89607712260347" lon="-102.41690116965081"><ele>1977.6</ele><time>2026-03-22T15:04:49.979Z</time></trkpt><trkpt lat="21.89610309107423" lon="-102.41700318536286"><ele>1976.4</ele><time>2026-03-22T15:04:50.979Z</time></trkpt><trkpt lat="21.896129634889153" lon="-102.41710431425504"><ele>1975.2</ele><time>2026-03-22T15:04:51.979Z</time></trkpt><trkpt lat="21.896153768530326" lon="-102.41720826820907"><ele>1974.0</ele><time>2026-03-22T15:04:52.979Z</time></trkpt><trkpt lat="21.89618194800565" lon="-102.41731529605026"><ele>1974.0</ele><time>2026-03-22T15:04:53.979Z</time></trkpt><trkpt lat="21.896208729813182" lon="-102.41742127957623"><ele>1974.0</ele><time>2026-03-22T15:04:54.979Z</time></trkpt><trkpt lat="21.896237208546374" lon="-102.41752868251356"><ele>1974.0</ele><time>2026-03-22T15:04:55.979Z</time></trkpt><trkpt lat="21.896267100358077" lon="-102.41763681470505"><ele>1974.0</ele><time>2026-03-22T15:04:56.979Z</time></trkpt><trkpt lat="21.89630129557408" lon="-102.41775063859063"><ele>1974.0</ele><time>2026-03-22T15:04:57.979Z</time></trkpt><trkpt lat="21.896332485646482" lon="-102.41786924007819"><ele>1974.0</ele><time>2026-03-22T15:04:58.979Z</time></trkpt><trkpt lat="21.896365152329945" lon="-102.41798371885355"><ele>1974.0</ele><time>2026-03-22T15:04:59.979Z</time></trkpt><trkpt lat="21.89639192331944" lon="-102.4180983216105"><ele>1974.0</ele><time>2026-03-22T15:05:00.979Z</time></trkpt><trkpt lat="21.89642315060281" lon="-102.41822004288312"><ele>1974.0</ele><time>2026-03-22T15:05:01.979Z</time></trkpt><trkpt lat="21.896460583384567" lon="-102.41834034272549"><ele>1973.5</ele><time>2026-03-22T15:05:02.979Z</time></trkpt><trkpt lat="21.896493567201478" lon="-102.41846325114648"><ele>1973.0</ele><time>2026-03-22T15:05:03.979Z</time></trkpt><trkpt lat="21.89652906664947" lon="-102.418597718797"><ele>1972.5</ele><time>2026-03-22T15:05:04.98Z</time></trkpt><trkpt lat="21.89655819904594" lon="-102.41871909402937"><ele>1972.0</ele><time>2026-03-22T15:05:05.98Z</time></trkpt><trkpt lat="21.896593116027987" lon="-102.41884176662018"><ele>1972.0</ele><time>2026-03-22T15:05:06.98Z</time></trkpt><trkpt lat="21.896621352760206" lon="-102.41897166215213"><ele>1972.0</ele><time>2026-03-22T15:05:07.979Z</time></trkpt><trkpt lat="21.896652254000823" lon="-102.41909609217359"><ele>1972.0</ele><time>2026-03-22T15:05:08.98Z</time></trkpt><trkpt lat="21.896681652824267" lon="-102.41921028021112"><ele>1972.0</ele><time>2026-03-22T15:05:09.98Z</time></trkpt><trkpt lat="21.896723220824814" lon="-102.41932807910487"><ele>1972.0</ele><time>2026-03-22T15:05:10.98Z</time></trkpt><trkpt lat="21.89675238347338" lon="-102.41943614209906"><ele>1971.9999999999998</ele><time>2026-03-22T15:05:11.979Z</time></trkpt><trkpt lat="21.89678211207792" lon="-102.41955760644058"><ele>1971.9999999999998</ele><time>2026-03-22T15:05:12.979Z</time></trkpt><trkpt lat="21.896813711321407" lon="-102.41966901293057"><ele>1972.0</ele><time>2026-03-22T15:05:13.98Z</time></trkpt><trkpt lat="21.896843110627483" lon="-102.4197868977607"><ele>1972.0</ele><time>2026-03-22T15:05:14.979Z</time></trkpt><trkpt lat="21.896879356833963" lon="-102.41989261221065"><ele>1972.6</ele><time>2026-03-22T15:05:15.979Z</time></trkpt><trkpt lat="21.896913857159507" lon="-102.41999824936507"><ele>1973.1999999999998</ele><time>2026-03-22T15:05:16.98Z</time></trkpt><trkpt lat="21.89694183489866" lon="-102.42010538369811"><ele>1973.8</ele><time>2026-03-22T15:05:17.979Z</time></trkpt><trkpt lat="21.896974792645874" lon="-102.4202083500708"><ele>1974.4</ele><time>2026-03-22T15:05:18.979Z</time></trkpt><trkpt lat="21.897002537662445" lon="-102.42031496065034"><ele>1975.0</ele><time>2026-03-22T15:05:19.979Z</time></trkpt><trkpt lat="21.897028799868643" lon="-102.42041639116488"><ele>1974.8</ele><time>2026-03-22T15:05:20.979Z</time></trkpt><trkpt lat="21.89706237933073" lon="-102.4205150597141"><ele>1974.6</ele><time>2026-03-22T15:05:21.979Z</time></trkpt><trkpt lat="21.897090686420846" lon="-102.42061533825499"><ele>1974.4</ele><time>2026-03-22T15:05:22.979Z</time></trkpt><trkpt lat="21.89711832168509" lon="-102.42071947261732"><ele>1974.2</ele><time>2026-03-22T15:05:23.979Z</time></trkpt><trkpt lat="21.897144001604484" lon="-102.42082106375041"><ele>1974.0</ele><time>2026-03-22T15:05:24.979Z</time></trkpt><trkpt lat="21.897168481142465" lon="-102.42092598314493"><ele>1974.0</ele><time>2026-03-22T15:05:25.979Z</time></trkpt><trkpt lat="21.897196969895543" lon="-102.42102069910331"><ele>1974.0</ele><time>2026-03-22T15:05:26.979Z</time></trkpt><trkpt lat="21.89722264472243" lon="-102.42111963602179"><ele>1974.0</ele><time>2026-03-22T15:05:27.979Z</time></trkpt><trkpt lat="21.897248403466087" lon="-102.42121331238248"><ele>1974.0</ele><time>2026-03-22T15:05:28.979Z</time></trkpt><trkpt lat="21.897271917495775" lon="-102.42130946275425"><ele>1974.0</ele><time>2026-03-22T15:05:29.979Z</time></trkpt><trkpt lat="21.897295395021306" lon="-102.42139964913956"><ele>1973.8333333333333</ele><time>2026-03-22T15:05:30.979Z</time></trkpt><trkpt lat="21.897318980605185" lon="-102.42148172869169"><ele>1973.6666666666665</ele><time>2026-03-22T15:05:31.979Z</time></trkpt><trkpt lat="21.89734874904907" lon="-102.42158042559612"><ele>1973.5</ele><time>2026-03-22T15:05:32.979Z</time></trkpt><trkpt lat="21.897369091074513" lon="-102.42166896866655"><ele>1973.3333333333333</ele><time>2026-03-22T15:05:33.979Z</time></trkpt><trkpt lat="21.89739437394833" lon="-102.42175811436472"><ele>1973.1666666666665</ele><time>2026-03-22T15:05:34.979Z</time></trkpt><trkpt lat="21.89740973513036" lon="-102.42184973960372"><ele>1973.0</ele><time>2026-03-22T15:05:35.979Z</time></trkpt><trkpt lat="21.897436174338043" lon="-102.42194398521212"><ele>1972.9999999999998</ele><time>2026-03-22T15:05:36.979Z</time></trkpt><trkpt lat="21.897460683664626" lon="-102.42203164075934"><ele>1973.0</ele><time>2026-03-22T15:05:37.979Z</time></trkpt><trkpt lat="21.897485438441826" lon="-102.42211466459216"><ele>1973.0</ele><time>2026-03-22T15:05:38.979Z</time></trkpt><trkpt lat="21.897508001687676" lon="-102.42219648372789"><ele>1973.0</ele><time>2026-03-22T15:05:39.979Z</time></trkpt><trkpt lat="21.897527433853845" lon="-102.42228545137831"><ele>1972.9999999999998</ele><time>2026-03-22T15:05:40.979Z</time></trkpt><trkpt lat="21.897541718459728" lon="-102.4223737123862"><ele>1973.0</ele><time>2026-03-22T15:05:41.979Z</time></trkpt><trkpt lat="21.897558193907205" lon="-102.42246829412287"><ele>1973.3333333333333</ele><time>2026-03-22T15:05:42.979Z</time></trkpt><trkpt lat="21.897573553468042" lon="-102.42256356833889"><ele>1973.6666666666665</ele><time>2026-03-22T15:05:43.979Z</time></trkpt><trkpt lat="21.897584631178784" lon="-102.42265756967777"><ele>1974.0</ele><time>2026-03-22T15:05:44.979Z</time></trkpt><trkpt lat="21.897593034398994" lon="-102.42275117112739"><ele>1974.3333333333335</ele><time>2026-03-22T15:05:45.979Z</time></trkpt><trkpt lat="21.897598595541798" lon="-102.42285223170413"><ele>1974.6666666666667</ele><time>2026-03-22T15:05:46.979Z</time></trkpt><trkpt lat="21.897605872129716" lon="-102.42294344763597"><ele>1975.0</ele><time>2026-03-22T15:05:47.979Z</time></trkpt><trkpt lat="21.89761269343957" lon="-102.42303835454432"><ele>1978.0000000000002</ele><time>2026-03-22T15:05:48.979Z</time></trkpt><trkpt lat="21.897613995609316" lon="-102.42313544430932"><ele>1981.0</ele><time>2026-03-22T15:05:49.979Z</time></trkpt><trkpt lat="21.8976108389067" lon="-102.42322538206612"><ele>1984.0</ele><time>2026-03-22T15:05:50.979Z</time></trkpt><trkpt lat="21.897607550867182" lon="-102.4233163841077"><ele>1987.0</ele><time>2026-03-22T15:05:51.979Z</time></trkpt><trkpt lat="21.897598265645822" lon="-102.42340409774323"><ele>1990.0000000000002</ele><time>2026-03-22T15:05:52.979Z</time></trkpt><trkpt lat="21.89759438928702" lon="-102.42349875507348"><ele>1993.0</ele><time>2026-03-22T15:05:53.979Z</time></trkpt><trkpt lat="21.89759114743291" lon="-102.4235890072853"><ele>1991.1666666666667</ele><time>2026-03-22T15:05:54.979Z</time></trkpt><trkpt lat="21.89758080261626" lon="-102.4236729452483"><ele>1989.3333333333335</ele><time>2026-03-22T15:05:55.979Z</time></trkpt><trkpt lat="21.897572631022626" lon="-102.42376144099744"><ele>1987.5</ele><time>2026-03-22T15:05:56.979Z</time></trkpt><trkpt lat="21.89756346001054" lon="-102.42385023318744"><ele>1985.6666666666665</ele><time>2026-03-22T15:05:57.979Z</time></trkpt><trkpt lat="21.89755467309305" lon="-102.42393177309037"><ele>1983.8333333333333</ele><time>2026-03-22T15:05:58.979Z</time></trkpt><trkpt lat="21.897545393371296" lon="-102.42401257380426"><ele>1982.0</ele><time>2026-03-22T15:05:59.979Z</time></trkpt><trkpt lat="21.897535792250576" lon="-102.42409124161803"><ele>1981.9999999999998</ele><time>2026-03-22T15:06:00.979Z</time></trkpt><trkpt lat="21.897510273240204" lon="-102.42418054159646"><ele>1982.0</ele><time>2026-03-22T15:06:01.979Z</time></trkpt><trkpt lat="21.89749934131725" lon="-102.42425541063692"><ele>1982.0</ele><time>2026-03-22T15:06:02.979Z</time></trkpt><trkpt lat="21.897485231594054" lon="-102.42433418984999"><ele>1982.0</ele><time>2026-03-22T15:06:03.979Z</time></trkpt><trkpt lat="21.8974607496037" lon="-102.4244213053336"><ele>1981.9999999999998</ele><time>2026-03-22T15:06:04.979Z</time></trkpt><trkpt lat="21.89744386333974" lon="-102.42450584905326"><ele>1982.0</ele><time>2026-03-22T15:06:05.979Z</time></trkpt><trkpt lat="21.897419283314335" lon="-102.42460198301394"><ele>1982.8333333333333</ele><time>2026-03-22T15:06:06.979Z</time></trkpt><trkpt lat="21.89739949583974" lon="-102.4246802859831"><ele>1983.6666666666665</ele><time>2026-03-22T15:06:07.979Z</time></trkpt><trkpt lat="21.897379636716792" lon="-102.42475883005791"><ele>1984.5</ele><time>2026-03-22T15:06:08.979Z</time></trkpt><trkpt lat="21.897359257434967" lon="-102.4248394084665"><ele>1985.3333333333335</ele><time>2026-03-22T15:06:09.979Z</time></trkpt><trkpt lat="21.89734009220967" lon="-102.42492029203092"><ele>1986.1666666666667</ele><time>2026-03-22T15:06:10.979Z</time></trkpt><trkpt lat="21.897318512582647" lon="-102.42500456310835"><ele>1987.0</ele><time>2026-03-22T15:06:11.979Z</time></trkpt><trkpt lat="21.897297375988078" lon="-102.42508676647928"><ele>1987.0000000000002</ele><time>2026-03-22T15:06:12.979Z</time></trkpt><trkpt lat="21.8972724183531" lon="-102.42516730071266"><ele>1987.0</ele><time>2026-03-22T15:06:13.979Z</time></trkpt><trkpt lat="21.8972535776823" lon="-102.42525611906248"><ele>1987.0</ele><time>2026-03-22T15:06:14.979Z</time></trkpt><trkpt lat="21.89723200534124" lon="-102.42534322003443"><ele>1987.0</ele><time>2026-03-22T15:06:15.979Z</time></trkpt><trkpt lat="21.897209116958923" lon="-102.42542427614366"><ele>1987.0000000000002</ele><time>2026-03-22T15:06:16.978Z</time></trkpt><trkpt lat="21.897184607897245" lon="-102.42550086959149"><ele>1987.0</ele><time>2026-03-22T15:06:17.978Z</time></trkpt><trkpt lat="21.89716428420865" lon="-102.42557760605148"><ele>1987.5000000000002</ele><time>2026-03-22T15:06:18.978Z</time></trkpt><trkpt lat="21.89714092104845" lon="-102.42566002981191"><ele>1988.0</ele><time>2026-03-22T15:06:19.978Z</time></trkpt><trkpt lat="21.897117099606866" lon="-102.42574801696992"><ele>1988.5</ele><time>2026-03-22T15:06:20.978Z</time></trkpt><trkpt lat="21.897100672912536" lon="-102.42582826294968"><ele>1989.0</ele><time>2026-03-22T15:06:21.978Z</time></trkpt><trkpt lat="21.897077901836234" lon="-102.42591304326261"><ele>1989.5000000000002</ele><time>2026-03-22T15:06:22.978Z</time></trkpt><trkpt lat="21.89706080314451" lon="-102.42599789374039"><ele>1990.0</ele><time>2026-03-22T15:06:23.978Z</time></trkpt><trkpt lat="21.8970360868838" lon="-102.42608111508298"><ele>1990.0000000000002</ele><time>2026-03-22T15:06:24.978Z</time></trkpt><trkpt lat="21.897015816438895" lon="-102.42616844905463"><ele>1990.0</ele><time>2026-03-22T15:06:25.978Z</time></trkpt><trkpt lat="21.896996741684944" lon="-102.42624775996566"><ele>1990.0</ele><time>2026-03-22T15:06:26.978Z</time></trkpt><trkpt lat="21.89697637075906" lon="-102.42632715177538"><ele>1990.0</ele><time>2026-03-22T15:06:27.978Z</time></trkpt><trkpt lat="21.896954043776176" lon="-102.42641373019232"><ele>1990.0000000000002</ele><time>2026-03-22T15:06:28.978Z</time></trkpt><trkpt lat="21.89693339932696" lon="-102.42649725697845"><ele>1990.0</ele><time>2026-03-22T15:06:29.978Z</time></trkpt><trkpt lat="21.896906188026747" lon="-102.4265822764007"><ele>1990.6666666666667</ele><time>2026-03-22T15:06:30.978Z</time></trkpt><trkpt lat="21.89687968277111" lon="-102.4266674239367"><ele>1991.3333333333335</ele><time>2026-03-22T15:06:31.978Z</time></trkpt><trkpt lat="21.896855274995175" lon="-102.42674894457475"><ele>1992.0</ele><time>2026-03-22T15:06:32.978Z</time></trkpt><trkpt lat="21.8968335375345" lon="-102.42684237399665"><ele>1992.6666666666665</ele><time>2026-03-22T15:06:33.978Z</time></trkpt><trkpt lat="21.896814629090734" lon="-102.42692192002605"><ele>1993.3333333333333</ele><time>2026-03-22T15:06:34.978Z</time></trkpt><trkpt lat="21.89679890782134" lon="-102.42699927098013"><ele>1994.0</ele><time>2026-03-22T15:06:35.978Z</time></trkpt><trkpt lat="21.896778542595904" lon="-102.4270867107327"><ele>1994.428571428571</ele><time>2026-03-22T15:06:36.978Z</time></trkpt><trkpt lat="21.896760803611222" lon="-102.42716841369541"><ele>1994.8571428571427</ele><time>2026-03-22T15:06:37.978Z</time></trkpt><trkpt lat="21.896740125354253" lon="-102.42724044557824"><ele>1995.2857142857142</ele><time>2026-03-22T15:06:38.978Z</time></trkpt><trkpt lat="21.896717170717874" lon="-102.42731636840297"><ele>1995.7142857142856</ele><time>2026-03-22T15:06:39.978Z</time></trkpt><trkpt lat="21.896698795599807" lon="-102.42739585420853"><ele>1996.1428571428569</ele><time>2026-03-22T15:06:40.978Z</time></trkpt><trkpt lat="21.896681892009635" lon="-102.42746979135775"><ele>1996.5714285714287</ele><time>2026-03-22T15:06:41.978Z</time></trkpt><trkpt lat="21.896666100076782" lon="-102.4275447188074"><ele>1997.0</ele><time>2026-03-22T15:06:42.978Z</time></trkpt><trkpt lat="21.89665074195136" lon="-102.42761900562978"><ele>1995.9999999999998</ele><time>2026-03-22T15:06:43.978Z</time></trkpt><trkpt lat="21.8966302394423" lon="-102.42769795920617"><ele>1995.0</ele><time>2026-03-22T15:06:44.978Z</time></trkpt><trkpt lat="21.89661170974007" lon="-102.42776857691008"><ele>1994.0</ele><time>2026-03-22T15:06:45.978Z</time></trkpt><trkpt lat="21.896592015281506" lon="-102.4278381223696"><ele>1993.0</ele><time>2026-03-22T15:06:46.978Z</time></trkpt><trkpt lat="21.896573699027403" lon="-102.42790315589473"><ele>1991.9999999999998</ele><time>2026-03-22T15:06:47.978Z</time></trkpt><trkpt lat="21.896546083846808" lon="-102.42802752041801"><ele>1991.0</ele><time>2026-03-22T15:06:49.978Z</time></trkpt><trkpt lat="21.896522299175874" lon="-102.42814215546318"><ele>1991.0</ele><time>2026-03-22T15:06:51.978Z</time></trkpt><trkpt lat="21.896490315666625" lon="-102.42826629222662"><ele>1991.0</ele><time>2026-03-22T15:06:53.978Z</time></trkpt><trkpt lat="21.8964609870674" lon="-102.42838670084409"><ele>1991.0</ele><time>2026-03-22T15:06:55.978Z</time></trkpt><trkpt lat="21.896433483802785" lon="-102.42849724373903"><ele>1991.0</ele><time>2026-03-22T15:06:57.978Z</time></trkpt><trkpt lat="21.89640324962949" lon="-102.42860087953147"><ele>1991.0</ele><time>2026-03-22T15:06:59.978Z</time></trkpt><trkpt lat="21.896378481445524" lon="-102.42871740861537"><ele>1992.1999999999998</ele><time>2026-03-22T15:07:01.978Z</time></trkpt><trkpt lat="21.896357578956565" lon="-102.42881489628448"><ele>1993.3999999999999</ele><time>2026-03-22T15:07:03.978Z</time></trkpt><trkpt lat="21.896334039939546" lon="-102.42892415665116"><ele>1994.6</ele><time>2026-03-22T15:07:05.978Z</time></trkpt><trkpt lat="21.89631222310549" lon="-102.4290127867971"><ele>1995.8</ele><time>2026-03-22T15:07:07.978Z</time></trkpt><trkpt lat="21.89629214194194" lon="-102.42910968228169"><ele>1997.0</ele><time>2026-03-22T15:07:09.978Z</time></trkpt><trkpt lat="21.896263277147177" lon="-102.42922856120315"><ele>1997.0</ele><time>2026-03-22T15:07:11.979Z</time></trkpt><trkpt lat="21.89622256932114" lon="-102.42933304654571"><ele>1997.0</ele><time>2026-03-22T15:07:13.979Z</time></trkpt><trkpt lat="21.89619085909206" lon="-102.42946011827708"><ele>1997.0</ele><time>2026-03-22T15:07:15.979Z</time></trkpt><trkpt lat="21.89615278354048" lon="-102.42957934319483"><ele>1997.0</ele><time>2026-03-22T15:07:17.979Z</time></trkpt><trkpt lat="21.89613182931647" lon="-102.42970280691011"><ele>1997.8</ele><time>2026-03-22T15:07:19.979Z</time></trkpt><trkpt lat="21.89610642202912" lon="-102.42981972952907"><ele>1998.6</ele><time>2026-03-22T15:07:21.978Z</time></trkpt><trkpt lat="21.896086321485633" lon="-102.42993283861367"><ele>1999.3999999999999</ele><time>2026-03-22T15:07:23.979Z</time></trkpt><trkpt lat="21.896060645484322" lon="-102.43004869678614"><ele>2000.1999999999998</ele><time>2026-03-22T15:07:25.979Z</time></trkpt><trkpt lat="21.896033469207318" lon="-102.4301616447461"><ele>2001.0</ele><time>2026-03-22T15:07:27.979Z</time></trkpt><trkpt lat="21.896001010274954" lon="-102.4302708733223"><ele>2001.0</ele><time>2026-03-22T15:07:29.979Z</time></trkpt><trkpt lat="21.895966117565237" lon="-102.43038279365439"><ele>2001.0</ele><time>2026-03-22T15:07:31.979Z</time></trkpt><trkpt lat="21.895947244805313" lon="-102.43044958243155"><ele>2001.0</ele><time>2026-03-22T15:07:32.979Z</time></trkpt><trkpt lat="21.895908931912377" lon="-102.43056479877443"><ele>2001.0</ele><time>2026-03-22T15:07:34.979Z</time></trkpt><trkpt lat="21.895887082926432" lon="-102.43067755393702"><ele>2001.0</ele><time>2026-03-22T15:07:36.979Z</time></trkpt><trkpt lat="21.895860863414544" lon="-102.43079400973758"><ele>2001.1999999999998</ele><time>2026-03-22T15:07:38.979Z</time></trkpt><trkpt lat="21.895841693526425" lon="-102.43086124027695"><ele>2001.3999999999999</ele><time>2026-03-22T15:07:39.979Z</time></trkpt><trkpt lat="21.895814474754143" lon="-102.4309742867142"><ele>2001.6</ele><time>2026-03-22T15:07:41.979Z</time></trkpt><trkpt lat="21.8957814918974" lon="-102.4310912052805"><ele>2001.8</ele><time>2026-03-22T15:07:43.979Z</time></trkpt><trkpt lat="21.895747238546726" lon="-102.43121165173301"><ele>2002.0</ele><time>2026-03-22T15:07:45.979Z</time></trkpt><trkpt lat="21.8957123555817" lon="-102.43134221597315"><ele>2002.3333333333335</ele><time>2026-03-22T15:07:47.979Z</time></trkpt><trkpt lat="21.895677683700562" lon="-102.4314699225958"><ele>2002.6666666666667</ele><time>2026-03-22T15:07:49.978Z</time></trkpt><trkpt lat="21.89566103490888" lon="-102.43153910200209"><ele>2003.0</ele><time>2026-03-22T15:07:50.978Z</time></trkpt><trkpt lat="21.895646132819117" lon="-102.43160954704405"><ele>2003.3333333333335</ele><time>2026-03-22T15:07:51.978Z</time></trkpt><trkpt lat="21.895627344290506" lon="-102.43168165299743"><ele>2003.6666666666667</ele><time>2026-03-22T15:07:52.978Z</time></trkpt><trkpt lat="21.895611768387518" lon="-102.43174984022728"><ele>2004.0</ele><time>2026-03-22T15:07:53.978Z</time></trkpt><trkpt lat="21.89559054658199" lon="-102.43182655625964"><ele>2004.0</ele><time>2026-03-22T15:07:54.978Z</time></trkpt><trkpt lat="21.89556929419779" lon="-102.43190176957843"><ele>2004.0</ele><time>2026-03-22T15:07:55.978Z</time></trkpt><trkpt lat="21.895548443329158" lon="-102.43197214257859"><ele>2004.0</ele><time>2026-03-22T15:07:56.978Z</time></trkpt><trkpt lat="21.89553071136983" lon="-102.43204610620154"><ele>2004.0</ele><time>2026-03-22T15:07:57.978Z</time></trkpt><trkpt lat="21.895513565690724" lon="-102.43211748306813"><ele>2004.0</ele><time>2026-03-22T15:07:58.978Z</time></trkpt><trkpt lat="21.89549535598795" lon="-102.43218786062823"><ele>2004.0</ele><time>2026-03-22T15:07:59.978Z</time></trkpt><trkpt lat="21.895472806731803" lon="-102.43225825863155"><ele>2004.0</ele><time>2026-03-22T15:08:00.978Z</time></trkpt><trkpt lat="21.89545261255757" lon="-102.43232996549413"><ele>2004.0</ele><time>2026-03-22T15:08:01.978Z</time></trkpt><trkpt lat="21.895437620354052" lon="-102.43240542642707"><ele>2004.0</ele><time>2026-03-22T15:08:02.978Z</time></trkpt><trkpt lat="21.895421974879806" lon="-102.4324784003116"><ele>2004.0</ele><time>2026-03-22T15:08:03.978Z</time></trkpt><trkpt lat="21.895401946366633" lon="-102.43255126284335"><ele>2004.0</ele><time>2026-03-22T15:08:04.978Z</time></trkpt><trkpt lat="21.89538498572245" lon="-102.43262357779814"><ele>2004.0</ele><time>2026-03-22T15:08:05.978Z</time></trkpt><trkpt lat="21.895367255298673" lon="-102.43269820196834"><ele>2004.0</ele><time>2026-03-22T15:08:06.978Z</time></trkpt><trkpt lat="21.895349283277923" lon="-102.43276695336438"><ele>2004.0</ele><time>2026-03-22T15:08:07.978Z</time></trkpt><trkpt lat="21.89533179845697" lon="-102.43283362598325"><ele>2004.0</ele><time>2026-03-22T15:08:08.978Z</time></trkpt><trkpt lat="21.895313325408562" lon="-102.43291401245523"><ele>2004.0</ele><time>2026-03-22T15:08:09.978Z</time></trkpt><trkpt lat="21.895295093219698" lon="-102.43298460245599"><ele>2004.0</ele><time>2026-03-22T15:08:10.978Z</time></trkpt><trkpt lat="21.89527907206351" lon="-102.43306913806309"><ele>2004.0</ele><time>2026-03-22T15:08:11.978Z</time></trkpt><trkpt lat="21.89526363659988" lon="-102.43314415847962"><ele>2004.0</ele><time>2026-03-22T15:08:12.978Z</time></trkpt><trkpt lat="21.895239953129007" lon="-102.43322328672335"><ele>2004.0</ele><time>2026-03-22T15:08:13.978Z</time></trkpt><trkpt lat="21.895215196120024" lon="-102.43330468006835"><ele>2004.1666666666667</ele><time>2026-03-22T15:08:14.978Z</time></trkpt><trkpt lat="21.89519621854075" lon="-102.43338838189707"><ele>2004.3333333333335</ele><time>2026-03-22T15:08:15.978Z</time></trkpt><trkpt lat="21.895170077230755" lon="-102.43346897183481"><ele>2004.5</ele><time>2026-03-22T15:08:16.978Z</time></trkpt><trkpt lat="21.89514752666231" lon="-102.43354867285055"><ele>2004.6666666666667</ele><time>2026-03-22T15:08:17.978Z</time></trkpt><trkpt lat="21.895126296356175" lon="-102.43363639978334"><ele>2004.8333333333335</ele><time>2026-03-22T15:08:18.978Z</time></trkpt><trkpt lat="21.89510485490325" lon="-102.43371595825526"><ele>2005.0</ele><time>2026-03-22T15:08:19.978Z</time></trkpt><trkpt lat="21.8950847210486" lon="-102.43379802711839"><ele>2005.3333333333335</ele><time>2026-03-22T15:08:20.978Z</time></trkpt><trkpt lat="21.89506198331391" lon="-102.43387163353529"><ele>2005.6666666666667</ele><time>2026-03-22T15:08:21.978Z</time></trkpt><trkpt lat="21.895044739766295" lon="-102.43395217459515"><ele>2006.0</ele><time>2026-03-22T15:08:22.978Z</time></trkpt><trkpt lat="21.8950253668048" lon="-102.43403357536634"><ele>2006.3333333333335</ele><time>2026-03-22T15:08:23.978Z</time></trkpt><trkpt lat="21.895002199502674" lon="-102.43411677329254"><ele>2006.6666666666667</ele><time>2026-03-22T15:08:24.978Z</time></trkpt><trkpt lat="21.894982594895346" lon="-102.43419600666681"><ele>2007.0</ele><time>2026-03-22T15:08:25.978Z</time></trkpt><trkpt lat="21.894959515627527" lon="-102.43428057778759"><ele>2007.0</ele><time>2026-03-22T15:08:26.978Z</time></trkpt><trkpt lat="21.89493912981738" lon="-102.43436031457286"><ele>2007.0</ele><time>2026-03-22T15:08:27.978Z</time></trkpt><trkpt lat="21.89492355851902" lon="-102.43444351788445"><ele>2007.0</ele><time>2026-03-22T15:08:28.978Z</time></trkpt><trkpt lat="21.8949052619411" lon="-102.43451965582891"><ele>2007.0</ele><time>2026-03-22T15:08:29.978Z</time></trkpt><trkpt lat="21.8948839160191" lon="-102.43460357871257"><ele>2007.0</ele><time>2026-03-22T15:08:30.978Z</time></trkpt><trkpt lat="21.894853359144566" lon="-102.4346878656798"><ele>2007.0</ele><time>2026-03-22T15:08:31.978Z</time></trkpt><trkpt lat="21.89483782228373" lon="-102.43476984132704"><ele>2007.1666666666667</ele><time>2026-03-22T15:08:32.978Z</time></trkpt><trkpt lat="21.89481640321928" lon="-102.43484781510965"><ele>2007.3333333333335</ele><time>2026-03-22T15:08:33.978Z</time></trkpt><trkpt lat="21.89479991647494" lon="-102.43492772719867"><ele>2007.5</ele><time>2026-03-22T15:08:34.978Z</time></trkpt><trkpt lat="21.894778516179088" lon="-102.4350162979173"><ele>2007.6666666666667</ele><time>2026-03-22T15:08:35.978Z</time></trkpt><trkpt lat="21.89475980372925" lon="-102.4350985712151"><ele>2007.8333333333335</ele><time>2026-03-22T15:08:36.978Z</time></trkpt><trkpt lat="21.89473477390263" lon="-102.43518375538905"><ele>2008.0</ele><time>2026-03-22T15:08:37.978Z</time></trkpt><trkpt lat="21.894711281361168" lon="-102.4352714508391"><ele>2008.0000000000002</ele><time>2026-03-22T15:08:38.978Z</time></trkpt><trkpt lat="21.8946900350008" lon="-102.43535429402884"><ele>2008.0</ele><time>2026-03-22T15:08:39.978Z</time></trkpt><trkpt lat="21.89466890390679" lon="-102.43542877296534"><ele>2008.0</ele><time>2026-03-22T15:08:40.978Z</time></trkpt><trkpt lat="21.89464623487675" lon="-102.4355277772586"><ele>2008.0</ele><time>2026-03-22T15:08:41.978Z</time></trkpt><trkpt lat="21.894627946876135" lon="-102.43560306397323"><ele>2008.0000000000002</ele><time>2026-03-22T15:08:42.978Z</time></trkpt><trkpt lat="21.894605264400617" lon="-102.43568993465824"><ele>2008.0</ele><time>2026-03-22T15:08:43.978Z</time></trkpt><trkpt lat="21.894585427409705" lon="-102.43577892326205"><ele>2007.8333333333335</ele><time>2026-03-22T15:08:44.978Z</time></trkpt><trkpt lat="21.89456729110643" lon="-102.43587229114006"><ele>2007.6666666666667</ele><time>2026-03-22T15:08:45.978Z</time></trkpt><trkpt lat="21.894541235333502" lon="-102.43596001162702"><ele>2007.5</ele><time>2026-03-22T15:08:46.978Z</time></trkpt><trkpt lat="21.89451355759268" lon="-102.43605428089305"><ele>2007.3333333333335</ele><time>2026-03-22T15:08:47.978Z</time></trkpt><trkpt lat="21.894489759844525" lon="-102.43614123124983"><ele>2007.1666666666667</ele><time>2026-03-22T15:08:48.978Z</time></trkpt><trkpt lat="21.894471794862124" lon="-102.43623998926476"><ele>2007.0</ele><time>2026-03-22T15:08:49.978Z</time></trkpt><trkpt lat="21.89445185201594" lon="-102.43633495697895"><ele>2006.8333333333333</ele><time>2026-03-22T15:08:50.978Z</time></trkpt><trkpt lat="21.894436782383085" lon="-102.43642722030393"><ele>2006.6666666666665</ele><time>2026-03-22T15:08:51.978Z</time></trkpt><trkpt lat="21.894415528800135" lon="-102.43650807181929"><ele>2006.5</ele><time>2026-03-22T15:08:52.978Z</time></trkpt><trkpt lat="21.894389753184097" lon="-102.43659801475839"><ele>2006.3333333333333</ele><time>2026-03-22T15:08:53.977Z</time></trkpt><trkpt lat="21.89436970749692" lon="-102.43667894719758"><ele>2006.1666666666665</ele><time>2026-03-22T15:08:54.977Z</time></trkpt><trkpt lat="21.894344860622155" lon="-102.43677245513827"><ele>2006.0</ele><time>2026-03-22T15:08:55.977Z</time></trkpt><trkpt lat="21.894321678629524" lon="-102.43685391570052"><ele>2005.9999999999998</ele><time>2026-03-22T15:08:56.977Z</time></trkpt><trkpt lat="21.89430196797864" lon="-102.43695057057033"><ele>2006.0</ele><time>2026-03-22T15:08:57.977Z</time></trkpt><trkpt lat="21.894270752873787" lon="-102.43704139618592"><ele>2006.0</ele><time>2026-03-22T15:08:58.977Z</time></trkpt><trkpt lat="21.894254411418242" lon="-102.43712841031052"><ele>2006.0</ele><time>2026-03-22T15:08:59.977Z</time></trkpt><trkpt lat="21.89422954603684" lon="-102.43721644179477"><ele>2005.9999999999998</ele><time>2026-03-22T15:09:00.977Z</time></trkpt><trkpt lat="21.894203301378763" lon="-102.43730770874986"><ele>2006.0</ele><time>2026-03-22T15:09:01.977Z</time></trkpt><trkpt lat="21.894186051180963" lon="-102.43740153306348"><ele>2006.6</ele><time>2026-03-22T15:09:02.977Z</time></trkpt><trkpt lat="21.894162879071366" lon="-102.43749863634285"><ele>2007.1999999999998</ele><time>2026-03-22T15:09:03.977Z</time></trkpt><trkpt lat="21.894135311856896" lon="-102.43759421357473"><ele>2007.8000000000002</ele><time>2026-03-22T15:09:04.977Z</time></trkpt><trkpt lat="21.894109359230338" lon="-102.43768439759353"><ele>2008.4</ele><time>2026-03-22T15:09:05.977Z</time></trkpt><trkpt lat="21.894086251830945" lon="-102.43779946336339"><ele>2009.0</ele><time>2026-03-22T15:09:06.977Z</time></trkpt><trkpt lat="21.894064184007952" lon="-102.43789700278793"><ele>2008.6</ele><time>2026-03-22T15:09:07.977Z</time></trkpt><trkpt lat="21.894037721578343" lon="-102.43798654205237"><ele>2008.2</ele><time>2026-03-22T15:09:08.977Z</time></trkpt><trkpt lat="21.894013775808254" lon="-102.43808292851543"><ele>2007.7999999999997</ele><time>2026-03-22T15:09:09.977Z</time></trkpt><trkpt lat="21.893989636963227" lon="-102.43817517934369"><ele>2007.3999999999999</ele><time>2026-03-22T15:09:10.977Z</time></trkpt><trkpt lat="21.89396549892914" lon="-102.43827650805844"><ele>2007.0</ele><time>2026-03-22T15:09:11.977Z</time></trkpt><trkpt lat="21.893939686761275" lon="-102.43836989362485"><ele>2007.0</ele><time>2026-03-22T15:09:12.977Z</time></trkpt><trkpt lat="21.893913630655486" lon="-102.43846670725827"><ele>2006.9999999999998</ele><time>2026-03-22T15:09:13.977Z</time></trkpt><trkpt lat="21.89389079378161" lon="-102.43855063954265"><ele>2006.9999999999998</ele><time>2026-03-22T15:09:14.977Z</time></trkpt><trkpt lat="21.89386600944994" lon="-102.43864514942989"><ele>2007.0</ele><time>2026-03-22T15:09:15.978Z</time></trkpt><trkpt lat="21.893843813351896" lon="-102.43875343096828"><ele>2007.0</ele><time>2026-03-22T15:09:16.977Z</time></trkpt><trkpt lat="21.893822286832382" lon="-102.43884487755658"><ele>2006.8</ele><time>2026-03-22T15:09:17.977Z</time></trkpt><trkpt lat="21.893790895195313" lon="-102.43894146288444"><ele>2006.6</ele><time>2026-03-22T15:09:18.978Z</time></trkpt><trkpt lat="21.893764477587137" lon="-102.43905274070428"><ele>2006.3999999999999</ele><time>2026-03-22T15:09:19.978Z</time></trkpt><trkpt lat="21.893743352836243" lon="-102.43915115498399"><ele>2006.1999999999998</ele><time>2026-03-22T15:09:20.978Z</time></trkpt><trkpt lat="21.89371129794676" lon="-102.43925673600963"><ele>2006.0</ele><time>2026-03-22T15:09:21.978Z</time></trkpt><trkpt lat="21.89368790133351" lon="-102.4393539776877"><ele>2006.0</ele><time>2026-03-22T15:09:22.977Z</time></trkpt><trkpt lat="21.89366471132262" lon="-102.43946087284476"><ele>2006.0</ele><time>2026-03-22T15:09:23.977Z</time></trkpt><trkpt lat="21.893638400340162" lon="-102.4395707234423"><ele>2006.0</ele><time>2026-03-22T15:09:24.977Z</time></trkpt><trkpt lat="21.893608184432495" lon="-102.43967126513216"><ele>2006.0</ele><time>2026-03-22T15:09:25.978Z</time></trkpt><trkpt lat="21.893583152083217" lon="-102.43978039765952"><ele>2006.0</ele><time>2026-03-22T15:09:26.978Z</time></trkpt><trkpt lat="21.893562360792245" lon="-102.43988508958381"><ele>2006.1999999999998</ele><time>2026-03-22T15:09:27.978Z</time></trkpt><trkpt lat="21.893530855737303" lon="-102.4399991969753"><ele>2006.3999999999999</ele><time>2026-03-22T15:09:28.977Z</time></trkpt><trkpt lat="21.89349804188377" lon="-102.44011538043854"><ele>2006.6</ele><time>2026-03-22T15:09:29.977Z</time></trkpt><trkpt lat="21.89346674324305" lon="-102.44023145500465"><ele>2006.8</ele><time>2026-03-22T15:09:30.977Z</time></trkpt><trkpt lat="21.893437664726214" lon="-102.44034584334155"><ele>2007.0</ele><time>2026-03-22T15:09:31.977Z</time></trkpt><trkpt lat="21.893409051244372" lon="-102.44045783629385"><ele>2006.0</ele><time>2026-03-22T15:09:32.977Z</time></trkpt><trkpt lat="21.893380662489044" lon="-102.44057788621782"><ele>2005.0</ele><time>2026-03-22T15:09:33.977Z</time></trkpt><trkpt lat="21.89334950850937" lon="-102.44070188312334"><ele>2004.0</ele><time>2026-03-22T15:09:34.977Z</time></trkpt><trkpt lat="21.893320928859193" lon="-102.4408186888418"><ele>2003.0</ele><time>2026-03-22T15:09:35.977Z</time></trkpt><trkpt lat="21.893283322025553" lon="-102.44094271958951"><ele>2003.0</ele><time>2026-03-22T15:09:36.977Z</time></trkpt><trkpt lat="21.893253091885107" lon="-102.44106345828929"><ele>2003.0</ele><time>2026-03-22T15:09:37.977Z</time></trkpt><trkpt lat="21.893225201610967" lon="-102.4411817067012"><ele>2003.0</ele><time>2026-03-22T15:09:38.977Z</time></trkpt><trkpt lat="21.89319493553772" lon="-102.44130928397104"><ele>2003.0</ele><time>2026-03-22T15:09:39.977Z</time></trkpt><trkpt lat="21.893164714639397" lon="-102.44143341999457"><ele>2002.25</ele><time>2026-03-22T15:09:40.977Z</time></trkpt><trkpt lat="21.893130993638437" lon="-102.44155462218856"><ele>2001.5</ele><time>2026-03-22T15:09:41.977Z</time></trkpt><trkpt lat="21.893092415775712" lon="-102.44169292965108"><ele>2000.75</ele><time>2026-03-22T15:09:42.977Z</time></trkpt><trkpt lat="21.893062898117023" lon="-102.44182195716782"><ele>2000.0</ele><time>2026-03-22T15:09:43.977Z</time></trkpt><trkpt lat="21.893026249682467" lon="-102.44195161205047"><ele>2000.0</ele><time>2026-03-22T15:09:44.977Z</time></trkpt><trkpt lat="21.89298933190037" lon="-102.44209306891331"><ele>2000.0</ele><time>2026-03-22T15:09:45.977Z</time></trkpt><trkpt lat="21.892956124506785" lon="-102.442230135337"><ele>2000.0</ele><time>2026-03-22T15:09:46.977Z</time></trkpt><trkpt lat="21.89292218234847" lon="-102.44236531346807"><ele>2000.0</ele><time>2026-03-22T15:09:47.977Z</time></trkpt><trkpt lat="21.892880991444446" lon="-102.44251359077671"><ele>1998.75</ele><time>2026-03-22T15:09:48.977Z</time></trkpt><trkpt lat="21.892847369428306" lon="-102.44264910988248"><ele>1997.5</ele><time>2026-03-22T15:09:49.977Z</time></trkpt><trkpt lat="21.892808690688636" lon="-102.44280001406753"><ele>1996.25</ele><time>2026-03-22T15:09:50.977Z</time></trkpt><trkpt lat="21.892775824880125" lon="-102.44294123856716"><ele>1995.0</ele><time>2026-03-22T15:09:51.977Z</time></trkpt><trkpt lat="21.892738200761176" lon="-102.44308814579817"><ele>1994.25</ele><time>2026-03-22T15:09:52.977Z</time></trkpt><trkpt lat="21.892699243474823" lon="-102.44323410131084"><ele>1993.5</ele><time>2026-03-22T15:09:53.977Z</time></trkpt><trkpt lat="21.89266156517993" lon="-102.4433783369805"><ele>1992.75</ele><time>2026-03-22T15:09:54.977Z</time></trkpt><trkpt lat="21.892619272754345" lon="-102.44352937157477"><ele>1992.0</ele><time>2026-03-22T15:09:55.977Z</time></trkpt><trkpt lat="21.892574572634654" lon="-102.44367546895283"><ele>1990.25</ele><time>2026-03-22T15:09:56.977Z</time></trkpt><trkpt lat="21.89254012692874" lon="-102.44382847375174"><ele>1988.5</ele><time>2026-03-22T15:09:57.977Z</time></trkpt><trkpt lat="21.892508134048235" lon="-102.44397936451733"><ele>1986.75</ele><time>2026-03-22T15:09:58.976Z</time></trkpt><trkpt lat="21.892469799477478" lon="-102.44413855724439"><ele>1985.0</ele><time>2026-03-22T15:09:59.976Z</time></trkpt><trkpt lat="21.8924302854321" lon="-102.44428916072313"><ele>1985.0</ele><time>2026-03-22T15:10:00.976Z</time></trkpt><trkpt lat="21.892389087123373" lon="-102.44444204727651"><ele>1985.0</ele><time>2026-03-22T15:10:01.976Z</time></trkpt><trkpt lat="21.892350152062217" lon="-102.44460010763444"><ele>1985.0</ele><time>2026-03-22T15:10:02.976Z</time></trkpt><trkpt lat="21.892302971407993" lon="-102.44475677835628"><ele>1983.25</ele><time>2026-03-22T15:10:03.976Z</time></trkpt><trkpt lat="21.89226635703029" lon="-102.44492260292347"><ele>1981.5</ele><time>2026-03-22T15:10:04.976Z</time></trkpt><trkpt lat="21.89223084859409" lon="-102.44507062325603"><ele>1979.75</ele><time>2026-03-22T15:10:05.976Z</time></trkpt><trkpt lat="21.89219212585867" lon="-102.4452224777201"><ele>1978.0</ele><time>2026-03-22T15:10:06.976Z</time></trkpt><trkpt lat="21.892154008637657" lon="-102.44537117190612"><ele>1976.75</ele><time>2026-03-22T15:10:07.976Z</time></trkpt><trkpt lat="21.892111950391502" lon="-102.44552617066098"><ele>1975.5</ele><time>2026-03-22T15:10:08.976Z</time></trkpt><trkpt lat="21.892077432286595" lon="-102.44567219035692"><ele>1974.25</ele><time>2026-03-22T15:10:09.976Z</time></trkpt><trkpt lat="21.89204139668317" lon="-102.44581929807826"><ele>1973.0</ele><time>2026-03-22T15:10:10.976Z</time></trkpt><trkpt lat="21.892001963252266" lon="-102.44596203686129"><ele>1973.0</ele><time>2026-03-22T15:10:11.976Z</time></trkpt><trkpt lat="21.89196778469699" lon="-102.44610446128269"><ele>1973.0</ele><time>2026-03-22T15:10:12.976Z</time></trkpt><trkpt lat="21.891934338471444" lon="-102.44624626916874"><ele>1973.0</ele><time>2026-03-22T15:10:13.976Z</time></trkpt><trkpt lat="21.89189759815305" lon="-102.44638652084"><ele>1973.0</ele><time>2026-03-22T15:10:14.976Z</time></trkpt><trkpt lat="21.891860186772295" lon="-102.4465163695337"><ele>1973.25</ele><time>2026-03-22T15:10:15.976Z</time></trkpt><trkpt lat="21.89182675503856" lon="-102.44664579548441"><ele>1973.5</ele><time>2026-03-22T15:10:16.976Z</time></trkpt><trkpt lat="21.891798078356373" lon="-102.44677655369117"><ele>1973.75</ele><time>2026-03-22T15:10:17.976Z</time></trkpt><trkpt lat="21.89176571641004" lon="-102.44689537641266"><ele>1974.0</ele><time>2026-03-22T15:10:18.976Z</time></trkpt><trkpt lat="21.891738864578816" lon="-102.44701686396971"><ele>1976.4</ele><time>2026-03-22T15:10:19.976Z</time></trkpt><trkpt lat="21.89170923865248" lon="-102.4471412323903"><ele>1978.8000000000002</ele><time>2026-03-22T15:10:20.976Z</time></trkpt><trkpt lat="21.891679497799355" lon="-102.4472540585816"><ele>1981.1999999999998</ele><time>2026-03-22T15:10:21.976Z</time></trkpt><trkpt lat="21.89164897765331" lon="-102.44736714554777"><ele>1983.6</ele><time>2026-03-22T15:10:22.976Z</time></trkpt><trkpt lat="21.891624281139954" lon="-102.44747007452924"><ele>1986.0</ele><time>2026-03-22T15:10:23.976Z</time></trkpt><trkpt lat="21.89159966992492" lon="-102.44757801460831"><ele>1986.0</ele><time>2026-03-22T15:10:24.976Z</time></trkpt><trkpt lat="21.891569128735316" lon="-102.44768787100466"><ele>1986.0</ele><time>2026-03-22T15:10:25.976Z</time></trkpt><trkpt lat="21.891552067245783" lon="-102.4477793438675"><ele>1986.0</ele><time>2026-03-22T15:10:26.976Z</time></trkpt><trkpt lat="21.891521567068335" lon="-102.44788112791682"><ele>1986.0</ele><time>2026-03-22T15:10:27.976Z</time></trkpt><trkpt lat="21.891496989581274" lon="-102.44798008164855"><ele>1986.0</ele><time>2026-03-22T15:10:28.976Z</time></trkpt><trkpt lat="21.891471578371846" lon="-102.44807137914728"><ele>1987.0</ele><time>2026-03-22T15:10:29.976Z</time></trkpt><trkpt lat="21.89145002010456" lon="-102.44816207634481"><ele>1988.0</ele><time>2026-03-22T15:10:30.976Z</time></trkpt><trkpt lat="21.891425134760595" lon="-102.44823769224188"><ele>1989.0</ele><time>2026-03-22T15:10:31.976Z</time></trkpt><trkpt lat="21.89140546200038" lon="-102.44832548951086"><ele>1990.0</ele><time>2026-03-22T15:10:32.976Z</time></trkpt><trkpt lat="21.89138793021194" lon="-102.4484122323135"><ele>1991.0</ele><time>2026-03-22T15:10:33.976Z</time></trkpt><trkpt lat="21.891364846165978" lon="-102.44848936356284"><ele>1992.0</ele><time>2026-03-22T15:10:34.976Z</time></trkpt><trkpt lat="21.891344264655764" lon="-102.44857002822377"><ele>1992.0</ele><time>2026-03-22T15:10:35.976Z</time></trkpt><trkpt lat="21.89131971455975" lon="-102.44865057217193"><ele>1992.0</ele><time>2026-03-22T15:10:36.976Z</time></trkpt><trkpt lat="21.891303873807406" lon="-102.44871860164531"><ele>1992.0</ele><time>2026-03-22T15:10:37.976Z</time></trkpt><trkpt lat="21.89126855378392" lon="-102.4488572703287"><ele>1992.0</ele><time>2026-03-22T15:10:39.976Z</time></trkpt><trkpt lat="21.891252485595494" lon="-102.44892451250115"><ele>1992.0</ele><time>2026-03-22T15:10:40.976Z</time></trkpt><trkpt lat="21.891233824743676" lon="-102.44900040508715"><ele>1992.0</ele><time>2026-03-22T15:10:41.976Z</time></trkpt><trkpt lat="21.891219301282288" lon="-102.44907243589267"><ele>1992.2857142857142</ele><time>2026-03-22T15:10:42.976Z</time></trkpt><trkpt lat="21.891198531654297" lon="-102.44913795550342"><ele>1992.5714285714284</ele><time>2026-03-22T15:10:43.976Z</time></trkpt><trkpt lat="21.891175146453715" lon="-102.44920936155513"><ele>1992.8571428571427</ele><time>2026-03-22T15:10:44.976Z</time></trkpt><trkpt lat="21.891155032950657" lon="-102.4492831146756"><ele>1993.1428571428569</ele><time>2026-03-22T15:10:45.976Z</time></trkpt><trkpt lat="21.89113606774444" lon="-102.44935513510836"><ele>1993.4285714285713</ele><time>2026-03-22T15:10:46.976Z</time></trkpt><trkpt lat="21.8911189809557" lon="-102.44942825405298"><ele>1993.7142857142853</ele><time>2026-03-22T15:10:47.976Z</time></trkpt><trkpt lat="21.891098403173444" lon="-102.44950483039646"><ele>1993.9999999999998</ele><time>2026-03-22T15:10:48.976Z</time></trkpt><trkpt lat="21.89108048554562" lon="-102.44957746246163"><ele>1994.3333333333333</ele><time>2026-03-22T15:10:49.976Z</time></trkpt><trkpt lat="21.891065496632027" lon="-102.44965520995113"><ele>1994.6666666666665</ele><time>2026-03-22T15:10:50.976Z</time></trkpt><trkpt lat="21.891046198815328" lon="-102.44972579264989"><ele>1995.0</ele><time>2026-03-22T15:10:51.976Z</time></trkpt><trkpt lat="21.89102565040389" lon="-102.44980139291309"><ele>1995.3333333333335</ele><time>2026-03-22T15:10:52.976Z</time></trkpt><trkpt lat="21.890993497967575" lon="-102.44993264494805"><ele>1995.6666666666667</ele><time>2026-03-22T15:10:54.976Z</time></trkpt><trkpt lat="21.89097385357103" lon="-102.45000022684009"><ele>1996.0</ele><time>2026-03-22T15:10:55.976Z</time></trkpt><trkpt lat="21.890956548387102" lon="-102.45006828595936"><ele>1996.0</ele><time>2026-03-22T15:10:56.976Z</time></trkpt><trkpt lat="21.890934274934857" lon="-102.45013692326933"><ele>1996.0</ele><time>2026-03-22T15:10:57.976Z</time></trkpt><trkpt lat="21.89091728356312" lon="-102.45021124108794"><ele>1996.0</ele><time>2026-03-22T15:10:58.976Z</time></trkpt><trkpt lat="21.890905326047438" lon="-102.45029012216396"><ele>1996.0</ele><time>2026-03-22T15:10:59.976Z</time></trkpt><trkpt lat="21.89087029455255" lon="-102.45043760544979"><ele>1996.0</ele><time>2026-03-22T15:11:01.976Z</time></trkpt><trkpt lat="21.890837939682676" lon="-102.45057121304906"><ele>1995.714285714286</ele><time>2026-03-22T15:11:03.975Z</time></trkpt><trkpt lat="21.89082407762222" lon="-102.45064562142217"><ele>1995.4285714285716</ele><time>2026-03-22T15:11:04.975Z</time></trkpt><trkpt lat="21.89079996465431" lon="-102.45073203013021"><ele>1995.142857142857</ele><time>2026-03-22T15:11:05.975Z</time></trkpt><trkpt lat="21.890780769240973" lon="-102.45080104513343"><ele>1994.857142857143</ele><time>2026-03-22T15:11:06.975Z</time></trkpt><trkpt lat="21.89076549052015" lon="-102.45087289892717"><ele>1994.5714285714284</ele><time>2026-03-22T15:11:07.975Z</time></trkpt><trkpt lat="21.890742921824213" lon="-102.45094398487333"><ele>1994.285714285714</ele><time>2026-03-22T15:11:08.975Z</time></trkpt><trkpt lat="21.89073131489212" lon="-102.45101700634712"><ele>1993.9999999999998</ele><time>2026-03-22T15:11:09.975Z</time></trkpt><trkpt lat="21.89070874744764" lon="-102.45109111624421"><ele>1993.9999999999998</ele><time>2026-03-22T15:11:10.975Z</time></trkpt><trkpt lat="21.890688084813604" lon="-102.45117690056888"><ele>1994.0</ele><time>2026-03-22T15:11:11.975Z</time></trkpt><trkpt lat="21.890680911774734" lon="-102.4512460937837"><ele>1994.0</ele><time>2026-03-22T15:11:12.975Z</time></trkpt><trkpt lat="21.890654823980437" lon="-102.45132303228492"><ele>1994.0</ele><time>2026-03-22T15:11:13.975Z</time></trkpt><trkpt lat="21.890639530215704" lon="-102.45140318949747"><ele>1993.9999999999998</ele><time>2026-03-22T15:11:14.975Z</time></trkpt><trkpt lat="21.890618447078335" lon="-102.45147993597884"><ele>1994.0</ele><time>2026-03-22T15:11:15.975Z</time></trkpt><trkpt lat="21.890598935114582" lon="-102.45156273824067"><ele>1994.4999999999998</ele><time>2026-03-22T15:11:16.975Z</time></trkpt><trkpt lat="21.890578260439188" lon="-102.45164709901196"><ele>1995.0</ele><time>2026-03-22T15:11:17.975Z</time></trkpt><trkpt lat="21.890562042149494" lon="-102.4517184786359"><ele>1995.5</ele><time>2026-03-22T15:11:18.975Z</time></trkpt><trkpt lat="21.890540915210803" lon="-102.45179168368915"><ele>1996.0</ele><time>2026-03-22T15:11:19.975Z</time></trkpt><trkpt lat="21.890517646228574" lon="-102.45188135030605"><ele>1996.4999999999998</ele><time>2026-03-22T15:11:20.975Z</time></trkpt><trkpt lat="21.890503466771595" lon="-102.45195866342405"><ele>1997.0</ele><time>2026-03-22T15:11:21.977Z</time></trkpt><trkpt lat="21.89048185733848" lon="-102.45203442997929"><ele>1996.9999999999998</ele><time>2026-03-22T15:11:22.977Z</time></trkpt><trkpt lat="21.890458784308404" lon="-102.45211752542025"><ele>1997.0</ele><time>2026-03-22T15:11:23.977Z</time></trkpt><trkpt lat="21.89044073820638" lon="-102.45219178578822"><ele>1997.0</ele><time>2026-03-22T15:11:24.977Z</time></trkpt><trkpt lat="21.890410551897038" lon="-102.45228378861876"><ele>1997.0</ele><time>2026-03-22T15:11:25.976Z</time></trkpt><trkpt lat="21.890390838090863" lon="-102.45236801851463"><ele>1996.9999999999998</ele><time>2026-03-22T15:11:26.976Z</time></trkpt><trkpt lat="21.890369885608692" lon="-102.45245548806619"><ele>1997.0</ele><time>2026-03-22T15:11:27.977Z</time></trkpt><trkpt lat="21.890346891227946" lon="-102.45254061313511"><ele>1996.9999999999998</ele><time>2026-03-22T15:11:28.976Z</time></trkpt><trkpt lat="21.890324762328376" lon="-102.45262165658437"><ele>1997.0</ele><time>2026-03-22T15:11:29.976Z</time></trkpt><trkpt lat="21.890299112594608" lon="-102.4527050119811"><ele>1997.0</ele><time>2026-03-22T15:11:30.977Z</time></trkpt><trkpt lat="21.89028102168509" lon="-102.45279274186318"><ele>1997.0</ele><time>2026-03-22T15:11:31.976Z</time></trkpt><trkpt lat="21.890262665682112" lon="-102.45286957614279"><ele>1996.9999999999998</ele><time>2026-03-22T15:11:32.976Z</time></trkpt><trkpt lat="21.89024157813757" lon="-102.4529653455419"><ele>1997.0</ele><time>2026-03-22T15:11:33.976Z</time></trkpt><trkpt lat="21.89022197323248" lon="-102.45304182291328"><ele>1996.9999999999998</ele><time>2026-03-22T15:11:34.977Z</time></trkpt><trkpt lat="21.89019454408683" lon="-102.45313853215963"><ele>1997.0</ele><time>2026-03-22T15:11:35.977Z</time></trkpt><trkpt lat="21.89018002791092" lon="-102.45321906253048"><ele>1997.0</ele><time>2026-03-22T15:11:36.977Z</time></trkpt><trkpt lat="21.890161882338393" lon="-102.45331091444369"><ele>1997.0</ele><time>2026-03-22T15:11:37.977Z</time></trkpt><trkpt lat="21.890136107309917" lon="-102.45339573313849"><ele>1996.9999999999998</ele><time>2026-03-22T15:11:38.977Z</time></trkpt><trkpt lat="21.8901123831669" lon="-102.45347772402533"><ele>1997.0</ele><time>2026-03-22T15:11:39.977Z</time></trkpt><trkpt lat="21.89009301141031" lon="-102.4535695005381"><ele>1997.6666666666665</ele><time>2026-03-22T15:11:40.977Z</time></trkpt><trkpt lat="21.89007528363112" lon="-102.45364865913042"><ele>1998.3333333333333</ele><time>2026-03-22T15:11:41.977Z</time></trkpt><trkpt lat="21.89005430667941" lon="-102.45373724199885"><ele>1999.0</ele><time>2026-03-22T15:11:42.977Z</time></trkpt><trkpt lat="21.890034089288296" lon="-102.45381413720716"><ele>1999.6666666666665</ele><time>2026-03-22T15:11:43.977Z</time></trkpt><trkpt lat="21.890015752194177" lon="-102.45389431899592"><ele>2000.3333333333333</ele><time>2026-03-22T15:11:44.977Z</time></trkpt><trkpt lat="21.889993218766705" lon="-102.453980771919"><ele>2001.0</ele><time>2026-03-22T15:11:45.977Z</time></trkpt><trkpt lat="21.88996447624448" lon="-102.45406575468688"><ele>2001.0</ele><time>2026-03-22T15:11:46.977Z</time></trkpt><trkpt lat="21.88993557239666" lon="-102.45416756120973"><ele>2001.0</ele><time>2026-03-22T15:11:47.977Z</time></trkpt><trkpt lat="21.889915205899282" lon="-102.45425104515282"><ele>2001.0</ele><time>2026-03-22T15:11:48.977Z</time></trkpt><trkpt lat="21.889891053008363" lon="-102.4543473156928"><ele>2001.0</ele><time>2026-03-22T15:11:49.977Z</time></trkpt><trkpt lat="21.889867878600644" lon="-102.4544424524801"><ele>2001.0</ele><time>2026-03-22T15:11:50.977Z</time></trkpt><trkpt lat="21.889849522174934" lon="-102.4545328922449"><ele>2001.0</ele><time>2026-03-22T15:11:51.977Z</time></trkpt><trkpt lat="21.889820490617673" lon="-102.45464723036386"><ele>2000.0</ele><time>2026-03-22T15:11:52.977Z</time></trkpt><trkpt lat="21.88979779539621" lon="-102.4547286724025"><ele>1999.0</ele><time>2026-03-22T15:11:53.977Z</time></trkpt><trkpt lat="21.889773353214917" lon="-102.45482556989958"><ele>1998.0</ele><time>2026-03-22T15:11:54.977Z</time></trkpt><trkpt lat="21.88974369623783" lon="-102.45492658021264"><ele>1997.0</ele><time>2026-03-22T15:11:55.977Z</time></trkpt><trkpt lat="21.889721768835923" lon="-102.4550277767254"><ele>1996.0</ele><time>2026-03-22T15:11:56.977Z</time></trkpt><trkpt lat="21.88969498117882" lon="-102.45512522964047"><ele>1996.0</ele><time>2026-03-22T15:11:57.977Z</time></trkpt><trkpt lat="21.889666848996047" lon="-102.45522473001638"><ele>1996.0</ele><time>2026-03-22T15:11:58.977Z</time></trkpt><trkpt lat="21.88963880269855" lon="-102.45531257909114"><ele>1996.0</ele><time>2026-03-22T15:11:59.977Z</time></trkpt><trkpt lat="21.889611665025804" lon="-102.4554113443372"><ele>1996.0</ele><time>2026-03-22T15:12:00.977Z</time></trkpt><trkpt lat="21.889589938680057" lon="-102.45551207354526"><ele>1996.0</ele><time>2026-03-22T15:12:01.977Z</time></trkpt><trkpt lat="21.88956771929903" lon="-102.45561504166758"><ele>1996.0</ele><time>2026-03-22T15:12:02.977Z</time></trkpt><trkpt lat="21.88954253112089" lon="-102.45571302330339"><ele>1996.0</ele><time>2026-03-22T15:12:03.977Z</time></trkpt><trkpt lat="21.88951642742389" lon="-102.45581665726841"><ele>1996.0</ele><time>2026-03-22T15:12:04.977Z</time></trkpt><trkpt lat="21.889490372639006" lon="-102.4559276818895"><ele>1996.0</ele><time>2026-03-22T15:12:05.977Z</time></trkpt><trkpt lat="21.889468464917655" lon="-102.45602523394355"><ele>1996.0</ele><time>2026-03-22T15:12:06.977Z</time></trkpt><trkpt lat="21.889435615563222" lon="-102.45613659409248"><ele>1996.0</ele><time>2026-03-22T15:12:07.977Z</time></trkpt><trkpt lat="21.8894123747539" lon="-102.45622892776159"><ele>1996.0</ele><time>2026-03-22T15:12:08.977Z</time></trkpt><trkpt lat="21.889387397633747" lon="-102.45632806210732"><ele>1996.0</ele><time>2026-03-22T15:12:09.977Z</time></trkpt><trkpt lat="21.889362074452634" lon="-102.45643635951761"><ele>1996.0</ele><time>2026-03-22T15:12:10.977Z</time></trkpt><trkpt lat="21.88932943686159" lon="-102.45654101570415"><ele>1996.0</ele><time>2026-03-22T15:12:11.977Z</time></trkpt><trkpt lat="21.889301549437803" lon="-102.4566470957077"><ele>1995.8</ele><time>2026-03-22T15:12:12.977Z</time></trkpt><trkpt lat="21.889276648690636" lon="-102.45674500489011"><ele>1995.6</ele><time>2026-03-22T15:12:13.977Z</time></trkpt><trkpt lat="21.889253464731976" lon="-102.45685225456849"><ele>1995.4</ele><time>2026-03-22T15:12:14.977Z</time></trkpt><trkpt lat="21.889226773887476" lon="-102.45695503574863"><ele>1995.2</ele><time>2026-03-22T15:12:15.977Z</time></trkpt><trkpt lat="21.88920309091705" lon="-102.45705754545219"><ele>1995.0</ele><time>2026-03-22T15:12:16.977Z</time></trkpt><trkpt lat="21.889172432411304" lon="-102.45716619258653"><ele>1994.4</ele><time>2026-03-22T15:12:17.977Z</time></trkpt><trkpt lat="21.88914319447269" lon="-102.45727202756797"><ele>1993.8</ele><time>2026-03-22T15:12:18.977Z</time></trkpt><trkpt lat="21.88911485191087" lon="-102.45738008574013"><ele>1993.1999999999998</ele><time>2026-03-22T15:12:19.976Z</time></trkpt><trkpt lat="21.88908705478807" lon="-102.45747615992511"><ele>1992.6</ele><time>2026-03-22T15:12:20.976Z</time></trkpt><trkpt lat="21.8890650849133" lon="-102.45758276082506"><ele>1992.0</ele><time>2026-03-22T15:12:21.976Z</time></trkpt><trkpt lat="21.88904233624483" lon="-102.45767985017388"><ele>1992.0</ele><time>2026-03-22T15:12:22.976Z</time></trkpt><trkpt lat="21.889011827822515" lon="-102.45779463109945"><ele>1991.9999999999998</ele><time>2026-03-22T15:12:23.976Z</time></trkpt><trkpt lat="21.88898392078868" lon="-102.45789746969187"><ele>1991.9999999999998</ele><time>2026-03-22T15:12:24.976Z</time></trkpt><trkpt lat="21.88895728423485" lon="-102.45800557752365"><ele>1992.0</ele><time>2026-03-22T15:12:25.976Z</time></trkpt><trkpt lat="21.888931504832637" lon="-102.45810946105573"><ele>1992.0</ele><time>2026-03-22T15:12:26.976Z</time></trkpt><trkpt lat="21.888904313300902" lon="-102.45822289458292"><ele>1992.0</ele><time>2026-03-22T15:12:27.976Z</time></trkpt><trkpt lat="21.888874223127566" lon="-102.45833873436703"><ele>1991.9999999999998</ele><time>2026-03-22T15:12:28.976Z</time></trkpt><trkpt lat="21.888853316307124" lon="-102.45843666452127"><ele>1991.9999999999998</ele><time>2026-03-22T15:12:29.976Z</time></trkpt><trkpt lat="21.888822875520074" lon="-102.45855643870286"><ele>1992.0</ele><time>2026-03-22T15:12:30.976Z</time></trkpt><trkpt lat="21.888795805641788" lon="-102.45866310267809"><ele>1992.0</ele><time>2026-03-22T15:12:31.976Z</time></trkpt><trkpt lat="21.88876620888076" lon="-102.45877195724456"><ele>1992.0</ele><time>2026-03-22T15:12:32.976Z</time></trkpt><trkpt lat="21.888739236410814" lon="-102.45887908860796"><ele>1991.9999999999998</ele><time>2026-03-22T15:12:33.976Z</time></trkpt><trkpt lat="21.888715020349963" lon="-102.45899012197542"><ele>1991.9999999999998</ele><time>2026-03-22T15:12:34.976Z</time></trkpt><trkpt lat="21.88868489662458" lon="-102.45910555640573"><ele>1992.0</ele><time>2026-03-22T15:12:35.976Z</time></trkpt><trkpt lat="21.88865911386717" lon="-102.4592192779421"><ele>1992.0</ele><time>2026-03-22T15:12:36.976Z</time></trkpt><trkpt lat="21.88862472266921" lon="-102.45932902614175"><ele>1992.0</ele><time>2026-03-22T15:12:37.976Z</time></trkpt><trkpt lat="21.888588276328147" lon="-102.45944761417266"><ele>1991.9999999999998</ele><time>2026-03-22T15:12:38.976Z</time></trkpt><trkpt lat="21.88855884185301" lon="-102.45957075759443"><ele>1991.9999999999998</ele><time>2026-03-22T15:12:39.976Z</time></trkpt><trkpt lat="21.888538745548736" lon="-102.45967631019211"><ele>1992.0</ele><time>2026-03-22T15:12:40.976Z</time></trkpt><trkpt lat="21.888510486702014" lon="-102.45979111143343"><ele>1992.0</ele><time>2026-03-22T15:12:41.976Z</time></trkpt><trkpt lat="21.888481018721208" lon="-102.45990674880304"><ele>1991.8</ele><time>2026-03-22T15:12:42.976Z</time></trkpt><trkpt lat="21.888444820400203" lon="-102.46001932094387"><ele>1991.6</ele><time>2026-03-22T15:12:43.976Z</time></trkpt><trkpt lat="21.888418058167602" lon="-102.46013120080906"><ele>1991.3999999999999</ele><time>2026-03-22T15:12:44.976Z</time></trkpt><trkpt lat="21.888388551185564" lon="-102.46024296793836"><ele>1991.1999999999998</ele><time>2026-03-22T15:12:45.976Z</time></trkpt><trkpt lat="21.888364435561414" lon="-102.46035222195043"><ele>1991.0</ele><time>2026-03-22T15:12:46.976Z</time></trkpt><trkpt lat="21.888343152364044" lon="-102.46046361698635"><ele>1991.0</ele><time>2026-03-22T15:12:47.976Z</time></trkpt><trkpt lat="21.88831555470494" lon="-102.46057317356315"><ele>1991.0</ele><time>2026-03-22T15:12:48.976Z</time></trkpt><trkpt lat="21.888287579309026" lon="-102.4606781170297"><ele>1991.0</ele><time>2026-03-22T15:12:49.976Z</time></trkpt><trkpt lat="21.88825666522303" lon="-102.46078325634556"><ele>1991.0</ele><time>2026-03-22T15:12:50.976Z</time></trkpt><trkpt lat="21.88822713474683" lon="-102.4608894277729"><ele>1991.0</ele><time>2026-03-22T15:12:51.976Z</time></trkpt><trkpt lat="21.888204055830517" lon="-102.46099426091288"><ele>1991.0</ele><time>2026-03-22T15:12:52.976Z</time></trkpt><trkpt lat="21.888179103096103" lon="-102.46109773122612"><ele>1991.0</ele><time>2026-03-22T15:12:53.976Z</time></trkpt><trkpt lat="21.88815775717422" lon="-102.46120166279495"><ele>1991.0</ele><time>2026-03-22T15:12:54.976Z</time></trkpt><trkpt lat="21.888129096378833" lon="-102.46130750027183"><ele>1991.0</ele><time>2026-03-22T15:12:55.976Z</time></trkpt><trkpt lat="21.88810158691836" lon="-102.46140950250273"><ele>1991.0</ele><time>2026-03-22T15:12:56.976Z</time></trkpt><trkpt lat="21.88807213622392" lon="-102.46150527184503"><ele>1992.0</ele><time>2026-03-22T15:12:57.976Z</time></trkpt><trkpt lat="21.88804064456133" lon="-102.46160910181216"><ele>1993.0</ele><time>2026-03-22T15:12:58.976Z</time></trkpt><trkpt lat="21.888022021252297" lon="-102.46170557706284"><ele>1994.0</ele><time>2026-03-22T15:12:59.976Z</time></trkpt><trkpt lat="21.88799346571217" lon="-102.46179629859415"><ele>1995.0</ele><time>2026-03-22T15:13:00.976Z</time></trkpt><trkpt lat="21.887969521263518" lon="-102.46189762733607"><ele>1996.0</ele><time>2026-03-22T15:13:01.976Z</time></trkpt><trkpt lat="21.887948168464867" lon="-102.4619944375108"><ele>1996.0</ele><time>2026-03-22T15:13:02.976Z</time></trkpt><trkpt lat="21.887926391430618" lon="-102.46209397689482"><ele>1996.0</ele><time>2026-03-22T15:13:03.976Z</time></trkpt><trkpt lat="21.88790346296319" lon="-102.46219349905822"><ele>1996.0</ele><time>2026-03-22T15:13:04.976Z</time></trkpt><trkpt lat="21.88787803276124" lon="-102.46229959597628"><ele>1996.0</ele><time>2026-03-22T15:13:05.976Z</time></trkpt><trkpt lat="21.887855380904586" lon="-102.46240523904608"><ele>1996.0</ele><time>2026-03-22T15:13:06.976Z</time></trkpt><trkpt lat="21.887820340458" lon="-102.46250973059928"><ele>1996.0</ele><time>2026-03-22T15:13:07.976Z</time></trkpt><trkpt lat="21.88779101727225" lon="-102.46261115321674"><ele>1996.0</ele><time>2026-03-22T15:13:08.976Z</time></trkpt><trkpt lat="21.887770392649966" lon="-102.46272764197121"><ele>1996.0</ele><time>2026-03-22T15:13:09.976Z</time></trkpt><trkpt lat="21.887744054068726" lon="-102.462840085299"><ele>1996.0</ele><time>2026-03-22T15:13:10.976Z</time></trkpt><trkpt lat="21.887720747696825" lon="-102.46296791260312"><ele>1996.0</ele><time>2026-03-22T15:13:11.976Z</time></trkpt><trkpt lat="21.887690368891548" lon="-102.46308138145442"><ele>1995.25</ele><time>2026-03-22T15:13:12.976Z</time></trkpt><trkpt lat="21.887655277248875" lon="-102.46319703365235"><ele>1994.5</ele><time>2026-03-22T15:13:13.976Z</time></trkpt><trkpt lat="21.887620891236907" lon="-102.4633089585126"><ele>1993.75</ele><time>2026-03-22T15:13:14.976Z</time></trkpt><trkpt lat="21.88759029770078" lon="-102.46343943645236"><ele>1993.0</ele><time>2026-03-22T15:13:15.976Z</time></trkpt><trkpt lat="21.887558811301243" lon="-102.46355964470045"><ele>1992.75</ele><time>2026-03-22T15:13:16.976Z</time></trkpt><trkpt lat="21.887512961776842" lon="-102.46367879711929"><ele>1992.5</ele><time>2026-03-22T15:13:17.976Z</time></trkpt><trkpt lat="21.88747278373602" lon="-102.46380241392536"><ele>1992.25</ele><time>2026-03-22T15:13:18.976Z</time></trkpt><trkpt lat="21.887439597187466" lon="-102.46392579320364"><ele>1992.0</ele><time>2026-03-22T15:13:19.976Z</time></trkpt><trkpt lat="21.887411905514554" lon="-102.46404783195977"><ele>1991.0</ele><time>2026-03-22T15:13:20.976Z</time></trkpt><trkpt lat="21.887387981628585" lon="-102.46417133874156"><ele>1990.0</ele><time>2026-03-22T15:13:21.976Z</time></trkpt><trkpt lat="21.887358559951977" lon="-102.46429675148349"><ele>1989.0</ele><time>2026-03-22T15:13:22.976Z</time></trkpt><trkpt lat="21.887324559165915" lon="-102.4644199987736"><ele>1988.0</ele><time>2026-03-22T15:13:23.975Z</time></trkpt><trkpt lat="21.887288729178824" lon="-102.46454272746024"><ele>1986.5</ele><time>2026-03-22T15:13:24.975Z</time></trkpt><trkpt lat="21.887251860593814" lon="-102.46466516305449"><ele>1985.0</ele><time>2026-03-22T15:13:25.975Z</time></trkpt><trkpt lat="21.887220411740554" lon="-102.46478496970232"><ele>1983.5</ele><time>2026-03-22T15:13:26.975Z</time></trkpt><trkpt lat="21.88719182091166" lon="-102.46489991267023"><ele>1982.0</ele><time>2026-03-22T15:13:27.976Z</time></trkpt><trkpt lat="21.88715959768809" lon="-102.46501547756479"><ele>1982.0</ele><time>2026-03-22T15:13:28.976Z</time></trkpt><trkpt lat="21.887128843681047" lon="-102.46512793506554"><ele>1981.9999999999998</ele><time>2026-03-22T15:13:29.976Z</time></trkpt><trkpt lat="21.887099347507924" lon="-102.46523971596714"><ele>1981.9999999999998</ele><time>2026-03-22T15:13:30.976Z</time></trkpt><trkpt lat="21.887070347669237" lon="-102.46534987652748"><ele>1982.0</ele><time>2026-03-22T15:13:31.976Z</time></trkpt><trkpt lat="21.887041762489666" lon="-102.46545658544511"><ele>1982.0</ele><time>2026-03-22T15:13:32.976Z</time></trkpt><trkpt lat="21.887016223837936" lon="-102.46555343679245"><ele>1981.9999999999998</ele><time>2026-03-22T15:13:33.976Z</time></trkpt><trkpt lat="21.886993384336048" lon="-102.4656466794884"><ele>1982.0</ele><time>2026-03-22T15:13:34.976Z</time></trkpt><trkpt lat="21.886970950959505" lon="-102.46573845155275"><ele>1982.0</ele><time>2026-03-22T15:13:35.976Z</time></trkpt><trkpt lat="21.886947070530113" lon="-102.46582886399737"><ele>1982.0</ele><time>2026-03-22T15:13:36.975Z</time></trkpt><trkpt lat="21.886926560731542" lon="-102.4659139736582"><ele>1981.9999999999998</ele><time>2026-03-22T15:13:37.976Z</time></trkpt><trkpt lat="21.886904878616804" lon="-102.46599767011149"><ele>1982.0</ele><time>2026-03-22T15:13:38.976Z</time></trkpt><trkpt lat="21.886884742609137" lon="-102.4660786355848"><ele>1982.0000000000002</ele><time>2026-03-22T15:13:39.975Z</time></trkpt><trkpt lat="21.886863526132213" lon="-102.46615499754762"><ele>1982.0</ele><time>2026-03-22T15:13:40.976Z</time></trkpt><trkpt lat="21.88684700504079" lon="-102.46623073882749"><ele>1982.0000000000002</ele><time>2026-03-22T15:13:41.976Z</time></trkpt><trkpt lat="21.886823488248762" lon="-102.46631186981082"><ele>1982.0000000000002</ele><time>2026-03-22T15:13:42.976Z</time></trkpt><trkpt lat="21.88681224588006" lon="-102.46638595046309"><ele>1982.0</ele><time>2026-03-22T15:13:43.976Z</time></trkpt><trkpt lat="21.88679484306959" lon="-102.46645840613677"><ele>1982.0000000000002</ele><time>2026-03-22T15:13:44.976Z</time></trkpt><trkpt lat="21.886777661619686" lon="-102.46653273374542"><ele>1982.0000000000002</ele><time>2026-03-22T15:13:45.976Z</time></trkpt><trkpt lat="21.886746716398072" lon="-102.46667453681809"><ele>1983.6</ele><time>2026-03-22T15:13:47.976Z</time></trkpt><trkpt lat="21.886708664694495" lon="-102.46681367144306"><ele>1985.1999999999998</ele><time>2026-03-22T15:13:49.976Z</time></trkpt><trkpt lat="21.88668046011865" lon="-102.46694307559868"><ele>1986.8</ele><time>2026-03-22T15:13:51.976Z</time></trkpt><trkpt lat="21.88666093052905" lon="-102.46701259996038"><ele>1988.4</ele><time>2026-03-22T15:13:52.976Z</time></trkpt><trkpt lat="21.886640221182063" lon="-102.46707951742165"><ele>1990.0</ele><time>2026-03-22T15:13:53.976Z</time></trkpt><trkpt lat="21.886624153468787" lon="-102.4671460439829"><ele>1990.5000000000002</ele><time>2026-03-22T15:13:54.976Z</time></trkpt><trkpt lat="21.88660699580754" lon="-102.46721461499025"><ele>1991.0</ele><time>2026-03-22T15:13:55.976Z</time></trkpt><trkpt lat="21.886592456496377" lon="-102.46728086818815"><ele>1991.5</ele><time>2026-03-22T15:13:56.976Z</time></trkpt><trkpt lat="21.88657541512955" lon="-102.46735062359429"><ele>1992.0</ele><time>2026-03-22T15:13:57.976Z</time></trkpt><trkpt lat="21.886559616875257" lon="-102.46741872011253"><ele>1992.5000000000002</ele><time>2026-03-22T15:13:58.976Z</time></trkpt><trkpt lat="21.88652167875011" lon="-102.46755573354174"><ele>1993.0</ele><time>2026-03-22T15:14:00.976Z</time></trkpt><trkpt lat="21.88650160901104" lon="-102.46762487029079"><ele>1993.0</ele><time>2026-03-22T15:14:01.976Z</time></trkpt><trkpt lat="21.88648334963543" lon="-102.46769155680272"><ele>1993.0</ele><time>2026-03-22T15:14:02.976Z</time></trkpt><trkpt lat="21.886467398640747" lon="-102.46776551838653"><ele>1993.0</ele><time>2026-03-22T15:14:03.976Z</time></trkpt><trkpt lat="21.886448775877046" lon="-102.46783783794206"><ele>1993.0</ele><time>2026-03-22T15:14:04.976Z</time></trkpt><trkpt lat="21.886435137596983" lon="-102.46790440688905"><ele>1993.0</ele><time>2026-03-22T15:14:05.976Z</time></trkpt><trkpt lat="21.88642581750437" lon="-102.46798640213191"><ele>1993.0</ele><time>2026-03-22T15:14:06.976Z</time></trkpt><trkpt lat="21.886403524881036" lon="-102.46805318338845"><ele>1993.0</ele><time>2026-03-22T15:14:07.976Z</time></trkpt><trkpt lat="21.886383735932085" lon="-102.4681254423481"><ele>1993.0</ele><time>2026-03-22T15:14:08.976Z</time></trkpt><trkpt lat="21.886364665750023" lon="-102.46819342063472"><ele>1993.0</ele><time>2026-03-22T15:14:09.976Z</time></trkpt><trkpt lat="21.886354340199052" lon="-102.46826982410738"><ele>1993.0</ele><time>2026-03-22T15:14:10.976Z</time></trkpt><trkpt lat="21.886343038192862" lon="-102.46834060450172"><ele>1993.0</ele><time>2026-03-22T15:14:11.976Z</time></trkpt><trkpt lat="21.88632592429293" lon="-102.4684173509269"><ele>1993.0</ele><time>2026-03-22T15:14:12.976Z</time></trkpt><trkpt lat="21.886310162651466" lon="-102.46849169238176"><ele>1993.0</ele><time>2026-03-22T15:14:13.976Z</time></trkpt><trkpt lat="21.886294007705775" lon="-102.4685759905045"><ele>1993.0</ele><time>2026-03-22T15:14:14.976Z</time></trkpt><trkpt lat="21.886283303123772" lon="-102.46864872171255"><ele>1993.0</ele><time>2026-03-22T15:14:15.976Z</time></trkpt><trkpt lat="21.886264565560438" lon="-102.46872778653905"><ele>1993.0</ele><time>2026-03-22T15:14:16.976Z</time></trkpt><trkpt lat="21.886243193436155" lon="-102.46880675907163"><ele>1993.0</ele><time>2026-03-22T15:14:17.976Z</time></trkpt><trkpt lat="21.886223902596615" lon="-102.46888429775301"><ele>1993.0</ele><time>2026-03-22T15:14:18.976Z</time></trkpt><trkpt lat="21.88620522171895" lon="-102.46896190650308"><ele>1993.0</ele><time>2026-03-22T15:14:19.975Z</time></trkpt><trkpt lat="21.886188922893997" lon="-102.46903428899414"><ele>1993.0</ele><time>2026-03-22T15:14:20.975Z</time></trkpt><trkpt lat="21.88617376967071" lon="-102.46911321307738"><ele>1993.0</ele><time>2026-03-22T15:14:21.975Z</time></trkpt><trkpt lat="21.8861558732056" lon="-102.46919411673274"><ele>1992.6666666666667</ele><time>2026-03-22T15:14:22.975Z</time></trkpt><trkpt lat="21.886137776583315" lon="-102.46927610940797"><ele>1992.3333333333335</ele><time>2026-03-22T15:14:23.975Z</time></trkpt><trkpt lat="21.886118254713896" lon="-102.46935755734414"><ele>1992.0</ele><time>2026-03-22T15:14:24.975Z</time></trkpt><trkpt lat="21.886102581211613" lon="-102.46944184661143"><ele>1991.6666666666665</ele><time>2026-03-22T15:14:25.975Z</time></trkpt><trkpt lat="21.88608076860593" lon="-102.46952909260797"><ele>1991.3333333333333</ele><time>2026-03-22T15:14:26.975Z</time></trkpt><trkpt lat="21.886070203690426" lon="-102.46961459754424"><ele>1991.0</ele><time>2026-03-22T15:14:27.975Z</time></trkpt><trkpt lat="21.88605309090494" lon="-102.46970527419755"><ele>1990.9999999999998</ele><time>2026-03-22T15:14:28.975Z</time></trkpt><trkpt lat="21.886032678935443" lon="-102.46978977717447"><ele>1991.0</ele><time>2026-03-22T15:14:29.975Z</time></trkpt><trkpt lat="21.886010827909953" lon="-102.46987428799731"><ele>1991.0</ele><time>2026-03-22T15:14:30.975Z</time></trkpt><trkpt lat="21.88600196375358" lon="-102.46995755904092"><ele>1991.0</ele><time>2026-03-22T15:14:31.975Z</time></trkpt><trkpt lat="21.885992121174294" lon="-102.47004274525322"><ele>1990.9999999999998</ele><time>2026-03-22T15:14:32.975Z</time></trkpt><trkpt lat="21.885983485472607" lon="-102.47012953531706"><ele>1991.0</ele><time>2026-03-22T15:14:33.975Z</time></trkpt><trkpt lat="21.885975450240615" lon="-102.47021287590618"><ele>1990.9999999999998</ele><time>2026-03-22T15:14:34.975Z</time></trkpt><trkpt lat="21.88596616611277" lon="-102.47030446369025"><ele>1991.0</ele><time>2026-03-22T15:14:35.975Z</time></trkpt><trkpt lat="21.885959140289742" lon="-102.47039279209726"><ele>1991.0</ele><time>2026-03-22T15:14:36.975Z</time></trkpt><trkpt lat="21.88595969939721" lon="-102.47048487035087"><ele>1991.0</ele><time>2026-03-22T15:14:37.975Z</time></trkpt><trkpt lat="21.88595719390738" lon="-102.4705779974481"><ele>1990.9999999999998</ele><time>2026-03-22T15:14:38.975Z</time></trkpt><trkpt lat="21.88595059788111" lon="-102.47066995689796"><ele>1991.0</ele><time>2026-03-22T15:14:39.975Z</time></trkpt><trkpt lat="21.885945197161796" lon="-102.47076867035776"><ele>1990.9999999999998</ele><time>2026-03-22T15:14:40.975Z</time></trkpt><trkpt lat="21.88594944693375" lon="-102.47085367582032"><ele>1991.0</ele><time>2026-03-22T15:14:41.975Z</time></trkpt><trkpt lat="21.885958320415327" lon="-102.4709595628876"><ele>1991.0</ele><time>2026-03-22T15:14:42.975Z</time></trkpt><trkpt lat="21.885970210733323" lon="-102.4710482534618"><ele>1991.0</ele><time>2026-03-22T15:14:43.975Z</time></trkpt><trkpt lat="21.88597598418142" lon="-102.47114125610864"><ele>1990.9999999999998</ele><time>2026-03-22T15:14:44.975Z</time></trkpt><trkpt lat="21.885987847734242" lon="-102.47123222551008"><ele>1991.0</ele><time>2026-03-22T15:14:45.975Z</time></trkpt><trkpt lat="21.8859996188745" lon="-102.47133087744388"><ele>1990.8</ele><time>2026-03-22T15:14:46.975Z</time></trkpt><trkpt lat="21.886003902115604" lon="-102.47141891502258"><ele>1990.6</ele><time>2026-03-22T15:14:47.975Z</time></trkpt><trkpt lat="21.886018035924756" lon="-102.47152008513925"><ele>1990.4</ele><time>2026-03-22T15:14:48.975Z</time></trkpt><trkpt lat="21.8860345716112" lon="-102.47162501567546"><ele>1990.2</ele><time>2026-03-22T15:14:49.975Z</time></trkpt><trkpt lat="21.886045757376248" lon="-102.47172961336705"><ele>1990.0</ele><time>2026-03-22T15:14:50.975Z</time></trkpt><trkpt lat="21.886057428421115" lon="-102.47183582156468"><ele>1990.0</ele><time>2026-03-22T15:14:51.975Z</time></trkpt><trkpt lat="21.88606973198104" lon="-102.47194349224645"><ele>1990.0</ele><time>2026-03-22T15:14:52.975Z</time></trkpt><trkpt lat="21.886084113516464" lon="-102.47204717881687"><ele>1990.0</ele><time>2026-03-22T15:14:53.975Z</time></trkpt><trkpt lat="21.886099804120132" lon="-102.4721704786795"><ele>1990.0</ele><time>2026-03-22T15:14:54.975Z</time></trkpt><trkpt lat="21.886110815388598" lon="-102.47228490087633"><ele>1990.0</ele><time>2026-03-22T15:14:55.975Z</time></trkpt><trkpt lat="21.88613060457681" lon="-102.47240565760741"><ele>1989.5</ele><time>2026-03-22T15:14:56.975Z</time></trkpt><trkpt lat="21.88614332092402" lon="-102.47252438298915"><ele>1989.0</ele><time>2026-03-22T15:14:57.975Z</time></trkpt><trkpt lat="21.886159298100814" lon="-102.47264470986127"><ele>1988.5</ele><time>2026-03-22T15:14:58.975Z</time></trkpt><trkpt lat="21.88617660314565" lon="-102.4727738583358"><ele>1988.0</ele><time>2026-03-22T15:14:59.975Z</time></trkpt><trkpt lat="21.886190435770878" lon="-102.47289769079762"><ele>1987.25</ele><time>2026-03-22T15:15:00.975Z</time></trkpt><trkpt lat="21.886205331638777" lon="-102.47303095400184"><ele>1986.5</ele><time>2026-03-22T15:15:01.975Z</time></trkpt><trkpt lat="21.88622868926216" lon="-102.47316087120397"><ele>1985.75</ele><time>2026-03-22T15:15:02.975Z</time></trkpt><trkpt lat="21.886244366730857" lon="-102.4732907944553"><ele>1985.0</ele><time>2026-03-22T15:15:03.975Z</time></trkpt><trkpt lat="21.88626700659264" lon="-102.4734180294918"><ele>1985.0</ele><time>2026-03-22T15:15:04.975Z</time></trkpt><trkpt lat="21.886283198315684" lon="-102.47355839913017"><ele>1985.0</ele><time>2026-03-22T15:15:05.975Z</time></trkpt><trkpt lat="21.886300314310606" lon="-102.47369556402165"><ele>1985.0</ele><time>2026-03-22T15:15:06.975Z</time></trkpt><trkpt lat="21.88631484551922" lon="-102.47382316454167"><ele>1985.0</ele><time>2026-03-22T15:15:07.975Z</time></trkpt><trkpt lat="21.886330913111312" lon="-102.47395660839808"><ele>1984.0</ele><time>2026-03-22T15:15:08.975Z</time></trkpt><trkpt lat="21.88634858262628" lon="-102.47408039324871"><ele>1983.0</ele><time>2026-03-22T15:15:09.975Z</time></trkpt><trkpt lat="21.88636584360737" lon="-102.47422134814599"><ele>1982.0</ele><time>2026-03-22T15:15:10.975Z</time></trkpt><trkpt lat="21.886388181669155" lon="-102.47435156341702"><ele>1981.0</ele><time>2026-03-22T15:15:11.975Z</time></trkpt><trkpt lat="21.886399610480073" lon="-102.47448227006586"><ele>1981.5</ele><time>2026-03-22T15:15:12.975Z</time></trkpt><trkpt lat="21.886414068599684" lon="-102.47460814024201"><ele>1982.0</ele><time>2026-03-22T15:15:13.975Z</time></trkpt><trkpt lat="21.886427886501597" lon="-102.47473207854745"><ele>1982.5</ele><time>2026-03-22T15:15:14.975Z</time></trkpt><trkpt lat="21.88644446403357" lon="-102.47485945862388"><ele>1983.0</ele><time>2026-03-22T15:15:15.975Z</time></trkpt><trkpt lat="21.88646058128758" lon="-102.47498454929433"><ele>1983.0</ele><time>2026-03-22T15:15:16.975Z</time></trkpt><trkpt lat="21.88646890678326" lon="-102.47511449609235"><ele>1983.0</ele><time>2026-03-22T15:15:17.975Z</time></trkpt><trkpt lat="21.886480579375668" lon="-102.47524020197"><ele>1983.0</ele><time>2026-03-22T15:15:18.975Z</time></trkpt><trkpt lat="21.886498252320727" lon="-102.47536912650693"><ele>1983.0</ele><time>2026-03-22T15:15:19.975Z</time></trkpt><trkpt lat="21.886520082955776" lon="-102.47549545504118"><ele>1983.25</ele><time>2026-03-22T15:15:20.975Z</time></trkpt><trkpt lat="21.886532987182214" lon="-102.47561716151131"><ele>1983.5</ele><time>2026-03-22T15:15:21.975Z</time></trkpt><trkpt lat="21.886552177333208" lon="-102.47574211129029"><ele>1983.75</ele><time>2026-03-22T15:15:22.975Z</time></trkpt><trkpt lat="21.88656467759739" lon="-102.47586797901077"><ele>1984.0</ele><time>2026-03-22T15:15:23.974Z</time></trkpt><trkpt lat="21.886580902986097" lon="-102.47599370920427"><ele>1984.0</ele><time>2026-03-22T15:15:24.974Z</time></trkpt><trkpt lat="21.886599429085003" lon="-102.47612010306167"><ele>1984.0</ele><time>2026-03-22T15:15:25.974Z</time></trkpt><trkpt lat="21.88661547304284" lon="-102.4762420061641"><ele>1984.0</ele><time>2026-03-22T15:15:26.974Z</time></trkpt><trkpt lat="21.886628554616514" lon="-102.47636795462898"><ele>1984.0</ele><time>2026-03-22T15:15:27.974Z</time></trkpt><trkpt lat="21.88664523258944" lon="-102.47649197106908"><ele>1983.0</ele><time>2026-03-22T15:15:28.974Z</time></trkpt><trkpt lat="21.8866625538826" lon="-102.47662008932102"><ele>1982.0</ele><time>2026-03-22T15:15:29.974Z</time></trkpt><trkpt lat="21.886679957247143" lon="-102.47674419747942"><ele>1981.0</ele><time>2026-03-22T15:15:30.974Z</time></trkpt><trkpt lat="21.88669552276418" lon="-102.47686781585297"><ele>1980.0</ele><time>2026-03-22T15:15:31.974Z</time></trkpt><trkpt lat="21.886711956398003" lon="-102.4769908549923"><ele>1980.0</ele><time>2026-03-22T15:15:32.974Z</time></trkpt><trkpt lat="21.886726862307043" lon="-102.47711183983756"><ele>1980.0</ele><time>2026-03-22T15:15:33.975Z</time></trkpt><trkpt lat="21.88674298752651" lon="-102.47723297967923"><ele>1980.0</ele><time>2026-03-22T15:15:34.975Z</time></trkpt><trkpt lat="21.886758572287654" lon="-102.47735242844715"><ele>1980.0</ele><time>2026-03-22T15:15:35.975Z</time></trkpt><trkpt lat="21.88676950197031" lon="-102.4774677648684"><ele>1980.0</ele><time>2026-03-22T15:15:36.975Z</time></trkpt><trkpt lat="21.886785851180278" lon="-102.47758107208648"><ele>1981.6</ele><time>2026-03-22T15:15:37.975Z</time></trkpt><trkpt lat="21.886798816908247" lon="-102.47769466766074"><ele>1983.2</ele><time>2026-03-22T15:15:38.975Z</time></trkpt><trkpt lat="21.886811183350318" lon="-102.47780458044441"><ele>1984.8000000000002</ele><time>2026-03-22T15:15:39.975Z</time></trkpt><trkpt lat="21.886822513295275" lon="-102.47791435772491"><ele>1986.4</ele><time>2026-03-22T15:15:40.974Z</time></trkpt><trkpt lat="21.886838738756467" lon="-102.47802162353105"><ele>1988.0</ele><time>2026-03-22T15:15:41.974Z</time></trkpt><trkpt lat="21.886853543960047" lon="-102.4781239999786"><ele>1988.3333333333333</ele><time>2026-03-22T15:15:42.975Z</time></trkpt><trkpt lat="21.88686657669405" lon="-102.47822409363242"><ele>1988.6666666666665</ele><time>2026-03-22T15:15:43.975Z</time></trkpt><trkpt lat="21.8868769791408" lon="-102.4783217326926"><ele>1989.0</ele><time>2026-03-22T15:15:44.975Z</time></trkpt><trkpt lat="21.88688659684203" lon="-102.47841914519827"><ele>1989.3333333333335</ele><time>2026-03-22T15:15:45.975Z</time></trkpt><trkpt lat="21.88689767057311" lon="-102.47851207929375"><ele>1989.6666666666667</ele><time>2026-03-22T15:15:46.975Z</time></trkpt><trkpt lat="21.88690910690188" lon="-102.47860179632615"><ele>1990.0</ele><time>2026-03-22T15:15:47.975Z</time></trkpt><trkpt lat="21.886920918236232" lon="-102.47869665772316"><ele>1990.0000000000002</ele><time>2026-03-22T15:15:48.975Z</time></trkpt><trkpt lat="21.886933985313604" lon="-102.47878506637608"><ele>1990.0</ele><time>2026-03-22T15:15:49.975Z</time></trkpt><trkpt lat="21.88694673681917" lon="-102.47887438134354"><ele>1990.0</ele><time>2026-03-22T15:15:50.975Z</time></trkpt><trkpt lat="21.886961290277203" lon="-102.47896013160599"><ele>1990.0</ele><time>2026-03-22T15:15:51.975Z</time></trkpt><trkpt lat="21.886970466177946" lon="-102.47904224274582"><ele>1990.0000000000002</ele><time>2026-03-22T15:15:52.975Z</time></trkpt><trkpt lat="21.886980785618906" lon="-102.47912582958547"><ele>1990.0</ele><time>2026-03-22T15:15:53.975Z</time></trkpt><trkpt lat="21.886992214659998" lon="-102.47920737657095"><ele>1990.0000000000002</ele><time>2026-03-22T15:15:54.975Z</time></trkpt><trkpt lat="21.88700542727494" lon="-102.47928961048366"><ele>1990.0</ele><time>2026-03-22T15:15:55.975Z</time></trkpt><trkpt lat="21.88701811659978" lon="-102.47936982492351"><ele>1990.0</ele><time>2026-03-22T15:15:56.975Z</time></trkpt><trkpt lat="21.887027875321007" lon="-102.47945441032658"><ele>1990.0</ele><time>2026-03-22T15:15:57.975Z</time></trkpt><trkpt lat="21.887037517154805" lon="-102.47954102100061"><ele>1990.0000000000002</ele><time>2026-03-22T15:15:58.975Z</time></trkpt><trkpt lat="21.887049738736035" lon="-102.47962354901254"><ele>1990.0</ele><time>2026-03-22T15:15:59.975Z</time></trkpt><trkpt lat="21.887061858826847" lon="-102.47970353082258"><ele>1990.5000000000002</ele><time>2026-03-22T15:16:00.975Z</time></trkpt><trkpt lat="21.88706838635939" lon="-102.47978030282908"><ele>1991.0</ele><time>2026-03-22T15:16:01.975Z</time></trkpt><trkpt lat="21.887076798853624" lon="-102.47985808127173"><ele>1991.5</ele><time>2026-03-22T15:16:02.975Z</time></trkpt><trkpt lat="21.88708957780661" lon="-102.47993751259759"><ele>1992.0</ele><time>2026-03-22T15:16:03.975Z</time></trkpt><trkpt lat="21.887100303580294" lon="-102.48001858386935"><ele>1992.5000000000002</ele><time>2026-03-22T15:16:04.975Z</time></trkpt><trkpt lat="21.887111167376887" lon="-102.48010007855052"><ele>1993.0</ele><time>2026-03-22T15:16:05.975Z</time></trkpt><trkpt lat="21.88712558177822" lon="-102.48018355339667"><ele>1993.0000000000002</ele><time>2026-03-22T15:16:06.975Z</time></trkpt><trkpt lat="21.887133403902702" lon="-102.48025748844263"><ele>1993.0</ele><time>2026-03-22T15:16:07.975Z</time></trkpt><trkpt lat="21.88714310348415" lon="-102.4803422284239"><ele>1993.0</ele><time>2026-03-22T15:16:08.975Z</time></trkpt><trkpt lat="21.887151222463856" lon="-102.48042105019067"><ele>1993.0</ele><time>2026-03-22T15:16:09.975Z</time></trkpt><trkpt lat="21.887157633128687" lon="-102.48050749388844"><ele>1993.0000000000002</ele><time>2026-03-22T15:16:10.975Z</time></trkpt><trkpt lat="21.887168042605932" lon="-102.48058985799643"><ele>1993.0</ele><time>2026-03-22T15:16:11.975Z</time></trkpt><trkpt lat="21.887178167330195" lon="-102.48067136659336"><ele>1993.1666666666667</ele><time>2026-03-22T15:16:12.975Z</time></trkpt><trkpt lat="21.887188226815613" lon="-102.48074625838005"><ele>1993.3333333333335</ele><time>2026-03-22T15:16:13.975Z</time></trkpt><trkpt lat="21.88719831889358" lon="-102.48082419049857"><ele>1993.5</ele><time>2026-03-22T15:16:14.975Z</time></trkpt><trkpt lat="21.887210552237136" lon="-102.48091064452804"><ele>1993.6666666666665</ele><time>2026-03-22T15:16:15.975Z</time></trkpt><trkpt lat="21.88721956710927" lon="-102.48099573938083"><ele>1993.8333333333333</ele><time>2026-03-22T15:16:16.975Z</time></trkpt><trkpt lat="21.887232810156654" lon="-102.48108132674598"><ele>1994.0</ele><time>2026-03-22T15:16:17.975Z</time></trkpt><trkpt lat="21.887240082114474" lon="-102.48116345867362"><ele>1993.9999999999998</ele><time>2026-03-22T15:16:18.975Z</time></trkpt><trkpt lat="21.88724896690989" lon="-102.4812444379712"><ele>1994.0</ele><time>2026-03-22T15:16:19.975Z</time></trkpt><trkpt lat="21.88726614619812" lon="-102.48133141940025"><ele>1994.0</ele><time>2026-03-22T15:16:20.975Z</time></trkpt><trkpt lat="21.88728067363411" lon="-102.48141661482197"><ele>1994.0</ele><time>2026-03-22T15:16:21.975Z</time></trkpt><trkpt lat="21.887288030723607" lon="-102.48150282938288"><ele>1993.9999999999998</ele><time>2026-03-22T15:16:22.975Z</time></trkpt><trkpt lat="21.88729772750567" lon="-102.48158910997905"><ele>1994.0</ele><time>2026-03-22T15:16:23.975Z</time></trkpt><trkpt lat="21.88730492096977" lon="-102.48167290126273"><ele>1993.9999999999998</ele><time>2026-03-22T15:16:24.975Z</time></trkpt><trkpt lat="21.887322049507723" lon="-102.48176764797535"><ele>1994.0</ele><time>2026-03-22T15:16:25.975Z</time></trkpt><trkpt lat="21.887333586864358" lon="-102.48185902927736"><ele>1994.0</ele><time>2026-03-22T15:16:26.975Z</time></trkpt><trkpt lat="21.88734135562197" lon="-102.48194952810105"><ele>1994.0</ele><time>2026-03-22T15:16:27.974Z</time></trkpt><trkpt lat="21.8873531283691" lon="-102.48203803731306"><ele>1993.9999999999998</ele><time>2026-03-22T15:16:28.974Z</time></trkpt><trkpt lat="21.88736496843916" lon="-102.48213015678417"><ele>1994.0</ele><time>2026-03-22T15:16:29.974Z</time></trkpt><trkpt lat="21.88737407773642" lon="-102.48221455169563"><ele>1993.9999999999998</ele><time>2026-03-22T15:16:30.974Z</time></trkpt><trkpt lat="21.887387787044265" lon="-102.4823064691714"><ele>1994.0</ele><time>2026-03-22T15:16:31.974Z</time></trkpt><trkpt lat="21.887398335249834" lon="-102.4823997513117"><ele>1994.0</ele><time>2026-03-22T15:16:32.974Z</time></trkpt><trkpt lat="21.88741326536808" lon="-102.48249314509081"><ele>1994.0</ele><time>2026-03-22T15:16:33.974Z</time></trkpt><trkpt lat="21.887427248092905" lon="-102.48259055232403"><ele>1993.9999999999998</ele><time>2026-03-22T15:16:34.974Z</time></trkpt><trkpt lat="21.887437127904132" lon="-102.48268652064013"><ele>1994.0</ele><time>2026-03-22T15:16:35.974Z</time></trkpt><trkpt lat="21.88745150362456" lon="-102.48278388396574"><ele>1993.9999999999998</ele><time>2026-03-22T15:16:36.974Z</time></trkpt><trkpt lat="21.887459018155052" lon="-102.48288222552941"><ele>1994.0</ele><time>2026-03-22T15:16:37.974Z</time></trkpt><trkpt lat="21.887471029831268" lon="-102.48297426926726"><ele>1994.0</ele><time>2026-03-22T15:16:38.974Z</time></trkpt><trkpt lat="21.887480312074956" lon="-102.48306958369587"><ele>1994.0</ele><time>2026-03-22T15:16:39.974Z</time></trkpt><trkpt lat="21.887490837630597" lon="-102.48316807177149"><ele>1993.9999999999998</ele><time>2026-03-22T15:16:40.974Z</time></trkpt><trkpt lat="21.887505723797783" lon="-102.48325944084307"><ele>1994.0</ele><time>2026-03-22T15:16:41.974Z</time></trkpt><trkpt lat="21.887517316815252" lon="-102.48334993199519"><ele>1994.1666666666665</ele><time>2026-03-22T15:16:42.974Z</time></trkpt><trkpt lat="21.887523659957157" lon="-102.48344194276335"><ele>1994.3333333333333</ele><time>2026-03-22T15:16:43.974Z</time></trkpt><trkpt lat="21.88753050422085" lon="-102.48353268512042"><ele>1994.5</ele><time>2026-03-22T15:16:44.974Z</time></trkpt><trkpt lat="21.8875425105443" lon="-102.4836160866776"><ele>1994.6666666666665</ele><time>2026-03-22T15:16:45.974Z</time></trkpt><trkpt lat="21.887562951891848" lon="-102.48370064951798"><ele>1994.8333333333333</ele><time>2026-03-22T15:16:46.974Z</time></trkpt><trkpt lat="21.887571546370367" lon="-102.48378339400513"><ele>1995.0</ele><time>2026-03-22T15:16:47.974Z</time></trkpt><trkpt lat="21.887585575940257" lon="-102.48386582256518"><ele>1995.0</ele><time>2026-03-22T15:16:48.974Z</time></trkpt><trkpt lat="21.887601747143012" lon="-102.48395181063653"><ele>1995.0</ele><time>2026-03-22T15:16:49.974Z</time></trkpt><trkpt lat="21.887614688550727" lon="-102.48404133480749"><ele>1995.0</ele><time>2026-03-22T15:16:50.974Z</time></trkpt><trkpt lat="21.88762705736155" lon="-102.484132565021"><ele>1995.0</ele><time>2026-03-22T15:16:51.974Z</time></trkpt><trkpt lat="21.887636114659536" lon="-102.48422489792553"><ele>1995.0</ele><time>2026-03-22T15:16:52.974Z</time></trkpt><trkpt lat="21.887645917199645" lon="-102.48431423047553"><ele>1995.0</ele><time>2026-03-22T15:16:53.974Z</time></trkpt><trkpt lat="21.887655909838323" lon="-102.48440550507972"><ele>1995.0</ele><time>2026-03-22T15:16:54.974Z</time></trkpt><trkpt lat="21.887670713807783" lon="-102.48449834416984"><ele>1995.0</ele><time>2026-03-22T15:16:55.974Z</time></trkpt><trkpt lat="21.887683920159603" lon="-102.48458699028366"><ele>1995.0</ele><time>2026-03-22T15:16:56.974Z</time></trkpt><trkpt lat="21.887694456385514" lon="-102.48467565475444"><ele>1995.0</ele><time>2026-03-22T15:16:57.974Z</time></trkpt><trkpt lat="21.887703585058738" lon="-102.48476121842698"><ele>1995.0</ele><time>2026-03-22T15:16:58.974Z</time></trkpt><trkpt lat="21.887709732254404" lon="-102.48484336388283"><ele>1995.0</ele><time>2026-03-22T15:16:59.974Z</time></trkpt><trkpt lat="21.887722932866268" lon="-102.48492802782225"><ele>1994.8333333333333</ele><time>2026-03-22T15:17:00.974Z</time></trkpt><trkpt lat="21.887739761062928" lon="-102.48501707059248"><ele>1994.6666666666665</ele><time>2026-03-22T15:17:01.974Z</time></trkpt><trkpt lat="21.887756345194582" lon="-102.48510928180967"><ele>1994.5</ele><time>2026-03-22T15:17:02.974Z</time></trkpt><trkpt lat="21.887758310916233" lon="-102.48520203849284"><ele>1994.3333333333333</ele><time>2026-03-22T15:17:03.974Z</time></trkpt><trkpt lat="21.88775782158752" lon="-102.48529516488856"><ele>1994.1666666666665</ele><time>2026-03-22T15:17:04.974Z</time></trkpt><trkpt lat="21.88776103939627" lon="-102.48537686310998"><ele>1994.0</ele><time>2026-03-22T15:17:05.974Z</time></trkpt><trkpt lat="21.88777487893654" lon="-102.48546328927324"><ele>1993.9999999999998</ele><time>2026-03-22T15:17:06.974Z</time></trkpt><trkpt lat="21.88779531787689" lon="-102.48554982296676"><ele>1994.0</ele><time>2026-03-22T15:17:07.974Z</time></trkpt><trkpt lat="21.88780793372257" lon="-102.48564164512872"><ele>1994.0</ele><time>2026-03-22T15:17:08.974Z</time></trkpt><trkpt lat="21.887812296766175" lon="-102.48573072465666"><ele>1994.0</ele><time>2026-03-22T15:17:09.974Z</time></trkpt><trkpt lat="21.88782505532996" lon="-102.48583327292913"><ele>1993.9999999999998</ele><time>2026-03-22T15:17:10.974Z</time></trkpt><trkpt lat="21.887841184825085" lon="-102.48593275805636"><ele>1994.0</ele><time>2026-03-22T15:17:11.974Z</time></trkpt><trkpt lat="21.887861609669518" lon="-102.48602714717514"><ele>1994.0</ele><time>2026-03-22T15:17:12.974Z</time></trkpt><trkpt lat="21.887870226400093" lon="-102.48613223732224"><ele>1994.0</ele><time>2026-03-22T15:17:13.974Z</time></trkpt><trkpt lat="21.88788217890501" lon="-102.4862326301171"><ele>1994.0</ele><time>2026-03-22T15:17:14.974Z</time></trkpt><trkpt lat="21.88789953784526" lon="-102.48633904535096"><ele>1994.0</ele><time>2026-03-22T15:17:15.974Z</time></trkpt><trkpt lat="21.88791227929224" lon="-102.48644039933444"><ele>1994.0</ele><time>2026-03-22T15:17:16.974Z</time></trkpt><trkpt lat="21.887920735808233" lon="-102.48654283704307"><ele>1993.2</ele><time>2026-03-22T15:17:17.974Z</time></trkpt><trkpt lat="21.887932248856757" lon="-102.48664069982308"><ele>1992.4</ele><time>2026-03-22T15:17:18.974Z</time></trkpt><trkpt lat="21.887947101856927" lon="-102.48674792415143"><ele>1991.6</ele><time>2026-03-22T15:17:19.974Z</time></trkpt><trkpt lat="21.88796578054828" lon="-102.4868389157235"><ele>1990.8</ele><time>2026-03-22T15:17:20.974Z</time></trkpt><trkpt lat="21.887983435015624" lon="-102.48694568669555"><ele>1990.0</ele><time>2026-03-22T15:17:21.974Z</time></trkpt><trkpt lat="21.887994780331233" lon="-102.48704527430681"><ele>1990.3333333333335</ele><time>2026-03-22T15:17:22.974Z</time></trkpt><trkpt lat="21.888005583332493" lon="-102.4871519351632"><ele>1990.6666666666667</ele><time>2026-03-22T15:17:23.974Z</time></trkpt><trkpt lat="21.88802207215503" lon="-102.48724020227301"><ele>1991.0</ele><time>2026-03-22T15:17:24.974Z</time></trkpt><trkpt lat="21.888032925846478" lon="-102.48733436829785"><ele>1991.3333333333335</ele><time>2026-03-22T15:17:25.974Z</time></trkpt><trkpt lat="21.888040712030268" lon="-102.48743029452582"><ele>1991.6666666666667</ele><time>2026-03-22T15:17:26.974Z</time></trkpt><trkpt lat="21.88805083155032" lon="-102.4875196802286"><ele>1992.0</ele><time>2026-03-22T15:17:27.974Z</time></trkpt><trkpt lat="21.888056655172104" lon="-102.48761436950802"><ele>1992.0</ele><time>2026-03-22T15:17:28.974Z</time></trkpt><trkpt lat="21.888074760080517" lon="-102.48770548059315"><ele>1992.0</ele><time>2026-03-22T15:17:29.974Z</time></trkpt><trkpt lat="21.88808585809111" lon="-102.48779447189858"><ele>1992.0</ele><time>2026-03-22T15:17:30.974Z</time></trkpt><trkpt lat="21.888097865086234" lon="-102.4878864731921"><ele>1992.0</ele><time>2026-03-22T15:17:31.973Z</time></trkpt><trkpt lat="21.88810611091461" lon="-102.4879767152035"><ele>1992.0</ele><time>2026-03-22T15:17:32.973Z</time></trkpt><trkpt lat="21.888118060801347" lon="-102.48805645951751"><ele>1992.0</ele><time>2026-03-22T15:17:33.973Z</time></trkpt><trkpt lat="21.8881248307981" lon="-102.48813724656426"><ele>1992.6666666666667</ele><time>2026-03-22T15:17:34.973Z</time></trkpt><trkpt lat="21.888135559795835" lon="-102.48822913961018"><ele>1993.3333333333335</ele><time>2026-03-22T15:17:35.973Z</time></trkpt><trkpt lat="21.888146472384456" lon="-102.48830400386265"><ele>1994.0</ele><time>2026-03-22T15:17:36.973Z</time></trkpt><trkpt lat="21.88815447114163" lon="-102.48837495264921"><ele>1994.6666666666667</ele><time>2026-03-22T15:17:37.973Z</time></trkpt><trkpt lat="21.888159074032156" lon="-102.48844629907019"><ele>1995.3333333333335</ele><time>2026-03-22T15:17:38.973Z</time></trkpt><trkpt lat="21.888183418548866" lon="-102.48859166729974"><ele>1996.0</ele><time>2026-03-22T15:17:40.974Z</time></trkpt><trkpt lat="21.88819396088079" lon="-102.4887242113894"><ele>1996.8</ele><time>2026-03-22T15:17:42.974Z</time></trkpt><trkpt lat="21.888214150466073" lon="-102.48886192267335"><ele>1997.6</ele><time>2026-03-22T15:17:44.974Z</time></trkpt><trkpt lat="21.888235285562846" lon="-102.48899210029384"><ele>1998.4</ele><time>2026-03-22T15:17:46.974Z</time></trkpt><trkpt lat="21.88826033878007" lon="-102.4891293265541"><ele>1999.2</ele><time>2026-03-22T15:17:48.974Z</time></trkpt><trkpt lat="21.888270185607187" lon="-102.48919818460764"><ele>2000.0</ele><time>2026-03-22T15:17:49.973Z</time></trkpt><trkpt lat="21.888285579566233" lon="-102.48926733584331"><ele>2000.0</ele><time>2026-03-22T15:17:50.973Z</time></trkpt><trkpt lat="21.888300231347458" lon="-102.4893341034328"><ele>2000.0</ele><time>2026-03-22T15:17:51.974Z</time></trkpt><trkpt lat="21.888317433953787" lon="-102.48940161179405"><ele>2000.0</ele><time>2026-03-22T15:17:52.974Z</time></trkpt><trkpt lat="21.888317924732036" lon="-102.48947564321693"><ele>2000.0</ele><time>2026-03-22T15:17:56.974Z</time></trkpt><trkpt lat="21.888334130942283" lon="-102.48954417945497"><ele>2000.0</ele><time>2026-03-22T15:17:58.974Z</time></trkpt><trkpt lat="21.888349086606052" lon="-102.48961637736748"><ele>2000.0</ele><time>2026-03-22T15:18:00.974Z</time></trkpt><trkpt lat="21.888362907952125" lon="-102.48969713744755"><ele>2000.0</ele><time>2026-03-22T15:18:02.974Z</time></trkpt><trkpt lat="21.88837669554595" lon="-102.4897920341214"><ele>2000.6</ele><time>2026-03-22T15:18:04.974Z</time></trkpt><trkpt lat="21.888393785087295" lon="-102.48990251982703"><ele>2001.2</ele><time>2026-03-22T15:18:06.974Z</time></trkpt><trkpt lat="21.88841990366325" lon="-102.49000417039449"><ele>2001.8000000000002</ele><time>2026-03-22T15:18:08.973Z</time></trkpt><trkpt lat="21.888426220145902" lon="-102.49011241701041"><ele>2002.4</ele><time>2026-03-22T15:18:10.973Z</time></trkpt><trkpt lat="21.888439151293305" lon="-102.49021525412488"><ele>2003.0</ele><time>2026-03-22T15:18:12.973Z</time></trkpt><trkpt lat="21.888438224488024" lon="-102.4903212466555"><ele>2003.6000000000001</ele><time>2026-03-22T15:18:14.973Z</time></trkpt><trkpt lat="21.888449578720163" lon="-102.49042961103964"><ele>2004.2000000000003</ele><time>2026-03-22T15:18:16.973Z</time></trkpt><trkpt lat="21.88846346102084" lon="-102.4905408707966"><ele>2004.8</ele><time>2026-03-22T15:18:18.973Z</time></trkpt><trkpt lat="21.888477940616127" lon="-102.49065670697998"><ele>2005.4</ele><time>2026-03-22T15:18:20.973Z</time></trkpt><trkpt lat="21.888506844814053" lon="-102.49077116123034"><ele>2006.0</ele><time>2026-03-22T15:18:22.973Z</time></trkpt><trkpt lat="21.888524761215105" lon="-102.49084421551592"><ele>2006.0</ele><time>2026-03-22T15:18:23.973Z</time></trkpt><trkpt lat="21.888533367452116" lon="-102.49096043338517"><ele>2006.0</ele><time>2026-03-22T15:18:24.973Z</time></trkpt><trkpt lat="21.88854483042342" lon="-102.49107240831154"><ele>2006.0</ele><time>2026-03-22T15:18:25.973Z</time></trkpt><trkpt lat="21.88855766035986" lon="-102.49117560024149"><ele>2006.0</ele><time>2026-03-22T15:18:26.973Z</time></trkpt><trkpt lat="21.888565671209996" lon="-102.49127163655507"><ele>2006.0</ele><time>2026-03-22T15:18:27.973Z</time></trkpt><trkpt lat="21.88857500012574" lon="-102.49137251393537"><ele>2006.6</ele><time>2026-03-22T15:18:28.973Z</time></trkpt><trkpt lat="21.888586563754092" lon="-102.49147015054872"><ele>2007.1999999999998</ele><time>2026-03-22T15:18:29.973Z</time></trkpt><trkpt lat="21.88859346743567" lon="-102.49156324595123"><ele>2007.8000000000002</ele><time>2026-03-22T15:18:30.973Z</time></trkpt><trkpt lat="21.888614237850188" lon="-102.49169332610462"><ele>2008.4</ele><time>2026-03-22T15:18:31.973Z</time></trkpt><trkpt lat="21.888632172385634" lon="-102.49181405098992"><ele>2009.0</ele><time>2026-03-22T15:18:32.973Z</time></trkpt><trkpt lat="21.888637946158912" lon="-102.4919213708031"><ele>2009.0</ele><time>2026-03-22T15:18:33.973Z</time></trkpt><trkpt lat="21.888633927794647" lon="-102.49204201143714"><ele>2009.0</ele><time>2026-03-22T15:18:34.973Z</time></trkpt><trkpt lat="21.888617153383578" lon="-102.49213951593214"><ele>2009.0</ele><time>2026-03-22T15:18:35.973Z</time></trkpt><trkpt lat="21.888580939873883" lon="-102.49222720244866"><ele>2009.0</ele><time>2026-03-22T15:18:36.973Z</time></trkpt><trkpt lat="21.888529123903783" lon="-102.49229392470019"><ele>2009.0</ele><time>2026-03-22T15:18:37.973Z</time></trkpt><trkpt lat="21.888474013678746" lon="-102.4923553266624"><ele>2009.1666666666665</ele><time>2026-03-22T15:18:38.973Z</time></trkpt><trkpt lat="21.88839925832001" lon="-102.49239525139382"><ele>2009.3333333333333</ele><time>2026-03-22T15:18:39.973Z</time></trkpt><trkpt lat="21.88832121063486" lon="-102.49242216905031"><ele>2009.5</ele><time>2026-03-22T15:18:40.973Z</time></trkpt><trkpt lat="21.888243270123706" lon="-102.49244732939805"><ele>2009.6666666666665</ele><time>2026-03-22T15:18:41.973Z</time></trkpt><trkpt lat="21.888169265139105" lon="-102.49247555478372"><ele>2009.8333333333333</ele><time>2026-03-22T15:18:42.973Z</time></trkpt><trkpt lat="21.888081239093243" lon="-102.49249354630422"><ele>2010.0</ele><time>2026-03-22T15:18:43.973Z</time></trkpt><trkpt lat="21.888001687723825" lon="-102.49250836296997"><ele>2010.0</ele><time>2026-03-22T15:18:44.973Z</time></trkpt><trkpt lat="21.88791971619818" lon="-102.49252064114464"><ele>2010.0</ele><time>2026-03-22T15:18:45.973Z</time></trkpt><trkpt lat="21.887840353337715" lon="-102.49253414901014"><ele>2010.0</ele><time>2026-03-22T15:18:46.973Z</time></trkpt><trkpt lat="21.88776270069847" lon="-102.4925481970809"><ele>2010.0</ele><time>2026-03-22T15:18:47.973Z</time></trkpt><trkpt lat="21.8876843411561" lon="-102.49256232512913"><ele>2010.0</ele><time>2026-03-22T15:18:48.973Z</time></trkpt><trkpt lat="21.887607601581234" lon="-102.4925731069499"><ele>2010.0</ele><time>2026-03-22T15:18:49.973Z</time></trkpt><trkpt lat="21.88752670758829" lon="-102.49258162684811"><ele>2010.0</ele><time>2026-03-22T15:18:50.973Z</time></trkpt><trkpt lat="21.887454585761816" lon="-102.49258799026643"><ele>2010.0</ele><time>2026-03-22T15:18:51.973Z</time></trkpt><trkpt lat="21.8873687239271" lon="-102.49258961661174"><ele>2010.0</ele><time>2026-03-22T15:18:52.973Z</time></trkpt><trkpt lat="21.88728780180213" lon="-102.4925864885136"><ele>2010.0</ele><time>2026-03-22T15:18:53.973Z</time></trkpt><trkpt lat="21.887194941146905" lon="-102.49258533775303"><ele>2010.0</ele><time>2026-03-22T15:18:54.973Z</time></trkpt><trkpt lat="21.887117351149207" lon="-102.49259776106405"><ele>2010.0</ele><time>2026-03-22T15:18:55.973Z</time></trkpt><trkpt lat="21.88704181757669" lon="-102.49260457257222"><ele>2010.0</ele><time>2026-03-22T15:18:56.973Z</time></trkpt><trkpt lat="21.886964718897595" lon="-102.49261310061682"><ele>2010.0</ele><time>2026-03-22T15:18:57.973Z</time></trkpt><trkpt lat="21.886889977796507" lon="-102.492626275277"><ele>2010.0</ele><time>2026-03-22T15:18:58.973Z</time></trkpt><trkpt lat="21.886810726571515" lon="-102.49264093034846"><ele>2010.0</ele><time>2026-03-22T15:18:59.973Z</time></trkpt><trkpt lat="21.886738304576895" lon="-102.49265678223531"><ele>2010.0</ele><time>2026-03-22T15:19:00.973Z</time></trkpt><trkpt lat="21.886661769283137" lon="-102.49267198036235"><ele>2010.0</ele><time>2026-03-22T15:19:01.973Z</time></trkpt><trkpt lat="21.886582803156887" lon="-102.49268852977143"><ele>2010.1428571428573</ele><time>2026-03-22T15:19:02.973Z</time></trkpt><trkpt lat="21.88649924788834" lon="-102.49269459164357"><ele>2010.2857142857142</ele><time>2026-03-22T15:19:03.973Z</time></trkpt><trkpt lat="21.886431595707062" lon="-102.49270031691935"><ele>2010.4285714285716</ele><time>2026-03-22T15:19:04.973Z</time></trkpt><trkpt lat="21.886362779854103" lon="-102.49271185292278"><ele>2010.5714285714287</ele><time>2026-03-22T15:19:05.973Z</time></trkpt><trkpt lat="21.88629020180837" lon="-102.49271935397843"><ele>2010.7142857142858</ele><time>2026-03-22T15:19:06.973Z</time></trkpt><trkpt lat="21.886227159016176" lon="-102.49273096600517"><ele>2010.857142857143</ele><time>2026-03-22T15:19:07.973Z</time></trkpt><trkpt lat="21.88616243710811" lon="-102.49274732797537"><ele>2011.0</ele><time>2026-03-22T15:19:08.973Z</time></trkpt><trkpt lat="21.88603347873121" lon="-102.49276706919574"><ele>2011.0</ele><time>2026-03-22T15:19:10.973Z</time></trkpt><trkpt lat="21.885956743365643" lon="-102.49277117764646"><ele>2011.0</ele><time>2026-03-22T15:19:11.973Z</time></trkpt><trkpt lat="21.88589464810527" lon="-102.49278989562804"><ele>2011.0</ele><time>2026-03-22T15:19:12.972Z</time></trkpt><trkpt lat="21.885827683684624" lon="-102.49279864283423"><ele>2011.0</ele><time>2026-03-22T15:19:13.972Z</time></trkpt><trkpt lat="21.885756955666167" lon="-102.4928087832457"><ele>2011.0</ele><time>2026-03-22T15:19:14.972Z</time></trkpt><trkpt lat="21.885687512969714" lon="-102.49282221133767"><ele>2011.0</ele><time>2026-03-22T15:19:15.972Z</time></trkpt><trkpt lat="21.885617166820346" lon="-102.49283984728731"><ele>2011.0</ele><time>2026-03-22T15:19:16.972Z</time></trkpt><trkpt lat="21.885541415467575" lon="-102.49284704607727"><ele>2011.1666666666667</ele><time>2026-03-22T15:19:17.972Z</time></trkpt><trkpt lat="21.885467040061123" lon="-102.49285160311649"><ele>2011.3333333333335</ele><time>2026-03-22T15:19:18.972Z</time></trkpt><trkpt lat="21.885381950289865" lon="-102.49286826312174"><ele>2011.5</ele><time>2026-03-22T15:19:19.972Z</time></trkpt><trkpt lat="21.885308605899116" lon="-102.49288098552668"><ele>2011.6666666666665</ele><time>2026-03-22T15:19:20.972Z</time></trkpt><trkpt lat="21.885231460457625" lon="-102.49289180373357"><ele>2011.8333333333333</ele><time>2026-03-22T15:19:21.972Z</time></trkpt><trkpt lat="21.8851542257301" lon="-102.49289887758002"><ele>2012.0</ele><time>2026-03-22T15:19:22.972Z</time></trkpt><trkpt lat="21.885077763038257" lon="-102.49290984145102"><ele>2011.9999999999998</ele><time>2026-03-22T15:19:23.972Z</time></trkpt><trkpt lat="21.884997330549222" lon="-102.49291973026963"><ele>2012.0</ele><time>2026-03-22T15:19:24.972Z</time></trkpt><trkpt lat="21.884919450507745" lon="-102.49293186757683"><ele>2012.0</ele><time>2026-03-22T15:19:25.972Z</time></trkpt><trkpt lat="21.884844268888568" lon="-102.49294609951718"><ele>2012.0</ele><time>2026-03-22T15:19:26.972Z</time></trkpt><trkpt lat="21.88476768698441" lon="-102.49295756715875"><ele>2011.9999999999998</ele><time>2026-03-22T15:19:27.972Z</time></trkpt><trkpt lat="21.884693140164728" lon="-102.49296563718683"><ele>2012.0</ele><time>2026-03-22T15:19:28.972Z</time></trkpt><trkpt lat="21.884614676063684" lon="-102.49297967616496"><ele>2011.9999999999998</ele><time>2026-03-22T15:19:29.972Z</time></trkpt><trkpt lat="21.88454468230367" lon="-102.4929961794726"><ele>2012.0</ele><time>2026-03-22T15:19:30.972Z</time></trkpt><trkpt lat="21.884463039853234" lon="-102.49301065646164"><ele>2012.0</ele><time>2026-03-22T15:19:31.972Z</time></trkpt><trkpt lat="21.884387202869636" lon="-102.49301991884859"><ele>2012.0</ele><time>2026-03-22T15:19:32.972Z</time></trkpt><trkpt lat="21.884311109935418" lon="-102.49302729086314"><ele>2011.9999999999998</ele><time>2026-03-22T15:19:33.972Z</time></trkpt><trkpt lat="21.8842341534214" lon="-102.49303931537328"><ele>2012.0</ele><time>2026-03-22T15:19:34.972Z</time></trkpt><trkpt lat="21.884157451596035" lon="-102.49304811608212"><ele>2012.1666666666665</ele><time>2026-03-22T15:19:35.972Z</time></trkpt><trkpt lat="21.88408641734695" lon="-102.49305977896599"><ele>2012.3333333333333</ele><time>2026-03-22T15:19:36.972Z</time></trkpt><trkpt lat="21.884018249589047" lon="-102.49307185826233"><ele>2012.5</ele><time>2026-03-22T15:19:37.972Z</time></trkpt><trkpt lat="21.88394140933109" lon="-102.49308334099128"><ele>2012.6666666666665</ele><time>2026-03-22T15:19:38.972Z</time></trkpt><trkpt lat="21.883864536879965" lon="-102.49309389322832"><ele>2012.8333333333333</ele><time>2026-03-22T15:19:39.972Z</time></trkpt><trkpt lat="21.883786827798566" lon="-102.49310851364545"><ele>2013.0</ele><time>2026-03-22T15:19:40.972Z</time></trkpt><trkpt lat="21.883708412985687" lon="-102.4931114237373"><ele>2013.0</ele><time>2026-03-22T15:19:41.972Z</time></trkpt><trkpt lat="21.883640290183592" lon="-102.49312524953099"><ele>2012.9999999999998</ele><time>2026-03-22T15:19:42.972Z</time></trkpt><trkpt lat="21.88356066361187" lon="-102.49313398663776"><ele>2013.0</ele><time>2026-03-22T15:19:43.972Z</time></trkpt><trkpt lat="21.883494665767728" lon="-102.49315433581405"><ele>2013.0</ele><time>2026-03-22T15:19:44.972Z</time></trkpt><trkpt lat="21.883411069208854" lon="-102.493156705729"><ele>2012.9999999999998</ele><time>2026-03-22T15:19:45.973Z</time></trkpt><trkpt lat="21.883338677204545" lon="-102.49316981384347"><ele>2013.0</ele><time>2026-03-22T15:19:46.973Z</time></trkpt><trkpt lat="21.883272313568447" lon="-102.49317862348656"><ele>2013.0</ele><time>2026-03-22T15:19:47.973Z</time></trkpt><trkpt lat="21.883190871291767" lon="-102.49319247111838"><ele>2013.142857142857</ele><time>2026-03-22T15:19:48.974Z</time></trkpt><trkpt lat="21.883116382357436" lon="-102.49320459360347"><ele>2013.2857142857142</ele><time>2026-03-22T15:19:49.973Z</time></trkpt><trkpt lat="21.883045526967127" lon="-102.49321046994595"><ele>2013.4285714285713</ele><time>2026-03-22T15:19:50.973Z</time></trkpt><trkpt lat="21.882973558478117" lon="-102.49322101125745"><ele>2013.5714285714284</ele><time>2026-03-22T15:19:51.973Z</time></trkpt><trkpt lat="21.882896920897732" lon="-102.49323478325365"><ele>2013.7142857142858</ele><time>2026-03-22T15:19:52.973Z</time></trkpt><trkpt lat="21.882821171329272" lon="-102.49324666341617"><ele>2013.8571428571427</ele><time>2026-03-22T15:19:53.973Z</time></trkpt><trkpt lat="21.882748444425996" lon="-102.49326087896935"><ele>2014.0</ele><time>2026-03-22T15:19:54.974Z</time></trkpt><trkpt lat="21.882668822499586" lon="-102.4932708709157"><ele>2013.6666666666667</ele><time>2026-03-22T15:19:55.973Z</time></trkpt><trkpt lat="21.88259189477751" lon="-102.49328007684463"><ele>2013.3333333333335</ele><time>2026-03-22T15:19:56.973Z</time></trkpt><trkpt lat="21.882513506227482" lon="-102.49329424192443"><ele>2013.0</ele><time>2026-03-22T15:19:57.973Z</time></trkpt><trkpt lat="21.882431206713164" lon="-102.49330565408212"><ele>2012.6666666666665</ele><time>2026-03-22T15:19:58.973Z</time></trkpt><trkpt lat="21.882344711244976" lon="-102.49331765511222"><ele>2012.3333333333333</ele><time>2026-03-22T15:19:59.973Z</time></trkpt><trkpt lat="21.882266617584328" lon="-102.49333033275829"><ele>2012.0</ele><time>2026-03-22T15:20:00.973Z</time></trkpt><trkpt lat="21.882179709784733" lon="-102.49333824888393"><ele>2011.9999999999998</ele><time>2026-03-22T15:20:01.973Z</time></trkpt><trkpt lat="21.882106711977006" lon="-102.4933490119792"><ele>2012.0</ele><time>2026-03-22T15:20:02.973Z</time></trkpt><trkpt lat="21.882020211154828" lon="-102.49335441669875"><ele>2012.0</ele><time>2026-03-22T15:20:03.973Z</time></trkpt><trkpt lat="21.88195165703466" lon="-102.49336335870089"><ele>2012.0</ele><time>2026-03-22T15:20:04.973Z</time></trkpt><trkpt lat="21.881879866164855" lon="-102.49337827909243"><ele>2011.9999999999998</ele><time>2026-03-22T15:20:05.973Z</time></trkpt><trkpt lat="21.881803892991368" lon="-102.49338964013623"><ele>2012.0</ele><time>2026-03-22T15:20:06.973Z</time></trkpt><trkpt lat="21.881724155954554" lon="-102.49339512068283"><ele>2011.8333333333333</ele><time>2026-03-22T15:20:07.973Z</time></trkpt><trkpt lat="21.881646521149253" lon="-102.49340913428456"><ele>2011.6666666666665</ele><time>2026-03-22T15:20:08.973Z</time></trkpt><trkpt lat="21.881572552229244" lon="-102.49342873279618"><ele>2011.5</ele><time>2026-03-22T15:20:09.973Z</time></trkpt><trkpt lat="21.881497273885287" lon="-102.49344274437014"><ele>2011.3333333333335</ele><time>2026-03-22T15:20:10.973Z</time></trkpt><trkpt lat="21.881419392621986" lon="-102.49345272303599"><ele>2011.1666666666667</ele><time>2026-03-22T15:20:11.973Z</time></trkpt><trkpt lat="21.881334198290006" lon="-102.49346268296875"><ele>2011.0</ele><time>2026-03-22T15:20:12.973Z</time></trkpt><trkpt lat="21.88125963942073" lon="-102.4934779981039"><ele>2011.0000000000002</ele><time>2026-03-22T15:20:13.973Z</time></trkpt><trkpt lat="21.881177260282012" lon="-102.49348706050034"><ele>2011.0</ele><time>2026-03-22T15:20:14.973Z</time></trkpt><trkpt lat="21.881098787313118" lon="-102.49349699864536"><ele>2011.0</ele><time>2026-03-22T15:20:15.973Z</time></trkpt><trkpt lat="21.881021379950397" lon="-102.49350568599301"><ele>2011.0</ele><time>2026-03-22T15:20:16.973Z</time></trkpt><trkpt lat="21.88094549479739" lon="-102.4935149687132"><ele>2011.0000000000002</ele><time>2026-03-22T15:20:17.973Z</time></trkpt><trkpt lat="21.880867369082953" lon="-102.49352715513042"><ele>2011.0</ele><time>2026-03-22T15:20:18.973Z</time></trkpt><trkpt lat="21.880787408761755" lon="-102.4935372642934"><ele>2011.0000000000002</ele><time>2026-03-22T15:20:19.973Z</time></trkpt><trkpt lat="21.880701840919055" lon="-102.49355064468563"><ele>2011.0</ele><time>2026-03-22T15:20:20.973Z</time></trkpt><trkpt lat="21.88061791685669" lon="-102.49356530776191"><ele>2011.0</ele><time>2026-03-22T15:20:21.973Z</time></trkpt><trkpt lat="21.880538342166286" lon="-102.49357621221935"><ele>2011.0</ele><time>2026-03-22T15:20:22.973Z</time></trkpt><trkpt lat="21.880457890172096" lon="-102.49358475438119"><ele>2011.0000000000002</ele><time>2026-03-22T15:20:23.973Z</time></trkpt><trkpt lat="21.880374911428337" lon="-102.49359494782499"><ele>2011.0</ele><time>2026-03-22T15:20:24.973Z</time></trkpt><trkpt lat="21.880289181185983" lon="-102.49360899177536"><ele>2011.0000000000002</ele><time>2026-03-22T15:20:25.973Z</time></trkpt><trkpt lat="21.880199725763283" lon="-102.49362016014955"><ele>2011.0</ele><time>2026-03-22T15:20:26.973Z</time></trkpt><trkpt lat="21.880116556963237" lon="-102.49363604603084"><ele>2011.0</ele><time>2026-03-22T15:20:27.973Z</time></trkpt><trkpt lat="21.880033470301406" lon="-102.49364642316169"><ele>2011.0</ele><time>2026-03-22T15:20:28.973Z</time></trkpt><trkpt lat="21.87994557465036" lon="-102.49366280699911"><ele>2011.0000000000002</ele><time>2026-03-22T15:20:29.973Z</time></trkpt><trkpt lat="21.879862490146657" lon="-102.49367396959543"><ele>2011.0</ele><time>2026-03-22T15:20:30.973Z</time></trkpt><trkpt lat="21.879772362295448" lon="-102.49368804061832"><ele>2010.8</ele><time>2026-03-22T15:20:31.973Z</time></trkpt><trkpt lat="21.87968466172294" lon="-102.49370021978427"><ele>2010.6</ele><time>2026-03-22T15:20:32.973Z</time></trkpt><trkpt lat="21.879593008439507" lon="-102.49371302114409"><ele>2010.4</ele><time>2026-03-22T15:20:33.973Z</time></trkpt><trkpt lat="21.879501184230968" lon="-102.49372801787582"><ele>2010.2</ele><time>2026-03-22T15:20:34.973Z</time></trkpt><trkpt lat="21.879417296097362" lon="-102.49374353968891"><ele>2010.0</ele><time>2026-03-22T15:20:35.973Z</time></trkpt><trkpt lat="21.87932693452409" lon="-102.49375280457326"><ele>2010.1666666666667</ele><time>2026-03-22T15:20:36.973Z</time></trkpt><trkpt lat="21.879235961419965" lon="-102.49376558099974"><ele>2010.3333333333335</ele><time>2026-03-22T15:20:37.973Z</time></trkpt><trkpt lat="21.879157240902707" lon="-102.49377999861356"><ele>2010.5</ele><time>2026-03-22T15:20:38.973Z</time></trkpt><trkpt lat="21.87906744177748" lon="-102.49378940724954"><ele>2010.6666666666667</ele><time>2026-03-22T15:20:39.973Z</time></trkpt><trkpt lat="21.87897915897172" lon="-102.49380257874233"><ele>2010.8333333333335</ele><time>2026-03-22T15:20:40.973Z</time></trkpt><trkpt lat="21.87889179051039" lon="-102.49381556668992"><ele>2011.0</ele><time>2026-03-22T15:20:41.973Z</time></trkpt><trkpt lat="21.87880663131055" lon="-102.49383168560199"><ele>2011.0</ele><time>2026-03-22T15:20:42.973Z</time></trkpt><trkpt lat="21.878714385410774" lon="-102.49383991013205"><ele>2011.0</ele><time>2026-03-22T15:20:43.973Z</time></trkpt><trkpt lat="21.878625280646286" lon="-102.49385272322345"><ele>2011.0</ele><time>2026-03-22T15:20:44.973Z</time></trkpt><trkpt lat="21.878528975654483" lon="-102.4938656042584"><ele>2011.0</ele><time>2026-03-22T15:20:45.973Z</time></trkpt><trkpt lat="21.87843500388422" lon="-102.4938809210918"><ele>2011.0</ele><time>2026-03-22T15:20:46.972Z</time></trkpt><trkpt lat="21.8783441885285" lon="-102.4938852321547"><ele>2010.8</ele><time>2026-03-22T15:20:47.972Z</time></trkpt><trkpt lat="21.87825174875958" lon="-102.49390193624713"><ele>2010.6</ele><time>2026-03-22T15:20:48.972Z</time></trkpt><trkpt lat="21.87816157798038" lon="-102.49391862039788"><ele>2010.4</ele><time>2026-03-22T15:20:49.972Z</time></trkpt><trkpt lat="21.878069529192338" lon="-102.49392972455787"><ele>2010.2</ele><time>2026-03-22T15:20:50.972Z</time></trkpt><trkpt lat="21.877974034669165" lon="-102.4939446871067"><ele>2010.0</ele><time>2026-03-22T15:20:51.972Z</time></trkpt><trkpt lat="21.877895042423003" lon="-102.49396044901559"><ele>2010.0</ele><time>2026-03-22T15:20:52.972Z</time></trkpt><trkpt lat="21.877805218438144" lon="-102.49397814023632"><ele>2010.0</ele><time>2026-03-22T15:20:53.972Z</time></trkpt><trkpt lat="21.877713498591625" lon="-102.49399763242188"><ele>2010.0</ele><time>2026-03-22T15:20:54.972Z</time></trkpt><trkpt lat="21.877627049727142" lon="-102.49401879728615"><ele>2010.0</ele><time>2026-03-22T15:20:55.972Z</time></trkpt><trkpt lat="21.877539525614537" lon="-102.49403959731598"><ele>2010.0</ele><time>2026-03-22T15:20:56.972Z</time></trkpt><trkpt lat="21.877449152523436" lon="-102.49406447242279"><ele>2009.8333333333333</ele><time>2026-03-22T15:20:57.972Z</time></trkpt><trkpt lat="21.877365911047207" lon="-102.49409017787536"><ele>2009.6666666666665</ele><time>2026-03-22T15:20:58.972Z</time></trkpt><trkpt lat="21.877277670447217" lon="-102.49411723061408"><ele>2009.5</ele><time>2026-03-22T15:20:59.972Z</time></trkpt><trkpt lat="21.877193972582134" lon="-102.49414629493523"><ele>2009.3333333333333</ele><time>2026-03-22T15:21:00.972Z</time></trkpt><trkpt lat="21.87711011174248" lon="-102.49417885960892"><ele>2009.1666666666665</ele><time>2026-03-22T15:21:01.972Z</time></trkpt><trkpt lat="21.877029763754784" lon="-102.49420917726627"><ele>2009.0</ele><time>2026-03-22T15:21:02.972Z</time></trkpt><trkpt lat="21.87694829448478" lon="-102.49424547327135"><ele>2008.9999999999998</ele><time>2026-03-22T15:21:03.972Z</time></trkpt><trkpt lat="21.87687137063219" lon="-102.49428257267823"><ele>2009.0</ele><time>2026-03-22T15:21:04.972Z</time></trkpt><trkpt lat="21.876791363343877" lon="-102.49432140365384"><ele>2009.0</ele><time>2026-03-22T15:21:05.972Z</time></trkpt><trkpt lat="21.87671007277508" lon="-102.49436275558307"><ele>2009.0</ele><time>2026-03-22T15:21:06.972Z</time></trkpt><trkpt lat="21.876634198749432" lon="-102.4944115128007"><ele>2008.9999999999998</ele><time>2026-03-22T15:21:07.972Z</time></trkpt><trkpt lat="21.876559560294705" lon="-102.49445884441919"><ele>2009.0</ele><time>2026-03-22T15:21:08.972Z</time></trkpt><trkpt lat="21.876479015508856" lon="-102.49451305429727"><ele>2008.9999999999998</ele><time>2026-03-22T15:21:09.972Z</time></trkpt><trkpt lat="21.876407908362005" lon="-102.4945725392003"><ele>2009.0</ele><time>2026-03-22T15:21:10.972Z</time></trkpt><trkpt lat="21.87633865617029" lon="-102.49462266522762"><ele>2009.0</ele><time>2026-03-22T15:21:11.972Z</time></trkpt><trkpt lat="21.876265423116006" lon="-102.49467689889943"><ele>2009.0</ele><time>2026-03-22T15:21:12.972Z</time></trkpt><trkpt lat="21.8761888518574" lon="-102.49473782153169"><ele>2008.9999999999998</ele><time>2026-03-22T15:21:13.972Z</time></trkpt><trkpt lat="21.876119543900504" lon="-102.49479391510275"><ele>2009.0</ele><time>2026-03-22T15:21:14.972Z</time></trkpt><trkpt lat="21.87604727284435" lon="-102.49484843370043"><ele>2009.1666666666665</ele><time>2026-03-22T15:21:15.972Z</time></trkpt><trkpt lat="21.87598316022729" lon="-102.49490226895468"><ele>2009.3333333333333</ele><time>2026-03-22T15:21:16.972Z</time></trkpt><trkpt lat="21.87590510649016" lon="-102.4949567391973"><ele>2009.5</ele><time>2026-03-22T15:21:17.972Z</time></trkpt><trkpt lat="21.87583241169545" lon="-102.49500706825675"><ele>2009.6666666666665</ele><time>2026-03-22T15:21:18.972Z</time></trkpt><trkpt lat="21.875759382760776" lon="-102.49506792564904"><ele>2009.8333333333333</ele><time>2026-03-22T15:21:19.972Z</time></trkpt><trkpt lat="21.875687869915676" lon="-102.49512134528756"><ele>2010.0</ele><time>2026-03-22T15:21:20.972Z</time></trkpt><trkpt lat="21.875613783198524" lon="-102.49517335336225"><ele>2010.0</ele><time>2026-03-22T15:21:21.972Z</time></trkpt><trkpt lat="21.87553014164495" lon="-102.49522448519743"><ele>2010.0</ele><time>2026-03-22T15:21:22.972Z</time></trkpt><trkpt lat="21.87546707592823" lon="-102.4952848599462"><ele>2010.0</ele><time>2026-03-22T15:21:23.972Z</time></trkpt><trkpt lat="21.875392331087294" lon="-102.49533744545613"><ele>2010.0</ele><time>2026-03-22T15:21:24.972Z</time></trkpt><trkpt lat="21.875328567535657" lon="-102.49539633893201"><ele>2010.0</ele><time>2026-03-22T15:21:25.972Z</time></trkpt><trkpt lat="21.875253357593543" lon="-102.49545322764573"><ele>2010.0</ele><time>2026-03-22T15:21:26.972Z</time></trkpt><trkpt lat="21.87518128228706" lon="-102.49550634952092"><ele>2010.2</ele><time>2026-03-22T15:21:27.972Z</time></trkpt><trkpt lat="21.87510297427156" lon="-102.49556648173393"><ele>2010.4</ele><time>2026-03-22T15:21:28.972Z</time></trkpt><trkpt lat="21.875034271471314" lon="-102.49561906963524"><ele>2010.6</ele><time>2026-03-22T15:21:29.972Z</time></trkpt><trkpt lat="21.874963023603105" lon="-102.49567329690771"><ele>2010.8</ele><time>2026-03-22T15:21:30.972Z</time></trkpt><trkpt lat="21.874893628963207" lon="-102.49572608428771"><ele>2011.0</ele><time>2026-03-22T15:21:31.972Z</time></trkpt><trkpt lat="21.87481223589632" lon="-102.49579262837374"><ele>2011.0000000000002</ele><time>2026-03-22T15:21:32.972Z</time></trkpt><trkpt lat="21.874745798141543" lon="-102.49583958770833"><ele>2011.0</ele><time>2026-03-22T15:21:33.972Z</time></trkpt><trkpt lat="21.874676005930322" lon="-102.49590167890426"><ele>2011.0</ele><time>2026-03-22T15:21:34.972Z</time></trkpt><trkpt lat="21.874605405374066" lon="-102.49595978881106"><ele>2011.0</ele><time>2026-03-22T15:21:35.972Z</time></trkpt><trkpt lat="21.874526552564333" lon="-102.49601336481665"><ele>2011.0000000000002</ele><time>2026-03-22T15:21:36.972Z</time></trkpt><trkpt lat="21.874450108250308" lon="-102.49607296216051"><ele>2011.0</ele><time>2026-03-22T15:21:37.972Z</time></trkpt><trkpt lat="21.874387474746364" lon="-102.49611555426634"><ele>2011.0000000000002</ele><time>2026-03-22T15:21:38.972Z</time></trkpt><trkpt lat="21.87431449188743" lon="-102.49617274247291"><ele>2011.0</ele><time>2026-03-22T15:21:39.972Z</time></trkpt><trkpt lat="21.87424598376369" lon="-102.49623023592116"><ele>2011.0</ele><time>2026-03-22T15:21:40.972Z</time></trkpt><trkpt lat="21.874169495398323" lon="-102.49628473467273"><ele>2011.0</ele><time>2026-03-22T15:21:41.972Z</time></trkpt><trkpt lat="21.87410388482369" lon="-102.49633809013794"><ele>2011.0000000000002</ele><time>2026-03-22T15:21:42.972Z</time></trkpt><trkpt lat="21.874034351937805" lon="-102.49639427316434"><ele>2011.0</ele><time>2026-03-22T15:21:43.972Z</time></trkpt><trkpt lat="21.873964121301796" lon="-102.4964452734041"><ele>2010.6</ele><time>2026-03-22T15:21:44.972Z</time></trkpt><trkpt lat="21.873890890775964" lon="-102.49650236654875"><ele>2010.1999999999998</ele><time>2026-03-22T15:21:45.972Z</time></trkpt><trkpt lat="21.873814265038828" lon="-102.49656732298727"><ele>2009.8000000000002</ele><time>2026-03-22T15:21:46.972Z</time></trkpt><trkpt lat="21.873740725636434" lon="-102.49662532541826"><ele>2009.4</ele><time>2026-03-22T15:21:47.972Z</time></trkpt><trkpt lat="21.87366643087382" lon="-102.49667836102365"><ele>2009.0</ele><time>2026-03-22T15:21:48.972Z</time></trkpt><trkpt lat="21.873587666824648" lon="-102.49674212389854"><ele>2009.0</ele><time>2026-03-22T15:21:49.972Z</time></trkpt><trkpt lat="21.873513961404146" lon="-102.49680090321375"><ele>2009.0</ele><time>2026-03-22T15:21:50.971Z</time></trkpt><trkpt lat="21.873438379220325" lon="-102.49685494879003"><ele>2009.0</ele><time>2026-03-22T15:21:51.972Z</time></trkpt><trkpt lat="21.87335679001808" lon="-102.4969189120038"><ele>2009.0</ele><time>2026-03-22T15:21:52.973Z</time></trkpt><trkpt lat="21.873277599314058" lon="-102.49698180068813"><ele>2009.0</ele><time>2026-03-22T15:21:53.973Z</time></trkpt><trkpt lat="21.87320089939707" lon="-102.49704443958198"><ele>2009.2</ele><time>2026-03-22T15:21:54.972Z</time></trkpt><trkpt lat="21.87312450574196" lon="-102.4971059265305"><ele>2009.4</ele><time>2026-03-22T15:21:55.972Z</time></trkpt><trkpt lat="21.87304465363255" lon="-102.49716879725281"><ele>2009.6</ele><time>2026-03-22T15:21:56.972Z</time></trkpt><trkpt lat="21.87296998256824" lon="-102.49721699731091"><ele>2009.8</ele><time>2026-03-22T15:21:57.972Z</time></trkpt><trkpt lat="21.872888506061514" lon="-102.4972785594352"><ele>2010.0</ele><time>2026-03-22T15:21:58.973Z</time></trkpt><trkpt lat="21.87281382826333" lon="-102.49733448138818"><ele>2010.0</ele><time>2026-03-22T15:21:59.973Z</time></trkpt><trkpt lat="21.872739646720277" lon="-102.49739365862595"><ele>2010.0</ele><time>2026-03-22T15:22:00.972Z</time></trkpt><trkpt lat="21.872670326483366" lon="-102.49744925320871"><ele>2010.0</ele><time>2026-03-22T15:22:01.972Z</time></trkpt><trkpt lat="21.872595234694042" lon="-102.49750577353959"><ele>2010.0</ele><time>2026-03-22T15:22:02.972Z</time></trkpt><trkpt lat="21.8725184203515" lon="-102.49756729011968"><ele>2010.0</ele><time>2026-03-22T15:22:03.972Z</time></trkpt><trkpt lat="21.872442813227114" lon="-102.4976251144856"><ele>2009.8</ele><time>2026-03-22T15:22:04.972Z</time></trkpt><trkpt lat="21.872367720697902" lon="-102.49768136044614"><ele>2009.6</ele><time>2026-03-22T15:22:05.972Z</time></trkpt><trkpt lat="21.87228904823649" lon="-102.49773913519961"><ele>2009.4</ele><time>2026-03-22T15:22:06.972Z</time></trkpt><trkpt lat="21.872216288268092" lon="-102.49779401046355"><ele>2009.2</ele><time>2026-03-22T15:22:07.972Z</time></trkpt><trkpt lat="21.87214093435136" lon="-102.49785324303112"><ele>2009.0</ele><time>2026-03-22T15:22:08.972Z</time></trkpt><trkpt lat="21.87206893612553" lon="-102.4979075934868"><ele>2008.6</ele><time>2026-03-22T15:22:09.972Z</time></trkpt><trkpt lat="21.87199777602715" lon="-102.49796047592085"><ele>2008.2</ele><time>2026-03-22T15:22:10.972Z</time></trkpt><trkpt lat="21.87192206312988" lon="-102.4980206124557"><ele>2007.7999999999997</ele><time>2026-03-22T15:22:11.972Z</time></trkpt><trkpt lat="21.87185276522472" lon="-102.49807809911566"><ele>2007.3999999999999</ele><time>2026-03-22T15:22:12.972Z</time></trkpt><trkpt lat="21.871774402407816" lon="-102.49812934100005"><ele>2007.0</ele><time>2026-03-22T15:22:13.972Z</time></trkpt><trkpt lat="21.871696650574293" lon="-102.49818886966094"><ele>2007.0</ele><time>2026-03-22T15:22:14.972Z</time></trkpt><trkpt lat="21.871622592814358" lon="-102.49824134948963"><ele>2006.9999999999998</ele><time>2026-03-22T15:22:15.972Z</time></trkpt><trkpt lat="21.871551743908924" lon="-102.49830160069382"><ele>2006.9999999999998</ele><time>2026-03-22T15:22:16.972Z</time></trkpt><trkpt lat="21.871477536611216" lon="-102.49835506004825"><ele>2007.0</ele><time>2026-03-22T15:22:17.972Z</time></trkpt><trkpt lat="21.871407147643044" lon="-102.49841332776147"><ele>2007.0</ele><time>2026-03-22T15:22:18.972Z</time></trkpt><trkpt lat="21.87133254182509" lon="-102.49847659192154"><ele>2007.0</ele><time>2026-03-22T15:22:19.972Z</time></trkpt><trkpt lat="21.871256398095905" lon="-102.49852605489231"><ele>2006.9999999999998</ele><time>2026-03-22T15:22:20.972Z</time></trkpt><trkpt lat="21.871178110363633" lon="-102.4985888681724"><ele>2006.9999999999998</ele><time>2026-03-22T15:22:21.972Z</time></trkpt><trkpt lat="21.87110091528535" lon="-102.49864491493949"><ele>2007.0</ele><time>2026-03-22T15:22:22.972Z</time></trkpt><trkpt lat="21.871030072599837" lon="-102.49870277537673"><ele>2007.0</ele><time>2026-03-22T15:22:23.972Z</time></trkpt><trkpt lat="21.87095556399246" lon="-102.49877077725867"><ele>2007.0</ele><time>2026-03-22T15:22:24.972Z</time></trkpt><trkpt lat="21.870881760270382" lon="-102.49882605490885"><ele>2006.9999999999998</ele><time>2026-03-22T15:22:25.972Z</time></trkpt><trkpt lat="21.87080785078454" lon="-102.49888577606352"><ele>2006.9999999999998</ele><time>2026-03-22T15:22:26.972Z</time></trkpt><trkpt lat="21.87073532361655" lon="-102.4989439772913"><ele>2007.0</ele><time>2026-03-22T15:22:27.972Z</time></trkpt><trkpt lat="21.870654412956657" lon="-102.49900289555816"><ele>2007.0</ele><time>2026-03-22T15:22:28.972Z</time></trkpt><trkpt lat="21.870580723444423" lon="-102.49905796000517"><ele>2007.0</ele><time>2026-03-22T15:22:29.972Z</time></trkpt><trkpt lat="21.870510772920298" lon="-102.49911611259793"><ele>2006.9999999999998</ele><time>2026-03-22T15:22:30.972Z</time></trkpt><trkpt lat="21.870434799817136" lon="-102.49917550061657"><ele>2006.9999999999998</ele><time>2026-03-22T15:22:31.972Z</time></trkpt><trkpt lat="21.870362900858165" lon="-102.4992355801477"><ele>2007.0</ele><time>2026-03-22T15:22:32.972Z</time></trkpt><trkpt lat="21.870294122523116" lon="-102.49928162055953"><ele>2007.0</ele><time>2026-03-22T15:22:33.972Z</time></trkpt><trkpt lat="21.870209695417255" lon="-102.49934291258825"><ele>2007.0</ele><time>2026-03-22T15:22:34.972Z</time></trkpt><trkpt lat="21.870133236757674" lon="-102.49939627616008"><ele>2006.9999999999998</ele><time>2026-03-22T15:22:35.972Z</time></trkpt><trkpt lat="21.87005419845352" lon="-102.49946382532296"><ele>2006.9999999999998</ele><time>2026-03-22T15:22:36.971Z</time></trkpt><trkpt lat="21.86997475542646" lon="-102.49951749035762"><ele>2007.0</ele><time>2026-03-22T15:22:37.971Z</time></trkpt><trkpt lat="21.869893624992095" lon="-102.4995721254126"><ele>2007.0</ele><time>2026-03-22T15:22:38.971Z</time></trkpt><trkpt lat="21.86980434005316" lon="-102.49964400764713"><ele>2007.1999999999998</ele><time>2026-03-22T15:22:39.971Z</time></trkpt><trkpt lat="21.869734023023486" lon="-102.4996984118646"><ele>2007.3999999999999</ele><time>2026-03-22T15:22:40.971Z</time></trkpt><trkpt lat="21.869655160815448" lon="-102.49976012876661"><ele>2007.6000000000001</ele><time>2026-03-22T15:22:41.971Z</time></trkpt><trkpt lat="21.86957154234922" lon="-102.49981836241955"><ele>2007.8000000000002</ele><time>2026-03-22T15:22:42.971Z</time></trkpt><trkpt lat="21.869487181537437" lon="-102.49986806340894"><ele>2008.0</ele><time>2026-03-22T15:22:43.971Z</time></trkpt><trkpt lat="21.869398043444857" lon="-102.49992153311537"><ele>2008.0</ele><time>2026-03-22T15:22:44.971Z</time></trkpt><trkpt lat="21.86931705056254" lon="-102.4999726293277"><ele>2008.0000000000002</ele><time>2026-03-22T15:22:45.971Z</time></trkpt><trkpt lat="21.869232424338584" lon="-102.50002680113518"><ele>2008.0000000000002</ele><time>2026-03-22T15:22:46.971Z</time></trkpt><trkpt lat="21.869145876700887" lon="-102.50007912252937"><ele>2008.0</ele><time>2026-03-22T15:22:47.971Z</time></trkpt><trkpt lat="21.869059547436805" lon="-102.50013608770863"><ele>2008.0</ele><time>2026-03-22T15:22:48.971Z</time></trkpt><trkpt lat="21.868967762289593" lon="-102.50018969644212"><ele>2007.8000000000002</ele><time>2026-03-22T15:22:49.971Z</time></trkpt><trkpt lat="21.86887900725516" lon="-102.50023443285426"><ele>2007.6000000000001</ele><time>2026-03-22T15:22:50.971Z</time></trkpt><trkpt lat="21.868780803749722" lon="-102.50028356158691"><ele>2007.3999999999999</ele><time>2026-03-22T15:22:51.971Z</time></trkpt><trkpt lat="21.868679208339763" lon="-102.5003325810908"><ele>2007.1999999999998</ele><time>2026-03-22T15:22:52.971Z</time></trkpt><trkpt lat="21.868597242667317" lon="-102.50038506909151"><ele>2007.0</ele><time>2026-03-22T15:22:53.971Z</time></trkpt><trkpt lat="21.868504182439864" lon="-102.50044156274684"><ele>2006.8</ele><time>2026-03-22T15:22:54.971Z</time></trkpt><trkpt lat="21.868407735110548" lon="-102.50048629091569"><ele>2006.6</ele><time>2026-03-22T15:22:55.971Z</time></trkpt><trkpt lat="21.868309278528567" lon="-102.50053626155017"><ele>2006.3999999999999</ele><time>2026-03-22T15:22:56.971Z</time></trkpt><trkpt lat="21.86821929345142" lon="-102.50058118429412"><ele>2006.1999999999998</ele><time>2026-03-22T15:22:57.971Z</time></trkpt><trkpt lat="21.86812208443212" lon="-102.50062479266799"><ele>2006.0</ele><time>2026-03-22T15:22:58.971Z</time></trkpt><trkpt lat="21.868021502519852" lon="-102.50066369135406"><ele>2006.0</ele><time>2026-03-22T15:22:59.971Z</time></trkpt><trkpt lat="21.867924394733596" lon="-102.50070938182498"><ele>2006.0</ele><time>2026-03-22T15:23:00.971Z</time></trkpt><trkpt lat="21.867826558777143" lon="-102.50075554548657"><ele>2006.0</ele><time>2026-03-22T15:23:01.971Z</time></trkpt><trkpt lat="21.86773441669788" lon="-102.50079801649774"><ele>2006.0</ele><time>2026-03-22T15:23:02.971Z</time></trkpt><trkpt lat="21.86763553280633" lon="-102.50084308257797"><ele>2006.0</ele><time>2026-03-22T15:23:03.971Z</time></trkpt><trkpt lat="21.867538204008" lon="-102.50087618287985"><ele>2006.0</ele><time>2026-03-22T15:23:04.971Z</time></trkpt><trkpt lat="21.86744242915675" lon="-102.50092108744803"><ele>2006.0</ele><time>2026-03-22T15:23:05.971Z</time></trkpt><trkpt lat="21.86734348142248" lon="-102.50096798038129"><ele>2006.0</ele><time>2026-03-22T15:23:06.971Z</time></trkpt><trkpt lat="21.867242559822255" lon="-102.5010113113385"><ele>2006.0</ele><time>2026-03-22T15:23:07.971Z</time></trkpt><trkpt lat="21.867157864807307" lon="-102.50105278794685"><ele>2006.0</ele><time>2026-03-22T15:23:08.971Z</time></trkpt><trkpt lat="21.86706823104369" lon="-102.50110296916543"><ele>2006.0</ele><time>2026-03-22T15:23:09.971Z</time></trkpt><trkpt lat="21.86696590199098" lon="-102.50114796659373"><ele>2006.0</ele><time>2026-03-22T15:23:10.971Z</time></trkpt><trkpt lat="21.866873832882124" lon="-102.50118931369484"><ele>2006.0</ele><time>2026-03-22T15:23:11.971Z</time></trkpt><trkpt lat="21.866780189588255" lon="-102.50123402475074"><ele>2006.0</ele><time>2026-03-22T15:23:12.971Z</time></trkpt><trkpt lat="21.8666847729907" lon="-102.50127927970411"><ele>2006.0</ele><time>2026-03-22T15:23:13.971Z</time></trkpt><trkpt lat="21.86658870797157" lon="-102.50131678890061"><ele>2005.6</ele><time>2026-03-22T15:23:14.971Z</time></trkpt><trkpt lat="21.866494080126635" lon="-102.50135943000956"><ele>2005.1999999999998</ele><time>2026-03-22T15:23:15.971Z</time></trkpt><trkpt lat="21.866401697105182" lon="-102.50140227678548"><ele>2004.8000000000002</ele><time>2026-03-22T15:23:16.971Z</time></trkpt><trkpt lat="21.866306676145623" lon="-102.50145208181263"><ele>2004.4</ele><time>2026-03-22T15:23:17.971Z</time></trkpt><trkpt lat="21.866220207042545" lon="-102.50150374441805"><ele>2004.0</ele><time>2026-03-22T15:23:18.971Z</time></trkpt><trkpt lat="21.866127883619868" lon="-102.50156260529388"><ele>2004.0</ele><time>2026-03-22T15:23:19.971Z</time></trkpt><trkpt lat="21.866046268294028" lon="-102.50162180285768"><ele>2004.0</ele><time>2026-03-22T15:23:20.971Z</time></trkpt><trkpt lat="21.865963888714113" lon="-102.50168039872854"><ele>2004.0</ele><time>2026-03-22T15:23:21.971Z</time></trkpt><trkpt lat="21.865878797898205" lon="-102.50174711822585"><ele>2004.0</ele><time>2026-03-22T15:23:22.971Z</time></trkpt><trkpt lat="21.86579822032195" lon="-102.5018184848431"><ele>2004.0</ele><time>2026-03-22T15:23:23.971Z</time></trkpt><trkpt lat="21.865724750405594" lon="-102.50189337368786"><ele>2004.2</ele><time>2026-03-22T15:23:24.971Z</time></trkpt><trkpt lat="21.865647532810975" lon="-102.50197613175746"><ele>2004.4</ele><time>2026-03-22T15:23:25.971Z</time></trkpt><trkpt lat="21.865582918447352" lon="-102.50206475247812"><ele>2004.6</ele><time>2026-03-22T15:23:26.971Z</time></trkpt><trkpt lat="21.865514854090936" lon="-102.50214629950732"><ele>2004.8</ele><time>2026-03-22T15:23:27.971Z</time></trkpt><trkpt lat="21.86544732524783" lon="-102.50223614619735"><ele>2005.0</ele><time>2026-03-22T15:23:28.971Z</time></trkpt><trkpt lat="21.865385593663184" lon="-102.50232592135366"><ele>2004.0</ele><time>2026-03-22T15:23:29.971Z</time></trkpt><trkpt lat="21.865323888350925" lon="-102.5024290543674"><ele>2003.0</ele><time>2026-03-22T15:23:30.971Z</time></trkpt><trkpt lat="21.865264893085303" lon="-102.50253126679911"><ele>2002.0</ele><time>2026-03-22T15:23:31.971Z</time></trkpt><trkpt lat="21.865210894470383" lon="-102.50263144611593"><ele>2001.0</ele><time>2026-03-22T15:23:32.971Z</time></trkpt><trkpt lat="21.865159060679474" lon="-102.50274181116193"><ele>2000.0</ele><time>2026-03-22T15:23:33.971Z</time></trkpt><trkpt lat="21.865120827830545" lon="-102.50284744897117"><ele>2000.0</ele><time>2026-03-22T15:23:34.971Z</time></trkpt><trkpt lat="21.865074561242412" lon="-102.50296781550603"><ele>2000.0</ele><time>2026-03-22T15:23:35.971Z</time></trkpt><trkpt lat="21.865031385520492" lon="-102.50307865338803"><ele>2000.0</ele><time>2026-03-22T15:23:36.971Z</time></trkpt><trkpt lat="21.864995038249617" lon="-102.50319744526495"><ele>2000.0</ele><time>2026-03-22T15:23:37.971Z</time></trkpt><trkpt lat="21.864963101954555" lon="-102.50332055840117"><ele>2000.0</ele><time>2026-03-22T15:23:38.971Z</time></trkpt><trkpt lat="21.864923896537746" lon="-102.50344014890798"><ele>2000.0</ele><time>2026-03-22T15:23:39.971Z</time></trkpt><trkpt lat="21.864885749107234" lon="-102.50355998627191"><ele>2000.0</ele><time>2026-03-22T15:23:40.97Z</time></trkpt><trkpt lat="21.864846906134247" lon="-102.50368247016574"><ele>2000.0</ele><time>2026-03-22T15:23:41.97Z</time></trkpt><trkpt lat="21.86480547039125" lon="-102.50380729366601"><ele>1999.5</ele><time>2026-03-22T15:23:42.97Z</time></trkpt><trkpt lat="21.864763634752702" lon="-102.50392059185907"><ele>1999.0</ele><time>2026-03-22T15:23:43.97Z</time></trkpt><trkpt lat="21.864724596325313" lon="-102.50404940302018"><ele>1998.5</ele><time>2026-03-22T15:23:44.97Z</time></trkpt><trkpt lat="21.86468627629448" lon="-102.50417724528938"><ele>1998.0</ele><time>2026-03-22T15:23:45.97Z</time></trkpt><trkpt lat="21.86464141968078" lon="-102.50429418671379"><ele>1998.0</ele><time>2026-03-22T15:23:46.97Z</time></trkpt><trkpt lat="21.864595580093336" lon="-102.50442652825039"><ele>1998.0</ele><time>2026-03-22T15:23:47.97Z</time></trkpt><trkpt lat="21.864557753763265" lon="-102.50455618382632"><ele>1998.0</ele><time>2026-03-22T15:23:48.97Z</time></trkpt><trkpt lat="21.86451608342492" lon="-102.50468217237754"><ele>1998.0</ele><time>2026-03-22T15:23:49.97Z</time></trkpt><trkpt lat="21.86447467511143" lon="-102.5048144059673"><ele>1996.75</ele><time>2026-03-22T15:23:50.97Z</time></trkpt><trkpt lat="21.864432331977547" lon="-102.504941607294"><ele>1995.5</ele><time>2026-03-22T15:23:51.97Z</time></trkpt><trkpt lat="21.864388357594795" lon="-102.50506212949112"><ele>1994.25</ele><time>2026-03-22T15:23:52.97Z</time></trkpt><trkpt lat="21.864344762855563" lon="-102.50519633354443"><ele>1993.0</ele><time>2026-03-22T15:23:53.97Z</time></trkpt><trkpt lat="21.86430281077563" lon="-102.50532342965775"><ele>1993.25</ele><time>2026-03-22T15:23:54.97Z</time></trkpt><trkpt lat="21.864259878639317" lon="-102.50545245514854"><ele>1993.5</ele><time>2026-03-22T15:23:55.97Z</time></trkpt><trkpt lat="21.864220957318473" lon="-102.50558120314057"><ele>1993.75</ele><time>2026-03-22T15:23:56.972Z</time></trkpt><trkpt lat="21.86418358025858" lon="-102.5057003619413"><ele>1994.0</ele><time>2026-03-22T15:23:57.971Z</time></trkpt><trkpt lat="21.864143223103884" lon="-102.50582962392019"><ele>1994.0</ele><time>2026-03-22T15:23:58.971Z</time></trkpt><trkpt lat="21.864100911704053" lon="-102.5059592767457"><ele>1994.0</ele><time>2026-03-22T15:23:59.972Z</time></trkpt><trkpt lat="21.86406280565909" lon="-102.50608587490444"><ele>1994.0</ele><time>2026-03-22T15:24:00.971Z</time></trkpt><trkpt lat="21.86401843844115" lon="-102.5062175093648"><ele>1994.0</ele><time>2026-03-22T15:24:01.971Z</time></trkpt><trkpt lat="21.863980780299208" lon="-102.50633748178215"><ele>1992.75</ele><time>2026-03-22T15:24:02.972Z</time></trkpt><trkpt lat="21.86394034786203" lon="-102.5064702739959"><ele>1991.5</ele><time>2026-03-22T15:24:03.972Z</time></trkpt><trkpt lat="21.863901037763572" lon="-102.50659049772538"><ele>1990.25</ele><time>2026-03-22T15:24:04.972Z</time></trkpt><trkpt lat="21.86385103732283" lon="-102.50672699548946"><ele>1989.0</ele><time>2026-03-22T15:24:05.971Z</time></trkpt><trkpt lat="21.86381256457584" lon="-102.50685147282833"><ele>1989.0</ele><time>2026-03-22T15:24:06.971Z</time></trkpt><trkpt lat="21.863772602167167" lon="-102.5069736401833"><ele>1989.0</ele><time>2026-03-22T15:24:07.971Z</time></trkpt><trkpt lat="21.863729791260827" lon="-102.5070970833602"><ele>1989.0</ele><time>2026-03-22T15:24:08.971Z</time></trkpt><trkpt lat="21.86369046947031" lon="-102.50722365728247"><ele>1989.0</ele><time>2026-03-22T15:24:09.972Z</time></trkpt><trkpt lat="21.86364786682737" lon="-102.50735134144546"><ele>1988.25</ele><time>2026-03-22T15:24:10.972Z</time></trkpt><trkpt lat="21.863610246089525" lon="-102.5074754001963"><ele>1987.5</ele><time>2026-03-22T15:24:11.972Z</time></trkpt><trkpt lat="21.863566406481016" lon="-102.50759883289253"><ele>1986.75</ele><time>2026-03-22T15:24:12.972Z</time></trkpt><trkpt lat="21.863526033417138" lon="-102.5077247470884"><ele>1986.0</ele><time>2026-03-22T15:24:13.972Z</time></trkpt><trkpt lat="21.8634828670372" lon="-102.50785155780979"><ele>1986.25</ele><time>2026-03-22T15:24:14.972Z</time></trkpt><trkpt lat="21.863443957700454" lon="-102.50798362569765"><ele>1986.5</ele><time>2026-03-22T15:24:15.972Z</time></trkpt><trkpt lat="21.86340384269087" lon="-102.5081101915387"><ele>1986.75</ele><time>2026-03-22T15:24:16.972Z</time></trkpt><trkpt lat="21.863368049064235" lon="-102.50823739932488"><ele>1987.0</ele><time>2026-03-22T15:24:17.972Z</time></trkpt><trkpt lat="21.863325993650175" lon="-102.50836053694364"><ele>1987.0</ele><time>2026-03-22T15:24:18.972Z</time></trkpt><trkpt lat="21.863279417119877" lon="-102.50848041778252"><ele>1987.0</ele><time>2026-03-22T15:24:19.972Z</time></trkpt><trkpt lat="21.863234365323546" lon="-102.50860170025544"><ele>1987.0</ele><time>2026-03-22T15:24:20.972Z</time></trkpt><trkpt lat="21.86319715147948" lon="-102.50872861069227"><ele>1987.0</ele><time>2026-03-22T15:24:21.972Z</time></trkpt><trkpt lat="21.86315526920171" lon="-102.50885686537865"><ele>1986.0</ele><time>2026-03-22T15:24:22.972Z</time></trkpt><trkpt lat="21.863114450099864" lon="-102.50898543197985"><ele>1985.0</ele><time>2026-03-22T15:24:23.972Z</time></trkpt><trkpt lat="21.863072473205925" lon="-102.50911073061343"><ele>1984.0</ele><time>2026-03-22T15:24:24.972Z</time></trkpt><trkpt lat="21.863029282454747" lon="-102.50924091545616"><ele>1983.0</ele><time>2026-03-22T15:24:25.972Z</time></trkpt><trkpt lat="21.862989555585195" lon="-102.50936674717626"><ele>1983.0</ele><time>2026-03-22T15:24:26.972Z</time></trkpt><trkpt lat="21.86294510963989" lon="-102.50949112539108"><ele>1983.0</ele><time>2026-03-22T15:24:27.972Z</time></trkpt><trkpt lat="21.862903358818798" lon="-102.50961853620527"><ele>1983.0</ele><time>2026-03-22T15:24:28.972Z</time></trkpt><trkpt lat="21.862848905685183" lon="-102.5097486449642"><ele>1983.0</ele><time>2026-03-22T15:24:29.972Z</time></trkpt><trkpt lat="21.862801532358453" lon="-102.50987440015005"><ele>1983.25</ele><time>2026-03-22T15:24:30.972Z</time></trkpt><trkpt lat="21.86275428657744" lon="-102.50999974559751"><ele>1983.5</ele><time>2026-03-22T15:24:31.972Z</time></trkpt><trkpt lat="21.862700091951424" lon="-102.51012191891232"><ele>1983.75</ele><time>2026-03-22T15:24:32.972Z</time></trkpt><trkpt lat="21.862648488411182" lon="-102.51024707389405"><ele>1984.0</ele><time>2026-03-22T15:24:33.972Z</time></trkpt><trkpt lat="21.862595863700978" lon="-102.51036764555052"><ele>1983.5</ele><time>2026-03-22T15:24:34.972Z</time></trkpt><trkpt lat="21.862531056714726" lon="-102.5104988279653"><ele>1983.0</ele><time>2026-03-22T15:24:35.972Z</time></trkpt><trkpt lat="21.86247775551901" lon="-102.51061363773397"><ele>1982.5</ele><time>2026-03-22T15:24:36.972Z</time></trkpt><trkpt lat="21.862420442182945" lon="-102.51073950599526"><ele>1982.0</ele><time>2026-03-22T15:24:37.972Z</time></trkpt><trkpt lat="21.8623669430391" lon="-102.5108564930768"><ele>1982.0</ele><time>2026-03-22T15:24:38.972Z</time></trkpt><trkpt lat="21.86230594316946" lon="-102.51097830936342"><ele>1982.0</ele><time>2026-03-22T15:24:39.971Z</time></trkpt><trkpt lat="21.862245217957533" lon="-102.51109964795396"><ele>1982.0</ele><time>2026-03-22T15:24:40.971Z</time></trkpt><trkpt lat="21.862183037165202" lon="-102.51121750154928"><ele>1982.0</ele><time>2026-03-22T15:24:41.971Z</time></trkpt><trkpt lat="21.862120492563797" lon="-102.51133424985247"><ele>1981.0</ele><time>2026-03-22T15:24:42.971Z</time></trkpt><trkpt lat="21.86206359682116" lon="-102.51145541525067"><ele>1980.0</ele><time>2026-03-22T15:24:43.971Z</time></trkpt><trkpt lat="21.86200275228925" lon="-102.51157311622704"><ele>1979.0</ele><time>2026-03-22T15:24:44.971Z</time></trkpt><trkpt lat="21.861940971679907" lon="-102.5117006890107"><ele>1978.0</ele><time>2026-03-22T15:24:45.971Z</time></trkpt><trkpt lat="21.861886645238158" lon="-102.51181662582626"><ele>1978.0</ele><time>2026-03-22T15:24:46.971Z</time></trkpt><trkpt lat="21.86181889170627" lon="-102.51193339396804"><ele>1978.0</ele><time>2026-03-22T15:24:47.971Z</time></trkpt><trkpt lat="21.861764441162087" lon="-102.51205876819911"><ele>1978.0</ele><time>2026-03-22T15:24:48.971Z</time></trkpt><trkpt lat="21.861703951433615" lon="-102.51217833371817"><ele>1978.0</ele><time>2026-03-22T15:24:49.971Z</time></trkpt><trkpt lat="21.861642857403144" lon="-102.51230107943711"><ele>1978.25</ele><time>2026-03-22T15:24:50.971Z</time></trkpt><trkpt lat="21.861576947591285" lon="-102.5124318894714"><ele>1978.5</ele><time>2026-03-22T15:24:51.971Z</time></trkpt><trkpt lat="21.861523693361526" lon="-102.5125425597924"><ele>1978.75</ele><time>2026-03-22T15:24:52.971Z</time></trkpt><trkpt lat="21.861462690618218" lon="-102.51266538641606"><ele>1979.0</ele><time>2026-03-22T15:24:53.971Z</time></trkpt><trkpt lat="21.86140422322069" lon="-102.51279214044695"><ele>1977.75</ele><time>2026-03-22T15:24:54.971Z</time></trkpt><trkpt lat="21.86134391291866" lon="-102.5129109384338"><ele>1976.5</ele><time>2026-03-22T15:24:55.971Z</time></trkpt><trkpt lat="21.861284817868125" lon="-102.51302734003417"><ele>1975.25</ele><time>2026-03-22T15:24:56.971Z</time></trkpt><trkpt lat="21.861223052923997" lon="-102.51314983789928"><ele>1974.0</ele><time>2026-03-22T15:24:57.971Z</time></trkpt><trkpt lat="21.861161457072203" lon="-102.51326860248714"><ele>1974.0</ele><time>2026-03-22T15:24:58.971Z</time></trkpt><trkpt lat="21.861101370283432" lon="-102.51339035673979"><ele>1974.0</ele><time>2026-03-22T15:24:59.971Z</time></trkpt><trkpt lat="21.86104026010326" lon="-102.51351264397245"><ele>1974.0</ele><time>2026-03-22T15:25:00.971Z</time></trkpt><trkpt lat="21.8609750078235" lon="-102.51363456381921"><ele>1974.0</ele><time>2026-03-22T15:25:01.971Z</time></trkpt><trkpt lat="21.860911898356072" lon="-102.5137623460722"><ele>1972.25</ele><time>2026-03-22T15:25:02.971Z</time></trkpt><trkpt lat="21.860839646367666" lon="-102.51387154100259"><ele>1970.5</ele><time>2026-03-22T15:25:03.971Z</time></trkpt><trkpt lat="21.860764154792236" lon="-102.51398756652736"><ele>1968.75</ele><time>2026-03-22T15:25:04.971Z</time></trkpt><trkpt lat="21.8606841209408" lon="-102.51409933745175"><ele>1967.0</ele><time>2026-03-22T15:25:05.971Z</time></trkpt><trkpt lat="21.86060495377082" lon="-102.51421288731748"><ele>1967.0</ele><time>2026-03-22T15:25:06.971Z</time></trkpt><trkpt lat="21.860522888563477" lon="-102.51431248132913"><ele>1967.0</ele><time>2026-03-22T15:25:07.971Z</time></trkpt><trkpt lat="21.860434806682694" lon="-102.51441511501703"><ele>1967.0</ele><time>2026-03-22T15:25:08.971Z</time></trkpt><trkpt lat="21.860340356796144" lon="-102.51450820627765"><ele>1967.0</ele><time>2026-03-22T15:25:09.971Z</time></trkpt><trkpt lat="21.860247196435946" lon="-102.51460322836822"><ele>1965.5</ele><time>2026-03-22T15:25:10.971Z</time></trkpt><trkpt lat="21.86015364301905" lon="-102.51470030643412"><ele>1964.0</ele><time>2026-03-22T15:25:11.971Z</time></trkpt><trkpt lat="21.86005718704779" lon="-102.51479762751607"><ele>1962.5</ele><time>2026-03-22T15:25:12.971Z</time></trkpt><trkpt lat="21.85995231649284" lon="-102.51488251850229"><ele>1961.0</ele><time>2026-03-22T15:25:13.971Z</time></trkpt><trkpt lat="21.859851554250575" lon="-102.51497684784037"><ele>1961.0</ele><time>2026-03-22T15:25:14.971Z</time></trkpt><trkpt lat="21.859753436247694" lon="-102.51507464976697"><ele>1961.0</ele><time>2026-03-22T15:25:15.971Z</time></trkpt><trkpt lat="21.85965002403423" lon="-102.51516846046073"><ele>1961.0</ele><time>2026-03-22T15:25:16.971Z</time></trkpt><trkpt lat="21.859551240154886" lon="-102.51526345104975"><ele>1961.0</ele><time>2026-03-22T15:25:17.971Z</time></trkpt><trkpt lat="21.859442255781637" lon="-102.51536552834497"><ele>1960.25</ele><time>2026-03-22T15:25:18.971Z</time></trkpt><trkpt lat="21.85934897800891" lon="-102.51546178856567"><ele>1959.5</ele><time>2026-03-22T15:25:19.971Z</time></trkpt><trkpt lat="21.859244160309306" lon="-102.51556320700274"><ele>1958.75</ele><time>2026-03-22T15:25:20.971Z</time></trkpt><trkpt lat="21.859144119377685" lon="-102.5156551126706"><ele>1958.0</ele><time>2026-03-22T15:25:21.971Z</time></trkpt><trkpt lat="21.8590412225778" lon="-102.51574761947155"><ele>1958.0</ele><time>2026-03-22T15:25:22.971Z</time></trkpt><trkpt lat="21.858936581584736" lon="-102.5158470754305"><ele>1958.0</ele><time>2026-03-22T15:25:23.971Z</time></trkpt><trkpt lat="21.858846469688363" lon="-102.51594158033205"><ele>1958.0</ele><time>2026-03-22T15:25:24.971Z</time></trkpt><trkpt lat="21.858741944580274" lon="-102.51604682957823"><ele>1958.0</ele><time>2026-03-22T15:25:25.971Z</time></trkpt><trkpt lat="21.858640834708815" lon="-102.51614264313586"><ele>1957.5</ele><time>2026-03-22T15:25:26.971Z</time></trkpt><trkpt lat="21.8585449472102" lon="-102.51624231780781"><ele>1957.0</ele><time>2026-03-22T15:25:27.971Z</time></trkpt><trkpt lat="21.85845278642234" lon="-102.51634973963627"><ele>1956.5</ele><time>2026-03-22T15:25:28.971Z</time></trkpt><trkpt lat="21.858361052049606" lon="-102.51645710088738"><ele>1956.0</ele><time>2026-03-22T15:25:29.971Z</time></trkpt><trkpt lat="21.858274005463265" lon="-102.5165736823503"><ele>1956.0</ele><time>2026-03-22T15:25:30.971Z</time></trkpt><trkpt lat="21.858202509839998" lon="-102.51668364753006"><ele>1956.0</ele><time>2026-03-22T15:25:31.971Z</time></trkpt><trkpt lat="21.858126904337688" lon="-102.51680548012881"><ele>1956.0</ele><time>2026-03-22T15:25:32.971Z</time></trkpt><trkpt lat="21.858050336501247" lon="-102.51692633682488"><ele>1956.0</ele><time>2026-03-22T15:25:33.971Z</time></trkpt><trkpt lat="21.857973532480703" lon="-102.51705679676313"><ele>1955.0</ele><time>2026-03-22T15:25:34.971Z</time></trkpt><trkpt lat="21.857910437478733" lon="-102.51719404502916"><ele>1954.0</ele><time>2026-03-22T15:25:35.971Z</time></trkpt><trkpt lat="21.857854781196522" lon="-102.51733103939729"><ele>1953.0</ele><time>2026-03-22T15:25:36.971Z</time></trkpt><trkpt lat="21.857800133854813" lon="-102.51747470561985"><ele>1952.0</ele><time>2026-03-22T15:25:37.971Z</time></trkpt><trkpt lat="21.857760699531955" lon="-102.51762174633677"><ele>1952.0</ele><time>2026-03-22T15:25:38.971Z</time></trkpt><trkpt lat="21.857713886343667" lon="-102.5177792652664"><ele>1952.0</ele><time>2026-03-22T15:25:39.971Z</time></trkpt><trkpt lat="21.857680210511365" lon="-102.51793147935827"><ele>1952.0</ele><time>2026-03-22T15:25:40.971Z</time></trkpt><trkpt lat="21.8576500741679" lon="-102.5180895460813"><ele>1952.0</ele><time>2026-03-22T15:25:41.971Z</time></trkpt><trkpt lat="21.857615203533204" lon="-102.51824940888763"><ele>1950.3333333333333</ele><time>2026-03-22T15:25:42.971Z</time></trkpt><trkpt lat="21.857581325106114" lon="-102.51841561607478"><ele>1948.6666666666665</ele><time>2026-03-22T15:25:43.97Z</time></trkpt><trkpt lat="21.85754131215195" lon="-102.51857900598787"><ele>1947.0</ele><time>2026-03-22T15:25:44.97Z</time></trkpt><trkpt lat="21.857510101173233" lon="-102.51874497240281"><ele>1945.3333333333335</ele><time>2026-03-22T15:25:45.97Z</time></trkpt><trkpt lat="21.85747708036887" lon="-102.51891540508987"><ele>1943.6666666666667</ele><time>2026-03-22T15:25:46.97Z</time></trkpt><trkpt lat="21.85743822022868" lon="-102.51908700487617"><ele>1942.0</ele><time>2026-03-22T15:25:47.97Z</time></trkpt><trkpt lat="21.85740248601118" lon="-102.51925477788497"><ele>1942.0</ele><time>2026-03-22T15:25:48.97Z</time></trkpt><trkpt lat="21.85736212712553" lon="-102.51942206542351"><ele>1942.0</ele><time>2026-03-22T15:25:49.97Z</time></trkpt><trkpt lat="21.857326108972526" lon="-102.51959382330612"><ele>1942.0</ele><time>2026-03-22T15:25:50.97Z</time></trkpt><trkpt lat="21.85729381039838" lon="-102.51976465041221"><ele>1940.0</ele><time>2026-03-22T15:25:51.97Z</time></trkpt><trkpt lat="21.85725182522974" lon="-102.51994215826836"><ele>1938.0</ele><time>2026-03-22T15:25:52.97Z</time></trkpt><trkpt lat="21.857216125170115" lon="-102.5201158601425"><ele>1936.0</ele><time>2026-03-22T15:25:53.97Z</time></trkpt><trkpt lat="21.857173921505638" lon="-102.52028801455626"><ele>1933.6666666666667</ele><time>2026-03-22T15:25:54.97Z</time></trkpt><trkpt lat="21.85713703809039" lon="-102.52045747967823"><ele>1931.3333333333335</ele><time>2026-03-22T15:25:55.97Z</time></trkpt><trkpt lat="21.857108424761552" lon="-102.52062872559276"><ele>1929.0</ele><time>2026-03-22T15:25:56.97Z</time></trkpt><trkpt lat="21.85706747542664" lon="-102.52079636162712"><ele>1929.0</ele><time>2026-03-22T15:25:57.97Z</time></trkpt><trkpt lat="21.857030388090394" lon="-102.52096928444128"><ele>1929.0</ele><time>2026-03-22T15:25:58.97Z</time></trkpt><trkpt lat="21.856994707545198" lon="-102.52113475572925"><ele>1929.0</ele><time>2026-03-22T15:25:59.97Z</time></trkpt><trkpt lat="21.85696127890481" lon="-102.52129884692248"><ele>1928.3333333333335</ele><time>2026-03-22T15:26:00.97Z</time></trkpt><trkpt lat="21.85692499969219" lon="-102.52146090860757"><ele>1927.6666666666667</ele><time>2026-03-22T15:26:01.97Z</time></trkpt><trkpt lat="21.85688719169617" lon="-102.52162030205965"><ele>1927.0</ele><time>2026-03-22T15:26:02.971Z</time></trkpt><trkpt lat="21.856852376804476" lon="-102.52177618352995"><ele>1927.0</ele><time>2026-03-22T15:26:03.971Z</time></trkpt><trkpt lat="21.856819419996757" lon="-102.52192972041922"><ele>1927.0</ele><time>2026-03-22T15:26:04.971Z</time></trkpt><trkpt lat="21.85678191429835" lon="-102.52208094133925"><ele>1927.0</ele><time>2026-03-22T15:26:05.971Z</time></trkpt><trkpt lat="21.856748570052968" lon="-102.5222345422176"><ele>1927.0</ele><time>2026-03-22T15:26:06.971Z</time></trkpt><trkpt lat="21.856711726514597" lon="-102.52238688498288"><ele>1926.75</ele><time>2026-03-22T15:26:07.971Z</time></trkpt><trkpt lat="21.85667625699961" lon="-102.52253916462084"><ele>1926.5</ele><time>2026-03-22T15:26:08.971Z</time></trkpt><trkpt lat="21.856639067748397" lon="-102.52269236189593"><ele>1926.25</ele><time>2026-03-22T15:26:09.971Z</time></trkpt><trkpt lat="21.856607298287432" lon="-102.522843846803"><ele>1926.0</ele><time>2026-03-22T15:26:10.971Z</time></trkpt><trkpt lat="21.856571379863375" lon="-102.52299721542303"><ele>1925.75</ele><time>2026-03-22T15:26:11.971Z</time></trkpt><trkpt lat="21.856537633024264" lon="-102.52314928909246"><ele>1925.5</ele><time>2026-03-22T15:26:12.971Z</time></trkpt><trkpt lat="21.856507504116024" lon="-102.52329468940822"><ele>1925.25</ele><time>2026-03-22T15:26:13.971Z</time></trkpt><trkpt lat="21.8564790886025" lon="-102.52344730168603"><ele>1925.0</ele><time>2026-03-22T15:26:14.971Z</time></trkpt><trkpt lat="21.856450490830596" lon="-102.52360018665081"><ele>1924.25</ele><time>2026-03-22T15:26:15.971Z</time></trkpt><trkpt lat="21.85642005390171" lon="-102.52375097490832"><ele>1923.5</ele><time>2026-03-22T15:26:16.971Z</time></trkpt><trkpt lat="21.856386395344447" lon="-102.5238973063519"><ele>1922.75</ele><time>2026-03-22T15:26:17.971Z</time></trkpt><trkpt lat="21.856351629122763" lon="-102.52404661649017"><ele>1922.0</ele><time>2026-03-22T15:26:18.971Z</time></trkpt><trkpt lat="21.85631910802228" lon="-102.52419236915571"><ele>1922.0</ele><time>2026-03-22T15:26:19.971Z</time></trkpt><trkpt lat="21.856285169570928" lon="-102.52434005132501"><ele>1922.0</ele><time>2026-03-22T15:26:20.971Z</time></trkpt><trkpt lat="21.856253418444464" lon="-102.52448498378041"><ele>1922.0</ele><time>2026-03-22T15:26:21.971Z</time></trkpt><trkpt lat="21.856219555462392" lon="-102.5246344366236"><ele>1922.0</ele><time>2026-03-22T15:26:22.971Z</time></trkpt><trkpt lat="21.85618839998291" lon="-102.52478017385745"><ele>1921.5</ele><time>2026-03-22T15:26:23.971Z</time></trkpt><trkpt lat="21.85615688537224" lon="-102.52492722676213"><ele>1921.0</ele><time>2026-03-22T15:26:24.971Z</time></trkpt><trkpt lat="21.856129361419733" lon="-102.5250700062618"><ele>1920.5</ele><time>2026-03-22T15:26:25.971Z</time></trkpt><trkpt lat="21.856094827082774" lon="-102.52521720188929"><ele>1920.0</ele><time>2026-03-22T15:26:26.971Z</time></trkpt><trkpt lat="21.856059665403066" lon="-102.52536784018987"><ele>1920.0</ele><time>2026-03-22T15:26:27.971Z</time></trkpt><trkpt lat="21.856024160844125" lon="-102.52551811267689"><ele>1920.0</ele><time>2026-03-22T15:26:28.97Z</time></trkpt><trkpt lat="21.85599121149545" lon="-102.52566677934978"><ele>1920.0</ele><time>2026-03-22T15:26:29.97Z</time></trkpt><trkpt lat="21.855964019015584" lon="-102.52581617211617"><ele>1920.0</ele><time>2026-03-22T15:26:30.97Z</time></trkpt><trkpt lat="21.85593127387661" lon="-102.52596448037445"><ele>1920.0</ele><time>2026-03-22T15:26:31.97Z</time></trkpt><trkpt lat="21.855899465612264" lon="-102.52611140434217"><ele>1920.0</ele><time>2026-03-22T15:26:32.97Z</time></trkpt><trkpt lat="21.85586535479559" lon="-102.52625710058892"><ele>1920.0</ele><time>2026-03-22T15:26:33.97Z</time></trkpt><trkpt lat="21.85583227445613" lon="-102.52640061386587"><ele>1920.0</ele><time>2026-03-22T15:26:34.97Z</time></trkpt><trkpt lat="21.855793665173852" lon="-102.52654521970891"><ele>1919.3333333333335</ele><time>2026-03-22T15:26:35.97Z</time></trkpt><trkpt lat="21.85574725064821" lon="-102.52668638193103"><ele>1918.6666666666667</ele><time>2026-03-22T15:26:36.97Z</time></trkpt><trkpt lat="21.855616223280666" lon="-102.52694880282321"><ele>1918.0</ele><time>2026-03-22T15:26:38.97Z</time></trkpt><trkpt lat="21.855538475112667" lon="-102.52707056891106"><ele>1917.5</ele><time>2026-03-22T15:26:39.97Z</time></trkpt><trkpt lat="21.85545818741284" lon="-102.52718881097948"><ele>1917.0</ele><time>2026-03-22T15:26:40.97Z</time></trkpt><trkpt lat="21.85537461844811" lon="-102.52729608801913"><ele>1916.5</ele><time>2026-03-22T15:26:41.97Z</time></trkpt><trkpt lat="21.85528007994082" lon="-102.52740264172184"><ele>1916.0</ele><time>2026-03-22T15:26:42.97Z</time></trkpt><trkpt lat="21.85518781843014" lon="-102.5274939062871"><ele>1915.75</ele><time>2026-03-22T15:26:43.97Z</time></trkpt><trkpt lat="21.855085991465728" lon="-102.52758463312033"><ele>1915.5</ele><time>2026-03-22T15:26:44.97Z</time></trkpt><trkpt lat="21.854974110051632" lon="-102.52766339042387"><ele>1915.25</ele><time>2026-03-22T15:26:45.97Z</time></trkpt><trkpt lat="21.854870902927168" lon="-102.52772639202125"><ele>1915.0</ele><time>2026-03-22T15:26:46.97Z</time></trkpt><trkpt lat="21.854759242579362" lon="-102.52778032844061"><ele>1915.0</ele><time>2026-03-22T15:26:47.97Z</time></trkpt><trkpt lat="21.85464450187363" lon="-102.52783757511659"><ele>1915.0</ele><time>2026-03-22T15:26:48.97Z</time></trkpt><trkpt lat="21.854530671393622" lon="-102.52788742365016"><ele>1915.0</ele><time>2026-03-22T15:26:49.97Z</time></trkpt><trkpt lat="21.854419456046838" lon="-102.5279372910738"><ele>1915.0</ele><time>2026-03-22T15:26:50.97Z</time></trkpt><trkpt lat="21.854303596729764" lon="-102.52798208482805"><ele>1914.25</ele><time>2026-03-22T15:26:51.97Z</time></trkpt><trkpt lat="21.854192447084465" lon="-102.52802870445157"><ele>1913.5</ele><time>2026-03-22T15:26:52.97Z</time></trkpt><trkpt lat="21.854080132393303" lon="-102.52807652687707"><ele>1912.75</ele><time>2026-03-22T15:26:53.97Z</time></trkpt><trkpt lat="21.853967487928685" lon="-102.52811791637966"><ele>1912.0</ele><time>2026-03-22T15:26:54.97Z</time></trkpt><trkpt lat="21.85385331871437" lon="-102.52816100015255"><ele>1912.0</ele><time>2026-03-22T15:26:55.97Z</time></trkpt><trkpt lat="21.853743482221407" lon="-102.52820753187734"><ele>1912.0</ele><time>2026-03-22T15:26:56.97Z</time></trkpt><trkpt lat="21.8536294491123" lon="-102.52825296896962"><ele>1912.0</ele><time>2026-03-22T15:26:57.97Z</time></trkpt><trkpt lat="21.85351288485832" lon="-102.5282992363596"><ele>1912.0</ele><time>2026-03-22T15:26:58.97Z</time></trkpt><trkpt lat="21.853398274011305" lon="-102.5283403146209"><ele>1912.25</ele><time>2026-03-22T15:26:59.97Z</time></trkpt><trkpt lat="21.853283272887147" lon="-102.52838812668438"><ele>1912.5</ele><time>2026-03-22T15:27:00.97Z</time></trkpt><trkpt lat="21.853167138965347" lon="-102.52843443012715"><ele>1912.75</ele><time>2026-03-22T15:27:01.97Z</time></trkpt><trkpt lat="21.85305004372987" lon="-102.5284753071865"><ele>1913.0</ele><time>2026-03-22T15:27:02.97Z</time></trkpt><trkpt lat="21.852932708631716" lon="-102.52852103763888"><ele>1913.0</ele><time>2026-03-22T15:27:03.97Z</time></trkpt><trkpt lat="21.852814191420354" lon="-102.5285682335485"><ele>1913.0</ele><time>2026-03-22T15:27:04.97Z</time></trkpt><trkpt lat="21.8526966529168" lon="-102.52861818152998"><ele>1913.0</ele><time>2026-03-22T15:27:05.97Z</time></trkpt><trkpt lat="21.852576293271206" lon="-102.52866403020523"><ele>1913.0</ele><time>2026-03-22T15:27:06.97Z</time></trkpt><trkpt lat="21.852457805494247" lon="-102.5287129391969"><ele>1912.25</ele><time>2026-03-22T15:27:07.97Z</time></trkpt><trkpt lat="21.852337477735375" lon="-102.52876021346167"><ele>1911.5</ele><time>2026-03-22T15:27:08.97Z</time></trkpt><trkpt lat="21.852219951692952" lon="-102.52880684853906"><ele>1910.75</ele><time>2026-03-22T15:27:09.97Z</time></trkpt><trkpt lat="21.852097891083627" lon="-102.52885480674328"><ele>1910.0</ele><time>2026-03-22T15:27:10.97Z</time></trkpt><trkpt lat="21.851979083845332" lon="-102.52890349812019"><ele>1910.0</ele><time>2026-03-22T15:27:11.97Z</time></trkpt><trkpt lat="21.85185828087363" lon="-102.52895098095422"><ele>1910.0</ele><time>2026-03-22T15:27:12.97Z</time></trkpt><trkpt lat="21.85173797101259" lon="-102.52899754983382"><ele>1910.0</ele><time>2026-03-22T15:27:13.97Z</time></trkpt><trkpt lat="21.851616442333178" lon="-102.5290450969837"><ele>1910.0</ele><time>2026-03-22T15:27:14.97Z</time></trkpt><trkpt lat="21.851495180577217" lon="-102.5290929122535"><ele>1909.75</ele><time>2026-03-22T15:27:15.97Z</time></trkpt><trkpt lat="21.851374622142075" lon="-102.52914175140656"><ele>1909.5</ele><time>2026-03-22T15:27:16.97Z</time></trkpt><trkpt lat="21.85125005240951" lon="-102.52918905531111"><ele>1909.25</ele><time>2026-03-22T15:27:17.97Z</time></trkpt><trkpt lat="21.85112945094186" lon="-102.52923613254536"><ele>1909.0</ele><time>2026-03-22T15:27:18.97Z</time></trkpt><trkpt lat="21.85101107553192" lon="-102.52928115108124"><ele>1908.75</ele><time>2026-03-22T15:27:19.97Z</time></trkpt><trkpt lat="21.85089509683994" lon="-102.52932300221572"><ele>1908.5</ele><time>2026-03-22T15:27:20.97Z</time></trkpt><trkpt lat="21.850780790039043" lon="-102.52937237649031"><ele>1908.25</ele><time>2026-03-22T15:27:21.97Z</time></trkpt><trkpt lat="21.850663917580423" lon="-102.52941769721666"><ele>1908.0</ele><time>2026-03-22T15:27:22.97Z</time></trkpt><trkpt lat="21.850553697308406" lon="-102.52946327068271"><ele>1908.0</ele><time>2026-03-22T15:27:23.97Z</time></trkpt><trkpt lat="21.85044242306772" lon="-102.52951016388282"><ele>1908.0</ele><time>2026-03-22T15:27:24.97Z</time></trkpt><trkpt lat="21.850332002456224" lon="-102.52955274558403"><ele>1908.0</ele><time>2026-03-22T15:27:25.97Z</time></trkpt><trkpt lat="21.850232670916416" lon="-102.52958904626453"><ele>1908.0</ele><time>2026-03-22T15:27:26.97Z</time></trkpt><trkpt lat="21.850126738271925" lon="-102.52962787624128"><ele>1908.4</ele><time>2026-03-22T15:27:27.97Z</time></trkpt><trkpt lat="21.850023721199353" lon="-102.52967018562047"><ele>1908.8000000000002</ele><time>2026-03-22T15:27:28.97Z</time></trkpt><trkpt lat="21.849914968733504" lon="-102.52971185431471"><ele>1909.2</ele><time>2026-03-22T15:27:29.97Z</time></trkpt><trkpt lat="21.849815794953866" lon="-102.52974990940623"><ele>1909.6</ele><time>2026-03-22T15:27:30.97Z</time></trkpt><trkpt lat="21.849712043739377" lon="-102.52978868671799"><ele>1910.0</ele><time>2026-03-22T15:27:31.97Z</time></trkpt><trkpt lat="21.849614369799973" lon="-102.5298209340065"><ele>1910.0</ele><time>2026-03-22T15:27:32.969Z</time></trkpt><trkpt lat="21.849518808929663" lon="-102.52986178916301"><ele>1910.0</ele><time>2026-03-22T15:27:33.969Z</time></trkpt><trkpt lat="21.849426458268983" lon="-102.52989433532714"><ele>1910.0</ele><time>2026-03-22T15:27:34.969Z</time></trkpt><trkpt lat="21.849334503652635" lon="-102.52992924553213"><ele>1910.0</ele><time>2026-03-22T15:27:35.969Z</time></trkpt><trkpt lat="21.849248408756438" lon="-102.52997161194826"><ele>1910.0</ele><time>2026-03-22T15:27:36.969Z</time></trkpt><trkpt lat="21.8491546466429" lon="-102.53000578123117"><ele>1909.8</ele><time>2026-03-22T15:27:37.969Z</time></trkpt><trkpt lat="21.849065539951855" lon="-102.53003226157277"><ele>1909.6</ele><time>2026-03-22T15:27:38.969Z</time></trkpt><trkpt lat="21.84898066229399" lon="-102.53006942171454"><ele>1909.4</ele><time>2026-03-22T15:27:39.969Z</time></trkpt><trkpt lat="21.848894629838732" lon="-102.53010656619503"><ele>1909.2</ele><time>2026-03-22T15:27:40.969Z</time></trkpt><trkpt lat="21.848809359671062" lon="-102.5301436118807"><ele>1909.0</ele><time>2026-03-22T15:27:41.969Z</time></trkpt><trkpt lat="21.848718889673282" lon="-102.53018013437483"><ele>1909.0000000000002</ele><time>2026-03-22T15:27:42.969Z</time></trkpt><trkpt lat="21.848635694549085" lon="-102.5302071111927"><ele>1909.0</ele><time>2026-03-22T15:27:43.969Z</time></trkpt><trkpt lat="21.84855428184065" lon="-102.53023853198594"><ele>1909.0</ele><time>2026-03-22T15:27:44.969Z</time></trkpt><trkpt lat="21.848476242108426" lon="-102.53027232140619"><ele>1909.0</ele><time>2026-03-22T15:27:45.969Z</time></trkpt><trkpt lat="21.84840108731534" lon="-102.53030706794601"><ele>1909.0000000000002</ele><time>2026-03-22T15:27:46.969Z</time></trkpt><trkpt lat="21.848332900486042" lon="-102.5303434046311"><ele>1909.0</ele><time>2026-03-22T15:27:47.969Z</time></trkpt><trkpt lat="21.84826852061912" lon="-102.53038225381047"><ele>1909.8000000000002</ele><time>2026-03-22T15:27:48.969Z</time></trkpt><trkpt lat="21.848208139182994" lon="-102.53041923424979"><ele>1910.6000000000001</ele><time>2026-03-22T15:27:49.969Z</time></trkpt><trkpt lat="21.848149926400172" lon="-102.53046211462632"><ele>1911.4</ele><time>2026-03-22T15:27:50.969Z</time></trkpt><trkpt lat="21.848048445025388" lon="-102.5305389421065"><ele>1912.2</ele><time>2026-03-22T15:27:52.969Z</time></trkpt><trkpt lat="21.84795680696666" lon="-102.53061430279894"><ele>1913.0</ele><time>2026-03-22T15:27:54.969Z</time></trkpt><trkpt lat="21.847877110872677" lon="-102.53069758158328"><ele>1913.0</ele><time>2026-03-22T15:27:56.969Z</time></trkpt><trkpt lat="21.847810588840815" lon="-102.5307892225066"><ele>1913.0</ele><time>2026-03-22T15:27:58.969Z</time></trkpt><trkpt lat="21.847738436021142" lon="-102.53087857702175"><ele>1913.0</ele><time>2026-03-22T15:28:00.969Z</time></trkpt><trkpt lat="21.84767414200193" lon="-102.53098722204412"><ele>1913.0</ele><time>2026-03-22T15:28:02.969Z</time></trkpt><trkpt lat="21.847615274494512" lon="-102.53110235303537"><ele>1914.0</ele><time>2026-03-22T15:28:04.969Z</time></trkpt><trkpt lat="21.847558432003257" lon="-102.53121610823607"><ele>1915.0</ele><time>2026-03-22T15:28:06.969Z</time></trkpt><trkpt lat="21.847506203313188" lon="-102.53133582323102"><ele>1916.0</ele><time>2026-03-22T15:28:08.97Z</time></trkpt><trkpt lat="21.847458043374026" lon="-102.53145980774788"><ele>1917.0</ele><time>2026-03-22T15:28:10.97Z</time></trkpt><trkpt lat="21.847408717449344" lon="-102.53157690220758"><ele>1917.0</ele><time>2026-03-22T15:28:12.971Z</time></trkpt><trkpt lat="21.847382372383933" lon="-102.5316422943648"><ele>1917.0</ele><time>2026-03-22T15:28:13.97Z</time></trkpt><trkpt lat="21.847355615357024" lon="-102.5317084944385"><ele>1917.0</ele><time>2026-03-22T15:28:14.97Z</time></trkpt><trkpt lat="21.84730237959082" lon="-102.5318363799602"><ele>1917.0</ele><time>2026-03-22T15:28:16.971Z</time></trkpt><trkpt lat="21.84727172602973" lon="-102.53190121798038"><ele>1917.0</ele><time>2026-03-22T15:28:17.97Z</time></trkpt><trkpt lat="21.847238540917466" lon="-102.53196603008935"><ele>1917.0</ele><time>2026-03-22T15:28:18.97Z</time></trkpt><trkpt lat="21.84716469741064" lon="-102.5320741459955"><ele>1917.1666666666667</ele><time>2026-03-22T15:28:20.971Z</time></trkpt><trkpt lat="21.847121861820003" lon="-102.53212701966062"><ele>1917.3333333333335</ele><time>2026-03-22T15:28:21.971Z</time></trkpt><trkpt lat="21.84703962751598" lon="-102.53223206384435"><ele>1917.5</ele><time>2026-03-22T15:28:23.971Z</time></trkpt><trkpt lat="21.846989445398936" lon="-102.53227940255813"><ele>1917.6666666666667</ele><time>2026-03-22T15:28:24.971Z</time></trkpt><trkpt lat="21.846936586503404" lon="-102.53232646142062"><ele>1917.8333333333335</ele><time>2026-03-22T15:28:25.971Z</time></trkpt><trkpt lat="21.84688627929208" lon="-102.53236791330114"><ele>1918.0</ele><time>2026-03-22T15:28:26.971Z</time></trkpt><trkpt lat="21.846836376763786" lon="-102.53241216933192"><ele>1918.5000000000002</ele><time>2026-03-22T15:28:27.97Z</time></trkpt><trkpt lat="21.84678313957248" lon="-102.53245018243612"><ele>1919.0</ele><time>2026-03-22T15:28:28.97Z</time></trkpt><trkpt lat="21.846725997501856" lon="-102.532484999568"><ele>1919.5</ele><time>2026-03-22T15:28:29.97Z</time></trkpt><trkpt lat="21.84661465267248" lon="-102.53254846710416"><ele>1920.0</ele><time>2026-03-22T15:28:31.97Z</time></trkpt><trkpt lat="21.846496227959605" lon="-102.53258559034396"><ele>1920.5000000000002</ele><time>2026-03-22T15:28:33.97Z</time></trkpt><trkpt lat="21.846430963497404" lon="-102.53260777073528"><ele>1921.0</ele><time>2026-03-22T15:28:34.97Z</time></trkpt><trkpt lat="21.846366125452963" lon="-102.53262515843758"><ele>1921.0</ele><time>2026-03-22T15:28:35.97Z</time></trkpt><trkpt lat="21.846302706461827" lon="-102.53263582925446"><ele>1921.0</ele><time>2026-03-22T15:28:36.97Z</time></trkpt><trkpt lat="21.8461744619037" lon="-102.5326491021682"><ele>1921.0</ele><time>2026-03-22T15:28:38.97Z</time></trkpt><trkpt lat="21.846049336430227" lon="-102.53265406301023"><ele>1921.0</ele><time>2026-03-22T15:28:40.97Z</time></trkpt><trkpt lat="21.845982407828895" lon="-102.53265449911848"><ele>1921.0</ele><time>2026-03-22T15:28:41.97Z</time></trkpt><trkpt lat="21.84591523450005" lon="-102.5326480982193"><ele>1921.0</ele><time>2026-03-22T15:28:42.97Z</time></trkpt><trkpt lat="21.845851587108605" lon="-102.53264005626467"><ele>1921.0000000000002</ele><time>2026-03-22T15:28:43.97Z</time></trkpt><trkpt lat="21.84578595321796" lon="-102.53262322917232"><ele>1921.0</ele><time>2026-03-22T15:28:44.97Z</time></trkpt><trkpt lat="21.845718329292144" lon="-102.53260614167016"><ele>1921.0</ele><time>2026-03-22T15:28:45.97Z</time></trkpt><trkpt lat="21.845650573104393" lon="-102.53258496671323"><ele>1921.0000000000002</ele><time>2026-03-22T15:28:46.97Z</time></trkpt><trkpt lat="21.845583720168484" lon="-102.53256633889733"><ele>1921.0</ele><time>2026-03-22T15:28:47.97Z</time></trkpt><trkpt lat="21.84551560357763" lon="-102.5325457559657"><ele>1921.0</ele><time>2026-03-22T15:28:48.97Z</time></trkpt><trkpt lat="21.84544937760387" lon="-102.53252929842118"><ele>1921.0</ele><time>2026-03-22T15:28:49.97Z</time></trkpt><trkpt lat="21.84538168639269" lon="-102.53250964595864"><ele>1921.0000000000002</ele><time>2026-03-22T15:28:50.97Z</time></trkpt><trkpt lat="21.84531350713741" lon="-102.53248408929275"><ele>1921.0</ele><time>2026-03-22T15:28:51.97Z</time></trkpt><trkpt lat="21.84524705226623" lon="-102.5324601060379"><ele>1921.0</ele><time>2026-03-22T15:28:52.97Z</time></trkpt><trkpt lat="21.84518018972395" lon="-102.53244277935849"><ele>1921.0000000000002</ele><time>2026-03-22T15:28:53.97Z</time></trkpt><trkpt lat="21.845105224091586" lon="-102.53241888587559"><ele>1921.0</ele><time>2026-03-22T15:28:54.97Z</time></trkpt><trkpt lat="21.845034640477355" lon="-102.53239642833067"><ele>1921.0</ele><time>2026-03-22T15:28:55.97Z</time></trkpt><trkpt lat="21.8449684067063" lon="-102.53237447800983"><ele>1921.0</ele><time>2026-03-22T15:28:56.97Z</time></trkpt><trkpt lat="21.844896665514472" lon="-102.53235524564606"><ele>1921.0000000000002</ele><time>2026-03-22T15:28:57.97Z</time></trkpt><trkpt lat="21.844825922387788" lon="-102.53233673103131"><ele>1921.0</ele><time>2026-03-22T15:28:58.97Z</time></trkpt><trkpt lat="21.844762957197574" lon="-102.53231975857804"><ele>1921.0</ele><time>2026-03-22T15:28:59.97Z</time></trkpt><trkpt lat="21.84469904674824" lon="-102.53230613936766"><ele>1921.0000000000002</ele><time>2026-03-22T15:29:00.97Z</time></trkpt><trkpt lat="21.84463234565652" lon="-102.53229021385954"><ele>1921.0</ele><time>2026-03-22T15:29:01.97Z</time></trkpt><trkpt lat="21.84455637214177" lon="-102.53226820507388"><ele>1921.0</ele><time>2026-03-22T15:29:02.97Z</time></trkpt><trkpt lat="21.84448755500595" lon="-102.53224959415923"><ele>1921.0</ele><time>2026-03-22T15:29:03.97Z</time></trkpt><trkpt lat="21.844422380505197" lon="-102.53224071075643"><ele>1921.0000000000002</ele><time>2026-03-22T15:29:04.97Z</time></trkpt><trkpt lat="21.84434443687532" lon="-102.5322249718508"><ele>1921.0</ele><time>2026-03-22T15:29:05.97Z</time></trkpt><trkpt lat="21.844268853629952" lon="-102.53221385813573"><ele>1921.0</ele><time>2026-03-22T15:29:06.97Z</time></trkpt><trkpt lat="21.844197231983774" lon="-102.53220574214751"><ele>1921.0000000000002</ele><time>2026-03-22T15:29:07.97Z</time></trkpt><trkpt lat="21.844122490532385" lon="-102.53219785606778"><ele>1921.0</ele><time>2026-03-22T15:29:08.97Z</time></trkpt><trkpt lat="21.844046989817958" lon="-102.53219708939756"><ele>1921.0</ele><time>2026-03-22T15:29:09.97Z</time></trkpt><trkpt lat="21.843979370728192" lon="-102.5322072553207"><ele>1920.6666666666667</ele><time>2026-03-22T15:29:10.97Z</time></trkpt><trkpt lat="21.843903575898636" lon="-102.53221895273703"><ele>1920.3333333333335</ele><time>2026-03-22T15:29:11.97Z</time></trkpt><trkpt lat="21.84382555389606" lon="-102.53223243543209"><ele>1920.0</ele><time>2026-03-22T15:29:12.97Z</time></trkpt><trkpt lat="21.843748454290107" lon="-102.53224866016657"><ele>1919.6666666666665</ele><time>2026-03-22T15:29:13.97Z</time></trkpt><trkpt lat="21.843666311262623" lon="-102.532265505795"><ele>1919.3333333333333</ele><time>2026-03-22T15:29:14.97Z</time></trkpt><trkpt lat="21.843585667765772" lon="-102.53228959407083"><ele>1919.0</ele><time>2026-03-22T15:29:15.97Z</time></trkpt><trkpt lat="21.843507925794373" lon="-102.53231501327268"><ele>1918.6666666666665</ele><time>2026-03-22T15:29:16.97Z</time></trkpt><trkpt lat="21.84343189884677" lon="-102.53234204341643"><ele>1918.3333333333333</ele><time>2026-03-22T15:29:17.97Z</time></trkpt><trkpt lat="21.84335185510636" lon="-102.53237335588737"><ele>1918.0</ele><time>2026-03-22T15:29:18.97Z</time></trkpt><trkpt lat="21.84327498247035" lon="-102.53240804989865"><ele>1917.6666666666665</ele><time>2026-03-22T15:29:19.97Z</time></trkpt><trkpt lat="21.843201572578355" lon="-102.53244834775779"><ele>1917.3333333333333</ele><time>2026-03-22T15:29:20.97Z</time></trkpt><trkpt lat="21.843127893636616" lon="-102.53248921330163"><ele>1917.0</ele><time>2026-03-22T15:29:21.97Z</time></trkpt><trkpt lat="21.843055870570215" lon="-102.53253764733863"><ele>1917.0</ele><time>2026-03-22T15:29:22.97Z</time></trkpt><trkpt lat="21.842978837452417" lon="-102.53258908306604"><ele>1916.9999999999998</ele><time>2026-03-22T15:29:23.97Z</time></trkpt><trkpt lat="21.842907740644137" lon="-102.53264088764203"><ele>1916.9999999999998</ele><time>2026-03-22T15:29:24.97Z</time></trkpt><trkpt lat="21.84283559145168" lon="-102.53270069068033"><ele>1917.0</ele><time>2026-03-22T15:29:25.97Z</time></trkpt><trkpt lat="21.842762859256258" lon="-102.53275850001573"><ele>1917.0</ele><time>2026-03-22T15:29:26.97Z</time></trkpt><trkpt lat="21.842691883950163" lon="-102.53282396933454"><ele>1917.0</ele><time>2026-03-22T15:29:27.97Z</time></trkpt><trkpt lat="21.842620807868098" lon="-102.5328879479488"><ele>1916.9999999999998</ele><time>2026-03-22T15:29:28.97Z</time></trkpt><trkpt lat="21.842556497086793" lon="-102.53295232455659"><ele>1916.9999999999998</ele><time>2026-03-22T15:29:29.97Z</time></trkpt><trkpt lat="21.842487180539408" lon="-102.53301905041546"><ele>1917.0</ele><time>2026-03-22T15:29:30.969Z</time></trkpt><trkpt lat="21.84241685670792" lon="-102.53308667255018"><ele>1917.0</ele><time>2026-03-22T15:29:31.969Z</time></trkpt><trkpt lat="21.84234905231937" lon="-102.53315311800421"><ele>1917.0</ele><time>2026-03-22T15:29:32.969Z</time></trkpt><trkpt lat="21.84228387507359" lon="-102.53321921474038"><ele>1917.0</ele><time>2026-03-22T15:29:33.969Z</time></trkpt><trkpt lat="21.842216888791246" lon="-102.5332873706452"><ele>1917.0</ele><time>2026-03-22T15:29:34.969Z</time></trkpt><trkpt lat="21.842152280981214" lon="-102.53334918055434"><ele>1917.0</ele><time>2026-03-22T15:29:35.969Z</time></trkpt><trkpt lat="21.842086682963817" lon="-102.53341076002896"><ele>1917.0</ele><time>2026-03-22T15:29:36.969Z</time></trkpt><trkpt lat="21.84202175372428" lon="-102.53347386579696"><ele>1917.0</ele><time>2026-03-22T15:29:37.969Z</time></trkpt><trkpt lat="21.841956668652927" lon="-102.53353761227004"><ele>1917.0</ele><time>2026-03-22T15:29:38.969Z</time></trkpt><trkpt lat="21.841889226878802" lon="-102.53359722916701"><ele>1917.0</ele><time>2026-03-22T15:29:39.969Z</time></trkpt><trkpt lat="21.841824989447577" lon="-102.53366012743281"><ele>1917.0</ele><time>2026-03-22T15:29:40.969Z</time></trkpt><trkpt lat="21.84175970140153" lon="-102.5337232129544"><ele>1917.0</ele><time>2026-03-22T15:29:41.969Z</time></trkpt><trkpt lat="21.841697972231323" lon="-102.5337827430892"><ele>1917.0</ele><time>2026-03-22T15:29:42.969Z</time></trkpt><trkpt lat="21.841631753196964" lon="-102.53384749314638"><ele>1917.0</ele><time>2026-03-22T15:29:43.969Z</time></trkpt><trkpt lat="21.841563697669677" lon="-102.53390521346621"><ele>1917.0</ele><time>2026-03-22T15:29:44.969Z</time></trkpt><trkpt lat="21.841499526517744" lon="-102.53397261715513"><ele>1917.0</ele><time>2026-03-22T15:29:45.969Z</time></trkpt><trkpt lat="21.841439191275146" lon="-102.53402934796537"><ele>1917.0</ele><time>2026-03-22T15:29:46.969Z</time></trkpt><trkpt lat="21.84137773625626" lon="-102.53409133784676"><ele>1917.0</ele><time>2026-03-22T15:29:47.969Z</time></trkpt><trkpt lat="21.84131432853807" lon="-102.53414809220511"><ele>1917.0</ele><time>2026-03-22T15:29:48.969Z</time></trkpt><trkpt lat="21.841255349588277" lon="-102.534207113959"><ele>1917.0</ele><time>2026-03-22T15:29:49.969Z</time></trkpt><trkpt lat="21.841193556900834" lon="-102.53426516356085"><ele>1917.0</ele><time>2026-03-22T15:29:50.969Z</time></trkpt><trkpt lat="21.841132035702046" lon="-102.53432096977517"><ele>1917.0</ele><time>2026-03-22T15:29:51.969Z</time></trkpt><trkpt lat="21.841061329705983" lon="-102.53437775252546"><ele>1917.0</ele><time>2026-03-22T15:29:52.969Z</time></trkpt><trkpt lat="21.841011913065124" lon="-102.53444134641263"><ele>1917.0</ele><time>2026-03-22T15:29:53.969Z</time></trkpt><trkpt lat="21.840945082077877" lon="-102.53449721565863"><ele>1917.0</ele><time>2026-03-22T15:29:54.969Z</time></trkpt><trkpt lat="21.840883603161977" lon="-102.53454673447278"><ele>1917.0</ele><time>2026-03-22T15:29:55.969Z</time></trkpt><trkpt lat="21.840823497840066" lon="-102.53460574762445"><ele>1917.5</ele><time>2026-03-22T15:29:56.969Z</time></trkpt><trkpt lat="21.840763805187457" lon="-102.53466343807317"><ele>1918.0</ele><time>2026-03-22T15:29:57.969Z</time></trkpt><trkpt lat="21.840704073464853" lon="-102.53471907057764"><ele>1918.5</ele><time>2026-03-22T15:29:58.969Z</time></trkpt><trkpt lat="21.840644838810285" lon="-102.53477542116171"><ele>1919.0</ele><time>2026-03-22T15:29:59.969Z</time></trkpt><trkpt lat="21.840582617453457" lon="-102.53483102082113"><ele>1919.5</ele><time>2026-03-22T15:30:00.969Z</time></trkpt><trkpt lat="21.840522604020574" lon="-102.53488517949837"><ele>1920.0</ele><time>2026-03-22T15:30:01.969Z</time></trkpt><trkpt lat="21.840462924324562" lon="-102.5349419168904"><ele>1920.0</ele><time>2026-03-22T15:30:02.969Z</time></trkpt><trkpt lat="21.84040110168412" lon="-102.53499785220923"><ele>1920.0</ele><time>2026-03-22T15:30:03.969Z</time></trkpt><trkpt lat="21.840340456071804" lon="-102.53504949167822"><ele>1920.0</ele><time>2026-03-22T15:30:04.969Z</time></trkpt><trkpt lat="21.840276584064462" lon="-102.53510591878657"><ele>1920.0</ele><time>2026-03-22T15:30:05.969Z</time></trkpt><trkpt lat="21.84021590465249" lon="-102.53515933523447"><ele>1920.0</ele><time>2026-03-22T15:30:06.969Z</time></trkpt><trkpt lat="21.84015314447644" lon="-102.53520829027562"><ele>1920.0</ele><time>2026-03-22T15:30:07.969Z</time></trkpt><trkpt lat="21.840085525068435" lon="-102.53525158579613"><ele>1920.0</ele><time>2026-03-22T15:30:08.969Z</time></trkpt><trkpt lat="21.840020859662452" lon="-102.53528799398585"><ele>1920.0</ele><time>2026-03-22T15:30:09.969Z</time></trkpt><trkpt lat="21.839954417850407" lon="-102.5353294708529"><ele>1920.0</ele><time>2026-03-22T15:30:10.969Z</time></trkpt><trkpt lat="21.839886363148658" lon="-102.5353710118988"><ele>1920.0</ele><time>2026-03-22T15:30:11.969Z</time></trkpt><trkpt lat="21.83981154839373" lon="-102.53539680480135"><ele>1920.0</ele><time>2026-03-22T15:30:12.969Z</time></trkpt><trkpt lat="21.839740476641747" lon="-102.53542749216798"><ele>1920.0</ele><time>2026-03-22T15:30:13.97Z</time></trkpt><trkpt lat="21.839657082374956" lon="-102.53545322691474"><ele>1919.8333333333333</ele><time>2026-03-22T15:30:14.969Z</time></trkpt><trkpt lat="21.83959210219599" lon="-102.53548358167266"><ele>1919.6666666666665</ele><time>2026-03-22T15:30:15.969Z</time></trkpt><trkpt lat="21.839517090042534" lon="-102.53550509053319"><ele>1919.5</ele><time>2026-03-22T15:30:16.969Z</time></trkpt><trkpt lat="21.839442366128363" lon="-102.53552578203707"><ele>1919.3333333333333</ele><time>2026-03-22T15:30:17.969Z</time></trkpt><trkpt lat="21.839364204795046" lon="-102.53553503919633"><ele>1919.1666666666665</ele><time>2026-03-22T15:30:18.969Z</time></trkpt><trkpt lat="21.839288144911052" lon="-102.53555191816771"><ele>1919.0</ele><time>2026-03-22T15:30:19.97Z</time></trkpt><trkpt lat="21.83922113964723" lon="-102.53556745189691"><ele>1919.4999999999998</ele><time>2026-03-22T15:30:20.969Z</time></trkpt><trkpt lat="21.83914021047665" lon="-102.53556690492194"><ele>1920.0</ele><time>2026-03-22T15:30:21.969Z</time></trkpt><trkpt lat="21.83906461652172" lon="-102.5355690722225"><ele>1920.5</ele><time>2026-03-22T15:30:22.97Z</time></trkpt><trkpt lat="21.83899205749259" lon="-102.53556742221117"><ele>1921.0</ele><time>2026-03-22T15:30:23.969Z</time></trkpt><trkpt lat="21.83891722546496" lon="-102.53556346754132"><ele>1921.4999999999998</ele><time>2026-03-22T15:30:24.969Z</time></trkpt><trkpt lat="21.83884336821708" lon="-102.53555897877962"><ele>1922.0</ele><time>2026-03-22T15:30:25.97Z</time></trkpt><trkpt lat="21.838769730906726" lon="-102.53554711195827"><ele>1922.0</ele><time>2026-03-22T15:30:26.97Z</time></trkpt><trkpt lat="21.838699000591625" lon="-102.53553731240092"><ele>1921.9999999999998</ele><time>2026-03-22T15:30:27.97Z</time></trkpt><trkpt lat="21.838630066248275" lon="-102.53552625527941"><ele>1922.0</ele><time>2026-03-22T15:30:28.97Z</time></trkpt><trkpt lat="21.83855688849131" lon="-102.53551076110864"><ele>1922.0</ele><time>2026-03-22T15:30:29.97Z</time></trkpt><trkpt lat="21.83848042547591" lon="-102.53549142892336"><ele>1921.9999999999998</ele><time>2026-03-22T15:30:30.97Z</time></trkpt><trkpt lat="21.838411120038778" lon="-102.53548036801052"><ele>1922.0</ele><time>2026-03-22T15:30:31.97Z</time></trkpt><trkpt lat="21.838342080327724" lon="-102.53546625488613"><ele>1922.0</ele><time>2026-03-22T15:30:32.97Z</time></trkpt><trkpt lat="21.838280281029416" lon="-102.5354472361189"><ele>1921.8333333333333</ele><time>2026-03-22T15:30:33.879Z</time></trkpt><trkpt lat="21.83819406846752" lon="-102.53543183693147"><ele>1921.6666666666665</ele><time>2026-03-22T15:30:34.879Z</time></trkpt><trkpt lat="21.838065706964887" lon="-102.53540344471368"><ele>1921.5</ele><time>2026-03-22T15:30:36.88Z</time></trkpt><trkpt lat="21.837999151127654" lon="-102.53538933855818"><ele>1921.3333333333335</ele><time>2026-03-22T15:30:37.88Z</time></trkpt><trkpt lat="21.837935344283288" lon="-102.53537484438881"><ele>1921.1666666666667</ele><time>2026-03-22T15:30:38.88Z</time></trkpt><trkpt lat="21.837866612187277" lon="-102.53535975456835"><ele>1921.0</ele><time>2026-03-22T15:30:39.88Z</time></trkpt><trkpt lat="21.83774071068745" lon="-102.5353242202394"><ele>1921.0000000000002</ele><time>2026-03-22T15:30:41.88Z</time></trkpt><trkpt lat="21.83767581631817" lon="-102.53530978096633"><ele>1921.0</ele><time>2026-03-22T15:30:42.88Z</time></trkpt><trkpt lat="21.83760974576566" lon="-102.5352954694051"><ele>1921.0</ele><time>2026-03-22T15:30:43.88Z</time></trkpt><trkpt lat="21.837546079721015" lon="-102.5352820850897"><ele>1921.0</ele><time>2026-03-22T15:30:44.88Z</time></trkpt><trkpt lat="21.837426246497305" lon="-102.53524192196225"><ele>1921.0000000000002</ele><time>2026-03-22T15:30:46.88Z</time></trkpt><trkpt lat="21.837359242452756" lon="-102.53523090846163"><ele>1921.0</ele><time>2026-03-22T15:30:47.88Z</time></trkpt><trkpt lat="21.837234018008328" lon="-102.53520395874907"><ele>1922.0</ele><time>2026-03-22T15:30:49.88Z</time></trkpt><trkpt lat="21.837114379397914" lon="-102.53517643764785"><ele>1923.0</ele><time>2026-03-22T15:30:51.88Z</time></trkpt><trkpt lat="21.836989426721782" lon="-102.53514618751588"><ele>1924.0</ele><time>2026-03-22T15:30:53.88Z</time></trkpt><trkpt lat="21.836872102362626" lon="-102.53511999805971"><ele>1925.0</ele><time>2026-03-22T15:30:55.88Z</time></trkpt><trkpt lat="21.836751715360165" lon="-102.53509088118409"><ele>1925.8</ele><time>2026-03-22T15:30:57.88Z</time></trkpt><trkpt lat="21.836635394757458" lon="-102.53506270044889"><ele>1926.6</ele><time>2026-03-22T15:30:59.88Z</time></trkpt><trkpt lat="21.836516256618935" lon="-102.53503727555545"><ele>1927.4</ele><time>2026-03-22T15:31:01.88Z</time></trkpt><trkpt lat="21.83645136133597" lon="-102.53501530485914"><ele>1928.2</ele><time>2026-03-22T15:31:02.88Z</time></trkpt><trkpt lat="21.836327988811586" lon="-102.53498461812559"><ele>1929.0</ele><time>2026-03-22T15:31:04.88Z</time></trkpt><trkpt lat="21.83620952706064" lon="-102.5349567817202"><ele>1929.0</ele><time>2026-03-22T15:31:06.88Z</time></trkpt><trkpt lat="21.836085327058896" lon="-102.53492282569472"><ele>1929.0</ele><time>2026-03-22T15:31:08.88Z</time></trkpt><trkpt lat="21.83601913171069" lon="-102.53491230706715"><ele>1929.0</ele><time>2026-03-22T15:31:09.88Z</time></trkpt><trkpt lat="21.83595729205116" lon="-102.53489573000896"><ele>1929.0</ele><time>2026-03-22T15:31:10.88Z</time></trkpt><trkpt lat="21.835887132505544" lon="-102.53488048387621"><ele>1929.0</ele><time>2026-03-22T15:31:11.88Z</time></trkpt><trkpt lat="21.835825166990244" lon="-102.5348630133483"><ele>1929.0</ele><time>2026-03-22T15:31:12.88Z</time></trkpt><trkpt lat="21.835753318215687" lon="-102.53484476489426"><ele>1929.1666666666667</ele><time>2026-03-22T15:31:13.88Z</time></trkpt><trkpt lat="21.835628786648616" lon="-102.53481536156897"><ele>1929.3333333333335</ele><time>2026-03-22T15:31:15.88Z</time></trkpt><trkpt lat="21.835560167329643" lon="-102.53479990645012"><ele>1929.5</ele><time>2026-03-22T15:31:16.88Z</time></trkpt><trkpt lat="21.83549268799206" lon="-102.53478300202433"><ele>1929.6666666666667</ele><time>2026-03-22T15:31:17.879Z</time></trkpt><trkpt lat="21.83542633233325" lon="-102.53476592177587"><ele>1929.8333333333335</ele><time>2026-03-22T15:31:18.879Z</time></trkpt><trkpt lat="21.835357321919783" lon="-102.53475210757215"><ele>1930.0</ele><time>2026-03-22T15:31:19.879Z</time></trkpt><trkpt lat="21.835289520457888" lon="-102.53473355761963"><ele>1930.0</ele><time>2026-03-22T15:31:20.879Z</time></trkpt><trkpt lat="21.835221703601984" lon="-102.53471788423846"><ele>1930.0</ele><time>2026-03-22T15:31:21.879Z</time></trkpt><trkpt lat="21.83515195070174" lon="-102.53470318179495"><ele>1930.0</ele><time>2026-03-22T15:31:22.879Z</time></trkpt><trkpt lat="21.835078814460953" lon="-102.53468425568299"><ele>1930.0</ele><time>2026-03-22T15:31:23.879Z</time></trkpt><trkpt lat="21.835012042935123" lon="-102.53467053977823"><ele>1930.0</ele><time>2026-03-22T15:31:24.879Z</time></trkpt><trkpt lat="21.83494662030493" lon="-102.53465597550297"><ele>1930.0</ele><time>2026-03-22T15:31:25.879Z</time></trkpt><trkpt lat="21.834872070663856" lon="-102.53463570005145"><ele>1930.0</ele><time>2026-03-22T15:31:26.879Z</time></trkpt><trkpt lat="21.834794726015677" lon="-102.53461809300065"><ele>1930.0000000000002</ele><time>2026-03-22T15:31:27.879Z</time></trkpt><trkpt lat="21.83466042906226" lon="-102.53458706952655"><ele>1930.0</ele><time>2026-03-22T15:31:29.879Z</time></trkpt><trkpt lat="21.834589173122286" lon="-102.53456364805359"><ele>1930.0</ele><time>2026-03-22T15:31:30.879Z</time></trkpt><trkpt lat="21.83451149035433" lon="-102.5345502784527"><ele>1930.0</ele><time>2026-03-22T15:31:31.879Z</time></trkpt><trkpt lat="21.83443640156686" lon="-102.53453631906879"><ele>1930.0000000000002</ele><time>2026-03-22T15:31:32.879Z</time></trkpt><trkpt lat="21.834357151841562" lon="-102.53451855016714"><ele>1930.0</ele><time>2026-03-22T15:31:33.879Z</time></trkpt><trkpt lat="21.834282763513887" lon="-102.53450311578193"><ele>1929.8333333333335</ele><time>2026-03-22T15:31:34.879Z</time></trkpt><trkpt lat="21.834204489850613" lon="-102.53448574968395"><ele>1929.6666666666667</ele><time>2026-03-22T15:31:35.879Z</time></trkpt><trkpt lat="21.834123964107945" lon="-102.53446650186945"><ele>1929.5</ele><time>2026-03-22T15:31:36.879Z</time></trkpt><trkpt lat="21.83404746651751" lon="-102.53444773323272"><ele>1929.3333333333335</ele><time>2026-03-22T15:31:37.879Z</time></trkpt><trkpt lat="21.833970962085385" lon="-102.53442886591684"><ele>1929.1666666666667</ele><time>2026-03-22T15:31:38.879Z</time></trkpt><trkpt lat="21.83389717282741" lon="-102.53441436445948"><ele>1929.0</ele><time>2026-03-22T15:31:39.879Z</time></trkpt><trkpt lat="21.833817866135973" lon="-102.5343942425572"><ele>1929.0</ele><time>2026-03-22T15:31:40.879Z</time></trkpt><trkpt lat="21.833734900019966" lon="-102.53437763677987"><ele>1929.0</ele><time>2026-03-22T15:31:41.879Z</time></trkpt><trkpt lat="21.83366252734686" lon="-102.53435833557866"><ele>1929.0</ele><time>2026-03-22T15:31:42.879Z</time></trkpt><trkpt lat="21.833580498914966" lon="-102.5343418860355"><ele>1929.0</ele><time>2026-03-22T15:31:43.879Z</time></trkpt><trkpt lat="21.83349671984236" lon="-102.5343214511182"><ele>1929.0</ele><time>2026-03-22T15:31:44.879Z</time></trkpt><trkpt lat="21.833414868881974" lon="-102.53430536495377"><ele>1929.0</ele><time>2026-03-22T15:31:45.879Z</time></trkpt><trkpt lat="21.833335881319353" lon="-102.53428975472143"><ele>1929.1666666666667</ele><time>2026-03-22T15:31:46.879Z</time></trkpt><trkpt lat="21.833261351260298" lon="-102.5342711812256"><ele>1929.3333333333335</ele><time>2026-03-22T15:31:47.879Z</time></trkpt><trkpt lat="21.833173113719234" lon="-102.53425096588607"><ele>1929.5</ele><time>2026-03-22T15:31:48.879Z</time></trkpt><trkpt lat="21.83309342464528" lon="-102.53423159702174"><ele>1929.6666666666667</ele><time>2026-03-22T15:31:49.879Z</time></trkpt><trkpt lat="21.833009140393056" lon="-102.5342148842852"><ele>1929.8333333333335</ele><time>2026-03-22T15:31:50.879Z</time></trkpt><trkpt lat="21.832927920164835" lon="-102.53419415331469"><ele>1930.0</ele><time>2026-03-22T15:31:51.879Z</time></trkpt><trkpt lat="21.832843972671046" lon="-102.53416940870162"><ele>1930.0000000000002</ele><time>2026-03-22T15:31:52.879Z</time></trkpt><trkpt lat="21.832758156831325" lon="-102.53414663078593"><ele>1930.0</ele><time>2026-03-22T15:31:53.879Z</time></trkpt><trkpt lat="21.832667462123126" lon="-102.53412882796941"><ele>1930.0</ele><time>2026-03-22T15:31:54.879Z</time></trkpt><trkpt lat="21.832583890231298" lon="-102.53410906763503"><ele>1930.0</ele><time>2026-03-22T15:31:55.879Z</time></trkpt><trkpt lat="21.832497364146846" lon="-102.53408709885406"><ele>1930.0000000000002</ele><time>2026-03-22T15:31:56.879Z</time></trkpt><trkpt lat="21.832410054464773" lon="-102.53406846361588"><ele>1930.0</ele><time>2026-03-22T15:31:57.878Z</time></trkpt><trkpt lat="21.83232701762368" lon="-102.5340477753724"><ele>1930.1666666666667</ele><time>2026-03-22T15:31:58.878Z</time></trkpt><trkpt lat="21.832240401968075" lon="-102.53402782226287"><ele>1930.3333333333335</ele><time>2026-03-22T15:31:59.878Z</time></trkpt><trkpt lat="21.832156571458235" lon="-102.53400953118799"><ele>1930.5</ele><time>2026-03-22T15:32:00.878Z</time></trkpt><trkpt lat="21.832071573794956" lon="-102.5339904308718"><ele>1930.6666666666665</ele><time>2026-03-22T15:32:01.878Z</time></trkpt><trkpt lat="21.831991236644303" lon="-102.53397067749911"><ele>1930.8333333333333</ele><time>2026-03-22T15:32:02.878Z</time></trkpt><trkpt lat="21.831913289845705" lon="-102.53395268590693"><ele>1931.0</ele><time>2026-03-22T15:32:03.878Z</time></trkpt><trkpt lat="21.831832368815938" lon="-102.53393506691827"><ele>1930.8333333333333</ele><time>2026-03-22T15:32:04.878Z</time></trkpt><trkpt lat="21.831758924812256" lon="-102.53391677551419"><ele>1930.6666666666665</ele><time>2026-03-22T15:32:05.878Z</time></trkpt><trkpt lat="21.831684527627168" lon="-102.53390100614347"><ele>1930.5</ele><time>2026-03-22T15:32:06.878Z</time></trkpt><trkpt lat="21.8315977801706" lon="-102.53387900560861"><ele>1930.3333333333335</ele><time>2026-03-22T15:32:07.878Z</time></trkpt><trkpt lat="21.831520435789173" lon="-102.53386099882104"><ele>1930.1666666666667</ele><time>2026-03-22T15:32:08.878Z</time></trkpt><trkpt lat="21.831449321814745" lon="-102.53384198261473"><ele>1930.0</ele><time>2026-03-22T15:32:09.878Z</time></trkpt><trkpt lat="21.83137214807591" lon="-102.53382421706061"><ele>1930.0</ele><time>2026-03-22T15:32:10.878Z</time></trkpt><trkpt lat="21.831301603406146" lon="-102.53380523889267"><ele>1930.0</ele><time>2026-03-22T15:32:11.878Z</time></trkpt><trkpt lat="21.831222306413686" lon="-102.53378962996531"><ele>1930.0</ele><time>2026-03-22T15:32:12.878Z</time></trkpt><trkpt lat="21.831158273924075" lon="-102.53378274396061"><ele>1930.0</ele><time>2026-03-22T15:32:13.878Z</time></trkpt><trkpt lat="21.831087012965966" lon="-102.53375997780839"><ele>1930.0</ele><time>2026-03-22T15:32:14.878Z</time></trkpt><trkpt lat="21.831017822550596" lon="-102.53374844125294"><ele>1930.0</ele><time>2026-03-22T15:32:15.878Z</time></trkpt><trkpt lat="21.83095274372817" lon="-102.53373319787562"><ele>1930.0</ele><time>2026-03-22T15:32:16.878Z</time></trkpt><trkpt lat="21.830826421748263" lon="-102.53369755296406"><ele>1930.0</ele><time>2026-03-22T15:32:18.878Z</time></trkpt><trkpt lat="21.830762763792215" lon="-102.53368204299846"><ele>1930.0</ele><time>2026-03-22T15:32:19.879Z</time></trkpt><trkpt lat="21.830637975863198" lon="-102.53365322835013"><ele>1930.0</ele><time>2026-03-22T15:32:21.879Z</time></trkpt><trkpt lat="21.830518978496077" lon="-102.53362570757773"><ele>1930.0</ele><time>2026-03-22T15:32:23.879Z</time></trkpt><trkpt lat="21.830400802607226" lon="-102.53360197583959"><ele>1930.0</ele><time>2026-03-22T15:32:25.879Z</time></trkpt><trkpt lat="21.83028203626025" lon="-102.53357505271188"><ele>1930.0</ele><time>2026-03-22T15:32:27.879Z</time></trkpt><trkpt lat="21.83016400576661" lon="-102.53354552932517"><ele>1930.0</ele><time>2026-03-22T15:32:29.879Z</time></trkpt><trkpt lat="21.830102598474845" lon="-102.53352947967659"><ele>1930.0</ele><time>2026-03-22T15:32:30.879Z</time></trkpt><trkpt lat="21.829978379260314" lon="-102.53349666075452"><ele>1930.0</ele><time>2026-03-22T15:32:32.878Z</time></trkpt><trkpt lat="21.829853856128487" lon="-102.53347381936182"><ele>1930.0</ele><time>2026-03-22T15:32:34.878Z</time></trkpt><trkpt lat="21.829738560650473" lon="-102.53343994038738"><ele>1931.0</ele><time>2026-03-22T15:32:36.878Z</time></trkpt><trkpt lat="21.829623520886205" lon="-102.53341083708887"><ele>1932.0</ele><time>2026-03-22T15:32:38.878Z</time></trkpt><trkpt lat="21.82951150186898" lon="-102.53338224566684"><ele>1933.0</ele><time>2026-03-22T15:32:40.878Z</time></trkpt><trkpt lat="21.829449898530378" lon="-102.53336254598786"><ele>1934.0</ele><time>2026-03-22T15:32:41.878Z</time></trkpt><trkpt lat="21.82932801428233" lon="-102.53333077053912"><ele>1935.0</ele><time>2026-03-22T15:32:43.878Z</time></trkpt><trkpt lat="21.82921171680959" lon="-102.53329954226439"><ele>1935.5</ele><time>2026-03-22T15:32:45.878Z</time></trkpt><trkpt lat="21.82914203157636" lon="-102.53328441398165"><ele>1936.0</ele><time>2026-03-22T15:32:46.878Z</time></trkpt><trkpt lat="21.829031272657247" lon="-102.53325907704495"><ele>1936.5</ele><time>2026-03-22T15:32:48.878Z</time></trkpt><trkpt lat="21.82896165931876" lon="-102.53323863112345"><ele>1937.0</ele><time>2026-03-22T15:32:49.878Z</time></trkpt><trkpt lat="21.828898780174434" lon="-102.533226362645"><ele>1937.5</ele><time>2026-03-22T15:32:50.878Z</time></trkpt><trkpt lat="21.82883665146541" lon="-102.53321141845919"><ele>1938.0</ele><time>2026-03-22T15:32:51.878Z</time></trkpt><trkpt lat="21.82876934577812" lon="-102.53319612635889"><ele>1938.0</ele><time>2026-03-22T15:32:52.878Z</time></trkpt><trkpt lat="21.828638258229226" lon="-102.53316011535848"><ele>1938.0000000000002</ele><time>2026-03-22T15:32:54.878Z</time></trkpt><trkpt lat="21.82852815342719" lon="-102.53313197716085"><ele>1938.0000000000002</ele><time>2026-03-22T15:32:56.878Z</time></trkpt><trkpt lat="21.82846403317469" lon="-102.53312371492952"><ele>1938.0</ele><time>2026-03-22T15:32:57.878Z</time></trkpt><trkpt lat="21.82839504427861" lon="-102.53310779180832"><ele>1938.0</ele><time>2026-03-22T15:32:58.878Z</time></trkpt><trkpt lat="21.82828105358714" lon="-102.53307738760832"><ele>1938.3333333333333</ele><time>2026-03-22T15:33:00.878Z</time></trkpt><trkpt lat="21.828212610351358" lon="-102.53306021077108"><ele>1938.6666666666665</ele><time>2026-03-22T15:33:01.878Z</time></trkpt><trkpt lat="21.8280968748973" lon="-102.53303643506246"><ele>1939.0</ele><time>2026-03-22T15:33:03.877Z</time></trkpt><trkpt lat="21.828030800848786" lon="-102.53302289683566"><ele>1939.3333333333333</ele><time>2026-03-22T15:33:04.877Z</time></trkpt><trkpt lat="21.82796697000762" lon="-102.53301149721786"><ele>1939.6666666666665</ele><time>2026-03-22T15:33:05.877Z</time></trkpt><trkpt lat="21.827899972590593" lon="-102.53299645614865"><ele>1940.0</ele><time>2026-03-22T15:33:06.877Z</time></trkpt><trkpt lat="21.82783627755112" lon="-102.53298039841583"><ele>1939.9999999999998</ele><time>2026-03-22T15:33:07.877Z</time></trkpt><trkpt lat="21.827773189836652" lon="-102.53296269848224"><ele>1940.0</ele><time>2026-03-22T15:33:08.877Z</time></trkpt><trkpt lat="21.82770860763647" lon="-102.5329459087538"><ele>1940.0</ele><time>2026-03-22T15:33:09.877Z</time></trkpt><trkpt lat="21.827645379276422" lon="-102.53293185887443"><ele>1940.0</ele><time>2026-03-22T15:33:10.877Z</time></trkpt><trkpt lat="21.82752077536558" lon="-102.53290313319465"><ele>1939.9999999999998</ele><time>2026-03-22T15:33:12.877Z</time></trkpt><trkpt lat="21.827457244055637" lon="-102.53288513969974"><ele>1940.0</ele><time>2026-03-22T15:33:13.877Z</time></trkpt><trkpt lat="21.827393716694555" lon="-102.53286591591836"><ele>1939.8</ele><time>2026-03-22T15:33:14.877Z</time></trkpt><trkpt lat="21.827330501259418" lon="-102.53284932663101"><ele>1939.6</ele><time>2026-03-22T15:33:15.877Z</time></trkpt><trkpt lat="21.827207874120734" lon="-102.53282262410963"><ele>1939.4</ele><time>2026-03-22T15:33:17.877Z</time></trkpt><trkpt lat="21.82708621150722" lon="-102.53278692923838"><ele>1939.2</ele><time>2026-03-22T15:33:19.877Z</time></trkpt><trkpt lat="21.827021119742135" lon="-102.53276860796994"><ele>1939.0</ele><time>2026-03-22T15:33:20.877Z</time></trkpt><trkpt lat="21.826903716467488" lon="-102.53272002069184"><ele>1939.8000000000002</ele><time>2026-03-22T15:33:22.877Z</time></trkpt><trkpt lat="21.82678744722027" lon="-102.5326614806963"><ele>1940.6000000000001</ele><time>2026-03-22T15:33:24.877Z</time></trkpt><trkpt lat="21.826733409550343" lon="-102.53261716110497"><ele>1941.4</ele><time>2026-03-22T15:33:25.877Z</time></trkpt><trkpt lat="21.826677379307988" lon="-102.53257993543646"><ele>1942.2</ele><time>2026-03-22T15:33:26.877Z</time></trkpt><trkpt lat="21.826626477303527" lon="-102.5325347923324"><ele>1943.0</ele><time>2026-03-22T15:33:27.877Z</time></trkpt><trkpt lat="21.82653393273975" lon="-102.53243367871455"><ele>1943.0</ele><time>2026-03-22T15:33:29.877Z</time></trkpt><trkpt lat="21.82649284060225" lon="-102.5323764942102"><ele>1942.9999999999998</ele><time>2026-03-22T15:33:30.877Z</time></trkpt><trkpt lat="21.826456095179722" lon="-102.53232057065247"><ele>1943.0</ele><time>2026-03-22T15:33:31.877Z</time></trkpt><trkpt lat="21.82642684346663" lon="-102.53226044453531"><ele>1943.0</ele><time>2026-03-22T15:33:32.877Z</time></trkpt><trkpt lat="21.826392961096197" lon="-102.53220304478046"><ele>1942.9999999999998</ele><time>2026-03-22T15:33:33.877Z</time></trkpt><trkpt lat="21.826363855770747" lon="-102.53213985090977"><ele>1943.0</ele><time>2026-03-22T15:33:34.877Z</time></trkpt><trkpt lat="21.82634341367193" lon="-102.53207099003409"><ele>1943.0</ele><time>2026-03-22T15:33:35.877Z</time></trkpt><trkpt lat="21.826315305508118" lon="-102.53199695308857"><ele>1942.6000000000001</ele><time>2026-03-22T15:33:36.877Z</time></trkpt><trkpt lat="21.82628509839633" lon="-102.53185642121613"><ele>1942.2000000000003</ele><time>2026-03-22T15:33:38.877Z</time></trkpt><trkpt lat="21.826270501035932" lon="-102.53178468835236"><ele>1941.8</ele><time>2026-03-22T15:33:39.877Z</time></trkpt><trkpt lat="21.82626330968141" lon="-102.53164528009279"><ele>1941.4</ele><time>2026-03-22T15:33:41.876Z</time></trkpt><trkpt lat="21.826258365648176" lon="-102.53157464709481"><ele>1941.0</ele><time>2026-03-22T15:33:42.876Z</time></trkpt><trkpt lat="21.826254503297246" lon="-102.5315004486695"><ele>1941.0</ele><time>2026-03-22T15:33:43.876Z</time></trkpt><trkpt lat="21.82624369293555" lon="-102.53142765731407"><ele>1941.0</ele><time>2026-03-22T15:33:44.876Z</time></trkpt><trkpt lat="21.826237782385505" lon="-102.53135625243591"><ele>1941.0</ele><time>2026-03-22T15:33:45.876Z</time></trkpt><trkpt lat="21.82622907687539" lon="-102.53128385470949"><ele>1941.0</ele><time>2026-03-22T15:33:46.876Z</time></trkpt><trkpt lat="21.826225298985992" lon="-102.53121334429419"><ele>1941.0</ele><time>2026-03-22T15:33:47.876Z</time></trkpt><trkpt lat="21.826216226502645" lon="-102.53114472329695"><ele>1941.0</ele><time>2026-03-22T15:33:48.876Z</time></trkpt><trkpt lat="21.826211239968256" lon="-102.53107302013927"><ele>1941.0</ele><time>2026-03-22T15:33:49.876Z</time></trkpt><trkpt lat="21.826205455880316" lon="-102.53100051419769"><ele>1941.1999999999998</ele><time>2026-03-22T15:33:50.876Z</time></trkpt><trkpt lat="21.826202753304795" lon="-102.53092767820742"><ele>1941.3999999999999</ele><time>2026-03-22T15:33:51.876Z</time></trkpt><trkpt lat="21.82619069448789" lon="-102.53078036634112"><ele>1941.6</ele><time>2026-03-22T15:33:53.876Z</time></trkpt><trkpt lat="21.826174042516087" lon="-102.53065008401077"><ele>1941.8</ele><time>2026-03-22T15:33:55.876Z</time></trkpt><trkpt lat="21.826170688581065" lon="-102.53057844312156"><ele>1942.0</ele><time>2026-03-22T15:33:56.876Z</time></trkpt><trkpt lat="21.82614686822531" lon="-102.5304510075609"><ele>1941.8</ele><time>2026-03-22T15:33:58.876Z</time></trkpt><trkpt lat="21.826131551103238" lon="-102.53038340419381"><ele>1941.6</ele><time>2026-03-22T15:33:59.876Z</time></trkpt><trkpt lat="21.8260944364167" lon="-102.53026015211967"><ele>1941.3999999999999</ele><time>2026-03-22T15:34:01.876Z</time></trkpt><trkpt lat="21.82606007673042" lon="-102.53014400621248"><ele>1941.1999999999998</ele><time>2026-03-22T15:34:03.876Z</time></trkpt><trkpt lat="21.82603664945407" lon="-102.53007313341534"><ele>1941.0</ele><time>2026-03-22T15:34:04.876Z</time></trkpt><trkpt lat="21.82598989065722" lon="-102.52995261015614"><ele>1942.1999999999998</ele><time>2026-03-22T15:34:06.876Z</time></trkpt><trkpt lat="21.825934847420083" lon="-102.52984147510887"><ele>1943.3999999999999</ele><time>2026-03-22T15:34:08.876Z</time></trkpt><trkpt lat="21.82587672682749" lon="-102.52973591727786"><ele>1944.6</ele><time>2026-03-22T15:34:10.876Z</time></trkpt><trkpt lat="21.825815971047412" lon="-102.52963777346335"><ele>1945.8</ele><time>2026-03-22T15:34:12.876Z</time></trkpt><trkpt lat="21.82577997930948" lon="-102.52958042211638"><ele>1947.0</ele><time>2026-03-22T15:34:13.876Z</time></trkpt><trkpt lat="21.825711021436724" lon="-102.52948281143188"><ele>1947.0</ele><time>2026-03-22T15:34:15.876Z</time></trkpt><trkpt lat="21.825643688780197" lon="-102.52938388237392"><ele>1946.9999999999998</ele><time>2026-03-22T15:34:17.876Z</time></trkpt><trkpt lat="21.825599990816" lon="-102.52932714042869"><ele>1946.9999999999998</ele><time>2026-03-22T15:34:18.875Z</time></trkpt><trkpt lat="21.825532967611487" lon="-102.52923579969553"><ele>1947.0</ele><time>2026-03-22T15:34:20.875Z</time></trkpt><trkpt lat="21.825457737630202" lon="-102.52913781293694"><ele>1947.0</ele><time>2026-03-22T15:34:22.875Z</time></trkpt><trkpt lat="21.825382786408174" lon="-102.52902773978386"><ele>1947.0</ele><time>2026-03-22T15:34:24.877Z</time></trkpt><trkpt lat="21.825303563762525" lon="-102.5289249733745"><ele>1947.0</ele><time>2026-03-22T15:34:26.877Z</time></trkpt><trkpt lat="21.825214939590385" lon="-102.5288242492727"><ele>1947.0</ele><time>2026-03-22T15:34:28.876Z</time></trkpt><trkpt lat="21.825137201125113" lon="-102.52872278684885"><ele>1947.0</ele><time>2026-03-22T15:34:30.876Z</time></trkpt><trkpt lat="21.82505084721196" lon="-102.52862513021316"><ele>1947.8</ele><time>2026-03-22T15:34:32.876Z</time></trkpt><trkpt lat="21.82496073594781" lon="-102.52853557877562"><ele>1948.6</ele><time>2026-03-22T15:34:34.876Z</time></trkpt><trkpt lat="21.824860593076234" lon="-102.5284480223859"><ele>1949.3999999999999</ele><time>2026-03-22T15:34:36.876Z</time></trkpt><trkpt lat="21.824753073171355" lon="-102.52838863815074"><ele>1950.1999999999998</ele><time>2026-03-22T15:34:38.876Z</time></trkpt><trkpt lat="21.824691544580304" lon="-102.52835389896742"><ele>1951.0</ele><time>2026-03-22T15:34:39.876Z</time></trkpt><trkpt lat="21.82456872714498" lon="-102.52830850485745"><ele>1951.0</ele><time>2026-03-22T15:34:41.876Z</time></trkpt><trkpt lat="21.824504434355234" lon="-102.52828881135295"><ele>1951.0</ele><time>2026-03-22T15:34:42.876Z</time></trkpt><trkpt lat="21.824439329679663" lon="-102.52827638763678"><ele>1951.0</ele><time>2026-03-22T15:34:43.876Z</time></trkpt><trkpt lat="21.82437568365912" lon="-102.52827010423383"><ele>1951.0</ele><time>2026-03-22T15:34:44.876Z</time></trkpt><trkpt lat="21.824305617850264" lon="-102.52826875674185"><ele>1951.0</ele><time>2026-03-22T15:34:45.876Z</time></trkpt><trkpt lat="21.824227236275163" lon="-102.5282652969126"><ele>1951.0</ele><time>2026-03-22T15:34:46.876Z</time></trkpt><trkpt lat="21.824159419082804" lon="-102.52826535267997"><ele>1951.0</ele><time>2026-03-22T15:34:47.876Z</time></trkpt><trkpt lat="21.824089073294147" lon="-102.52827529566558"><ele>1952.0000000000002</ele><time>2026-03-22T15:34:48.876Z</time></trkpt><trkpt lat="21.824015270844267" lon="-102.528286791593"><ele>1953.0</ele><time>2026-03-22T15:34:49.876Z</time></trkpt><trkpt lat="21.823942860199367" lon="-102.5282929567545"><ele>1954.0</ele><time>2026-03-22T15:34:50.876Z</time></trkpt><trkpt lat="21.823867329094526" lon="-102.52830027738646"><ele>1955.0</ele><time>2026-03-22T15:34:51.876Z</time></trkpt><trkpt lat="21.823729451745383" lon="-102.52831700535944"><ele>1956.0000000000002</ele><time>2026-03-22T15:34:53.876Z</time></trkpt><trkpt lat="21.823650666765015" lon="-102.52832560228222"><ele>1957.0</ele><time>2026-03-22T15:34:54.876Z</time></trkpt><trkpt lat="21.823572654369183" lon="-102.52833975636914"><ele>1957.0000000000002</ele><time>2026-03-22T15:34:55.876Z</time></trkpt><trkpt lat="21.823496503909546" lon="-102.52834910327589"><ele>1957.0</ele><time>2026-03-22T15:34:56.876Z</time></trkpt><trkpt lat="21.823416541256545" lon="-102.52835533731145"><ele>1957.0</ele><time>2026-03-22T15:34:57.876Z</time></trkpt><trkpt lat="21.82334101940543" lon="-102.52835900623484"><ele>1957.0</ele><time>2026-03-22T15:34:58.876Z</time></trkpt><trkpt lat="21.823261669602775" lon="-102.52837081584313"><ele>1957.0000000000002</ele><time>2026-03-22T15:34:59.876Z</time></trkpt><trkpt lat="21.82318511214444" lon="-102.52837020919341"><ele>1957.0</ele><time>2026-03-22T15:35:00.876Z</time></trkpt><trkpt lat="21.823107592404774" lon="-102.5283865290728"><ele>1957.1666666666667</ele><time>2026-03-22T15:35:01.875Z</time></trkpt><trkpt lat="21.823037713540778" lon="-102.52839512815332"><ele>1957.3333333333335</ele><time>2026-03-22T15:35:02.875Z</time></trkpt><trkpt lat="21.822959044487337" lon="-102.52840957833486"><ele>1957.5</ele><time>2026-03-22T15:35:03.875Z</time></trkpt><trkpt lat="21.82287908749923" lon="-102.52843022801895"><ele>1957.6666666666665</ele><time>2026-03-22T15:35:04.875Z</time></trkpt><trkpt lat="21.822800912889917" lon="-102.52844538949111"><ele>1957.8333333333333</ele><time>2026-03-22T15:35:05.875Z</time></trkpt><trkpt lat="21.82272170683865" lon="-102.52846783788831"><ele>1958.0</ele><time>2026-03-22T15:35:06.875Z</time></trkpt><trkpt lat="21.822646268781714" lon="-102.52849482325175"><ele>1956.9999999999998</ele><time>2026-03-22T15:35:07.875Z</time></trkpt><trkpt lat="21.822570678380817" lon="-102.52853159129198"><ele>1956.0</ele><time>2026-03-22T15:35:08.875Z</time></trkpt><trkpt lat="21.822502358734887" lon="-102.52857785035276"><ele>1955.0</ele><time>2026-03-22T15:35:09.875Z</time></trkpt><trkpt lat="21.822425903946158" lon="-102.5286278441081"><ele>1954.0</ele><time>2026-03-22T15:35:10.875Z</time></trkpt><trkpt lat="21.822344947605835" lon="-102.52867502028285"><ele>1952.9999999999998</ele><time>2026-03-22T15:35:11.875Z</time></trkpt><trkpt lat="21.822270706757152" lon="-102.52872776924995"><ele>1952.0</ele><time>2026-03-22T15:35:12.875Z</time></trkpt><trkpt lat="21.822197476583483" lon="-102.5287849252672"><ele>1952.4999999999998</ele><time>2026-03-22T15:35:13.875Z</time></trkpt><trkpt lat="21.822126366203104" lon="-102.52884309227154"><ele>1953.0</ele><time>2026-03-22T15:35:14.875Z</time></trkpt><trkpt lat="21.822056648143935" lon="-102.52890044565758"><ele>1953.5</ele><time>2026-03-22T15:35:15.875Z</time></trkpt><trkpt lat="21.82198426979319" lon="-102.52895943733007"><ele>1954.0</ele><time>2026-03-22T15:35:16.875Z</time></trkpt><trkpt lat="21.821915021401686" lon="-102.52901082012589"><ele>1954.4999999999998</ele><time>2026-03-22T15:35:17.875Z</time></trkpt><trkpt lat="21.821832599573238" lon="-102.52905852373726"><ele>1955.0</ele><time>2026-03-22T15:35:18.875Z</time></trkpt><trkpt lat="21.821758479751264" lon="-102.52909790345326"><ele>1955.0</ele><time>2026-03-22T15:35:19.875Z</time></trkpt><trkpt lat="21.821671276300215" lon="-102.52913033158165"><ele>1955.0</ele><time>2026-03-22T15:35:20.875Z</time></trkpt><trkpt lat="21.821585505761817" lon="-102.52915134046009"><ele>1955.0</ele><time>2026-03-22T15:35:21.875Z</time></trkpt><trkpt lat="21.82148498285775" lon="-102.52915582298007"><ele>1955.0</ele><time>2026-03-22T15:35:22.875Z</time></trkpt><trkpt lat="21.8213969109539" lon="-102.5291542308534"><ele>1955.0</ele><time>2026-03-22T15:35:23.875Z</time></trkpt><trkpt lat="21.821307821953535" lon="-102.52913561978312"><ele>1954.9999999999998</ele><time>2026-03-22T15:35:24.875Z</time></trkpt><trkpt lat="21.821225567705284" lon="-102.52910894543021"><ele>1955.0</ele><time>2026-03-22T15:35:25.875Z</time></trkpt><trkpt lat="21.821145208775157" lon="-102.52906830779033"><ele>1955.0</ele><time>2026-03-22T15:35:26.875Z</time></trkpt><trkpt lat="21.821069202885518" lon="-102.52902299125353"><ele>1955.0</ele><time>2026-03-22T15:35:27.875Z</time></trkpt><trkpt lat="21.821003589426166" lon="-102.52897076668783"><ele>1954.9999999999998</ele><time>2026-03-22T15:35:28.875Z</time></trkpt><trkpt lat="21.82094595277448" lon="-102.52891001090659"><ele>1955.0</ele><time>2026-03-22T15:35:29.875Z</time></trkpt><trkpt lat="21.820896535358955" lon="-102.52884887037871"><ele>1954.9999999999998</ele><time>2026-03-22T15:35:30.875Z</time></trkpt><trkpt lat="21.820856338442617" lon="-102.52878537974468"><ele>1955.0</ele><time>2026-03-22T15:35:31.875Z</time></trkpt><trkpt lat="21.820822885374827" lon="-102.52872102013569"><ele>1955.0</ele><time>2026-03-22T15:35:32.875Z</time></trkpt><trkpt lat="21.820793989997856" lon="-102.52865462408394"><ele>1955.0</ele><time>2026-03-22T15:35:33.875Z</time></trkpt><trkpt lat="21.820766102926928" lon="-102.52859054319957"><ele>1954.9999999999998</ele><time>2026-03-22T15:35:34.875Z</time></trkpt><trkpt lat="21.820716647004563" lon="-102.5284757565055"><ele>1955.0</ele><time>2026-03-22T15:35:36.874Z</time></trkpt><trkpt lat="21.82066858635421" lon="-102.52837024296205"><ele>1955.25</ele><time>2026-03-22T15:35:38.874Z</time></trkpt><trkpt lat="21.82062063742037" lon="-102.52825531739452"><ele>1955.5</ele><time>2026-03-22T15:35:40.874Z</time></trkpt><trkpt lat="21.82057497970662" lon="-102.52814361721434"><ele>1955.75</ele><time>2026-03-22T15:35:42.874Z</time></trkpt><trkpt lat="21.820527048050785" lon="-102.528027275765"><ele>1956.0</ele><time>2026-03-22T15:35:44.874Z</time></trkpt><trkpt lat="21.820480461237864" lon="-102.52791219745737"><ele>1956.0</ele><time>2026-03-22T15:35:46.874Z</time></trkpt><trkpt lat="21.820428579057374" lon="-102.5278133401754"><ele>1956.0</ele><time>2026-03-22T15:35:48.874Z</time></trkpt><trkpt lat="21.82038399862164" lon="-102.52769721642018"><ele>1956.0</ele><time>2026-03-22T15:35:50.874Z</time></trkpt><trkpt lat="21.8203407822755" lon="-102.52759533755487"><ele>1956.0</ele><time>2026-03-22T15:35:52.874Z</time></trkpt><trkpt lat="21.820296924542923" lon="-102.52750330582398"><ele>1956.0</ele><time>2026-03-22T15:35:54.874Z</time></trkpt><trkpt lat="21.820254513717153" lon="-102.52739684084777"><ele>1956.0</ele><time>2026-03-22T15:35:56.874Z</time></trkpt><trkpt lat="21.820210000175923" lon="-102.52728555352707"><ele>1956.0</ele><time>2026-03-22T15:35:58.874Z</time></trkpt><trkpt lat="21.820156159342805" lon="-102.5271947336897"><ele>1956.0</ele><time>2026-03-22T15:36:00.874Z</time></trkpt><trkpt lat="21.820096261947448" lon="-102.52709633033106"><ele>1956.0</ele><time>2026-03-22T15:36:02.874Z</time></trkpt><trkpt lat="21.82002059203323" lon="-102.52700932833375"><ele>1956.0</ele><time>2026-03-22T15:36:04.874Z</time></trkpt><trkpt lat="21.819941596488018" lon="-102.52693939127144"><ele>1956.5</ele><time>2026-03-22T15:36:06.874Z</time></trkpt><trkpt lat="21.81987373329864" lon="-102.52689641484096"><ele>1957.0</ele><time>2026-03-22T15:36:09.874Z</time></trkpt><trkpt lat="21.81980806267849" lon="-102.52686087240949"><ele>1957.5</ele><time>2026-03-22T15:36:11.874Z</time></trkpt><trkpt lat="21.81974799795713" lon="-102.52681789443302"><ele>1958.0</ele><time>2026-03-22T15:36:13.873Z</time></trkpt><trkpt lat="21.819632777524728" lon="-102.52675647648034"><ele>1958.5</ele><time>2026-03-22T15:36:15.873Z</time></trkpt><trkpt lat="21.81956440116628" lon="-102.52671178523694"><ele>1959.0</ele><time>2026-03-22T15:36:16.873Z</time></trkpt><trkpt lat="21.819460304435836" lon="-102.5266506024797"><ele>1959.0</ele><time>2026-03-22T15:36:18.873Z</time></trkpt><trkpt lat="21.819369720439617" lon="-102.52659857278371"><ele>1959.0</ele><time>2026-03-22T15:36:20.873Z</time></trkpt><trkpt lat="21.819274188590633" lon="-102.52654932172469"><ele>1959.0</ele><time>2026-03-22T15:36:22.873Z</time></trkpt><trkpt lat="21.819185073758895" lon="-102.52649941235074"><ele>1959.0</ele><time>2026-03-22T15:36:24.873Z</time></trkpt><trkpt lat="21.81908328096456" lon="-102.52646045945527"><ele>1959.0</ele><time>2026-03-22T15:36:26.873Z</time></trkpt><trkpt lat="21.81900339508316" lon="-102.52643239856161"><ele>1961.4</ele><time>2026-03-22T15:36:28.873Z</time></trkpt><trkpt lat="21.81891200960198" lon="-102.52639852092969"><ele>1963.8000000000002</ele><time>2026-03-22T15:36:30.874Z</time></trkpt><trkpt lat="21.81881230945016" lon="-102.5263766138838"><ele>1966.1999999999998</ele><time>2026-03-22T15:36:32.875Z</time></trkpt><trkpt lat="21.818718970943355" lon="-102.52636158741137"><ele>1968.6</ele><time>2026-03-22T15:36:34.874Z</time></trkpt><trkpt lat="21.81862906084398" lon="-102.52635386005619"><ele>1971.0</ele><time>2026-03-22T15:36:36.874Z</time></trkpt><trkpt lat="21.81854275225628" lon="-102.52635394844118"><ele>1972.4</ele><time>2026-03-22T15:36:38.875Z</time></trkpt><trkpt lat="21.818445805512756" lon="-102.52635637013228"><ele>1973.8</ele><time>2026-03-22T15:36:40.874Z</time></trkpt><trkpt lat="21.81835737447369" lon="-102.52635764893127"><ele>1975.2000000000003</ele><time>2026-03-22T15:36:42.874Z</time></trkpt><trkpt lat="21.818264664970226" lon="-102.52636682409302"><ele>1976.6000000000001</ele><time>2026-03-22T15:36:44.874Z</time></trkpt><trkpt lat="21.818168624994183" lon="-102.5263746862005"><ele>1978.0</ele><time>2026-03-22T15:36:46.874Z</time></trkpt><trkpt lat="21.81807535457814" lon="-102.52637874227045"><ele>1978.0</ele><time>2026-03-22T15:36:48.874Z</time></trkpt><trkpt lat="21.817986106317463" lon="-102.52638205566706"><ele>1978.0000000000002</ele><time>2026-03-22T15:36:50.873Z</time></trkpt><trkpt lat="21.817888171773944" lon="-102.52637978235342"><ele>1978.0000000000002</ele><time>2026-03-22T15:36:52.873Z</time></trkpt><trkpt lat="21.817801147335146" lon="-102.52638682162859"><ele>1978.0</ele><time>2026-03-22T15:36:54.873Z</time></trkpt><trkpt lat="21.817700815203864" lon="-102.52639594874996"><ele>1978.0</ele><time>2026-03-22T15:36:56.873Z</time></trkpt><trkpt lat="21.817603797296286" lon="-102.52640406262427"><ele>1979.0</ele><time>2026-03-22T15:36:58.873Z</time></trkpt><trkpt lat="21.817512854705722" lon="-102.52641284553691"><ele>1980.0000000000002</ele><time>2026-03-22T15:37:00.873Z</time></trkpt><trkpt lat="21.817418579939744" lon="-102.52640690323364"><ele>1981.0000000000002</ele><time>2026-03-22T15:37:02.873Z</time></trkpt><trkpt lat="21.817324571632575" lon="-102.52641615151828"><ele>1982.0</ele><time>2026-03-22T15:37:04.873Z</time></trkpt><trkpt lat="21.81722688046576" lon="-102.5264198644352"><ele>1983.0</ele><time>2026-03-22T15:37:06.873Z</time></trkpt><trkpt lat="21.817141461592094" lon="-102.52642357478238"><ele>1983.0</ele><time>2026-03-22T15:37:08.873Z</time></trkpt><trkpt lat="21.817052010878285" lon="-102.52642559599003"><ele>1983.0000000000002</ele><time>2026-03-22T15:37:10.873Z</time></trkpt><trkpt lat="21.816958089335532" lon="-102.52642465433419"><ele>1983.0000000000002</ele><time>2026-03-22T15:37:12.873Z</time></trkpt><trkpt lat="21.816866196040134" lon="-102.52642398452375"><ele>1983.0</ele><time>2026-03-22T15:37:14.873Z</time></trkpt><trkpt lat="21.816774960265892" lon="-102.5264162960219"><ele>1983.0</ele><time>2026-03-22T15:37:16.873Z</time></trkpt><trkpt lat="21.81668419718182" lon="-102.52640355427232"><ele>1984.4</ele><time>2026-03-22T15:37:18.873Z</time></trkpt><trkpt lat="21.816590191793306" lon="-102.52638850192477"><ele>1985.8000000000002</ele><time>2026-03-22T15:37:20.873Z</time></trkpt><trkpt lat="21.816491707597333" lon="-102.52635835779593"><ele>1987.2</ele><time>2026-03-22T15:37:22.873Z</time></trkpt><trkpt lat="21.81639946061309" lon="-102.52633565423949"><ele>1988.6</ele><time>2026-03-22T15:37:24.873Z</time></trkpt><trkpt lat="21.81631092303388" lon="-102.5263105726097"><ele>1990.0</ele><time>2026-03-22T15:37:26.873Z</time></trkpt><trkpt lat="21.816223856174826" lon="-102.52628411689425"><ele>1990.0</ele><time>2026-03-22T15:37:28.872Z</time></trkpt><trkpt lat="21.81613137247829" lon="-102.52625055732102"><ele>1990.0</ele><time>2026-03-22T15:37:30.872Z</time></trkpt><trkpt lat="21.816031996766068" lon="-102.52623060790046"><ele>1990.0</ele><time>2026-03-22T15:37:32.872Z</time></trkpt><trkpt lat="21.815940646994243" lon="-102.52620799146004"><ele>1990.0</ele><time>2026-03-22T15:37:34.872Z</time></trkpt><trkpt lat="21.815839579523193" lon="-102.52617002587971"><ele>1990.0</ele><time>2026-03-22T15:37:36.872Z</time></trkpt><trkpt lat="21.81574344107049" lon="-102.52613800775099"><ele>1989.2</ele><time>2026-03-22T15:37:38.872Z</time></trkpt><trkpt lat="21.81563834030583" lon="-102.52610550494262"><ele>1988.4</ele><time>2026-03-22T15:37:40.872Z</time></trkpt><trkpt lat="21.815526272865974" lon="-102.52607129536185"><ele>1987.6</ele><time>2026-03-22T15:37:42.872Z</time></trkpt><trkpt lat="21.815411318381543" lon="-102.52604009236856"><ele>1986.8</ele><time>2026-03-22T15:37:44.872Z</time></trkpt><trkpt lat="21.81535148010472" lon="-102.52601755823788"><ele>1986.0</ele><time>2026-03-22T15:37:45.872Z</time></trkpt><trkpt lat="21.81524430575912" lon="-102.5259698127925"><ele>1988.0</ele><time>2026-03-22T15:37:47.872Z</time></trkpt><trkpt lat="21.815142582100883" lon="-102.52591406558125"><ele>1990.0</ele><time>2026-03-22T15:37:49.872Z</time></trkpt><trkpt lat="21.815043465792677" lon="-102.52583557131766"><ele>1992.0</ele><time>2026-03-22T15:37:51.872Z</time></trkpt><trkpt lat="21.814956062220205" lon="-102.52575711794405"><ele>1994.0</ele><time>2026-03-22T15:37:53.872Z</time></trkpt><trkpt lat="21.814872009741123" lon="-102.52567694981278"><ele>1994.0</ele><time>2026-03-22T15:37:55.872Z</time></trkpt><trkpt lat="21.814786051428907" lon="-102.52558911011351"><ele>1994.0</ele><time>2026-03-22T15:37:57.872Z</time></trkpt><trkpt lat="21.814698691646964" lon="-102.52550506171208"><ele>1994.0</ele><time>2026-03-22T15:37:59.872Z</time></trkpt><trkpt lat="21.81460902814771" lon="-102.52543184455756"><ele>1994.0</ele><time>2026-03-22T15:38:01.872Z</time></trkpt><trkpt lat="21.814554843417973" lon="-102.52539475241024"><ele>1994.0</ele><time>2026-03-22T15:38:02.872Z</time></trkpt><trkpt lat="21.814455957014086" lon="-102.52534993765829"><ele>1993.6</ele><time>2026-03-22T15:38:04.871Z</time></trkpt><trkpt lat="21.81435424958297" lon="-102.52531890428466"><ele>1993.2</ele><time>2026-03-22T15:38:06.871Z</time></trkpt><trkpt lat="21.81425979787536" lon="-102.52529532287708"><ele>1992.7999999999997</ele><time>2026-03-22T15:38:08.871Z</time></trkpt><trkpt lat="21.81415720176475" lon="-102.52527128793443"><ele>1992.3999999999999</ele><time>2026-03-22T15:38:10.871Z</time></trkpt><trkpt lat="21.8140663644827" lon="-102.5252489967591"><ele>1992.0</ele><time>2026-03-22T15:38:12.871Z</time></trkpt><trkpt lat="21.81396596371147" lon="-102.52522293244714"><ele>1992.0</ele><time>2026-03-22T15:38:14.871Z</time></trkpt><trkpt lat="21.813876557679414" lon="-102.52520013541275"><ele>1991.9999999999998</ele><time>2026-03-22T15:38:16.871Z</time></trkpt><trkpt lat="21.81378516761783" lon="-102.5251740619401"><ele>1991.9999999999998</ele><time>2026-03-22T15:38:18.871Z</time></trkpt><trkpt lat="21.813695655976638" lon="-102.52517173441323"><ele>1992.0</ele><time>2026-03-22T15:38:20.871Z</time></trkpt><trkpt lat="21.813599889317107" lon="-102.52514184342185"><ele>1992.0</ele><time>2026-03-22T15:38:22.871Z</time></trkpt><trkpt lat="21.81350461195186" lon="-102.52511190302019"><ele>1993.8</ele><time>2026-03-22T15:38:24.871Z</time></trkpt><trkpt lat="21.8134085503799" lon="-102.52509801055677"><ele>1995.6</ele><time>2026-03-22T15:38:26.871Z</time></trkpt><trkpt lat="21.81331243210562" lon="-102.5250784093808"><ele>1997.3999999999999</ele><time>2026-03-22T15:38:28.871Z</time></trkpt><trkpt lat="21.813219283088216" lon="-102.52507302784852"><ele>1999.1999999999998</ele><time>2026-03-22T15:38:30.871Z</time></trkpt><trkpt lat="21.813117621553012" lon="-102.52506280285792"><ele>2001.0</ele><time>2026-03-22T15:38:32.871Z</time></trkpt><trkpt lat="21.813024643914122" lon="-102.52506716123237"><ele>2001.0</ele><time>2026-03-22T15:38:34.871Z</time></trkpt><trkpt lat="21.812928643803303" lon="-102.52507533301076"><ele>2001.0</ele><time>2026-03-22T15:38:36.872Z</time></trkpt><trkpt lat="21.812840741523893" lon="-102.52509126914832"><ele>2001.0</ele><time>2026-03-22T15:38:38.871Z</time></trkpt><trkpt lat="21.81274602286062" lon="-102.52511751554606"><ele>2001.0</ele><time>2026-03-22T15:38:40.872Z</time></trkpt><trkpt lat="21.812657101201765" lon="-102.52513221850914"><ele>2001.0</ele><time>2026-03-22T15:38:42.871Z</time></trkpt><trkpt lat="21.81257288480771" lon="-102.5251556992553"><ele>2002.0</ele><time>2026-03-22T15:38:44.871Z</time></trkpt><trkpt lat="21.812490710156823" lon="-102.52517044234237"><ele>2003.0</ele><time>2026-03-22T15:38:46.872Z</time></trkpt><trkpt lat="21.81239535095303" lon="-102.52516779157602"><ele>2004.0</ele><time>2026-03-22T15:38:48.872Z</time></trkpt><trkpt lat="21.81230495984286" lon="-102.52517813485845"><ele>2005.0</ele><time>2026-03-22T15:38:50.871Z</time></trkpt><trkpt lat="21.812214392426778" lon="-102.52515688110343"><ele>2006.0</ele><time>2026-03-22T15:38:52.871Z</time></trkpt><trkpt lat="21.81212460393678" lon="-102.5251328487262"><ele>2006.0</ele><time>2026-03-22T15:38:54.871Z</time></trkpt><trkpt lat="21.812034535270275" lon="-102.52508856930311"><ele>2006.0</ele><time>2026-03-22T15:38:56.871Z</time></trkpt><trkpt lat="21.81194547229955" lon="-102.52504773578683"><ele>2006.0</ele><time>2026-03-22T15:38:58.871Z</time></trkpt><trkpt lat="21.811859424848848" lon="-102.52501460794802"><ele>2006.0</ele><time>2026-03-22T15:39:00.871Z</time></trkpt><trkpt lat="21.811773921524605" lon="-102.5249791178507"><ele>2006.0</ele><time>2026-03-22T15:39:02.871Z</time></trkpt><trkpt lat="21.811691150414315" lon="-102.52495205079043"><ele>2007.1666666666665</ele><time>2026-03-22T15:39:04.87Z</time></trkpt><trkpt lat="21.81160374974725" lon="-102.52493775763674"><ele>2008.3333333333333</ele><time>2026-03-22T15:39:06.87Z</time></trkpt><trkpt lat="21.81152239578862" lon="-102.52495595729998"><ele>2009.5</ele><time>2026-03-22T15:39:08.87Z</time></trkpt><trkpt lat="21.811449927968596" lon="-102.52498036778519"><ele>2010.6666666666665</ele><time>2026-03-22T15:39:10.87Z</time></trkpt><trkpt lat="21.81138102956079" lon="-102.52502780289916"><ele>2011.8333333333333</ele><time>2026-03-22T15:39:12.87Z</time></trkpt><trkpt lat="21.811316144566963" lon="-102.52508101325307"><ele>2013.0</ele><time>2026-03-22T15:39:14.87Z</time></trkpt><trkpt lat="21.811243679532733" lon="-102.52514141788953"><ele>2013.0</ele><time>2026-03-22T15:39:16.87Z</time></trkpt><trkpt lat="21.811180901934925" lon="-102.5251991917084"><ele>2013.0</ele><time>2026-03-22T15:39:18.87Z</time></trkpt><trkpt lat="21.811109428732593" lon="-102.52525461588961"><ele>2013.0</ele><time>2026-03-22T15:39:20.87Z</time></trkpt><trkpt lat="21.81103577127904" lon="-102.52529265765513"><ele>2013.0</ele><time>2026-03-22T15:39:22.87Z</time></trkpt><trkpt lat="21.810942016066203" lon="-102.52531516587335"><ele>2013.0</ele><time>2026-03-22T15:39:24.87Z</time></trkpt><trkpt lat="21.810853728040993" lon="-102.52530628361751"><ele>2013.0</ele><time>2026-03-22T15:39:26.87Z</time></trkpt><trkpt lat="21.81078700299813" lon="-102.5252744407629"><ele>2013.6666666666667</ele><time>2026-03-22T15:39:28.87Z</time></trkpt><trkpt lat="21.810728028169834" lon="-102.52521512670818"><ele>2014.3333333333335</ele><time>2026-03-22T15:39:30.87Z</time></trkpt><trkpt lat="21.810666489546495" lon="-102.52515922876863"><ele>2015.0</ele><time>2026-03-22T15:39:32.87Z</time></trkpt><trkpt lat="21.810623856585746" lon="-102.52508975999967"><ele>2015.6666666666667</ele><time>2026-03-22T15:39:34.87Z</time></trkpt><trkpt lat="21.81058762758805" lon="-102.52501865022727"><ele>2016.3333333333335</ele><time>2026-03-22T15:39:36.87Z</time></trkpt><trkpt lat="21.810555473142255" lon="-102.52494726710111"><ele>2017.0</ele><time>2026-03-22T15:39:38.869Z</time></trkpt><trkpt lat="21.81052587734959" lon="-102.5248781480694"><ele>2017.0000000000002</ele><time>2026-03-22T15:39:40.869Z</time></trkpt><trkpt lat="21.8104767017164" lon="-102.52481616800912"><ele>2017.0</ele><time>2026-03-22T15:39:42.869Z</time></trkpt><trkpt lat="21.81041242892447" lon="-102.524791525289"><ele>2017.0</ele><time>2026-03-22T15:39:44.869Z</time></trkpt><trkpt lat="21.810328398945508" lon="-102.52478655735801"><ele>2017.0</ele><time>2026-03-22T15:39:46.869Z</time></trkpt><trkpt lat="21.810252551968905" lon="-102.52479851592362"><ele>2017.0000000000002</ele><time>2026-03-22T15:39:48.869Z</time></trkpt><trkpt lat="21.81017714696934" lon="-102.52481974799356"><ele>2017.0</ele><time>2026-03-22T15:39:50.869Z</time></trkpt><trkpt lat="21.810104309632052" lon="-102.52485277661864"><ele>2019.3333333333335</ele><time>2026-03-22T15:39:52.869Z</time></trkpt><trkpt lat="21.810036680530935" lon="-102.52489750556052"><ele>2021.6666666666667</ele><time>2026-03-22T15:39:54.869Z</time></trkpt><trkpt lat="21.809963938902737" lon="-102.5249405342008"><ele>2024.0</ele><time>2026-03-22T15:39:56.869Z</time></trkpt><trkpt lat="21.809895083423044" lon="-102.52498579508747"><ele>2026.3333333333335</ele><time>2026-03-22T15:39:58.869Z</time></trkpt><trkpt lat="21.80981842952425" lon="-102.52503311011644"><ele>2028.6666666666667</ele><time>2026-03-22T15:40:00.869Z</time></trkpt><trkpt lat="21.80974849466286" lon="-102.52508131656258"><ele>2031.0</ele><time>2026-03-22T15:40:02.869Z</time></trkpt><trkpt lat="21.809679027062735" lon="-102.52512159494334"><ele>2031.0</ele><time>2026-03-22T15:40:04.869Z</time></trkpt><trkpt lat="21.80959554535803" lon="-102.52515443281327"><ele>2031.0</ele><time>2026-03-22T15:40:06.869Z</time></trkpt><trkpt lat="21.80953888040064" lon="-102.52519997269188"><ele>2031.0</ele><time>2026-03-22T15:40:08.869Z</time></trkpt><trkpt lat="21.809460058215453" lon="-102.52524748928236"><ele>2031.0</ele><time>2026-03-22T15:40:10.869Z</time></trkpt><trkpt lat="21.809389994119552" lon="-102.52530312401464"><ele>2031.0</ele><time>2026-03-22T15:40:12.869Z</time></trkpt><trkpt lat="21.809319333083597" lon="-102.52535596763435"><ele>2031.0</ele><time>2026-03-22T15:40:14.868Z</time></trkpt><trkpt lat="21.809243317056207" lon="-102.52541451524249"><ele>2032.8333333333333</ele><time>2026-03-22T15:40:16.868Z</time></trkpt><trkpt lat="21.809174036922254" lon="-102.52547206636751"><ele>2034.6666666666665</ele><time>2026-03-22T15:40:18.868Z</time></trkpt><trkpt lat="21.80910269462795" lon="-102.52552220784229"><ele>2036.5</ele><time>2026-03-22T15:40:20.868Z</time></trkpt><trkpt lat="21.809024041512828" lon="-102.52557931260372"><ele>2038.3333333333333</ele><time>2026-03-22T15:40:22.868Z</time></trkpt><trkpt lat="21.808958697228938" lon="-102.52561959301244"><ele>2040.1666666666665</ele><time>2026-03-22T15:40:24.868Z</time></trkpt><trkpt lat="21.80888089316709" lon="-102.52566794576701"><ele>2042.0</ele><time>2026-03-22T15:40:26.868Z</time></trkpt><trkpt lat="21.808808647707806" lon="-102.52571578792589"><ele>2041.9999999999998</ele><time>2026-03-22T15:40:28.868Z</time></trkpt><trkpt lat="21.80873320051401" lon="-102.5257656275773"><ele>2042.0</ele><time>2026-03-22T15:40:30.868Z</time></trkpt><trkpt lat="21.808660287670847" lon="-102.52580659205346"><ele>2042.0</ele><time>2026-03-22T15:40:32.868Z</time></trkpt><trkpt lat="21.8085971661517" lon="-102.52585310084619"><ele>2042.0</ele><time>2026-03-22T15:40:34.868Z</time></trkpt><trkpt lat="21.808521529107164" lon="-102.52590235777265"><ele>2041.9999999999998</ele><time>2026-03-22T15:40:36.868Z</time></trkpt><trkpt lat="21.808450995242914" lon="-102.52594997120596"><ele>2042.0</ele><time>2026-03-22T15:40:38.868Z</time></trkpt><trkpt lat="21.808392580120294" lon="-102.52599545485292"><ele>2041.3333333333333</ele><time>2026-03-22T15:40:40.868Z</time></trkpt><trkpt lat="21.80831999183999" lon="-102.52605168423639"><ele>2040.6666666666665</ele><time>2026-03-22T15:40:42.869Z</time></trkpt><trkpt lat="21.808250455131734" lon="-102.52609517607142"><ele>2040.0</ele><time>2026-03-22T15:40:44.869Z</time></trkpt><trkpt lat="21.808176979308953" lon="-102.52613664150418"><ele>2039.3333333333335</ele><time>2026-03-22T15:40:46.869Z</time></trkpt><trkpt lat="21.80809648334459" lon="-102.52617956804845"><ele>2038.6666666666667</ele><time>2026-03-22T15:40:48.869Z</time></trkpt><trkpt lat="21.808024042105153" lon="-102.52622718192067"><ele>2038.0</ele><time>2026-03-22T15:40:50.869Z</time></trkpt><trkpt lat="21.807945115526067" lon="-102.52627092964612"><ele>2040.3333333333335</ele><time>2026-03-22T15:40:52.869Z</time></trkpt><trkpt lat="21.807856711907217" lon="-102.52631111988254"><ele>2042.6666666666667</ele><time>2026-03-22T15:40:54.869Z</time></trkpt><trkpt lat="21.807779217818968" lon="-102.52632566349392"><ele>2045.0</ele><time>2026-03-22T15:40:56.869Z</time></trkpt><trkpt lat="21.807693025392947" lon="-102.52635016538952"><ele>2047.3333333333335</ele><time>2026-03-22T15:40:58.869Z</time></trkpt><trkpt lat="21.80760386385039" lon="-102.526360267825"><ele>2049.6666666666665</ele><time>2026-03-22T15:41:00.869Z</time></trkpt><trkpt lat="21.807515205936063" lon="-102.52636526638277"><ele>2052.0</ele><time>2026-03-22T15:41:02.869Z</time></trkpt><trkpt lat="21.807432636367427" lon="-102.52635917897562"><ele>2052.0</ele><time>2026-03-22T15:41:04.869Z</time></trkpt><trkpt lat="21.807333055452645" lon="-102.52636486833104"><ele>2052.0</ele><time>2026-03-22T15:41:06.869Z</time></trkpt><trkpt lat="21.80723632313109" lon="-102.5263490286116"><ele>2052.0</ele><time>2026-03-22T15:41:08.869Z</time></trkpt><trkpt lat="21.807122639546733" lon="-102.52634755614882"><ele>2052.0</ele><time>2026-03-22T15:41:10.869Z</time></trkpt><trkpt lat="21.80701219895021" lon="-102.52634204089077"><ele>2052.0</ele><time>2026-03-22T15:41:12.869Z</time></trkpt><trkpt lat="21.806901964837408" lon="-102.52632968209832"><ele>2052.5</ele><time>2026-03-22T15:41:14.869Z</time></trkpt><trkpt lat="21.806790436251454" lon="-102.5263290536176"><ele>2053.0</ele><time>2026-03-22T15:41:16.869Z</time></trkpt><trkpt lat="21.806727475535126" lon="-102.52631915985666"><ele>2053.5</ele><time>2026-03-22T15:41:17.869Z</time></trkpt><trkpt lat="21.806660251735657" lon="-102.526312197928"><ele>2054.0</ele><time>2026-03-22T15:41:18.869Z</time></trkpt><trkpt lat="21.806592565631853" lon="-102.52630343779781"><ele>2054.5</ele><time>2026-03-22T15:41:19.869Z</time></trkpt><trkpt lat="21.806518034613294" lon="-102.52629561308736"><ele>2055.0</ele><time>2026-03-22T15:41:20.869Z</time></trkpt><trkpt lat="21.80638664695696" lon="-102.52626700911266"><ele>2055.0</ele><time>2026-03-22T15:41:22.868Z</time></trkpt><trkpt lat="21.806325283632297" lon="-102.52623866671372"><ele>2055.0</ele><time>2026-03-22T15:41:23.868Z</time></trkpt><trkpt lat="21.806253323003634" lon="-102.52620652785572"><ele>2055.0</ele><time>2026-03-22T15:41:24.868Z</time></trkpt><trkpt lat="21.806180302251658" lon="-102.52617888939244"><ele>2055.0</ele><time>2026-03-22T15:41:25.868Z</time></trkpt><trkpt lat="21.80611129324124" lon="-102.52614979432181"><ele>2055.0</ele><time>2026-03-22T15:41:26.868Z</time></trkpt><trkpt lat="21.80604038711029" lon="-102.52612191200848"><ele>2055.0</ele><time>2026-03-22T15:41:27.868Z</time></trkpt><trkpt lat="21.805971517590105" lon="-102.52608987897158"><ele>2055.0</ele><time>2026-03-22T15:41:28.868Z</time></trkpt><trkpt lat="21.805901683759664" lon="-102.52605152698196"><ele>2053.0</ele><time>2026-03-22T15:41:29.868Z</time></trkpt><trkpt lat="21.805831028926985" lon="-102.5260122694004"><ele>2051.0</ele><time>2026-03-22T15:41:30.868Z</time></trkpt><trkpt lat="21.805769578778484" lon="-102.52597964882065"><ele>2049.0</ele><time>2026-03-22T15:41:31.868Z</time></trkpt><trkpt lat="21.80569796164455" lon="-102.52593572224775"><ele>2047.0</ele><time>2026-03-22T15:41:32.868Z</time></trkpt><trkpt lat="21.805630478598378" lon="-102.5259015005718"><ele>2045.0</ele><time>2026-03-22T15:41:33.868Z</time></trkpt><trkpt lat="21.805560795774227" lon="-102.52586609625757"><ele>2043.0</ele><time>2026-03-22T15:41:34.868Z</time></trkpt><trkpt lat="21.805491759913647" lon="-102.52583157379287"><ele>2043.0</ele><time>2026-03-22T15:41:35.868Z</time></trkpt><trkpt lat="21.805420953739205" lon="-102.52578873036165"><ele>2043.0</ele><time>2026-03-22T15:41:36.868Z</time></trkpt><trkpt lat="21.805350095978728" lon="-102.5257525154603"><ele>2043.0</ele><time>2026-03-22T15:41:37.868Z</time></trkpt><trkpt lat="21.805275887632053" lon="-102.5257142247913"><ele>2043.0</ele><time>2026-03-22T15:41:38.868Z</time></trkpt><trkpt lat="21.80520563742279" lon="-102.5256760718303"><ele>2043.0</ele><time>2026-03-22T15:41:39.868Z</time></trkpt><trkpt lat="21.805133700059866" lon="-102.52563380221304"><ele>2043.0</ele><time>2026-03-22T15:41:40.868Z</time></trkpt><trkpt lat="21.805065457659467" lon="-102.52560457242683"><ele>2043.1666666666667</ele><time>2026-03-22T15:41:41.868Z</time></trkpt><trkpt lat="21.804993741000708" lon="-102.52556968720724"><ele>2043.3333333333335</ele><time>2026-03-22T15:41:42.868Z</time></trkpt><trkpt lat="21.804921497989223" lon="-102.52553496466376"><ele>2043.5</ele><time>2026-03-22T15:41:43.868Z</time></trkpt><trkpt lat="21.804852084480277" lon="-102.52549634875984"><ele>2043.6666666666667</ele><time>2026-03-22T15:41:44.868Z</time></trkpt><trkpt lat="21.804780633705132" lon="-102.52545785569184"><ele>2043.8333333333335</ele><time>2026-03-22T15:41:45.868Z</time></trkpt><trkpt lat="21.804711395569036" lon="-102.52541595025335"><ele>2044.0</ele><time>2026-03-22T15:41:46.868Z</time></trkpt><trkpt lat="21.804641190137797" lon="-102.52537929813896"><ele>2044.6666666666667</ele><time>2026-03-22T15:41:47.868Z</time></trkpt><trkpt lat="21.80457437931683" lon="-102.52534318724693"><ele>2045.3333333333335</ele><time>2026-03-22T15:41:48.868Z</time></trkpt><trkpt lat="21.80450419609002" lon="-102.52530321793796"><ele>2046.0</ele><time>2026-03-22T15:41:49.868Z</time></trkpt><trkpt lat="21.80443702227963" lon="-102.52527277436796"><ele>2046.6666666666665</ele><time>2026-03-22T15:41:50.868Z</time></trkpt><trkpt lat="21.804372087226167" lon="-102.52523357285256"><ele>2047.3333333333333</ele><time>2026-03-22T15:41:51.868Z</time></trkpt><trkpt lat="21.80430514545141" lon="-102.52519513831072"><ele>2048.0</ele><time>2026-03-22T15:41:52.868Z</time></trkpt><trkpt lat="21.80423686326938" lon="-102.52515667565542"><ele>2047.9999999999998</ele><time>2026-03-22T15:41:53.868Z</time></trkpt><trkpt lat="21.804163207075444" lon="-102.52511893571165"><ele>2048.0</ele><time>2026-03-22T15:41:54.868Z</time></trkpt><trkpt lat="21.804094950954333" lon="-102.52508943189417"><ele>2048.0</ele><time>2026-03-22T15:41:55.868Z</time></trkpt><trkpt lat="21.804025304303376" lon="-102.52504877345682"><ele>2048.0</ele><time>2026-03-22T15:41:56.868Z</time></trkpt><trkpt lat="21.803958914926433" lon="-102.52502301433556"><ele>2047.9999999999998</ele><time>2026-03-22T15:41:57.868Z</time></trkpt><trkpt lat="21.80389091338032" lon="-102.52498171340697"><ele>2048.0</ele><time>2026-03-22T15:41:58.868Z</time></trkpt><trkpt lat="21.80382200716658" lon="-102.52494725472604"><ele>2047.9999999999998</ele><time>2026-03-22T15:41:59.868Z</time></trkpt><trkpt lat="21.803755107428078" lon="-102.52490814619703"><ele>2048.0</ele><time>2026-03-22T15:42:00.867Z</time></trkpt><trkpt lat="21.80368504885765" lon="-102.52487104194417"><ele>2048.0</ele><time>2026-03-22T15:42:01.867Z</time></trkpt><trkpt lat="21.803614997868333" lon="-102.52483972978021"><ele>2048.0</ele><time>2026-03-22T15:42:02.867Z</time></trkpt><trkpt lat="21.803541351149576" lon="-102.52480673011844"><ele>2047.9999999999998</ele><time>2026-03-22T15:42:03.867Z</time></trkpt><trkpt lat="21.80346757250259" lon="-102.52477617887024"><ele>2048.0</ele><time>2026-03-22T15:42:04.867Z</time></trkpt><trkpt lat="21.80339122746563" lon="-102.5247413633335"><ele>2046.8333333333333</ele><time>2026-03-22T15:42:05.867Z</time></trkpt><trkpt lat="21.803319511134028" lon="-102.52470615826967"><ele>2045.6666666666665</ele><time>2026-03-22T15:42:06.867Z</time></trkpt><trkpt lat="21.80324063614183" lon="-102.5246708813938"><ele>2044.5</ele><time>2026-03-22T15:42:07.867Z</time></trkpt><trkpt lat="21.803167022368093" lon="-102.52463974013594"><ele>2043.3333333333335</ele><time>2026-03-22T15:42:08.867Z</time></trkpt><trkpt lat="21.803090635510653" lon="-102.52460139937517"><ele>2042.1666666666667</ele><time>2026-03-22T15:42:09.867Z</time></trkpt><trkpt lat="21.80300816798015" lon="-102.52456684276001"><ele>2041.0</ele><time>2026-03-22T15:42:10.867Z</time></trkpt><trkpt lat="21.802919236086158" lon="-102.52454027280315"><ele>2041.8</ele><time>2026-03-22T15:42:11.867Z</time></trkpt><trkpt lat="21.802830687025867" lon="-102.52451551566433"><ele>2042.6</ele><time>2026-03-22T15:42:12.867Z</time></trkpt><trkpt lat="21.802735919680806" lon="-102.52448827929169"><ele>2043.4</ele><time>2026-03-22T15:42:13.867Z</time></trkpt><trkpt lat="21.80264208675275" lon="-102.52446027483717"><ele>2044.2</ele><time>2026-03-22T15:42:14.867Z</time></trkpt><trkpt lat="21.802542833929557" lon="-102.52443994127964"><ele>2045.0</ele><time>2026-03-22T15:42:15.867Z</time></trkpt><trkpt lat="21.802438471074918" lon="-102.52442278693364"><ele>2045.0</ele><time>2026-03-22T15:42:16.867Z</time></trkpt><trkpt lat="21.802337246028518" lon="-102.52440753679569"><ele>2045.0</ele><time>2026-03-22T15:42:17.867Z</time></trkpt><trkpt lat="21.802226458304897" lon="-102.52440203057103"><ele>2045.0</ele><time>2026-03-22T15:42:18.867Z</time></trkpt><trkpt lat="21.802117221994443" lon="-102.52439283565349"><ele>2045.0</ele><time>2026-03-22T15:42:19.867Z</time></trkpt><trkpt lat="21.802009747510493" lon="-102.52438013470898"><ele>2045.0</ele><time>2026-03-22T15:42:20.867Z</time></trkpt><trkpt lat="21.801896849044894" lon="-102.52435996784222"><ele>2043.25</ele><time>2026-03-22T15:42:21.867Z</time></trkpt><trkpt lat="21.801783933715036" lon="-102.5243441712815"><ele>2041.5</ele><time>2026-03-22T15:42:22.867Z</time></trkpt><trkpt lat="21.80166395823751" lon="-102.52433617755777"><ele>2039.75</ele><time>2026-03-22T15:42:23.867Z</time></trkpt><trkpt lat="21.8015444952847" lon="-102.52432751374947"><ele>2038.0</ele><time>2026-03-22T15:42:24.867Z</time></trkpt><trkpt lat="21.801425848781975" lon="-102.52431430454092"><ele>2038.0</ele><time>2026-03-22T15:42:25.867Z</time></trkpt><trkpt lat="21.801304861913614" lon="-102.52429582605818"><ele>2038.0</ele><time>2026-03-22T15:42:26.867Z</time></trkpt><trkpt lat="21.80118646991948" lon="-102.52428245434834"><ele>2038.0</ele><time>2026-03-22T15:42:27.867Z</time></trkpt><trkpt lat="21.801066639882844" lon="-102.52426850898074"><ele>2038.0</ele><time>2026-03-22T15:42:28.867Z</time></trkpt><trkpt lat="21.800944914449392" lon="-102.5242551046046"><ele>2036.75</ele><time>2026-03-22T15:42:29.867Z</time></trkpt><trkpt lat="21.800830803241027" lon="-102.52423987231816"><ele>2035.5</ele><time>2026-03-22T15:42:30.867Z</time></trkpt><trkpt lat="21.800716329093838" lon="-102.52422984458825"><ele>2034.25</ele><time>2026-03-22T15:42:31.867Z</time></trkpt><trkpt lat="21.80059601841564" lon="-102.52422113104267"><ele>2033.0</ele><time>2026-03-22T15:42:32.867Z</time></trkpt><trkpt lat="21.800483380993104" lon="-102.52421012691096"><ele>2033.0</ele><time>2026-03-22T15:42:33.867Z</time></trkpt><trkpt lat="21.800373984285773" lon="-102.52419303022728"><ele>2033.0000000000002</ele><time>2026-03-22T15:42:34.867Z</time></trkpt><trkpt lat="21.80026238457665" lon="-102.52417547678502"><ele>2033.0000000000002</ele><time>2026-03-22T15:42:35.867Z</time></trkpt><trkpt lat="21.800148015256312" lon="-102.52415730942661"><ele>2033.0</ele><time>2026-03-22T15:42:36.867Z</time></trkpt><trkpt lat="21.800040905413354" lon="-102.52414381505338"><ele>2033.0</ele><time>2026-03-22T15:42:37.866Z</time></trkpt><trkpt lat="21.799940031912065" lon="-102.52413569092103"><ele>2033.4</ele><time>2026-03-22T15:42:38.866Z</time></trkpt><trkpt lat="21.799832626058475" lon="-102.52412142905396"><ele>2033.8000000000002</ele><time>2026-03-22T15:42:39.866Z</time></trkpt><trkpt lat="21.79972577284866" lon="-102.52410885442409"><ele>2034.2</ele><time>2026-03-22T15:42:40.866Z</time></trkpt><trkpt lat="21.79961892190922" lon="-102.52409619492519"><ele>2034.6</ele><time>2026-03-22T15:42:41.866Z</time></trkpt><trkpt lat="21.799510030408264" lon="-102.52408819503174"><ele>2035.0</ele><time>2026-03-22T15:42:42.866Z</time></trkpt><trkpt lat="21.799408535510317" lon="-102.52407301650777"><ele>2034.2</ele><time>2026-03-22T15:42:43.866Z</time></trkpt><trkpt lat="21.799300853930337" lon="-102.52405764036061"><ele>2033.4</ele><time>2026-03-22T15:42:44.866Z</time></trkpt><trkpt lat="21.799191958539634" lon="-102.52404831146032"><ele>2032.6</ele><time>2026-03-22T15:42:45.866Z</time></trkpt><trkpt lat="21.799084599292172" lon="-102.52403839162847"><ele>2031.8</ele><time>2026-03-22T15:42:46.866Z</time></trkpt><trkpt lat="21.79897545375504" lon="-102.52402501050247"><ele>2031.0</ele><time>2026-03-22T15:42:47.866Z</time></trkpt><trkpt lat="21.7988656701926" lon="-102.52401460249402"><ele>2031.0</ele><time>2026-03-22T15:42:48.867Z</time></trkpt><trkpt lat="21.798755284572234" lon="-102.52399916879536"><ele>2031.0</ele><time>2026-03-22T15:42:49.866Z</time></trkpt><trkpt lat="21.79864375329648" lon="-102.52398166716141"><ele>2031.0</ele><time>2026-03-22T15:42:50.866Z</time></trkpt><trkpt lat="21.798526500038097" lon="-102.52396925035325"><ele>2031.0</ele><time>2026-03-22T15:42:51.867Z</time></trkpt><trkpt lat="21.798414945581797" lon="-102.52395448707742"><ele>2029.5</ele><time>2026-03-22T15:42:52.867Z</time></trkpt><trkpt lat="21.798298997411194" lon="-102.52394656008317"><ele>2028.0</ele><time>2026-03-22T15:42:53.867Z</time></trkpt><trkpt lat="21.798183698329247" lon="-102.52393668990705"><ele>2026.5</ele><time>2026-03-22T15:42:54.867Z</time></trkpt><trkpt lat="21.79806720154287" lon="-102.52392463952098"><ele>2025.0</ele><time>2026-03-22T15:42:55.866Z</time></trkpt><trkpt lat="21.79795663194505" lon="-102.52391362951134"><ele>2025.0</ele><time>2026-03-22T15:42:56.866Z</time></trkpt><trkpt lat="21.79783733983382" lon="-102.52390093287651"><ele>2025.0</ele><time>2026-03-22T15:42:57.867Z</time></trkpt><trkpt lat="21.797725435776815" lon="-102.52389865723559"><ele>2025.0</ele><time>2026-03-22T15:42:58.867Z</time></trkpt><trkpt lat="21.79760510003996" lon="-102.5238993706685"><ele>2025.0</ele><time>2026-03-22T15:42:59.867Z</time></trkpt><trkpt lat="21.797493392465526" lon="-102.52390576647399"><ele>2024.25</ele><time>2026-03-22T15:43:00.867Z</time></trkpt><trkpt lat="21.797376889892117" lon="-102.52391657307663"><ele>2023.5</ele><time>2026-03-22T15:43:01.866Z</time></trkpt><trkpt lat="21.79725901098696" lon="-102.52393350941064"><ele>2022.75</ele><time>2026-03-22T15:43:02.866Z</time></trkpt><trkpt lat="21.797154936489292" lon="-102.52396042289524"><ele>2022.0</ele><time>2026-03-22T15:43:03.866Z</time></trkpt><trkpt lat="21.797044079500335" lon="-102.52399145999709"><ele>2022.0</ele><time>2026-03-22T15:43:04.866Z</time></trkpt><trkpt lat="21.79693471545542" lon="-102.52402697864503"><ele>2022.0</ele><time>2026-03-22T15:43:05.866Z</time></trkpt><trkpt lat="21.796826287183332" lon="-102.52405934652137"><ele>2022.0</ele><time>2026-03-22T15:43:06.866Z</time></trkpt><trkpt lat="21.796717212755826" lon="-102.52409183893656"><ele>2022.0</ele><time>2026-03-22T15:43:07.866Z</time></trkpt><trkpt lat="21.79660141851973" lon="-102.52412648394795"><ele>2022.0</ele><time>2026-03-22T15:43:08.866Z</time></trkpt><trkpt lat="21.796491554649318" lon="-102.52415921322304"><ele>2022.0</ele><time>2026-03-22T15:43:09.866Z</time></trkpt><trkpt lat="21.796382960735077" lon="-102.52419519003632"><ele>2022.0</ele><time>2026-03-22T15:43:10.866Z</time></trkpt><trkpt lat="21.79627645188418" lon="-102.52423325714805"><ele>2022.0</ele><time>2026-03-22T15:43:11.866Z</time></trkpt><trkpt lat="21.79617200305344" lon="-102.52426952411506"><ele>2022.0</ele><time>2026-03-22T15:43:12.866Z</time></trkpt><trkpt lat="21.7960665889161" lon="-102.52430710488511"><ele>2021.9999999999998</ele><time>2026-03-22T15:43:13.866Z</time></trkpt><trkpt lat="21.795964762211568" lon="-102.5243363846983"><ele>2021.9999999999998</ele><time>2026-03-22T15:43:14.866Z</time></trkpt><trkpt lat="21.795861783917395" lon="-102.52436851944451"><ele>2022.0</ele><time>2026-03-22T15:43:15.866Z</time></trkpt><trkpt lat="21.795762181084267" lon="-102.52439977637927"><ele>2022.0</ele><time>2026-03-22T15:43:16.866Z</time></trkpt><trkpt lat="21.795660208705694" lon="-102.52443435431933"><ele>2024.1999999999998</ele><time>2026-03-22T15:43:17.866Z</time></trkpt><trkpt lat="21.795561356963695" lon="-102.52446854622302"><ele>2026.3999999999999</ele><time>2026-03-22T15:43:18.866Z</time></trkpt><trkpt lat="21.795461086691528" lon="-102.52450180739912"><ele>2028.6000000000001</ele><time>2026-03-22T15:43:19.866Z</time></trkpt><trkpt lat="21.79536206033674" lon="-102.52453228438674"><ele>2030.8000000000002</ele><time>2026-03-22T15:43:20.866Z</time></trkpt><trkpt lat="21.795263504582728" lon="-102.5245672823397"><ele>2033.0</ele><time>2026-03-22T15:43:21.866Z</time></trkpt><trkpt lat="21.795168329732732" lon="-102.52459930587489"><ele>2028.2</ele><time>2026-03-22T15:43:22.866Z</time></trkpt><trkpt lat="21.795069449252953" lon="-102.52462894608445"><ele>2023.4</ele><time>2026-03-22T15:43:23.866Z</time></trkpt><trkpt lat="21.79497323701992" lon="-102.524659386367"><ele>2018.6000000000001</ele><time>2026-03-22T15:43:24.866Z</time></trkpt><trkpt lat="21.7948798639248" lon="-102.52468781368604"><ele>2013.8000000000002</ele><time>2026-03-22T15:43:25.866Z</time></trkpt><trkpt lat="21.794783853577517" lon="-102.52471648610445"><ele>2009.0</ele><time>2026-03-22T15:43:26.866Z</time></trkpt><trkpt lat="21.79468988868722" lon="-102.52474759353099"><ele>2009.0</ele><time>2026-03-22T15:43:27.866Z</time></trkpt><trkpt lat="21.79459594319261" lon="-102.52477800510412"><ele>2009.0</ele><time>2026-03-22T15:43:28.866Z</time></trkpt><trkpt lat="21.794500855939006" lon="-102.52480418872862"><ele>2009.0</ele><time>2026-03-22T15:43:29.866Z</time></trkpt><trkpt lat="21.794405280929222" lon="-102.52482006579952"><ele>2009.0</ele><time>2026-03-22T15:43:30.866Z</time></trkpt><trkpt lat="21.794310964670228" lon="-102.524824883365"><ele>2009.0</ele><time>2026-03-22T15:43:31.866Z</time></trkpt><trkpt lat="21.79421473579968" lon="-102.52482709944194"><ele>2010.8000000000002</ele><time>2026-03-22T15:43:32.866Z</time></trkpt><trkpt lat="21.794117194644137" lon="-102.52482120688279"><ele>2012.6000000000001</ele><time>2026-03-22T15:43:33.866Z</time></trkpt><trkpt lat="21.794017546794606" lon="-102.524807230351"><ele>2014.4</ele><time>2026-03-22T15:43:34.866Z</time></trkpt><trkpt lat="21.793922389116617" lon="-102.52477671544597"><ele>2016.2</ele><time>2026-03-22T15:43:35.866Z</time></trkpt><trkpt lat="21.793833104179885" lon="-102.5247325134984"><ele>2018.0</ele><time>2026-03-22T15:43:36.866Z</time></trkpt><trkpt lat="21.79374718020606" lon="-102.52468656866112"><ele>2018.0</ele><time>2026-03-22T15:43:37.866Z</time></trkpt><trkpt lat="21.793661174047696" lon="-102.52463248068302"><ele>2018.0000000000002</ele><time>2026-03-22T15:43:38.865Z</time></trkpt><trkpt lat="21.79357602665145" lon="-102.52458072647403"><ele>2018.0000000000002</ele><time>2026-03-22T15:43:39.865Z</time></trkpt><trkpt lat="21.793488173897202" lon="-102.5245313931207"><ele>2018.0</ele><time>2026-03-22T15:43:40.865Z</time></trkpt><trkpt lat="21.79340583813594" lon="-102.52447471357839"><ele>2018.0</ele><time>2026-03-22T15:43:41.865Z</time></trkpt><trkpt lat="21.793326199387838" lon="-102.52442980870389"><ele>2019.6000000000001</ele><time>2026-03-22T15:43:42.865Z</time></trkpt><trkpt lat="21.793249899532093" lon="-102.5243846217868"><ele>2021.2000000000003</ele><time>2026-03-22T15:43:43.865Z</time></trkpt><trkpt lat="21.793165012035086" lon="-102.52433424007909"><ele>2022.8</ele><time>2026-03-22T15:43:44.865Z</time></trkpt><trkpt lat="21.793085470413967" lon="-102.52428788282269"><ele>2024.4</ele><time>2026-03-22T15:43:45.865Z</time></trkpt><trkpt lat="21.792942551095944" lon="-102.52419570280163"><ele>2026.0</ele><time>2026-03-22T15:43:47.865Z</time></trkpt><trkpt lat="21.792880217518658" lon="-102.52414843285706"><ele>2026.0000000000002</ele><time>2026-03-22T15:43:48.865Z</time></trkpt><trkpt lat="21.7928079181351" lon="-102.52410192502225"><ele>2026.0</ele><time>2026-03-22T15:43:49.865Z</time></trkpt><trkpt lat="21.792736514794207" lon="-102.52405639435712"><ele>2026.0</ele><time>2026-03-22T15:43:50.865Z</time></trkpt><trkpt lat="21.792673799266666" lon="-102.52401235624603"><ele>2026.0</ele><time>2026-03-22T15:43:51.865Z</time></trkpt><trkpt lat="21.79261017233552" lon="-102.52395707765754"><ele>2026.0000000000002</ele><time>2026-03-22T15:43:52.865Z</time></trkpt><trkpt lat="21.792550081302885" lon="-102.52389818789662"><ele>2026.0</ele><time>2026-03-22T15:43:53.865Z</time></trkpt><trkpt lat="21.79249278384979" lon="-102.52383895996755"><ele>2026.0000000000002</ele><time>2026-03-22T15:43:54.865Z</time></trkpt><trkpt lat="21.792436437683634" lon="-102.52378038638031"><ele>2026.0</ele><time>2026-03-22T15:43:55.865Z</time></trkpt><trkpt lat="21.792378730938786" lon="-102.52370957440188"><ele>2026.0</ele><time>2026-03-22T15:43:56.865Z</time></trkpt><trkpt lat="21.792331398784267" lon="-102.52363734940275"><ele>2026.0</ele><time>2026-03-22T15:43:57.865Z</time></trkpt><trkpt lat="21.792292838063698" lon="-102.52356017429094"><ele>2026.0000000000002</ele><time>2026-03-22T15:43:58.865Z</time></trkpt><trkpt lat="21.792252543797648" lon="-102.52347846438"><ele>2026.0</ele><time>2026-03-22T15:43:59.865Z</time></trkpt><trkpt lat="21.792221640684648" lon="-102.52339691923098"><ele>2026.0000000000002</ele><time>2026-03-22T15:44:00.865Z</time></trkpt><trkpt lat="21.792196588174114" lon="-102.52331572172379"><ele>2026.0</ele><time>2026-03-22T15:44:01.865Z</time></trkpt><trkpt lat="21.792170374309034" lon="-102.52322229315362"><ele>2026.0</ele><time>2026-03-22T15:44:02.865Z</time></trkpt><trkpt lat="21.79214880906132" lon="-102.52313610509921"><ele>2026.0</ele><time>2026-03-22T15:44:03.865Z</time></trkpt><trkpt lat="21.792136787541263" lon="-102.52304261025526"><ele>2026.0000000000002</ele><time>2026-03-22T15:44:04.865Z</time></trkpt><trkpt lat="21.79212698870175" lon="-102.52294931595686"><ele>2026.0</ele><time>2026-03-22T15:44:05.865Z</time></trkpt><trkpt lat="21.7921205593077" lon="-102.5228604520597"><ele>2025.8333333333335</ele><time>2026-03-22T15:44:06.865Z</time></trkpt><trkpt lat="21.79211026404246" lon="-102.52277071557907"><ele>2025.6666666666667</ele><time>2026-03-22T15:44:07.865Z</time></trkpt><trkpt lat="21.792105723524937" lon="-102.52267578996661"><ele>2025.5</ele><time>2026-03-22T15:44:08.865Z</time></trkpt><trkpt lat="21.792095165850604" lon="-102.52257822728096"><ele>2025.3333333333335</ele><time>2026-03-22T15:44:09.865Z</time></trkpt><trkpt lat="21.792082420353932" lon="-102.52248052113151"><ele>2025.1666666666667</ele><time>2026-03-22T15:44:10.865Z</time></trkpt><trkpt lat="21.79206850581552" lon="-102.52238465333505"><ele>2025.0</ele><time>2026-03-22T15:44:11.865Z</time></trkpt><trkpt lat="21.7920558157322" lon="-102.5222879744513"><ele>2025.0</ele><time>2026-03-22T15:44:12.865Z</time></trkpt><trkpt lat="21.792043806250835" lon="-102.52219429107852"><ele>2025.0</ele><time>2026-03-22T15:44:13.865Z</time></trkpt><trkpt lat="21.792028143221867" lon="-102.52210083679027"><ele>2025.0</ele><time>2026-03-22T15:44:14.865Z</time></trkpt><trkpt lat="21.792016897385746" lon="-102.52200874760479"><ele>2025.0</ele><time>2026-03-22T15:44:15.865Z</time></trkpt><trkpt lat="21.792004269002515" lon="-102.52191320762567"><ele>2025.0</ele><time>2026-03-22T15:44:16.864Z</time></trkpt><trkpt lat="21.791993745871228" lon="-102.52181447758373"><ele>2025.0</ele><time>2026-03-22T15:44:17.864Z</time></trkpt><trkpt lat="21.791983595744846" lon="-102.52171743755099"><ele>2025.1666666666667</ele><time>2026-03-22T15:44:18.864Z</time></trkpt><trkpt lat="21.791974293486806" lon="-102.52162430218044"><ele>2025.3333333333335</ele><time>2026-03-22T15:44:19.864Z</time></trkpt><trkpt lat="21.791964784699974" lon="-102.52153212777313"><ele>2025.5</ele><time>2026-03-22T15:44:20.864Z</time></trkpt><trkpt lat="21.791955177055833" lon="-102.52144055665836"><ele>2025.6666666666667</ele><time>2026-03-22T15:44:21.864Z</time></trkpt><trkpt lat="21.79194291134052" lon="-102.52135462555398"><ele>2025.8333333333335</ele><time>2026-03-22T15:44:22.864Z</time></trkpt><trkpt lat="21.79193224239756" lon="-102.52126952043822"><ele>2026.0</ele><time>2026-03-22T15:44:23.864Z</time></trkpt><trkpt lat="21.791928676424305" lon="-102.52118718599576"><ele>2026.7142857142858</ele><time>2026-03-22T15:44:24.864Z</time></trkpt><trkpt lat="21.7919176249556" lon="-102.5211026655846"><ele>2027.4285714285716</ele><time>2026-03-22T15:44:25.864Z</time></trkpt><trkpt lat="21.791911169744047" lon="-102.5210218563426"><ele>2028.1428571428573</ele><time>2026-03-22T15:44:26.864Z</time></trkpt><trkpt lat="21.791903384521085" lon="-102.5209455108288"><ele>2028.8571428571431</ele><time>2026-03-22T15:44:27.864Z</time></trkpt><trkpt lat="21.791894204658913" lon="-102.5208677528459"><ele>2029.5714285714287</ele><time>2026-03-22T15:44:28.864Z</time></trkpt><trkpt lat="21.791886847500002" lon="-102.52078912856274"><ele>2030.2857142857147</ele><time>2026-03-22T15:44:29.864Z</time></trkpt><trkpt lat="21.791881173208814" lon="-102.52071144909712"><ele>2031.0000000000002</ele><time>2026-03-22T15:44:30.864Z</time></trkpt><trkpt lat="21.791870498932592" lon="-102.52063136161084"><ele>2031.0</ele><time>2026-03-22T15:44:31.864Z</time></trkpt><trkpt lat="21.79186189400289" lon="-102.52055338722951"><ele>2031.0</ele><time>2026-03-22T15:44:32.864Z</time></trkpt><trkpt lat="21.79185209340308" lon="-102.5204017207709"><ele>2031.0</ele><time>2026-03-22T15:44:34.864Z</time></trkpt><trkpt lat="21.791842469203935" lon="-102.52033296237495"><ele>2031.0</ele><time>2026-03-22T15:44:35.864Z</time></trkpt><trkpt lat="21.791833072626723" lon="-102.52025789191275"><ele>2031.0</ele><time>2026-03-22T15:44:36.864Z</time></trkpt><trkpt lat="21.7918244621057" lon="-102.52018199236431"><ele>2031.0</ele><time>2026-03-22T15:44:37.864Z</time></trkpt><trkpt lat="21.791815850027152" lon="-102.52009226116887"><ele>2031.1428571428573</ele><time>2026-03-22T15:44:38.864Z</time></trkpt><trkpt lat="21.791803618345757" lon="-102.52001338588002"><ele>2031.2857142857142</ele><time>2026-03-22T15:44:39.864Z</time></trkpt><trkpt lat="21.79179293914459" lon="-102.51993406641654"><ele>2031.4285714285716</ele><time>2026-03-22T15:44:40.864Z</time></trkpt><trkpt lat="21.79178311887156" lon="-102.51986036514657"><ele>2031.5714285714287</ele><time>2026-03-22T15:44:41.864Z</time></trkpt><trkpt lat="21.791767556975778" lon="-102.51977697665987"><ele>2031.7142857142858</ele><time>2026-03-22T15:44:42.864Z</time></trkpt><trkpt lat="21.79175282093521" lon="-102.51970016429124"><ele>2031.857142857143</ele><time>2026-03-22T15:44:43.864Z</time></trkpt><trkpt lat="21.791734838043684" lon="-102.51962773112427"><ele>2032.0</ele><time>2026-03-22T15:44:44.864Z</time></trkpt><trkpt lat="21.791712989388" lon="-102.51955855849242"><ele>2032.0</ele><time>2026-03-22T15:44:45.864Z</time></trkpt><trkpt lat="21.791686388963512" lon="-102.51949494244492"><ele>2032.0</ele><time>2026-03-22T15:44:46.864Z</time></trkpt><trkpt lat="21.791653587672794" lon="-102.51942779042123"><ele>2032.0</ele><time>2026-03-22T15:44:47.864Z</time></trkpt><trkpt lat="21.791622550102854" lon="-102.51936433996195"><ele>2032.0</ele><time>2026-03-22T15:44:48.864Z</time></trkpt><trkpt lat="21.791586134377447" lon="-102.51930214047974"><ele>2032.0</ele><time>2026-03-22T15:44:49.864Z</time></trkpt><trkpt lat="21.791544592970432" lon="-102.51924659881008"><ele>2032.0</ele><time>2026-03-22T15:44:50.864Z</time></trkpt><trkpt lat="21.791496797814112" lon="-102.51919901947015"><ele>2032.0</ele><time>2026-03-22T15:44:51.864Z</time></trkpt><trkpt lat="21.791447697990126" lon="-102.51914627251793"><ele>2032.0000000000002</ele><time>2026-03-22T15:44:52.864Z</time></trkpt><trkpt lat="21.79139579556822" lon="-102.519099005475"><ele>2032.0</ele><time>2026-03-22T15:44:53.863Z</time></trkpt><trkpt lat="21.79134523070081" lon="-102.51905502147484"><ele>2032.0</ele><time>2026-03-22T15:44:54.864Z</time></trkpt><trkpt lat="21.79124077547675" lon="-102.51898475112736"><ele>2032.0</ele><time>2026-03-22T15:44:56.865Z</time></trkpt><trkpt lat="21.79118042394106" lon="-102.5189592105106"><ele>2032.0000000000002</ele><time>2026-03-22T15:44:57.865Z</time></trkpt><trkpt lat="21.791074269825966" lon="-102.51891793063179"><ele>2032.0</ele><time>2026-03-22T15:44:59.864Z</time></trkpt><trkpt lat="21.79096309604413" lon="-102.51886863102547"><ele>2031.8</ele><time>2026-03-22T15:45:01.865Z</time></trkpt><trkpt lat="21.790857635054262" lon="-102.51883922834799"><ele>2031.6</ele><time>2026-03-22T15:45:03.864Z</time></trkpt><trkpt lat="21.790793325585163" lon="-102.51882439729722"><ele>2031.3999999999999</ele><time>2026-03-22T15:45:04.864Z</time></trkpt><trkpt lat="21.790687729562727" lon="-102.51879183401718"><ele>2031.1999999999998</ele><time>2026-03-22T15:45:06.865Z</time></trkpt><trkpt lat="21.79058311642608" lon="-102.51875705187234"><ele>2031.0</ele><time>2026-03-22T15:45:08.864Z</time></trkpt><trkpt lat="21.790476927940734" lon="-102.51873545690638"><ele>2032.6</ele><time>2026-03-22T15:45:10.864Z</time></trkpt><trkpt lat="21.790371859851252" lon="-102.51870439960261"><ele>2034.1999999999998</ele><time>2026-03-22T15:45:12.864Z</time></trkpt><trkpt lat="21.79026088479725" lon="-102.51867209860531"><ele>2035.8000000000002</ele><time>2026-03-22T15:45:14.864Z</time></trkpt><trkpt lat="21.790159694399954" lon="-102.5186357508971"><ele>2037.4</ele><time>2026-03-22T15:45:16.864Z</time></trkpt><trkpt lat="21.790053190749703" lon="-102.51860523166988"><ele>2039.0</ele><time>2026-03-22T15:45:18.864Z</time></trkpt><trkpt lat="21.78994105268196" lon="-102.51857442291136"><ele>2039.2</ele><time>2026-03-22T15:45:20.864Z</time></trkpt><trkpt lat="21.789877620779265" lon="-102.51855515798971"><ele>2039.4</ele><time>2026-03-22T15:45:21.864Z</time></trkpt><trkpt lat="21.78975661044251" lon="-102.51851458611154"><ele>2039.6</ele><time>2026-03-22T15:45:23.864Z</time></trkpt><trkpt lat="21.789639107264904" lon="-102.51847263845174"><ele>2039.8</ele><time>2026-03-22T15:45:25.864Z</time></trkpt><trkpt lat="21.789577106715434" lon="-102.51845544259606"><ele>2040.0</ele><time>2026-03-22T15:45:26.864Z</time></trkpt><trkpt lat="21.78947353719913" lon="-102.51841705660564"><ele>2040.0</ele><time>2026-03-22T15:45:28.864Z</time></trkpt><trkpt lat="21.789357810319117" lon="-102.51838254749177"><ele>2040.0</ele><time>2026-03-22T15:45:30.864Z</time></trkpt><trkpt lat="21.78929331991733" lon="-102.5183677141383"><ele>2040.0</ele><time>2026-03-22T15:45:31.864Z</time></trkpt><trkpt lat="21.7892291537391" lon="-102.51834614802256"><ele>2040.0</ele><time>2026-03-22T15:45:32.864Z</time></trkpt><trkpt lat="21.789162695287168" lon="-102.51832663249061"><ele>2040.0</ele><time>2026-03-22T15:45:33.864Z</time></trkpt><trkpt lat="21.78909824334813" lon="-102.51830570748731"><ele>2040.0</ele><time>2026-03-22T15:45:34.864Z</time></trkpt><trkpt lat="21.789034916611424" lon="-102.51828723541198"><ele>2040.1428571428573</ele><time>2026-03-22T15:45:35.864Z</time></trkpt><trkpt lat="21.788969822059443" lon="-102.51826720769486"><ele>2040.2857142857144</ele><time>2026-03-22T15:45:36.864Z</time></trkpt><trkpt lat="21.78890627112885" lon="-102.51824788586796"><ele>2040.4285714285716</ele><time>2026-03-22T15:45:37.863Z</time></trkpt><trkpt lat="21.788834279416523" lon="-102.51822582731324"><ele>2040.5714285714284</ele><time>2026-03-22T15:45:38.863Z</time></trkpt><trkpt lat="21.788767183029712" lon="-102.51821389082592"><ele>2040.7142857142856</ele><time>2026-03-22T15:45:39.863Z</time></trkpt><trkpt lat="21.78870135525319" lon="-102.51820444053138"><ele>2040.8571428571427</ele><time>2026-03-22T15:45:40.863Z</time></trkpt><trkpt lat="21.788631264812434" lon="-102.51818643941888"><ele>2041.0</ele><time>2026-03-22T15:45:41.863Z</time></trkpt><trkpt lat="21.788562696612377" lon="-102.51817381285122"><ele>2040.8333333333335</ele><time>2026-03-22T15:45:42.863Z</time></trkpt><trkpt lat="21.78848892771538" lon="-102.51816194037843"><ele>2040.6666666666667</ele><time>2026-03-22T15:45:43.863Z</time></trkpt><trkpt lat="21.78841250118815" lon="-102.51814471704358"><ele>2040.5</ele><time>2026-03-22T15:45:44.863Z</time></trkpt><trkpt lat="21.788339076075804" lon="-102.51813522995317"><ele>2040.3333333333335</ele><time>2026-03-22T15:45:45.863Z</time></trkpt><trkpt lat="21.78825787401312" lon="-102.5181254104481"><ele>2040.1666666666667</ele><time>2026-03-22T15:45:46.863Z</time></trkpt><trkpt lat="21.788172668365263" lon="-102.51811586397906"><ele>2040.0</ele><time>2026-03-22T15:45:47.863Z</time></trkpt><trkpt lat="21.78808853503702" lon="-102.51811319366168"><ele>2040.0</ele><time>2026-03-22T15:45:48.863Z</time></trkpt><trkpt lat="21.787994801766256" lon="-102.51810661601799"><ele>2040.0</ele><time>2026-03-22T15:45:49.863Z</time></trkpt><trkpt lat="21.78790310549536" lon="-102.51810398014936"><ele>2040.0</ele><time>2026-03-22T15:45:50.863Z</time></trkpt><trkpt lat="21.787810221879695" lon="-102.51810170626929"><ele>2040.0</ele><time>2026-03-22T15:45:51.863Z</time></trkpt><trkpt lat="21.787713159983447" lon="-102.51809537681827"><ele>2040.0</ele><time>2026-03-22T15:45:52.863Z</time></trkpt><trkpt lat="21.787623297787754" lon="-102.51809634692725"><ele>2039.6</ele><time>2026-03-22T15:45:53.863Z</time></trkpt><trkpt lat="21.787524666978474" lon="-102.51809101184716"><ele>2039.2</ele><time>2026-03-22T15:45:54.863Z</time></trkpt><trkpt lat="21.78741749438251" lon="-102.51809463961757"><ele>2038.8000000000002</ele><time>2026-03-22T15:45:55.863Z</time></trkpt><trkpt lat="21.78731704450531" lon="-102.51809284363691"><ele>2038.4</ele><time>2026-03-22T15:45:56.863Z</time></trkpt><trkpt lat="21.787212712951323" lon="-102.51809514141785"><ele>2038.0</ele><time>2026-03-22T15:45:57.863Z</time></trkpt><trkpt lat="21.787110830238017" lon="-102.51809743230986"><ele>2038.0</ele><time>2026-03-22T15:45:58.863Z</time></trkpt><trkpt lat="21.787005703521537" lon="-102.51810190166795"><ele>2038.0000000000002</ele><time>2026-03-22T15:45:59.863Z</time></trkpt><trkpt lat="21.786897059931853" lon="-102.51810207185008"><ele>2038.0000000000002</ele><time>2026-03-22T15:46:00.863Z</time></trkpt><trkpt lat="21.786793368074395" lon="-102.51810061102083"><ele>2038.0</ele><time>2026-03-22T15:46:01.863Z</time></trkpt><trkpt lat="21.78668917647863" lon="-102.51809957827948"><ele>2038.0</ele><time>2026-03-22T15:46:02.863Z</time></trkpt><trkpt lat="21.786589016387204" lon="-102.51809809467304"><ele>2038.0</ele><time>2026-03-22T15:46:03.863Z</time></trkpt><trkpt lat="21.78648652414922" lon="-102.51809624002617"><ele>2038.0000000000002</ele><time>2026-03-22T15:46:04.863Z</time></trkpt><trkpt lat="21.786382893875896" lon="-102.51809493642446"><ele>2038.0000000000002</ele><time>2026-03-22T15:46:05.863Z</time></trkpt><trkpt lat="21.78628211959497" lon="-102.51809394113461"><ele>2038.0</ele><time>2026-03-22T15:46:06.863Z</time></trkpt><trkpt lat="21.7861832115157" lon="-102.51809712153485"><ele>2038.0</ele><time>2026-03-22T15:46:07.863Z</time></trkpt><trkpt lat="21.786083810237812" lon="-102.51809767624849"><ele>2037.4</ele><time>2026-03-22T15:46:08.863Z</time></trkpt><trkpt lat="21.78598314158716" lon="-102.5181000708955"><ele>2036.8000000000002</ele><time>2026-03-22T15:46:09.863Z</time></trkpt><trkpt lat="21.785881575987116" lon="-102.51810050550876"><ele>2036.2</ele><time>2026-03-22T15:46:10.863Z</time></trkpt><trkpt lat="21.785776646910797" lon="-102.51810080698276"><ele>2035.6</ele><time>2026-03-22T15:46:11.863Z</time></trkpt><trkpt lat="21.78567155198845" lon="-102.5180965937286"><ele>2035.0</ele><time>2026-03-22T15:46:12.863Z</time></trkpt><trkpt lat="21.78556590156891" lon="-102.51809461001254"><ele>2035.0</ele><time>2026-03-22T15:46:13.863Z</time></trkpt><trkpt lat="21.785460131678004" lon="-102.51809833264763"><ele>2035.0</ele><time>2026-03-22T15:46:14.862Z</time></trkpt><trkpt lat="21.78535570511959" lon="-102.5180993561132"><ele>2035.0</ele><time>2026-03-22T15:46:15.862Z</time></trkpt><trkpt lat="21.78525125215426" lon="-102.51809815183937"><ele>2035.0</ele><time>2026-03-22T15:46:16.862Z</time></trkpt><trkpt lat="21.78515027052298" lon="-102.51809424748714"><ele>2035.0</ele><time>2026-03-22T15:46:17.862Z</time></trkpt><trkpt lat="21.785051069940817" lon="-102.51808244398482"><ele>2035.4</ele><time>2026-03-22T15:46:18.862Z</time></trkpt><trkpt lat="21.784951870164537" lon="-102.5180691836092"><ele>2035.8</ele><time>2026-03-22T15:46:19.862Z</time></trkpt><trkpt lat="21.78485068178686" lon="-102.51805495135496"><ele>2036.1999999999998</ele><time>2026-03-22T15:46:20.862Z</time></trkpt><trkpt lat="21.784747063338795" lon="-102.51803320778338"><ele>2036.6</ele><time>2026-03-22T15:46:21.862Z</time></trkpt><trkpt lat="21.784641176832057" lon="-102.51800346512688"><ele>2037.0</ele><time>2026-03-22T15:46:22.862Z</time></trkpt><trkpt lat="21.78453276002284" lon="-102.51796897905085"><ele>2037.0</ele><time>2026-03-22T15:46:23.862Z</time></trkpt><trkpt lat="21.784421083876623" lon="-102.5179203511902"><ele>2037.0</ele><time>2026-03-22T15:46:24.862Z</time></trkpt><trkpt lat="21.78430673352179" lon="-102.51786761433918"><ele>2037.0</ele><time>2026-03-22T15:46:25.862Z</time></trkpt><trkpt lat="21.78418885052598" lon="-102.5178109472845"><ele>2037.0</ele><time>2026-03-22T15:46:26.862Z</time></trkpt><trkpt lat="21.784068055943717" lon="-102.51775325436908"><ele>2034.0</ele><time>2026-03-22T15:46:27.862Z</time></trkpt><trkpt lat="21.783947430679774" lon="-102.51769042903454"><ele>2031.0</ele><time>2026-03-22T15:46:28.862Z</time></trkpt><trkpt lat="21.783825458951455" lon="-102.51762330038726"><ele>2028.0</ele><time>2026-03-22T15:46:29.862Z</time></trkpt><trkpt lat="21.783701124063537" lon="-102.51755975401885"><ele>2025.0</ele><time>2026-03-22T15:46:30.862Z</time></trkpt><trkpt lat="21.783576587339567" lon="-102.51750102069228"><ele>2024.5</ele><time>2026-03-22T15:46:31.862Z</time></trkpt><trkpt lat="21.78345345938807" lon="-102.51743869653403"><ele>2024.0</ele><time>2026-03-22T15:46:32.862Z</time></trkpt><trkpt lat="21.783333090571116" lon="-102.51737968995427"><ele>2023.5</ele><time>2026-03-22T15:46:33.862Z</time></trkpt><trkpt lat="21.78320970306513" lon="-102.51733327174193"><ele>2023.0</ele><time>2026-03-22T15:46:34.862Z</time></trkpt><trkpt lat="21.783087701801787" lon="-102.51728517047339"><ele>2023.0</ele><time>2026-03-22T15:46:35.862Z</time></trkpt><trkpt lat="21.782966678886126" lon="-102.51724280573487"><ele>2023.0</ele><time>2026-03-22T15:46:36.862Z</time></trkpt><trkpt lat="21.782846356762295" lon="-102.51721794702604"><ele>2023.0</ele><time>2026-03-22T15:46:37.862Z</time></trkpt><trkpt lat="21.782720787181383" lon="-102.51720102505392"><ele>2023.0</ele><time>2026-03-22T15:46:38.862Z</time></trkpt><trkpt lat="21.782600802896336" lon="-102.51720398517655"><ele>2023.0</ele><time>2026-03-22T15:46:39.862Z</time></trkpt><trkpt lat="21.782489602797522" lon="-102.51721717642438"><ele>2023.0</ele><time>2026-03-22T15:46:40.862Z</time></trkpt><trkpt lat="21.782373552529897" lon="-102.51723419836688"><ele>2023.0</ele><time>2026-03-22T15:46:41.862Z</time></trkpt><trkpt lat="21.78225767914802" lon="-102.51725092136573"><ele>2023.0</ele><time>2026-03-22T15:46:42.862Z</time></trkpt><trkpt lat="21.782146392690418" lon="-102.5172530270276"><ele>2023.0</ele><time>2026-03-22T15:46:43.862Z</time></trkpt><trkpt lat="21.782047602678116" lon="-102.51721208402334"><ele>2023.0</ele><time>2026-03-22T15:46:44.862Z</time></trkpt><trkpt lat="21.781944073904477" lon="-102.51714507617166"><ele>2023.0</ele><time>2026-03-22T15:46:45.862Z</time></trkpt><trkpt lat="21.78186144087915" lon="-102.51705467776972"><ele>2023.0</ele><time>2026-03-22T15:46:46.862Z</time></trkpt><trkpt lat="21.781799702068454" lon="-102.51694286980252"><ele>2022.2</ele><time>2026-03-22T15:46:47.862Z</time></trkpt><trkpt lat="21.78176200243807" lon="-102.51683360873888"><ele>2021.4</ele><time>2026-03-22T15:46:48.862Z</time></trkpt><trkpt lat="21.781734888868492" lon="-102.51672017442769"><ele>2020.6000000000001</ele><time>2026-03-22T15:46:49.862Z</time></trkpt><trkpt lat="21.78169990845841" lon="-102.51661225149233"><ele>2019.8000000000002</ele><time>2026-03-22T15:46:50.862Z</time></trkpt><trkpt lat="21.78165708282059" lon="-102.516506251888"><ele>2019.0</ele><time>2026-03-22T15:46:51.862Z</time></trkpt><trkpt lat="21.7816217362102" lon="-102.51639790110022"><ele>2019.0</ele><time>2026-03-22T15:46:52.861Z</time></trkpt><trkpt lat="21.78158367018299" lon="-102.51629839073256"><ele>2019.0</ele><time>2026-03-22T15:46:53.861Z</time></trkpt><trkpt lat="21.781552721079635" lon="-102.51619983734837"><ele>2019.0</ele><time>2026-03-22T15:46:54.861Z</time></trkpt><trkpt lat="21.78153407025353" lon="-102.51609868109296"><ele>2019.0</ele><time>2026-03-22T15:46:55.861Z</time></trkpt><trkpt lat="21.781528951590023" lon="-102.51598748673074"><ele>2019.0</ele><time>2026-03-22T15:46:56.861Z</time></trkpt><trkpt lat="21.78154561899823" lon="-102.5158724974368"><ele>2018.75</ele><time>2026-03-22T15:46:57.861Z</time></trkpt><trkpt lat="21.781579729056936" lon="-102.51576070430313"><ele>2018.5</ele><time>2026-03-22T15:46:58.861Z</time></trkpt><trkpt lat="21.781633612887635" lon="-102.51564651916784"><ele>2018.25</ele><time>2026-03-22T15:46:59.861Z</time></trkpt><trkpt lat="21.78170570934939" lon="-102.5155475533799"><ele>2018.0</ele><time>2026-03-22T15:47:00.863Z</time></trkpt><trkpt lat="21.781795297800667" lon="-102.515464446341"><ele>2019.25</ele><time>2026-03-22T15:47:01.862Z</time></trkpt><trkpt lat="21.781908564177627" lon="-102.51540889907712"><ele>2020.5</ele><time>2026-03-22T15:47:02.862Z</time></trkpt><trkpt lat="21.782036675822983" lon="-102.51538294765218"><ele>2021.75</ele><time>2026-03-22T15:47:03.862Z</time></trkpt><trkpt lat="21.782157421600683" lon="-102.5153525769865"><ele>2023.0</ele><time>2026-03-22T15:47:04.862Z</time></trkpt><trkpt lat="21.782282844680857" lon="-102.51531988271694"><ele>2022.75</ele><time>2026-03-22T15:47:05.862Z</time></trkpt><trkpt lat="21.782405246048395" lon="-102.51527632654279"><ele>2022.5</ele><time>2026-03-22T15:47:06.862Z</time></trkpt><trkpt lat="21.782523242091326" lon="-102.51523515935096"><ele>2022.25</ele><time>2026-03-22T15:47:07.862Z</time></trkpt><trkpt lat="21.78262554539866" lon="-102.51516394305476"><ele>2022.0</ele><time>2026-03-22T15:47:08.862Z</time></trkpt><trkpt lat="21.782704152593432" lon="-102.51507423787189"><ele>2022.0</ele><time>2026-03-22T15:47:09.862Z</time></trkpt><trkpt lat="21.78274569833149" lon="-102.514944560519"><ele>2022.0</ele><time>2026-03-22T15:47:10.862Z</time></trkpt><trkpt lat="21.782729098985904" lon="-102.5148090848317"><ele>2022.0</ele><time>2026-03-22T15:47:11.862Z</time></trkpt><trkpt lat="21.78265720448385" lon="-102.51467971332069"><ele>2022.0</ele><time>2026-03-22T15:47:12.862Z</time></trkpt><trkpt lat="21.782551528188044" lon="-102.51459002670451"><ele>2021.0</ele><time>2026-03-22T15:47:13.863Z</time></trkpt><trkpt lat="21.78243236688557" lon="-102.51454287856342"><ele>2020.0</ele><time>2026-03-22T15:47:14.863Z</time></trkpt><trkpt lat="21.78229624733966" lon="-102.5145156851916"><ele>2019.0</ele><time>2026-03-22T15:47:15.863Z</time></trkpt><trkpt lat="21.782163319450397" lon="-102.51450028993435"><ele>2018.0</ele><time>2026-03-22T15:47:16.863Z</time></trkpt><trkpt lat="21.78203104226826" lon="-102.51449375390015"><ele>2018.0</ele><time>2026-03-22T15:47:17.863Z</time></trkpt><trkpt lat="21.7818943130974" lon="-102.5144796427866"><ele>2018.0</ele><time>2026-03-22T15:47:18.862Z</time></trkpt><trkpt lat="21.781757767008003" lon="-102.51444806510403"><ele>2018.0</ele><time>2026-03-22T15:47:19.862Z</time></trkpt><trkpt lat="21.781623758455527" lon="-102.51441023793795"><ele>2018.0</ele><time>2026-03-22T15:47:20.862Z</time></trkpt><trkpt lat="21.781487220346342" lon="-102.51436480419994"><ele>2017.25</ele><time>2026-03-22T15:47:21.864Z</time></trkpt><trkpt lat="21.781354730164303" lon="-102.51432303440914"><ele>2016.5</ele><time>2026-03-22T15:47:22.865Z</time></trkpt><trkpt lat="21.78122100780695" lon="-102.5142840764864"><ele>2015.75</ele><time>2026-03-22T15:47:23.867Z</time></trkpt><trkpt lat="21.781084472758845" lon="-102.51424180002132"><ele>2015.0</ele><time>2026-03-22T15:47:24.868Z</time></trkpt><trkpt lat="21.780951243631606" lon="-102.5142056022103"><ele>2011.75</ele><time>2026-03-22T15:47:25.87Z</time></trkpt><trkpt lat="21.78082215053761" lon="-102.51416734152762"><ele>2008.5</ele><time>2026-03-22T15:47:26.871Z</time></trkpt><trkpt lat="21.7806950137145" lon="-102.51411687498977"><ele>2005.25</ele><time>2026-03-22T15:47:27.872Z</time></trkpt><trkpt lat="21.780580356596523" lon="-102.51405272189447"><ele>2002.0</ele><time>2026-03-22T15:47:28.873Z</time></trkpt><trkpt lat="21.780471454981015" lon="-102.51397558884953"><ele>2002.0</ele><time>2026-03-22T15:47:29.874Z</time></trkpt><trkpt lat="21.780371331483728" lon="-102.51388105178965"><ele>2002.0</ele><time>2026-03-22T15:47:30.875Z</time></trkpt><trkpt lat="21.78027171219741" lon="-102.51378470513204"><ele>2002.0</ele><time>2026-03-22T15:47:31.876Z</time></trkpt><trkpt lat="21.780177927960747" lon="-102.5136897488122"><ele>2002.0</ele><time>2026-03-22T15:47:32.877Z</time></trkpt><trkpt lat="21.780078133568598" lon="-102.51360110375923"><ele>2002.75</ele><time>2026-03-22T15:47:33.878Z</time></trkpt><trkpt lat="21.779968395747947" lon="-102.51352469987529"><ele>2003.5</ele><time>2026-03-22T15:47:34.879Z</time></trkpt><trkpt lat="21.779847661299506" lon="-102.51347169508213"><ele>2004.25</ele><time>2026-03-22T15:47:35.879Z</time></trkpt><trkpt lat="21.779732147700727" lon="-102.51342740345076"><ele>2005.0</ele><time>2026-03-22T15:47:36.88Z</time></trkpt><trkpt lat="21.779603244860265" lon="-102.51338757303722"><ele>2005.0</ele><time>2026-03-22T15:47:37.881Z</time></trkpt><trkpt lat="21.779483951302495" lon="-102.51334810889418"><ele>2005.0</ele><time>2026-03-22T15:47:38.881Z</time></trkpt><trkpt lat="21.779368823883022" lon="-102.51330285485045"><ele>2005.0</ele><time>2026-03-22T15:47:39.882Z</time></trkpt><trkpt lat="21.77924991898695" lon="-102.51325780143516"><ele>2005.0</ele><time>2026-03-22T15:47:40.882Z</time></trkpt><trkpt lat="21.779136596720356" lon="-102.51321459998515"><ele>2002.0</ele><time>2026-03-22T15:47:41.883Z</time></trkpt><trkpt lat="21.779020027408208" lon="-102.51316990709218"><ele>1999.0</ele><time>2026-03-22T15:47:42.883Z</time></trkpt><trkpt lat="21.778904851579718" lon="-102.51313287433808"><ele>1996.0</ele><time>2026-03-22T15:47:43.884Z</time></trkpt><trkpt lat="21.778789945164856" lon="-102.51309744003431"><ele>1993.0</ele><time>2026-03-22T15:47:44.884Z</time></trkpt><trkpt lat="21.778677193713538" lon="-102.5130573583621"><ele>1993.0</ele><time>2026-03-22T15:47:45.884Z</time></trkpt><trkpt lat="21.778559823996876" lon="-102.51301471191033"><ele>1993.0</ele><time>2026-03-22T15:47:46.885Z</time></trkpt><trkpt lat="21.778443407296052" lon="-102.51297275718937"><ele>1993.0</ele><time>2026-03-22T15:47:47.885Z</time></trkpt><trkpt lat="21.77832728086082" lon="-102.51293361870447"><ele>1993.0</ele><time>2026-03-22T15:47:48.885Z</time></trkpt><trkpt lat="21.77821201735851" lon="-102.5128895030906"><ele>1991.5</ele><time>2026-03-22T15:47:49.886Z</time></trkpt><trkpt lat="21.77809170142805" lon="-102.51284921400568"><ele>1990.0</ele><time>2026-03-22T15:47:50.886Z</time></trkpt><trkpt lat="21.777974435750224" lon="-102.5128093418702"><ele>1988.5</ele><time>2026-03-22T15:47:51.886Z</time></trkpt><trkpt lat="21.777856452155472" lon="-102.51276916031554"><ele>1987.0</ele><time>2026-03-22T15:47:52.887Z</time></trkpt><trkpt lat="21.777736559307147" lon="-102.51272903714826"><ele>1987.0</ele><time>2026-03-22T15:47:53.887Z</time></trkpt><trkpt lat="21.777611735470227" lon="-102.51268842923899"><ele>1987.0</ele><time>2026-03-22T15:47:54.887Z</time></trkpt><trkpt lat="21.77748742468677" lon="-102.51264129770243"><ele>1987.0</ele><time>2026-03-22T15:47:55.887Z</time></trkpt><trkpt lat="21.777362299480103" lon="-102.51259966036413"><ele>1987.0</ele><time>2026-03-22T15:47:56.887Z</time></trkpt><trkpt lat="21.777234867276267" lon="-102.51256383118641"><ele>1987.0</ele><time>2026-03-22T15:47:57.887Z</time></trkpt><trkpt lat="21.777101200832945" lon="-102.51253430460932"><ele>1987.0</ele><time>2026-03-22T15:47:58.888Z</time></trkpt><trkpt lat="21.77696874618791" lon="-102.51251812383563"><ele>1987.0</ele><time>2026-03-22T15:47:59.888Z</time></trkpt><trkpt lat="21.77683097523905" lon="-102.51250598368512"><ele>1987.0</ele><time>2026-03-22T15:48:00.888Z</time></trkpt><trkpt lat="21.776697886756534" lon="-102.51250221681728"><ele>1986.75</ele><time>2026-03-22T15:48:01.888Z</time></trkpt><trkpt lat="21.776560774059305" lon="-102.51249832032023"><ele>1986.5</ele><time>2026-03-22T15:48:02.888Z</time></trkpt><trkpt lat="21.776419053382597" lon="-102.51250239660624"><ele>1986.25</ele><time>2026-03-22T15:48:03.888Z</time></trkpt><trkpt lat="21.776276213038603" lon="-102.51250648428935"><ele>1986.0</ele><time>2026-03-22T15:48:04.888Z</time></trkpt><trkpt lat="21.776145277670157" lon="-102.51249917596819"><ele>1985.5</ele><time>2026-03-22T15:48:05.888Z</time></trkpt><trkpt lat="21.776009752944326" lon="-102.5124995397915"><ele>1985.0</ele><time>2026-03-22T15:48:06.888Z</time></trkpt><trkpt lat="21.77586184043081" lon="-102.51250874005297"><ele>1984.5</ele><time>2026-03-22T15:48:07.889Z</time></trkpt><trkpt lat="21.775727141272206" lon="-102.51251526743118"><ele>1984.0</ele><time>2026-03-22T15:48:08.889Z</time></trkpt><trkpt lat="21.775598006736836" lon="-102.51252491360773"><ele>1984.0</ele><time>2026-03-22T15:48:09.889Z</time></trkpt><trkpt lat="21.77545779814732" lon="-102.51252888467229"><ele>1984.0</ele><time>2026-03-22T15:48:10.889Z</time></trkpt><trkpt lat="21.775321897899296" lon="-102.51253420431333"><ele>1984.0</ele><time>2026-03-22T15:48:11.889Z</time></trkpt><trkpt lat="21.775186182910204" lon="-102.5125418205932"><ele>1984.0</ele><time>2026-03-22T15:48:12.889Z</time></trkpt><trkpt lat="21.77504888373012" lon="-102.51254833925499"><ele>1983.0</ele><time>2026-03-22T15:48:13.889Z</time></trkpt><trkpt lat="21.774916174241557" lon="-102.51254768766356"><ele>1982.0</ele><time>2026-03-22T15:48:14.889Z</time></trkpt><trkpt lat="21.77478119704778" lon="-102.51255558685853"><ele>1981.0</ele><time>2026-03-22T15:48:15.889Z</time></trkpt><trkpt lat="21.774646488656312" lon="-102.51256462737204"><ele>1980.0</ele><time>2026-03-22T15:48:16.889Z</time></trkpt><trkpt lat="21.77451120461466" lon="-102.51256839528615"><ele>1980.0</ele><time>2026-03-22T15:48:17.889Z</time></trkpt><trkpt lat="21.7743768631037" lon="-102.51257457309676"><ele>1980.0</ele><time>2026-03-22T15:48:18.889Z</time></trkpt><trkpt lat="21.774248062203707" lon="-102.51258207571954"><ele>1980.0</ele><time>2026-03-22T15:48:19.889Z</time></trkpt><trkpt lat="21.77411514255038" lon="-102.51258841124775"><ele>1980.0</ele><time>2026-03-22T15:48:20.889Z</time></trkpt><trkpt lat="21.77398472469249" lon="-102.51259972690458"><ele>1979.5</ele><time>2026-03-22T15:48:21.889Z</time></trkpt><trkpt lat="21.773853489899654" lon="-102.51260965703719"><ele>1979.0</ele><time>2026-03-22T15:48:22.889Z</time></trkpt><trkpt lat="21.773716399369082" lon="-102.51261754384326"><ele>1978.5</ele><time>2026-03-22T15:48:23.889Z</time></trkpt><trkpt lat="21.773578914362567" lon="-102.5126211843451"><ele>1978.0</ele><time>2026-03-22T15:48:24.889Z</time></trkpt><trkpt lat="21.77344063065282" lon="-102.51262792346637"><ele>1976.0</ele><time>2026-03-22T15:48:25.889Z</time></trkpt><trkpt lat="21.77329940153294" lon="-102.5126340562571"><ele>1974.0</ele><time>2026-03-22T15:48:26.889Z</time></trkpt><trkpt lat="21.773153592701043" lon="-102.51263830811256"><ele>1972.0</ele><time>2026-03-22T15:48:27.889Z</time></trkpt><trkpt lat="21.773015616304015" lon="-102.5126411166326"><ele>1970.0</ele><time>2026-03-22T15:48:28.889Z</time></trkpt><trkpt lat="21.772869360989446" lon="-102.5126532529516"><ele>1970.0</ele><time>2026-03-22T15:48:29.889Z</time></trkpt><trkpt lat="21.772732045500437" lon="-102.51266114715388"><ele>1970.0</ele><time>2026-03-22T15:48:30.889Z</time></trkpt><trkpt lat="21.772600603338187" lon="-102.51267054732416"><ele>1970.0</ele><time>2026-03-22T15:48:31.889Z</time></trkpt><trkpt lat="21.772464556150222" lon="-102.51267230192215"><ele>1970.0</ele><time>2026-03-22T15:48:32.889Z</time></trkpt><trkpt lat="21.772332105595872" lon="-102.51267721681441"><ele>1970.0</ele><time>2026-03-22T15:48:33.889Z</time></trkpt><trkpt lat="21.772197253941627" lon="-102.51268448613487"><ele>1970.0</ele><time>2026-03-22T15:48:34.889Z</time></trkpt><trkpt lat="21.7720650858914" lon="-102.51269506759105"><ele>1970.0</ele><time>2026-03-22T15:48:35.889Z</time></trkpt><trkpt lat="21.771936347487348" lon="-102.51270276426078"><ele>1970.0</ele><time>2026-03-22T15:48:36.889Z</time></trkpt><trkpt lat="21.771806662851965" lon="-102.51270701239176"><ele>1969.25</ele><time>2026-03-22T15:48:37.889Z</time></trkpt><trkpt lat="21.771677650236995" lon="-102.51271183832968"><ele>1968.5</ele><time>2026-03-22T15:48:38.889Z</time></trkpt><trkpt lat="21.77154615877688" lon="-102.51271778882827"><ele>1967.75</ele><time>2026-03-22T15:48:39.889Z</time></trkpt><trkpt lat="21.7714183559071" lon="-102.51272092988795"><ele>1967.0</ele><time>2026-03-22T15:48:40.889Z</time></trkpt><trkpt lat="21.771288260709746" lon="-102.51272769182833"><ele>1967.0</ele><time>2026-03-22T15:48:41.889Z</time></trkpt><trkpt lat="21.77116285557798" lon="-102.51273632632503"><ele>1967.0</ele><time>2026-03-22T15:48:42.889Z</time></trkpt><trkpt lat="21.77103008434211" lon="-102.51274305973216"><ele>1967.0</ele><time>2026-03-22T15:48:43.889Z</time></trkpt><trkpt lat="21.770899927092373" lon="-102.51274865475405"><ele>1967.0</ele><time>2026-03-22T15:48:44.889Z</time></trkpt><trkpt lat="21.770771254177543" lon="-102.51275499311812"><ele>1965.75</ele><time>2026-03-22T15:48:45.889Z</time></trkpt><trkpt lat="21.770644439144107" lon="-102.51276053938139"><ele>1964.5</ele><time>2026-03-22T15:48:46.889Z</time></trkpt><trkpt lat="21.770512438140845" lon="-102.51276712984037"><ele>1963.25</ele><time>2026-03-22T15:48:47.889Z</time></trkpt><trkpt lat="21.770380106210375" lon="-102.512772113336"><ele>1962.0</ele><time>2026-03-22T15:48:48.889Z</time></trkpt><trkpt lat="21.770245873564843" lon="-102.512778395248"><ele>1962.0</ele><time>2026-03-22T15:48:49.889Z</time></trkpt><trkpt lat="21.770120745069693" lon="-102.51278202420777"><ele>1962.0</ele><time>2026-03-22T15:48:50.889Z</time></trkpt><trkpt lat="21.769986787559066" lon="-102.51277913142953"><ele>1962.0</ele><time>2026-03-22T15:48:51.889Z</time></trkpt><trkpt lat="21.769865982607097" lon="-102.51279334908784"><ele>1962.0</ele><time>2026-03-22T15:48:52.889Z</time></trkpt><trkpt lat="21.769739539133223" lon="-102.51279073873651"><ele>1962.0</ele><time>2026-03-22T15:48:53.889Z</time></trkpt><trkpt lat="21.76961103114976" lon="-102.51280108847898"><ele>1962.0</ele><time>2026-03-22T15:48:54.889Z</time></trkpt><trkpt lat="21.769491213782914" lon="-102.51280399652387"><ele>1962.0</ele><time>2026-03-22T15:48:55.889Z</time></trkpt><trkpt lat="21.769350982936327" lon="-102.51280985755831"><ele>1962.0</ele><time>2026-03-22T15:48:56.889Z</time></trkpt><trkpt lat="21.76923132185058" lon="-102.51281794926417"><ele>1961.0</ele><time>2026-03-22T15:48:57.889Z</time></trkpt><trkpt lat="21.769102059712544" lon="-102.51282680115409"><ele>1960.0</ele><time>2026-03-22T15:48:58.889Z</time></trkpt><trkpt lat="21.768971500863515" lon="-102.51283792001155"><ele>1959.0</ele><time>2026-03-22T15:48:59.889Z</time></trkpt><trkpt lat="21.768845937121775" lon="-102.51284136083378"><ele>1958.0</ele><time>2026-03-22T15:49:00.889Z</time></trkpt><trkpt lat="21.768714838560918" lon="-102.51284436118753"><ele>1958.0</ele><time>2026-03-22T15:49:01.889Z</time></trkpt><trkpt lat="21.768584630938086" lon="-102.51284934745787"><ele>1958.0</ele><time>2026-03-22T15:49:02.889Z</time></trkpt><trkpt lat="21.76845267426661" lon="-102.51285592128842"><ele>1958.0</ele><time>2026-03-22T15:49:03.889Z</time></trkpt><trkpt lat="21.768325062209996" lon="-102.51286118740154"><ele>1958.0</ele><time>2026-03-22T15:49:04.889Z</time></trkpt><trkpt lat="21.76819508467717" lon="-102.51286916900357"><ele>1957.5</ele><time>2026-03-22T15:49:05.889Z</time></trkpt><trkpt lat="21.768066000788" lon="-102.5128769092278"><ele>1957.0</ele><time>2026-03-22T15:49:06.889Z</time></trkpt><trkpt lat="21.767934598417764" lon="-102.51288707397775"><ele>1956.5</ele><time>2026-03-22T15:49:07.89Z</time></trkpt><trkpt lat="21.767803343612346" lon="-102.51289173013444"><ele>1956.0</ele><time>2026-03-22T15:49:08.889Z</time></trkpt><trkpt lat="21.767678197760258" lon="-102.51289383543863"><ele>1956.0</ele><time>2026-03-22T15:49:09.889Z</time></trkpt><trkpt lat="21.767550650170353" lon="-102.51290076059173"><ele>1956.0</ele><time>2026-03-22T15:49:10.889Z</time></trkpt><trkpt lat="21.7674214204838" lon="-102.51290587396414"><ele>1956.0</ele><time>2026-03-22T15:49:11.889Z</time></trkpt><trkpt lat="21.7672912059608" lon="-102.5129110515061"><ele>1956.0</ele><time>2026-03-22T15:49:12.889Z</time></trkpt><trkpt lat="21.767163403337836" lon="-102.51291754986873"><ele>1956.0</ele><time>2026-03-22T15:49:13.889Z</time></trkpt><trkpt lat="21.767033958311018" lon="-102.51291392280046"><ele>1956.0</ele><time>2026-03-22T15:49:14.889Z</time></trkpt><trkpt lat="21.766918107443317" lon="-102.5128873709531"><ele>1956.0</ele><time>2026-03-22T15:49:15.889Z</time></trkpt><trkpt lat="21.76679629044068" lon="-102.51281465864861"><ele>1956.0</ele><time>2026-03-22T15:49:16.889Z</time></trkpt><trkpt lat="21.766693326040244" lon="-102.51272164733577"><ele>1955.5</ele><time>2026-03-22T15:49:17.889Z</time></trkpt><trkpt lat="21.766611406132835" lon="-102.51261491225821"><ele>1955.0</ele><time>2026-03-22T15:49:18.889Z</time></trkpt><trkpt lat="21.766559837899106" lon="-102.51247758654301"><ele>1954.5</ele><time>2026-03-22T15:49:19.889Z</time></trkpt><trkpt lat="21.766534089079194" lon="-102.51233466390421"><ele>1954.0</ele><time>2026-03-22T15:49:20.889Z</time></trkpt><trkpt lat="21.766532617042" lon="-102.51219519092211"><ele>1953.5</ele><time>2026-03-22T15:49:21.889Z</time></trkpt><trkpt lat="21.76654796056401" lon="-102.51205509724987"><ele>1953.0</ele><time>2026-03-22T15:49:22.889Z</time></trkpt><trkpt lat="21.7665879131637" lon="-102.51191650138672"><ele>1952.5</ele><time>2026-03-22T15:49:23.889Z</time></trkpt><trkpt lat="21.76661011815663" lon="-102.51179160013206"><ele>1952.0</ele><time>2026-03-22T15:49:24.889Z</time></trkpt><trkpt lat="21.766632359912624" lon="-102.51166053540813"><ele>1952.0</ele><time>2026-03-22T15:49:25.889Z</time></trkpt><trkpt lat="21.766657160134535" lon="-102.5115314427323"><ele>1952.0</ele><time>2026-03-22T15:49:26.889Z</time></trkpt><trkpt lat="21.76667958738586" lon="-102.51140379275765"><ele>1952.0</ele><time>2026-03-22T15:49:27.889Z</time></trkpt><trkpt lat="21.766699917595094" lon="-102.5112758874484"><ele>1952.0</ele><time>2026-03-22T15:49:28.889Z</time></trkpt><trkpt lat="21.766720602068954" lon="-102.5111501561991"><ele>1951.25</ele><time>2026-03-22T15:49:29.889Z</time></trkpt><trkpt lat="21.766735621815908" lon="-102.51102195977471"><ele>1950.5</ele><time>2026-03-22T15:49:30.889Z</time></trkpt><trkpt lat="21.766753920128878" lon="-102.51089344061602"><ele>1949.75</ele><time>2026-03-22T15:49:31.889Z</time></trkpt><trkpt lat="21.766779370929974" lon="-102.51076285476458"><ele>1949.0</ele><time>2026-03-22T15:49:32.889Z</time></trkpt><trkpt lat="21.76680074559545" lon="-102.51064276134476"><ele>1949.0</ele><time>2026-03-22T15:49:33.889Z</time></trkpt><trkpt lat="21.766824289059457" lon="-102.5105075541289"><ele>1949.0</ele><time>2026-03-22T15:49:34.889Z</time></trkpt><trkpt lat="21.76684469769114" lon="-102.5103705919881"><ele>1949.0</ele><time>2026-03-22T15:49:35.889Z</time></trkpt><trkpt lat="21.766865689324007" lon="-102.51023822802885"><ele>1949.0</ele><time>2026-03-22T15:49:36.889Z</time></trkpt><trkpt lat="21.766883785193013" lon="-102.51010979990552"><ele>1947.25</ele><time>2026-03-22T15:49:37.888Z</time></trkpt><trkpt lat="21.766902766212024" lon="-102.50997826940069"><ele>1945.5</ele><time>2026-03-22T15:49:38.888Z</time></trkpt><trkpt lat="21.7669231981791" lon="-102.50985245464823"><ele>1943.75</ele><time>2026-03-22T15:49:39.888Z</time></trkpt><trkpt lat="21.76694592863646" lon="-102.50972727160267"><ele>1942.0</ele><time>2026-03-22T15:49:40.888Z</time></trkpt><trkpt lat="21.766968898057527" lon="-102.50959907192204"><ele>1942.25</ele><time>2026-03-22T15:49:41.888Z</time></trkpt><trkpt lat="21.766989086524855" lon="-102.50947585466567"><ele>1942.5</ele><time>2026-03-22T15:49:42.888Z</time></trkpt><trkpt lat="21.767013469224512" lon="-102.50934756721658"><ele>1942.75</ele><time>2026-03-22T15:49:43.888Z</time></trkpt><trkpt lat="21.767034901770923" lon="-102.50922377140274"><ele>1943.0</ele><time>2026-03-22T15:49:44.888Z</time></trkpt><trkpt lat="21.767051957959566" lon="-102.50910874510353"><ele>1943.0</ele><time>2026-03-22T15:49:45.888Z</time></trkpt><trkpt lat="21.767072384942058" lon="-102.50899136097568"><ele>1943.0</ele><time>2026-03-22T15:49:46.888Z</time></trkpt><trkpt lat="21.76708985106566" lon="-102.50887033237613"><ele>1943.0</ele><time>2026-03-22T15:49:47.888Z</time></trkpt><trkpt lat="21.76711160703468" lon="-102.50874522418322"><ele>1943.0</ele><time>2026-03-22T15:49:48.888Z</time></trkpt><trkpt lat="21.76712822009071" lon="-102.50862132571272"><ele>1942.25</ele><time>2026-03-22T15:49:49.888Z</time></trkpt><trkpt lat="21.76714770140297" lon="-102.50849046550584"><ele>1941.5</ele><time>2026-03-22T15:49:50.888Z</time></trkpt><trkpt lat="21.767153105975307" lon="-102.50835740073758"><ele>1940.75</ele><time>2026-03-22T15:49:51.888Z</time></trkpt><trkpt lat="21.767142307419896" lon="-102.5082236775045"><ele>1940.0</ele><time>2026-03-22T15:49:52.888Z</time></trkpt><trkpt lat="21.767112127074682" lon="-102.50809120406102"><ele>1940.0</ele><time>2026-03-22T15:49:53.888Z</time></trkpt><trkpt lat="21.767061956471224" lon="-102.50795653707786"><ele>1940.0</ele><time>2026-03-22T15:49:54.888Z</time></trkpt><trkpt lat="21.767002172575406" lon="-102.50782925036664"><ele>1940.0</ele><time>2026-03-22T15:49:55.888Z</time></trkpt><trkpt lat="21.766921747542863" lon="-102.50771612626541"><ele>1940.0</ele><time>2026-03-22T15:49:56.888Z</time></trkpt><trkpt lat="21.76682293806041" lon="-102.50762091658191"><ele>1940.75</ele><time>2026-03-22T15:49:57.888Z</time></trkpt><trkpt lat="21.76671947164196" lon="-102.50751975131303"><ele>1941.5</ele><time>2026-03-22T15:49:58.888Z</time></trkpt><trkpt lat="21.766632665023863" lon="-102.5074119825466"><ele>1942.25</ele><time>2026-03-22T15:49:59.888Z</time></trkpt><trkpt lat="21.766545061806987" lon="-102.50730225261331"><ele>1943.0</ele><time>2026-03-22T15:50:00.888Z</time></trkpt><trkpt lat="21.76645650284023" lon="-102.50719818720042"><ele>1943.0</ele><time>2026-03-22T15:50:01.888Z</time></trkpt><trkpt lat="21.76637105323121" lon="-102.50709423888927"><ele>1943.0</ele><time>2026-03-22T15:50:02.888Z</time></trkpt><trkpt lat="21.76628439055852" lon="-102.50699573710429"><ele>1943.0</ele><time>2026-03-22T15:50:03.888Z</time></trkpt><trkpt lat="21.76620310102122" lon="-102.50689367919848"><ele>1943.0</ele><time>2026-03-22T15:50:04.888Z</time></trkpt><trkpt lat="21.76612373393375" lon="-102.50679694931586"><ele>1943.75</ele><time>2026-03-22T15:50:05.888Z</time></trkpt><trkpt lat="21.7660473808449" lon="-102.5066983620923"><ele>1944.5</ele><time>2026-03-22T15:50:06.888Z</time></trkpt><trkpt lat="21.76597124741634" lon="-102.50661008392908"><ele>1945.25</ele><time>2026-03-22T15:50:07.888Z</time></trkpt><trkpt lat="21.76589697559755" lon="-102.50652272643151"><ele>1946.0</ele><time>2026-03-22T15:50:08.888Z</time></trkpt><trkpt lat="21.765820151836202" lon="-102.50643223745513"><ele>1946.0</ele><time>2026-03-22T15:50:09.888Z</time></trkpt><trkpt lat="21.76574727353137" lon="-102.50634544856835"><ele>1946.0</ele><time>2026-03-22T15:50:10.888Z</time></trkpt><trkpt lat="21.76567265123926" lon="-102.50625800887076"><ele>1946.0</ele><time>2026-03-22T15:50:11.888Z</time></trkpt><trkpt lat="21.765602633279453" lon="-102.506167339029"><ele>1946.0</ele><time>2026-03-22T15:50:12.888Z</time></trkpt><trkpt lat="21.76552401406015" lon="-102.50607006884913"><ele>1946.0</ele><time>2026-03-22T15:50:13.888Z</time></trkpt><trkpt lat="21.7654458397982" lon="-102.50597468684757"><ele>1945.5</ele><time>2026-03-22T15:50:14.888Z</time></trkpt><trkpt lat="21.76536319579582" lon="-102.50588275991578"><ele>1945.0</ele><time>2026-03-22T15:50:15.888Z</time></trkpt><trkpt lat="21.765284727466696" lon="-102.50578899229309"><ele>1944.5</ele><time>2026-03-22T15:50:16.888Z</time></trkpt><trkpt lat="21.76520312137608" lon="-102.50569223852786"><ele>1944.0</ele><time>2026-03-22T15:50:17.888Z</time></trkpt><trkpt lat="21.765122333854872" lon="-102.50558713314295"><ele>1944.0</ele><time>2026-03-22T15:50:18.888Z</time></trkpt><trkpt lat="21.765035381831897" lon="-102.50548755699731"><ele>1944.0</ele><time>2026-03-22T15:50:19.888Z</time></trkpt><trkpt lat="21.764944669363505" lon="-102.50539001239694"><ele>1944.0</ele><time>2026-03-22T15:50:20.887Z</time></trkpt><trkpt lat="21.764859365986386" lon="-102.5052935636024"><ele>1944.0</ele><time>2026-03-22T15:50:21.887Z</time></trkpt><trkpt lat="21.76476687074788" lon="-102.50519004920596"><ele>1939.75</ele><time>2026-03-22T15:50:22.887Z</time></trkpt><trkpt lat="21.764680952118443" lon="-102.50508832149427"><ele>1935.5</ele><time>2026-03-22T15:50:23.887Z</time></trkpt><trkpt lat="21.764593923891443" lon="-102.50497670971674"><ele>1931.25</ele><time>2026-03-22T15:50:24.887Z</time></trkpt><trkpt lat="21.764504345781496" lon="-102.50486803161158"><ele>1927.0</ele><time>2026-03-22T15:50:25.887Z</time></trkpt><trkpt lat="21.764404303364724" lon="-102.504756669808"><ele>1926.75</ele><time>2026-03-22T15:50:26.887Z</time></trkpt><trkpt lat="21.764312220021996" lon="-102.50464084753662"><ele>1926.5</ele><time>2026-03-22T15:50:27.887Z</time></trkpt><trkpt lat="21.764221593895243" lon="-102.50452910535634"><ele>1926.25</ele><time>2026-03-22T15:50:28.887Z</time></trkpt><trkpt lat="21.764125276844148" lon="-102.50441414935396"><ele>1926.0</ele><time>2026-03-22T15:50:29.887Z</time></trkpt><trkpt lat="21.764028012900717" lon="-102.50430031774324"><ele>1926.0</ele><time>2026-03-22T15:50:30.887Z</time></trkpt><trkpt lat="21.763929866852852" lon="-102.50417901457607"><ele>1926.0</ele><time>2026-03-22T15:50:31.887Z</time></trkpt><trkpt lat="21.763834294918286" lon="-102.50405844015917"><ele>1926.0</ele><time>2026-03-22T15:50:32.887Z</time></trkpt><trkpt lat="21.76373595285798" lon="-102.50393674228852"><ele>1926.0</ele><time>2026-03-22T15:50:33.887Z</time></trkpt><trkpt lat="21.76363435917317" lon="-102.50381328436913"><ele>1923.6666666666665</ele><time>2026-03-22T15:50:34.887Z</time></trkpt><trkpt lat="21.76353243224383" lon="-102.50369536713943"><ele>1921.3333333333333</ele><time>2026-03-22T15:50:35.887Z</time></trkpt><trkpt lat="21.763428291678732" lon="-102.50357307618098"><ele>1919.0</ele><time>2026-03-22T15:50:36.887Z</time></trkpt><trkpt lat="21.763327651267925" lon="-102.50345010423594"><ele>1918.6666666666665</ele><time>2026-03-22T15:50:37.887Z</time></trkpt><trkpt lat="21.76322493920788" lon="-102.50332548294205"><ele>1918.3333333333335</ele><time>2026-03-22T15:50:38.887Z</time></trkpt><trkpt lat="21.763120306247444" lon="-102.5032013144329"><ele>1918.0</ele><time>2026-03-22T15:50:39.887Z</time></trkpt><trkpt lat="21.763015359255853" lon="-102.50308359661972"><ele>1918.0</ele><time>2026-03-22T15:50:40.887Z</time></trkpt><trkpt lat="21.76290998143252" lon="-102.50295843754749"><ele>1918.0</ele><time>2026-03-22T15:50:41.887Z</time></trkpt><trkpt lat="21.762805906860454" lon="-102.50283291158115"><ele>1918.0</ele><time>2026-03-22T15:50:42.887Z</time></trkpt><trkpt lat="21.76270581073884" lon="-102.50270176983899"><ele>1916.3333333333335</ele><time>2026-03-22T15:50:43.887Z</time></trkpt><trkpt lat="21.762594505771677" lon="-102.50257225084242"><ele>1914.6666666666665</ele><time>2026-03-22T15:50:44.887Z</time></trkpt><trkpt lat="21.762487131410722" lon="-102.50244526272499"><ele>1913.0</ele><time>2026-03-22T15:50:45.887Z</time></trkpt><trkpt lat="21.762381914195764" lon="-102.50231383411544"><ele>1913.0</ele><time>2026-03-22T15:50:46.887Z</time></trkpt><trkpt lat="21.76228179480433" lon="-102.50218852672315"><ele>1913.0</ele><time>2026-03-22T15:50:47.887Z</time></trkpt><trkpt lat="21.76218237428826" lon="-102.5020707603624"><ele>1913.0</ele><time>2026-03-22T15:50:48.887Z</time></trkpt><trkpt lat="21.762081721715354" lon="-102.5019548187372"><ele>1913.0</ele><time>2026-03-22T15:50:49.887Z</time></trkpt><trkpt lat="21.76198962235051" lon="-102.50184150573092"><ele>1913.25</ele><time>2026-03-22T15:50:50.887Z</time></trkpt><trkpt lat="21.761901085507468" lon="-102.50173551242435"><ele>1913.5</ele><time>2026-03-22T15:50:51.887Z</time></trkpt><trkpt lat="21.761812925472565" lon="-102.5016286567303"><ele>1913.75</ele><time>2026-03-22T15:50:52.887Z</time></trkpt><trkpt lat="21.761725336994537" lon="-102.50152463227596"><ele>1914.0</ele><time>2026-03-22T15:50:53.887Z</time></trkpt><trkpt lat="21.76164391152536" lon="-102.50142634343528"><ele>1913.0</ele><time>2026-03-22T15:50:54.887Z</time></trkpt><trkpt lat="21.761558993700344" lon="-102.50133080389266"><ele>1912.0</ele><time>2026-03-22T15:50:55.887Z</time></trkpt><trkpt lat="21.76147088979417" lon="-102.50123572667505"><ele>1911.0</ele><time>2026-03-22T15:50:56.887Z</time></trkpt><trkpt lat="21.76137880966895" lon="-102.50114223584225"><ele>1910.0</ele><time>2026-03-22T15:50:57.887Z</time></trkpt><trkpt lat="21.76129472743934" lon="-102.501058644"><ele>1910.4</ele><time>2026-03-22T15:50:58.887Z</time></trkpt><trkpt lat="21.76120754634223" lon="-102.50097825952645"><ele>1910.8</ele><time>2026-03-22T15:50:59.887Z</time></trkpt><trkpt lat="21.761116339760836" lon="-102.500906353498"><ele>1911.1999999999998</ele><time>2026-03-22T15:51:00.887Z</time></trkpt><trkpt lat="21.761031130834336" lon="-102.50083767860863"><ele>1911.6</ele><time>2026-03-22T15:51:01.887Z</time></trkpt><trkpt lat="21.7609463984139" lon="-102.50076903578037"><ele>1912.0</ele><time>2026-03-22T15:51:02.887Z</time></trkpt><trkpt lat="21.76086420114959" lon="-102.5007046661343"><ele>1912.0</ele><time>2026-03-22T15:51:03.886Z</time></trkpt><trkpt lat="21.76077904629348" lon="-102.50063577814419"><ele>1911.9999999999998</ele><time>2026-03-22T15:51:04.886Z</time></trkpt><trkpt lat="21.760699963953062" lon="-102.50056943839674"><ele>1911.9999999999998</ele><time>2026-03-22T15:51:05.886Z</time></trkpt><trkpt lat="21.76061836280681" lon="-102.50050431996159"><ele>1912.0</ele><time>2026-03-22T15:51:06.886Z</time></trkpt><trkpt lat="21.76054029670649" lon="-102.50043930735987"><ele>1912.0</ele><time>2026-03-22T15:51:07.886Z</time></trkpt><trkpt lat="21.760454657230163" lon="-102.50036876254654"><ele>1912.0</ele><time>2026-03-22T15:51:08.886Z</time></trkpt><trkpt lat="21.760368924595856" lon="-102.50030367490375"><ele>1911.9999999999998</ele><time>2026-03-22T15:51:09.886Z</time></trkpt><trkpt lat="21.760282063512285" lon="-102.50023452010413"><ele>1911.9999999999998</ele><time>2026-03-22T15:51:10.886Z</time></trkpt><trkpt lat="21.760199919338103" lon="-102.50016148119472"><ele>1912.0</ele><time>2026-03-22T15:51:11.886Z</time></trkpt><trkpt lat="21.760107382136717" lon="-102.5000910669623"><ele>1912.0</ele><time>2026-03-22T15:51:12.888Z</time></trkpt><trkpt lat="21.760014736545877" lon="-102.50002096567772"><ele>1912.0</ele><time>2026-03-22T15:51:13.887Z</time></trkpt><trkpt lat="21.759919982572594" lon="-102.49993979407233"><ele>1912.0</ele><time>2026-03-22T15:51:14.887Z</time></trkpt><trkpt lat="21.759826293556852" lon="-102.49987061839988"><ele>1912.0</ele><time>2026-03-22T15:51:15.887Z</time></trkpt><trkpt lat="21.7597323807786" lon="-102.4997938740761"><ele>1912.0</ele><time>2026-03-22T15:51:16.887Z</time></trkpt><trkpt lat="21.759632846815826" lon="-102.49971455694806"><ele>1912.0</ele><time>2026-03-22T15:51:17.887Z</time></trkpt><trkpt lat="21.75954670307128" lon="-102.499630984848"><ele>1912.0</ele><time>2026-03-22T15:51:18.887Z</time></trkpt><trkpt lat="21.759443825750374" lon="-102.49954800380517"><ele>1912.0</ele><time>2026-03-22T15:51:19.887Z</time></trkpt><trkpt lat="21.759349012452883" lon="-102.4994651028395"><ele>1912.0</ele><time>2026-03-22T15:51:20.887Z</time></trkpt><trkpt lat="21.759260754372775" lon="-102.49936897574588"><ele>1910.75</ele><time>2026-03-22T15:51:21.887Z</time></trkpt><trkpt lat="21.759182395508933" lon="-102.49927113233736"><ele>1909.5</ele><time>2026-03-22T15:51:22.887Z</time></trkpt><trkpt lat="21.759117022471845" lon="-102.49916272669435"><ele>1908.25</ele><time>2026-03-22T15:51:23.887Z</time></trkpt><trkpt lat="21.75906276345421" lon="-102.49904955789641"><ele>1907.0</ele><time>2026-03-22T15:51:24.887Z</time></trkpt><trkpt lat="21.759023859969666" lon="-102.49892794614237"><ele>1907.0</ele><time>2026-03-22T15:51:25.887Z</time></trkpt><trkpt lat="21.758995186065004" lon="-102.49880159036249"><ele>1906.9999999999998</ele><time>2026-03-22T15:51:26.887Z</time></trkpt><trkpt lat="21.758964578881866" lon="-102.49868242238978"><ele>1906.9999999999998</ele><time>2026-03-22T15:51:27.887Z</time></trkpt><trkpt lat="21.75894511000016" lon="-102.49857026147963"><ele>1907.0</ele><time>2026-03-22T15:51:28.887Z</time></trkpt><trkpt lat="21.758933759063208" lon="-102.49845617924235"><ele>1907.0</ele><time>2026-03-22T15:51:29.887Z</time></trkpt><trkpt lat="21.758934723377376" lon="-102.49834598347108"><ele>1907.6</ele><time>2026-03-22T15:51:30.887Z</time></trkpt><trkpt lat="21.75893588957215" lon="-102.49824150634619"><ele>1908.1999999999998</ele><time>2026-03-22T15:51:31.887Z</time></trkpt><trkpt lat="21.758933171990975" lon="-102.49813556532393"><ele>1908.8</ele><time>2026-03-22T15:51:32.887Z</time></trkpt><trkpt lat="21.758928272854817" lon="-102.498038289563"><ele>1909.4</ele><time>2026-03-22T15:51:33.887Z</time></trkpt><trkpt lat="21.758926823113423" lon="-102.49794379543401"><ele>1910.0</ele><time>2026-03-22T15:51:34.887Z</time></trkpt><trkpt lat="21.758924058574404" lon="-102.49784836893676"><ele>1910.6666666666665</ele><time>2026-03-22T15:51:35.887Z</time></trkpt><trkpt lat="21.75892278467896" lon="-102.49775395489557"><ele>1911.3333333333333</ele><time>2026-03-22T15:51:36.887Z</time></trkpt><trkpt lat="21.75891952708278" lon="-102.497655704639"><ele>1912.0</ele><time>2026-03-22T15:51:37.887Z</time></trkpt><trkpt lat="21.75891251425725" lon="-102.49755597729492"><ele>1912.6666666666665</ele><time>2026-03-22T15:51:38.887Z</time></trkpt><trkpt lat="21.75891154899073" lon="-102.4974637425971"><ele>1913.3333333333333</ele><time>2026-03-22T15:51:39.887Z</time></trkpt><trkpt lat="21.758912026302944" lon="-102.4973730586548"><ele>1914.0</ele><time>2026-03-22T15:51:40.887Z</time></trkpt><trkpt lat="21.758908201847362" lon="-102.49728439693736"><ele>1914.0</ele><time>2026-03-22T15:51:41.887Z</time></trkpt><trkpt lat="21.758906637141532" lon="-102.49719805446504"><ele>1914.0</ele><time>2026-03-22T15:51:42.887Z</time></trkpt><trkpt lat="21.758903387935067" lon="-102.497113307347"><ele>1914.0</ele><time>2026-03-22T15:51:43.887Z</time></trkpt><trkpt lat="21.758900382388408" lon="-102.49703607271907"><ele>1914.0</ele><time>2026-03-22T15:51:44.887Z</time></trkpt><trkpt lat="21.75889779389964" lon="-102.49695362802191"><ele>1914.0</ele><time>2026-03-22T15:51:45.887Z</time></trkpt><trkpt lat="21.758895098672255" lon="-102.49687309632645"><ele>1914.0</ele><time>2026-03-22T15:51:46.887Z</time></trkpt><trkpt lat="21.75889360542653" lon="-102.49678365856859"><ele>1914.3333333333333</ele><time>2026-03-22T15:51:47.887Z</time></trkpt><trkpt lat="21.75889089653836" lon="-102.49670166155975"><ele>1914.6666666666665</ele><time>2026-03-22T15:51:48.887Z</time></trkpt><trkpt lat="21.7588908639101" lon="-102.49661649843722"><ele>1915.0</ele><time>2026-03-22T15:51:49.887Z</time></trkpt><trkpt lat="21.758887815482286" lon="-102.49653247110533"><ele>1915.3333333333333</ele><time>2026-03-22T15:51:50.887Z</time></trkpt><trkpt lat="21.758887861739982" lon="-102.49644825835567"><ele>1915.6666666666665</ele><time>2026-03-22T15:51:51.887Z</time></trkpt><trkpt lat="21.75888564025248" lon="-102.49636641870333"><ele>1916.0</ele><time>2026-03-22T15:51:52.887Z</time></trkpt><trkpt lat="21.758885781848893" lon="-102.49628617925583"><ele>1915.8333333333333</ele><time>2026-03-22T15:51:53.887Z</time></trkpt><trkpt lat="21.7588821431554" lon="-102.49620368475234"><ele>1915.6666666666665</ele><time>2026-03-22T15:51:54.887Z</time></trkpt><trkpt lat="21.758878652031168" lon="-102.49611779802456"><ele>1915.5</ele><time>2026-03-22T15:51:55.887Z</time></trkpt><trkpt lat="21.758876784962773" lon="-102.49603142643595"><ele>1915.3333333333335</ele><time>2026-03-22T15:51:56.887Z</time></trkpt><trkpt lat="21.758875354894332" lon="-102.49594241707773"><ele>1915.1666666666667</ele><time>2026-03-22T15:51:57.887Z</time></trkpt><trkpt lat="21.75887123371754" lon="-102.49585198505282"><ele>1915.0</ele><time>2026-03-22T15:51:58.887Z</time></trkpt><trkpt lat="21.758867417011707" lon="-102.49576111221695"><ele>1915.0000000000002</ele><time>2026-03-22T15:51:59.887Z</time></trkpt><trkpt lat="21.7588665834617" lon="-102.49567526708329"><ele>1915.0</ele><time>2026-03-22T15:52:00.887Z</time></trkpt><trkpt lat="21.758863983519547" lon="-102.49558025197406"><ele>1915.0</ele><time>2026-03-22T15:52:01.887Z</time></trkpt><trkpt lat="21.758858663558495" lon="-102.49548877373938"><ele>1915.0</ele><time>2026-03-22T15:52:02.887Z</time></trkpt><trkpt lat="21.758855581966326" lon="-102.49539588938357"><ele>1915.0000000000002</ele><time>2026-03-22T15:52:03.887Z</time></trkpt><trkpt lat="21.758848218750703" lon="-102.49530709436797"><ele>1915.0</ele><time>2026-03-22T15:52:04.887Z</time></trkpt><trkpt lat="21.758836075091892" lon="-102.49521391701593"><ele>1914.8333333333335</ele><time>2026-03-22T15:52:05.887Z</time></trkpt><trkpt lat="21.75882217827338" lon="-102.49512541656374"><ele>1914.6666666666667</ele><time>2026-03-22T15:52:06.887Z</time></trkpt><trkpt lat="21.75880697979998" lon="-102.49503462737799"><ele>1914.5</ele><time>2026-03-22T15:52:07.887Z</time></trkpt><trkpt lat="21.758784977860746" lon="-102.49494270936499"><ele>1914.3333333333335</ele><time>2026-03-22T15:52:08.886Z</time></trkpt><trkpt lat="21.758760522561317" lon="-102.49485221776544"><ele>1914.1666666666667</ele><time>2026-03-22T15:52:09.886Z</time></trkpt><trkpt lat="21.758743515416704" lon="-102.49476359788069"><ele>1914.0</ele><time>2026-03-22T15:52:10.886Z</time></trkpt><trkpt lat="21.75872399488871" lon="-102.49466903598658"><ele>1914.1666666666667</ele><time>2026-03-22T15:52:11.886Z</time></trkpt><trkpt lat="21.75870101587039" lon="-102.49458045464827"><ele>1914.3333333333335</ele><time>2026-03-22T15:52:12.886Z</time></trkpt><trkpt lat="21.758673738225887" lon="-102.49448548745733"><ele>1914.5</ele><time>2026-03-22T15:52:13.886Z</time></trkpt><trkpt lat="21.758642040444364" lon="-102.49438979189631"><ele>1914.6666666666667</ele><time>2026-03-22T15:52:14.886Z</time></trkpt><trkpt lat="21.75861580232127" lon="-102.49430849253528"><ele>1914.8333333333335</ele><time>2026-03-22T15:52:15.886Z</time></trkpt><trkpt lat="21.758589690719326" lon="-102.49421666714895"><ele>1915.0</ele><time>2026-03-22T15:52:16.886Z</time></trkpt><trkpt lat="21.758562445452196" lon="-102.49412271461946"><ele>1915.0</ele><time>2026-03-22T15:52:17.886Z</time></trkpt><trkpt lat="21.75853463328389" lon="-102.49402862854265"><ele>1915.0</ele><time>2026-03-22T15:52:18.886Z</time></trkpt><trkpt lat="21.758503422677947" lon="-102.49392945676672"><ele>1915.0</ele><time>2026-03-22T15:52:19.886Z</time></trkpt><trkpt lat="21.75847186324886" lon="-102.49383710509215"><ele>1915.0</ele><time>2026-03-22T15:52:20.886Z</time></trkpt><trkpt lat="21.75843729287861" lon="-102.49373961424249"><ele>1915.0</ele><time>2026-03-22T15:52:21.886Z</time></trkpt><trkpt lat="21.758409811517847" lon="-102.49364431584104"><ele>1914.8</ele><time>2026-03-22T15:52:22.886Z</time></trkpt><trkpt lat="21.758378743459627" lon="-102.4935517217477"><ele>1914.6</ele><time>2026-03-22T15:52:23.886Z</time></trkpt><trkpt lat="21.758340550260908" lon="-102.49345453137362"><ele>1914.4</ele><time>2026-03-22T15:52:24.886Z</time></trkpt><trkpt lat="21.758310729335694" lon="-102.49336703039313"><ele>1914.2</ele><time>2026-03-22T15:52:25.886Z</time></trkpt><trkpt lat="21.758283234989563" lon="-102.4932701182629"><ele>1914.0</ele><time>2026-03-22T15:52:26.886Z</time></trkpt><trkpt lat="21.758252626803742" lon="-102.49318008874913"><ele>1914.0</ele><time>2026-03-22T15:52:27.886Z</time></trkpt><trkpt lat="21.758221585374258" lon="-102.49307777350418"><ele>1914.0</ele><time>2026-03-22T15:52:28.886Z</time></trkpt><trkpt lat="21.758186651589575" lon="-102.49297189834809"><ele>1914.0</ele><time>2026-03-22T15:52:29.886Z</time></trkpt><trkpt lat="21.75815739708533" lon="-102.49288005865401"><ele>1914.0</ele><time>2026-03-22T15:52:30.886Z</time></trkpt><trkpt lat="21.758128077894217" lon="-102.49278537645434"><ele>1914.0</ele><time>2026-03-22T15:52:31.886Z</time></trkpt><trkpt lat="21.758101329411478" lon="-102.49268189137901"><ele>1913.8000000000002</ele><time>2026-03-22T15:52:32.886Z</time></trkpt><trkpt lat="21.75807025920799" lon="-102.49258831264368"><ele>1913.6000000000001</ele><time>2026-03-22T15:52:33.886Z</time></trkpt><trkpt lat="21.758040542414825" lon="-102.49250242731745"><ele>1913.4</ele><time>2026-03-22T15:52:34.886Z</time></trkpt><trkpt lat="21.75801023674465" lon="-102.49239475072837"><ele>1913.2</ele><time>2026-03-22T15:52:35.886Z</time></trkpt><trkpt lat="21.757977911117358" lon="-102.49229663115517"><ele>1913.0</ele><time>2026-03-22T15:52:36.886Z</time></trkpt><trkpt lat="21.7579511263107" lon="-102.492202303176"><ele>1913.0</ele><time>2026-03-22T15:52:37.886Z</time></trkpt><trkpt lat="21.7579219318118" lon="-102.4921021812937"><ele>1913.0000000000002</ele><time>2026-03-22T15:52:38.886Z</time></trkpt><trkpt lat="21.757891006736877" lon="-102.49200004698781"><ele>1913.0000000000002</ele><time>2026-03-22T15:52:39.886Z</time></trkpt><trkpt lat="21.757860046574578" lon="-102.49190191118808"><ele>1913.0</ele><time>2026-03-22T15:52:40.886Z</time></trkpt><trkpt lat="21.757827831223533" lon="-102.49181103530552"><ele>1913.0</ele><time>2026-03-22T15:52:41.886Z</time></trkpt><trkpt lat="21.757789869116714" lon="-102.49169997616225"><ele>1912.8000000000002</ele><time>2026-03-22T15:52:42.886Z</time></trkpt><trkpt lat="21.757749761884245" lon="-102.49159356325768"><ele>1912.6000000000001</ele><time>2026-03-22T15:52:43.886Z</time></trkpt><trkpt lat="21.757711557693167" lon="-102.49149582914067"><ele>1912.3999999999999</ele><time>2026-03-22T15:52:44.886Z</time></trkpt><trkpt lat="21.757687660074655" lon="-102.49139902770051"><ele>1912.1999999999998</ele><time>2026-03-22T15:52:45.886Z</time></trkpt><trkpt lat="21.757664407366068" lon="-102.49129575463682"><ele>1912.0</ele><time>2026-03-22T15:52:46.886Z</time></trkpt><trkpt lat="21.7576389958988" lon="-102.49119678190762"><ele>1911.0</ele><time>2026-03-22T15:52:47.886Z</time></trkpt><trkpt lat="21.757606330029542" lon="-102.49109102271117"><ele>1909.9999999999998</ele><time>2026-03-22T15:52:48.886Z</time></trkpt><trkpt lat="21.75757391343818" lon="-102.49098617803502"><ele>1908.9999999999998</ele><time>2026-03-22T15:52:49.886Z</time></trkpt><trkpt lat="21.757545061272296" lon="-102.49088101106616"><ele>1908.0</ele><time>2026-03-22T15:52:50.886Z</time></trkpt><trkpt lat="21.75751645252748" lon="-102.49077111702093"><ele>1907.0</ele><time>2026-03-22T15:52:51.885Z</time></trkpt><trkpt lat="21.757481315433143" lon="-102.49066398396276"><ele>1907.0</ele><time>2026-03-22T15:52:52.885Z</time></trkpt><trkpt lat="21.757443528928547" lon="-102.49056568091194"><ele>1906.9999999999998</ele><time>2026-03-22T15:52:53.885Z</time></trkpt><trkpt lat="21.75740363701627" lon="-102.49047519775334"><ele>1906.9999999999998</ele><time>2026-03-22T15:52:54.885Z</time></trkpt><trkpt lat="21.757344701285664" lon="-102.49041574475307"><ele>1907.0</ele><time>2026-03-22T15:52:55.885Z</time></trkpt><trkpt lat="21.757260803279813" lon="-102.49038688919795"><ele>1907.0</ele><time>2026-03-22T15:52:56.885Z</time></trkpt><trkpt lat="21.757172577420125" lon="-102.49040751944982"><ele>1906.9999999999998</ele><time>2026-03-22T15:52:57.885Z</time></trkpt><trkpt lat="21.75709703210402" lon="-102.49046108170519"><ele>1907.0</ele><time>2026-03-22T15:52:58.885Z</time></trkpt><trkpt lat="21.757043393595264" lon="-102.49052962388099"><ele>1907.0</ele><time>2026-03-22T15:52:59.885Z</time></trkpt><trkpt lat="21.757003830480627" lon="-102.49059739301592"><ele>1907.0</ele><time>2026-03-22T15:53:00.885Z</time></trkpt><trkpt lat="21.75694846784419" lon="-102.49066398044718"><ele>1906.9999999999998</ele><time>2026-03-22T15:53:01.885Z</time></trkpt><trkpt lat="21.756894873211046" lon="-102.49072706538458"><ele>1907.0</ele><time>2026-03-22T15:53:02.885Z</time></trkpt><trkpt lat="21.75683829445979" lon="-102.49079266144054"><ele>1907.1666666666665</ele><time>2026-03-22T15:53:03.885Z</time></trkpt><trkpt lat="21.756784117081782" lon="-102.49086239345587"><ele>1907.3333333333333</ele><time>2026-03-22T15:53:04.885Z</time></trkpt><trkpt lat="21.756723467686257" lon="-102.49092852464427"><ele>1907.5</ele><time>2026-03-22T15:53:05.885Z</time></trkpt><trkpt lat="21.756669405671744" lon="-102.49099756259987"><ele>1907.6666666666665</ele><time>2026-03-22T15:53:06.885Z</time></trkpt><trkpt lat="21.7566121155032" lon="-102.49107519717643"><ele>1907.8333333333333</ele><time>2026-03-22T15:53:07.885Z</time></trkpt><trkpt lat="21.756555559584342" lon="-102.49115046530162"><ele>1908.0</ele><time>2026-03-22T15:53:08.885Z</time></trkpt><trkpt lat="21.756497665568304" lon="-102.49122399185454"><ele>1908.2</ele><time>2026-03-22T15:53:09.885Z</time></trkpt><trkpt lat="21.756433427416688" lon="-102.49129397768847"><ele>1908.4</ele><time>2026-03-22T15:53:10.885Z</time></trkpt><trkpt lat="21.75636960341239" lon="-102.49136472684623"><ele>1908.6000000000001</ele><time>2026-03-22T15:53:11.885Z</time></trkpt><trkpt lat="21.756306991968202" lon="-102.49143938215745"><ele>1908.8000000000002</ele><time>2026-03-22T15:53:12.885Z</time></trkpt><trkpt lat="21.756243397221446" lon="-102.4915141276241"><ele>1909.0</ele><time>2026-03-22T15:53:13.885Z</time></trkpt><trkpt lat="21.756179282653605" lon="-102.4915919016351"><ele>1909.0</ele><time>2026-03-22T15:53:14.885Z</time></trkpt><trkpt lat="21.75611687677111" lon="-102.4916696154638"><ele>1909.0</ele><time>2026-03-22T15:53:15.885Z</time></trkpt><trkpt lat="21.756049267404958" lon="-102.49175323229557"><ele>1909.0</ele><time>2026-03-22T15:53:16.885Z</time></trkpt><trkpt lat="21.75598820005695" lon="-102.49182868682804"><ele>1909.0</ele><time>2026-03-22T15:53:17.885Z</time></trkpt><trkpt lat="21.75592440702829" lon="-102.49189902284499"><ele>1909.0</ele><time>2026-03-22T15:53:18.886Z</time></trkpt><trkpt lat="21.75585467721595" lon="-102.49198386544379"><ele>1908.6</ele><time>2026-03-22T15:53:19.886Z</time></trkpt><trkpt lat="21.755790820911756" lon="-102.49205658196"><ele>1908.2</ele><time>2026-03-22T15:53:20.886Z</time></trkpt><trkpt lat="21.75571848853224" lon="-102.49213935383976"><ele>1907.7999999999997</ele><time>2026-03-22T15:53:21.886Z</time></trkpt><trkpt lat="21.75564684631817" lon="-102.4922193097021"><ele>1907.3999999999999</ele><time>2026-03-22T15:53:22.886Z</time></trkpt><trkpt lat="21.755577453665577" lon="-102.49229987523543"><ele>1907.0</ele><time>2026-03-22T15:53:23.886Z</time></trkpt><trkpt lat="21.75551455928383" lon="-102.49238250628518"><ele>1907.0</ele><time>2026-03-22T15:53:24.886Z</time></trkpt><trkpt lat="21.755416964803505" lon="-102.49247560879712"><ele>1906.9999999999998</ele><time>2026-03-22T15:53:25.886Z</time></trkpt><trkpt lat="21.75535839541955" lon="-102.49255080507122"><ele>1906.9999999999998</ele><time>2026-03-22T15:53:26.886Z</time></trkpt><trkpt lat="21.75528271268177" lon="-102.49263864878715"><ele>1907.0</ele><time>2026-03-22T15:53:27.886Z</time></trkpt><trkpt lat="21.755209848800963" lon="-102.49272445410853"><ele>1907.0</ele><time>2026-03-22T15:53:28.885Z</time></trkpt><trkpt lat="21.75513600849281" lon="-102.49281072844545"><ele>1907.1999999999998</ele><time>2026-03-22T15:53:29.885Z</time></trkpt><trkpt lat="21.755061945617495" lon="-102.49289409067516"><ele>1907.3999999999999</ele><time>2026-03-22T15:53:30.886Z</time></trkpt><trkpt lat="21.75498395046486" lon="-102.49297945766584"><ele>1907.6000000000001</ele><time>2026-03-22T15:53:31.885Z</time></trkpt><trkpt lat="21.754911138320242" lon="-102.4930649141832"><ele>1907.8000000000002</ele><time>2026-03-22T15:53:32.885Z</time></trkpt><trkpt lat="21.754835651056045" lon="-102.49315508185016"><ele>1908.0</ele><time>2026-03-22T15:53:33.885Z</time></trkpt><trkpt lat="21.754758403972545" lon="-102.49324325741888"><ele>1907.5</ele><time>2026-03-22T15:53:34.885Z</time></trkpt><trkpt lat="21.754684026974605" lon="-102.49333184677275"><ele>1907.0</ele><time>2026-03-22T15:53:35.885Z</time></trkpt><trkpt lat="21.754608226820764" lon="-102.49342241084437"><ele>1906.5</ele><time>2026-03-22T15:53:36.885Z</time></trkpt><trkpt lat="21.754523330754676" lon="-102.49350930408306"><ele>1906.0</ele><time>2026-03-22T15:53:37.885Z</time></trkpt><trkpt lat="21.754446961222925" lon="-102.49360748361798"><ele>1904.5</ele><time>2026-03-22T15:53:38.885Z</time></trkpt><trkpt lat="21.754365362041753" lon="-102.49369203192948"><ele>1903.0</ele><time>2026-03-22T15:53:39.885Z</time></trkpt><trkpt lat="21.75427919038971" lon="-102.49377746427885"><ele>1901.5</ele><time>2026-03-22T15:53:40.885Z</time></trkpt><trkpt lat="21.754196032034304" lon="-102.49387402597273"><ele>1900.0</ele><time>2026-03-22T15:53:41.885Z</time></trkpt><trkpt lat="21.754111576849013" lon="-102.49397471035115"><ele>1900.0</ele><time>2026-03-22T15:53:42.885Z</time></trkpt><trkpt lat="21.754022441126605" lon="-102.49408125580865"><ele>1900.0</ele><time>2026-03-22T15:53:43.885Z</time></trkpt><trkpt lat="21.75392754849483" lon="-102.49418767314245"><ele>1900.0</ele><time>2026-03-22T15:53:44.885Z</time></trkpt><trkpt lat="21.75383090694145" lon="-102.49429687963591"><ele>1900.0</ele><time>2026-03-22T15:53:45.885Z</time></trkpt><trkpt lat="21.75373170581539" lon="-102.49440911871238"><ele>1900.0</ele><time>2026-03-22T15:53:46.885Z</time></trkpt><trkpt lat="21.753630271339937" lon="-102.49452276320366"><ele>1900.0</ele><time>2026-03-22T15:53:47.885Z</time></trkpt><trkpt lat="21.753543192639015" lon="-102.49463399205435"><ele>1900.0</ele><time>2026-03-22T15:53:48.885Z</time></trkpt><trkpt lat="21.753453371897905" lon="-102.49473661594568"><ele>1900.0</ele><time>2026-03-22T15:53:49.885Z</time></trkpt><trkpt lat="21.75336726130435" lon="-102.49484045998355"><ele>1900.0</ele><time>2026-03-22T15:53:50.885Z</time></trkpt><trkpt lat="21.753280599261686" lon="-102.49494069621595"><ele>1900.0</ele><time>2026-03-22T15:53:51.885Z</time></trkpt><trkpt lat="21.753207934924987" lon="-102.49503656789092"><ele>1900.0</ele><time>2026-03-22T15:53:52.885Z</time></trkpt><trkpt lat="21.753135205251006" lon="-102.49511511814364"><ele>1900.0</ele><time>2026-03-22T15:53:53.885Z</time></trkpt><trkpt lat="21.753055437799343" lon="-102.49518039891113"><ele>1900.0</ele><time>2026-03-22T15:53:54.885Z</time></trkpt><trkpt lat="21.752974030162" lon="-102.49524499514914"><ele>1900.0</ele><time>2026-03-22T15:53:55.885Z</time></trkpt><trkpt lat="21.752892777136786" lon="-102.49529877433407"><ele>1900.0</ele><time>2026-03-22T15:53:56.884Z</time></trkpt><trkpt lat="21.752809327451644" lon="-102.49534344510924"><ele>1900.0</ele><time>2026-03-22T15:53:57.884Z</time></trkpt><trkpt lat="21.752719626954434" lon="-102.4953868569462"><ele>1900.0</ele><time>2026-03-22T15:53:58.884Z</time></trkpt><trkpt lat="21.75262874872799" lon="-102.4954160980575"><ele>1900.0</ele><time>2026-03-22T15:53:59.884Z</time></trkpt><trkpt lat="21.752535148873594" lon="-102.49543335587771"><ele>1900.6</ele><time>2026-03-22T15:54:00.884Z</time></trkpt><trkpt lat="21.752444726932374" lon="-102.49545478511529"><ele>1901.2</ele><time>2026-03-22T15:54:01.884Z</time></trkpt><trkpt lat="21.75234672909934" lon="-102.49546952555744"><ele>1901.8000000000002</ele><time>2026-03-22T15:54:02.884Z</time></trkpt><trkpt lat="21.752250594725314" lon="-102.49546937577965"><ele>1902.4</ele><time>2026-03-22T15:54:03.884Z</time></trkpt><trkpt lat="21.752147066780335" lon="-102.4954655006117"><ele>1903.0</ele><time>2026-03-22T15:54:04.884Z</time></trkpt><trkpt lat="21.75204249849238" lon="-102.49545613574855"><ele>1903.0</ele><time>2026-03-22T15:54:05.884Z</time></trkpt><trkpt lat="21.75193755667168" lon="-102.4954326796921"><ele>1903.0000000000002</ele><time>2026-03-22T15:54:06.884Z</time></trkpt><trkpt lat="21.751836367299024" lon="-102.4954135484983"><ele>1903.0000000000002</ele><time>2026-03-22T15:54:07.884Z</time></trkpt><trkpt lat="21.751731243195948" lon="-102.49538397851842"><ele>1903.0</ele><time>2026-03-22T15:54:08.884Z</time></trkpt><trkpt lat="21.75161719838892" lon="-102.4953578591753"><ele>1903.0</ele><time>2026-03-22T15:54:09.884Z</time></trkpt><trkpt lat="21.751515055641384" lon="-102.49533920831912"><ele>1902.2</ele><time>2026-03-22T15:54:10.884Z</time></trkpt><trkpt lat="21.751404471907268" lon="-102.49530851936296"><ele>1901.4</ele><time>2026-03-22T15:54:11.884Z</time></trkpt><trkpt lat="21.751294190070478" lon="-102.49528413236158"><ele>1900.6000000000001</ele><time>2026-03-22T15:54:12.884Z</time></trkpt><trkpt lat="21.751187710970136" lon="-102.49526400062784"><ele>1899.8000000000002</ele><time>2026-03-22T15:54:13.884Z</time></trkpt><trkpt lat="21.751080240451994" lon="-102.49523944505722"><ele>1899.0</ele><time>2026-03-22T15:54:14.884Z</time></trkpt><trkpt lat="21.750954153848696" lon="-102.49520536794667"><ele>1898.75</ele><time>2026-03-22T15:54:15.884Z</time></trkpt><trkpt lat="21.750845039189244" lon="-102.4951734939469"><ele>1898.5</ele><time>2026-03-22T15:54:16.884Z</time></trkpt><trkpt lat="21.750729944364902" lon="-102.49515459026817"><ele>1898.25</ele><time>2026-03-22T15:54:17.884Z</time></trkpt><trkpt lat="21.750616342495476" lon="-102.49512949692374"><ele>1898.0</ele><time>2026-03-22T15:54:18.884Z</time></trkpt><trkpt lat="21.750496078663144" lon="-102.49510623313914"><ele>1898.0</ele><time>2026-03-22T15:54:19.884Z</time></trkpt><trkpt lat="21.750383930904878" lon="-102.49507553586713"><ele>1898.0</ele><time>2026-03-22T15:54:20.884Z</time></trkpt><trkpt lat="21.750269682946797" lon="-102.49504467866105"><ele>1898.0</ele><time>2026-03-22T15:54:21.884Z</time></trkpt><trkpt lat="21.750150874499752" lon="-102.4950181005885"><ele>1898.0</ele><time>2026-03-22T15:54:22.884Z</time></trkpt><trkpt lat="21.750033156700415" lon="-102.49498832555413"><ele>1897.0</ele><time>2026-03-22T15:54:23.884Z</time></trkpt><trkpt lat="21.749909082795458" lon="-102.494956368249"><ele>1896.0</ele><time>2026-03-22T15:54:24.884Z</time></trkpt><trkpt lat="21.749787320443286" lon="-102.49492897622495"><ele>1895.0</ele><time>2026-03-22T15:54:25.884Z</time></trkpt><trkpt lat="21.749669647571146" lon="-102.49490412912421"><ele>1894.0</ele><time>2026-03-22T15:54:26.884Z</time></trkpt><trkpt lat="21.74955259647507" lon="-102.49487647384179"><ele>1894.0</ele><time>2026-03-22T15:54:27.884Z</time></trkpt><trkpt lat="21.74943472716178" lon="-102.49485173215999"><ele>1894.0</ele><time>2026-03-22T15:54:28.884Z</time></trkpt><trkpt lat="21.749317056946193" lon="-102.49481793085063"><ele>1894.0</ele><time>2026-03-22T15:54:29.884Z</time></trkpt><trkpt lat="21.749199416202977" lon="-102.49479620234997"><ele>1894.0</ele><time>2026-03-22T15:54:30.884Z</time></trkpt><trkpt lat="21.749077194443746" lon="-102.4947679427082"><ele>1894.25</ele><time>2026-03-22T15:54:31.884Z</time></trkpt><trkpt lat="21.74895701540812" lon="-102.49474406578197"><ele>1894.5</ele><time>2026-03-22T15:54:32.884Z</time></trkpt><trkpt lat="21.74883523507855" lon="-102.49470935541721"><ele>1894.75</ele><time>2026-03-22T15:54:33.884Z</time></trkpt><trkpt lat="21.748716622913925" lon="-102.49467970693425"><ele>1895.0</ele><time>2026-03-22T15:54:34.884Z</time></trkpt><trkpt lat="21.748599943497467" lon="-102.4946507360522"><ele>1894.25</ele><time>2026-03-22T15:54:35.884Z</time></trkpt><trkpt lat="21.748482262204774" lon="-102.49462287389188"><ele>1893.5</ele><time>2026-03-22T15:54:36.884Z</time></trkpt><trkpt lat="21.74836429681709" lon="-102.49460188088355"><ele>1892.75</ele><time>2026-03-22T15:54:37.884Z</time></trkpt><trkpt lat="21.748242010681498" lon="-102.49458003222253"><ele>1892.0</ele><time>2026-03-22T15:54:38.884Z</time></trkpt><trkpt lat="21.748121859018475" lon="-102.49455355925492"><ele>1892.0</ele><time>2026-03-22T15:54:39.883Z</time></trkpt><trkpt lat="21.748002532040974" lon="-102.49452434494144"><ele>1892.0</ele><time>2026-03-22T15:54:40.883Z</time></trkpt><trkpt lat="21.747885618986572" lon="-102.49449566744512"><ele>1892.0</ele><time>2026-03-22T15:54:41.883Z</time></trkpt><trkpt lat="21.74777589880456" lon="-102.49446776176079"><ele>1892.0</ele><time>2026-03-22T15:54:42.883Z</time></trkpt><trkpt lat="21.74764943805795" lon="-102.49444068418141"><ele>1891.25</ele><time>2026-03-22T15:54:43.883Z</time></trkpt><trkpt lat="21.74752607155698" lon="-102.49441218746587"><ele>1890.5</ele><time>2026-03-22T15:54:44.883Z</time></trkpt><trkpt lat="21.747408779985832" lon="-102.49438593551068"><ele>1889.75</ele><time>2026-03-22T15:54:45.883Z</time></trkpt><trkpt lat="21.747286319364022" lon="-102.49435440826005"><ele>1889.0</ele><time>2026-03-22T15:54:46.883Z</time></trkpt><trkpt lat="21.747163907336976" lon="-102.49432058075932"><ele>1889.0</ele><time>2026-03-22T15:54:47.883Z</time></trkpt><trkpt lat="21.74704522824209" lon="-102.4942921524419"><ele>1889.0</ele><time>2026-03-22T15:54:48.883Z</time></trkpt><trkpt lat="21.74692603103245" lon="-102.49426453658927"><ele>1889.0</ele><time>2026-03-22T15:54:49.883Z</time></trkpt><trkpt lat="21.746808728729906" lon="-102.49423882873276"><ele>1889.0</ele><time>2026-03-22T15:54:50.883Z</time></trkpt><trkpt lat="21.74669160301321" lon="-102.49421093337865"><ele>1888.75</ele><time>2026-03-22T15:54:51.883Z</time></trkpt><trkpt lat="21.74657361256584" lon="-102.49418442658178"><ele>1888.5</ele><time>2026-03-22T15:54:52.883Z</time></trkpt><trkpt lat="21.746454806786513" lon="-102.49415162158473"><ele>1888.25</ele><time>2026-03-22T15:54:53.883Z</time></trkpt><trkpt lat="21.746335202396125" lon="-102.49412381123321"><ele>1888.0</ele><time>2026-03-22T15:54:54.883Z</time></trkpt><trkpt lat="21.746215156892013" lon="-102.49409446295539"><ele>1888.0</ele><time>2026-03-22T15:54:55.883Z</time></trkpt><trkpt lat="21.746090859762358" lon="-102.49406879734012"><ele>1888.0</ele><time>2026-03-22T15:54:56.883Z</time></trkpt><trkpt lat="21.74597227862477" lon="-102.49403930621956"><ele>1888.0</ele><time>2026-03-22T15:54:57.883Z</time></trkpt><trkpt lat="21.745851202327774" lon="-102.49400412319875"><ele>1888.0</ele><time>2026-03-22T15:54:58.883Z</time></trkpt><trkpt lat="21.745727002094526" lon="-102.49397129928005"><ele>1887.5</ele><time>2026-03-22T15:54:59.883Z</time></trkpt><trkpt lat="21.74560821651957" lon="-102.49394212028184"><ele>1887.0</ele><time>2026-03-22T15:55:00.883Z</time></trkpt><trkpt lat="21.74548545145646" lon="-102.49393296049732"><ele>1886.5</ele><time>2026-03-22T15:55:01.883Z</time></trkpt><trkpt lat="21.745366703514794" lon="-102.4939030027636"><ele>1886.0</ele><time>2026-03-22T15:55:02.883Z</time></trkpt><trkpt lat="21.745249300239443" lon="-102.49387343016537"><ele>1885.5</ele><time>2026-03-22T15:55:03.883Z</time></trkpt><trkpt lat="21.745133602931027" lon="-102.49384508747679"><ele>1885.0</ele><time>2026-03-22T15:55:04.883Z</time></trkpt><trkpt lat="21.745018297494394" lon="-102.4938151104193"><ele>1884.5</ele><time>2026-03-22T15:55:05.883Z</time></trkpt><trkpt lat="21.744906113031853" lon="-102.49378652246247"><ele>1884.0</ele><time>2026-03-22T15:55:06.883Z</time></trkpt><trkpt lat="21.744792134513958" lon="-102.49375992078576"><ele>1884.25</ele><time>2026-03-22T15:55:07.883Z</time></trkpt><trkpt lat="21.744677632101055" lon="-102.49373157760913"><ele>1884.5</ele><time>2026-03-22T15:55:08.883Z</time></trkpt><trkpt lat="21.744565300970894" lon="-102.49370267705623"><ele>1884.75</ele><time>2026-03-22T15:55:09.883Z</time></trkpt><trkpt lat="21.744454630126707" lon="-102.49367596794693"><ele>1885.0</ele><time>2026-03-22T15:55:10.883Z</time></trkpt><trkpt lat="21.74434182072261" lon="-102.49365055451995"><ele>1884.25</ele><time>2026-03-22T15:55:11.883Z</time></trkpt><trkpt lat="21.744231145266905" lon="-102.49362356934276"><ele>1883.5</ele><time>2026-03-22T15:55:12.883Z</time></trkpt><trkpt lat="21.744114969320204" lon="-102.49359917930128"><ele>1882.75</ele><time>2026-03-22T15:55:13.883Z</time></trkpt><trkpt lat="21.74399961947862" lon="-102.49356755645746"><ele>1882.0</ele><time>2026-03-22T15:55:14.883Z</time></trkpt><trkpt lat="21.74388742179282" lon="-102.4935378395323"><ele>1882.0</ele><time>2026-03-22T15:55:15.883Z</time></trkpt><trkpt lat="21.74376974436239" lon="-102.49350213183199"><ele>1882.0</ele><time>2026-03-22T15:55:16.883Z</time></trkpt><trkpt lat="21.743656693798" lon="-102.49348250170286"><ele>1882.0</ele><time>2026-03-22T15:55:17.883Z</time></trkpt><trkpt lat="21.743549253405888" lon="-102.49345627504698"><ele>1882.0</ele><time>2026-03-22T15:55:18.883Z</time></trkpt><trkpt lat="21.743437337166604" lon="-102.49342815410442"><ele>1881.75</ele><time>2026-03-22T15:55:19.883Z</time></trkpt><trkpt lat="21.743324917502157" lon="-102.49340766901574"><ele>1881.5</ele><time>2026-03-22T15:55:20.883Z</time></trkpt><trkpt lat="21.74321173738183" lon="-102.49338767637369"><ele>1881.25</ele><time>2026-03-22T15:55:21.883Z</time></trkpt><trkpt lat="21.74310246681566" lon="-102.49335887636909"><ele>1881.0</ele><time>2026-03-22T15:55:22.882Z</time></trkpt><trkpt lat="21.742995535299947" lon="-102.49333617660194"><ele>1881.0</ele><time>2026-03-22T15:55:23.882Z</time></trkpt><trkpt lat="21.742884765906847" lon="-102.49330862517705"><ele>1881.0</ele><time>2026-03-22T15:55:24.884Z</time></trkpt><trkpt lat="21.74277829692406" lon="-102.49328859205272"><ele>1881.0</ele><time>2026-03-22T15:55:25.884Z</time></trkpt><trkpt lat="21.742671443331616" lon="-102.49326803422298"><ele>1881.0</ele><time>2026-03-22T15:55:26.884Z</time></trkpt><trkpt lat="21.742573376641552" lon="-102.49323724712414"><ele>1881.0</ele><time>2026-03-22T15:55:27.884Z</time></trkpt><trkpt lat="21.742475550270225" lon="-102.49320958401043"><ele>1881.1999999999998</ele><time>2026-03-22T15:55:28.884Z</time></trkpt><trkpt lat="21.742380189061308" lon="-102.49318270745549"><ele>1881.3999999999999</ele><time>2026-03-22T15:55:29.884Z</time></trkpt><trkpt lat="21.74228597346997" lon="-102.49316092935778"><ele>1881.6</ele><time>2026-03-22T15:55:30.884Z</time></trkpt><trkpt lat="21.74218824941652" lon="-102.4931391244713"><ele>1881.8</ele><time>2026-03-22T15:55:31.884Z</time></trkpt><trkpt lat="21.742091152845223" lon="-102.49311500156652"><ele>1882.0</ele><time>2026-03-22T15:55:32.884Z</time></trkpt><trkpt lat="21.74199179931504" lon="-102.49308759702444"><ele>1882.0</ele><time>2026-03-22T15:55:33.884Z</time></trkpt><trkpt lat="21.74189207415215" lon="-102.49306468908838"><ele>1881.9999999999998</ele><time>2026-03-22T15:55:34.884Z</time></trkpt><trkpt lat="21.741784943614746" lon="-102.49304634407558"><ele>1881.9999999999998</ele><time>2026-03-22T15:55:35.884Z</time></trkpt><trkpt lat="21.74168009834006" lon="-102.49302029104302"><ele>1882.0</ele><time>2026-03-22T15:55:36.884Z</time></trkpt><trkpt lat="21.741574017051953" lon="-102.49299691435701"><ele>1882.0</ele><time>2026-03-22T15:55:37.884Z</time></trkpt><trkpt lat="21.74147096993972" lon="-102.4929698119386"><ele>1882.0</ele><time>2026-03-22T15:55:38.884Z</time></trkpt><trkpt lat="21.74136279817067" lon="-102.49294131377778"><ele>1882.0</ele><time>2026-03-22T15:55:39.884Z</time></trkpt><trkpt lat="21.741252732048327" lon="-102.49291469986976"><ele>1882.0</ele><time>2026-03-22T15:55:40.884Z</time></trkpt><trkpt lat="21.7411377501166" lon="-102.49288825573475"><ele>1882.0</ele><time>2026-03-22T15:55:41.884Z</time></trkpt><trkpt lat="21.741026335654976" lon="-102.4928605573204"><ele>1881.75</ele><time>2026-03-22T15:55:42.884Z</time></trkpt><trkpt lat="21.740910449208585" lon="-102.49282838294553"><ele>1881.5</ele><time>2026-03-22T15:55:43.883Z</time></trkpt><trkpt lat="21.74079850257398" lon="-102.4928071746816"><ele>1881.25</ele><time>2026-03-22T15:55:44.883Z</time></trkpt><trkpt lat="21.740684700526593" lon="-102.49278193673825"><ele>1881.0</ele><time>2026-03-22T15:55:45.883Z</time></trkpt><trkpt lat="21.74058382698501" lon="-102.49276544290252"><ele>1881.0</ele><time>2026-03-22T15:55:46.883Z</time></trkpt><trkpt lat="21.740469645570037" lon="-102.49274220515753"><ele>1881.0</ele><time>2026-03-22T15:55:47.883Z</time></trkpt><trkpt lat="21.740355823639284" lon="-102.49271056822187"><ele>1881.0</ele><time>2026-03-22T15:55:48.883Z</time></trkpt><trkpt lat="21.740244011441405" lon="-102.4926751351165"><ele>1881.0</ele><time>2026-03-22T15:55:49.883Z</time></trkpt><trkpt lat="21.74013569973767" lon="-102.49264644811309"><ele>1879.8</ele><time>2026-03-22T15:55:50.883Z</time></trkpt><trkpt lat="21.74003066376048" lon="-102.49262515427463"><ele>1878.6</ele><time>2026-03-22T15:55:51.883Z</time></trkpt><trkpt lat="21.73991611268564" lon="-102.49260203168146"><ele>1877.4</ele><time>2026-03-22T15:55:52.883Z</time></trkpt><trkpt lat="21.739815342462702" lon="-102.49257690155471"><ele>1876.2</ele><time>2026-03-22T15:55:53.883Z</time></trkpt><trkpt lat="21.739702950878048" lon="-102.4925489545397"><ele>1875.0</ele><time>2026-03-22T15:55:54.883Z</time></trkpt><trkpt lat="21.73958588935828" lon="-102.49252191911827"><ele>1875.0</ele><time>2026-03-22T15:55:55.883Z</time></trkpt><trkpt lat="21.739470193639296" lon="-102.49249581677692"><ele>1875.0</ele><time>2026-03-22T15:55:56.883Z</time></trkpt><trkpt lat="21.73935374087586" lon="-102.49246822172869"><ele>1875.0</ele><time>2026-03-22T15:55:57.883Z</time></trkpt><trkpt lat="21.739240726791834" lon="-102.49244613388655"><ele>1875.0</ele><time>2026-03-22T15:55:58.883Z</time></trkpt><trkpt lat="21.739131926654352" lon="-102.49242323911102"><ele>1874.25</ele><time>2026-03-22T15:55:59.883Z</time></trkpt><trkpt lat="21.739016142385736" lon="-102.49239506248786"><ele>1873.5</ele><time>2026-03-22T15:56:00.883Z</time></trkpt><trkpt lat="21.738901065242" lon="-102.49237207822594"><ele>1872.75</ele><time>2026-03-22T15:56:01.883Z</time></trkpt><trkpt lat="21.738789107862488" lon="-102.49234651559266"><ele>1872.0</ele><time>2026-03-22T15:56:02.883Z</time></trkpt><trkpt lat="21.738668952115287" lon="-102.4923188428231"><ele>1872.0</ele><time>2026-03-22T15:56:03.883Z</time></trkpt><trkpt lat="21.73855783445932" lon="-102.492293481473"><ele>1872.0</ele><time>2026-03-22T15:56:04.883Z</time></trkpt><trkpt lat="21.73844082575078" lon="-102.49226979572659"><ele>1872.0</ele><time>2026-03-22T15:56:05.883Z</time></trkpt><trkpt lat="21.73833050047811" lon="-102.4922403427018"><ele>1872.0</ele><time>2026-03-22T15:56:06.883Z</time></trkpt><trkpt lat="21.738219115268606" lon="-102.49221465430276"><ele>1871.25</ele><time>2026-03-22T15:56:07.883Z</time></trkpt><trkpt lat="21.738106223429373" lon="-102.49218952091556"><ele>1870.5</ele><time>2026-03-22T15:56:08.883Z</time></trkpt><trkpt lat="21.73799174840264" lon="-102.49216104925173"><ele>1869.75</ele><time>2026-03-22T15:56:09.883Z</time></trkpt><trkpt lat="21.73788219177012" lon="-102.49213553121533"><ele>1869.0</ele><time>2026-03-22T15:56:10.883Z</time></trkpt><trkpt lat="21.737775106429584" lon="-102.49211103483199"><ele>1869.6</ele><time>2026-03-22T15:56:11.883Z</time></trkpt><trkpt lat="21.73766543996043" lon="-102.49208173118379"><ele>1870.2</ele><time>2026-03-22T15:56:12.883Z</time></trkpt><trkpt lat="21.737558249710467" lon="-102.4920570624089"><ele>1870.7999999999997</ele><time>2026-03-22T15:56:13.883Z</time></trkpt><trkpt lat="21.73744873081278" lon="-102.49202894644186"><ele>1871.3999999999999</ele><time>2026-03-22T15:56:14.883Z</time></trkpt><trkpt lat="21.737344756945827" lon="-102.49200244809398"><ele>1872.0</ele><time>2026-03-22T15:56:15.883Z</time></trkpt><trkpt lat="21.73723973027949" lon="-102.49197372058624"><ele>1872.0</ele><time>2026-03-22T15:56:16.883Z</time></trkpt><trkpt lat="21.73713911089714" lon="-102.49197021357926"><ele>1871.9999999999998</ele><time>2026-03-22T15:56:17.883Z</time></trkpt><trkpt lat="21.737039452802883" lon="-102.4919482716648"><ele>1871.9999999999998</ele><time>2026-03-22T15:56:18.883Z</time></trkpt><trkpt lat="21.73693784010026" lon="-102.49192562436488"><ele>1872.0</ele><time>2026-03-22T15:56:19.883Z</time></trkpt><trkpt lat="21.736836987747765" lon="-102.49190256793179"><ele>1872.0</ele><time>2026-03-22T15:56:20.883Z</time></trkpt><trkpt lat="21.736737991890866" lon="-102.49187940524062"><ele>1871.1999999999998</ele><time>2026-03-22T15:56:21.883Z</time></trkpt><trkpt lat="21.736636317872073" lon="-102.49185594531431"><ele>1870.3999999999999</ele><time>2026-03-22T15:56:22.883Z</time></trkpt><trkpt lat="21.73652915276255" lon="-102.49183133117756"><ele>1869.6000000000001</ele><time>2026-03-22T15:56:23.883Z</time></trkpt><trkpt lat="21.736427110178575" lon="-102.49180789359409"><ele>1868.8000000000002</ele><time>2026-03-22T15:56:24.883Z</time></trkpt><trkpt lat="21.7363173043435" lon="-102.49178204075663"><ele>1868.0</ele><time>2026-03-22T15:56:25.883Z</time></trkpt><trkpt lat="21.736213178533337" lon="-102.49175728945512"><ele>1868.0</ele><time>2026-03-22T15:56:26.882Z</time></trkpt><trkpt lat="21.736099314064777" lon="-102.49172950601205"><ele>1868.0</ele><time>2026-03-22T15:56:27.882Z</time></trkpt><trkpt lat="21.735988220093624" lon="-102.49170222029583"><ele>1868.0</ele><time>2026-03-22T15:56:28.882Z</time></trkpt><trkpt lat="21.735882423750386" lon="-102.49165805784855"><ele>1868.0</ele><time>2026-03-22T15:56:29.882Z</time></trkpt><trkpt lat="21.73576794929846" lon="-102.49164263122672"><ele>1867.0</ele><time>2026-03-22T15:56:30.882Z</time></trkpt><trkpt lat="21.735658731174755" lon="-102.49162132850668"><ele>1866.0000000000002</ele><time>2026-03-22T15:56:31.882Z</time></trkpt><trkpt lat="21.73555356971768" lon="-102.49159400788687"><ele>1865.0000000000002</ele><time>2026-03-22T15:56:32.882Z</time></trkpt><trkpt lat="21.73546716207152" lon="-102.49157714159652"><ele>1864.0</ele><time>2026-03-22T15:56:33.882Z</time></trkpt><trkpt lat="21.735382567852106" lon="-102.49155624296151"><ele>1863.0</ele><time>2026-03-22T15:56:34.882Z</time></trkpt><trkpt lat="21.735295916074268" lon="-102.49153366098348"><ele>1861.5</ele><time>2026-03-22T15:56:35.882Z</time></trkpt><trkpt lat="21.73521085346189" lon="-102.49151304787894"><ele>1860.0</ele><time>2026-03-22T15:56:36.882Z</time></trkpt><trkpt lat="21.735131342787476" lon="-102.49149378027832"><ele>1858.5</ele><time>2026-03-22T15:56:37.882Z</time></trkpt><trkpt lat="21.735121155837106" lon="-102.49124082030534"><ele>1857.0</ele><time>2026-03-22T15:56:38.882Z</time></trkpt><trkpt lat="21.735102859269176" lon="-102.49112702623289"><ele>1856.75</ele><time>2026-03-22T15:56:39.882Z</time></trkpt><trkpt lat="21.73508056638197" lon="-102.49100500204364"><ele>1856.5</ele><time>2026-03-22T15:56:40.882Z</time></trkpt><trkpt lat="21.73505754930074" lon="-102.490886536698"><ele>1856.25</ele><time>2026-03-22T15:56:41.882Z</time></trkpt><trkpt lat="21.735033784767452" lon="-102.49076258880015"><ele>1856.0</ele><time>2026-03-22T15:56:42.882Z</time></trkpt><trkpt lat="21.735015392437038" lon="-102.49063503153069"><ele>1856.0</ele><time>2026-03-22T15:56:43.882Z</time></trkpt><trkpt lat="21.734992055664094" lon="-102.4905021649488"><ele>1856.0</ele><time>2026-03-22T15:56:44.882Z</time></trkpt><trkpt lat="21.734970141150644" lon="-102.49037123303884"><ele>1856.0</ele><time>2026-03-22T15:56:45.882Z</time></trkpt><trkpt lat="21.73495035554596" lon="-102.4902389691898"><ele>1856.0</ele><time>2026-03-22T15:56:46.882Z</time></trkpt><trkpt lat="21.73490923569044" lon="-102.49011358554239"><ele>1855.75</ele><time>2026-03-22T15:56:47.882Z</time></trkpt><trkpt lat="21.734898807734197" lon="-102.48998067435261"><ele>1855.5</ele><time>2026-03-22T15:56:48.882Z</time></trkpt><trkpt lat="21.734867593550494" lon="-102.48985241750538"><ele>1855.25</ele><time>2026-03-22T15:56:49.882Z</time></trkpt><trkpt lat="21.734843417923827" lon="-102.4897231975898"><ele>1855.0</ele><time>2026-03-22T15:56:50.882Z</time></trkpt><trkpt lat="21.73482049807257" lon="-102.4895919961113"><ele>1855.4</ele><time>2026-03-22T15:56:51.882Z</time></trkpt><trkpt lat="21.73479917850611" lon="-102.48947108318482"><ele>1855.8</ele><time>2026-03-22T15:56:52.882Z</time></trkpt><trkpt lat="21.73477649701067" lon="-102.48935106073094"><ele>1856.1999999999998</ele><time>2026-03-22T15:56:53.882Z</time></trkpt><trkpt lat="21.734751150653366" lon="-102.48923549574545"><ele>1856.6</ele><time>2026-03-22T15:56:54.882Z</time></trkpt><trkpt lat="21.734695880080796" lon="-102.48913765871978"><ele>1857.0</ele><time>2026-03-22T15:56:55.882Z</time></trkpt><trkpt lat="21.73465618559606" lon="-102.4890354346284"><ele>1857.0</ele><time>2026-03-22T15:56:56.882Z</time></trkpt><trkpt lat="21.73458946467663" lon="-102.48895401011478"><ele>1856.9999999999998</ele><time>2026-03-22T15:56:57.882Z</time></trkpt><trkpt lat="21.73451495895228" lon="-102.48888300749188"><ele>1856.9999999999998</ele><time>2026-03-22T15:56:58.882Z</time></trkpt><trkpt lat="21.73443749656071" lon="-102.48882325237962"><ele>1857.0</ele><time>2026-03-22T15:56:59.882Z</time></trkpt><trkpt lat="21.734345884242266" lon="-102.4887692628623"><ele>1857.0</ele><time>2026-03-22T15:57:00.882Z</time></trkpt><trkpt lat="21.734250934567868" lon="-102.488720576749"><ele>1857.0</ele><time>2026-03-22T15:57:01.882Z</time></trkpt><trkpt lat="21.73415569824628" lon="-102.48867533840914"><ele>1856.9999999999998</ele><time>2026-03-22T15:57:02.882Z</time></trkpt><trkpt lat="21.734060830358114" lon="-102.48863919183187"><ele>1856.9999999999998</ele><time>2026-03-22T15:57:03.882Z</time></trkpt><trkpt lat="21.733966876651934" lon="-102.48860152795116"><ele>1857.0</ele><time>2026-03-22T15:57:04.882Z</time></trkpt><trkpt lat="21.733868485770206" lon="-102.4885698733501"><ele>1857.0</ele><time>2026-03-22T15:57:05.882Z</time></trkpt><trkpt lat="21.73376986253597" lon="-102.48853453693896"><ele>1857.0</ele><time>2026-03-22T15:57:06.882Z</time></trkpt><trkpt lat="21.73367240619423" lon="-102.48850013933136"><ele>1856.9999999999998</ele><time>2026-03-22T15:57:07.882Z</time></trkpt><trkpt lat="21.733579048464303" lon="-102.48846309254994"><ele>1856.9999999999998</ele><time>2026-03-22T15:57:08.882Z</time></trkpt><trkpt lat="21.733491009930948" lon="-102.4884242609941"><ele>1857.0</ele><time>2026-03-22T15:57:09.881Z</time></trkpt><trkpt lat="21.733410197899172" lon="-102.48838148114696"><ele>1857.0</ele><time>2026-03-22T15:57:10.881Z</time></trkpt><trkpt lat="21.733337575514494" lon="-102.48833782913026"><ele>1857.0</ele><time>2026-03-22T15:57:11.881Z</time></trkpt><trkpt lat="21.733273398771345" lon="-102.48828552700402"><ele>1857.0</ele><time>2026-03-22T15:57:12.881Z</time></trkpt><trkpt lat="21.7332121250713" lon="-102.48822672026016"><ele>1857.0</ele><time>2026-03-22T15:57:13.881Z</time></trkpt><trkpt lat="21.733153001718573" lon="-102.48815863987843"><ele>1857.0</ele><time>2026-03-22T15:57:14.881Z</time></trkpt><trkpt lat="21.733096914785044" lon="-102.48808414728818"><ele>1857.0</ele><time>2026-03-22T15:57:15.881Z</time></trkpt><trkpt lat="21.733044369219357" lon="-102.48800227196656"><ele>1857.0</ele><time>2026-03-22T15:57:16.881Z</time></trkpt><trkpt lat="21.732998999153097" lon="-102.48791210529043"><ele>1856.8</ele><time>2026-03-22T15:57:17.881Z</time></trkpt><trkpt lat="21.732938581102914" lon="-102.4878293266473"><ele>1856.6</ele><time>2026-03-22T15:57:18.881Z</time></trkpt><trkpt lat="21.732890916589465" lon="-102.48773129770996"><ele>1856.3999999999999</ele><time>2026-03-22T15:57:19.881Z</time></trkpt><trkpt lat="21.732864832883834" lon="-102.48762556165555"><ele>1856.1999999999998</ele><time>2026-03-22T15:57:20.881Z</time></trkpt><trkpt lat="21.732822584653505" lon="-102.48752504231689"><ele>1856.0</ele><time>2026-03-22T15:57:21.881Z</time></trkpt><trkpt lat="21.732775348004097" lon="-102.48742249704317"><ele>1856.0</ele><time>2026-03-22T15:57:22.881Z</time></trkpt><trkpt lat="21.73272819632135" lon="-102.48731740878894"><ele>1856.0</ele><time>2026-03-22T15:57:23.881Z</time></trkpt><trkpt lat="21.73268272033957" lon="-102.48721127265912"><ele>1856.0</ele><time>2026-03-22T15:57:24.881Z</time></trkpt><trkpt lat="21.73264078703825" lon="-102.48710434080542"><ele>1856.0</ele><time>2026-03-22T15:57:25.881Z</time></trkpt><trkpt lat="21.732603164625576" lon="-102.48699233647315"><ele>1856.0</ele><time>2026-03-22T15:57:26.881Z</time></trkpt><trkpt lat="21.73254907827221" lon="-102.48688269476689"><ele>1855.25</ele><time>2026-03-22T15:57:27.881Z</time></trkpt><trkpt lat="21.732537366177706" lon="-102.4867582840062"><ele>1854.5</ele><time>2026-03-22T15:57:28.881Z</time></trkpt><trkpt lat="21.732535455188557" lon="-102.48663423779597"><ele>1853.75</ele><time>2026-03-22T15:57:29.881Z</time></trkpt><trkpt lat="21.732554640070337" lon="-102.48650531861489"><ele>1853.0</ele><time>2026-03-22T15:57:30.883Z</time></trkpt><trkpt lat="21.732590009846973" lon="-102.48638185918887"><ele>1853.25</ele><time>2026-03-22T15:57:31.882Z</time></trkpt><trkpt lat="21.732634208644193" lon="-102.48625999874665"><ele>1853.5</ele><time>2026-03-22T15:57:32.882Z</time></trkpt><trkpt lat="21.73267958856262" lon="-102.48613550127516"><ele>1853.75</ele><time>2026-03-22T15:57:33.882Z</time></trkpt><trkpt lat="21.732724656676993" lon="-102.48600777284035"><ele>1854.0</ele><time>2026-03-22T15:57:34.883Z</time></trkpt><trkpt lat="21.732771578140586" lon="-102.48588265749154"><ele>1852.25</ele><time>2026-03-22T15:57:35.883Z</time></trkpt><trkpt lat="21.73281947203142" lon="-102.48575681257756"><ele>1850.5</ele><time>2026-03-22T15:57:36.883Z</time></trkpt><trkpt lat="21.732869427290424" lon="-102.48563062175421"><ele>1848.75</ele><time>2026-03-22T15:57:37.882Z</time></trkpt><trkpt lat="21.732916427734743" lon="-102.48550530543024"><ele>1847.0</ele><time>2026-03-22T15:57:38.882Z</time></trkpt><trkpt lat="21.732968497101357" lon="-102.48537770210058"><ele>1845.75</ele><time>2026-03-22T15:57:39.883Z</time></trkpt><trkpt lat="21.733020623001682" lon="-102.48525005057805"><ele>1844.5</ele><time>2026-03-22T15:57:40.882Z</time></trkpt><trkpt lat="21.733068951344023" lon="-102.48512076554938"><ele>1843.25</ele><time>2026-03-22T15:57:41.882Z</time></trkpt><trkpt lat="21.73311920357967" lon="-102.48499304623682"><ele>1842.0</ele><time>2026-03-22T15:57:42.882Z</time></trkpt><trkpt lat="21.733167346908775" lon="-102.48486444042206"><ele>1842.0</ele><time>2026-03-22T15:57:43.882Z</time></trkpt><trkpt lat="21.733218940523724" lon="-102.48472902900625"><ele>1842.0</ele><time>2026-03-22T15:57:44.882Z</time></trkpt><trkpt lat="21.73327040115535" lon="-102.48459779952806"><ele>1842.0</ele><time>2026-03-22T15:57:45.882Z</time></trkpt><trkpt lat="21.73332331928568" lon="-102.48446511230401"><ele>1842.0</ele><time>2026-03-22T15:57:46.882Z</time></trkpt><trkpt lat="21.733377383354174" lon="-102.48433146162634"><ele>1841.75</ele><time>2026-03-22T15:57:47.882Z</time></trkpt><trkpt lat="21.73342732417666" lon="-102.48419652009547"><ele>1841.5</ele><time>2026-03-22T15:57:48.882Z</time></trkpt><trkpt lat="21.733473854709793" lon="-102.48405654307335"><ele>1841.25</ele><time>2026-03-22T15:57:49.882Z</time></trkpt><trkpt lat="21.733525732519542" lon="-102.48392237407623"><ele>1841.0</ele><time>2026-03-22T15:57:50.882Z</time></trkpt><trkpt lat="21.73357312670191" lon="-102.4837859464058"><ele>1840.25</ele><time>2026-03-22T15:57:51.882Z</time></trkpt><trkpt lat="21.7336241219893" lon="-102.48365297281829"><ele>1839.5</ele><time>2026-03-22T15:57:52.882Z</time></trkpt><trkpt lat="21.733672422209565" lon="-102.48352270616125"><ele>1838.75</ele><time>2026-03-22T15:57:53.882Z</time></trkpt><trkpt lat="21.73372034387337" lon="-102.4833943659244"><ele>1838.0</ele><time>2026-03-22T15:57:54.882Z</time></trkpt><trkpt lat="21.73376960273888" lon="-102.48326507892828"><ele>1838.0</ele><time>2026-03-22T15:57:55.882Z</time></trkpt><trkpt lat="21.73381249921298" lon="-102.48314182002467"><ele>1838.0</ele><time>2026-03-22T15:57:56.882Z</time></trkpt><trkpt lat="21.733859106451984" lon="-102.48301816843978"><ele>1838.0</ele><time>2026-03-22T15:57:57.882Z</time></trkpt><trkpt lat="21.733906323777294" lon="-102.48289470955386"><ele>1838.0</ele><time>2026-03-22T15:57:58.882Z</time></trkpt><trkpt lat="21.73395221146026" lon="-102.48277337092195"><ele>1838.0</ele><time>2026-03-22T15:57:59.882Z</time></trkpt><trkpt lat="21.73400063035694" lon="-102.48265221545371"><ele>1838.0</ele><time>2026-03-22T15:58:00.882Z</time></trkpt><trkpt lat="21.734046358111442" lon="-102.48253371913398"><ele>1838.0</ele><time>2026-03-22T15:58:01.882Z</time></trkpt><trkpt lat="21.73409186618882" lon="-102.48241354534773"><ele>1838.0</ele><time>2026-03-22T15:58:02.882Z</time></trkpt><trkpt lat="21.734137489236367" lon="-102.48229201264607"><ele>1838.0</ele><time>2026-03-22T15:58:03.882Z</time></trkpt><trkpt lat="21.734170686476187" lon="-102.48216409436988"><ele>1838.0</ele><time>2026-03-22T15:58:04.882Z</time></trkpt><trkpt lat="21.734215817574963" lon="-102.48204138018441"><ele>1838.0</ele><time>2026-03-22T15:58:05.882Z</time></trkpt><trkpt lat="21.734261436614148" lon="-102.48191822483632"><ele>1838.0</ele><time>2026-03-22T15:58:06.882Z</time></trkpt><trkpt lat="21.73430463501246" lon="-102.48179636783244"><ele>1838.0</ele><time>2026-03-22T15:58:07.882Z</time></trkpt><trkpt lat="21.734349183616313" lon="-102.48167394012657"><ele>1838.0</ele><time>2026-03-22T15:58:08.882Z</time></trkpt><trkpt lat="21.734394316051795" lon="-102.4815513787141"><ele>1838.0</ele><time>2026-03-22T15:58:09.882Z</time></trkpt><trkpt lat="21.734441198029344" lon="-102.48142981474297"><ele>1838.0</ele><time>2026-03-22T15:58:10.882Z</time></trkpt><trkpt lat="21.734487227366785" lon="-102.48130524614662"><ele>1835.75</ele><time>2026-03-22T15:58:11.882Z</time></trkpt><trkpt lat="21.734529835552284" lon="-102.48118061434816"><ele>1833.5</ele><time>2026-03-22T15:58:12.882Z</time></trkpt><trkpt lat="21.734567132714794" lon="-102.48105474210672"><ele>1831.25</ele><time>2026-03-22T15:58:13.882Z</time></trkpt><trkpt lat="21.734596105348718" lon="-102.48092630649434"><ele>1829.0</ele><time>2026-03-22T15:58:14.882Z</time></trkpt><trkpt lat="21.734612867607787" lon="-102.48079386927067"><ele>1829.0</ele><time>2026-03-22T15:58:15.882Z</time></trkpt><trkpt lat="21.734623312103338" lon="-102.48065788873893"><ele>1829.0</ele><time>2026-03-22T15:58:16.881Z</time></trkpt><trkpt lat="21.734621244979856" lon="-102.48052278629642"><ele>1829.0</ele><time>2026-03-22T15:58:17.881Z</time></trkpt><trkpt lat="21.734593013965785" lon="-102.48039733648537"><ele>1829.0</ele><time>2026-03-22T15:58:18.881Z</time></trkpt><trkpt lat="21.734580409234123" lon="-102.4802618738353"><ele>1828.75</ele><time>2026-03-22T15:58:19.881Z</time></trkpt><trkpt lat="21.73455731489849" lon="-102.48012089106976"><ele>1828.5</ele><time>2026-03-22T15:58:20.881Z</time></trkpt><trkpt lat="21.734530009417686" lon="-102.47998874816369"><ele>1828.25</ele><time>2026-03-22T15:58:21.881Z</time></trkpt><trkpt lat="21.734508046849232" lon="-102.47984958962329"><ele>1828.0</ele><time>2026-03-22T15:58:22.881Z</time></trkpt><trkpt lat="21.73448434615516" lon="-102.47970813035641"><ele>1826.75</ele><time>2026-03-22T15:58:23.881Z</time></trkpt><trkpt lat="21.734460217663226" lon="-102.4795613299651"><ele>1825.5</ele><time>2026-03-22T15:58:24.881Z</time></trkpt><trkpt lat="21.7344363217053" lon="-102.47941718086813"><ele>1824.25</ele><time>2026-03-22T15:58:25.881Z</time></trkpt><trkpt lat="21.73441010076526" lon="-102.47927259968642"><ele>1823.0</ele><time>2026-03-22T15:58:26.881Z</time></trkpt><trkpt lat="21.73439118291141" lon="-102.47912412889671"><ele>1823.0</ele><time>2026-03-22T15:58:27.881Z</time></trkpt><trkpt lat="21.734362518082254" lon="-102.47897375083629"><ele>1823.0</ele><time>2026-03-22T15:58:28.881Z</time></trkpt><trkpt lat="21.73433259237908" lon="-102.47882636566365"><ele>1823.0</ele><time>2026-03-22T15:58:29.881Z</time></trkpt><trkpt lat="21.73430946280891" lon="-102.4786725321397"><ele>1823.0</ele><time>2026-03-22T15:58:30.881Z</time></trkpt><trkpt lat="21.73428274042441" lon="-102.47851977074968"><ele>1823.0</ele><time>2026-03-22T15:58:31.881Z</time></trkpt><trkpt lat="21.734259584940197" lon="-102.47837017357757"><ele>1823.0</ele><time>2026-03-22T15:58:32.881Z</time></trkpt><trkpt lat="21.7342337448656" lon="-102.47821719916665"><ele>1823.0</ele><time>2026-03-22T15:58:33.881Z</time></trkpt><trkpt lat="21.734191975798208" lon="-102.47807023450451"><ele>1823.0</ele><time>2026-03-22T15:58:34.881Z</time></trkpt><trkpt lat="21.73418308614907" lon="-102.47791746946571"><ele>1822.0</ele><time>2026-03-22T15:58:35.881Z</time></trkpt><trkpt lat="21.73414195671838" lon="-102.4777709715615"><ele>1821.0</ele><time>2026-03-22T15:58:36.881Z</time></trkpt><trkpt lat="21.7341313183366" lon="-102.47761863513679"><ele>1820.0</ele><time>2026-03-22T15:58:37.881Z</time></trkpt><trkpt lat="21.734104701315452" lon="-102.47747433607664"><ele>1819.0</ele><time>2026-03-22T15:58:38.881Z</time></trkpt><trkpt lat="21.734079602199728" lon="-102.47732996739764"><ele>1819.0</ele><time>2026-03-22T15:58:39.881Z</time></trkpt><trkpt lat="21.734052672021416" lon="-102.47718355583909"><ele>1819.0</ele><time>2026-03-22T15:58:40.881Z</time></trkpt><trkpt lat="21.734024489994614" lon="-102.47704226129895"><ele>1819.0</ele><time>2026-03-22T15:58:41.881Z</time></trkpt><trkpt lat="21.733998660663143" lon="-102.47690232927461"><ele>1819.0</ele><time>2026-03-22T15:58:42.881Z</time></trkpt><trkpt lat="21.733976127166414" lon="-102.47676525794189"><ele>1819.0</ele><time>2026-03-22T15:58:43.881Z</time></trkpt><trkpt lat="21.73394022315252" lon="-102.47663186137756"><ele>1819.0</ele><time>2026-03-22T15:58:44.881Z</time></trkpt><trkpt lat="21.733916256370428" lon="-102.47649134974485"><ele>1819.0</ele><time>2026-03-22T15:58:45.881Z</time></trkpt><trkpt lat="21.73389461165176" lon="-102.47635519296229"><ele>1819.0</ele><time>2026-03-22T15:58:46.881Z</time></trkpt><trkpt lat="21.733868956788008" lon="-102.47622284887468"><ele>1819.0</ele><time>2026-03-22T15:58:47.881Z</time></trkpt><trkpt lat="21.73384517154432" lon="-102.47608409420238"><ele>1819.0</ele><time>2026-03-22T15:58:48.881Z</time></trkpt><trkpt lat="21.733805872363366" lon="-102.4759482815074"><ele>1819.0</ele><time>2026-03-22T15:58:49.881Z</time></trkpt><trkpt lat="21.733778568927896" lon="-102.47580907737839"><ele>1819.0</ele><time>2026-03-22T15:58:50.881Z</time></trkpt><trkpt lat="21.733757187501272" lon="-102.4756730268948"><ele>1819.0</ele><time>2026-03-22T15:58:51.881Z</time></trkpt><trkpt lat="21.733735311846953" lon="-102.4755394796589"><ele>1819.0</ele><time>2026-03-22T15:58:52.881Z</time></trkpt><trkpt lat="21.733712596714227" lon="-102.47540986143206"><ele>1819.0</ele><time>2026-03-22T15:58:53.881Z</time></trkpt><trkpt lat="21.733690118733485" lon="-102.47528223821185"><ele>1819.0</ele><time>2026-03-22T15:58:54.881Z</time></trkpt><trkpt lat="21.733669548079014" lon="-102.47515703604722"><ele>1818.75</ele><time>2026-03-22T15:58:55.881Z</time></trkpt><trkpt lat="21.73364808628619" lon="-102.47503258253839"><ele>1818.5</ele><time>2026-03-22T15:58:56.881Z</time></trkpt><trkpt lat="21.73362504850857" lon="-102.47490717238497"><ele>1818.25</ele><time>2026-03-22T15:58:57.881Z</time></trkpt><trkpt lat="21.733602846326185" lon="-102.47478174620639"><ele>1818.0</ele><time>2026-03-22T15:58:58.881Z</time></trkpt><trkpt lat="21.73358376259027" lon="-102.47465312976856"><ele>1818.25</ele><time>2026-03-22T15:58:59.88Z</time></trkpt><trkpt lat="21.733564767767877" lon="-102.47452644776459"><ele>1818.5</ele><time>2026-03-22T15:59:00.88Z</time></trkpt><trkpt lat="21.733547750922277" lon="-102.47440003257844"><ele>1818.75</ele><time>2026-03-22T15:59:01.88Z</time></trkpt><trkpt lat="21.73352576471676" lon="-102.47427318646523"><ele>1819.0</ele><time>2026-03-22T15:59:02.88Z</time></trkpt><trkpt lat="21.733504469514184" lon="-102.47414949057107"><ele>1818.5</ele><time>2026-03-22T15:59:03.88Z</time></trkpt><trkpt lat="21.733485045187965" lon="-102.4740215275174"><ele>1818.0</ele><time>2026-03-22T15:59:04.88Z</time></trkpt><trkpt lat="21.733464073864543" lon="-102.47389604703616"><ele>1817.5</ele><time>2026-03-22T15:59:05.88Z</time></trkpt><trkpt lat="21.73344334111513" lon="-102.4737708821679"><ele>1817.0</ele><time>2026-03-22T15:59:06.88Z</time></trkpt><trkpt lat="21.73342302092908" lon="-102.47364732935016"><ele>1817.0</ele><time>2026-03-22T15:59:07.88Z</time></trkpt><trkpt lat="21.733400945702975" lon="-102.47352533700884"><ele>1816.9999999999998</ele><time>2026-03-22T15:59:08.88Z</time></trkpt><trkpt lat="21.73338160148031" lon="-102.4734098176629"><ele>1816.9999999999998</ele><time>2026-03-22T15:59:09.88Z</time></trkpt><trkpt lat="21.733348674647054" lon="-102.47330016060178"><ele>1817.0</ele><time>2026-03-22T15:59:10.88Z</time></trkpt><trkpt lat="21.73332763847303" lon="-102.47318213343554"><ele>1817.0</ele><time>2026-03-22T15:59:11.88Z</time></trkpt><trkpt lat="21.73331662963347" lon="-102.4730614381696"><ele>1817.0</ele><time>2026-03-22T15:59:12.88Z</time></trkpt><trkpt lat="21.733293211888128" lon="-102.47294752228686"><ele>1816.9999999999998</ele><time>2026-03-22T15:59:13.88Z</time></trkpt><trkpt lat="21.733266672219393" lon="-102.47283235449287"><ele>1816.9999999999998</ele><time>2026-03-22T15:59:14.88Z</time></trkpt><trkpt lat="21.733244163808877" lon="-102.47271968431356"><ele>1817.0</ele><time>2026-03-22T15:59:15.88Z</time></trkpt><trkpt lat="21.733215325274532" lon="-102.47260598527826"><ele>1817.0</ele><time>2026-03-22T15:59:16.88Z</time></trkpt><trkpt lat="21.733181830639786" lon="-102.47249564092269"><ele>1817.3999999999999</ele><time>2026-03-22T15:59:17.88Z</time></trkpt><trkpt lat="21.733145180342333" lon="-102.47238033164567"><ele>1817.7999999999997</ele><time>2026-03-22T15:59:18.88Z</time></trkpt><trkpt lat="21.733098478327832" lon="-102.47227308721067"><ele>1818.2</ele><time>2026-03-22T15:59:19.88Z</time></trkpt><trkpt lat="21.733053100898662" lon="-102.47216469194171"><ele>1818.6</ele><time>2026-03-22T15:59:20.88Z</time></trkpt><trkpt lat="21.733011086014017" lon="-102.4720580105145"><ele>1819.0</ele><time>2026-03-22T15:59:21.88Z</time></trkpt><trkpt lat="21.73296489249033" lon="-102.47195221505903"><ele>1819.4</ele><time>2026-03-22T15:59:22.88Z</time></trkpt><trkpt lat="21.73291340109764" lon="-102.47185400184422"><ele>1819.8000000000002</ele><time>2026-03-22T15:59:23.88Z</time></trkpt><trkpt lat="21.73286265480383" lon="-102.47176513406377"><ele>1820.1999999999998</ele><time>2026-03-22T15:59:24.88Z</time></trkpt><trkpt lat="21.7328169278719" lon="-102.47168264124875"><ele>1820.6</ele><time>2026-03-22T15:59:25.88Z</time></trkpt><trkpt lat="21.732769672100225" lon="-102.47159945177445"><ele>1821.0</ele><time>2026-03-22T15:59:26.88Z</time></trkpt><trkpt lat="21.732715440263647" lon="-102.47151733492662"><ele>1820.6</ele><time>2026-03-22T15:59:27.88Z</time></trkpt><trkpt lat="21.73266242697249" lon="-102.47143785299012"><ele>1820.1999999999998</ele><time>2026-03-22T15:59:28.88Z</time></trkpt><trkpt lat="21.732608719051065" lon="-102.47135294308798"><ele>1819.8000000000002</ele><time>2026-03-22T15:59:29.88Z</time></trkpt><trkpt lat="21.73255654344136" lon="-102.47127404428961"><ele>1819.4</ele><time>2026-03-22T15:59:30.88Z</time></trkpt><trkpt lat="21.73250194191524" lon="-102.47118668654541"><ele>1819.0</ele><time>2026-03-22T15:59:31.88Z</time></trkpt><trkpt lat="21.732445964221903" lon="-102.4711050511562"><ele>1819.0</ele><time>2026-03-22T15:59:32.88Z</time></trkpt><trkpt lat="21.732390029386035" lon="-102.47102457012012"><ele>1819.0</ele><time>2026-03-22T15:59:33.88Z</time></trkpt><trkpt lat="21.732336625966607" lon="-102.47094452969051"><ele>1819.0</ele><time>2026-03-22T15:59:34.88Z</time></trkpt><trkpt lat="21.732284708389344" lon="-102.47086055131814"><ele>1819.0</ele><time>2026-03-22T15:59:35.88Z</time></trkpt><trkpt lat="21.732229519402612" lon="-102.4707779198564"><ele>1819.0</ele><time>2026-03-22T15:59:36.881Z</time></trkpt><trkpt lat="21.73217442100118" lon="-102.47069470112697"><ele>1819.0</ele><time>2026-03-22T15:59:37.881Z</time></trkpt><trkpt lat="21.732118353582077" lon="-102.47060766110151"><ele>1819.0</ele><time>2026-03-22T15:59:38.881Z</time></trkpt><trkpt lat="21.7320644594118" lon="-102.47052403468133"><ele>1819.0</ele><time>2026-03-22T15:59:39.881Z</time></trkpt><trkpt lat="21.732010567778673" lon="-102.47044192770281"><ele>1819.0</ele><time>2026-03-22T15:59:40.881Z</time></trkpt><trkpt lat="21.731957286776584" lon="-102.47036087602804"><ele>1819.0</ele><time>2026-03-22T15:59:41.881Z</time></trkpt><trkpt lat="21.731904305545083" lon="-102.47027488924486"><ele>1818.2</ele><time>2026-03-22T15:59:42.881Z</time></trkpt><trkpt lat="21.731849594762924" lon="-102.47018960780946"><ele>1817.4</ele><time>2026-03-22T15:59:43.881Z</time></trkpt><trkpt lat="21.731793614103086" lon="-102.47010788591682"><ele>1816.6</ele><time>2026-03-22T15:59:44.881Z</time></trkpt><trkpt lat="21.731739423750113" lon="-102.47002715292949"><ele>1815.8</ele><time>2026-03-22T15:59:45.881Z</time></trkpt><trkpt lat="21.731686811797154" lon="-102.46994657378917"><ele>1815.0</ele><time>2026-03-22T15:59:46.88Z</time></trkpt><trkpt lat="21.73163553050278" lon="-102.46986445837572"><ele>1815.0</ele><time>2026-03-22T15:59:47.88Z</time></trkpt><trkpt lat="21.731579596838777" lon="-102.46978236243287"><ele>1815.0</ele><time>2026-03-22T15:59:48.881Z</time></trkpt><trkpt lat="21.73152673791613" lon="-102.46970758566694"><ele>1815.0</ele><time>2026-03-22T15:59:49.881Z</time></trkpt><trkpt lat="21.731474310382275" lon="-102.46963013419231"><ele>1815.0</ele><time>2026-03-22T15:59:50.881Z</time></trkpt><trkpt lat="21.73142141018943" lon="-102.46955057551729"><ele>1815.0</ele><time>2026-03-22T15:59:51.881Z</time></trkpt><trkpt lat="21.731372125555183" lon="-102.46947593240343"><ele>1815.0</ele><time>2026-03-22T15:59:52.881Z</time></trkpt><trkpt lat="21.731321396242556" lon="-102.46939527900959"><ele>1815.1666666666667</ele><time>2026-03-22T15:59:53.881Z</time></trkpt><trkpt lat="21.731274253408454" lon="-102.46931456979846"><ele>1815.3333333333335</ele><time>2026-03-22T15:59:54.881Z</time></trkpt><trkpt lat="21.731223357322634" lon="-102.46923869009963"><ele>1815.5</ele><time>2026-03-22T15:59:55.881Z</time></trkpt><trkpt lat="21.731175854663558" lon="-102.4691600054918"><ele>1815.6666666666667</ele><time>2026-03-22T15:59:56.881Z</time></trkpt><trkpt lat="21.731126777887944" lon="-102.46908724273524"><ele>1815.8333333333335</ele><time>2026-03-22T15:59:57.881Z</time></trkpt><trkpt lat="21.73107894001674" lon="-102.46901577249518"><ele>1816.0</ele><time>2026-03-22T15:59:58.881Z</time></trkpt><trkpt lat="21.731030294413358" lon="-102.46893931081453"><ele>1816.3333333333335</ele><time>2026-03-22T15:59:59.881Z</time></trkpt><trkpt lat="21.73098010834131" lon="-102.46886219704436"><ele>1816.6666666666667</ele><time>2026-03-22T16:00:00.881Z</time></trkpt><trkpt lat="21.730933475526303" lon="-102.46879280981771"><ele>1817.0</ele><time>2026-03-22T16:00:01.881Z</time></trkpt><trkpt lat="21.730882470879052" lon="-102.46872270614412"><ele>1817.3333333333335</ele><time>2026-03-22T16:00:02.881Z</time></trkpt><trkpt lat="21.730822526859015" lon="-102.46865872969354"><ele>1817.6666666666667</ele><time>2026-03-22T16:00:03.881Z</time></trkpt><trkpt lat="21.73077249374235" lon="-102.46858835635868"><ele>1818.0</ele><time>2026-03-22T16:00:04.881Z</time></trkpt><trkpt lat="21.730724797971646" lon="-102.46852175504003"><ele>1818.0</ele><time>2026-03-22T16:00:05.881Z</time></trkpt><trkpt lat="21.730679771805328" lon="-102.4684504099285"><ele>1818.0</ele><time>2026-03-22T16:00:06.881Z</time></trkpt><trkpt lat="21.73063291441995" lon="-102.46837651026965"><ele>1818.0</ele><time>2026-03-22T16:00:07.881Z</time></trkpt><trkpt lat="21.730588551750987" lon="-102.46830107653642"><ele>1818.0</ele><time>2026-03-22T16:00:08.881Z</time></trkpt><trkpt lat="21.73054496806357" lon="-102.46823041077538"><ele>1818.0</ele><time>2026-03-22T16:00:09.881Z</time></trkpt><trkpt lat="21.730496621548255" lon="-102.46816023875445"><ele>1818.0</ele><time>2026-03-22T16:00:10.881Z</time></trkpt><trkpt lat="21.73045061038202" lon="-102.46808896681826"><ele>1818.0</ele><time>2026-03-22T16:00:11.881Z</time></trkpt><trkpt lat="21.730405834010263" lon="-102.46802093155235"><ele>1818.0</ele><time>2026-03-22T16:00:12.881Z</time></trkpt><trkpt lat="21.73036730150685" lon="-102.46795083401426"><ele>1818.0</ele><time>2026-03-22T16:00:13.881Z</time></trkpt><trkpt lat="21.73032811164247" lon="-102.4678809711839"><ele>1818.0</ele><time>2026-03-22T16:00:14.881Z</time></trkpt><trkpt lat="21.73029120081889" lon="-102.46780810399487"><ele>1818.0</ele><time>2026-03-22T16:00:15.881Z</time></trkpt><trkpt lat="21.730261397022765" lon="-102.46773042919477"><ele>1818.0</ele><time>2026-03-22T16:00:16.881Z</time></trkpt><trkpt lat="21.730233009763587" lon="-102.46765614408615"><ele>1817.6666666666667</ele><time>2026-03-22T16:00:17.881Z</time></trkpt><trkpt lat="21.730210894983077" lon="-102.4675786944274"><ele>1817.3333333333335</ele><time>2026-03-22T16:00:18.881Z</time></trkpt><trkpt lat="21.730191845951335" lon="-102.46749506426568"><ele>1817.0</ele><time>2026-03-22T16:00:19.881Z</time></trkpt><trkpt lat="21.730171468787486" lon="-102.46741065205885"><ele>1816.6666666666667</ele><time>2026-03-22T16:00:20.881Z</time></trkpt><trkpt lat="21.730134324663453" lon="-102.46733029112696"><ele>1816.3333333333335</ele><time>2026-03-22T16:00:21.881Z</time></trkpt><trkpt lat="21.730114346411078" lon="-102.4672490973141"><ele>1816.0</ele><time>2026-03-22T16:00:22.881Z</time></trkpt><trkpt lat="21.730095824015343" lon="-102.46716510888815"><ele>1816.3333333333335</ele><time>2026-03-22T16:00:23.881Z</time></trkpt><trkpt lat="21.730078808238105" lon="-102.46707832052276"><ele>1816.6666666666667</ele><time>2026-03-22T16:00:24.88Z</time></trkpt><trkpt lat="21.730057708158736" lon="-102.46699600397115"><ele>1817.0</ele><time>2026-03-22T16:00:25.88Z</time></trkpt><trkpt lat="21.730037802616913" lon="-102.46691307313988"><ele>1817.3333333333335</ele><time>2026-03-22T16:00:26.88Z</time></trkpt><trkpt lat="21.730021516153972" lon="-102.46683281208723"><ele>1817.6666666666667</ele><time>2026-03-22T16:00:27.88Z</time></trkpt><trkpt lat="21.730001996535368" lon="-102.46674511704168"><ele>1818.0</ele><time>2026-03-22T16:00:28.88Z</time></trkpt><trkpt lat="21.72998822866244" lon="-102.46665972845896"><ele>1818.0</ele><time>2026-03-22T16:00:29.88Z</time></trkpt><trkpt lat="21.72996392030931" lon="-102.46658175283054"><ele>1818.0</ele><time>2026-03-22T16:00:30.88Z</time></trkpt><trkpt lat="21.729946440514723" lon="-102.46649102131063"><ele>1818.0</ele><time>2026-03-22T16:00:31.88Z</time></trkpt><trkpt lat="21.72992275600434" lon="-102.46640853124842"><ele>1818.0</ele><time>2026-03-22T16:00:32.88Z</time></trkpt><trkpt lat="21.72990541050473" lon="-102.46631290971605"><ele>1818.0</ele><time>2026-03-22T16:00:33.88Z</time></trkpt><trkpt lat="21.72988700082918" lon="-102.46622475815781"><ele>1818.0</ele><time>2026-03-22T16:00:34.88Z</time></trkpt><trkpt lat="21.72987032869733" lon="-102.46613862538128"><ele>1818.1666666666667</ele><time>2026-03-22T16:00:35.88Z</time></trkpt><trkpt lat="21.72985533238021" lon="-102.46604843113991"><ele>1818.3333333333335</ele><time>2026-03-22T16:00:36.88Z</time></trkpt><trkpt lat="21.729834774609408" lon="-102.46595618171803"><ele>1818.5</ele><time>2026-03-22T16:00:37.88Z</time></trkpt><trkpt lat="21.729819011164906" lon="-102.46586886503904"><ele>1818.6666666666667</ele><time>2026-03-22T16:00:38.88Z</time></trkpt><trkpt lat="21.729805710700596" lon="-102.465780106804"><ele>1818.8333333333335</ele><time>2026-03-22T16:00:39.88Z</time></trkpt><trkpt lat="21.729788401954263" lon="-102.46567381482284"><ele>1819.0</ele><time>2026-03-22T16:00:40.88Z</time></trkpt><trkpt lat="21.72977973825359" lon="-102.46557932876146"><ele>1819.0</ele><time>2026-03-22T16:00:41.88Z</time></trkpt><trkpt lat="21.729775419161978" lon="-102.46548548308407"><ele>1819.0</ele><time>2026-03-22T16:00:42.88Z</time></trkpt><trkpt lat="21.729765738305634" lon="-102.46537685313801"><ele>1819.0</ele><time>2026-03-22T16:00:43.88Z</time></trkpt><trkpt lat="21.72975428167446" lon="-102.46526608691069"><ele>1819.0</ele><time>2026-03-22T16:00:44.88Z</time></trkpt><trkpt lat="21.72974511706264" lon="-102.4651590866871"><ele>1819.0</ele><time>2026-03-22T16:00:45.88Z</time></trkpt><trkpt lat="21.729738134811726" lon="-102.46506039493994"><ele>1818.6</ele><time>2026-03-22T16:00:46.88Z</time></trkpt><trkpt lat="21.72973198206396" lon="-102.4649521189094"><ele>1818.2</ele><time>2026-03-22T16:00:47.88Z</time></trkpt><trkpt lat="21.729725930727408" lon="-102.46483623732871"><ele>1817.7999999999997</ele><time>2026-03-22T16:00:48.88Z</time></trkpt><trkpt lat="21.729715158359117" lon="-102.46472438667797"><ele>1817.3999999999999</ele><time>2026-03-22T16:00:49.88Z</time></trkpt><trkpt lat="21.729702791238196" lon="-102.4646091221435"><ele>1817.0</ele><time>2026-03-22T16:00:50.88Z</time></trkpt><trkpt lat="21.72968770433473" lon="-102.4644926627242"><ele>1815.5</ele><time>2026-03-22T16:00:51.88Z</time></trkpt><trkpt lat="21.729665212880594" lon="-102.4643706297403"><ele>1814.0</ele><time>2026-03-22T16:00:52.88Z</time></trkpt><trkpt lat="21.729631441416025" lon="-102.46425051803801"><ele>1812.5</ele><time>2026-03-22T16:00:53.88Z</time></trkpt><trkpt lat="21.729588636004156" lon="-102.4641375872463"><ele>1811.0</ele><time>2026-03-22T16:00:54.88Z</time></trkpt><trkpt lat="21.72953301372776" lon="-102.46402391039118"><ele>1811.0</ele><time>2026-03-22T16:00:55.88Z</time></trkpt><trkpt lat="21.729470303046725" lon="-102.46391368566609"><ele>1811.0</ele><time>2026-03-22T16:00:56.88Z</time></trkpt><trkpt lat="21.729411969252176" lon="-102.46380705025112"><ele>1811.0</ele><time>2026-03-22T16:00:57.88Z</time></trkpt><trkpt lat="21.72935347057937" lon="-102.46370187431154"><ele>1811.0</ele><time>2026-03-22T16:00:58.88Z</time></trkpt><trkpt lat="21.72929229135575" lon="-102.46359390443914"><ele>1810.25</ele><time>2026-03-22T16:00:59.88Z</time></trkpt><trkpt lat="21.729234806015977" lon="-102.4634836690608"><ele>1809.5</ele><time>2026-03-22T16:01:00.88Z</time></trkpt><trkpt lat="21.729178246650225" lon="-102.46337628950906"><ele>1808.75</ele><time>2026-03-22T16:01:01.88Z</time></trkpt><trkpt lat="21.729121863766245" lon="-102.46326425708767"><ele>1808.0</ele><time>2026-03-22T16:01:02.88Z</time></trkpt><trkpt lat="21.72899711846486" lon="-102.46304508290488"><ele>1807.0</ele><time>2026-03-22T16:01:04.88Z</time></trkpt><trkpt lat="21.728937931343022" lon="-102.46293423176392"><ele>1806.0</ele><time>2026-03-22T16:01:05.88Z</time></trkpt><trkpt lat="21.72887705361711" lon="-102.46281418606438"><ele>1805.0</ele><time>2026-03-22T16:01:06.88Z</time></trkpt><trkpt lat="21.728812682398807" lon="-102.46270691715085"><ele>1804.0</ele><time>2026-03-22T16:01:07.879Z</time></trkpt><trkpt lat="21.72874900948858" lon="-102.46258948508202"><ele>1804.0</ele><time>2026-03-22T16:01:08.879Z</time></trkpt><trkpt lat="21.728687659742818" lon="-102.46247228438214"><ele>1804.0</ele><time>2026-03-22T16:01:09.879Z</time></trkpt><trkpt lat="21.728624314811114" lon="-102.4623548741688"><ele>1804.0</ele><time>2026-03-22T16:01:10.879Z</time></trkpt><trkpt lat="21.72855796091141" lon="-102.4622383718362"><ele>1804.0</ele><time>2026-03-22T16:01:11.879Z</time></trkpt><trkpt lat="21.72849204554639" lon="-102.46212319565704"><ele>1803.5</ele><time>2026-03-22T16:01:12.879Z</time></trkpt><trkpt lat="21.728428284111363" lon="-102.46200599497101"><ele>1803.0</ele><time>2026-03-22T16:01:13.879Z</time></trkpt><trkpt lat="21.728364896670115" lon="-102.46189265104341"><ele>1802.5</ele><time>2026-03-22T16:01:14.879Z</time></trkpt><trkpt lat="21.72830208706128" lon="-102.4617792423628"><ele>1802.0</ele><time>2026-03-22T16:01:15.879Z</time></trkpt><trkpt lat="21.728244650465896" lon="-102.46166329379335"><ele>1802.0</ele><time>2026-03-22T16:01:16.879Z</time></trkpt><trkpt lat="21.72818351825674" lon="-102.46155273843067"><ele>1802.0</ele><time>2026-03-22T16:01:17.879Z</time></trkpt><trkpt lat="21.728120412809467" lon="-102.46143718147208"><ele>1802.0</ele><time>2026-03-22T16:01:18.879Z</time></trkpt><trkpt lat="21.728056966980798" lon="-102.46132899778775"><ele>1802.0</ele><time>2026-03-22T16:01:19.879Z</time></trkpt><trkpt lat="21.72799474961523" lon="-102.46122358963623"><ele>1801.0</ele><time>2026-03-22T16:01:20.879Z</time></trkpt><trkpt lat="21.727937682845475" lon="-102.461109345831"><ele>1800.0</ele><time>2026-03-22T16:01:21.879Z</time></trkpt><trkpt lat="21.727884793082744" lon="-102.4610040968361"><ele>1799.0</ele><time>2026-03-22T16:01:22.879Z</time></trkpt><trkpt lat="21.727821370849508" lon="-102.46089563913132"><ele>1798.0</ele><time>2026-03-22T16:01:23.879Z</time></trkpt><trkpt lat="21.727765391032566" lon="-102.46078697472727"><ele>1797.75</ele><time>2026-03-22T16:01:24.879Z</time></trkpt><trkpt lat="21.727713747870204" lon="-102.46067912469142"><ele>1797.5</ele><time>2026-03-22T16:01:25.879Z</time></trkpt><trkpt lat="21.72766087825122" lon="-102.46056547126378"><ele>1797.25</ele><time>2026-03-22T16:01:26.879Z</time></trkpt><trkpt lat="21.727615371169865" lon="-102.46044584042127"><ele>1797.0</ele><time>2026-03-22T16:01:27.879Z</time></trkpt><trkpt lat="21.727580302590887" lon="-102.46031699415164"><ele>1797.0</ele><time>2026-03-22T16:01:28.879Z</time></trkpt><trkpt lat="21.727552867969834" lon="-102.46018766967333"><ele>1797.0</ele><time>2026-03-22T16:01:29.879Z</time></trkpt><trkpt lat="21.72752921859852" lon="-102.46005718290436"><ele>1797.0</ele><time>2026-03-22T16:01:30.879Z</time></trkpt><trkpt lat="21.727506661342296" lon="-102.45992630918295"><ele>1797.0</ele><time>2026-03-22T16:01:31.879Z</time></trkpt><trkpt lat="21.727500872292246" lon="-102.45978426498543"><ele>1797.0</ele><time>2026-03-22T16:01:32.879Z</time></trkpt><trkpt lat="21.727492848436416" lon="-102.45964858457297"><ele>1797.0</ele><time>2026-03-22T16:01:33.879Z</time></trkpt><trkpt lat="21.727478110987274" lon="-102.45951310634345"><ele>1797.0</ele><time>2026-03-22T16:01:34.879Z</time></trkpt><trkpt lat="21.72746313529386" lon="-102.45937209561342"><ele>1797.0</ele><time>2026-03-22T16:01:35.879Z</time></trkpt><trkpt lat="21.72745088180546" lon="-102.4592360835611"><ele>1795.75</ele><time>2026-03-22T16:01:36.879Z</time></trkpt><trkpt lat="21.72743407851723" lon="-102.45909619660245"><ele>1794.5</ele><time>2026-03-22T16:01:37.879Z</time></trkpt><trkpt lat="21.727424165898693" lon="-102.45896189085674"><ele>1793.25</ele><time>2026-03-22T16:01:38.879Z</time></trkpt><trkpt lat="21.72741135274197" lon="-102.45882806400391"><ele>1792.0</ele><time>2026-03-22T16:01:39.879Z</time></trkpt><trkpt lat="21.72739416154623" lon="-102.4586969384344"><ele>1792.0</ele><time>2026-03-22T16:01:40.879Z</time></trkpt><trkpt lat="21.72738234448474" lon="-102.45856569562152"><ele>1792.0</ele><time>2026-03-22T16:01:41.879Z</time></trkpt><trkpt lat="21.72737099184119" lon="-102.45844052669534"><ele>1792.0</ele><time>2026-03-22T16:01:42.879Z</time></trkpt><trkpt lat="21.727361342014213" lon="-102.45831020588528"><ele>1792.0</ele><time>2026-03-22T16:01:43.879Z</time></trkpt><trkpt lat="21.727349196899787" lon="-102.45819354419699"><ele>1792.0</ele><time>2026-03-22T16:01:44.879Z</time></trkpt><trkpt lat="21.727340221360954" lon="-102.45807432865752"><ele>1791.9999999999998</ele><time>2026-03-22T16:01:45.88Z</time></trkpt><trkpt lat="21.72733001513936" lon="-102.4579675300248"><ele>1791.9999999999998</ele><time>2026-03-22T16:01:46.879Z</time></trkpt><trkpt lat="21.727319214440342" lon="-102.45785995013628"><ele>1792.0</ele><time>2026-03-22T16:01:47.879Z</time></trkpt><trkpt lat="21.7273096729682" lon="-102.4577455218088"><ele>1792.0</ele><time>2026-03-22T16:01:48.879Z</time></trkpt><trkpt lat="21.727302551753173" lon="-102.4576318531828"><ele>1791.6</ele><time>2026-03-22T16:01:49.88Z</time></trkpt><trkpt lat="21.727293574609817" lon="-102.45752211871405"><ele>1791.1999999999998</ele><time>2026-03-22T16:01:50.88Z</time></trkpt><trkpt lat="21.72728283257825" lon="-102.45741426253781"><ele>1790.8</ele><time>2026-03-22T16:01:51.879Z</time></trkpt><trkpt lat="21.727269568965898" lon="-102.45730054642313"><ele>1790.4</ele><time>2026-03-22T16:01:52.879Z</time></trkpt><trkpt lat="21.727258016631346" lon="-102.45718701446673"><ele>1790.0</ele><time>2026-03-22T16:01:53.879Z</time></trkpt><trkpt lat="21.727250065371496" lon="-102.4570777631024"><ele>1789.8</ele><time>2026-03-22T16:01:54.879Z</time></trkpt><trkpt lat="21.727246393957337" lon="-102.45697221016574"><ele>1789.6</ele><time>2026-03-22T16:01:55.879Z</time></trkpt><trkpt lat="21.72723662037187" lon="-102.45686543955762"><ele>1789.4</ele><time>2026-03-22T16:01:56.879Z</time></trkpt><trkpt lat="21.7272262232152" lon="-102.45676189099105"><ele>1789.2</ele><time>2026-03-22T16:01:57.879Z</time></trkpt><trkpt lat="21.727214904485237" lon="-102.45665864008326"><ele>1789.0</ele><time>2026-03-22T16:01:58.879Z</time></trkpt><trkpt lat="21.727204600758814" lon="-102.45656006126016"><ele>1789.0000000000002</ele><time>2026-03-22T16:01:59.879Z</time></trkpt><trkpt lat="21.727194455757644" lon="-102.45645710439713"><ele>1789.0</ele><time>2026-03-22T16:02:00.879Z</time></trkpt><trkpt lat="21.72718489381729" lon="-102.45636331959672"><ele>1789.0</ele><time>2026-03-22T16:02:01.879Z</time></trkpt><trkpt lat="21.727177778588416" lon="-102.45627049245196"><ele>1789.0</ele><time>2026-03-22T16:02:02.879Z</time></trkpt><trkpt lat="21.727171280037233" lon="-102.45617704683163"><ele>1789.0000000000002</ele><time>2026-03-22T16:02:03.879Z</time></trkpt><trkpt lat="21.72715571341256" lon="-102.45608871249748"><ele>1789.0</ele><time>2026-03-22T16:02:04.879Z</time></trkpt><trkpt lat="21.727146214980852" lon="-102.45600577131762"><ele>1789.6666666666667</ele><time>2026-03-22T16:02:05.879Z</time></trkpt><trkpt lat="21.727148514470223" lon="-102.45591502986201"><ele>1790.3333333333335</ele><time>2026-03-22T16:02:06.879Z</time></trkpt><trkpt lat="21.727138137383985" lon="-102.45583096109635"><ele>1791.0</ele><time>2026-03-22T16:02:07.879Z</time></trkpt><trkpt lat="21.727128788277632" lon="-102.45575390951225"><ele>1791.6666666666665</ele><time>2026-03-22T16:02:08.879Z</time></trkpt><trkpt lat="21.727127464865134" lon="-102.45567344277585"><ele>1792.3333333333333</ele><time>2026-03-22T16:02:09.879Z</time></trkpt><trkpt lat="21.72711498410389" lon="-102.4555983779375"><ele>1793.0</ele><time>2026-03-22T16:02:10.879Z</time></trkpt><trkpt lat="21.727106556380637" lon="-102.45551665744809"><ele>1794.3333333333333</ele><time>2026-03-22T16:02:11.879Z</time></trkpt><trkpt lat="21.727100106990324" lon="-102.45543606301135"><ele>1795.6666666666665</ele><time>2026-03-22T16:02:12.879Z</time></trkpt><trkpt lat="21.727096762314407" lon="-102.45536598556265"><ele>1797.0</ele><time>2026-03-22T16:02:13.879Z</time></trkpt><trkpt lat="21.727085748296446" lon="-102.4552836095167"><ele>1798.3333333333335</ele><time>2026-03-22T16:02:14.879Z</time></trkpt><trkpt lat="21.727075742785768" lon="-102.4551424803154"><ele>1799.6666666666667</ele><time>2026-03-22T16:02:16.879Z</time></trkpt><trkpt lat="21.72706241164379" lon="-102.45506934631699"><ele>1801.0</ele><time>2026-03-22T16:02:17.879Z</time></trkpt><trkpt lat="21.727050859703883" lon="-102.45492629743647"><ele>1801.0000000000002</ele><time>2026-03-22T16:02:19.879Z</time></trkpt><trkpt lat="21.72704672594715" lon="-102.45485291321884"><ele>1801.0</ele><time>2026-03-22T16:02:20.879Z</time></trkpt><trkpt lat="21.727039569695794" lon="-102.45478302746803"><ele>1801.0</ele><time>2026-03-22T16:02:21.879Z</time></trkpt><trkpt lat="21.727034028070136" lon="-102.45470980355016"><ele>1801.0</ele><time>2026-03-22T16:02:22.879Z</time></trkpt><trkpt lat="21.727024393236615" lon="-102.4546306126654"><ele>1801.0000000000002</ele><time>2026-03-22T16:02:23.879Z</time></trkpt><trkpt lat="21.727014633523183" lon="-102.45450151444942"><ele>1801.0</ele><time>2026-03-22T16:02:25.879Z</time></trkpt><trkpt lat="21.72701025112441" lon="-102.45436646648017"><ele>1801.3333333333335</ele><time>2026-03-22T16:02:27.879Z</time></trkpt><trkpt lat="21.72700221464668" lon="-102.45422824658489"><ele>1801.6666666666667</ele><time>2026-03-22T16:02:29.879Z</time></trkpt><trkpt lat="21.72699085226843" lon="-102.45414888551329"><ele>1802.0</ele><time>2026-03-22T16:02:30.879Z</time></trkpt><trkpt lat="21.726974711211255" lon="-102.45407494166388"><ele>1802.3333333333335</ele><time>2026-03-22T16:02:31.879Z</time></trkpt><trkpt lat="21.72697138409402" lon="-102.45399727227772"><ele>1802.6666666666667</ele><time>2026-03-22T16:02:32.879Z</time></trkpt><trkpt lat="21.726968760707006" lon="-102.45392216522964"><ele>1803.0</ele><time>2026-03-22T16:02:33.879Z</time></trkpt><trkpt lat="21.726962626566813" lon="-102.45384650241347"><ele>1803.3333333333333</ele><time>2026-03-22T16:02:34.879Z</time></trkpt><trkpt lat="21.726955779271865" lon="-102.4537714819333"><ele>1803.6666666666665</ele><time>2026-03-22T16:02:35.878Z</time></trkpt><trkpt lat="21.726918184214625" lon="-102.4536967894965"><ele>1804.0</ele><time>2026-03-22T16:02:36.878Z</time></trkpt><trkpt lat="21.726910497906253" lon="-102.45361796064456"><ele>1804.3333333333333</ele><time>2026-03-22T16:02:37.878Z</time></trkpt><trkpt lat="21.72693362018044" lon="-102.4535342037083"><ele>1804.6666666666665</ele><time>2026-03-22T16:02:38.878Z</time></trkpt><trkpt lat="21.72692551123019" lon="-102.45345686260684"><ele>1805.0</ele><time>2026-03-22T16:02:39.878Z</time></trkpt><trkpt lat="21.726910469579114" lon="-102.45337742268786"><ele>1804.9999999999998</ele><time>2026-03-22T16:02:40.878Z</time></trkpt><trkpt lat="21.726906735695614" lon="-102.4533006311013"><ele>1805.0</ele><time>2026-03-22T16:02:41.878Z</time></trkpt><trkpt lat="21.72690177179223" lon="-102.45322375611558"><ele>1804.9999999999998</ele><time>2026-03-22T16:02:42.878Z</time></trkpt><trkpt lat="21.72689308545168" lon="-102.45314668058965"><ele>1804.9999999999998</ele><time>2026-03-22T16:02:43.878Z</time></trkpt><trkpt lat="21.72688846189245" lon="-102.45306589103464"><ele>1805.0</ele><time>2026-03-22T16:02:44.878Z</time></trkpt><trkpt lat="21.726876427672263" lon="-102.45298981917465"><ele>1804.9999999999998</ele><time>2026-03-22T16:02:45.878Z</time></trkpt><trkpt lat="21.72687608208246" lon="-102.45290013538771"><ele>1804.9999999999998</ele><time>2026-03-22T16:02:46.878Z</time></trkpt><trkpt lat="21.72688430242872" lon="-102.45281539351161"><ele>1804.9999999999998</ele><time>2026-03-22T16:02:47.878Z</time></trkpt><trkpt lat="21.726888166569793" lon="-102.45273428625117"><ele>1805.0</ele><time>2026-03-22T16:02:48.878Z</time></trkpt><trkpt lat="21.726893000080395" lon="-102.45265368814339"><ele>1805.0</ele><time>2026-03-22T16:02:49.878Z</time></trkpt><trkpt lat="21.726907900734513" lon="-102.45257367335304"><ele>1805.0</ele><time>2026-03-22T16:02:50.878Z</time></trkpt><trkpt lat="21.72692629095294" lon="-102.45249396297119"><ele>1804.9999999999998</ele><time>2026-03-22T16:02:51.878Z</time></trkpt><trkpt lat="21.72694568353495" lon="-102.45241065374054"><ele>1805.0</ele><time>2026-03-22T16:02:52.878Z</time></trkpt><trkpt lat="21.726966759221998" lon="-102.45233243234173"><ele>1804.9999999999998</ele><time>2026-03-22T16:02:53.878Z</time></trkpt><trkpt lat="21.72699501643807" lon="-102.45224999103344"><ele>1805.0</ele><time>2026-03-22T16:02:54.878Z</time></trkpt><trkpt lat="21.727025748833597" lon="-102.45217280527875"><ele>1805.0</ele><time>2026-03-22T16:02:55.878Z</time></trkpt><trkpt lat="21.727062272359596" lon="-102.45209822175033"><ele>1805.0</ele><time>2026-03-22T16:02:56.878Z</time></trkpt><trkpt lat="21.72709593755338" lon="-102.45202300623065"><ele>1804.9999999999998</ele><time>2026-03-22T16:02:57.878Z</time></trkpt><trkpt lat="21.727137520837555" lon="-102.45195118666216"><ele>1805.0</ele><time>2026-03-22T16:02:58.878Z</time></trkpt><trkpt lat="21.727181793335472" lon="-102.45187732902612"><ele>1805.3333333333333</ele><time>2026-03-22T16:02:59.878Z</time></trkpt><trkpt lat="21.727228773219107" lon="-102.45181039467926"><ele>1805.6666666666665</ele><time>2026-03-22T16:03:00.878Z</time></trkpt><trkpt lat="21.727271075704294" lon="-102.4517448561669"><ele>1806.0</ele><time>2026-03-22T16:03:01.878Z</time></trkpt><trkpt lat="21.727317438161247" lon="-102.45168132553708"><ele>1806.3333333333335</ele><time>2026-03-22T16:03:02.878Z</time></trkpt><trkpt lat="21.727375379249654" lon="-102.45161243954688"><ele>1806.6666666666667</ele><time>2026-03-22T16:03:03.878Z</time></trkpt><trkpt lat="21.727416089211534" lon="-102.45155758182956"><ele>1807.0</ele><time>2026-03-22T16:03:04.878Z</time></trkpt><trkpt lat="21.727469344251407" lon="-102.45149544676009"><ele>1807.0000000000002</ele><time>2026-03-22T16:03:05.878Z</time></trkpt><trkpt lat="21.727519665238752" lon="-102.45143479672137"><ele>1807.0</ele><time>2026-03-22T16:03:06.878Z</time></trkpt><trkpt lat="21.727571663990588" lon="-102.45137110892917"><ele>1807.0</ele><time>2026-03-22T16:03:07.878Z</time></trkpt><trkpt lat="21.727626306226718" lon="-102.45130553214854"><ele>1807.0</ele><time>2026-03-22T16:03:08.878Z</time></trkpt><trkpt lat="21.727672343734113" lon="-102.45124209976541"><ele>1807.0000000000002</ele><time>2026-03-22T16:03:09.878Z</time></trkpt><trkpt lat="21.72772762067669" lon="-102.45117565587351"><ele>1807.0</ele><time>2026-03-22T16:03:10.878Z</time></trkpt><trkpt lat="21.727784369176035" lon="-102.45111083395003"><ele>1807.1666666666667</ele><time>2026-03-22T16:03:11.878Z</time></trkpt><trkpt lat="21.72783342469345" lon="-102.45104079813336"><ele>1807.3333333333335</ele><time>2026-03-22T16:03:12.878Z</time></trkpt><trkpt lat="21.727878909861225" lon="-102.45097894905349"><ele>1807.5</ele><time>2026-03-22T16:03:13.878Z</time></trkpt><trkpt lat="21.72792619544831" lon="-102.450911587346"><ele>1807.6666666666665</ele><time>2026-03-22T16:03:14.878Z</time></trkpt><trkpt lat="21.72798504765398" lon="-102.45084184504685"><ele>1807.8333333333333</ele><time>2026-03-22T16:03:15.878Z</time></trkpt><trkpt lat="21.728040692791232" lon="-102.45077261464637"><ele>1808.0</ele><time>2026-03-22T16:03:16.878Z</time></trkpt><trkpt lat="21.72810266323049" lon="-102.45070472599619"><ele>1808.0</ele><time>2026-03-22T16:03:17.878Z</time></trkpt><trkpt lat="21.7281656397504" lon="-102.45063605016469"><ele>1808.0000000000002</ele><time>2026-03-22T16:03:18.877Z</time></trkpt><trkpt lat="21.72822962762586" lon="-102.45057167985135"><ele>1808.0000000000002</ele><time>2026-03-22T16:03:19.877Z</time></trkpt><trkpt lat="21.728298890590512" lon="-102.45050427563504"><ele>1808.0</ele><time>2026-03-22T16:03:20.877Z</time></trkpt><trkpt lat="21.728372366526308" lon="-102.45044510223654"><ele>1808.0</ele><time>2026-03-22T16:03:21.877Z</time></trkpt><trkpt lat="21.72844715563432" lon="-102.45039000936389"><ele>1807.0</ele><time>2026-03-22T16:03:22.877Z</time></trkpt><trkpt lat="21.72853025362957" lon="-102.45033870174262"><ele>1806.0000000000002</ele><time>2026-03-22T16:03:23.877Z</time></trkpt><trkpt lat="21.728611613595657" lon="-102.45029531163797"><ele>1805.0000000000002</ele><time>2026-03-22T16:03:24.877Z</time></trkpt><trkpt lat="21.72869663256544" lon="-102.45025253298698"><ele>1804.0</ele><time>2026-03-22T16:03:25.877Z</time></trkpt><trkpt lat="21.728777649708682" lon="-102.4502202648474"><ele>1803.0</ele><time>2026-03-22T16:03:26.877Z</time></trkpt><trkpt lat="21.728877731656794" lon="-102.45017365471915"><ele>1803.0</ele><time>2026-03-22T16:03:27.877Z</time></trkpt><trkpt lat="21.72896540685444" lon="-102.45014682629699"><ele>1803.0000000000002</ele><time>2026-03-22T16:03:28.877Z</time></trkpt><trkpt lat="21.729054829162077" lon="-102.45011363090359"><ele>1803.0000000000002</ele><time>2026-03-22T16:03:29.877Z</time></trkpt><trkpt lat="21.72914801018231" lon="-102.45007957518963"><ele>1803.0</ele><time>2026-03-22T16:03:30.877Z</time></trkpt><trkpt lat="21.72924561754923" lon="-102.45005343269167"><ele>1803.0</ele><time>2026-03-22T16:03:31.877Z</time></trkpt><trkpt lat="21.72933423305641" lon="-102.45002053566357"><ele>1803.6000000000001</ele><time>2026-03-22T16:03:32.877Z</time></trkpt><trkpt lat="21.729421160923387" lon="-102.44999011982387"><ele>1804.2000000000003</ele><time>2026-03-22T16:03:33.877Z</time></trkpt><trkpt lat="21.729515730257383" lon="-102.44995837251314"><ele>1804.8</ele><time>2026-03-22T16:03:34.877Z</time></trkpt><trkpt lat="21.72960743936006" lon="-102.44993146106866"><ele>1805.4</ele><time>2026-03-22T16:03:35.877Z</time></trkpt><trkpt lat="21.729701041398155" lon="-102.4498853966767"><ele>1806.0</ele><time>2026-03-22T16:03:36.877Z</time></trkpt><trkpt lat="21.729789505302104" lon="-102.44983321912189"><ele>1806.0</ele><time>2026-03-22T16:03:37.877Z</time></trkpt><trkpt lat="21.729871898382132" lon="-102.44976800024655"><ele>1806.0</ele><time>2026-03-22T16:03:38.877Z</time></trkpt><trkpt lat="21.729952086735935" lon="-102.44968985795111"><ele>1806.0</ele><time>2026-03-22T16:03:39.877Z</time></trkpt><trkpt lat="21.73000899938997" lon="-102.4496022208761"><ele>1806.0</ele><time>2026-03-22T16:03:40.877Z</time></trkpt><trkpt lat="21.730060127709084" lon="-102.44949056302441"><ele>1806.0</ele><time>2026-03-22T16:03:41.877Z</time></trkpt><trkpt lat="21.730081727462853" lon="-102.44937739783997"><ele>1804.0</ele><time>2026-03-22T16:03:42.877Z</time></trkpt><trkpt lat="21.730097951017147" lon="-102.44925585620673"><ele>1802.0</ele><time>2026-03-22T16:03:43.877Z</time></trkpt><trkpt lat="21.730101668087006" lon="-102.44913992306998"><ele>1800.0</ele><time>2026-03-22T16:03:44.877Z</time></trkpt><trkpt lat="21.730095796136393" lon="-102.44901736399586"><ele>1798.0</ele><time>2026-03-22T16:03:45.877Z</time></trkpt><trkpt lat="21.730094286471886" lon="-102.44890186841954"><ele>1796.0</ele><time>2026-03-22T16:03:46.877Z</time></trkpt><trkpt lat="21.73009484134984" lon="-102.44878467141136"><ele>1796.0</ele><time>2026-03-22T16:03:47.877Z</time></trkpt><trkpt lat="21.73009429094872" lon="-102.44867000913295"><ele>1796.0</ele><time>2026-03-22T16:03:48.878Z</time></trkpt><trkpt lat="21.730098055655862" lon="-102.4485497176595"><ele>1796.0</ele><time>2026-03-22T16:03:49.877Z</time></trkpt><trkpt lat="21.73010049493201" lon="-102.44843917962737"><ele>1796.0</ele><time>2026-03-22T16:03:50.877Z</time></trkpt><trkpt lat="21.73010166935155" lon="-102.44832469077397"><ele>1796.0</ele><time>2026-03-22T16:03:51.877Z</time></trkpt><trkpt lat="21.73010384618931" lon="-102.44821611389075"><ele>1796.0</ele><time>2026-03-22T16:03:52.878Z</time></trkpt><trkpt lat="21.73010241954022" lon="-102.44810703737478"><ele>1796.0</ele><time>2026-03-22T16:03:53.878Z</time></trkpt><trkpt lat="21.73010112643784" lon="-102.44799832718721"><ele>1796.0</ele><time>2026-03-22T16:03:54.877Z</time></trkpt><trkpt lat="21.73010098553848" lon="-102.44789561839518"><ele>1796.0</ele><time>2026-03-22T16:03:55.878Z</time></trkpt><trkpt lat="21.730100662822235" lon="-102.4477873909339"><ele>1796.0</ele><time>2026-03-22T16:03:56.878Z</time></trkpt><trkpt lat="21.730102290654546" lon="-102.44768179400323"><ele>1796.6</ele><time>2026-03-22T16:03:57.878Z</time></trkpt><trkpt lat="21.730103767781692" lon="-102.44758146112662"><ele>1797.1999999999998</ele><time>2026-03-22T16:03:58.878Z</time></trkpt><trkpt lat="21.73010361488987" lon="-102.4474847188578"><ele>1797.8000000000002</ele><time>2026-03-22T16:03:59.878Z</time></trkpt><trkpt lat="21.73010369428298" lon="-102.44738225628673"><ele>1798.4</ele><time>2026-03-22T16:04:00.878Z</time></trkpt><trkpt lat="21.730100652617796" lon="-102.44729074972207"><ele>1799.0</ele><time>2026-03-22T16:04:01.878Z</time></trkpt><trkpt lat="21.730098679182667" lon="-102.44719132336233"><ele>1798.6666666666665</ele><time>2026-03-22T16:04:02.878Z</time></trkpt><trkpt lat="21.730102407402274" lon="-102.44709562910631"><ele>1798.3333333333333</ele><time>2026-03-22T16:04:03.878Z</time></trkpt><trkpt lat="21.730101250007483" lon="-102.44700082780815"><ele>1798.0</ele><time>2026-03-22T16:04:04.878Z</time></trkpt><trkpt lat="21.730101542490875" lon="-102.44690388987478"><ele>1797.6666666666665</ele><time>2026-03-22T16:04:05.878Z</time></trkpt><trkpt lat="21.730101786241793" lon="-102.44680498047784"><ele>1797.3333333333333</ele><time>2026-03-22T16:04:06.878Z</time></trkpt><trkpt lat="21.73009878034966" lon="-102.44671216791883"><ele>1797.0</ele><time>2026-03-22T16:04:07.878Z</time></trkpt><trkpt lat="21.730093997740084" lon="-102.44661534247074"><ele>1797.0</ele><time>2026-03-22T16:04:08.878Z</time></trkpt><trkpt lat="21.73009844657633" lon="-102.44652077546753"><ele>1797.0</ele><time>2026-03-22T16:04:09.878Z</time></trkpt><trkpt lat="21.73009879867884" lon="-102.44642328808729"><ele>1797.0</ele><time>2026-03-22T16:04:10.878Z</time></trkpt><trkpt lat="21.73009846084184" lon="-102.44633343583273"><ele>1797.0</ele><time>2026-03-22T16:04:11.877Z</time></trkpt><trkpt lat="21.73009758495367" lon="-102.44624025936128"><ele>1797.0</ele><time>2026-03-22T16:04:12.877Z</time></trkpt><trkpt lat="21.73009479928499" lon="-102.44615068014483"><ele>1797.0</ele><time>2026-03-22T16:04:13.877Z</time></trkpt><trkpt lat="21.730092811121292" lon="-102.44605852299064"><ele>1797.6666666666667</ele><time>2026-03-22T16:04:14.877Z</time></trkpt><trkpt lat="21.730084770471706" lon="-102.44596525809398"><ele>1798.3333333333335</ele><time>2026-03-22T16:04:15.877Z</time></trkpt><trkpt lat="21.730077343993297" lon="-102.44586824227673"><ele>1799.0</ele><time>2026-03-22T16:04:16.877Z</time></trkpt><trkpt lat="21.73005416071791" lon="-102.44578603605875"><ele>1799.6666666666667</ele><time>2026-03-22T16:04:17.877Z</time></trkpt><trkpt lat="21.73003273813587" lon="-102.44569828367308"><ele>1800.3333333333335</ele><time>2026-03-22T16:04:18.877Z</time></trkpt><trkpt lat="21.72999523962105" lon="-102.4456079814791"><ele>1801.0</ele><time>2026-03-22T16:04:19.877Z</time></trkpt><trkpt lat="21.729954226109584" lon="-102.44552612274042"><ele>1801.1666666666667</ele><time>2026-03-22T16:04:20.877Z</time></trkpt><trkpt lat="21.729906709102035" lon="-102.44544987583605"><ele>1801.3333333333335</ele><time>2026-03-22T16:04:21.877Z</time></trkpt><trkpt lat="21.729854492544934" lon="-102.44537614342372"><ele>1801.5</ele><time>2026-03-22T16:04:22.877Z</time></trkpt><trkpt lat="21.72979405565919" lon="-102.44530611290735"><ele>1801.6666666666665</ele><time>2026-03-22T16:04:23.877Z</time></trkpt><trkpt lat="21.72973455853802" lon="-102.4452343378629"><ele>1801.8333333333333</ele><time>2026-03-22T16:04:24.877Z</time></trkpt><trkpt lat="21.729673527994976" lon="-102.44517478425449"><ele>1802.0</ele><time>2026-03-22T16:04:25.877Z</time></trkpt><trkpt lat="21.729606734161358" lon="-102.4451059627455"><ele>1801.9999999999998</ele><time>2026-03-22T16:04:26.877Z</time></trkpt><trkpt lat="21.729544397911877" lon="-102.44505071995633"><ele>1802.0</ele><time>2026-03-22T16:04:27.877Z</time></trkpt><trkpt lat="21.72948569568094" lon="-102.44499591458501"><ele>1802.0</ele><time>2026-03-22T16:04:28.877Z</time></trkpt><trkpt lat="21.729420878023113" lon="-102.44493616991241"><ele>1802.0</ele><time>2026-03-22T16:04:29.877Z</time></trkpt><trkpt lat="21.729360646763595" lon="-102.44487529666473"><ele>1801.9999999999998</ele><time>2026-03-22T16:04:30.877Z</time></trkpt><trkpt lat="21.72929739529664" lon="-102.4448123249093"><ele>1802.0</ele><time>2026-03-22T16:04:31.877Z</time></trkpt><trkpt lat="21.72923418785766" lon="-102.44475180747038"><ele>1802.1666666666665</ele><time>2026-03-22T16:04:32.877Z</time></trkpt><trkpt lat="21.729172699175248" lon="-102.44469411347968"><ele>1802.3333333333333</ele><time>2026-03-22T16:04:33.877Z</time></trkpt><trkpt lat="21.72910724513912" lon="-102.44463410804532"><ele>1802.5</ele><time>2026-03-22T16:04:34.877Z</time></trkpt><trkpt lat="21.729043920497535" lon="-102.44457306617939"><ele>1802.6666666666665</ele><time>2026-03-22T16:04:35.877Z</time></trkpt><trkpt lat="21.728978468348068" lon="-102.44451393936174"><ele>1802.8333333333333</ele><time>2026-03-22T16:04:36.877Z</time></trkpt><trkpt lat="21.728916365405855" lon="-102.44445521056879"><ele>1803.0</ele><time>2026-03-22T16:04:37.877Z</time></trkpt><trkpt lat="21.72884951502626" lon="-102.44439154731185"><ele>1803.0</ele><time>2026-03-22T16:04:38.877Z</time></trkpt><trkpt lat="21.72877901698421" lon="-102.44433341072948"><ele>1803.0</ele><time>2026-03-22T16:04:39.877Z</time></trkpt><trkpt lat="21.728717924616316" lon="-102.44427157799524"><ele>1803.0</ele><time>2026-03-22T16:04:40.877Z</time></trkpt><trkpt lat="21.72865300098003" lon="-102.44420318155966"><ele>1803.0</ele><time>2026-03-22T16:04:41.877Z</time></trkpt><trkpt lat="21.728589595133258" lon="-102.44414421562753"><ele>1803.0</ele><time>2026-03-22T16:04:42.877Z</time></trkpt><trkpt lat="21.728519336451726" lon="-102.44408122767534"><ele>1803.0</ele><time>2026-03-22T16:04:43.877Z</time></trkpt><trkpt lat="21.72846366088559" lon="-102.44401721034754"><ele>1803.0</ele><time>2026-03-22T16:04:44.877Z</time></trkpt><trkpt lat="21.72840024908284" lon="-102.44395198157792"><ele>1803.0</ele><time>2026-03-22T16:04:45.877Z</time></trkpt><trkpt lat="21.728340527491895" lon="-102.44388998296891"><ele>1803.0</ele><time>2026-03-22T16:04:46.877Z</time></trkpt><trkpt lat="21.728279224917888" lon="-102.44381671725654"><ele>1803.0</ele><time>2026-03-22T16:04:47.877Z</time></trkpt><trkpt lat="21.728231118877716" lon="-102.44374225077785"><ele>1803.0</ele><time>2026-03-22T16:04:48.877Z</time></trkpt><trkpt lat="21.728174943571137" lon="-102.44366537017136"><ele>1803.0</ele><time>2026-03-22T16:04:49.877Z</time></trkpt><trkpt lat="21.728128397663806" lon="-102.44360883176486"><ele>1803.3333333333333</ele><time>2026-03-22T16:04:50.877Z</time></trkpt><trkpt lat="21.72808371819892" lon="-102.44352341636105"><ele>1803.6666666666665</ele><time>2026-03-22T16:04:51.877Z</time></trkpt><trkpt lat="21.728032275168243" lon="-102.44345109143151"><ele>1804.0</ele><time>2026-03-22T16:04:52.877Z</time></trkpt><trkpt lat="21.727990061998486" lon="-102.44336285252851"><ele>1804.3333333333333</ele><time>2026-03-22T16:04:53.877Z</time></trkpt><trkpt lat="21.727951171012798" lon="-102.44327893123987"><ele>1804.6666666666665</ele><time>2026-03-22T16:04:54.876Z</time></trkpt><trkpt lat="21.727916849335816" lon="-102.44319805287313"><ele>1805.0</ele><time>2026-03-22T16:04:55.876Z</time></trkpt><trkpt lat="21.72788301032974" lon="-102.44311787421883"><ele>1804.9999999999998</ele><time>2026-03-22T16:04:56.876Z</time></trkpt><trkpt lat="21.72785058546363" lon="-102.44303577234658"><ele>1805.0</ele><time>2026-03-22T16:04:57.876Z</time></trkpt><trkpt lat="21.72782168153398" lon="-102.44295763406961"><ele>1805.0</ele><time>2026-03-22T16:04:58.876Z</time></trkpt><trkpt lat="21.727787759768646" lon="-102.4428816163721"><ele>1805.0</ele><time>2026-03-22T16:04:59.876Z</time></trkpt><trkpt lat="21.72775815014262" lon="-102.44279204162683"><ele>1804.9999999999998</ele><time>2026-03-22T16:05:00.876Z</time></trkpt><trkpt lat="21.727726449960993" lon="-102.44271545981721"><ele>1805.0</ele><time>2026-03-22T16:05:01.876Z</time></trkpt><trkpt lat="21.727693334986913" lon="-102.44264963797701"><ele>1805.0</ele><time>2026-03-22T16:05:02.876Z</time></trkpt><trkpt lat="21.72765725146942" lon="-102.44257036873607"><ele>1805.0</ele><time>2026-03-22T16:05:03.876Z</time></trkpt><trkpt lat="21.727634947194442" lon="-102.44249730531877"><ele>1805.0</ele><time>2026-03-22T16:05:04.876Z</time></trkpt><trkpt lat="21.727611111276534" lon="-102.44242902744278"><ele>1805.0</ele><time>2026-03-22T16:05:05.876Z</time></trkpt><trkpt lat="21.72756023873166" lon="-102.4423069310677"><ele>1805.0</ele><time>2026-03-22T16:05:07.876Z</time></trkpt><trkpt lat="21.72751740631296" lon="-102.4421954361061"><ele>1807.0</ele><time>2026-03-22T16:05:09.876Z</time></trkpt><trkpt lat="21.727473746566194" lon="-102.4420789472971"><ele>1809.0</ele><time>2026-03-22T16:05:11.876Z</time></trkpt><trkpt lat="21.727434918051927" lon="-102.441978841114"><ele>1811.0</ele><time>2026-03-22T16:05:13.876Z</time></trkpt><trkpt lat="21.727391888683172" lon="-102.44187637904561"><ele>1813.0</ele><time>2026-03-22T16:05:15.876Z</time></trkpt><trkpt lat="21.72735789933906" lon="-102.44178605999996"><ele>1815.0</ele><time>2026-03-22T16:05:17.876Z</time></trkpt><trkpt lat="21.72731039791561" lon="-102.44167375024045"><ele>1815.0</ele><time>2026-03-22T16:05:19.876Z</time></trkpt><trkpt lat="21.72726896008673" lon="-102.44155787992383"><ele>1815.0</ele><time>2026-03-22T16:05:21.876Z</time></trkpt><trkpt lat="21.727233886378787" lon="-102.44145591367462"><ele>1815.0</ele><time>2026-03-22T16:05:23.876Z</time></trkpt><trkpt lat="21.72719202657017" lon="-102.44135511566367"><ele>1815.0</ele><time>2026-03-22T16:05:25.876Z</time></trkpt><trkpt lat="21.727151520256594" lon="-102.44124108422734"><ele>1815.0</ele><time>2026-03-22T16:05:27.876Z</time></trkpt><trkpt lat="21.727113472936058" lon="-102.44112453861887"><ele>1815.6666666666667</ele><time>2026-03-22T16:05:29.876Z</time></trkpt><trkpt lat="21.727096935503393" lon="-102.44105795949058"><ele>1816.3333333333335</ele><time>2026-03-22T16:05:30.876Z</time></trkpt><trkpt lat="21.727085756873443" lon="-102.44098797238063"><ele>1817.0</ele><time>2026-03-22T16:05:31.876Z</time></trkpt><trkpt lat="21.72707368183638" lon="-102.44091778104082"><ele>1817.6666666666667</ele><time>2026-03-22T16:05:32.876Z</time></trkpt><trkpt lat="21.727052028090664" lon="-102.44078465282064"><ele>1818.3333333333335</ele><time>2026-03-22T16:05:34.876Z</time></trkpt><trkpt lat="21.727038967143322" lon="-102.44070717387174"><ele>1819.0</ele><time>2026-03-22T16:05:35.876Z</time></trkpt><trkpt lat="21.727034535011658" lon="-102.44063111660141"><ele>1819.0000000000002</ele><time>2026-03-22T16:05:36.876Z</time></trkpt><trkpt lat="21.727030845939645" lon="-102.44055511277499"><ele>1819.0</ele><time>2026-03-22T16:05:37.875Z</time></trkpt><trkpt lat="21.72702734422523" lon="-102.44048422956114"><ele>1819.0</ele><time>2026-03-22T16:05:38.875Z</time></trkpt><trkpt lat="21.72702033881884" lon="-102.44034052260389"><ele>1819.0</ele><time>2026-03-22T16:05:40.875Z</time></trkpt><trkpt lat="21.72702143023843" lon="-102.44026687617918"><ele>1819.0000000000002</ele><time>2026-03-22T16:05:41.875Z</time></trkpt><trkpt lat="21.727024003192316" lon="-102.44018814417926"><ele>1819.0</ele><time>2026-03-22T16:05:42.875Z</time></trkpt><trkpt lat="21.727027498848848" lon="-102.44010619601633"><ele>1819.0</ele><time>2026-03-22T16:05:43.875Z</time></trkpt><trkpt lat="21.727034952517" lon="-102.44002012551036"><ele>1819.0</ele><time>2026-03-22T16:05:44.875Z</time></trkpt><trkpt lat="21.727038853922753" lon="-102.43993492833212"><ele>1819.0</ele><time>2026-03-22T16:05:45.875Z</time></trkpt><trkpt lat="21.727048116823774" lon="-102.43984795044554"><ele>1819.0</ele><time>2026-03-22T16:05:46.875Z</time></trkpt><trkpt lat="21.72705778729183" lon="-102.4397593411149"><ele>1819.0</ele><time>2026-03-22T16:05:47.875Z</time></trkpt><trkpt lat="21.72735789933906" lon="-102.44178605999996"><ele>1819.0</ele><time>2026-03-22T16:05:17.876Z</time></trkpt><trkpt lat="21.72731039791561" lon="-102.44167375024045"><ele>1819.0</ele><time>2026-03-22T16:05:19.876Z</time></trkpt><trkpt lat="21.72726896008673" lon="-102.44155787992383"><ele>1819.0</ele><time>2026-03-22T16:05:21.876Z</time></trkpt><trkpt lat="21.727233886378787" lon="-102.44145591367462"><ele>1819.0</ele><time>2026-03-22T16:05:23.876Z</time></trkpt><trkpt lat="21.72719202657017" lon="-102.44135511566367"><ele>1819.0</ele><time>2026-03-22T16:05:25.876Z</time></trkpt><trkpt lat="21.727151520256594" lon="-102.44124108422734"><ele>1819.0000000000002</ele><time>2026-03-22T16:05:27.876Z</time></trkpt><trkpt lat="21.727113472936058" lon="-102.44112453861887"><ele>1819.0</ele><time>2026-03-22T16:05:29.876Z</time></trkpt><trkpt lat="21.727096935503393" lon="-102.44105795949058"><ele>1819.0</ele><time>2026-03-22T16:05:30.876Z</time></trkpt><trkpt lat="21.727085756873443" lon="-102.44098797238063"><ele>1819.0</ele><time>2026-03-22T16:05:31.876Z</time></trkpt><trkpt lat="21.72707368183638" lon="-102.44091778104082"><ele>1819.0000000000002</ele><time>2026-03-22T16:05:32.876Z</time></trkpt><trkpt lat="21.727052028090664" lon="-102.44078465282064"><ele>1819.0</ele><time>2026-03-22T16:05:34.876Z</time></trkpt><trkpt lat="21.727038967143322" lon="-102.44070717387174"><ele>1819.0000000000002</ele><time>2026-03-22T16:05:35.876Z</time></trkpt><trkpt lat="21.727034535011658" lon="-102.44063111660141"><ele>1819.0</ele><time>2026-03-22T16:05:36.876Z</time></trkpt><trkpt lat="21.727030845939645" lon="-102.44055511277499"><ele>1819.0</ele><time>2026-03-22T16:05:37.875Z</time></trkpt><trkpt lat="21.72702734422523" lon="-102.44048422956114"><ele>1819.0</ele><time>2026-03-22T16:05:38.875Z</time></trkpt><trkpt lat="21.72702033881884" lon="-102.44034052260389"><ele>1819.0000000000002</ele><time>2026-03-22T16:05:40.875Z</time></trkpt><trkpt lat="21.72702143023843" lon="-102.44026687617918"><ele>1819.0</ele><time>2026-03-22T16:05:41.875Z</time></trkpt><trkpt lat="21.727024003192316" lon="-102.44018814417926"><ele>1819.0000000000002</ele><time>2026-03-22T16:05:42.875Z</time></trkpt><trkpt lat="21.727027498848848" lon="-102.44010619601633"><ele>1819.0</ele><time>2026-03-22T16:05:43.875Z</time></trkpt><trkpt lat="21.727034952517" lon="-102.44002012551036"><ele>1819.0</ele><time>2026-03-22T16:05:44.875Z</time></trkpt><trkpt lat="21.727038853922753" lon="-102.43993492833212"><ele>1819.0</ele><time>2026-03-22T16:05:45.875Z</time></trkpt><trkpt lat="21.727048116823774" lon="-102.43984795044554"><ele>1819.0000000000002</ele><time>2026-03-22T16:05:46.875Z</time></trkpt><trkpt lat="21.72705778729183" lon="-102.4397593411149"><ele>1819.0</ele><time>2026-03-22T16:05:47.875Z</time></trkpt><trkpt lat="21.727071881087813" lon="-102.43966653079922"><ele>1818.8000000000002</ele><time>2026-03-22T16:05:48.875Z</time></trkpt><trkpt lat="21.72708370055799" lon="-102.4395614362519"><ele>1818.6000000000001</ele><time>2026-03-22T16:05:49.875Z</time></trkpt><trkpt lat="21.727089437354262" lon="-102.43946122742764"><ele>1818.4</ele><time>2026-03-22T16:05:50.875Z</time></trkpt><trkpt lat="21.72708861424984" lon="-102.43935153640034"><ele>1818.2</ele><time>2026-03-22T16:05:51.875Z</time></trkpt><trkpt lat="21.727079722398884" lon="-102.43924818490738"><ele>1818.0</ele><time>2026-03-22T16:05:52.875Z</time></trkpt><trkpt lat="21.72706316942773" lon="-102.43914176528222"><ele>1818.0</ele><time>2026-03-22T16:05:53.875Z</time></trkpt><trkpt lat="21.727032884702517" lon="-102.43904156541848"><ele>1818.0000000000002</ele><time>2026-03-22T16:05:54.877Z</time></trkpt><trkpt lat="21.726991758950128" lon="-102.43893981137379"><ele>1818.0000000000002</ele><time>2026-03-22T16:05:55.876Z</time></trkpt><trkpt lat="21.726934479895803" lon="-102.43884423000759"><ele>1818.0</ele><time>2026-03-22T16:05:56.876Z</time></trkpt><trkpt lat="21.72686817510539" lon="-102.43875202035964"><ele>1818.0</ele><time>2026-03-22T16:05:57.877Z</time></trkpt><trkpt lat="21.726790169124026" lon="-102.43867812230712"><ele>1816.2</ele><time>2026-03-22T16:05:58.876Z</time></trkpt><trkpt lat="21.726701988502512" lon="-102.4386114811029"><ele>1814.4</ele><time>2026-03-22T16:05:59.876Z</time></trkpt><trkpt lat="21.7266072616132" lon="-102.43855530766434"><ele>1812.6000000000001</ele><time>2026-03-22T16:06:00.876Z</time></trkpt><trkpt lat="21.72650455565863" lon="-102.4385108179509"><ele>1810.8000000000002</ele><time>2026-03-22T16:06:01.877Z</time></trkpt><trkpt lat="21.72639927888104" lon="-102.4384721980325"><ele>1809.0</ele><time>2026-03-22T16:06:02.877Z</time></trkpt><trkpt lat="21.72628881328254" lon="-102.43844228765019"><ele>1809.0</ele><time>2026-03-22T16:06:03.877Z</time></trkpt><trkpt lat="21.726188852570406" lon="-102.43842559637864"><ele>1809.0</ele><time>2026-03-22T16:06:04.876Z</time></trkpt><trkpt lat="21.72608285720445" lon="-102.43840823980949"><ele>1809.0</ele><time>2026-03-22T16:06:05.876Z</time></trkpt><trkpt lat="21.72597981776853" lon="-102.43838089918427"><ele>1809.0</ele><time>2026-03-22T16:06:06.876Z</time></trkpt><trkpt lat="21.72587482754501" lon="-102.43835373735735"><ele>1809.0</ele><time>2026-03-22T16:06:07.876Z</time></trkpt><trkpt lat="21.725771388246514" lon="-102.43832836166362"><ele>1808.0</ele><time>2026-03-22T16:06:08.876Z</time></trkpt><trkpt lat="21.725664849014812" lon="-102.4382997637178"><ele>1807.0</ele><time>2026-03-22T16:06:09.876Z</time></trkpt><trkpt lat="21.72556520303244" lon="-102.43827035972326"><ele>1806.0</ele><time>2026-03-22T16:06:10.876Z</time></trkpt><trkpt lat="21.72546852068528" lon="-102.43824454839572"><ele>1805.0</ele><time>2026-03-22T16:06:11.876Z</time></trkpt><trkpt lat="21.725368194482925" lon="-102.43821289063874"><ele>1804.0</ele><time>2026-03-22T16:06:12.876Z</time></trkpt><trkpt lat="21.725270081790057" lon="-102.43816965844492"><ele>1804.0</ele><time>2026-03-22T16:06:13.876Z</time></trkpt><trkpt lat="21.725180975949577" lon="-102.4381108196446"><ele>1804.0</ele><time>2026-03-22T16:06:14.876Z</time></trkpt><trkpt lat="21.725096060265685" lon="-102.43804082348791"><ele>1804.0</ele><time>2026-03-22T16:06:15.876Z</time></trkpt><trkpt lat="21.72501760466505" lon="-102.43796149332475"><ele>1804.0</ele><time>2026-03-22T16:06:16.876Z</time></trkpt><trkpt lat="21.72495447045552" lon="-102.43786948953861"><ele>1804.0</ele><time>2026-03-22T16:06:17.876Z</time></trkpt><trkpt lat="21.724899903932254" lon="-102.43777022374549"><ele>1804.0</ele><time>2026-03-22T16:06:18.876Z</time></trkpt><trkpt lat="21.724851507610843" lon="-102.43765844478472"><ele>1804.0</ele><time>2026-03-22T16:06:19.876Z</time></trkpt><trkpt lat="21.724825572186226" lon="-102.43754685008696"><ele>1804.0</ele><time>2026-03-22T16:06:20.876Z</time></trkpt><trkpt lat="21.724806904388725" lon="-102.43743375567381"><ele>1804.0</ele><time>2026-03-22T16:06:21.876Z</time></trkpt><trkpt lat="21.72480368321668" lon="-102.43731739006547"><ele>1804.0</ele><time>2026-03-22T16:06:22.876Z</time></trkpt><trkpt lat="21.724803011405193" lon="-102.43719733007174"><ele>1804.2</ele><time>2026-03-22T16:06:23.876Z</time></trkpt><trkpt lat="21.724801835720427" lon="-102.43708058392488"><ele>1804.4</ele><time>2026-03-22T16:06:24.876Z</time></trkpt><trkpt lat="21.724798390057042" lon="-102.4369647113416"><ele>1804.6</ele><time>2026-03-22T16:06:25.876Z</time></trkpt><trkpt lat="21.72479506148111" lon="-102.43684294971705"><ele>1804.8</ele><time>2026-03-22T16:06:26.875Z</time></trkpt><trkpt lat="21.724789429642172" lon="-102.43672442097743"><ele>1805.0</ele><time>2026-03-22T16:06:27.875Z</time></trkpt><trkpt lat="21.724785991788025" lon="-102.43659982180868"><ele>1805.0</ele><time>2026-03-22T16:06:28.875Z</time></trkpt><trkpt lat="21.72478199430715" lon="-102.43647968167627"><ele>1805.0</ele><time>2026-03-22T16:06:29.875Z</time></trkpt><trkpt lat="21.72478406452465" lon="-102.4363564039135"><ele>1805.0</ele><time>2026-03-22T16:06:30.875Z</time></trkpt><trkpt lat="21.724794114680495" lon="-102.43623127362272"><ele>1805.0</ele><time>2026-03-22T16:06:31.875Z</time></trkpt><trkpt lat="21.724819433843972" lon="-102.43611702002711"><ele>1803.25</ele><time>2026-03-22T16:06:32.875Z</time></trkpt><trkpt lat="21.7248547741061" lon="-102.43600036423449"><ele>1801.5</ele><time>2026-03-22T16:06:33.875Z</time></trkpt><trkpt lat="21.724896129380898" lon="-102.43587915992067"><ele>1799.75</ele><time>2026-03-22T16:06:34.875Z</time></trkpt><trkpt lat="21.724945909521974" lon="-102.43576267535117"><ele>1798.0</ele><time>2026-03-22T16:06:35.875Z</time></trkpt><trkpt lat="21.725009169391118" lon="-102.43564797973048"><ele>1798.0</ele><time>2026-03-22T16:06:36.875Z</time></trkpt><trkpt lat="21.725091705993044" lon="-102.43554086927602"><ele>1798.0</ele><time>2026-03-22T16:06:37.875Z</time></trkpt><trkpt lat="21.7251737846404" lon="-102.43544207495516"><ele>1798.0</ele><time>2026-03-22T16:06:38.875Z</time></trkpt><trkpt lat="21.725275211054516" lon="-102.4353470667259"><ele>1798.0</ele><time>2026-03-22T16:06:39.875Z</time></trkpt><trkpt lat="21.72538367676348" lon="-102.43525540938822"><ele>1796.25</ele><time>2026-03-22T16:06:40.875Z</time></trkpt><trkpt lat="21.725490836593057" lon="-102.43516877242324"><ele>1794.5</ele><time>2026-03-22T16:06:41.875Z</time></trkpt><trkpt lat="21.72559770052145" lon="-102.43507508582438"><ele>1792.75</ele><time>2026-03-22T16:06:42.875Z</time></trkpt><trkpt lat="21.72570281540248" lon="-102.43497283470911"><ele>1791.0</ele><time>2026-03-22T16:06:43.875Z</time></trkpt><trkpt lat="21.725813056248743" lon="-102.43487681811317"><ele>1791.0</ele><time>2026-03-22T16:06:44.875Z</time></trkpt><trkpt lat="21.72592659101494" lon="-102.43478348709807"><ele>1791.0</ele><time>2026-03-22T16:06:45.875Z</time></trkpt><trkpt lat="21.726036659150402" lon="-102.43468713271207"><ele>1791.0</ele><time>2026-03-22T16:06:46.875Z</time></trkpt><trkpt lat="21.726150154126895" lon="-102.43459008646654"><ele>1791.0</ele><time>2026-03-22T16:06:47.875Z</time></trkpt><trkpt lat="21.72626288711118" lon="-102.43450106859996"><ele>1790.0</ele><time>2026-03-22T16:06:48.875Z</time></trkpt><trkpt lat="21.72637435202621" lon="-102.43440288666815"><ele>1789.0</ele><time>2026-03-22T16:06:49.875Z</time></trkpt><trkpt lat="21.726481548908325" lon="-102.43429773426027"><ele>1788.0</ele><time>2026-03-22T16:06:50.875Z</time></trkpt><trkpt lat="21.72657892128164" lon="-102.4341777521645"><ele>1787.0</ele><time>2026-03-22T16:06:51.875Z</time></trkpt><trkpt lat="21.726659948165114" lon="-102.43404855835858"><ele>1787.0</ele><time>2026-03-22T16:06:52.875Z</time></trkpt><trkpt lat="21.726719479345416" lon="-102.43390895335915"><ele>1787.0</ele><time>2026-03-22T16:06:53.875Z</time></trkpt><trkpt lat="21.726770052815322" lon="-102.43377489529688"><ele>1787.0</ele><time>2026-03-22T16:06:54.875Z</time></trkpt><trkpt lat="21.726793657406837" lon="-102.43363378294207"><ele>1787.0</ele><time>2026-03-22T16:06:55.875Z</time></trkpt><trkpt lat="21.7268133709456" lon="-102.4334904850635"><ele>1789.0</ele><time>2026-03-22T16:06:56.875Z</time></trkpt><trkpt lat="21.72681823649902" lon="-102.4333507871859"><ele>1791.0</ele><time>2026-03-22T16:06:57.875Z</time></trkpt><trkpt lat="21.726820347879066" lon="-102.43322057359536"><ele>1793.0</ele><time>2026-03-22T16:06:58.875Z</time></trkpt><trkpt lat="21.726814882783508" lon="-102.43309829436593"><ele>1795.0</ele><time>2026-03-22T16:06:59.875Z</time></trkpt><trkpt lat="21.72681133882043" lon="-102.432981716821"><ele>1795.6</ele><time>2026-03-22T16:07:00.875Z</time></trkpt><trkpt lat="21.72680447183301" lon="-102.43286720954262"><ele>1796.2</ele><time>2026-03-22T16:07:01.875Z</time></trkpt><trkpt lat="21.726782800675323" lon="-102.43275472517983"><ele>1796.8000000000002</ele><time>2026-03-22T16:07:02.875Z</time></trkpt><trkpt lat="21.726737051498358" lon="-102.43265307577369"><ele>1797.4</ele><time>2026-03-22T16:07:03.875Z</time></trkpt><trkpt lat="21.726672891152717" lon="-102.4325481249624"><ele>1798.0</ele><time>2026-03-22T16:07:04.875Z</time></trkpt><trkpt lat="21.726587262728483" lon="-102.43246586184723"><ele>1798.0</ele><time>2026-03-22T16:07:05.875Z</time></trkpt><trkpt lat="21.72648953611869" lon="-102.43240280033937"><ele>1798.0</ele><time>2026-03-22T16:07:06.875Z</time></trkpt><trkpt lat="21.726372465000896" lon="-102.43236431926019"><ele>1798.0</ele><time>2026-03-22T16:07:07.875Z</time></trkpt><trkpt lat="21.726262922048427" lon="-102.43234156461057"><ele>1798.0</ele><time>2026-03-22T16:07:08.875Z</time></trkpt><trkpt lat="21.726149633504765" lon="-102.43232668366757"><ele>1796.75</ele><time>2026-03-22T16:07:09.874Z</time></trkpt><trkpt lat="21.72603352916664" lon="-102.43231015787512"><ele>1795.5</ele><time>2026-03-22T16:07:10.874Z</time></trkpt><trkpt lat="21.725914399319738" lon="-102.43229423578833"><ele>1794.25</ele><time>2026-03-22T16:07:11.874Z</time></trkpt><trkpt lat="21.725801404156424" lon="-102.43226291556837"><ele>1793.0</ele><time>2026-03-22T16:07:12.874Z</time></trkpt><trkpt lat="21.725695174449072" lon="-102.4322217201823"><ele>1793.0</ele><time>2026-03-22T16:07:13.874Z</time></trkpt><trkpt lat="21.72559314523595" lon="-102.43215233682297"><ele>1793.0</ele><time>2026-03-22T16:07:14.874Z</time></trkpt><trkpt lat="21.7255045145761" lon="-102.43206302932826"><ele>1793.0</ele><time>2026-03-22T16:07:15.874Z</time></trkpt><trkpt lat="21.72543903685437" lon="-102.43194398843198"><ele>1793.0</ele><time>2026-03-22T16:07:16.874Z</time></trkpt><trkpt lat="21.72540118882894" lon="-102.43181383008269"><ele>1790.5</ele><time>2026-03-22T16:07:17.874Z</time></trkpt><trkpt lat="21.725408372861587" lon="-102.43166452250111"><ele>1788.0</ele><time>2026-03-22T16:07:18.874Z</time></trkpt><trkpt lat="21.725429824228804" lon="-102.43152622522105"><ele>1785.5</ele><time>2026-03-22T16:07:19.874Z</time></trkpt><trkpt lat="21.72548533471294" lon="-102.43139620212143"><ele>1783.0</ele><time>2026-03-22T16:07:20.874Z</time></trkpt><trkpt lat="21.725545132010485" lon="-102.431272642823"><ele>1782.25</ele><time>2026-03-22T16:07:21.874Z</time></trkpt><trkpt lat="21.725596283265777" lon="-102.4311485254672"><ele>1781.5</ele><time>2026-03-22T16:07:22.874Z</time></trkpt><trkpt lat="21.725653824420622" lon="-102.43103267128753"><ele>1780.75</ele><time>2026-03-22T16:07:23.874Z</time></trkpt><trkpt lat="21.725711904546607" lon="-102.43091258460986"><ele>1780.0</ele><time>2026-03-22T16:07:24.874Z</time></trkpt><trkpt lat="21.72577048485258" lon="-102.43080009123528"><ele>1780.0</ele><time>2026-03-22T16:07:25.874Z</time></trkpt><trkpt lat="21.7258326990203" lon="-102.43069856110296"><ele>1780.0</ele><time>2026-03-22T16:07:26.874Z</time></trkpt><trkpt lat="21.72590439774295" lon="-102.43060245734469"><ele>1780.0</ele><time>2026-03-22T16:07:27.874Z</time></trkpt><trkpt lat="21.725981237144648" lon="-102.43051968627164"><ele>1780.0</ele><time>2026-03-22T16:07:28.874Z</time></trkpt><trkpt lat="21.726058419805973" lon="-102.43044244809738"><ele>1780.0</ele><time>2026-03-22T16:07:29.874Z</time></trkpt><trkpt lat="21.726138569255436" lon="-102.43036810374478"><ele>1780.6</ele><time>2026-03-22T16:07:30.874Z</time></trkpt><trkpt lat="21.726225988372427" lon="-102.43030106293809"><ele>1781.2</ele><time>2026-03-22T16:07:31.874Z</time></trkpt><trkpt lat="21.726300766642897" lon="-102.43023591636795"><ele>1781.8000000000002</ele><time>2026-03-22T16:07:32.874Z</time></trkpt><trkpt lat="21.72637391071183" lon="-102.430169375263"><ele>1782.4</ele><time>2026-03-22T16:07:33.874Z</time></trkpt><trkpt lat="21.7264505952141" lon="-102.43010673198594"><ele>1783.0</ele><time>2026-03-22T16:07:34.874Z</time></trkpt><trkpt lat="21.726518377631358" lon="-102.43004426372137"><ele>1783.0000000000002</ele><time>2026-03-22T16:07:35.874Z</time></trkpt><trkpt lat="21.726584011371056" lon="-102.42998249297875"><ele>1783.0</ele><time>2026-03-22T16:07:36.874Z</time></trkpt><trkpt lat="21.72664661778378" lon="-102.42992005419634"><ele>1783.0</ele><time>2026-03-22T16:07:37.874Z</time></trkpt><trkpt lat="21.726703552073836" lon="-102.42985612770109"><ele>1783.0</ele><time>2026-03-22T16:07:38.874Z</time></trkpt><trkpt lat="21.726746310940527" lon="-102.42979019336796"><ele>1783.0000000000002</ele><time>2026-03-22T16:07:39.874Z</time></trkpt><trkpt lat="21.7267852337832" lon="-102.42972549370879"><ele>1783.0</ele><time>2026-03-22T16:07:40.874Z</time></trkpt><trkpt lat="21.726808359817827" lon="-102.42965308444879"><ele>1783.5000000000002</ele><time>2026-03-22T16:07:41.874Z</time></trkpt><trkpt lat="21.72682634229409" lon="-102.42958488471736"><ele>1784.0</ele><time>2026-03-22T16:07:42.876Z</time></trkpt><trkpt lat="21.726842875157278" lon="-102.42951453535407"><ele>1784.5</ele><time>2026-03-22T16:07:43.877Z</time></trkpt><trkpt lat="21.72685820436967" lon="-102.42944719861596"><ele>1785.0</ele><time>2026-03-22T16:07:44.879Z</time></trkpt><trkpt lat="21.726876259441546" lon="-102.42937901099552"><ele>1785.5000000000002</ele><time>2026-03-22T16:07:45.88Z</time></trkpt><trkpt lat="21.726890341759848" lon="-102.42925013333539"><ele>1786.0</ele><time>2026-03-22T16:07:47.882Z</time></trkpt><trkpt lat="21.72691832182641" lon="-102.42912706056794"><ele>1786.0</ele><time>2026-03-22T16:07:49.885Z</time></trkpt><trkpt lat="21.72693923777442" lon="-102.42900866032818"><ele>1786.0</ele><time>2026-03-22T16:07:51.887Z</time></trkpt><trkpt lat="21.726960609550677" lon="-102.42889045122467"><ele>1786.0</ele><time>2026-03-22T16:07:53.888Z</time></trkpt><trkpt lat="21.726982272068796" lon="-102.42878646562043"><ele>1786.0</ele><time>2026-03-22T16:07:55.89Z</time></trkpt><trkpt lat="21.727003742144287" lon="-102.42867102058294"><ele>1786.0</ele><time>2026-03-22T16:07:57.891Z</time></trkpt><trkpt lat="21.72702010363588" lon="-102.42855409322263"><ele>1788.0</ele><time>2026-03-22T16:07:59.892Z</time></trkpt><trkpt lat="21.727043259627273" lon="-102.42843919169462"><ele>1790.0</ele><time>2026-03-22T16:08:01.894Z</time></trkpt><trkpt lat="21.727064131816977" lon="-102.42833506403835"><ele>1792.0</ele><time>2026-03-22T16:08:03.895Z</time></trkpt><trkpt lat="21.72708733815027" lon="-102.42822054268345"><ele>1794.0</ele><time>2026-03-22T16:08:05.896Z</time></trkpt><trkpt lat="21.72710431850246" lon="-102.42810062614598"><ele>1796.0</ele><time>2026-03-22T16:08:07.897Z</time></trkpt><trkpt lat="21.727130732423806" lon="-102.42798995548891"><ele>1797.1999999999998</ele><time>2026-03-22T16:08:09.897Z</time></trkpt><trkpt lat="21.72715620723019" lon="-102.42788022210931"><ele>1798.3999999999999</ele><time>2026-03-22T16:08:11.898Z</time></trkpt><trkpt lat="21.72717007795482" lon="-102.42777519751168"><ele>1799.6</ele><time>2026-03-22T16:08:13.898Z</time></trkpt><trkpt lat="21.727194066444966" lon="-102.4276701477366"><ele>1800.8</ele><time>2026-03-22T16:08:15.899Z</time></trkpt><trkpt lat="21.72721366724164" lon="-102.42756663363899"><ele>1802.0</ele><time>2026-03-22T16:08:17.899Z</time></trkpt><trkpt lat="21.727234329762123" lon="-102.42745560910606"><ele>1802.0</ele><time>2026-03-22T16:08:19.899Z</time></trkpt><trkpt lat="21.727253139999387" lon="-102.4273507976915"><ele>1801.9999999999998</ele><time>2026-03-22T16:08:21.9Z</time></trkpt><trkpt lat="21.72727967153738" lon="-102.42724441354667"><ele>1801.9999999999998</ele><time>2026-03-22T16:08:23.9Z</time></trkpt><trkpt lat="21.72729465053246" lon="-102.42714618459854"><ele>1802.0</ele><time>2026-03-22T16:08:25.9Z</time></trkpt><trkpt lat="21.727311066949063" lon="-102.42704523602941"><ele>1802.0</ele><time>2026-03-22T16:08:27.9Z</time></trkpt><trkpt lat="21.72732921702434" lon="-102.42692878667616"><ele>1803.3333333333333</ele><time>2026-03-22T16:08:29.9Z</time></trkpt><trkpt lat="21.727339815213156" lon="-102.42684248661917"><ele>1804.6666666666665</ele><time>2026-03-22T16:08:31.9Z</time></trkpt><trkpt lat="21.72736224643627" lon="-102.42675134059195"><ele>1806.0</ele><time>2026-03-22T16:08:33.9Z</time></trkpt><trkpt lat="21.727370829456184" lon="-102.42665486809668"><ele>1807.3333333333335</ele><time>2026-03-22T16:08:35.9Z</time></trkpt><trkpt lat="21.727396637070136" lon="-102.42655768019638"><ele>1808.6666666666667</ele><time>2026-03-22T16:08:37.901Z</time></trkpt><trkpt lat="21.727412727799578" lon="-102.42646365328618"><ele>1810.0</ele><time>2026-03-22T16:08:39.901Z</time></trkpt><trkpt lat="21.72743100756781" lon="-102.42636996517038"><ele>1810.8333333333335</ele><time>2026-03-22T16:08:41.901Z</time></trkpt><trkpt lat="21.727449007263363" lon="-102.42628675175793"><ele>1811.6666666666667</ele><time>2026-03-22T16:08:43.901Z</time></trkpt><trkpt lat="21.727460001405557" lon="-102.4261921812725"><ele>1812.5</ele><time>2026-03-22T16:08:45.901Z</time></trkpt><trkpt lat="21.727470299633776" lon="-102.42610304521347"><ele>1813.3333333333335</ele><time>2026-03-22T16:08:47.901Z</time></trkpt><trkpt lat="21.727475573673047" lon="-102.42601952165015"><ele>1814.1666666666667</ele><time>2026-03-22T16:08:49.901Z</time></trkpt><trkpt lat="21.727481376604914" lon="-102.425929615157"><ele>1815.0</ele><time>2026-03-22T16:08:51.901Z</time></trkpt><trkpt lat="21.72747816024871" lon="-102.42584563065726"><ele>1815.0</ele><time>2026-03-22T16:08:53.901Z</time></trkpt><trkpt lat="21.72747517390272" lon="-102.42575076197087"><ele>1815.0</ele><time>2026-03-22T16:08:55.901Z</time></trkpt><trkpt lat="21.72747067710526" lon="-102.42566234399169"><ele>1815.0</ele><time>2026-03-22T16:08:57.901Z</time></trkpt><trkpt lat="21.727456436557663" lon="-102.42557315732718"><ele>1815.0</ele><time>2026-03-22T16:08:59.901Z</time></trkpt><trkpt lat="21.727428955869776" lon="-102.42548544882128"><ele>1815.0</ele><time>2026-03-22T16:09:01.901Z</time></trkpt><trkpt lat="21.727397941188496" lon="-102.42539542852167"><ele>1815.0</ele><time>2026-03-22T16:09:03.901Z</time></trkpt><trkpt lat="21.72736750082677" lon="-102.42532114603809"><ele>1816.1666666666667</ele><time>2026-03-22T16:09:05.901Z</time></trkpt><trkpt lat="21.727327250662118" lon="-102.42523843718216"><ele>1817.3333333333335</ele><time>2026-03-22T16:09:07.901Z</time></trkpt><trkpt lat="21.727280054770688" lon="-102.4251607322793"><ele>1818.5</ele><time>2026-03-22T16:09:09.901Z</time></trkpt><trkpt lat="21.72723342983936" lon="-102.42509129459219"><ele>1819.6666666666667</ele><time>2026-03-22T16:09:11.901Z</time></trkpt><trkpt lat="21.727180860343722" lon="-102.42502612363472"><ele>1820.8333333333335</ele><time>2026-03-22T16:09:13.9Z</time></trkpt><trkpt lat="21.727122634840274" lon="-102.42495501382528"><ele>1822.0</ele><time>2026-03-22T16:09:15.9Z</time></trkpt><trkpt lat="21.72705719237425" lon="-102.42489740331203"><ele>1822.0000000000002</ele><time>2026-03-22T16:09:17.9Z</time></trkpt><trkpt lat="21.72699307742956" lon="-102.42483365835974"><ele>1822.0</ele><time>2026-03-22T16:09:19.9Z</time></trkpt><trkpt lat="21.726926548412433" lon="-102.42477181889564"><ele>1822.0</ele><time>2026-03-22T16:09:21.9Z</time></trkpt><trkpt lat="21.726863291400434" lon="-102.42471374039575"><ele>1822.0</ele><time>2026-03-22T16:09:23.9Z</time></trkpt><trkpt lat="21.726792680693773" lon="-102.42465294353315"><ele>1822.0000000000002</ele><time>2026-03-22T16:09:25.9Z</time></trkpt><trkpt lat="21.726730563267523" lon="-102.42458437265236"><ele>1822.0</ele><time>2026-03-22T16:09:27.9Z</time></trkpt><trkpt lat="21.726659932667783" lon="-102.42452435392374"><ele>1823.1999999999998</ele><time>2026-03-22T16:09:29.9Z</time></trkpt><trkpt lat="21.726589238106016" lon="-102.4244637465287"><ele>1824.3999999999999</ele><time>2026-03-22T16:09:31.9Z</time></trkpt><trkpt lat="21.726520303480882" lon="-102.42440119991193"><ele>1825.6000000000001</ele><time>2026-03-22T16:09:33.9Z</time></trkpt><trkpt lat="21.726448611158485" lon="-102.42433294865789"><ele>1826.8000000000002</ele><time>2026-03-22T16:09:35.9Z</time></trkpt><trkpt lat="21.72638034398716" lon="-102.4242757852277"><ele>1828.0</ele><time>2026-03-22T16:09:37.9Z</time></trkpt><trkpt lat="21.726305662580113" lon="-102.42420689437985"><ele>1828.0000000000002</ele><time>2026-03-22T16:09:39.9Z</time></trkpt><trkpt lat="21.726239576116203" lon="-102.42414533777657"><ele>1828.0</ele><time>2026-03-22T16:09:41.9Z</time></trkpt><trkpt lat="21.72616861162395" lon="-102.42408593432533"><ele>1828.0</ele><time>2026-03-22T16:09:43.9Z</time></trkpt><trkpt lat="21.726095527019122" lon="-102.42401398832749"><ele>1828.0</ele><time>2026-03-22T16:09:45.9Z</time></trkpt><trkpt lat="21.726023154067644" lon="-102.42395516928927"><ele>1828.0000000000002</ele><time>2026-03-22T16:09:47.9Z</time></trkpt><trkpt lat="21.7259764971299" lon="-102.42390668293545"><ele>1828.0</ele><time>2026-03-22T16:09:48.9Z</time></trkpt><trkpt lat="21.72590443470186" lon="-102.42383711204036"><ele>1828.6000000000001</ele><time>2026-03-22T16:09:50.9Z</time></trkpt><trkpt lat="21.72582305689075" lon="-102.42376707380743"><ele>1829.2000000000003</ele><time>2026-03-22T16:09:52.9Z</time></trkpt><trkpt lat="21.72574795612773" lon="-102.42368747112236"><ele>1829.8</ele><time>2026-03-22T16:09:54.9Z</time></trkpt><trkpt lat="21.725669803223013" lon="-102.4236156887432"><ele>1830.4</ele><time>2026-03-22T16:09:56.9Z</time></trkpt><trkpt lat="21.72558304193985" lon="-102.42354429000083"><ele>1831.0</ele><time>2026-03-22T16:09:58.9Z</time></trkpt><trkpt lat="21.725488590376504" lon="-102.42346574817027"><ele>1831.0</ele><time>2026-03-22T16:10:00.9Z</time></trkpt><trkpt lat="21.725403780347655" lon="-102.42337847586153"><ele>1830.9999999999998</ele><time>2026-03-22T16:10:02.9Z</time></trkpt><trkpt lat="21.72535707349491" lon="-102.42333065510137"><ele>1831.0</ele><time>2026-03-22T16:10:03.9Z</time></trkpt><trkpt lat="21.725310503896992" lon="-102.42328137476056"><ele>1831.0</ele><time>2026-03-22T16:10:04.9Z</time></trkpt><trkpt lat="21.72526067336016" lon="-102.42323431894268"><ele>1830.9999999999998</ele><time>2026-03-22T16:10:05.9Z</time></trkpt><trkpt lat="21.725206668206933" lon="-102.42318518185539"><ele>1831.0</ele><time>2026-03-22T16:10:06.9Z</time></trkpt><trkpt lat="21.72515763958765" lon="-102.42314012754349"><ele>1831.0</ele><time>2026-03-22T16:10:07.901Z</time></trkpt><trkpt lat="21.72509501842427" lon="-102.4230824923123"><ele>1831.1666666666667</ele><time>2026-03-22T16:10:08.9Z</time></trkpt><trkpt lat="21.725032837618503" lon="-102.42302125940627"><ele>1831.3333333333335</ele><time>2026-03-22T16:10:09.901Z</time></trkpt><trkpt lat="21.724978291629736" lon="-102.42296902610087"><ele>1831.5</ele><time>2026-03-22T16:10:10.9Z</time></trkpt><trkpt lat="21.724917810489828" lon="-102.4229160667067"><ele>1831.6666666666665</ele><time>2026-03-22T16:10:11.9Z</time></trkpt><trkpt lat="21.72485805569683" lon="-102.42286647419378"><ele>1831.8333333333333</ele><time>2026-03-22T16:10:12.901Z</time></trkpt><trkpt lat="21.724797734770352" lon="-102.42281068702121"><ele>1832.0</ele><time>2026-03-22T16:10:13.9Z</time></trkpt><trkpt lat="21.724741084588377" lon="-102.4227556290488"><ele>1831.9999999999998</ele><time>2026-03-22T16:10:14.9Z</time></trkpt><trkpt lat="21.724684758135087" lon="-102.42270654486276"><ele>1832.0</ele><time>2026-03-22T16:10:15.9Z</time></trkpt><trkpt lat="21.72462267054711" lon="-102.42265269758258"><ele>1832.0</ele><time>2026-03-22T16:10:16.901Z</time></trkpt><trkpt lat="21.724561049905056" lon="-102.42259720241553"><ele>1832.0</ele><time>2026-03-22T16:10:17.901Z</time></trkpt><trkpt lat="21.724500972633116" lon="-102.4225452400101"><ele>1831.9999999999998</ele><time>2026-03-22T16:10:18.9Z</time></trkpt><trkpt lat="21.724438985962628" lon="-102.42249268032856"><ele>1832.0</ele><time>2026-03-22T16:10:19.9Z</time></trkpt><trkpt lat="21.724374387767444" lon="-102.42242966398278"><ele>1831.9999999999998</ele><time>2026-03-22T16:10:20.9Z</time></trkpt><trkpt lat="21.72430974069776" lon="-102.42237490513715"><ele>1832.0</ele><time>2026-03-22T16:10:21.9Z</time></trkpt><trkpt lat="21.72424815466781" lon="-102.42232082776641"><ele>1832.0</ele><time>2026-03-22T16:10:22.9Z</time></trkpt><trkpt lat="21.724185763450485" lon="-102.42226396668133"><ele>1832.0</ele><time>2026-03-22T16:10:23.9Z</time></trkpt><trkpt lat="21.724119231414683" lon="-102.42220170842177"><ele>1831.9999999999998</ele><time>2026-03-22T16:10:24.9Z</time></trkpt><trkpt lat="21.72405263900234" lon="-102.42213980583357"><ele>1832.0</ele><time>2026-03-22T16:10:25.9Z</time></trkpt><trkpt lat="21.723988049507554" lon="-102.42208104599865"><ele>1831.6</ele><time>2026-03-22T16:10:26.9Z</time></trkpt><trkpt lat="21.72390786544525" lon="-102.42200963806083"><ele>1831.1999999999998</ele><time>2026-03-22T16:10:27.9Z</time></trkpt><trkpt lat="21.723851792714974" lon="-102.42195205853679"><ele>1830.8</ele><time>2026-03-22T16:10:28.9Z</time></trkpt><trkpt lat="21.723773927152923" lon="-102.42188579260589"><ele>1830.4</ele><time>2026-03-22T16:10:29.9Z</time></trkpt><trkpt lat="21.723700663864342" lon="-102.42181823914008"><ele>1830.0</ele><time>2026-03-22T16:10:30.9Z</time></trkpt><trkpt lat="21.72363063388419" lon="-102.42175001288639"><ele>1830.0</ele><time>2026-03-22T16:10:31.9Z</time></trkpt><trkpt lat="21.723557552312254" lon="-102.42168161060006"><ele>1830.0</ele><time>2026-03-22T16:10:32.9Z</time></trkpt><trkpt lat="21.72348124932714" lon="-102.42161226591352"><ele>1830.0</ele><time>2026-03-22T16:10:33.9Z</time></trkpt><trkpt lat="21.723409481371178" lon="-102.42154774510927"><ele>1830.0</ele><time>2026-03-22T16:10:34.9Z</time></trkpt><trkpt lat="21.72332616538193" lon="-102.42146914123602"><ele>1830.0</ele><time>2026-03-22T16:10:35.9Z</time></trkpt><trkpt lat="21.723253058474764" lon="-102.42139849671243"><ele>1830.0</ele><time>2026-03-22T16:10:36.9Z</time></trkpt><trkpt lat="21.723172582144798" lon="-102.42132294422137"><ele>1830.0</ele><time>2026-03-22T16:10:37.9Z</time></trkpt><trkpt lat="21.723093303128614" lon="-102.42125025956709"><ele>1830.0</ele><time>2026-03-22T16:10:38.9Z</time></trkpt><trkpt lat="21.723021844471827" lon="-102.42117860070661"><ele>1830.0</ele><time>2026-03-22T16:10:39.9Z</time></trkpt><trkpt lat="21.722950303627233" lon="-102.42109814287711"><ele>1830.0</ele><time>2026-03-22T16:10:40.9Z</time></trkpt><trkpt lat="21.722880877459648" lon="-102.42101549108928"><ele>1829.2</ele><time>2026-03-22T16:10:41.9Z</time></trkpt><trkpt lat="21.722811699329107" lon="-102.42092566132628"><ele>1828.4</ele><time>2026-03-22T16:10:42.9Z</time></trkpt><trkpt lat="21.722744164640414" lon="-102.42083653773214"><ele>1827.6</ele><time>2026-03-22T16:10:43.9Z</time></trkpt><trkpt lat="21.722681791866467" lon="-102.42074176439587"><ele>1826.8</ele><time>2026-03-22T16:10:44.9Z</time></trkpt><trkpt lat="21.722626886939498" lon="-102.42064283713849"><ele>1826.0</ele><time>2026-03-22T16:10:45.9Z</time></trkpt><trkpt lat="21.722572953589264" lon="-102.42053837362666"><ele>1825.0</ele><time>2026-03-22T16:10:46.9Z</time></trkpt><trkpt lat="21.72252329130869" lon="-102.42043208889032"><ele>1824.0</ele><time>2026-03-22T16:10:47.9Z</time></trkpt><trkpt lat="21.72247566239065" lon="-102.42032377829133"><ele>1823.0</ele><time>2026-03-22T16:10:48.9Z</time></trkpt><trkpt lat="21.72243260268014" lon="-102.42021491381713"><ele>1822.0</ele><time>2026-03-22T16:10:49.9Z</time></trkpt><trkpt lat="21.722400213116543" lon="-102.42010867776928"><ele>1821.0</ele><time>2026-03-22T16:10:50.9Z</time></trkpt><trkpt lat="21.72236170503632" lon="-102.41999052503063"><ele>1821.0</ele><time>2026-03-22T16:10:51.9Z</time></trkpt><trkpt lat="21.722326222700147" lon="-102.41987304300092"><ele>1821.0</ele><time>2026-03-22T16:10:52.9Z</time></trkpt><trkpt lat="21.722299020917696" lon="-102.41974820117005"><ele>1821.0</ele><time>2026-03-22T16:10:53.9Z</time></trkpt><trkpt lat="21.72227790362822" lon="-102.4196199286819"><ele>1821.0</ele><time>2026-03-22T16:10:54.9Z</time></trkpt><trkpt lat="21.72226184746703" lon="-102.41948494707756"><ele>1820.0</ele><time>2026-03-22T16:10:55.9Z</time></trkpt><trkpt lat="21.722252943477432" lon="-102.41935062816762"><ele>1819.0</ele><time>2026-03-22T16:10:56.9Z</time></trkpt><trkpt lat="21.722247156081657" lon="-102.41921988281925"><ele>1818.0</ele><time>2026-03-22T16:10:57.9Z</time></trkpt><trkpt lat="21.722238717632496" lon="-102.41908352699096"><ele>1817.0</ele><time>2026-03-22T16:10:58.9Z</time></trkpt><trkpt lat="21.722231559400694" lon="-102.41894855011871"><ele>1816.0</ele><time>2026-03-22T16:10:59.9Z</time></trkpt><trkpt lat="21.722220542105475" lon="-102.41881211306544"><ele>1815.0</ele><time>2026-03-22T16:11:00.9Z</time></trkpt><trkpt lat="21.72220931077008" lon="-102.41866794160829"><ele>1814.0</ele><time>2026-03-22T16:11:01.9Z</time></trkpt><trkpt lat="21.722199737003265" lon="-102.41852789101593"><ele>1813.0</ele><time>2026-03-22T16:11:02.9Z</time></trkpt><trkpt lat="21.722194373151186" lon="-102.41838753093855"><ele>1813.0</ele><time>2026-03-22T16:11:03.899Z</time></trkpt><trkpt lat="21.722182749619538" lon="-102.41823410147977"><ele>1813.0</ele><time>2026-03-22T16:11:04.899Z</time></trkpt><trkpt lat="21.722172424800323" lon="-102.41808005265933"><ele>1813.0</ele><time>2026-03-22T16:11:05.899Z</time></trkpt><trkpt lat="21.72216365119199" lon="-102.41792983117085"><ele>1813.0</ele><time>2026-03-22T16:11:06.899Z</time></trkpt><trkpt lat="21.72215030488536" lon="-102.41778822501718"><ele>1811.3333333333335</ele><time>2026-03-22T16:11:07.899Z</time></trkpt><trkpt lat="21.722139497169838" lon="-102.41762534209465"><ele>1809.6666666666665</ele><time>2026-03-22T16:11:08.899Z</time></trkpt><trkpt lat="21.722130782936595" lon="-102.41746220990528"><ele>1808.0</ele><time>2026-03-22T16:11:09.899Z</time></trkpt><trkpt lat="21.722114614492668" lon="-102.41730007498197"><ele>1805.0</ele><time>2026-03-22T16:11:10.899Z</time></trkpt><trkpt lat="21.722104187047048" lon="-102.41713429642058"><ele>1802.0</ele><time>2026-03-22T16:11:11.899Z</time></trkpt><trkpt lat="21.72208889105147" lon="-102.41696199328261"><ele>1799.0</ele><time>2026-03-22T16:11:12.899Z</time></trkpt><trkpt lat="21.72207977841653" lon="-102.4167971973745"><ele>1799.0</ele><time>2026-03-22T16:11:13.899Z</time></trkpt><trkpt lat="21.722070019155844" lon="-102.4166258114429"><ele>1799.0</ele><time>2026-03-22T16:11:14.899Z</time></trkpt><trkpt lat="21.72205911910763" lon="-102.41646040579231"><ele>1799.0</ele><time>2026-03-22T16:11:15.899Z</time></trkpt><trkpt lat="21.72204570002001" lon="-102.41629667084628"><ele>1799.25</ele><time>2026-03-22T16:11:16.899Z</time></trkpt><trkpt lat="21.72203636415419" lon="-102.41613206051616"><ele>1799.5</ele><time>2026-03-22T16:11:17.899Z</time></trkpt><trkpt lat="21.722027797022868" lon="-102.41597596910276"><ele>1799.75</ele><time>2026-03-22T16:11:18.899Z</time></trkpt><trkpt lat="21.722017384115688" lon="-102.41581890275279"><ele>1800.0</ele><time>2026-03-22T16:11:19.899Z</time></trkpt><trkpt lat="21.722006761433338" lon="-102.41566422773404"><ele>1800.0</ele><time>2026-03-22T16:11:20.899Z</time></trkpt><trkpt lat="21.721998711057317" lon="-102.41551887432117"><ele>1800.0</ele><time>2026-03-22T16:11:21.899Z</time></trkpt><trkpt lat="21.72199303465256" lon="-102.4153694440786"><ele>1800.0</ele><time>2026-03-22T16:11:22.899Z</time></trkpt><trkpt lat="21.721983103431654" lon="-102.41523498257379"><ele>1800.0</ele><time>2026-03-22T16:11:23.899Z</time></trkpt><trkpt lat="21.72197103362323" lon="-102.41510242985507"><ele>1801.2</ele><time>2026-03-22T16:11:24.899Z</time></trkpt><trkpt lat="21.721964443481383" lon="-102.41498906982962"><ele>1802.4</ele><time>2026-03-22T16:11:25.899Z</time></trkpt><trkpt lat="21.72194675809419" lon="-102.41486220904423"><ele>1803.6</ele><time>2026-03-22T16:11:26.899Z</time></trkpt><trkpt lat="21.72194286992914" lon="-102.41474531004967"><ele>1804.8</ele><time>2026-03-22T16:11:27.899Z</time></trkpt><trkpt lat="21.721933688686434" lon="-102.41463536717583"><ele>1806.0</ele><time>2026-03-22T16:11:28.899Z</time></trkpt><trkpt lat="21.721923640407297" lon="-102.41452931637285"><ele>1806.0</ele><time>2026-03-22T16:11:29.899Z</time></trkpt><trkpt lat="21.7219105905194" lon="-102.41442749041165"><ele>1806.0</ele><time>2026-03-22T16:11:30.899Z</time></trkpt><trkpt lat="21.7219054291223" lon="-102.41433023805129"><ele>1806.0</ele><time>2026-03-22T16:11:31.899Z</time></trkpt><trkpt lat="21.721905184237176" lon="-102.41422751993035"><ele>1806.0</ele><time>2026-03-22T16:11:32.899Z</time></trkpt><trkpt lat="21.721898099488744" lon="-102.41414117232492"><ele>1806.0</ele><time>2026-03-22T16:11:33.899Z</time></trkpt><trkpt lat="21.721892008380813" lon="-102.41404271800849"><ele>1806.0</ele><time>2026-03-22T16:11:34.899Z</time></trkpt><trkpt lat="21.721891685350702" lon="-102.413950196691"><ele>1806.0</ele><time>2026-03-22T16:11:35.899Z</time></trkpt><trkpt lat="21.721882846455816" lon="-102.41385610946185"><ele>1806.0</ele><time>2026-03-22T16:11:36.899Z</time></trkpt><trkpt lat="21.721871952887874" lon="-102.41376430468844"><ele>1806.0</ele><time>2026-03-22T16:11:37.899Z</time></trkpt><trkpt lat="21.721862716171334" lon="-102.41366452066204"><ele>1806.0</ele><time>2026-03-22T16:11:38.899Z</time></trkpt><trkpt lat="21.72185733361374" lon="-102.41357429701172"><ele>1806.0</ele><time>2026-03-22T16:11:39.899Z</time></trkpt><trkpt lat="21.7218480779332" lon="-102.4134992337058"><ele>1806.1666666666667</ele><time>2026-03-22T16:11:40.899Z</time></trkpt><trkpt lat="21.7218439205845" lon="-102.41340798788794"><ele>1806.3333333333335</ele><time>2026-03-22T16:11:41.899Z</time></trkpt><trkpt lat="21.721836852730707" lon="-102.41332114266022"><ele>1806.5</ele><time>2026-03-22T16:11:42.899Z</time></trkpt><trkpt lat="21.721823775701964" lon="-102.41324007429563"><ele>1806.6666666666667</ele><time>2026-03-22T16:11:43.899Z</time></trkpt><trkpt lat="21.721812828136247" lon="-102.41316464409083"><ele>1806.8333333333335</ele><time>2026-03-22T16:11:44.899Z</time></trkpt><trkpt lat="21.721793342349617" lon="-102.41308579469265"><ele>1807.0</ele><time>2026-03-22T16:11:45.899Z</time></trkpt><trkpt lat="21.721773227315662" lon="-102.4130077210241"><ele>1806.8</ele><time>2026-03-22T16:11:46.899Z</time></trkpt><trkpt lat="21.721743517191737" lon="-102.4128809627403"><ele>1806.6</ele><time>2026-03-22T16:11:48.899Z</time></trkpt><trkpt lat="21.721778593214633" lon="-102.41276265839852"><ele>1806.3999999999999</ele><time>2026-03-22T16:11:50.899Z</time></trkpt><trkpt lat="21.721894412810574" lon="-102.4127188313392"><ele>1806.1999999999998</ele><time>2026-03-22T16:11:52.899Z</time></trkpt><trkpt lat="21.721957570121425" lon="-102.41272278282268"><ele>1806.0</ele><time>2026-03-22T16:11:53.898Z</time></trkpt><trkpt lat="21.722026257183735" lon="-102.41272870976374"><ele>1806.3333333333333</ele><time>2026-03-22T16:11:54.898Z</time></trkpt><trkpt lat="21.722157695242036" lon="-102.41275212329478"><ele>1806.6666666666665</ele><time>2026-03-22T16:11:56.898Z</time></trkpt><trkpt lat="21.72222402488848" lon="-102.41274992303603"><ele>1807.0</ele><time>2026-03-22T16:11:57.898Z</time></trkpt><trkpt lat="21.722295619980518" lon="-102.41275768990002"><ele>1807.3333333333333</ele><time>2026-03-22T16:11:58.898Z</time></trkpt><trkpt lat="21.72236514007647" lon="-102.41276719182792"><ele>1807.6666666666665</ele><time>2026-03-22T16:11:59.898Z</time></trkpt><trkpt lat="21.72243892923896" lon="-102.412774135462"><ele>1808.0</ele><time>2026-03-22T16:12:00.898Z</time></trkpt><trkpt lat="21.722516172984616" lon="-102.41278176671416"><ele>1808.0</ele><time>2026-03-22T16:12:01.898Z</time></trkpt><trkpt lat="21.72260689516852" lon="-102.41279812791282"><ele>1808.0000000000002</ele><time>2026-03-22T16:12:02.898Z</time></trkpt><trkpt lat="21.722696924978784" lon="-102.41281436935238"><ele>1808.0000000000002</ele><time>2026-03-22T16:12:03.898Z</time></trkpt><trkpt lat="21.72278803570696" lon="-102.4128271492304"><ele>1808.0</ele><time>2026-03-22T16:12:04.898Z</time></trkpt><trkpt lat="21.722874073237513" lon="-102.41284965687842"><ele>1808.0</ele><time>2026-03-22T16:12:05.898Z</time></trkpt><trkpt lat="21.722967714200614" lon="-102.41286635474233"><ele>1808.0</ele><time>2026-03-22T16:12:06.898Z</time></trkpt><trkpt lat="21.7230519252172" lon="-102.41288443699953"><ele>1808.0000000000002</ele><time>2026-03-22T16:12:07.898Z</time></trkpt><trkpt lat="21.72314773372855" lon="-102.41290524442628"><ele>1808.0000000000002</ele><time>2026-03-22T16:12:08.898Z</time></trkpt><trkpt lat="21.723231416331146" lon="-102.41293235760119"><ele>1808.0</ele><time>2026-03-22T16:12:09.898Z</time></trkpt><trkpt lat="21.72332330139183" lon="-102.41295828376104"><ele>1808.0</ele><time>2026-03-22T16:12:10.898Z</time></trkpt><trkpt lat="21.72341043433722" lon="-102.41297972082491"><ele>1808.4999999999998</ele><time>2026-03-22T16:12:11.898Z</time></trkpt><trkpt lat="21.723496548902443" lon="-102.41300777202369"><ele>1809.0</ele><time>2026-03-22T16:12:12.899Z</time></trkpt><trkpt lat="21.723579334174183" lon="-102.41302694305246"><ele>1809.5</ele><time>2026-03-22T16:12:13.9Z</time></trkpt><trkpt lat="21.723659342603497" lon="-102.41304166597101"><ele>1810.0</ele><time>2026-03-22T16:12:14.9Z</time></trkpt><trkpt lat="21.723748230577073" lon="-102.41305245602109"><ele>1810.4999999999998</ele><time>2026-03-22T16:12:15.899Z</time></trkpt><trkpt lat="21.72383338172936" lon="-102.41306703257119"><ele>1811.0</ele><time>2026-03-22T16:12:16.899Z</time></trkpt><trkpt lat="21.72392082091748" lon="-102.41308570197675"><ele>1810.9999999999998</ele><time>2026-03-22T16:12:17.899Z</time></trkpt><trkpt lat="21.72400425906173" lon="-102.41310837073993"><ele>1811.0</ele><time>2026-03-22T16:12:18.9Z</time></trkpt><trkpt lat="21.724090862512266" lon="-102.41312696556452"><ele>1811.0</ele><time>2026-03-22T16:12:19.899Z</time></trkpt><trkpt lat="21.724166468568434" lon="-102.41313826650122"><ele>1811.0</ele><time>2026-03-22T16:12:20.899Z</time></trkpt><trkpt lat="21.72425055028866" lon="-102.41315304502004"><ele>1810.9999999999998</ele><time>2026-03-22T16:12:21.9Z</time></trkpt><trkpt lat="21.72432142824907" lon="-102.41316352418363"><ele>1811.0</ele><time>2026-03-22T16:12:22.899Z</time></trkpt><trkpt lat="21.724414071108345" lon="-102.41318275296591"><ele>1811.6666666666665</ele><time>2026-03-22T16:12:23.899Z</time></trkpt><trkpt lat="21.724486866279218" lon="-102.41319796406746"><ele>1812.3333333333333</ele><time>2026-03-22T16:12:24.899Z</time></trkpt><trkpt lat="21.724562608939625" lon="-102.41321787358154"><ele>1813.0</ele><time>2026-03-22T16:12:25.899Z</time></trkpt><trkpt lat="21.72464373489329" lon="-102.41323303687402"><ele>1813.6666666666665</ele><time>2026-03-22T16:12:26.899Z</time></trkpt><trkpt lat="21.72471979535901" lon="-102.4132498663937"><ele>1814.3333333333333</ele><time>2026-03-22T16:12:27.899Z</time></trkpt><trkpt lat="21.72479864806413" lon="-102.41326211722877"><ele>1815.0</ele><time>2026-03-22T16:12:28.899Z</time></trkpt><trkpt lat="21.72487427418677" lon="-102.41327825982455"><ele>1815.0</ele><time>2026-03-22T16:12:29.899Z</time></trkpt><trkpt lat="21.724941847251337" lon="-102.41329348269572"><ele>1815.0</ele><time>2026-03-22T16:12:30.899Z</time></trkpt><trkpt lat="21.725011531540545" lon="-102.4133075376539"><ele>1815.0</ele><time>2026-03-22T16:12:31.899Z</time></trkpt><trkpt lat="21.725082535557746" lon="-102.41332618351365"><ele>1815.0</ele><time>2026-03-22T16:12:32.899Z</time></trkpt><trkpt lat="21.72514615059178" lon="-102.41334580644178"><ele>1815.0</ele><time>2026-03-22T16:12:33.899Z</time></trkpt><trkpt lat="21.72520970716248" lon="-102.41335976573436"><ele>1815.0</ele><time>2026-03-22T16:12:34.899Z</time></trkpt><trkpt lat="21.725275997362136" lon="-102.41337601548614"><ele>1815.0</ele><time>2026-03-22T16:12:35.899Z</time></trkpt><trkpt lat="21.725349267766397" lon="-102.41339763787917"><ele>1815.0</ele><time>2026-03-22T16:12:36.899Z</time></trkpt><trkpt lat="21.725420565981203" lon="-102.41341864159423"><ele>1815.0</ele><time>2026-03-22T16:12:37.899Z</time></trkpt><trkpt lat="21.72548402985379" lon="-102.41342856588068"><ele>1815.0</ele><time>2026-03-22T16:12:38.899Z</time></trkpt><trkpt lat="21.72555550694777" lon="-102.41344990229369"><ele>1815.0</ele><time>2026-03-22T16:12:39.899Z</time></trkpt><trkpt lat="21.72562525256649" lon="-102.41346301638073"><ele>1815.0</ele><time>2026-03-22T16:12:40.899Z</time></trkpt><trkpt lat="21.72569536711738" lon="-102.41347533849299"><ele>1815.0</ele><time>2026-03-22T16:12:41.899Z</time></trkpt><trkpt lat="21.725767174104714" lon="-102.41348835481524"><ele>1815.0</ele><time>2026-03-22T16:12:42.899Z</time></trkpt><trkpt lat="21.72583844946217" lon="-102.41350558177432"><ele>1815.0</ele><time>2026-03-22T16:12:43.899Z</time></trkpt><trkpt lat="21.725913304956094" lon="-102.41352321928186"><ele>1815.0</ele><time>2026-03-22T16:12:44.899Z</time></trkpt><trkpt lat="21.725988139091832" lon="-102.41354539232306"><ele>1815.0</ele><time>2026-03-22T16:12:45.899Z</time></trkpt><trkpt lat="21.726059291391106" lon="-102.41355410759056"><ele>1815.0</ele><time>2026-03-22T16:12:46.899Z</time></trkpt><trkpt lat="21.72613811687477" lon="-102.4135716570279"><ele>1815.0</ele><time>2026-03-22T16:12:47.899Z</time></trkpt><trkpt lat="21.72621084017921" lon="-102.41359274314465"><ele>1815.0</ele><time>2026-03-22T16:12:48.899Z</time></trkpt><trkpt lat="21.72628691325988" lon="-102.41361103861567"><ele>1815.0</ele><time>2026-03-22T16:12:49.899Z</time></trkpt><trkpt lat="21.726368767512714" lon="-102.4136280017827"><ele>1815.0</ele><time>2026-03-22T16:12:50.899Z</time></trkpt><trkpt lat="21.726454951497374" lon="-102.41364351844071"><ele>1815.0</ele><time>2026-03-22T16:12:51.899Z</time></trkpt><trkpt lat="21.726526818928907" lon="-102.41365114773558"><ele>1815.0</ele><time>2026-03-22T16:12:52.899Z</time></trkpt><trkpt lat="21.726613696362833" lon="-102.4136683030392"><ele>1815.0</ele><time>2026-03-22T16:12:53.899Z</time></trkpt><trkpt lat="21.726687723204815" lon="-102.41367469739022"><ele>1815.0</ele><time>2026-03-22T16:12:54.899Z</time></trkpt><trkpt lat="21.726804996046035" lon="-102.41367706114431"><ele>1815.1666666666667</ele><time>2026-03-22T16:12:56.899Z</time></trkpt><trkpt lat="21.726897643811306" lon="-102.41368343969621"><ele>1815.3333333333335</ele><time>2026-03-22T16:12:57.899Z</time></trkpt><trkpt lat="21.726993862584212" lon="-102.41369835546834"><ele>1815.5</ele><time>2026-03-22T16:12:58.899Z</time></trkpt><trkpt lat="21.727076597569702" lon="-102.4137005668777"><ele>1815.6666666666667</ele><time>2026-03-22T16:12:59.898Z</time></trkpt><trkpt lat="21.72716070641389" lon="-102.41370311285722"><ele>1815.8333333333335</ele><time>2026-03-22T16:13:00.898Z</time></trkpt><trkpt lat="21.727239331776047" lon="-102.41370301981627"><ele>1816.0</ele><time>2026-03-22T16:13:01.898Z</time></trkpt><trkpt lat="21.727325816051657" lon="-102.41370081371291"><ele>1816.0000000000002</ele><time>2026-03-22T16:13:02.898Z</time></trkpt><trkpt lat="21.72740453019588" lon="-102.4137007610992"><ele>1816.0</ele><time>2026-03-22T16:13:03.898Z</time></trkpt><trkpt lat="21.727496463386665" lon="-102.41370078143697"><ele>1816.0</ele><time>2026-03-22T16:13:04.898Z</time></trkpt><trkpt lat="21.727578473155486" lon="-102.4137079023649"><ele>1816.0</ele><time>2026-03-22T16:13:05.898Z</time></trkpt><trkpt lat="21.727668621616445" lon="-102.41371124081994"><ele>1816.0000000000002</ele><time>2026-03-22T16:13:06.898Z</time></trkpt><trkpt lat="21.727766482075726" lon="-102.41371558266728"><ele>1816.0</ele><time>2026-03-22T16:13:07.898Z</time></trkpt><trkpt lat="21.727859166931186" lon="-102.41372279983561"><ele>1815.8</ele><time>2026-03-22T16:13:08.898Z</time></trkpt><trkpt lat="21.727960711708306" lon="-102.4137219478946"><ele>1815.6</ele><time>2026-03-22T16:13:09.898Z</time></trkpt><trkpt lat="21.728050207972064" lon="-102.41371861613436"><ele>1815.4</ele><time>2026-03-22T16:13:10.898Z</time></trkpt><trkpt lat="21.72815004386835" lon="-102.41372255157015"><ele>1815.2</ele><time>2026-03-22T16:13:11.898Z</time></trkpt><trkpt lat="21.728241153867774" lon="-102.41372323670706"><ele>1815.0</ele><time>2026-03-22T16:13:12.898Z</time></trkpt><trkpt lat="21.728336496858063" lon="-102.41372739994634"><ele>1815.0</ele><time>2026-03-22T16:13:13.898Z</time></trkpt><trkpt lat="21.7284372835479" lon="-102.41373099874504"><ele>1815.0</ele><time>2026-03-22T16:13:14.898Z</time></trkpt><trkpt lat="21.728518456009645" lon="-102.41375253789218"><ele>1815.0</ele><time>2026-03-22T16:13:15.898Z</time></trkpt><trkpt lat="21.728623828793584" lon="-102.41374418655364"><ele>1815.0</ele><time>2026-03-22T16:13:16.898Z</time></trkpt><trkpt lat="21.728724509766614" lon="-102.41373607895534"><ele>1815.0</ele><time>2026-03-22T16:13:17.898Z</time></trkpt><trkpt lat="21.728813491504493" lon="-102.41373432202181"><ele>1815.6</ele><time>2026-03-22T16:13:18.898Z</time></trkpt><trkpt lat="21.728908563448556" lon="-102.41373436324258"><ele>1816.2</ele><time>2026-03-22T16:13:19.898Z</time></trkpt><trkpt lat="21.72900291250983" lon="-102.41373530457095"><ele>1816.8000000000002</ele><time>2026-03-22T16:13:20.898Z</time></trkpt><trkpt lat="21.72910445798516" lon="-102.41374540839652"><ele>1817.4</ele><time>2026-03-22T16:13:21.898Z</time></trkpt><trkpt lat="21.729202512551787" lon="-102.4137460815693"><ele>1818.0</ele><time>2026-03-22T16:13:22.898Z</time></trkpt><trkpt lat="21.72929954554337" lon="-102.41374758490159"><ele>1818.2</ele><time>2026-03-22T16:13:23.898Z</time></trkpt><trkpt lat="21.729398091554703" lon="-102.41375272844685"><ele>1818.4</ele><time>2026-03-22T16:13:24.898Z</time></trkpt><trkpt lat="21.729494010074667" lon="-102.41375621806917"><ele>1818.6000000000001</ele><time>2026-03-22T16:13:25.898Z</time></trkpt><trkpt lat="21.72960523660035" lon="-102.41375518520303"><ele>1818.8000000000002</ele><time>2026-03-22T16:13:26.898Z</time></trkpt><trkpt lat="21.72969812829482" lon="-102.41375406722368"><ele>1819.0</ele><time>2026-03-22T16:13:27.898Z</time></trkpt><trkpt lat="21.72980149038136" lon="-102.41375572521102"><ele>1819.0</ele><time>2026-03-22T16:13:28.898Z</time></trkpt><trkpt lat="21.729907537150453" lon="-102.41375239143227"><ele>1819.0</ele><time>2026-03-22T16:13:29.898Z</time></trkpt><trkpt lat="21.73001338045212" lon="-102.41375598915486"><ele>1819.0</ele><time>2026-03-22T16:13:30.898Z</time></trkpt><trkpt lat="21.730111035676735" lon="-102.41375728560246"><ele>1819.0</ele><time>2026-03-22T16:13:31.898Z</time></trkpt><trkpt lat="21.730208607925043" lon="-102.41375691742054"><ele>1819.0</ele><time>2026-03-22T16:13:32.898Z</time></trkpt><trkpt lat="21.73031127071859" lon="-102.41376255609211"><ele>1819.0</ele><time>2026-03-22T16:13:33.898Z</time></trkpt><trkpt lat="21.73041572703712" lon="-102.41376290329065"><ele>1819.0</ele><time>2026-03-22T16:13:34.898Z</time></trkpt><trkpt lat="21.730507525406733" lon="-102.41376416544942"><ele>1819.0</ele><time>2026-03-22T16:13:35.898Z</time></trkpt><trkpt lat="21.730608154194368" lon="-102.41376633962997"><ele>1819.0</ele><time>2026-03-22T16:13:36.898Z</time></trkpt><trkpt lat="21.730693804932912" lon="-102.41376156541908"><ele>1819.0</ele><time>2026-03-22T16:13:37.898Z</time></trkpt><trkpt lat="21.73078705457039" lon="-102.4137610593389"><ele>1819.0000000000002</ele><time>2026-03-22T16:13:38.898Z</time></trkpt><trkpt lat="21.730875555977626" lon="-102.4137595955846"><ele>1819.0</ele><time>2026-03-22T16:13:39.898Z</time></trkpt><trkpt lat="21.730957344161137" lon="-102.41375993488224"><ele>1819.0</ele><time>2026-03-22T16:13:40.898Z</time></trkpt><trkpt lat="21.731032685016615" lon="-102.4137642540207"><ele>1819.0</ele><time>2026-03-22T16:13:41.898Z</time></trkpt><trkpt lat="21.731122676855612" lon="-102.41376710017923"><ele>1819.0000000000002</ele><time>2026-03-22T16:13:42.898Z</time></trkpt><trkpt lat="21.73120352131601" lon="-102.4137745471668"><ele>1819.0</ele><time>2026-03-22T16:13:43.898Z</time></trkpt><trkpt lat="21.73127695322179" lon="-102.41376877608882"><ele>1819.1666666666667</ele><time>2026-03-22T16:13:44.898Z</time></trkpt><trkpt lat="21.731358905029644" lon="-102.41376859360464"><ele>1819.3333333333335</ele><time>2026-03-22T16:13:45.898Z</time></trkpt><trkpt lat="21.73144043542449" lon="-102.41377291627404"><ele>1819.5</ele><time>2026-03-22T16:13:46.898Z</time></trkpt><trkpt lat="21.731524678563996" lon="-102.41376708008518"><ele>1819.6666666666665</ele><time>2026-03-22T16:13:47.898Z</time></trkpt><trkpt lat="21.731610122807208" lon="-102.41377454621113"><ele>1819.8333333333333</ele><time>2026-03-22T16:13:48.898Z</time></trkpt><trkpt lat="21.731690156148517" lon="-102.4137752036785"><ele>1820.0</ele><time>2026-03-22T16:13:49.897Z</time></trkpt><trkpt lat="21.73176465137991" lon="-102.41377415464574"><ele>1819.9999999999998</ele><time>2026-03-22T16:13:50.897Z</time></trkpt><trkpt lat="21.73184250626434" lon="-102.41377518272189"><ele>1820.0</ele><time>2026-03-22T16:13:51.897Z</time></trkpt><trkpt lat="21.73192721051387" lon="-102.41378413360704"><ele>1820.0</ele><time>2026-03-22T16:13:52.897Z</time></trkpt><trkpt lat="21.732006877267164" lon="-102.41378170596441"><ele>1820.0</ele><time>2026-03-22T16:13:53.897Z</time></trkpt><trkpt lat="21.732082513854717" lon="-102.41378121207143"><ele>1819.9999999999998</ele><time>2026-03-22T16:13:54.897Z</time></trkpt><trkpt lat="21.732168808884577" lon="-102.41378490627422"><ele>1820.0</ele><time>2026-03-22T16:13:55.897Z</time></trkpt><trkpt lat="21.732249343173386" lon="-102.41378444197645"><ele>1820.3333333333333</ele><time>2026-03-22T16:13:56.897Z</time></trkpt><trkpt lat="21.732328396723766" lon="-102.41378014523346"><ele>1820.6666666666665</ele><time>2026-03-22T16:13:57.897Z</time></trkpt><trkpt lat="21.732414372273386" lon="-102.41377628754026"><ele>1821.0</ele><time>2026-03-22T16:13:58.897Z</time></trkpt><trkpt lat="21.732491675956556" lon="-102.41377793896119"><ele>1821.3333333333335</ele><time>2026-03-22T16:13:59.897Z</time></trkpt><trkpt lat="21.73258097608003" lon="-102.41378088901698"><ele>1821.6666666666667</ele><time>2026-03-22T16:14:00.897Z</time></trkpt><trkpt lat="21.732655227421372" lon="-102.41378166583904"><ele>1822.0</ele><time>2026-03-22T16:14:01.897Z</time></trkpt><trkpt lat="21.732737489900057" lon="-102.4137840093034"><ele>1822.1666666666667</ele><time>2026-03-22T16:14:02.897Z</time></trkpt><trkpt lat="21.73280917601513" lon="-102.41377907040288"><ele>1822.3333333333335</ele><time>2026-03-22T16:14:03.897Z</time></trkpt><trkpt lat="21.732885994200124" lon="-102.41378213147675"><ele>1822.5</ele><time>2026-03-22T16:14:04.897Z</time></trkpt><trkpt lat="21.73296970852122" lon="-102.41378203015367"><ele>1822.6666666666665</ele><time>2026-03-22T16:14:05.897Z</time></trkpt><trkpt lat="21.733042527550477" lon="-102.41378517220961"><ele>1822.8333333333333</ele><time>2026-03-22T16:14:06.897Z</time></trkpt><trkpt lat="21.733127846851385" lon="-102.41378681737882"><ele>1823.0</ele><time>2026-03-22T16:14:07.897Z</time></trkpt><trkpt lat="21.733214361679842" lon="-102.41378920567578"><ele>1822.9999999999998</ele><time>2026-03-22T16:14:08.897Z</time></trkpt><trkpt lat="21.733292325807483" lon="-102.41378667830274"><ele>1823.0</ele><time>2026-03-22T16:14:09.897Z</time></trkpt><trkpt lat="21.73337142466808" lon="-102.41378349708913"><ele>1823.0</ele><time>2026-03-22T16:14:10.897Z</time></trkpt><trkpt lat="21.733455418729235" lon="-102.41378526069298"><ele>1823.0</ele><time>2026-03-22T16:14:11.897Z</time></trkpt><trkpt lat="21.733537759686136" lon="-102.41378576534579"><ele>1822.9999999999998</ele><time>2026-03-22T16:14:12.897Z</time></trkpt><trkpt lat="21.73361497610576" lon="-102.41378681949485"><ele>1823.0</ele><time>2026-03-22T16:14:13.897Z</time></trkpt><trkpt lat="21.733701498087445" lon="-102.41379446143021"><ele>1823.6666666666665</ele><time>2026-03-22T16:14:14.897Z</time></trkpt><trkpt lat="21.7337741513819" lon="-102.41378659357802"><ele>1824.3333333333333</ele><time>2026-03-22T16:14:15.897Z</time></trkpt><trkpt lat="21.733849594267216" lon="-102.41378608169231"><ele>1825.0</ele><time>2026-03-22T16:14:16.897Z</time></trkpt><trkpt lat="21.73393185793541" lon="-102.41378673574503"><ele>1825.6666666666665</ele><time>2026-03-22T16:14:17.897Z</time></trkpt><trkpt lat="21.73401031563173" lon="-102.41378952634253"><ele>1826.3333333333333</ele><time>2026-03-22T16:14:18.898Z</time></trkpt><trkpt lat="21.73407776627927" lon="-102.41378437105382"><ele>1827.0</ele><time>2026-03-22T16:14:19.898Z</time></trkpt><trkpt lat="21.734168992649906" lon="-102.41378882790016"><ele>1827.0</ele><time>2026-03-22T16:14:20.898Z</time></trkpt><trkpt lat="21.73423480283323" lon="-102.41377301690316"><ele>1827.0</ele><time>2026-03-22T16:14:21.898Z</time></trkpt><trkpt lat="21.734321288803603" lon="-102.4137903499501"><ele>1827.0</ele><time>2026-03-22T16:14:22.898Z</time></trkpt><trkpt lat="21.734402709520594" lon="-102.41379559934336"><ele>1827.0</ele><time>2026-03-22T16:14:23.898Z</time></trkpt><trkpt lat="21.73448215891814" lon="-102.41379408623646"><ele>1827.0</ele><time>2026-03-22T16:14:24.898Z</time></trkpt><trkpt lat="21.734557656949665" lon="-102.41379377479066"><ele>1827.0</ele><time>2026-03-22T16:14:25.898Z</time></trkpt><trkpt lat="21.73462859647374" lon="-102.4138022431808"><ele>1827.6666666666667</ele><time>2026-03-22T16:14:26.898Z</time></trkpt><trkpt lat="21.73471810688347" lon="-102.41380925061601"><ele>1828.3333333333335</ele><time>2026-03-22T16:14:27.898Z</time></trkpt><trkpt lat="21.73479507361658" lon="-102.41380549174873"><ele>1829.0</ele><time>2026-03-22T16:14:28.898Z</time></trkpt><trkpt lat="21.734881463165646" lon="-102.41381178941651"><ele>1829.6666666666667</ele><time>2026-03-22T16:14:29.898Z</time></trkpt><trkpt lat="21.73496175293597" lon="-102.4138048058647"><ele>1830.3333333333335</ele><time>2026-03-22T16:14:30.898Z</time></trkpt><trkpt lat="21.735043788476748" lon="-102.41381311181875"><ele>1831.0</ele><time>2026-03-22T16:14:31.898Z</time></trkpt><trkpt lat="21.73512777658243" lon="-102.4138090036058"><ele>1831.0000000000002</ele><time>2026-03-22T16:14:32.898Z</time></trkpt><trkpt lat="21.73520470105984" lon="-102.41380400042618"><ele>1831.0</ele><time>2026-03-22T16:14:33.898Z</time></trkpt><trkpt lat="21.73529791598149" lon="-102.41380772894108"><ele>1831.0</ele><time>2026-03-22T16:14:34.898Z</time></trkpt><trkpt lat="21.735377646498943" lon="-102.41380808472101"><ele>1831.0</ele><time>2026-03-22T16:14:35.898Z</time></trkpt><trkpt lat="21.73545737225805" lon="-102.41380856449577"><ele>1831.0000000000002</ele><time>2026-03-22T16:14:36.898Z</time></trkpt><trkpt lat="21.735543746543694" lon="-102.41381403252247"><ele>1831.0</ele><time>2026-03-22T16:14:37.898Z</time></trkpt><trkpt lat="21.735616670760823" lon="-102.41381809869968"><ele>1831.5000000000002</ele><time>2026-03-22T16:14:38.898Z</time></trkpt><trkpt lat="21.735695207539308" lon="-102.41382113556804"><ele>1832.0</ele><time>2026-03-22T16:14:39.898Z</time></trkpt><trkpt lat="21.73577523843219" lon="-102.41382550043194"><ele>1832.5</ele><time>2026-03-22T16:14:40.898Z</time></trkpt><trkpt lat="21.735854982776903" lon="-102.41382788567469"><ele>1833.0</ele><time>2026-03-22T16:14:41.898Z</time></trkpt><trkpt lat="21.735939466170098" lon="-102.4138293463722"><ele>1833.5000000000002</ele><time>2026-03-22T16:14:42.898Z</time></trkpt><trkpt lat="21.73602008623073" lon="-102.41383499270805"><ele>1834.0</ele><time>2026-03-22T16:14:43.898Z</time></trkpt><trkpt lat="21.736106677809033" lon="-102.41383693818663"><ele>1834.5000000000002</ele><time>2026-03-22T16:14:44.898Z</time></trkpt><trkpt lat="21.736192451275347" lon="-102.41383905848825"><ele>1835.0</ele><time>2026-03-22T16:14:45.898Z</time></trkpt><trkpt lat="21.736280085082385" lon="-102.41383734436027"><ele>1835.5</ele><time>2026-03-22T16:14:46.898Z</time></trkpt><trkpt lat="21.736362894468076" lon="-102.41384025593742"><ele>1836.0</ele><time>2026-03-22T16:14:47.898Z</time></trkpt><trkpt lat="21.73644802538998" lon="-102.41384179597398"><ele>1836.5000000000002</ele><time>2026-03-22T16:14:48.898Z</time></trkpt><trkpt lat="21.73652908707079" lon="-102.41384323047336"><ele>1837.0</ele><time>2026-03-22T16:14:49.898Z</time></trkpt><trkpt lat="21.736617626325053" lon="-102.41384214619303"><ele>1837.0000000000002</ele><time>2026-03-22T16:14:50.898Z</time></trkpt><trkpt lat="21.736696113361756" lon="-102.41384107441218"><ele>1837.0</ele><time>2026-03-22T16:14:51.898Z</time></trkpt><trkpt lat="21.73679406023011" lon="-102.41385131755696"><ele>1837.0</ele><time>2026-03-22T16:14:52.897Z</time></trkpt><trkpt lat="21.736865235329066" lon="-102.41384735895218"><ele>1837.0</ele><time>2026-03-22T16:14:53.897Z</time></trkpt><trkpt lat="21.73694899838264" lon="-102.41384753230926"><ele>1837.0000000000002</ele><time>2026-03-22T16:14:54.897Z</time></trkpt><trkpt lat="21.73703190107493" lon="-102.41384430652272"><ele>1837.0</ele><time>2026-03-22T16:14:55.897Z</time></trkpt><trkpt lat="21.737115410842584" lon="-102.4138505402151"><ele>1837.1666666666667</ele><time>2026-03-22T16:14:56.897Z</time></trkpt><trkpt lat="21.73719841529644" lon="-102.41385333126061"><ele>1837.3333333333335</ele><time>2026-03-22T16:14:57.897Z</time></trkpt><trkpt lat="21.737285384136037" lon="-102.4138498884906"><ele>1837.5</ele><time>2026-03-22T16:14:58.897Z</time></trkpt><trkpt lat="21.737367230684423" lon="-102.4138526321234"><ele>1837.6666666666665</ele><time>2026-03-22T16:14:59.897Z</time></trkpt><trkpt lat="21.737452597080306" lon="-102.41385525746229"><ele>1837.8333333333333</ele><time>2026-03-22T16:15:00.897Z</time></trkpt><trkpt lat="21.737539324609205" lon="-102.41385777329104"><ele>1838.0</ele><time>2026-03-22T16:15:01.897Z</time></trkpt><trkpt lat="21.737615938365394" lon="-102.41385696878282"><ele>1838.0</ele><time>2026-03-22T16:15:02.897Z</time></trkpt><trkpt lat="21.737689246708815" lon="-102.41384453242135"><ele>1838.0000000000002</ele><time>2026-03-22T16:15:03.897Z</time></trkpt><trkpt lat="21.73777772928741" lon="-102.41384965200305"><ele>1838.0000000000002</ele><time>2026-03-22T16:15:04.897Z</time></trkpt><trkpt lat="21.737861542053327" lon="-102.41385382112128"><ele>1838.0</ele><time>2026-03-22T16:15:05.897Z</time></trkpt><trkpt lat="21.738018216361347" lon="-102.41385223457675"><ele>1838.0</ele><time>2026-03-22T16:15:07.897Z</time></trkpt><trkpt lat="21.738102637020894" lon="-102.41385497827535"><ele>1838.1666666666665</ele><time>2026-03-22T16:15:08.897Z</time></trkpt><trkpt lat="21.738180424585952" lon="-102.4138558456915"><ele>1838.3333333333333</ele><time>2026-03-22T16:15:09.897Z</time></trkpt><trkpt lat="21.73826091503309" lon="-102.41385828355497"><ele>1838.5</ele><time>2026-03-22T16:15:10.897Z</time></trkpt><trkpt lat="21.738344787564905" lon="-102.41385789991988"><ele>1838.6666666666665</ele><time>2026-03-22T16:15:11.897Z</time></trkpt><trkpt lat="21.738429449357273" lon="-102.4138632280719"><ele>1838.8333333333333</ele><time>2026-03-22T16:15:12.897Z</time></trkpt><trkpt lat="21.738506329245407" lon="-102.41386613941252"><ele>1839.0</ele><time>2026-03-22T16:15:13.897Z</time></trkpt><trkpt lat="21.738593472090663" lon="-102.41386393604472"><ele>1839.3333333333333</ele><time>2026-03-22T16:15:14.897Z</time></trkpt><trkpt lat="21.738683013398866" lon="-102.41386275728532"><ele>1839.6666666666665</ele><time>2026-03-22T16:15:15.897Z</time></trkpt><trkpt lat="21.738765227479085" lon="-102.41386189583578"><ele>1840.0</ele><time>2026-03-22T16:15:16.897Z</time></trkpt><trkpt lat="21.7388542097857" lon="-102.413871529552"><ele>1840.3333333333333</ele><time>2026-03-22T16:15:17.897Z</time></trkpt><trkpt lat="21.738939835327916" lon="-102.41387292677848"><ele>1840.6666666666665</ele><time>2026-03-22T16:15:18.897Z</time></trkpt><trkpt lat="21.739019010073495" lon="-102.41387606534339"><ele>1841.0</ele><time>2026-03-22T16:15:19.897Z</time></trkpt><trkpt lat="21.73910377069669" lon="-102.41387867060298"><ele>1840.9999999999998</ele><time>2026-03-22T16:15:20.897Z</time></trkpt><trkpt lat="21.73918461614019" lon="-102.41388331339628"><ele>1841.0</ele><time>2026-03-22T16:15:21.897Z</time></trkpt><trkpt lat="21.73926192007959" lon="-102.41388407199787"><ele>1841.0</ele><time>2026-03-22T16:15:22.897Z</time></trkpt><trkpt lat="21.739348112655613" lon="-102.41388723497123"><ele>1841.0</ele><time>2026-03-22T16:15:23.897Z</time></trkpt><trkpt lat="21.73943228756096" lon="-102.41388780000017"><ele>1840.9999999999998</ele><time>2026-03-22T16:15:24.897Z</time></trkpt><trkpt lat="21.739513667575697" lon="-102.41388558956909"><ele>1841.0</ele><time>2026-03-22T16:15:25.897Z</time></trkpt><trkpt lat="21.739594596134687" lon="-102.41388332842229"><ele>1841.1666666666665</ele><time>2026-03-22T16:15:26.897Z</time></trkpt><trkpt lat="21.73967460708953" lon="-102.41388475348877"><ele>1841.3333333333333</ele><time>2026-03-22T16:15:27.897Z</time></trkpt><trkpt lat="21.739762804966652" lon="-102.41388879938825"><ele>1841.5</ele><time>2026-03-22T16:15:28.897Z</time></trkpt><trkpt lat="21.739846709245008" lon="-102.41389371572953"><ele>1841.6666666666665</ele><time>2026-03-22T16:15:29.897Z</time></trkpt><trkpt lat="21.739930191460317" lon="-102.41389143989414"><ele>1841.8333333333333</ele><time>2026-03-22T16:15:30.897Z</time></trkpt><trkpt lat="21.740011458894248" lon="-102.41389139731783"><ele>1842.0</ele><time>2026-03-22T16:15:31.897Z</time></trkpt><trkpt lat="21.740091987003932" lon="-102.4138926306245"><ele>1842.0</ele><time>2026-03-22T16:15:32.897Z</time></trkpt><trkpt lat="21.740180417833255" lon="-102.41389190200961"><ele>1842.0</ele><time>2026-03-22T16:15:33.897Z</time></trkpt><trkpt lat="21.740266903290188" lon="-102.4138944588509"><ele>1842.0</ele><time>2026-03-22T16:15:34.897Z</time></trkpt><trkpt lat="21.74036481781891" lon="-102.41389482955128"><ele>1842.0</ele><time>2026-03-22T16:15:35.897Z</time></trkpt><trkpt lat="21.74045035371363" lon="-102.41389304295174"><ele>1842.0</ele><time>2026-03-22T16:15:36.897Z</time></trkpt><trkpt lat="21.740527378514145" lon="-102.41389248687028"><ele>1842.0</ele><time>2026-03-22T16:15:37.897Z</time></trkpt><trkpt lat="21.740613436485962" lon="-102.41389261325561"><ele>1842.3333333333333</ele><time>2026-03-22T16:15:38.897Z</time></trkpt><trkpt lat="21.74070291953909" lon="-102.41389688273927"><ele>1842.6666666666665</ele><time>2026-03-22T16:15:39.897Z</time></trkpt><trkpt lat="21.740791447700882" lon="-102.41390279530883"><ele>1843.0</ele><time>2026-03-22T16:15:40.897Z</time></trkpt><trkpt lat="21.74087597105121" lon="-102.41390467278764"><ele>1843.3333333333333</ele><time>2026-03-22T16:15:41.897Z</time></trkpt><trkpt lat="21.740964857102824" lon="-102.41391321823085"><ele>1843.6666666666665</ele><time>2026-03-22T16:15:42.896Z</time></trkpt><trkpt lat="21.74105207625971" lon="-102.41392064864246"><ele>1844.0</ele><time>2026-03-22T16:15:43.896Z</time></trkpt><trkpt lat="21.741141525539167" lon="-102.41391727845937"><ele>1844.2</ele><time>2026-03-22T16:15:44.896Z</time></trkpt><trkpt lat="21.741222702153905" lon="-102.4139170759174"><ele>1844.4</ele><time>2026-03-22T16:15:45.896Z</time></trkpt><trkpt lat="21.741319447787788" lon="-102.41391897115695"><ele>1844.6</ele><time>2026-03-22T16:15:46.896Z</time></trkpt><trkpt lat="21.741412695309428" lon="-102.41391884229067"><ele>1844.8</ele><time>2026-03-22T16:15:47.896Z</time></trkpt><trkpt lat="21.74150299255782" lon="-102.41391900880448"><ele>1845.0</ele><time>2026-03-22T16:15:48.896Z</time></trkpt><trkpt lat="21.74159981507893" lon="-102.41392067443398"><ele>1845.0</ele><time>2026-03-22T16:15:49.896Z</time></trkpt><trkpt lat="21.741689785566095" lon="-102.41392055867065"><ele>1845.0</ele><time>2026-03-22T16:15:50.896Z</time></trkpt><trkpt lat="21.741786172909574" lon="-102.41392227736922"><ele>1845.0</ele><time>2026-03-22T16:15:51.896Z</time></trkpt><trkpt lat="21.741879334581004" lon="-102.41392337787839"><ele>1845.0</ele><time>2026-03-22T16:15:52.896Z</time></trkpt><trkpt lat="21.74197372995543" lon="-102.41392582338015"><ele>1845.0</ele><time>2026-03-22T16:15:53.896Z</time></trkpt><trkpt lat="21.742071145553503" lon="-102.41392608264572"><ele>1845.2</ele><time>2026-03-22T16:15:54.896Z</time></trkpt><trkpt lat="21.742167570678102" lon="-102.41393183006666"><ele>1845.4</ele><time>2026-03-22T16:15:55.896Z</time></trkpt><trkpt lat="21.742263405286543" lon="-102.41393608768826"><ele>1845.6</ele><time>2026-03-22T16:15:56.896Z</time></trkpt><trkpt lat="21.742360713087333" lon="-102.41393715653928"><ele>1845.8</ele><time>2026-03-22T16:15:57.896Z</time></trkpt><trkpt lat="21.742462529037063" lon="-102.41393699543671"><ele>1846.0</ele><time>2026-03-22T16:15:58.896Z</time></trkpt><trkpt lat="21.74255792092296" lon="-102.41394096275901"><ele>1846.0</ele><time>2026-03-22T16:15:59.896Z</time></trkpt><trkpt lat="21.74265545042827" lon="-102.41394196264916"><ele>1846.0</ele><time>2026-03-22T16:16:00.896Z</time></trkpt><trkpt lat="21.7427513508919" lon="-102.41394535271371"><ele>1846.0</ele><time>2026-03-22T16:16:01.896Z</time></trkpt><trkpt lat="21.742840768644758" lon="-102.41395089472846"><ele>1846.0</ele><time>2026-03-22T16:16:02.896Z</time></trkpt><trkpt lat="21.742947330000806" lon="-102.41394904189507"><ele>1846.0</ele><time>2026-03-22T16:16:03.896Z</time></trkpt><trkpt lat="21.743039757705965" lon="-102.41394767143986"><ele>1846.1999999999998</ele><time>2026-03-22T16:16:04.896Z</time></trkpt><trkpt lat="21.743135098979693" lon="-102.41395021568763"><ele>1846.3999999999999</ele><time>2026-03-22T16:16:05.896Z</time></trkpt><trkpt lat="21.743227893872028" lon="-102.41394705692913"><ele>1846.6</ele><time>2026-03-22T16:16:06.896Z</time></trkpt><trkpt lat="21.74332400868922" lon="-102.41394699598749"><ele>1846.8</ele><time>2026-03-22T16:16:07.896Z</time></trkpt><trkpt lat="21.74342183736027" lon="-102.41394847884554"><ele>1847.0</ele><time>2026-03-22T16:16:08.896Z</time></trkpt><trkpt lat="21.74351467511251" lon="-102.41395096005591"><ele>1847.3999999999999</ele><time>2026-03-22T16:16:09.896Z</time></trkpt><trkpt lat="21.743611784159423" lon="-102.41395068788535"><ele>1847.7999999999997</ele><time>2026-03-22T16:16:10.896Z</time></trkpt><trkpt lat="21.743704667420204" lon="-102.41394834988299"><ele>1848.2</ele><time>2026-03-22T16:16:11.896Z</time></trkpt><trkpt lat="21.74380097907725" lon="-102.41395549556012"><ele>1848.6</ele><time>2026-03-22T16:16:12.896Z</time></trkpt><trkpt lat="21.743900247536875" lon="-102.41397389239363"><ele>1849.0</ele><time>2026-03-22T16:16:13.896Z</time></trkpt><trkpt lat="21.743998036151627" lon="-102.41398443015568"><ele>1849.0</ele><time>2026-03-22T16:16:14.896Z</time></trkpt><trkpt lat="21.74410031229264" lon="-102.41400394978582"><ele>1849.0</ele><time>2026-03-22T16:16:15.896Z</time></trkpt><trkpt lat="21.74419624318455" lon="-102.41402745044113"><ele>1849.0</ele><time>2026-03-22T16:16:16.896Z</time></trkpt><trkpt lat="21.744292141697272" lon="-102.4140479001049"><ele>1849.0</ele><time>2026-03-22T16:16:17.896Z</time></trkpt><trkpt lat="21.74439497482903" lon="-102.41408070863233"><ele>1849.0</ele><time>2026-03-22T16:16:18.896Z</time></trkpt><trkpt lat="21.744484530609654" lon="-102.41411181477079"><ele>1849.6</ele><time>2026-03-22T16:16:19.896Z</time></trkpt><trkpt lat="21.7445732573821" lon="-102.4141358114309"><ele>1850.2</ele><time>2026-03-22T16:16:20.896Z</time></trkpt><trkpt lat="21.744664032921346" lon="-102.41417012794"><ele>1850.7999999999997</ele><time>2026-03-22T16:16:21.896Z</time></trkpt><trkpt lat="21.744752348547728" lon="-102.41420184653053"><ele>1851.3999999999999</ele><time>2026-03-22T16:16:22.896Z</time></trkpt><trkpt lat="21.744832086116773" lon="-102.41423296268492"><ele>1852.0</ele><time>2026-03-22T16:16:23.896Z</time></trkpt><trkpt lat="21.744929226459803" lon="-102.41428495276975"><ele>1852.0000000000002</ele><time>2026-03-22T16:16:24.897Z</time></trkpt><trkpt lat="21.74500668347192" lon="-102.41432064565619"><ele>1852.0</ele><time>2026-03-22T16:16:25.897Z</time></trkpt><trkpt lat="21.74508187532293" lon="-102.41435511396271"><ele>1852.0</ele><time>2026-03-22T16:16:26.897Z</time></trkpt><trkpt lat="21.745159514708057" lon="-102.41439356735305"><ele>1852.0</ele><time>2026-03-22T16:16:27.896Z</time></trkpt><trkpt lat="21.74523078755007" lon="-102.41442427179898"><ele>1852.0000000000002</ele><time>2026-03-22T16:16:28.897Z</time></trkpt><trkpt lat="21.745300150207242" lon="-102.41445489627739"><ele>1852.0</ele><time>2026-03-22T16:16:29.897Z</time></trkpt><trkpt lat="21.745369462805755" lon="-102.41448902167224"><ele>1852.5714285714284</ele><time>2026-03-22T16:16:30.897Z</time></trkpt><trkpt lat="21.74543039362406" lon="-102.41452261962817"><ele>1853.1428571428569</ele><time>2026-03-22T16:16:31.897Z</time></trkpt><trkpt lat="21.74549248845429" lon="-102.41455148470577"><ele>1853.7142857142858</ele><time>2026-03-22T16:16:32.897Z</time></trkpt><trkpt lat="21.74555803341988" lon="-102.4145792469955"><ele>1854.2857142857142</ele><time>2026-03-22T16:16:33.896Z</time></trkpt><trkpt lat="21.745618401914673" lon="-102.41460174153981"><ele>1854.857142857143</ele><time>2026-03-22T16:16:34.897Z</time></trkpt><trkpt lat="21.745686382364326" lon="-102.41463676997077"><ele>1855.4285714285716</ele><time>2026-03-22T16:16:35.897Z</time></trkpt><trkpt lat="21.745749899779824" lon="-102.41465332339254"><ele>1856.0000000000002</ele><time>2026-03-22T16:16:36.897Z</time></trkpt><trkpt lat="21.74582250643866" lon="-102.41469624883321"><ele>1856.1666666666665</ele><time>2026-03-22T16:16:37.897Z</time></trkpt><trkpt lat="21.7458919062978" lon="-102.41472982705048"><ele>1856.3333333333333</ele><time>2026-03-22T16:16:38.897Z</time></trkpt><trkpt lat="21.74596069521218" lon="-102.41476651574902"><ele>1856.5</ele><time>2026-03-22T16:16:39.897Z</time></trkpt><trkpt lat="21.746030532244976" lon="-102.41480185991827"><ele>1856.6666666666665</ele><time>2026-03-22T16:16:40.897Z</time></trkpt><trkpt lat="21.746100313098687" lon="-102.41483509209259"><ele>1856.8333333333333</ele><time>2026-03-22T16:16:41.897Z</time></trkpt><trkpt lat="21.746171356411093" lon="-102.41486324911688"><ele>1857.0</ele><time>2026-03-22T16:16:42.897Z</time></trkpt><trkpt lat="21.746242535052488" lon="-102.41489374108278"><ele>1857.5</ele><time>2026-03-22T16:16:43.897Z</time></trkpt><trkpt lat="21.746315086064044" lon="-102.41492791812631"><ele>1858.0</ele><time>2026-03-22T16:16:44.897Z</time></trkpt><trkpt lat="21.74638669439991" lon="-102.4149628577746"><ele>1858.5</ele><time>2026-03-22T16:16:45.897Z</time></trkpt><trkpt lat="21.74645684815613" lon="-102.41499638387602"><ele>1859.0</ele><time>2026-03-22T16:16:46.897Z</time></trkpt><trkpt lat="21.7465281292152" lon="-102.41503063984753"><ele>1859.5</ele><time>2026-03-22T16:16:47.897Z</time></trkpt><trkpt lat="21.746593885043595" lon="-102.41506247745602"><ele>1860.0</ele><time>2026-03-22T16:16:48.897Z</time></trkpt><trkpt lat="21.746664852788324" lon="-102.41509769145001"><ele>1860.0</ele><time>2026-03-22T16:16:49.896Z</time></trkpt><trkpt lat="21.746735149020836" lon="-102.41513023051417"><ele>1860.0</ele><time>2026-03-22T16:16:50.896Z</time></trkpt><trkpt lat="21.74680738998932" lon="-102.41516268881739"><ele>1860.0</ele><time>2026-03-22T16:16:51.896Z</time></trkpt><trkpt lat="21.74687919990138" lon="-102.41519266312524"><ele>1860.0</ele><time>2026-03-22T16:16:52.896Z</time></trkpt><trkpt lat="21.74694952642476" lon="-102.41522492938232"><ele>1860.0</ele><time>2026-03-22T16:16:53.896Z</time></trkpt><trkpt lat="21.74701536063337" lon="-102.41525989180596"><ele>1860.0</ele><time>2026-03-22T16:16:54.896Z</time></trkpt><trkpt lat="21.747090987445425" lon="-102.41529864236294"><ele>1860.0</ele><time>2026-03-22T16:16:55.896Z</time></trkpt><trkpt lat="21.747164673903058" lon="-102.41533188547596"><ele>1860.0</ele><time>2026-03-22T16:16:56.896Z</time></trkpt><trkpt lat="21.74723127509252" lon="-102.41536225274479"><ele>1860.0</ele><time>2026-03-22T16:16:57.896Z</time></trkpt><trkpt lat="21.747301580552424" lon="-102.41539471845628"><ele>1860.0</ele><time>2026-03-22T16:16:58.896Z</time></trkpt><trkpt lat="21.747371421212126" lon="-102.41542835310712"><ele>1860.0</ele><time>2026-03-22T16:16:59.896Z</time></trkpt><trkpt lat="21.74743434589247" lon="-102.4154540152645"><ele>1860.0</ele><time>2026-03-22T16:17:00.896Z</time></trkpt><trkpt lat="21.747505333665366" lon="-102.41548782785797"><ele>1860.1666666666667</ele><time>2026-03-22T16:17:01.896Z</time></trkpt><trkpt lat="21.747576640775893" lon="-102.4155200921794"><ele>1860.3333333333335</ele><time>2026-03-22T16:17:02.896Z</time></trkpt><trkpt lat="21.747646398100446" lon="-102.41555239968399"><ele>1860.5</ele><time>2026-03-22T16:17:03.896Z</time></trkpt><trkpt lat="21.74771903987391" lon="-102.41558981456478"><ele>1860.6666666666667</ele><time>2026-03-22T16:17:04.896Z</time></trkpt><trkpt lat="21.747789226983294" lon="-102.41562384893064"><ele>1860.8333333333335</ele><time>2026-03-22T16:17:05.896Z</time></trkpt><trkpt lat="21.74785790876833" lon="-102.41564628241582"><ele>1861.0</ele><time>2026-03-22T16:17:06.896Z</time></trkpt><trkpt lat="21.747936504063574" lon="-102.41568470058218"><ele>1861.3333333333335</ele><time>2026-03-22T16:17:07.896Z</time></trkpt><trkpt lat="21.7479999845899" lon="-102.41570338813307"><ele>1861.6666666666667</ele><time>2026-03-22T16:17:08.896Z</time></trkpt><trkpt lat="21.74808076636266" lon="-102.41574564140353"><ele>1862.0</ele><time>2026-03-22T16:17:09.896Z</time></trkpt><trkpt lat="21.74814840199761" lon="-102.41578492554693"><ele>1862.3333333333335</ele><time>2026-03-22T16:17:10.896Z</time></trkpt><trkpt lat="21.748222010799577" lon="-102.4158181626917"><ele>1862.6666666666667</ele><time>2026-03-22T16:17:11.896Z</time></trkpt><trkpt lat="21.748288619953193" lon="-102.41584515258229"><ele>1863.0</ele><time>2026-03-22T16:17:12.896Z</time></trkpt><trkpt lat="21.748354886623126" lon="-102.41588003082819"><ele>1863.0000000000002</ele><time>2026-03-22T16:17:13.896Z</time></trkpt><trkpt lat="21.7484306702828" lon="-102.41590975463993"><ele>1863.0</ele><time>2026-03-22T16:17:14.896Z</time></trkpt><trkpt lat="21.7485019579989" lon="-102.41594172884182"><ele>1863.0000000000002</ele><time>2026-03-22T16:17:15.896Z</time></trkpt><trkpt lat="21.7485721482133" lon="-102.41595544604768"><ele>1863.0000000000002</ele><time>2026-03-22T16:17:16.896Z</time></trkpt><trkpt lat="21.748644990517406" lon="-102.41597405125916"><ele>1863.0</ele><time>2026-03-22T16:17:17.896Z</time></trkpt><trkpt lat="21.748711426801826" lon="-102.4159972958286"><ele>1863.0000000000002</ele><time>2026-03-22T16:17:18.896Z</time></trkpt><trkpt lat="21.748781429194562" lon="-102.41601974733445"><ele>1863.0000000000002</ele><time>2026-03-22T16:17:19.896Z</time></trkpt><trkpt lat="21.74884909540724" lon="-102.41603053261129"><ele>1863.5</ele><time>2026-03-22T16:17:20.896Z</time></trkpt><trkpt lat="21.74891920854295" lon="-102.41604440316495"><ele>1864.0</ele><time>2026-03-22T16:17:21.896Z</time></trkpt><trkpt lat="21.7489827545058" lon="-102.41605828635531"><ele>1864.5</ele><time>2026-03-22T16:17:22.896Z</time></trkpt><trkpt lat="21.749053876506746" lon="-102.41606920657993"><ele>1865.0</ele><time>2026-03-22T16:17:23.896Z</time></trkpt><trkpt lat="21.749116516629048" lon="-102.41607990092288"><ele>1865.5</ele><time>2026-03-22T16:17:24.896Z</time></trkpt><trkpt lat="21.749179636908163" lon="-102.41608755587856"><ele>1866.0</ele><time>2026-03-22T16:17:25.896Z</time></trkpt><trkpt lat="21.74930927031387" lon="-102.41609317291481"><ele>1866.0</ele><time>2026-03-22T16:17:27.896Z</time></trkpt><trkpt lat="21.749373725807953" lon="-102.41609102943437"><ele>1866.0</ele><time>2026-03-22T16:17:28.896Z</time></trkpt><trkpt lat="21.749438178894152" lon="-102.41608752224752"><ele>1866.0</ele><time>2026-03-22T16:17:29.896Z</time></trkpt><trkpt lat="21.749571010439027" lon="-102.41609634875715"><ele>1866.0</ele><time>2026-03-22T16:17:31.896Z</time></trkpt><trkpt lat="21.74963842423393" lon="-102.41609844490011"><ele>1866.0</ele><time>2026-03-22T16:17:32.896Z</time></trkpt><trkpt lat="21.749706624686294" lon="-102.41608714254158"><ele>1866.0</ele><time>2026-03-22T16:17:33.896Z</time></trkpt><trkpt lat="21.749771282989517" lon="-102.41607701407742"><ele>1866.5714285714284</ele><time>2026-03-22T16:17:34.896Z</time></trkpt><trkpt lat="21.7498395021425" lon="-102.41607441964037"><ele>1867.1428571428569</ele><time>2026-03-22T16:17:35.896Z</time></trkpt><trkpt lat="21.749907394861708" lon="-102.41607021369049"><ele>1867.7142857142858</ele><time>2026-03-22T16:17:36.896Z</time></trkpt><trkpt lat="21.749977069142723" lon="-102.41606344908583"><ele>1868.2857142857142</ele><time>2026-03-22T16:17:37.896Z</time></trkpt><trkpt lat="21.750043618069938" lon="-102.41605623895562"><ele>1868.857142857143</ele><time>2026-03-22T16:17:38.896Z</time></trkpt><trkpt lat="21.75011707590438" lon="-102.41605428011131"><ele>1869.4285714285716</ele><time>2026-03-22T16:17:39.896Z</time></trkpt><trkpt lat="21.750187691836167" lon="-102.41603868536677"><ele>1870.0000000000002</ele><time>2026-03-22T16:17:40.895Z</time></trkpt><trkpt lat="21.75026065567337" lon="-102.41602565072093"><ele>1870.3333333333335</ele><time>2026-03-22T16:17:41.895Z</time></trkpt><trkpt lat="21.750323904244016" lon="-102.41601878671744"><ele>1870.6666666666667</ele><time>2026-03-22T16:17:42.895Z</time></trkpt><trkpt lat="21.75039209470637" lon="-102.41600789234451"><ele>1871.0</ele><time>2026-03-22T16:17:43.895Z</time></trkpt><trkpt lat="21.75052002236608" lon="-102.4159904220503"><ele>1871.3333333333335</ele><time>2026-03-22T16:17:45.895Z</time></trkpt><trkpt lat="21.75063768488336" lon="-102.4159707718365"><ele>1871.6666666666667</ele><time>2026-03-22T16:17:47.895Z</time></trkpt><trkpt lat="21.750701518573486" lon="-102.41595178590326"><ele>1872.0</ele><time>2026-03-22T16:17:48.895Z</time></trkpt><trkpt lat="21.750775375663185" lon="-102.41595280533429"><ele>1872.0</ele><time>2026-03-22T16:17:49.895Z</time></trkpt><trkpt lat="21.750840213505477" lon="-102.4159418584496"><ele>1872.0000000000002</ele><time>2026-03-22T16:17:50.895Z</time></trkpt><trkpt lat="21.750904171999608" lon="-102.41593448622238"><ele>1872.0</ele><time>2026-03-22T16:17:51.895Z</time></trkpt><trkpt lat="21.750974716310154" lon="-102.4159255339704"><ele>1872.0</ele><time>2026-03-22T16:17:52.895Z</time></trkpt><trkpt lat="21.751038985866774" lon="-102.4159172817689"><ele>1872.0000000000002</ele><time>2026-03-22T16:17:53.895Z</time></trkpt><trkpt lat="21.751109427258115" lon="-102.41590941364656"><ele>1872.0</ele><time>2026-03-22T16:17:54.895Z</time></trkpt><trkpt lat="21.75117889074659" lon="-102.41589866680951"><ele>1872.0</ele><time>2026-03-22T16:17:55.895Z</time></trkpt><trkpt lat="21.751244023242965" lon="-102.41588861606373"><ele>1872.3333333333333</ele><time>2026-03-22T16:17:56.895Z</time></trkpt><trkpt lat="21.75130764786724" lon="-102.41587833391816"><ele>1872.6666666666665</ele><time>2026-03-22T16:17:57.895Z</time></trkpt><trkpt lat="21.751379989699334" lon="-102.41587802091455"><ele>1873.0</ele><time>2026-03-22T16:17:58.895Z</time></trkpt><trkpt lat="21.751448832651757" lon="-102.41587016232239"><ele>1873.3333333333333</ele><time>2026-03-22T16:17:59.895Z</time></trkpt><trkpt lat="21.751517746376674" lon="-102.4158584174576"><ele>1873.6666666666665</ele><time>2026-03-22T16:18:00.895Z</time></trkpt><trkpt lat="21.751651716284872" lon="-102.41584209653917"><ele>1874.0</ele><time>2026-03-22T16:18:02.895Z</time></trkpt><trkpt lat="21.751721477791882" lon="-102.41583887496174"><ele>1874.0</ele><time>2026-03-22T16:18:03.895Z</time></trkpt><trkpt lat="21.751786973506892" lon="-102.41583163648224"><ele>1874.0</ele><time>2026-03-22T16:18:04.895Z</time></trkpt><trkpt lat="21.75185468333298" lon="-102.41582605620556"><ele>1874.0</ele><time>2026-03-22T16:18:05.895Z</time></trkpt><trkpt lat="21.751922642756796" lon="-102.41581445556002"><ele>1874.0</ele><time>2026-03-22T16:18:06.895Z</time></trkpt><trkpt lat="21.75199282088005" lon="-102.41580276147491"><ele>1874.0</ele><time>2026-03-22T16:18:07.895Z</time></trkpt><trkpt lat="21.75206292052815" lon="-102.41579797280586"><ele>1874.0</ele><time>2026-03-22T16:18:08.895Z</time></trkpt><trkpt lat="21.752132366831642" lon="-102.41579319843477"><ele>1874.0</ele><time>2026-03-22T16:18:09.895Z</time></trkpt><trkpt lat="21.752201448948345" lon="-102.41578890969859"><ele>1873.8000000000002</ele><time>2026-03-22T16:18:10.895Z</time></trkpt><trkpt lat="21.752280323877915" lon="-102.41578476144079"><ele>1873.6000000000001</ele><time>2026-03-22T16:18:11.895Z</time></trkpt><trkpt lat="21.75242748280673" lon="-102.4157741540654"><ele>1873.4</ele><time>2026-03-22T16:18:13.895Z</time></trkpt><trkpt lat="21.752502412136547" lon="-102.41577215520361"><ele>1873.2</ele><time>2026-03-22T16:18:14.895Z</time></trkpt><trkpt lat="21.752579787407758" lon="-102.41577443301453"><ele>1873.0</ele><time>2026-03-22T16:18:15.895Z</time></trkpt><trkpt lat="21.75265496426259" lon="-102.41578022458498"><ele>1873.3333333333335</ele><time>2026-03-22T16:18:16.895Z</time></trkpt><trkpt lat="21.752734251079993" lon="-102.41578701122116"><ele>1873.6666666666667</ele><time>2026-03-22T16:18:17.895Z</time></trkpt><trkpt lat="21.752812412189773" lon="-102.41579124781862"><ele>1874.0</ele><time>2026-03-22T16:18:18.895Z</time></trkpt><trkpt lat="21.752888891031912" lon="-102.41580114449847"><ele>1874.3333333333335</ele><time>2026-03-22T16:18:19.895Z</time></trkpt><trkpt lat="21.752966561928424" lon="-102.41580942241714"><ele>1874.6666666666667</ele><time>2026-03-22T16:18:20.895Z</time></trkpt><trkpt lat="21.753042972923673" lon="-102.41581762601228"><ele>1875.0</ele><time>2026-03-22T16:18:21.895Z</time></trkpt><trkpt lat="21.75311859668985" lon="-102.41582864459778"><ele>1875.0</ele><time>2026-03-22T16:18:22.895Z</time></trkpt><trkpt lat="21.75319399717666" lon="-102.41583675153502"><ele>1875.0</ele><time>2026-03-22T16:18:23.895Z</time></trkpt><trkpt lat="21.753271237558224" lon="-102.41584119729389"><ele>1875.0</ele><time>2026-03-22T16:18:24.895Z</time></trkpt><trkpt lat="21.753348889000087" lon="-102.41584256497796"><ele>1875.0</ele><time>2026-03-22T16:18:25.895Z</time></trkpt><trkpt lat="21.753427066705296" lon="-102.41585128013811"><ele>1875.0</ele><time>2026-03-22T16:18:26.895Z</time></trkpt><trkpt lat="21.753501501604827" lon="-102.41586231653754"><ele>1875.0</ele><time>2026-03-22T16:18:27.895Z</time></trkpt><trkpt lat="21.753578342635794" lon="-102.41587678652272"><ele>1875.428571428571</ele><time>2026-03-22T16:18:28.895Z</time></trkpt><trkpt lat="21.75365404329323" lon="-102.41588706914708"><ele>1875.8571428571427</ele><time>2026-03-22T16:18:29.895Z</time></trkpt><trkpt lat="21.753726286783813" lon="-102.41590115118917"><ele>1876.2857142857142</ele><time>2026-03-22T16:18:30.895Z</time></trkpt><trkpt lat="21.753798477629694" lon="-102.41590806542453"><ele>1876.7142857142856</ele><time>2026-03-22T16:18:31.895Z</time></trkpt><trkpt lat="21.753865043912622" lon="-102.41591855751027"><ele>1877.1428571428569</ele><time>2026-03-22T16:18:32.895Z</time></trkpt><trkpt lat="21.753932863146968" lon="-102.41592940759364"><ele>1877.5714285714287</ele><time>2026-03-22T16:18:33.895Z</time></trkpt><trkpt lat="21.754004295104675" lon="-102.41593783598543"><ele>1878.0</ele><time>2026-03-22T16:18:34.895Z</time></trkpt><trkpt lat="21.7540703243237" lon="-102.41594438886958"><ele>1878.0</ele><time>2026-03-22T16:18:35.895Z</time></trkpt><trkpt lat="21.754140593143184" lon="-102.41595230417215"><ele>1878.0</ele><time>2026-03-22T16:18:36.895Z</time></trkpt><trkpt lat="21.75421132905127" lon="-102.4159639352346"><ele>1878.0</ele><time>2026-03-22T16:18:37.896Z</time></trkpt><trkpt lat="21.75428737705526" lon="-102.41596951086152"><ele>1878.0</ele><time>2026-03-22T16:18:38.896Z</time></trkpt><trkpt lat="21.754361551955796" lon="-102.41598131935787"><ele>1878.0</ele><time>2026-03-22T16:18:39.895Z</time></trkpt><trkpt lat="21.754440801207856" lon="-102.41599409946136"><ele>1878.0</ele><time>2026-03-22T16:18:40.895Z</time></trkpt><trkpt lat="21.75452507027912" lon="-102.41601351709048"><ele>1878.0</ele><time>2026-03-22T16:18:41.895Z</time></trkpt><trkpt lat="21.7545919710653" lon="-102.41602037181099"><ele>1878.0</ele><time>2026-03-22T16:18:42.895Z</time></trkpt><trkpt lat="21.75467622277373" lon="-102.41603079710143"><ele>1878.0</ele><time>2026-03-22T16:18:43.896Z</time></trkpt><trkpt lat="21.75475534432744" lon="-102.41604323133483"><ele>1878.0</ele><time>2026-03-22T16:18:44.896Z</time></trkpt><trkpt lat="21.75483793549698" lon="-102.41605351416315"><ele>1878.0</ele><time>2026-03-22T16:18:45.896Z</time></trkpt><trkpt lat="21.754925005705736" lon="-102.41606728571576"><ele>1878.0</ele><time>2026-03-22T16:18:46.895Z</time></trkpt><trkpt lat="21.755002746149145" lon="-102.41607392694213"><ele>1878.0</ele><time>2026-03-22T16:18:47.895Z</time></trkpt><trkpt lat="21.755088133159145" lon="-102.41608891461678"><ele>1878.0</ele><time>2026-03-22T16:18:48.895Z</time></trkpt><trkpt lat="21.75516642625101" lon="-102.41610084272965"><ele>1878.0</ele><time>2026-03-22T16:18:49.895Z</time></trkpt><trkpt lat="21.755246195074445" lon="-102.4161143992919"><ele>1878.0</ele><time>2026-03-22T16:18:50.895Z</time></trkpt><trkpt lat="21.755330439628512" lon="-102.41612772229857"><ele>1878.0</ele><time>2026-03-22T16:18:51.895Z</time></trkpt><trkpt lat="21.75540919148314" lon="-102.41613546686618"><ele>1878.0</ele><time>2026-03-22T16:18:52.895Z</time></trkpt><trkpt lat="21.755499380152727" lon="-102.41615571533536"><ele>1878.3333333333333</ele><time>2026-03-22T16:18:53.895Z</time></trkpt><trkpt lat="21.755576627556483" lon="-102.41616819511637"><ele>1878.6666666666665</ele><time>2026-03-22T16:18:54.895Z</time></trkpt><trkpt lat="21.755659755567226" lon="-102.41617751717406"><ele>1879.0</ele><time>2026-03-22T16:18:55.895Z</time></trkpt><trkpt lat="21.755748030746656" lon="-102.41618514686543"><ele>1879.3333333333333</ele><time>2026-03-22T16:18:56.895Z</time></trkpt><trkpt lat="21.755830859201964" lon="-102.4161980789445"><ele>1879.6666666666665</ele><time>2026-03-22T16:18:57.895Z</time></trkpt><trkpt lat="21.755914568259872" lon="-102.41620703955597"><ele>1880.0</ele><time>2026-03-22T16:18:58.895Z</time></trkpt><trkpt lat="21.755996967991432" lon="-102.4162180771641"><ele>1879.9999999999998</ele><time>2026-03-22T16:18:59.895Z</time></trkpt><trkpt lat="21.75608015489671" lon="-102.41623105970977"><ele>1880.0</ele><time>2026-03-22T16:19:00.895Z</time></trkpt><trkpt lat="21.756167745780644" lon="-102.41624312585411"><ele>1880.0</ele><time>2026-03-22T16:19:01.895Z</time></trkpt><trkpt lat="21.75625291734036" lon="-102.41625666776126"><ele>1880.0</ele><time>2026-03-22T16:19:02.895Z</time></trkpt><trkpt lat="21.756342101009448" lon="-102.41626858707015"><ele>1879.9999999999998</ele><time>2026-03-22T16:19:03.895Z</time></trkpt><trkpt lat="21.7564340620549" lon="-102.41627926641283"><ele>1880.0</ele><time>2026-03-22T16:19:04.895Z</time></trkpt><trkpt lat="21.75652394287098" lon="-102.41629072979089"><ele>1879.9999999999998</ele><time>2026-03-22T16:19:05.895Z</time></trkpt><trkpt lat="21.756606657829373" lon="-102.41629889555722"><ele>1880.0</ele><time>2026-03-22T16:19:06.895Z</time></trkpt><trkpt lat="21.756703241590547" lon="-102.41632342376333"><ele>1880.0</ele><time>2026-03-22T16:19:07.895Z</time></trkpt><trkpt lat="21.75679209802686" lon="-102.4163328075931"><ele>1880.0</ele><time>2026-03-22T16:19:08.895Z</time></trkpt><trkpt lat="21.75688106091899" lon="-102.41634031020403"><ele>1879.9999999999998</ele><time>2026-03-22T16:19:09.895Z</time></trkpt><trkpt lat="21.756967796130613" lon="-102.41635270671578"><ele>1880.0</ele><time>2026-03-22T16:19:10.895Z</time></trkpt><trkpt lat="21.75706328115228" lon="-102.41636160947753"><ele>1880.6666666666665</ele><time>2026-03-22T16:19:11.895Z</time></trkpt><trkpt lat="21.757152127966638" lon="-102.41637960361803"><ele>1881.3333333333333</ele><time>2026-03-22T16:19:12.895Z</time></trkpt><trkpt lat="21.757240370446176" lon="-102.41639393263267"><ele>1882.0</ele><time>2026-03-22T16:19:13.895Z</time></trkpt><trkpt lat="21.75732758083751" lon="-102.41640431071482"><ele>1882.6666666666665</ele><time>2026-03-22T16:19:14.895Z</time></trkpt><trkpt lat="21.757423301555537" lon="-102.41642199660033"><ele>1883.3333333333333</ele><time>2026-03-22T16:19:15.895Z</time></trkpt><trkpt lat="21.75750643353026" lon="-102.41642562549754"><ele>1884.0</ele><time>2026-03-22T16:19:16.895Z</time></trkpt><trkpt lat="21.757598561801796" lon="-102.4164372554301"><ele>1884.0</ele><time>2026-03-22T16:19:17.895Z</time></trkpt><trkpt lat="21.757685491335106" lon="-102.41644861154462"><ele>1884.0</ele><time>2026-03-22T16:19:18.895Z</time></trkpt><trkpt lat="21.757773007211146" lon="-102.41646107774355"><ele>1884.0</ele><time>2026-03-22T16:19:19.895Z</time></trkpt><trkpt lat="21.757860183422302" lon="-102.41647468362527"><ele>1884.0</ele><time>2026-03-22T16:19:20.895Z</time></trkpt><trkpt lat="21.757946244547732" lon="-102.41648873445932"><ele>1884.0</ele><time>2026-03-22T16:19:21.895Z</time></trkpt><trkpt lat="21.758034114045177" lon="-102.41650411600678"><ele>1884.0</ele><time>2026-03-22T16:19:22.895Z</time></trkpt><trkpt lat="21.758113370874074" lon="-102.41651127249914"><ele>1884.3333333333333</ele><time>2026-03-22T16:19:23.895Z</time></trkpt><trkpt lat="21.758210203332432" lon="-102.416531139015"><ele>1884.6666666666665</ele><time>2026-03-22T16:19:24.895Z</time></trkpt><trkpt lat="21.758291385602977" lon="-102.41654338735384"><ele>1885.0</ele><time>2026-03-22T16:19:25.895Z</time></trkpt><trkpt lat="21.758375530912836" lon="-102.41655475346566"><ele>1885.3333333333333</ele><time>2026-03-22T16:19:26.895Z</time></trkpt><trkpt lat="21.75845872339082" lon="-102.41656993667364"><ele>1885.6666666666665</ele><time>2026-03-22T16:19:27.895Z</time></trkpt><trkpt lat="21.75854513454259" lon="-102.41658245323912"><ele>1886.0</ele><time>2026-03-22T16:19:28.895Z</time></trkpt><trkpt lat="21.75863212386008" lon="-102.416606884532"><ele>1886.1666666666665</ele><time>2026-03-22T16:19:29.895Z</time></trkpt><trkpt lat="21.758712786781864" lon="-102.41662419005222"><ele>1886.3333333333333</ele><time>2026-03-22T16:19:30.895Z</time></trkpt><trkpt lat="21.75880020477057" lon="-102.41665281848934"><ele>1886.5</ele><time>2026-03-22T16:19:31.895Z</time></trkpt><trkpt lat="21.758885464260732" lon="-102.41668027238785"><ele>1886.6666666666665</ele><time>2026-03-22T16:19:32.895Z</time></trkpt><trkpt lat="21.75896534609686" lon="-102.416713403522"><ele>1886.8333333333333</ele><time>2026-03-22T16:19:33.895Z</time></trkpt><trkpt lat="21.75904780073596" lon="-102.41674261494516"><ele>1887.0</ele><time>2026-03-22T16:19:34.895Z</time></trkpt><trkpt lat="21.75913236564313" lon="-102.41678000989768"><ele>1887.0</ele><time>2026-03-22T16:19:35.895Z</time></trkpt><trkpt lat="21.759216422435117" lon="-102.41681768275369"><ele>1887.0</ele><time>2026-03-22T16:19:36.895Z</time></trkpt><trkpt lat="21.75929854404329" lon="-102.41685385864662"><ele>1887.0</ele><time>2026-03-22T16:19:37.894Z</time></trkpt><trkpt lat="21.759380838318247" lon="-102.41689536898895"><ele>1887.0</ele><time>2026-03-22T16:19:38.894Z</time></trkpt><trkpt lat="21.75945805852003" lon="-102.41693650147555"><ele>1887.0</ele><time>2026-03-22T16:19:39.894Z</time></trkpt><trkpt lat="21.759534329799575" lon="-102.41698116144629"><ele>1887.0</ele><time>2026-03-22T16:19:40.894Z</time></trkpt><trkpt lat="21.759610804339186" lon="-102.41703612246843"><ele>1887.3999999999999</ele><time>2026-03-22T16:19:41.894Z</time></trkpt><trkpt lat="21.759686205841064" lon="-102.41708870599219"><ele>1887.7999999999997</ele><time>2026-03-22T16:19:42.894Z</time></trkpt><trkpt lat="21.759760854058545" lon="-102.41714440492737"><ele>1888.2</ele><time>2026-03-22T16:19:43.894Z</time></trkpt><trkpt lat="21.75983996874374" lon="-102.41719632935126"><ele>1888.6</ele><time>2026-03-22T16:19:44.894Z</time></trkpt><trkpt lat="21.759910283419952" lon="-102.41723711170627"><ele>1889.0</ele><time>2026-03-22T16:19:45.894Z</time></trkpt><trkpt lat="21.75998987211484" lon="-102.41730009342706"><ele>1889.0</ele><time>2026-03-22T16:19:46.894Z</time></trkpt><trkpt lat="21.7600611098768" lon="-102.41735186616451"><ele>1889.0</ele><time>2026-03-22T16:19:47.894Z</time></trkpt><trkpt lat="21.760135355960053" lon="-102.4174097685269"><ele>1889.0</ele><time>2026-03-22T16:19:48.894Z</time></trkpt><trkpt lat="21.760213606035435" lon="-102.41746018188672"><ele>1889.0</ele><time>2026-03-22T16:19:49.894Z</time></trkpt><trkpt lat="21.760288391017454" lon="-102.41751773752678"><ele>1889.0</ele><time>2026-03-22T16:19:50.894Z</time></trkpt><trkpt lat="21.76036138398385" lon="-102.4175754970802"><ele>1888.9999999999998</ele><time>2026-03-22T16:19:51.894Z</time></trkpt><trkpt lat="21.760424930486707" lon="-102.41763822304097"><ele>1889.0</ele><time>2026-03-22T16:19:52.894Z</time></trkpt><trkpt lat="21.760490804834106" lon="-102.41770212290105"><ele>1889.0</ele><time>2026-03-22T16:19:53.894Z</time></trkpt><trkpt lat="21.76055727269585" lon="-102.41776716763965"><ele>1889.0</ele><time>2026-03-22T16:19:54.894Z</time></trkpt><trkpt lat="21.76061891338496" lon="-102.4178309918055"><ele>1888.9999999999998</ele><time>2026-03-22T16:19:55.894Z</time></trkpt><trkpt lat="21.760682863682995" lon="-102.41789657803665"><ele>1889.0</ele><time>2026-03-22T16:19:56.894Z</time></trkpt><trkpt lat="21.760743086792804" lon="-102.41796909827949"><ele>1888.9999999999998</ele><time>2026-03-22T16:19:57.894Z</time></trkpt><trkpt lat="21.76080036424095" lon="-102.41803756789123"><ele>1889.0</ele><time>2026-03-22T16:19:58.894Z</time></trkpt><trkpt lat="21.76085771487839" lon="-102.41810500630702"><ele>1889.0</ele><time>2026-03-22T16:19:59.894Z</time></trkpt><trkpt lat="21.760914577557138" lon="-102.4181833084902"><ele>1889.0</ele><time>2026-03-22T16:20:00.894Z</time></trkpt><trkpt lat="21.76096849145072" lon="-102.41826611606261"><ele>1888.9999999999998</ele><time>2026-03-22T16:20:01.894Z</time></trkpt><trkpt lat="21.761018036055578" lon="-102.4183369688112"><ele>1889.0</ele><time>2026-03-22T16:20:02.894Z</time></trkpt><trkpt lat="21.761067771833837" lon="-102.41841454445087"><ele>1889.1666666666665</ele><time>2026-03-22T16:20:03.894Z</time></trkpt><trkpt lat="21.761118160246422" lon="-102.41849028604298"><ele>1889.3333333333333</ele><time>2026-03-22T16:20:04.894Z</time></trkpt><trkpt lat="21.761170134779384" lon="-102.41856212687406"><ele>1889.5</ele><time>2026-03-22T16:20:05.894Z</time></trkpt><trkpt lat="21.761220811112633" lon="-102.41863520844866"><ele>1889.6666666666665</ele><time>2026-03-22T16:20:06.894Z</time></trkpt><trkpt lat="21.761270653199144" lon="-102.41871077224398"><ele>1889.8333333333333</ele><time>2026-03-22T16:20:07.894Z</time></trkpt><trkpt lat="21.76131643247017" lon="-102.41878496015745"><ele>1890.0</ele><time>2026-03-22T16:20:08.894Z</time></trkpt><trkpt lat="21.761365991759355" lon="-102.41886304179518"><ele>1890.3333333333333</ele><time>2026-03-22T16:20:09.894Z</time></trkpt><trkpt lat="21.761417656820136" lon="-102.4189359509053"><ele>1890.6666666666665</ele><time>2026-03-22T16:20:10.894Z</time></trkpt><trkpt lat="21.76146976403974" lon="-102.41900892579207"><ele>1891.0</ele><time>2026-03-22T16:20:11.894Z</time></trkpt><trkpt lat="21.761520354259854" lon="-102.41908203315673"><ele>1891.3333333333333</ele><time>2026-03-22T16:20:12.894Z</time></trkpt><trkpt lat="21.76157513529598" lon="-102.41915725445925"><ele>1891.6666666666665</ele><time>2026-03-22T16:20:13.894Z</time></trkpt><trkpt lat="21.7616312270861" lon="-102.41922802049226"><ele>1892.0</ele><time>2026-03-22T16:20:14.894Z</time></trkpt><trkpt lat="21.761687623398284" lon="-102.41929671845176"><ele>1891.9999999999998</ele><time>2026-03-22T16:20:15.894Z</time></trkpt><trkpt lat="21.761747035612352" lon="-102.41936898523822"><ele>1892.0</ele><time>2026-03-22T16:20:16.894Z</time></trkpt><trkpt lat="21.76180960042688" lon="-102.41943517202024"><ele>1892.0</ele><time>2026-03-22T16:20:17.894Z</time></trkpt><trkpt lat="21.76186790306577" lon="-102.41949270394393"><ele>1892.0</ele><time>2026-03-22T16:20:18.894Z</time></trkpt><trkpt lat="21.76193472760085" lon="-102.41955915607188"><ele>1891.9999999999998</ele><time>2026-03-22T16:20:19.894Z</time></trkpt><trkpt lat="21.761997278322124" lon="-102.41960474204924"><ele>1892.0</ele><time>2026-03-22T16:20:20.894Z</time></trkpt><trkpt lat="21.762071149147406" lon="-102.41967029944091"><ele>1892.1666666666665</ele><time>2026-03-22T16:20:21.894Z</time></trkpt><trkpt lat="21.76214084155997" lon="-102.41972787445167"><ele>1892.3333333333333</ele><time>2026-03-22T16:20:22.894Z</time></trkpt><trkpt lat="21.762208784058142" lon="-102.41978447709266"><ele>1892.5</ele><time>2026-03-22T16:20:23.894Z</time></trkpt><trkpt lat="21.762279815808057" lon="-102.4198263707455"><ele>1892.6666666666665</ele><time>2026-03-22T16:20:24.894Z</time></trkpt><trkpt lat="21.762355409472633" lon="-102.41987397898102"><ele>1892.8333333333333</ele><time>2026-03-22T16:20:25.894Z</time></trkpt><trkpt lat="21.76243488409395" lon="-102.41992633101893"><ele>1893.0</ele><time>2026-03-22T16:20:26.894Z</time></trkpt><trkpt lat="21.76251285000765" lon="-102.41997353051461"><ele>1893.0</ele><time>2026-03-22T16:20:27.893Z</time></trkpt><trkpt lat="21.762593462547024" lon="-102.42001817407639"><ele>1893.0</ele><time>2026-03-22T16:20:28.893Z</time></trkpt><trkpt lat="21.762672574955477" lon="-102.42005186430762"><ele>1893.0</ele><time>2026-03-22T16:20:29.893Z</time></trkpt><trkpt lat="21.762758667456396" lon="-102.42008896922505"><ele>1893.0</ele><time>2026-03-22T16:20:30.893Z</time></trkpt><trkpt lat="21.76284299216575" lon="-102.42011754546668"><ele>1893.0</ele><time>2026-03-22T16:20:31.893Z</time></trkpt><trkpt lat="21.762926980613777" lon="-102.42014381108906"><ele>1893.0</ele><time>2026-03-22T16:20:32.893Z</time></trkpt><trkpt lat="21.763011290011672" lon="-102.42016839849279"><ele>1893.1666666666667</ele><time>2026-03-22T16:20:33.893Z</time></trkpt><trkpt lat="21.763094293908747" lon="-102.42019138050686"><ele>1893.3333333333335</ele><time>2026-03-22T16:20:34.893Z</time></trkpt><trkpt lat="21.763183060950663" lon="-102.42021493193869"><ele>1893.5</ele><time>2026-03-22T16:20:35.893Z</time></trkpt><trkpt lat="21.763271705904852" lon="-102.42023475472493"><ele>1893.6666666666667</ele><time>2026-03-22T16:20:36.894Z</time></trkpt><trkpt lat="21.763357884031766" lon="-102.4202471550974"><ele>1893.8333333333335</ele><time>2026-03-22T16:20:37.894Z</time></trkpt><trkpt lat="21.763445049609135" lon="-102.42025610520409"><ele>1894.0</ele><time>2026-03-22T16:20:38.894Z</time></trkpt><trkpt lat="21.763531594938044" lon="-102.42026312884933"><ele>1894.0000000000002</ele><time>2026-03-22T16:20:39.894Z</time></trkpt><trkpt lat="21.763617971091296" lon="-102.42026908868742"><ele>1894.0</ele><time>2026-03-22T16:20:40.895Z</time></trkpt><trkpt lat="21.76370555424662" lon="-102.42027582907035"><ele>1894.0</ele><time>2026-03-22T16:20:41.895Z</time></trkpt><trkpt lat="21.76379285615994" lon="-102.42027678992397"><ele>1894.0</ele><time>2026-03-22T16:20:42.894Z</time></trkpt><trkpt lat="21.76387978433005" lon="-102.42027438300069"><ele>1894.0000000000002</ele><time>2026-03-22T16:20:43.894Z</time></trkpt><trkpt lat="21.763969029077234" lon="-102.42027694097692"><ele>1894.0</ele><time>2026-03-22T16:20:44.894Z</time></trkpt><trkpt lat="21.76405734733297" lon="-102.42027690488734"><ele>1894.0000000000002</ele><time>2026-03-22T16:20:45.894Z</time></trkpt><trkpt lat="21.764145594490746" lon="-102.42027376699801"><ele>1894.0</ele><time>2026-03-22T16:20:46.894Z</time></trkpt><trkpt lat="21.764234789390976" lon="-102.42026752396688"><ele>1894.0</ele><time>2026-03-22T16:20:47.894Z</time></trkpt><trkpt lat="21.764322999506255" lon="-102.42025895848953"><ele>1894.0</ele><time>2026-03-22T16:20:48.894Z</time></trkpt><trkpt lat="21.76441324598232" lon="-102.42025278705792"><ele>1894.0000000000002</ele><time>2026-03-22T16:20:49.895Z</time></trkpt><trkpt lat="21.764500679902778" lon="-102.42024722964752"><ele>1894.0</ele><time>2026-03-22T16:20:50.895Z</time></trkpt><trkpt lat="21.764588785890545" lon="-102.42023986480899"><ele>1894.1666666666667</ele><time>2026-03-22T16:20:51.895Z</time></trkpt><trkpt lat="21.76467621711482" lon="-102.42023595079604"><ele>1894.3333333333335</ele><time>2026-03-22T16:20:52.895Z</time></trkpt><trkpt lat="21.764762519382437" lon="-102.4202282447464"><ele>1894.5</ele><time>2026-03-22T16:20:53.895Z</time></trkpt><trkpt lat="21.76485197489442" lon="-102.42021950134026"><ele>1894.6666666666665</ele><time>2026-03-22T16:20:54.895Z</time></trkpt><trkpt lat="21.764937691430198" lon="-102.42021129356276"><ele>1894.8333333333333</ele><time>2026-03-22T16:20:55.895Z</time></trkpt><trkpt lat="21.76502250727558" lon="-102.42020268402457"><ele>1895.0</ele><time>2026-03-22T16:20:56.895Z</time></trkpt><trkpt lat="21.76510955863953" lon="-102.42019439293291"><ele>1895.3333333333333</ele><time>2026-03-22T16:20:57.895Z</time></trkpt><trkpt lat="21.76520006152271" lon="-102.42018841897163"><ele>1895.6666666666665</ele><time>2026-03-22T16:20:58.894Z</time></trkpt><trkpt lat="21.76528720111267" lon="-102.42018460784145"><ele>1896.0</ele><time>2026-03-22T16:20:59.894Z</time></trkpt><trkpt lat="21.76537202585254" lon="-102.42017750639891"><ele>1896.3333333333335</ele><time>2026-03-22T16:21:00.894Z</time></trkpt><trkpt lat="21.76545972396429" lon="-102.4201742645947"><ele>1896.6666666666667</ele><time>2026-03-22T16:21:01.894Z</time></trkpt><trkpt lat="21.76554727322876" lon="-102.42017497195371"><ele>1897.0</ele><time>2026-03-22T16:21:02.894Z</time></trkpt><trkpt lat="21.765635805688287" lon="-102.42016263620467"><ele>1897.0000000000002</ele><time>2026-03-22T16:21:03.894Z</time></trkpt><trkpt lat="21.765725518500396" lon="-102.42015099772019"><ele>1897.0</ele><time>2026-03-22T16:21:04.894Z</time></trkpt><trkpt lat="21.765813352313724" lon="-102.42014564038188"><ele>1897.0</ele><time>2026-03-22T16:21:05.894Z</time></trkpt><trkpt lat="21.765902380674586" lon="-102.42014117571964"><ele>1897.0</ele><time>2026-03-22T16:21:06.894Z</time></trkpt><trkpt lat="21.765991906722412" lon="-102.42013288998965"><ele>1897.0000000000002</ele><time>2026-03-22T16:21:07.894Z</time></trkpt><trkpt lat="21.76608214846137" lon="-102.4201299247166"><ele>1897.0</ele><time>2026-03-22T16:21:08.894Z</time></trkpt><trkpt lat="21.7661703336821" lon="-102.42012583544413"><ele>1897.3333333333335</ele><time>2026-03-22T16:21:09.894Z</time></trkpt><trkpt lat="21.766256676456816" lon="-102.42012530260429"><ele>1897.6666666666667</ele><time>2026-03-22T16:21:10.894Z</time></trkpt><trkpt lat="21.76634721806444" lon="-102.42012338397322"><ele>1898.0</ele><time>2026-03-22T16:21:11.894Z</time></trkpt><trkpt lat="21.766431580562497" lon="-102.42013307059905"><ele>1898.3333333333335</ele><time>2026-03-22T16:21:12.894Z</time></trkpt><trkpt lat="21.766521842508418" lon="-102.4201482165898"><ele>1898.6666666666667</ele><time>2026-03-22T16:21:13.894Z</time></trkpt><trkpt lat="21.766612323493955" lon="-102.42016178322451"><ele>1899.0</ele><time>2026-03-22T16:21:14.894Z</time></trkpt><trkpt lat="21.76670299297223" lon="-102.42018223356902"><ele>1899.0</ele><time>2026-03-22T16:21:15.894Z</time></trkpt><trkpt lat="21.766789684356553" lon="-102.42020375790008"><ele>1899.0</ele><time>2026-03-22T16:21:16.894Z</time></trkpt><trkpt lat="21.76687361335697" lon="-102.42023067734192"><ele>1899.0</ele><time>2026-03-22T16:21:17.894Z</time></trkpt><trkpt lat="21.7669623699781" lon="-102.4202568056865"><ele>1899.0</ele><time>2026-03-22T16:21:18.894Z</time></trkpt><trkpt lat="21.76704957349682" lon="-102.42028209687368"><ele>1899.0</ele><time>2026-03-22T16:21:19.894Z</time></trkpt><trkpt lat="21.767133261227364" lon="-102.42030936208864"><ele>1899.0</ele><time>2026-03-22T16:21:20.894Z</time></trkpt><trkpt lat="21.767220171222668" lon="-102.42034350128671"><ele>1899.0</ele><time>2026-03-22T16:21:21.894Z</time></trkpt><trkpt lat="21.767305006402466" lon="-102.42037753290498"><ele>1899.0</ele><time>2026-03-22T16:21:22.894Z</time></trkpt><trkpt lat="21.767388871113333" lon="-102.42041301758763"><ele>1899.0</ele><time>2026-03-22T16:21:23.894Z</time></trkpt><trkpt lat="21.767474445649583" lon="-102.42044022176842"><ele>1899.0</ele><time>2026-03-22T16:21:24.894Z</time></trkpt><trkpt lat="21.76755922358165" lon="-102.42046678254218"><ele>1899.0</ele><time>2026-03-22T16:21:25.894Z</time></trkpt><trkpt lat="21.76764873410701" lon="-102.42049901426128"><ele>1899.2</ele><time>2026-03-22T16:21:26.894Z</time></trkpt><trkpt lat="21.767729604128547" lon="-102.42052418174931"><ele>1899.4</ele><time>2026-03-22T16:21:27.894Z</time></trkpt><trkpt lat="21.767824125733412" lon="-102.4205523007768"><ele>1899.6</ele><time>2026-03-22T16:21:28.894Z</time></trkpt><trkpt lat="21.767908853313095" lon="-102.42057702452831"><ele>1899.8</ele><time>2026-03-22T16:21:29.894Z</time></trkpt><trkpt lat="21.768005207425038" lon="-102.42059975516099"><ele>1900.0</ele><time>2026-03-22T16:21:30.894Z</time></trkpt><trkpt lat="21.768099118805996" lon="-102.42061083545885"><ele>1900.0</ele><time>2026-03-22T16:21:31.894Z</time></trkpt><trkpt lat="21.768191812020525" lon="-102.42062166308321"><ele>1900.0</ele><time>2026-03-22T16:21:32.894Z</time></trkpt><trkpt lat="21.768276692067985" lon="-102.42062963133687"><ele>1900.0</ele><time>2026-03-22T16:21:33.894Z</time></trkpt><trkpt lat="21.768365753240417" lon="-102.42063507966266"><ele>1900.0</ele><time>2026-03-22T16:21:34.894Z</time></trkpt><trkpt lat="21.76845830431336" lon="-102.42063813496807"><ele>1900.0</ele><time>2026-03-22T16:21:35.894Z</time></trkpt><trkpt lat="21.768558879170598" lon="-102.42063905009138"><ele>1900.0</ele><time>2026-03-22T16:21:36.894Z</time></trkpt><trkpt lat="21.76864805088617" lon="-102.4206399801661"><ele>1900.0</ele><time>2026-03-22T16:21:37.894Z</time></trkpt><trkpt lat="21.768739898801275" lon="-102.42063298256564"><ele>1900.0</ele><time>2026-03-22T16:21:38.894Z</time></trkpt><trkpt lat="21.768835694537888" lon="-102.42062270019423"><ele>1900.0</ele><time>2026-03-22T16:21:39.894Z</time></trkpt><trkpt lat="21.76892287860426" lon="-102.42060695307495"><ele>1900.0</ele><time>2026-03-22T16:21:40.894Z</time></trkpt><trkpt lat="21.76901478799465" lon="-102.42058970998923"><ele>1900.0</ele><time>2026-03-22T16:21:41.894Z</time></trkpt><trkpt lat="21.769099899981548" lon="-102.42056958254278"><ele>1900.0</ele><time>2026-03-22T16:21:42.894Z</time></trkpt><trkpt lat="21.76919194466612" lon="-102.42054577361708"><ele>1900.0</ele><time>2026-03-22T16:21:43.894Z</time></trkpt><trkpt lat="21.769277610022247" lon="-102.42051866379941"><ele>1900.0</ele><time>2026-03-22T16:21:44.894Z</time></trkpt><trkpt lat="21.769365068623753" lon="-102.42048863197904"><ele>1900.0</ele><time>2026-03-22T16:21:45.894Z</time></trkpt><trkpt lat="21.769449381063964" lon="-102.42045791540778"><ele>1900.3333333333335</ele><time>2026-03-22T16:21:46.894Z</time></trkpt><trkpt lat="21.769536252488578" lon="-102.42042340742007"><ele>1900.6666666666667</ele><time>2026-03-22T16:21:47.894Z</time></trkpt><trkpt lat="21.769616952831296" lon="-102.42038666149843"><ele>1901.0</ele><time>2026-03-22T16:21:48.893Z</time></trkpt><trkpt lat="21.76969933955783" lon="-102.42034304389769"><ele>1901.3333333333335</ele><time>2026-03-22T16:21:49.893Z</time></trkpt><trkpt lat="21.76977945841633" lon="-102.42029901669584"><ele>1901.6666666666667</ele><time>2026-03-22T16:21:50.893Z</time></trkpt><trkpt lat="21.769855151385283" lon="-102.4202592766277"><ele>1902.0</ele><time>2026-03-22T16:21:51.893Z</time></trkpt><trkpt lat="21.76993338928865" lon="-102.42021593959103"><ele>1902.0</ele><time>2026-03-22T16:21:52.893Z</time></trkpt><trkpt lat="21.770008512765884" lon="-102.4201729934091"><ele>1902.0</ele><time>2026-03-22T16:21:53.893Z</time></trkpt><trkpt lat="21.770086416758584" lon="-102.4201230295106"><ele>1902.0</ele><time>2026-03-22T16:21:54.893Z</time></trkpt><trkpt lat="21.77016229558378" lon="-102.42007384073393"><ele>1902.0</ele><time>2026-03-22T16:21:55.893Z</time></trkpt><trkpt lat="21.770235169158216" lon="-102.42002493836688"><ele>1902.0</ele><time>2026-03-22T16:21:56.893Z</time></trkpt><trkpt lat="21.77031098179708" lon="-102.4199755087289"><ele>1902.0</ele><time>2026-03-22T16:21:57.893Z</time></trkpt><trkpt lat="21.770387442636736" lon="-102.41992959138476"><ele>1902.0</ele><time>2026-03-22T16:21:58.893Z</time></trkpt><trkpt lat="21.7704618398005" lon="-102.41988556316919"><ele>1902.0</ele><time>2026-03-22T16:21:59.893Z</time></trkpt><trkpt lat="21.7705341465489" lon="-102.4198397625895"><ele>1902.0</ele><time>2026-03-22T16:22:00.893Z</time></trkpt><trkpt lat="21.77060717910603" lon="-102.41979677365894"><ele>1902.0</ele><time>2026-03-22T16:22:01.893Z</time></trkpt><trkpt lat="21.770681606886978" lon="-102.41975097476228"><ele>1902.0</ele><time>2026-03-22T16:22:02.893Z</time></trkpt><trkpt lat="21.770752934626188" lon="-102.41970317532457"><ele>1902.0</ele><time>2026-03-22T16:22:03.893Z</time></trkpt><trkpt lat="21.770825612606853" lon="-102.41965827068633"><ele>1902.5</ele><time>2026-03-22T16:22:04.893Z</time></trkpt><trkpt lat="21.770892569780685" lon="-102.41961256201856"><ele>1903.0</ele><time>2026-03-22T16:22:05.893Z</time></trkpt><trkpt lat="21.770970187074198" lon="-102.41956463624736"><ele>1903.5</ele><time>2026-03-22T16:22:06.893Z</time></trkpt><trkpt lat="21.771040931173225" lon="-102.41951748177975"><ele>1904.0</ele><time>2026-03-22T16:22:07.893Z</time></trkpt><trkpt lat="21.771118586789168" lon="-102.41946978682547"><ele>1904.5</ele><time>2026-03-22T16:22:08.893Z</time></trkpt><trkpt lat="21.771192060597805" lon="-102.41942110428576"><ele>1905.0</ele><time>2026-03-22T16:22:09.893Z</time></trkpt><trkpt lat="21.77127300676162" lon="-102.41937376300552"><ele>1905.1666666666667</ele><time>2026-03-22T16:22:10.893Z</time></trkpt><trkpt lat="21.77135137161619" lon="-102.41932826176817"><ele>1905.3333333333335</ele><time>2026-03-22T16:22:11.893Z</time></trkpt><trkpt lat="21.771427328223936" lon="-102.41927982736283"><ele>1905.5</ele><time>2026-03-22T16:22:12.893Z</time></trkpt><trkpt lat="21.771504146838765" lon="-102.41923275121943"><ele>1905.6666666666667</ele><time>2026-03-22T16:22:13.893Z</time></trkpt><trkpt lat="21.7715796782225" lon="-102.41918405176897"><ele>1905.8333333333335</ele><time>2026-03-22T16:22:14.893Z</time></trkpt><trkpt lat="21.77165641464781" lon="-102.41913670661454"><ele>1906.0</ele><time>2026-03-22T16:22:15.893Z</time></trkpt><trkpt lat="21.771732887008838" lon="-102.41909049013937"><ele>1906.0000000000002</ele><time>2026-03-22T16:22:16.893Z</time></trkpt><trkpt lat="21.77180828727298" lon="-102.41904097789015"><ele>1906.0</ele><time>2026-03-22T16:22:17.893Z</time></trkpt><trkpt lat="21.771877274412926" lon="-102.41899464582129"><ele>1906.0</ele><time>2026-03-22T16:22:18.893Z</time></trkpt><trkpt lat="21.7719544246077" lon="-102.41894978016444"><ele>1906.0</ele><time>2026-03-22T16:22:19.893Z</time></trkpt><trkpt lat="21.772032921100465" lon="-102.41890576791965"><ele>1906.0000000000002</ele><time>2026-03-22T16:22:20.893Z</time></trkpt><trkpt lat="21.77210896129905" lon="-102.41885815574813"><ele>1906.0</ele><time>2026-03-22T16:22:21.893Z</time></trkpt><trkpt lat="21.77218068946649" lon="-102.41880846857677"><ele>1906.6666666666667</ele><time>2026-03-22T16:22:22.893Z</time></trkpt><trkpt lat="21.77225351489483" lon="-102.41876142378635"><ele>1907.3333333333335</ele><time>2026-03-22T16:22:23.893Z</time></trkpt><trkpt lat="21.77232673320005" lon="-102.41871640886752"><ele>1908.0</ele><time>2026-03-22T16:22:24.893Z</time></trkpt><trkpt lat="21.77240074450002" lon="-102.41867251471976"><ele>1908.6666666666665</ele><time>2026-03-22T16:22:25.893Z</time></trkpt><trkpt lat="21.77247699431786" lon="-102.41862526821569"><ele>1909.3333333333333</ele><time>2026-03-22T16:22:26.893Z</time></trkpt><trkpt lat="21.772549936602182" lon="-102.41858099611478"><ele>1910.0</ele><time>2026-03-22T16:22:27.893Z</time></trkpt><trkpt lat="21.772622368986433" lon="-102.41853416839103"><ele>1910.1666666666665</ele><time>2026-03-22T16:22:28.893Z</time></trkpt><trkpt lat="21.772695921045038" lon="-102.41848448389383"><ele>1910.3333333333333</ele><time>2026-03-22T16:22:29.893Z</time></trkpt><trkpt lat="21.77276750038894" lon="-102.4184414229474"><ele>1910.5</ele><time>2026-03-22T16:22:30.893Z</time></trkpt><trkpt lat="21.772844161316133" lon="-102.41839318862131"><ele>1910.6666666666665</ele><time>2026-03-22T16:22:31.893Z</time></trkpt><trkpt lat="21.772916238307243" lon="-102.41834595691232"><ele>1910.8333333333333</ele><time>2026-03-22T16:22:32.893Z</time></trkpt><trkpt lat="21.77298811546543" lon="-102.41829945851744"><ele>1911.0</ele><time>2026-03-22T16:22:33.893Z</time></trkpt><trkpt lat="21.773063668197643" lon="-102.418251943072"><ele>1911.0</ele><time>2026-03-22T16:22:34.893Z</time></trkpt><trkpt lat="21.773135924127974" lon="-102.41820927131943"><ele>1911.0</ele><time>2026-03-22T16:22:35.893Z</time></trkpt><trkpt lat="21.773210736067032" lon="-102.41816292013816"><ele>1911.0</ele><time>2026-03-22T16:22:36.893Z</time></trkpt><trkpt lat="21.773281718856058" lon="-102.41811585207934"><ele>1911.0</ele><time>2026-03-22T16:22:37.893Z</time></trkpt><trkpt lat="21.773354191583294" lon="-102.4180728933145"><ele>1911.0</ele><time>2026-03-22T16:22:38.892Z</time></trkpt><trkpt lat="21.77343279217109" lon="-102.41802945646407"><ele>1911.0</ele><time>2026-03-22T16:22:39.892Z</time></trkpt><trkpt lat="21.773503020312138" lon="-102.41798028150369"><ele>1911.5</ele><time>2026-03-22T16:22:40.892Z</time></trkpt><trkpt lat="21.773576247990427" lon="-102.41792972450247"><ele>1912.0</ele><time>2026-03-22T16:22:41.892Z</time></trkpt><trkpt lat="21.773653786325347" lon="-102.41788577992745"><ele>1912.5</ele><time>2026-03-22T16:22:42.894Z</time></trkpt><trkpt lat="21.773734421284455" lon="-102.41784323253965"><ele>1913.0</ele><time>2026-03-22T16:22:43.893Z</time></trkpt><trkpt lat="21.773813098605153" lon="-102.4177997283827"><ele>1913.5</ele><time>2026-03-22T16:22:44.893Z</time></trkpt><trkpt lat="21.773889587675228" lon="-102.41775456649552"><ele>1914.0</ele><time>2026-03-22T16:22:45.893Z</time></trkpt><trkpt lat="21.77396530200588" lon="-102.41770808423023"><ele>1914.0</ele><time>2026-03-22T16:22:46.893Z</time></trkpt><trkpt lat="21.77404513974245" lon="-102.41765723943006"><ele>1914.0</ele><time>2026-03-22T16:22:47.893Z</time></trkpt><trkpt lat="21.77412185438379" lon="-102.41761093266602"><ele>1914.0</ele><time>2026-03-22T16:22:48.893Z</time></trkpt><trkpt lat="21.774197364508307" lon="-102.4175649332672"><ele>1914.0</ele><time>2026-03-22T16:22:49.893Z</time></trkpt><trkpt lat="21.774268866911363" lon="-102.41751214668838"><ele>1914.0</ele><time>2026-03-22T16:22:50.893Z</time></trkpt><trkpt lat="21.774344253537933" lon="-102.41745639400979"><ele>1914.0</ele><time>2026-03-22T16:22:51.893Z</time></trkpt><trkpt lat="21.77442624590937" lon="-102.41739668675713"><ele>1914.0</ele><time>2026-03-22T16:22:52.893Z</time></trkpt><trkpt lat="21.774491613686862" lon="-102.41733641553978"><ele>1914.0</ele><time>2026-03-22T16:22:53.893Z</time></trkpt><trkpt lat="21.774555561306023" lon="-102.41726004487279"><ele>1914.0</ele><time>2026-03-22T16:22:54.893Z</time></trkpt><trkpt lat="21.774611118873228" lon="-102.41718690054428"><ele>1914.0</ele><time>2026-03-22T16:22:55.893Z</time></trkpt><trkpt lat="21.774661107443755" lon="-102.41710783615272"><ele>1914.0</ele><time>2026-03-22T16:22:56.893Z</time></trkpt><trkpt lat="21.774704702189492" lon="-102.41702031989252"><ele>1914.0</ele><time>2026-03-22T16:22:57.893Z</time></trkpt><trkpt lat="21.774734368114746" lon="-102.41693507899704"><ele>1914.0</ele><time>2026-03-22T16:22:58.893Z</time></trkpt><trkpt lat="21.774760341789776" lon="-102.41685059835648"><ele>1914.0</ele><time>2026-03-22T16:22:59.892Z</time></trkpt><trkpt lat="21.774787947123578" lon="-102.41676288531423"><ele>1914.0</ele><time>2026-03-22T16:23:00.892Z</time></trkpt><trkpt lat="21.77481965473683" lon="-102.41666974770521"><ele>1914.0</ele><time>2026-03-22T16:23:01.892Z</time></trkpt><trkpt lat="21.77484745425355" lon="-102.4165862854684"><ele>1914.0</ele><time>2026-03-22T16:23:02.892Z</time></trkpt><trkpt lat="21.774872016075083" lon="-102.41649700694505"><ele>1914.0</ele><time>2026-03-22T16:23:03.892Z</time></trkpt><trkpt lat="21.77489963899383" lon="-102.41640900513956"><ele>1914.0</ele><time>2026-03-22T16:23:04.892Z</time></trkpt><trkpt lat="21.77492522226943" lon="-102.41632084292557"><ele>1914.0</ele><time>2026-03-22T16:23:05.892Z</time></trkpt><trkpt lat="21.774951919496246" lon="-102.41623862825018"><ele>1914.0</ele><time>2026-03-22T16:23:06.892Z</time></trkpt><trkpt lat="21.774975282110205" lon="-102.41615312138816"><ele>1914.0</ele><time>2026-03-22T16:23:07.892Z</time></trkpt><trkpt lat="21.775002194578725" lon="-102.41607547026642"><ele>1914.0</ele><time>2026-03-22T16:23:08.892Z</time></trkpt><trkpt lat="21.77503568320177" lon="-102.41600013035062"><ele>1914.0</ele><time>2026-03-22T16:23:09.892Z</time></trkpt><trkpt lat="21.77507683190568" lon="-102.41592823531978"><ele>1914.0</ele><time>2026-03-22T16:23:10.892Z</time></trkpt><trkpt lat="21.77512860734443" lon="-102.4158616782234"><ele>1914.0</ele><time>2026-03-22T16:23:11.892Z</time></trkpt><trkpt lat="21.77519507464295" lon="-102.41579512844314"><ele>1914.0</ele><time>2026-03-22T16:23:12.892Z</time></trkpt><trkpt lat="21.77526825695704" lon="-102.41573780142355"><ele>1914.0</ele><time>2026-03-22T16:23:13.892Z</time></trkpt><trkpt lat="21.77533860550657" lon="-102.41568926283293"><ele>1914.0</ele><time>2026-03-22T16:23:14.892Z</time></trkpt><trkpt lat="21.775402743558818" lon="-102.4156370481219"><ele>1914.3333333333333</ele><time>2026-03-22T16:23:15.892Z</time></trkpt><trkpt lat="21.775471065115987" lon="-102.4155800261688"><ele>1914.6666666666665</ele><time>2026-03-22T16:23:16.892Z</time></trkpt><trkpt lat="21.77553851307173" lon="-102.41553165874869"><ele>1915.0</ele><time>2026-03-22T16:23:17.892Z</time></trkpt><trkpt lat="21.775606643320682" lon="-102.41548286157828"><ele>1915.3333333333333</ele><time>2026-03-22T16:23:18.892Z</time></trkpt><trkpt lat="21.77567568644037" lon="-102.41542692995573"><ele>1915.6666666666665</ele><time>2026-03-22T16:23:19.892Z</time></trkpt><trkpt lat="21.77574703723957" lon="-102.41537088949298"><ele>1916.0</ele><time>2026-03-22T16:23:20.892Z</time></trkpt><trkpt lat="21.775823593196783" lon="-102.41531638209666"><ele>1915.9999999999998</ele><time>2026-03-22T16:23:21.892Z</time></trkpt><trkpt lat="21.775893482791847" lon="-102.41526673872976"><ele>1916.0</ele><time>2026-03-22T16:23:22.892Z</time></trkpt><trkpt lat="21.775966922282404" lon="-102.41521021475629"><ele>1916.0</ele><time>2026-03-22T16:23:23.892Z</time></trkpt><trkpt lat="21.776040262021713" lon="-102.41515738624382"><ele>1916.0</ele><time>2026-03-22T16:23:24.892Z</time></trkpt><trkpt lat="21.776110579683504" lon="-102.41510087794504"><ele>1915.9999999999998</ele><time>2026-03-22T16:23:25.892Z</time></trkpt><trkpt lat="21.77618642277394" lon="-102.41504416660283"><ele>1916.0</ele><time>2026-03-22T16:23:26.892Z</time></trkpt><trkpt lat="21.776252965424796" lon="-102.41498421141557"><ele>1915.6</ele><time>2026-03-22T16:23:27.892Z</time></trkpt><trkpt lat="21.77633009799559" lon="-102.41492560366586"><ele>1915.1999999999998</ele><time>2026-03-22T16:23:28.892Z</time></trkpt><trkpt lat="21.77640281443912" lon="-102.41486676365591"><ele>1914.8000000000002</ele><time>2026-03-22T16:23:29.892Z</time></trkpt><trkpt lat="21.776478291866393" lon="-102.41480364904095"><ele>1914.4</ele><time>2026-03-22T16:23:30.892Z</time></trkpt><trkpt lat="21.77655309656168" lon="-102.41474477486709"><ele>1914.0</ele><time>2026-03-22T16:23:31.892Z</time></trkpt><trkpt lat="21.77662656119364" lon="-102.41468522481279"><ele>1914.4</ele><time>2026-03-22T16:23:32.892Z</time></trkpt><trkpt lat="21.776698784869474" lon="-102.4146253738711"><ele>1914.8000000000002</ele><time>2026-03-22T16:23:33.892Z</time></trkpt><trkpt lat="21.776775157178456" lon="-102.41456616068233"><ele>1915.1999999999998</ele><time>2026-03-22T16:23:34.892Z</time></trkpt><trkpt lat="21.77684811006882" lon="-102.41450803784552"><ele>1915.6</ele><time>2026-03-22T16:23:35.892Z</time></trkpt><trkpt lat="21.776923939744766" lon="-102.41444848271955"><ele>1916.0</ele><time>2026-03-22T16:23:36.892Z</time></trkpt><trkpt lat="21.776998088728252" lon="-102.41439225642269"><ele>1916.0</ele><time>2026-03-22T16:23:37.892Z</time></trkpt><trkpt lat="21.777073690358513" lon="-102.41433961568454"><ele>1916.0</ele><time>2026-03-22T16:23:38.892Z</time></trkpt><trkpt lat="21.777149937130194" lon="-102.41428512608452"><ele>1916.0</ele><time>2026-03-22T16:23:39.892Z</time></trkpt><trkpt lat="21.777223561722934" lon="-102.41423043529547"><ele>1916.0</ele><time>2026-03-22T16:23:40.892Z</time></trkpt><trkpt lat="21.777290634744904" lon="-102.41417218976942"><ele>1916.0</ele><time>2026-03-22T16:23:41.892Z</time></trkpt><trkpt lat="21.777372248640884" lon="-102.41411106857872"><ele>1916.0</ele><time>2026-03-22T16:23:42.892Z</time></trkpt><trkpt lat="21.777443957787096" lon="-102.41405650031128"><ele>1916.0</ele><time>2026-03-22T16:23:43.892Z</time></trkpt><trkpt lat="21.777519274883975" lon="-102.41399917944598"><ele>1916.0</ele><time>2026-03-22T16:23:44.892Z</time></trkpt><trkpt lat="21.777591439243334" lon="-102.41394290811931"><ele>1916.0</ele><time>2026-03-22T16:23:45.892Z</time></trkpt><trkpt lat="21.7776684515432" lon="-102.41388521529035"><ele>1916.0</ele><time>2026-03-22T16:23:46.892Z</time></trkpt><trkpt lat="21.77774426035933" lon="-102.41383249324154"><ele>1916.6</ele><time>2026-03-22T16:23:47.892Z</time></trkpt><trkpt lat="21.777820167441455" lon="-102.41377707804568"><ele>1917.1999999999998</ele><time>2026-03-22T16:23:48.892Z</time></trkpt><trkpt lat="21.777895412554226" lon="-102.41371744997844"><ele>1917.8000000000002</ele><time>2026-03-22T16:23:49.891Z</time></trkpt><trkpt lat="21.77797065891827" lon="-102.41366095603853"><ele>1918.4</ele><time>2026-03-22T16:23:50.891Z</time></trkpt><trkpt lat="21.778048925393712" lon="-102.41360589401185"><ele>1919.0</ele><time>2026-03-22T16:23:51.891Z</time></trkpt><trkpt lat="21.77812313936979" lon="-102.41354931337193"><ele>1919.0</ele><time>2026-03-22T16:23:52.891Z</time></trkpt><trkpt lat="21.778201341060136" lon="-102.41349009598072"><ele>1919.0</ele><time>2026-03-22T16:23:53.891Z</time></trkpt><trkpt lat="21.778275281188016" lon="-102.41343590413666"><ele>1919.0</ele><time>2026-03-22T16:23:54.891Z</time></trkpt><trkpt lat="21.77835605403043" lon="-102.41337952685906"><ele>1919.0</ele><time>2026-03-22T16:23:55.891Z</time></trkpt><trkpt lat="21.778431308242197" lon="-102.41331787988238"><ele>1919.0</ele><time>2026-03-22T16:23:56.891Z</time></trkpt><trkpt lat="21.778505399652406" lon="-102.41325868120002"><ele>1918.6</ele><time>2026-03-22T16:23:57.891Z</time></trkpt><trkpt lat="21.778581308781643" lon="-102.41320082747134"><ele>1918.2</ele><time>2026-03-22T16:23:58.891Z</time></trkpt><trkpt lat="21.77865080110143" lon="-102.41314248859554"><ele>1917.7999999999997</ele><time>2026-03-22T16:23:59.891Z</time></trkpt><trkpt lat="21.778733809741457" lon="-102.41308597397942"><ele>1917.3999999999999</ele><time>2026-03-22T16:24:00.891Z</time></trkpt><trkpt lat="21.778814915208418" lon="-102.41302793268744"><ele>1917.0</ele><time>2026-03-22T16:24:01.891Z</time></trkpt><trkpt lat="21.778890151389245" lon="-102.4129686847548"><ele>1916.8</ele><time>2026-03-22T16:24:02.891Z</time></trkpt><trkpt lat="21.778968960331653" lon="-102.41290901885294"><ele>1916.6</ele><time>2026-03-22T16:24:03.891Z</time></trkpt><trkpt lat="21.779046150399473" lon="-102.41284982622004"><ele>1916.3999999999999</ele><time>2026-03-22T16:24:04.891Z</time></trkpt><trkpt lat="21.77912478626413" lon="-102.412789188514"><ele>1916.1999999999998</ele><time>2026-03-22T16:24:05.891Z</time></trkpt><trkpt lat="21.779202324312276" lon="-102.41272924739816"><ele>1916.0</ele><time>2026-03-22T16:24:06.891Z</time></trkpt><trkpt lat="21.77928265735479" lon="-102.41267597509379"><ele>1916.4</ele><time>2026-03-22T16:24:07.891Z</time></trkpt><trkpt lat="21.77936200586319" lon="-102.41261604819778"><ele>1916.8</ele><time>2026-03-22T16:24:08.891Z</time></trkpt><trkpt lat="21.77943919981363" lon="-102.41255473641912"><ele>1917.2000000000003</ele><time>2026-03-22T16:24:09.891Z</time></trkpt><trkpt lat="21.779517417109236" lon="-102.41249504640221"><ele>1917.6000000000001</ele><time>2026-03-22T16:24:10.891Z</time></trkpt><trkpt lat="21.779599945045973" lon="-102.41243491833275"><ele>1918.0</ele><time>2026-03-22T16:24:11.891Z</time></trkpt><trkpt lat="21.779680419755504" lon="-102.41237338058532"><ele>1918.0</ele><time>2026-03-22T16:24:12.891Z</time></trkpt><trkpt lat="21.779763205258728" lon="-102.4123096125257"><ele>1918.0000000000002</ele><time>2026-03-22T16:24:13.891Z</time></trkpt><trkpt lat="21.779846128666282" lon="-102.41224587495789"><ele>1918.0000000000002</ele><time>2026-03-22T16:24:14.891Z</time></trkpt><trkpt lat="21.779918514066516" lon="-102.41217900000797"><ele>1918.0</ele><time>2026-03-22T16:24:15.891Z</time></trkpt><trkpt lat="21.779998474804312" lon="-102.41211568093753"><ele>1918.0</ele><time>2026-03-22T16:24:16.891Z</time></trkpt><trkpt lat="21.780082697512622" lon="-102.4120585412583"><ele>1917.6000000000001</ele><time>2026-03-22T16:24:17.891Z</time></trkpt><trkpt lat="21.780161806194712" lon="-102.41199952471273"><ele>1917.2000000000003</ele><time>2026-03-22T16:24:18.891Z</time></trkpt><trkpt lat="21.78023915944162" lon="-102.41193703514418"><ele>1916.8</ele><time>2026-03-22T16:24:19.891Z</time></trkpt><trkpt lat="21.78031246414788" lon="-102.41187658849492"><ele>1916.4</ele><time>2026-03-22T16:24:20.891Z</time></trkpt><trkpt lat="21.78038739238376" lon="-102.41181788568659"><ele>1916.0</ele><time>2026-03-22T16:24:21.891Z</time></trkpt><trkpt lat="21.780460661641087" lon="-102.41175815555789"><ele>1916.0</ele><time>2026-03-22T16:24:22.891Z</time></trkpt><trkpt lat="21.78053032624165" lon="-102.41169694768529"><ele>1916.0</ele><time>2026-03-22T16:24:23.891Z</time></trkpt><trkpt lat="21.78060325444229" lon="-102.41163410493525"><ele>1916.0</ele><time>2026-03-22T16:24:24.891Z</time></trkpt><trkpt lat="21.780667512944042" lon="-102.41156578948983"><ele>1916.0</ele><time>2026-03-22T16:24:25.891Z</time></trkpt><trkpt lat="21.780738655361375" lon="-102.41149577744291"><ele>1916.0</ele><time>2026-03-22T16:24:26.891Z</time></trkpt><trkpt lat="21.780806155069108" lon="-102.41142710285065"><ele>1916.0</ele><time>2026-03-22T16:24:27.891Z</time></trkpt><trkpt lat="21.78087807331006" lon="-102.41135316389443"><ele>1916.0</ele><time>2026-03-22T16:24:28.891Z</time></trkpt><trkpt lat="21.780950202196276" lon="-102.41127919608185"><ele>1916.0</ele><time>2026-03-22T16:24:29.891Z</time></trkpt><trkpt lat="21.781023975660773" lon="-102.4112039492807"><ele>1916.0</ele><time>2026-03-22T16:24:30.891Z</time></trkpt><trkpt lat="21.78109853422545" lon="-102.41112968159301"><ele>1916.0</ele><time>2026-03-22T16:24:31.891Z</time></trkpt><trkpt lat="21.781174664250983" lon="-102.41105192850759"><ele>1916.0</ele><time>2026-03-22T16:24:32.891Z</time></trkpt><trkpt lat="21.781250426958614" lon="-102.41097525182985"><ele>1916.0</ele><time>2026-03-22T16:24:33.891Z</time></trkpt><trkpt lat="21.781330675657873" lon="-102.41090100508467"><ele>1916.0</ele><time>2026-03-22T16:24:34.891Z</time></trkpt><trkpt lat="21.781408109652915" lon="-102.41082697228589"><ele>1916.0</ele><time>2026-03-22T16:24:35.891Z</time></trkpt><trkpt lat="21.78149075911912" lon="-102.41074677462757"><ele>1916.0</ele><time>2026-03-22T16:24:36.891Z</time></trkpt><trkpt lat="21.781568193152065" lon="-102.41067374417855"><ele>1916.0</ele><time>2026-03-22T16:24:37.891Z</time></trkpt><trkpt lat="21.781651660161106" lon="-102.41058661200196"><ele>1916.0</ele><time>2026-03-22T16:24:38.891Z</time></trkpt><trkpt lat="21.781723679584182" lon="-102.41051337739398"><ele>1916.0</ele><time>2026-03-22T16:24:39.89Z</time></trkpt><trkpt lat="21.78180109786164" lon="-102.41043079840114"><ele>1916.0</ele><time>2026-03-22T16:24:40.89Z</time></trkpt><trkpt lat="21.781880206014286" lon="-102.41035356885897"><ele>1916.0</ele><time>2026-03-22T16:24:41.89Z</time></trkpt><trkpt lat="21.781952052521454" lon="-102.41027553245652"><ele>1916.1999999999998</ele><time>2026-03-22T16:24:42.89Z</time></trkpt><trkpt lat="21.782023438339063" lon="-102.41020004315862"><ele>1916.3999999999999</ele><time>2026-03-22T16:24:43.89Z</time></trkpt><trkpt lat="21.78209489197852" lon="-102.41012752599264"><ele>1916.6</ele><time>2026-03-22T16:24:44.89Z</time></trkpt><trkpt lat="21.782159639229455" lon="-102.41005733801832"><ele>1916.8</ele><time>2026-03-22T16:24:45.89Z</time></trkpt><trkpt lat="21.782240083558666" lon="-102.40998536070587"><ele>1917.0</ele><time>2026-03-22T16:24:46.89Z</time></trkpt><trkpt lat="21.78231192760283" lon="-102.40991760923765"><ele>1917.0</ele><time>2026-03-22T16:24:47.89Z</time></trkpt><trkpt lat="21.782386603442728" lon="-102.40984099635286"><ele>1916.9999999999998</ele><time>2026-03-22T16:24:48.892Z</time></trkpt><trkpt lat="21.78245709644988" lon="-102.40977630151075"><ele>1916.9999999999998</ele><time>2026-03-22T16:24:49.891Z</time></trkpt><trkpt lat="21.78252501438759" lon="-102.40970500013205"><ele>1917.0</ele><time>2026-03-22T16:24:50.891Z</time></trkpt><trkpt lat="21.78258759859016" lon="-102.40964077491093"><ele>1917.0</ele><time>2026-03-22T16:24:51.892Z</time></trkpt><trkpt lat="21.7826467300668" lon="-102.40957822179095"><ele>1917.1666666666667</ele><time>2026-03-22T16:24:52.892Z</time></trkpt><trkpt lat="21.78270544966126" lon="-102.40951560510116"><ele>1917.3333333333335</ele><time>2026-03-22T16:24:53.891Z</time></trkpt><trkpt lat="21.782761252632657" lon="-102.40945450300644"><ele>1917.5</ele><time>2026-03-22T16:24:54.892Z</time></trkpt><trkpt lat="21.782818544331338" lon="-102.40939286065871"><ele>1917.6666666666667</ele><time>2026-03-22T16:24:55.891Z</time></trkpt><trkpt lat="21.782870787670596" lon="-102.40933037582191"><ele>1917.8333333333335</ele><time>2026-03-22T16:24:56.891Z</time></trkpt><trkpt lat="21.782922912415533" lon="-102.40927249872661"><ele>1918.0</ele><time>2026-03-22T16:24:57.892Z</time></trkpt><trkpt lat="21.782982856045376" lon="-102.40920751836357"><ele>1918.0000000000002</ele><time>2026-03-22T16:24:58.891Z</time></trkpt><trkpt lat="21.783048605050002" lon="-102.40914088426318"><ele>1918.0</ele><time>2026-03-22T16:24:59.891Z</time></trkpt><trkpt lat="21.783107286777067" lon="-102.40907237080467"><ele>1918.0</ele><time>2026-03-22T16:25:00.891Z</time></trkpt><trkpt lat="21.783171017720196" lon="-102.40900442171828"><ele>1918.0</ele><time>2026-03-22T16:25:01.892Z</time></trkpt><trkpt lat="21.7832326923453" lon="-102.40894161797037"><ele>1918.0000000000002</ele><time>2026-03-22T16:25:02.892Z</time></trkpt><trkpt lat="21.7832908066368" lon="-102.4088799866271"><ele>1918.0</ele><time>2026-03-22T16:25:03.892Z</time></trkpt><trkpt lat="21.783344499779535" lon="-102.4088182105653"><ele>1918.3333333333335</ele><time>2026-03-22T16:25:04.892Z</time></trkpt><trkpt lat="21.783401172442893" lon="-102.40875919861917"><ele>1918.6666666666667</ele><time>2026-03-22T16:25:05.892Z</time></trkpt><trkpt lat="21.78346031641833" lon="-102.4086987371988"><ele>1919.0</ele><time>2026-03-22T16:25:06.892Z</time></trkpt><trkpt lat="21.783521646932503" lon="-102.40863638848789"><ele>1919.3333333333335</ele><time>2026-03-22T16:25:07.892Z</time></trkpt><trkpt lat="21.78358260536969" lon="-102.40857325708397"><ele>1919.6666666666667</ele><time>2026-03-22T16:25:08.892Z</time></trkpt><trkpt lat="21.783645297260804" lon="-102.40850722112211"><ele>1920.0</ele><time>2026-03-22T16:25:09.892Z</time></trkpt><trkpt lat="21.783707255842693" lon="-102.40844380976651"><ele>1920.1666666666667</ele><time>2026-03-22T16:25:10.892Z</time></trkpt><trkpt lat="21.783776346755133" lon="-102.40837498227268"><ele>1920.3333333333335</ele><time>2026-03-22T16:25:11.892Z</time></trkpt><trkpt lat="21.783837810962225" lon="-102.40831335357929"><ele>1920.5</ele><time>2026-03-22T16:25:12.892Z</time></trkpt><trkpt lat="21.783901930775503" lon="-102.40825479161468"><ele>1920.6666666666667</ele><time>2026-03-22T16:25:13.892Z</time></trkpt><trkpt lat="21.783964318216636" lon="-102.40818379922203"><ele>1920.8333333333335</ele><time>2026-03-22T16:25:14.892Z</time></trkpt><trkpt lat="21.784028745519095" lon="-102.4081099736092"><ele>1921.0</ele><time>2026-03-22T16:25:15.892Z</time></trkpt><trkpt lat="21.784093925728087" lon="-102.40804932267181"><ele>1920.6666666666667</ele><time>2026-03-22T16:25:16.892Z</time></trkpt><trkpt lat="21.784147531251854" lon="-102.40798389251847"><ele>1920.3333333333335</ele><time>2026-03-22T16:25:17.892Z</time></trkpt><trkpt lat="21.784212109062015" lon="-102.40791772140291"><ele>1920.0</ele><time>2026-03-22T16:25:18.892Z</time></trkpt><trkpt lat="21.784274067421386" lon="-102.40786560019674"><ele>1919.6666666666665</ele><time>2026-03-22T16:25:19.892Z</time></trkpt><trkpt lat="21.784337716089077" lon="-102.40780069658682"><ele>1919.3333333333333</ele><time>2026-03-22T16:25:20.892Z</time></trkpt><trkpt lat="21.784394509188015" lon="-102.40774031609942"><ele>1919.0</ele><time>2026-03-22T16:25:21.892Z</time></trkpt><trkpt lat="21.78445501074954" lon="-102.40768154143717"><ele>1918.9999999999998</ele><time>2026-03-22T16:25:22.892Z</time></trkpt><trkpt lat="21.78451541280517" lon="-102.40762160883702"><ele>1919.0</ele><time>2026-03-22T16:25:23.892Z</time></trkpt><trkpt lat="21.78457786815161" lon="-102.40755644350085"><ele>1919.0</ele><time>2026-03-22T16:25:24.892Z</time></trkpt><trkpt lat="21.78464195425544" lon="-102.40748900529124"><ele>1919.0</ele><time>2026-03-22T16:25:25.892Z</time></trkpt><trkpt lat="21.784707785395252" lon="-102.40742325239823"><ele>1918.9999999999998</ele><time>2026-03-22T16:25:26.892Z</time></trkpt><trkpt lat="21.784774987842233" lon="-102.40736215282813"><ele>1919.0</ele><time>2026-03-22T16:25:27.892Z</time></trkpt><trkpt lat="21.784843692288522" lon="-102.4072883730659"><ele>1919.0</ele><time>2026-03-22T16:25:28.892Z</time></trkpt><trkpt lat="21.78490359718458" lon="-102.40721880214846"><ele>1919.0</ele><time>2026-03-22T16:25:29.892Z</time></trkpt><trkpt lat="21.784973118188443" lon="-102.40714388602663"><ele>1919.0</ele><time>2026-03-22T16:25:30.892Z</time></trkpt><trkpt lat="21.78504680820019" lon="-102.40707453156051"><ele>1919.0</ele><time>2026-03-22T16:25:31.892Z</time></trkpt><trkpt lat="21.785119734345496" lon="-102.40700717136657"><ele>1919.0</ele><time>2026-03-22T16:25:32.892Z</time></trkpt><trkpt lat="21.785186150567586" lon="-102.40693891633865"><ele>1919.4</ele><time>2026-03-22T16:25:33.892Z</time></trkpt><trkpt lat="21.785256450915693" lon="-102.40686824729141"><ele>1919.8000000000002</ele><time>2026-03-22T16:25:34.892Z</time></trkpt><trkpt lat="21.785324495397063" lon="-102.40679489335767"><ele>1920.1999999999998</ele><time>2026-03-22T16:25:35.892Z</time></trkpt><trkpt lat="21.785391194172156" lon="-102.40672057699086"><ele>1920.6</ele><time>2026-03-22T16:25:36.891Z</time></trkpt><trkpt lat="21.785458328396523" lon="-102.40664914638448"><ele>1921.0</ele><time>2026-03-22T16:25:37.891Z</time></trkpt><trkpt lat="21.785540099008806" lon="-102.40657631245253"><ele>1921.0</ele><time>2026-03-22T16:25:38.891Z</time></trkpt><trkpt lat="21.78560256511483" lon="-102.40651065617615"><ele>1921.0</ele><time>2026-03-22T16:25:39.891Z</time></trkpt><trkpt lat="21.78567470648051" lon="-102.40643721236303"><ele>1921.0</ele><time>2026-03-22T16:25:40.891Z</time></trkpt><trkpt lat="21.78573574113926" lon="-102.40636804986183"><ele>1921.0</ele><time>2026-03-22T16:25:41.891Z</time></trkpt><trkpt lat="21.78581220152643" lon="-102.40629195249008"><ele>1921.0</ele><time>2026-03-22T16:25:42.891Z</time></trkpt><trkpt lat="21.785883263084052" lon="-102.40621696419893"><ele>1920.8</ele><time>2026-03-22T16:25:43.891Z</time></trkpt><trkpt lat="21.785954391967138" lon="-102.40614148136274"><ele>1920.6</ele><time>2026-03-22T16:25:44.891Z</time></trkpt><trkpt lat="21.786023712510996" lon="-102.40606473944061"><ele>1920.4</ele><time>2026-03-22T16:25:45.891Z</time></trkpt><trkpt lat="21.786097688472793" lon="-102.40599038294968"><ele>1920.2</ele><time>2026-03-22T16:25:46.891Z</time></trkpt><trkpt lat="21.78617066033507" lon="-102.40591805912729"><ele>1920.0</ele><time>2026-03-22T16:25:47.891Z</time></trkpt><trkpt lat="21.786235333772918" lon="-102.4058494249438"><ele>1920.2</ele><time>2026-03-22T16:25:48.891Z</time></trkpt><trkpt lat="21.78631167366449" lon="-102.40576773371097"><ele>1920.4</ele><time>2026-03-22T16:25:49.891Z</time></trkpt><trkpt lat="21.786377421826487" lon="-102.40570049148552"><ele>1920.6</ele><time>2026-03-22T16:25:50.891Z</time></trkpt><trkpt lat="21.78645430405928" lon="-102.40562241087852"><ele>1920.8</ele><time>2026-03-22T16:25:51.891Z</time></trkpt><trkpt lat="21.786527145383317" lon="-102.40554762382119"><ele>1921.0</ele><time>2026-03-22T16:25:52.891Z</time></trkpt><trkpt lat="21.78660084075304" lon="-102.40547683482237"><ele>1921.0</ele><time>2026-03-22T16:25:53.891Z</time></trkpt><trkpt lat="21.786674332628372" lon="-102.40539761431711"><ele>1921.0</ele><time>2026-03-22T16:25:54.891Z</time></trkpt><trkpt lat="21.7867432981302" lon="-102.40531784178253"><ele>1921.0</ele><time>2026-03-22T16:25:55.891Z</time></trkpt><trkpt lat="21.786811251908187" lon="-102.40524653017891"><ele>1921.0</ele><time>2026-03-22T16:25:56.891Z</time></trkpt><trkpt lat="21.786884950727575" lon="-102.40517708319202"><ele>1921.0</ele><time>2026-03-22T16:25:57.891Z</time></trkpt><trkpt lat="21.78696027608906" lon="-102.40510505359782"><ele>1920.6</ele><time>2026-03-22T16:25:58.891Z</time></trkpt><trkpt lat="21.78703265549565" lon="-102.40502982905241"><ele>1920.1999999999998</ele><time>2026-03-22T16:25:59.891Z</time></trkpt><trkpt lat="21.78710130570639" lon="-102.4049597128508"><ele>1919.8000000000002</ele><time>2026-03-22T16:26:00.891Z</time></trkpt><trkpt lat="21.787170898010316" lon="-102.40488677760439"><ele>1919.4</ele><time>2026-03-22T16:26:01.891Z</time></trkpt><trkpt lat="21.78723679761337" lon="-102.4048182267271"><ele>1919.0</ele><time>2026-03-22T16:26:02.891Z</time></trkpt><trkpt lat="21.787303610251612" lon="-102.4047488848396"><ele>1918.9999999999998</ele><time>2026-03-22T16:26:03.891Z</time></trkpt><trkpt lat="21.78736794151274" lon="-102.4046798342183"><ele>1919.0</ele><time>2026-03-22T16:26:04.891Z</time></trkpt><trkpt lat="21.787426550922053" lon="-102.4046123116156"><ele>1919.0</ele><time>2026-03-22T16:26:05.891Z</time></trkpt><trkpt lat="21.787486759157247" lon="-102.40454840289465"><ele>1919.0</ele><time>2026-03-22T16:26:06.891Z</time></trkpt><trkpt lat="21.787556896329484" lon="-102.40449349179629"><ele>1918.9999999999998</ele><time>2026-03-22T16:26:07.891Z</time></trkpt><trkpt lat="21.787612256683623" lon="-102.4044347609463"><ele>1919.0</ele><time>2026-03-22T16:26:08.891Z</time></trkpt><trkpt lat="21.787683221422988" lon="-102.40438139876423"><ele>1919.2</ele><time>2026-03-22T16:26:09.891Z</time></trkpt><trkpt lat="21.78775863934967" lon="-102.40433951510161"><ele>1919.4</ele><time>2026-03-22T16:26:10.891Z</time></trkpt><trkpt lat="21.78785001299384" lon="-102.40434333852384"><ele>1919.6</ele><time>2026-03-22T16:26:11.891Z</time></trkpt><trkpt lat="21.787936402633438" lon="-102.40438975524796"><ele>1919.8</ele><time>2026-03-22T16:26:12.891Z</time></trkpt><trkpt lat="21.788009420363835" lon="-102.40445095665676"><ele>1920.0</ele><time>2026-03-22T16:26:13.891Z</time></trkpt><trkpt lat="21.78807794107992" lon="-102.40451076026379"><ele>1920.0</ele><time>2026-03-22T16:26:14.891Z</time></trkpt><trkpt lat="21.788143877790358" lon="-102.40456679648507"><ele>1920.0</ele><time>2026-03-22T16:26:15.891Z</time></trkpt><trkpt lat="21.788206214202905" lon="-102.40462463191521"><ele>1920.0</ele><time>2026-03-22T16:26:16.891Z</time></trkpt><trkpt lat="21.78826423179616" lon="-102.40469076312849"><ele>1920.0</ele><time>2026-03-22T16:26:17.891Z</time></trkpt><trkpt lat="21.788322595646747" lon="-102.40475560179522"><ele>1920.0</ele><time>2026-03-22T16:26:18.891Z</time></trkpt><trkpt lat="21.78838019351455" lon="-102.4048121795372"><ele>1920.0</ele><time>2026-03-22T16:26:19.891Z</time></trkpt><trkpt lat="21.78844120922525" lon="-102.4048738304402"><ele>1920.0</ele><time>2026-03-22T16:26:20.891Z</time></trkpt><trkpt lat="21.78849935432395" lon="-102.4049413186044"><ele>1920.0</ele><time>2026-03-22T16:26:21.891Z</time></trkpt><trkpt lat="21.78855958597571" lon="-102.40500551747638"><ele>1920.0</ele><time>2026-03-22T16:26:22.891Z</time></trkpt><trkpt lat="21.788618797303112" lon="-102.40505341173092"><ele>1920.0</ele><time>2026-03-22T16:26:23.891Z</time></trkpt><trkpt lat="21.788677054006747" lon="-102.40511219746291"><ele>1920.0</ele><time>2026-03-22T16:26:24.891Z</time></trkpt><trkpt lat="21.78874573328575" lon="-102.40517863318048"><ele>1920.0</ele><time>2026-03-22T16:26:25.891Z</time></trkpt><trkpt lat="21.788805211214587" lon="-102.40524133486832"><ele>1920.0</ele><time>2026-03-22T16:26:26.89Z</time></trkpt><trkpt lat="21.78886989056325" lon="-102.40529975695183"><ele>1920.0</ele><time>2026-03-22T16:26:27.89Z</time></trkpt><trkpt lat="21.78893016719315" lon="-102.40536260710847"><ele>1920.0</ele><time>2026-03-22T16:26:28.89Z</time></trkpt><trkpt lat="21.788991376551728" lon="-102.40541898312388"><ele>1920.0</ele><time>2026-03-22T16:26:29.89Z</time></trkpt><trkpt lat="21.789053904375503" lon="-102.4054787420188"><ele>1920.0</ele><time>2026-03-22T16:26:30.89Z</time></trkpt><trkpt lat="21.78910827190065" lon="-102.4055369584154"><ele>1920.0</ele><time>2026-03-22T16:26:31.89Z</time></trkpt><trkpt lat="21.78917194374163" lon="-102.40559691280274"><ele>1920.0</ele><time>2026-03-22T16:26:32.89Z</time></trkpt><trkpt lat="21.789232863966998" lon="-102.40565526364549"><ele>1920.0</ele><time>2026-03-22T16:26:33.89Z</time></trkpt><trkpt lat="21.78929069066935" lon="-102.40571206137021"><ele>1920.0</ele><time>2026-03-22T16:26:34.89Z</time></trkpt><trkpt lat="21.789350700614374" lon="-102.4057658085395"><ele>1920.0</ele><time>2026-03-22T16:26:35.89Z</time></trkpt><trkpt lat="21.789413589281192" lon="-102.40582770399912"><ele>1920.0</ele><time>2026-03-22T16:26:36.89Z</time></trkpt><trkpt lat="21.789470124782234" lon="-102.40588410079864"><ele>1920.0</ele><time>2026-03-22T16:26:37.89Z</time></trkpt><trkpt lat="21.789524358462536" lon="-102.40593362168775"><ele>1920.0</ele><time>2026-03-22T16:26:38.89Z</time></trkpt><trkpt lat="21.789583361867415" lon="-102.40598924681198"><ele>1920.0</ele><time>2026-03-22T16:26:39.89Z</time></trkpt><trkpt lat="21.78964057783489" lon="-102.4060483233582"><ele>1920.0</ele><time>2026-03-22T16:26:40.89Z</time></trkpt><trkpt lat="21.78970343911722" lon="-102.40611137877097"><ele>1920.0</ele><time>2026-03-22T16:26:41.89Z</time></trkpt><trkpt lat="21.789761814777954" lon="-102.40617329646223"><ele>1920.0</ele><time>2026-03-22T16:26:42.89Z</time></trkpt><trkpt lat="21.789821642813095" lon="-102.40623011951202"><ele>1920.0</ele><time>2026-03-22T16:26:43.89Z</time></trkpt><trkpt lat="21.789879097817504" lon="-102.40628587770068"><ele>1920.0</ele><time>2026-03-22T16:26:44.89Z</time></trkpt><trkpt lat="21.789939187605153" lon="-102.40634413774579"><ele>1920.0</ele><time>2026-03-22T16:26:45.89Z</time></trkpt><trkpt lat="21.790000120574266" lon="-102.40640272764013"><ele>1920.0</ele><time>2026-03-22T16:26:46.89Z</time></trkpt><trkpt lat="21.790060876042872" lon="-102.40646515799864"><ele>1920.0</ele><time>2026-03-22T16:26:47.89Z</time></trkpt><trkpt lat="21.79012661326317" lon="-102.40652742317805"><ele>1920.0</ele><time>2026-03-22T16:26:48.89Z</time></trkpt><trkpt lat="21.79018675335547" lon="-102.40658586391352"><ele>1920.0</ele><time>2026-03-22T16:26:49.89Z</time></trkpt><trkpt lat="21.790253658709865" lon="-102.40664884253293"><ele>1920.0</ele><time>2026-03-22T16:26:50.89Z</time></trkpt><trkpt lat="21.790321385146648" lon="-102.40670793842503"><ele>1920.0</ele><time>2026-03-22T16:26:51.89Z</time></trkpt><trkpt lat="21.79038159398906" lon="-102.4067608253143"><ele>1920.0</ele><time>2026-03-22T16:26:52.89Z</time></trkpt><trkpt lat="21.790444442091946" lon="-102.40682178943484"><ele>1920.0</ele><time>2026-03-22T16:26:53.891Z</time></trkpt><trkpt lat="21.790500727515795" lon="-102.40686552784338"><ele>1920.0</ele><time>2026-03-22T16:26:54.891Z</time></trkpt><trkpt lat="21.790571199350943" lon="-102.40693976179918"><ele>1920.0</ele><time>2026-03-22T16:26:55.891Z</time></trkpt><trkpt lat="21.790637403209022" lon="-102.40700634265767"><ele>1920.0</ele><time>2026-03-22T16:26:56.891Z</time></trkpt><trkpt lat="21.790701862045513" lon="-102.40706403767192"><ele>1920.0</ele><time>2026-03-22T16:26:57.89Z</time></trkpt><trkpt lat="21.790774414176543" lon="-102.40711500235987"><ele>1920.0</ele><time>2026-03-22T16:26:58.89Z</time></trkpt><trkpt lat="21.790853266656022" lon="-102.40714859812248"><ele>1920.0</ele><time>2026-03-22T16:26:59.89Z</time></trkpt><trkpt lat="21.790938274830424" lon="-102.40717715094966"><ele>1920.0</ele><time>2026-03-22T16:27:00.89Z</time></trkpt><trkpt lat="21.791026992809446" lon="-102.40719178620846"><ele>1920.0</ele><time>2026-03-22T16:27:01.89Z</time></trkpt><trkpt lat="21.791118413703636" lon="-102.40719125404506"><ele>1920.0</ele><time>2026-03-22T16:27:02.891Z</time></trkpt><trkpt lat="21.791219753433634" lon="-102.40717667900978"><ele>1920.0</ele><time>2026-03-22T16:27:03.89Z</time></trkpt><trkpt lat="21.79130101857145" lon="-102.40714932272012"><ele>1920.0</ele><time>2026-03-22T16:27:04.89Z</time></trkpt><trkpt lat="21.79138598614733" lon="-102.4071284083193"><ele>1920.0</ele><time>2026-03-22T16:27:05.89Z</time></trkpt><trkpt lat="21.791486683162166" lon="-102.40711978331618"><ele>1920.0</ele><time>2026-03-22T16:27:06.891Z</time></trkpt><trkpt lat="21.791578609307233" lon="-102.40711849744378"><ele>1920.0</ele><time>2026-03-22T16:27:07.891Z</time></trkpt><trkpt lat="21.791674915873386" lon="-102.40711771046003"><ele>1920.0</ele><time>2026-03-22T16:27:08.891Z</time></trkpt><trkpt lat="21.791768208569994" lon="-102.40712616270619"><ele>1920.0</ele><time>2026-03-22T16:27:09.89Z</time></trkpt><trkpt lat="21.791853898975635" lon="-102.407139967654"><ele>1920.0</ele><time>2026-03-22T16:27:10.89Z</time></trkpt><trkpt lat="21.791941677795666" lon="-102.4071529657825"><ele>1920.0</ele><time>2026-03-22T16:27:11.89Z</time></trkpt><trkpt lat="21.79203098023532" lon="-102.40717205934519"><ele>1921.0</ele><time>2026-03-22T16:27:12.89Z</time></trkpt><trkpt lat="21.79211871875867" lon="-102.407191709781"><ele>1922.0</ele><time>2026-03-22T16:27:13.89Z</time></trkpt><trkpt lat="21.79220068019151" lon="-102.4072060355082"><ele>1923.0</ele><time>2026-03-22T16:27:14.89Z</time></trkpt><trkpt lat="21.792286165149495" lon="-102.4072246790853"><ele>1924.0</ele><time>2026-03-22T16:27:15.89Z</time></trkpt><trkpt lat="21.792372141742643" lon="-102.40724752799271"><ele>1925.0</ele><time>2026-03-22T16:27:16.89Z</time></trkpt><trkpt lat="21.79245922978456" lon="-102.40727098544005"><ele>1926.0</ele><time>2026-03-22T16:27:17.89Z</time></trkpt><trkpt lat="21.79254776765207" lon="-102.40729528518922"><ele>1926.0</ele><time>2026-03-22T16:27:18.89Z</time></trkpt><trkpt lat="21.792635183130415" lon="-102.40731488825453"><ele>1926.0</ele><time>2026-03-22T16:27:19.89Z</time></trkpt><trkpt lat="21.79272381219847" lon="-102.4073398617586"><ele>1926.0</ele><time>2026-03-22T16:27:20.89Z</time></trkpt><trkpt lat="21.79280267913827" lon="-102.40736449876354"><ele>1926.0</ele><time>2026-03-22T16:27:21.89Z</time></trkpt><trkpt lat="21.792893933343965" lon="-102.40739215069004"><ele>1926.0</ele><time>2026-03-22T16:27:22.89Z</time></trkpt><trkpt lat="21.792981020157768" lon="-102.40741605837032"><ele>1926.0</ele><time>2026-03-22T16:27:23.89Z</time></trkpt><trkpt lat="21.79306449750234" lon="-102.40743827304598"><ele>1926.0</ele><time>2026-03-22T16:27:24.89Z</time></trkpt><trkpt lat="21.79315062155229" lon="-102.40746403486408"><ele>1926.0</ele><time>2026-03-22T16:27:25.89Z</time></trkpt><trkpt lat="21.793225553850736" lon="-102.40748406091626"><ele>1926.0</ele><time>2026-03-22T16:27:26.89Z</time></trkpt><trkpt lat="21.793316999410415" lon="-102.40751508959806"><ele>1926.0</ele><time>2026-03-22T16:27:27.89Z</time></trkpt><trkpt lat="21.793395052623065" lon="-102.40753934131412"><ele>1926.0</ele><time>2026-03-22T16:27:28.89Z</time></trkpt><trkpt lat="21.793473511446226" lon="-102.40756365037547"><ele>1926.0</ele><time>2026-03-22T16:27:29.89Z</time></trkpt><trkpt lat="21.793548816429603" lon="-102.40758915227603"><ele>1925.5</ele><time>2026-03-22T16:27:30.89Z</time></trkpt><trkpt lat="21.793630184347553" lon="-102.40762342955794"><ele>1925.0</ele><time>2026-03-22T16:27:31.89Z</time></trkpt><trkpt lat="21.793708762604027" lon="-102.40766159552663"><ele>1924.5</ele><time>2026-03-22T16:27:32.89Z</time></trkpt><trkpt lat="21.793790776708665" lon="-102.40769412139448"><ele>1924.0</ele><time>2026-03-22T16:27:33.89Z</time></trkpt><trkpt lat="21.79386211192992" lon="-102.40773530529775"><ele>1923.5</ele><time>2026-03-22T16:27:34.89Z</time></trkpt><trkpt lat="21.793928967848387" lon="-102.40778347335443"><ele>1923.0</ele><time>2026-03-22T16:27:35.89Z</time></trkpt><trkpt lat="21.793992606530484" lon="-102.4078307493364"><ele>1923.0</ele><time>2026-03-22T16:27:36.89Z</time></trkpt><trkpt lat="21.794061990707583" lon="-102.4078816257628"><ele>1923.0</ele><time>2026-03-22T16:27:37.89Z</time></trkpt><trkpt lat="21.794130837644712" lon="-102.40793743916375"><ele>1923.0</ele><time>2026-03-22T16:27:38.89Z</time></trkpt><trkpt lat="21.7941976882157" lon="-102.40799749563811"><ele>1923.0</ele><time>2026-03-22T16:27:39.89Z</time></trkpt><trkpt lat="21.794264981231457" lon="-102.40806483298752"><ele>1923.0</ele><time>2026-03-22T16:27:40.89Z</time></trkpt><trkpt lat="21.794325719408135" lon="-102.4081247983351"><ele>1923.0</ele><time>2026-03-22T16:27:41.89Z</time></trkpt><trkpt lat="21.79438921124577" lon="-102.40818694021738"><ele>1923.6666666666667</ele><time>2026-03-22T16:27:42.89Z</time></trkpt><trkpt lat="21.794452402994434" lon="-102.40824351132862"><ele>1924.3333333333335</ele><time>2026-03-22T16:27:43.89Z</time></trkpt><trkpt lat="21.794515649561987" lon="-102.40831346671212"><ele>1925.0</ele><time>2026-03-22T16:27:44.89Z</time></trkpt><trkpt lat="21.794580162820992" lon="-102.40835737615717"><ele>1925.6666666666667</ele><time>2026-03-22T16:27:45.89Z</time></trkpt><trkpt lat="21.79465170732644" lon="-102.40840930567654"><ele>1926.3333333333335</ele><time>2026-03-22T16:27:46.89Z</time></trkpt><trkpt lat="21.794724181863067" lon="-102.4084608637167"><ele>1927.0</ele><time>2026-03-22T16:27:47.89Z</time></trkpt><trkpt lat="21.794800223101802" lon="-102.40849254321733"><ele>1927.0000000000002</ele><time>2026-03-22T16:27:48.89Z</time></trkpt><trkpt lat="21.794880179098985" lon="-102.4085096432363"><ele>1927.0</ele><time>2026-03-22T16:27:49.89Z</time></trkpt><trkpt lat="21.79495770322295" lon="-102.40849838492797"><ele>1927.0</ele><time>2026-03-22T16:27:50.89Z</time></trkpt><trkpt lat="21.795055666566736" lon="-102.40848303440836"><ele>1927.0</ele><time>2026-03-22T16:27:51.89Z</time></trkpt><trkpt lat="21.79514079009564" lon="-102.40845708763888"><ele>1927.0000000000002</ele><time>2026-03-22T16:27:52.89Z</time></trkpt><trkpt lat="21.79521289802069" lon="-102.40841871416441"><ele>1927.0</ele><time>2026-03-22T16:27:53.89Z</time></trkpt><trkpt lat="21.795294208307464" lon="-102.40837805077119"><ele>1927.0</ele><time>2026-03-22T16:27:54.89Z</time></trkpt><trkpt lat="21.795375083229462" lon="-102.40831155593555"><ele>1926.9999999999998</ele><time>2026-03-22T16:27:55.89Z</time></trkpt><trkpt lat="21.79542705042378" lon="-102.40824556305554"><ele>1926.9999999999998</ele><time>2026-03-22T16:27:56.89Z</time></trkpt><trkpt lat="21.795493426957936" lon="-102.40816947170104"><ele>1927.0</ele><time>2026-03-22T16:27:57.89Z</time></trkpt><trkpt lat="21.795548093786884" lon="-102.4081036809728"><ele>1927.0</ele><time>2026-03-22T16:27:58.89Z</time></trkpt><trkpt lat="21.795611335589925" lon="-102.40803350707951"><ele>1927.0</ele><time>2026-03-22T16:27:59.889Z</time></trkpt><trkpt lat="21.795671310468972" lon="-102.40796016592971"><ele>1926.9999999999998</ele><time>2026-03-22T16:28:00.889Z</time></trkpt><trkpt lat="21.795723077840588" lon="-102.40788930768302"><ele>1926.9999999999998</ele><time>2026-03-22T16:28:01.889Z</time></trkpt><trkpt lat="21.7957969830215" lon="-102.4078148391329"><ele>1927.0</ele><time>2026-03-22T16:28:02.889Z</time></trkpt><trkpt lat="21.795867215444478" lon="-102.40774531492697"><ele>1927.0</ele><time>2026-03-22T16:28:03.889Z</time></trkpt><trkpt lat="21.795932899503036" lon="-102.40767765282243"><ele>1927.0</ele><time>2026-03-22T16:28:04.889Z</time></trkpt><trkpt lat="21.795994356635962" lon="-102.40760701704603"><ele>1926.9999999999998</ele><time>2026-03-22T16:28:05.889Z</time></trkpt><trkpt lat="21.79607132091899" lon="-102.40752828813459"><ele>1926.9999999999998</ele><time>2026-03-22T16:28:06.889Z</time></trkpt><trkpt lat="21.796126128293913" lon="-102.40745221908581"><ele>1927.0</ele><time>2026-03-22T16:28:07.889Z</time></trkpt><trkpt lat="21.796190655984248" lon="-102.40737737079843"><ele>1927.0</ele><time>2026-03-22T16:28:08.889Z</time></trkpt><trkpt lat="21.79625698656395" lon="-102.40729744501064"><ele>1926.8</ele><time>2026-03-22T16:28:09.889Z</time></trkpt><trkpt lat="21.796324885445422" lon="-102.40721808978681"><ele>1926.6</ele><time>2026-03-22T16:28:10.889Z</time></trkpt><trkpt lat="21.796381306349414" lon="-102.40713116754111"><ele>1926.3999999999999</ele><time>2026-03-22T16:28:11.889Z</time></trkpt><trkpt lat="21.79643855657902" lon="-102.40704271274433"><ele>1926.1999999999998</ele><time>2026-03-22T16:28:12.889Z</time></trkpt><trkpt lat="21.796503673693675" lon="-102.40695709991935"><ele>1926.0</ele><time>2026-03-22T16:28:13.889Z</time></trkpt><trkpt lat="21.796573019481617" lon="-102.40686807685117"><ele>1925.8</ele><time>2026-03-22T16:28:14.889Z</time></trkpt><trkpt lat="21.79663464962941" lon="-102.40677798534207"><ele>1925.6</ele><time>2026-03-22T16:28:15.889Z</time></trkpt><trkpt lat="21.796709514714962" lon="-102.40668889993641"><ele>1925.4</ele><time>2026-03-22T16:28:16.889Z</time></trkpt><trkpt lat="21.796766398028744" lon="-102.40660038410036"><ele>1925.2</ele><time>2026-03-22T16:28:17.889Z</time></trkpt><trkpt lat="21.79683663272526" lon="-102.40651037021456"><ele>1925.0</ele><time>2026-03-22T16:28:18.889Z</time></trkpt><trkpt lat="21.796899052061637" lon="-102.40642106640418"><ele>1924.2</ele><time>2026-03-22T16:28:19.889Z</time></trkpt><trkpt lat="21.79697090703912" lon="-102.40632703245711"><ele>1923.4</ele><time>2026-03-22T16:28:20.889Z</time></trkpt><trkpt lat="21.797044813878696" lon="-102.40623743025371"><ele>1922.6</ele><time>2026-03-22T16:28:21.889Z</time></trkpt><trkpt lat="21.797112015277424" lon="-102.40613878015218"><ele>1921.8</ele><time>2026-03-22T16:28:22.889Z</time></trkpt><trkpt lat="21.79717739299685" lon="-102.40604328444678"><ele>1921.0</ele><time>2026-03-22T16:28:23.889Z</time></trkpt><trkpt lat="21.797248985572804" lon="-102.4059481653518"><ele>1921.0</ele><time>2026-03-22T16:28:24.889Z</time></trkpt><trkpt lat="21.797317143279304" lon="-102.40585473545164"><ele>1921.0</ele><time>2026-03-22T16:28:25.889Z</time></trkpt><trkpt lat="21.797383836135705" lon="-102.4057601402496"><ele>1921.0</ele><time>2026-03-22T16:28:26.889Z</time></trkpt><trkpt lat="21.797451408967138" lon="-102.40567222199333"><ele>1921.0</ele><time>2026-03-22T16:28:27.889Z</time></trkpt><trkpt lat="21.797524747603042" lon="-102.40557993479459"><ele>1921.0</ele><time>2026-03-22T16:28:28.889Z</time></trkpt><trkpt lat="21.797595404553167" lon="-102.4054921207404"><ele>1920.1999999999998</ele><time>2026-03-22T16:28:29.889Z</time></trkpt><trkpt lat="21.7976800385486" lon="-102.40541167357173"><ele>1919.3999999999999</ele><time>2026-03-22T16:28:30.889Z</time></trkpt><trkpt lat="21.797756174720675" lon="-102.40533506287126"><ele>1918.6</ele><time>2026-03-22T16:28:31.889Z</time></trkpt><trkpt lat="21.797836954943797" lon="-102.40525876585401"><ele>1917.8</ele><time>2026-03-22T16:28:32.889Z</time></trkpt><trkpt lat="21.797922699691394" lon="-102.40518304228837"><ele>1917.0</ele><time>2026-03-22T16:28:33.889Z</time></trkpt><trkpt lat="21.79801227524479" lon="-102.4051132725781"><ele>1917.0</ele><time>2026-03-22T16:28:34.889Z</time></trkpt><trkpt lat="21.79810349061305" lon="-102.4050527236237"><ele>1916.9999999999998</ele><time>2026-03-22T16:28:35.889Z</time></trkpt><trkpt lat="21.79819570080711" lon="-102.40498974091078"><ele>1916.9999999999998</ele><time>2026-03-22T16:28:36.889Z</time></trkpt><trkpt lat="21.798288679875792" lon="-102.40494075508295"><ele>1917.0</ele><time>2026-03-22T16:28:37.889Z</time></trkpt><trkpt lat="21.798381060046037" lon="-102.40490135404198"><ele>1917.0</ele><time>2026-03-22T16:28:38.889Z</time></trkpt><trkpt lat="21.798471713714424" lon="-102.40487261416776"><ele>1916.6666666666667</ele><time>2026-03-22T16:28:39.889Z</time></trkpt><trkpt lat="21.798554683265333" lon="-102.40484961113263"><ele>1916.3333333333335</ele><time>2026-03-22T16:28:40.889Z</time></trkpt><trkpt lat="21.798633951020353" lon="-102.40482932691314"><ele>1916.0</ele><time>2026-03-22T16:28:41.889Z</time></trkpt><trkpt lat="21.798706848549813" lon="-102.40478295470076"><ele>1915.6666666666667</ele><time>2026-03-22T16:28:42.889Z</time></trkpt><trkpt lat="21.798764357095187" lon="-102.40470619203366"><ele>1915.3333333333335</ele><time>2026-03-22T16:28:43.889Z</time></trkpt><trkpt lat="21.798799364085507" lon="-102.40460725723723"><ele>1915.0</ele><time>2026-03-22T16:28:44.889Z</time></trkpt><trkpt lat="21.79883330697333" lon="-102.40449775036865"><ele>1914.6</ele><time>2026-03-22T16:28:45.889Z</time></trkpt><trkpt lat="21.798860663280983" lon="-102.40438817895082"><ele>1914.2</ele><time>2026-03-22T16:28:46.889Z</time></trkpt><trkpt lat="21.79889072164138" lon="-102.40427247950086"><ele>1913.8000000000002</ele><time>2026-03-22T16:28:47.889Z</time></trkpt><trkpt lat="21.798916599523707" lon="-102.40415773197213"><ele>1913.4</ele><time>2026-03-22T16:28:48.889Z</time></trkpt><trkpt lat="21.79893936425819" lon="-102.4040407029389"><ele>1913.0</ele><time>2026-03-22T16:28:49.889Z</time></trkpt><trkpt lat="21.798967590265786" lon="-102.40391833802597"><ele>1913.0</ele><time>2026-03-22T16:28:50.888Z</time></trkpt><trkpt lat="21.79899657127479" lon="-102.40378894167728"><ele>1913.0</ele><time>2026-03-22T16:28:51.888Z</time></trkpt><trkpt lat="21.799023664384332" lon="-102.40366337225282"><ele>1913.0</ele><time>2026-03-22T16:28:52.888Z</time></trkpt><trkpt lat="21.79905653241283" lon="-102.4035290473381"><ele>1913.0</ele><time>2026-03-22T16:28:53.888Z</time></trkpt><trkpt lat="21.799085116140887" lon="-102.40339219502621"><ele>1913.0</ele><time>2026-03-22T16:28:54.888Z</time></trkpt><trkpt lat="21.7991175937656" lon="-102.40324841667761"><ele>1913.0</ele><time>2026-03-22T16:28:55.888Z</time></trkpt><trkpt lat="21.799150378037417" lon="-102.40310613900272"><ele>1913.0</ele><time>2026-03-22T16:28:56.888Z</time></trkpt><trkpt lat="21.799181736380852" lon="-102.40297121958042"><ele>1913.0</ele><time>2026-03-22T16:28:57.888Z</time></trkpt><trkpt lat="21.79920524669125" lon="-102.40283527300974"><ele>1913.0</ele><time>2026-03-22T16:28:58.888Z</time></trkpt><trkpt lat="21.79923983802586" lon="-102.40269627420084"><ele>1913.0</ele><time>2026-03-22T16:28:59.89Z</time></trkpt><trkpt lat="21.799267675507156" lon="-102.40256596212079"><ele>1913.0</ele><time>2026-03-22T16:29:00.889Z</time></trkpt><trkpt lat="21.799293147551605" lon="-102.40243625205424"><ele>1913.0</ele><time>2026-03-22T16:29:01.889Z</time></trkpt><trkpt lat="21.79931946488139" lon="-102.40230541272825"><ele>1912.75</ele><time>2026-03-22T16:29:02.889Z</time></trkpt><trkpt lat="21.799345645451773" lon="-102.40218022234961"><ele>1912.5</ele><time>2026-03-22T16:29:03.889Z</time></trkpt><trkpt lat="21.79936987671006" lon="-102.40205542488873"><ele>1912.25</ele><time>2026-03-22T16:29:04.889Z</time></trkpt><trkpt lat="21.799391783876793" lon="-102.40193348140092"><ele>1912.0</ele><time>2026-03-22T16:29:05.889Z</time></trkpt><trkpt lat="21.799425553948613" lon="-102.40181007331718"><ele>1911.25</ele><time>2026-03-22T16:29:06.889Z</time></trkpt><trkpt lat="21.799448170404037" lon="-102.40169358778077"><ele>1910.5</ele><time>2026-03-22T16:29:07.889Z</time></trkpt><trkpt lat="21.799472934624408" lon="-102.40157274022773"><ele>1909.75</ele><time>2026-03-22T16:29:08.889Z</time></trkpt><trkpt lat="21.79950073210081" lon="-102.40145743311658"><ele>1909.0</ele><time>2026-03-22T16:29:09.889Z</time></trkpt><trkpt lat="21.79953267787333" lon="-102.4013345026146"><ele>1909.2</ele><time>2026-03-22T16:29:10.889Z</time></trkpt><trkpt lat="21.799562897764154" lon="-102.40121754376491"><ele>1909.4</ele><time>2026-03-22T16:29:11.89Z</time></trkpt><trkpt lat="21.79958613256024" lon="-102.40109940889548"><ele>1909.6</ele><time>2026-03-22T16:29:12.889Z</time></trkpt><trkpt lat="21.799608190053434" lon="-102.40098253162704"><ele>1909.8</ele><time>2026-03-22T16:29:13.889Z</time></trkpt><trkpt lat="21.799630856765038" lon="-102.40086779509673"><ele>1910.0</ele><time>2026-03-22T16:29:14.889Z</time></trkpt><trkpt lat="21.79966019476188" lon="-102.40074753280825"><ele>1910.0</ele><time>2026-03-22T16:29:15.889Z</time></trkpt><trkpt lat="21.7996879881355" lon="-102.40063191460837"><ele>1910.0</ele><time>2026-03-22T16:29:16.889Z</time></trkpt><trkpt lat="21.79971458437733" lon="-102.40051602178252"><ele>1910.0</ele><time>2026-03-22T16:29:17.889Z</time></trkpt><trkpt lat="21.79973957672606" lon="-102.40040029983477"><ele>1910.0</ele><time>2026-03-22T16:29:18.889Z</time></trkpt><trkpt lat="21.799765697168944" lon="-102.40028655983812"><ele>1910.0</ele><time>2026-03-22T16:29:19.889Z</time></trkpt><trkpt lat="21.799790949413783" lon="-102.40017068639797"><ele>1909.5</ele><time>2026-03-22T16:29:20.889Z</time></trkpt><trkpt lat="21.799817711916347" lon="-102.40004940687761"><ele>1909.0</ele><time>2026-03-22T16:29:21.889Z</time></trkpt><trkpt lat="21.799843349399445" lon="-102.39993075075792"><ele>1908.5</ele><time>2026-03-22T16:29:22.889Z</time></trkpt><trkpt lat="21.799867694436962" lon="-102.39981249586432"><ele>1908.0</ele><time>2026-03-22T16:29:23.889Z</time></trkpt><trkpt lat="21.79989401519576" lon="-102.39968946513255"><ele>1907.5</ele><time>2026-03-22T16:29:24.889Z</time></trkpt><trkpt lat="21.79992487304606" lon="-102.39956186375963"><ele>1907.0</ele><time>2026-03-22T16:29:25.889Z</time></trkpt><trkpt lat="21.799952907290717" lon="-102.3994439325515"><ele>1906.5</ele><time>2026-03-22T16:29:26.889Z</time></trkpt><trkpt lat="21.799977001487584" lon="-102.39931450025635"><ele>1906.0</ele><time>2026-03-22T16:29:27.889Z</time></trkpt><trkpt lat="21.800007636014907" lon="-102.39919816890402"><ele>1906.0</ele><time>2026-03-22T16:29:28.889Z</time></trkpt><trkpt lat="21.800033695973895" lon="-102.39907404960981"><ele>1906.0</ele><time>2026-03-22T16:29:29.889Z</time></trkpt><trkpt lat="21.80006201045009" lon="-102.39895386086856"><ele>1906.0</ele><time>2026-03-22T16:29:30.889Z</time></trkpt><trkpt lat="21.800090965712595" lon="-102.39882438988934"><ele>1906.0</ele><time>2026-03-22T16:29:31.889Z</time></trkpt><trkpt lat="21.800112381580547" lon="-102.39870270575967"><ele>1905.5</ele><time>2026-03-22T16:29:32.889Z</time></trkpt><trkpt lat="21.800141660847824" lon="-102.3985841030684"><ele>1905.0</ele><time>2026-03-22T16:29:33.889Z</time></trkpt><trkpt lat="21.80016891009478" lon="-102.3984571826657"><ele>1904.5</ele><time>2026-03-22T16:29:34.889Z</time></trkpt><trkpt lat="21.800196947231303" lon="-102.39833895499433"><ele>1904.0</ele><time>2026-03-22T16:29:35.889Z</time></trkpt><trkpt lat="21.8002249985821" lon="-102.39821488146221"><ele>1904.0</ele><time>2026-03-22T16:29:36.889Z</time></trkpt><trkpt lat="21.80024457695133" lon="-102.39808474930179"><ele>1904.0</ele><time>2026-03-22T16:29:37.889Z</time></trkpt><trkpt lat="21.800270743143976" lon="-102.3979575271893"><ele>1904.0</ele><time>2026-03-22T16:29:38.889Z</time></trkpt><trkpt lat="21.800294894727305" lon="-102.39783305117845"><ele>1904.0</ele><time>2026-03-22T16:29:39.889Z</time></trkpt><trkpt lat="21.800328582803367" lon="-102.39769708947705"><ele>1903.5</ele><time>2026-03-22T16:29:40.889Z</time></trkpt><trkpt lat="21.800355757061972" lon="-102.39756926614368"><ele>1903.0</ele><time>2026-03-22T16:29:41.889Z</time></trkpt><trkpt lat="21.800384275506065" lon="-102.39743500003185"><ele>1902.5</ele><time>2026-03-22T16:29:42.889Z</time></trkpt><trkpt lat="21.80041353584215" lon="-102.39730923123068"><ele>1902.0</ele><time>2026-03-22T16:29:43.889Z</time></trkpt><trkpt lat="21.800440099414597" lon="-102.39717972105731"><ele>1901.5</ele><time>2026-03-22T16:29:44.889Z</time></trkpt><trkpt lat="21.800465389891773" lon="-102.39704842770378"><ele>1901.0</ele><time>2026-03-22T16:29:45.889Z</time></trkpt><trkpt lat="21.800497987901835" lon="-102.39691458402571"><ele>1900.5</ele><time>2026-03-22T16:29:46.889Z</time></trkpt><trkpt lat="21.800528970878794" lon="-102.3967870510746"><ele>1900.0</ele><time>2026-03-22T16:29:47.821Z</time></trkpt><trkpt lat="21.800561275558998" lon="-102.39665234966391"><ele>1900.0</ele><time>2026-03-22T16:29:48.821Z</time></trkpt><trkpt lat="21.800589112375846" lon="-102.39651907342429"><ele>1900.0</ele><time>2026-03-22T16:29:49.821Z</time></trkpt><trkpt lat="21.80061872199392" lon="-102.39638489780441"><ele>1900.0</ele><time>2026-03-22T16:29:50.821Z</time></trkpt><trkpt lat="21.800647739054906" lon="-102.39624525125417"><ele>1900.0</ele><time>2026-03-22T16:29:51.821Z</time></trkpt><trkpt lat="21.800680808590098" lon="-102.39611034798851"><ele>1899.25</ele><time>2026-03-22T16:29:52.821Z</time></trkpt><trkpt lat="21.8007127126541" lon="-102.39597173985551"><ele>1898.5</ele><time>2026-03-22T16:29:53.821Z</time></trkpt><trkpt lat="21.800745924482655" lon="-102.39582863959428"><ele>1897.75</ele><time>2026-03-22T16:29:54.821Z</time></trkpt><trkpt lat="21.800776647370622" lon="-102.39568292239164"><ele>1897.0</ele><time>2026-03-22T16:29:55.821Z</time></trkpt><trkpt lat="21.8008084937035" lon="-102.39553607933449"><ele>1897.0</ele><time>2026-03-22T16:29:56.821Z</time></trkpt><trkpt lat="21.80084277819277" lon="-102.39539385723027"><ele>1897.0</ele><time>2026-03-22T16:29:57.821Z</time></trkpt><trkpt lat="21.80088580006343" lon="-102.39524709624676"><ele>1897.0</ele><time>2026-03-22T16:29:58.821Z</time></trkpt><trkpt lat="21.800934416517542" lon="-102.39510026046021"><ele>1897.0</ele><time>2026-03-22T16:29:59.821Z</time></trkpt><trkpt lat="21.80100256214275" lon="-102.39495629871365"><ele>1896.3333333333335</ele><time>2026-03-22T16:30:00.821Z</time></trkpt><trkpt lat="21.801078003630494" lon="-102.39481522555293"><ele>1895.6666666666665</ele><time>2026-03-22T16:30:01.821Z</time></trkpt><trkpt lat="21.80115847155719" lon="-102.39467353846506"><ele>1895.0</ele><time>2026-03-22T16:30:02.821Z</time></trkpt><trkpt lat="21.801239629483558" lon="-102.39454004895835"><ele>1893.3333333333333</ele><time>2026-03-22T16:30:03.821Z</time></trkpt><trkpt lat="21.801334099634246" lon="-102.39441079033384"><ele>1891.6666666666665</ele><time>2026-03-22T16:30:04.821Z</time></trkpt><trkpt lat="21.801443857264786" lon="-102.39429954727288"><ele>1890.0</ele><time>2026-03-22T16:30:05.821Z</time></trkpt><trkpt lat="21.801557729289804" lon="-102.39418038673003"><ele>1890.0</ele><time>2026-03-22T16:30:06.821Z</time></trkpt><trkpt lat="21.801674640986267" lon="-102.39407638754754"><ele>1890.0</ele><time>2026-03-22T16:30:07.821Z</time></trkpt><trkpt lat="21.801788460212993" lon="-102.39396605107652"><ele>1890.0</ele><time>2026-03-22T16:30:08.821Z</time></trkpt><trkpt lat="21.801910256517434" lon="-102.39385518411173"><ele>1887.0</ele><time>2026-03-22T16:30:09.821Z</time></trkpt><trkpt lat="21.80202640283179" lon="-102.3937461078679"><ele>1884.0</ele><time>2026-03-22T16:30:10.821Z</time></trkpt><trkpt lat="21.80215020111309" lon="-102.3936380295038"><ele>1881.0</ele><time>2026-03-22T16:30:11.82Z</time></trkpt><trkpt lat="21.80226645562429" lon="-102.39352260181225"><ele>1881.0</ele><time>2026-03-22T16:30:12.82Z</time></trkpt><trkpt lat="21.802377084031104" lon="-102.39340684061808"><ele>1881.0</ele><time>2026-03-22T16:30:13.82Z</time></trkpt><trkpt lat="21.802499032680423" lon="-102.39329655785764"><ele>1881.0</ele><time>2026-03-22T16:30:14.82Z</time></trkpt><trkpt lat="21.802623175032974" lon="-102.39318468612485"><ele>1879.0</ele><time>2026-03-22T16:30:15.82Z</time></trkpt><trkpt lat="21.802744865597404" lon="-102.39306961333472"><ele>1877.0</ele><time>2026-03-22T16:30:16.82Z</time></trkpt><trkpt lat="21.802870095489542" lon="-102.39295236427256"><ele>1875.0</ele><time>2026-03-22T16:30:17.82Z</time></trkpt><trkpt lat="21.803000322229256" lon="-102.39283792463472"><ele>1874.6666666666665</ele><time>2026-03-22T16:30:18.82Z</time></trkpt><trkpt lat="21.80313111651235" lon="-102.39271961154472"><ele>1874.3333333333333</ele><time>2026-03-22T16:30:19.82Z</time></trkpt><trkpt lat="21.80325540799849" lon="-102.39260015519623"><ele>1874.0</ele><time>2026-03-22T16:30:20.82Z</time></trkpt><trkpt lat="21.803392907887655" lon="-102.3924803216893"><ele>1873.0</ele><time>2026-03-22T16:30:21.82Z</time></trkpt><trkpt lat="21.803514102897296" lon="-102.39235558269249"><ele>1872.0</ele><time>2026-03-22T16:30:22.82Z</time></trkpt><trkpt lat="21.803644417644016" lon="-102.39223043479805"><ele>1871.0</ele><time>2026-03-22T16:30:23.82Z</time></trkpt><trkpt lat="21.80377699921526" lon="-102.39211082351515"><ele>1870.0</ele><time>2026-03-22T16:30:24.82Z</time></trkpt><trkpt lat="21.80391118321062" lon="-102.39199166071278"><ele>1869.0</ele><time>2026-03-22T16:30:25.82Z</time></trkpt><trkpt lat="21.80404095568448" lon="-102.3918663054158"><ele>1868.0</ele><time>2026-03-22T16:30:26.82Z</time></trkpt><trkpt lat="21.804173291790725" lon="-102.39174270911795"><ele>1868.0</ele><time>2026-03-22T16:30:27.82Z</time></trkpt><trkpt lat="21.8043091539768" lon="-102.39161538794288"><ele>1868.0</ele><time>2026-03-22T16:30:28.82Z</time></trkpt><trkpt lat="21.804443514522656" lon="-102.39149118406002"><ele>1868.0</ele><time>2026-03-22T16:30:29.82Z</time></trkpt><trkpt lat="21.804576989320474" lon="-102.39136212419031"><ele>1865.0</ele><time>2026-03-22T16:30:30.82Z</time></trkpt><trkpt lat="21.804717373382005" lon="-102.39123329360531"><ele>1862.0</ele><time>2026-03-22T16:30:31.82Z</time></trkpt><trkpt lat="21.804852142555124" lon="-102.39110813996191"><ele>1859.0</ele><time>2026-03-22T16:30:32.82Z</time></trkpt><trkpt lat="21.804989552303727" lon="-102.3909782729353"><ele>1859.0</ele><time>2026-03-22T16:30:33.82Z</time></trkpt><trkpt lat="21.80512664486615" lon="-102.39085061425222"><ele>1859.0</ele><time>2026-03-22T16:30:34.82Z</time></trkpt><trkpt lat="21.80526502568037" lon="-102.39071916540591"><ele>1859.0</ele><time>2026-03-22T16:30:35.82Z</time></trkpt><trkpt lat="21.805407403505882" lon="-102.39058810549136"><ele>1856.3333333333333</ele><time>2026-03-22T16:30:36.82Z</time></trkpt><trkpt lat="21.805548309475665" lon="-102.39046226313982"><ele>1853.6666666666665</ele><time>2026-03-22T16:30:37.82Z</time></trkpt><trkpt lat="21.805688344901757" lon="-102.39033592771956"><ele>1851.0</ele><time>2026-03-22T16:30:38.82Z</time></trkpt><trkpt lat="21.805814332480274" lon="-102.3902080557877"><ele>1851.0</ele><time>2026-03-22T16:30:39.82Z</time></trkpt><trkpt lat="21.80594271749588" lon="-102.39008465951105"><ele>1851.0</ele><time>2026-03-22T16:30:40.82Z</time></trkpt><trkpt lat="21.806072465706052" lon="-102.38996299259183"><ele>1851.0</ele><time>2026-03-22T16:30:41.82Z</time></trkpt><trkpt lat="21.806204409282312" lon="-102.3898465316233"><ele>1850.6666666666665</ele><time>2026-03-22T16:30:42.82Z</time></trkpt><trkpt lat="21.80633595101615" lon="-102.38972957443544"><ele>1850.3333333333333</ele><time>2026-03-22T16:30:43.82Z</time></trkpt><trkpt lat="21.806465974334635" lon="-102.3896096199329"><ele>1850.0</ele><time>2026-03-22T16:30:44.82Z</time></trkpt><trkpt lat="21.80659342001224" lon="-102.38949270603737"><ele>1849.3333333333333</ele><time>2026-03-22T16:30:45.82Z</time></trkpt><trkpt lat="21.80671901327106" lon="-102.38938025207707"><ele>1848.6666666666665</ele><time>2026-03-22T16:30:46.819Z</time></trkpt><trkpt lat="21.8068329852159" lon="-102.38926857417053"><ele>1848.0</ele><time>2026-03-22T16:30:47.819Z</time></trkpt><trkpt lat="21.80694819475292" lon="-102.38916262771379"><ele>1848.75</ele><time>2026-03-22T16:30:48.819Z</time></trkpt><trkpt lat="21.80705957493723" lon="-102.38905550783817"><ele>1849.5</ele><time>2026-03-22T16:30:49.819Z</time></trkpt><trkpt lat="21.807169864313106" lon="-102.388956037334"><ele>1850.25</ele><time>2026-03-22T16:30:50.819Z</time></trkpt><trkpt lat="21.807282436044627" lon="-102.38885717814995"><ele>1851.0</ele><time>2026-03-22T16:30:51.819Z</time></trkpt><trkpt lat="21.807386499349512" lon="-102.38875823255378"><ele>1851.0</ele><time>2026-03-22T16:30:52.819Z</time></trkpt><trkpt lat="21.807483015661226" lon="-102.38866278171584"><ele>1851.0</ele><time>2026-03-22T16:30:53.819Z</time></trkpt><trkpt lat="21.807579747883583" lon="-102.38856632328874"><ele>1851.0</ele><time>2026-03-22T16:30:54.819Z</time></trkpt><trkpt lat="21.80767432119964" lon="-102.3884776799594"><ele>1851.0</ele><time>2026-03-22T16:30:55.819Z</time></trkpt><trkpt lat="21.807763486234908" lon="-102.38838848938735"><ele>1852.1999999999998</ele><time>2026-03-22T16:30:56.819Z</time></trkpt><trkpt lat="21.807848355281873" lon="-102.38830562271919"><ele>1853.3999999999999</ele><time>2026-03-22T16:30:57.819Z</time></trkpt><trkpt lat="21.807930404543725" lon="-102.38822576817223"><ele>1854.6</ele><time>2026-03-22T16:30:58.819Z</time></trkpt><trkpt lat="21.80800930772827" lon="-102.38815290938497"><ele>1855.8</ele><time>2026-03-22T16:30:59.819Z</time></trkpt><trkpt lat="21.808084414165968" lon="-102.38808105061196"><ele>1857.0</ele><time>2026-03-22T16:31:00.819Z</time></trkpt><trkpt lat="21.808164502962132" lon="-102.38800471534982"><ele>1857.0</ele><time>2026-03-22T16:31:01.819Z</time></trkpt><trkpt lat="21.80822925380404" lon="-102.38794018873233"><ele>1856.9999999999998</ele><time>2026-03-22T16:31:02.819Z</time></trkpt><trkpt lat="21.80829907947685" lon="-102.38787084237116"><ele>1856.9999999999998</ele><time>2026-03-22T16:31:03.819Z</time></trkpt><trkpt lat="21.808370284277817" lon="-102.38780304976983"><ele>1857.0</ele><time>2026-03-22T16:31:04.819Z</time></trkpt><trkpt lat="21.80843736194492" lon="-102.38774575614644"><ele>1857.0</ele><time>2026-03-22T16:31:05.82Z</time></trkpt><trkpt lat="21.808504314876014" lon="-102.38768258529292"><ele>1857.6666666666667</ele><time>2026-03-22T16:31:06.82Z</time></trkpt><trkpt lat="21.808571668417528" lon="-102.3876189085953"><ele>1858.3333333333335</ele><time>2026-03-22T16:31:07.82Z</time></trkpt><trkpt lat="21.80863824753839" lon="-102.38756276829946"><ele>1859.0</ele><time>2026-03-22T16:31:08.82Z</time></trkpt><trkpt lat="21.80871076379046" lon="-102.3875020148375"><ele>1859.6666666666667</ele><time>2026-03-22T16:31:09.82Z</time></trkpt><trkpt lat="21.808775458466588" lon="-102.38743877265136"><ele>1860.3333333333335</ele><time>2026-03-22T16:31:10.82Z</time></trkpt><trkpt lat="21.808841232559452" lon="-102.38737693635244"><ele>1861.0</ele><time>2026-03-22T16:31:11.82Z</time></trkpt><trkpt lat="21.80890935858824" lon="-102.38731595587306"><ele>1861.0000000000002</ele><time>2026-03-22T16:31:12.82Z</time></trkpt><trkpt lat="21.80897159829841" lon="-102.38725349799668"><ele>1861.0</ele><time>2026-03-22T16:31:13.82Z</time></trkpt><trkpt lat="21.809036601237363" lon="-102.38719241914812"><ele>1861.0</ele><time>2026-03-22T16:31:14.82Z</time></trkpt><trkpt lat="21.809101274094598" lon="-102.38713454353665"><ele>1861.0</ele><time>2026-03-22T16:31:15.819Z</time></trkpt><trkpt lat="21.809173267133666" lon="-102.38706801914952"><ele>1861.0000000000002</ele><time>2026-03-22T16:31:16.819Z</time></trkpt><trkpt lat="21.809240910191686" lon="-102.3870063182432"><ele>1861.0</ele><time>2026-03-22T16:31:17.82Z</time></trkpt><trkpt lat="21.809318197770338" lon="-102.38693209578558"><ele>1861.0</ele><time>2026-03-22T16:31:18.82Z</time></trkpt><trkpt lat="21.809385295171566" lon="-102.38686389255842"><ele>1861.0</ele><time>2026-03-22T16:31:19.82Z</time></trkpt><trkpt lat="21.809456321788076" lon="-102.38679395961299"><ele>1861.0</ele><time>2026-03-22T16:31:20.819Z</time></trkpt><trkpt lat="21.809524343635815" lon="-102.38672417605721"><ele>1861.0</ele><time>2026-03-22T16:31:21.819Z</time></trkpt><trkpt lat="21.80959307600308" lon="-102.38665946743123"><ele>1861.0</ele><time>2026-03-22T16:31:22.819Z</time></trkpt><trkpt lat="21.80966567939346" lon="-102.38659534806631"><ele>1861.0</ele><time>2026-03-22T16:31:23.819Z</time></trkpt><trkpt lat="21.809737543985246" lon="-102.38653053111508"><ele>1861.0</ele><time>2026-03-22T16:31:24.819Z</time></trkpt><trkpt lat="21.809808451651573" lon="-102.3864630101521"><ele>1861.0</ele><time>2026-03-22T16:31:25.819Z</time></trkpt><trkpt lat="21.80988141424874" lon="-102.38639354273913"><ele>1861.0</ele><time>2026-03-22T16:31:26.819Z</time></trkpt><trkpt lat="21.809953870241024" lon="-102.38632423325676"><ele>1861.0</ele><time>2026-03-22T16:31:27.819Z</time></trkpt><trkpt lat="21.81003027347654" lon="-102.38625747025291"><ele>1860.8</ele><time>2026-03-22T16:31:28.819Z</time></trkpt><trkpt lat="21.810104832605578" lon="-102.38618595723904"><ele>1860.6</ele><time>2026-03-22T16:31:29.819Z</time></trkpt><trkpt lat="21.810181484265083" lon="-102.38611346641355"><ele>1860.4</ele><time>2026-03-22T16:31:30.819Z</time></trkpt><trkpt lat="21.81025748272797" lon="-102.38604323315776"><ele>1860.2</ele><time>2026-03-22T16:31:31.819Z</time></trkpt><trkpt lat="21.810335675971515" lon="-102.38597141447114"><ele>1860.0</ele><time>2026-03-22T16:31:32.819Z</time></trkpt><trkpt lat="21.810424651358005" lon="-102.38589877803929"><ele>1860.0</ele><time>2026-03-22T16:31:33.819Z</time></trkpt><trkpt lat="21.810494655500317" lon="-102.38582224177105"><ele>1860.0</ele><time>2026-03-22T16:31:34.819Z</time></trkpt><trkpt lat="21.810573102280046" lon="-102.38574866932646"><ele>1860.0</ele><time>2026-03-22T16:31:35.819Z</time></trkpt><trkpt lat="21.810653152319617" lon="-102.3856768233012"><ele>1860.0</ele><time>2026-03-22T16:31:36.819Z</time></trkpt><trkpt lat="21.81073162660819" lon="-102.38560410791987"><ele>1860.0</ele><time>2026-03-22T16:31:37.819Z</time></trkpt><trkpt lat="21.810815028491383" lon="-102.38553337981902"><ele>1859.6</ele><time>2026-03-22T16:31:38.819Z</time></trkpt><trkpt lat="21.81089734456525" lon="-102.38546203512391"><ele>1859.2</ele><time>2026-03-22T16:31:39.819Z</time></trkpt><trkpt lat="21.810978016326438" lon="-102.38538615590299"><ele>1858.8000000000002</ele><time>2026-03-22T16:31:40.819Z</time></trkpt><trkpt lat="21.811060926055795" lon="-102.38531299717603"><ele>1858.4</ele><time>2026-03-22T16:31:41.819Z</time></trkpt><trkpt lat="21.811143696519103" lon="-102.38523909421068"><ele>1858.0</ele><time>2026-03-22T16:31:42.819Z</time></trkpt><trkpt lat="21.811221762089218" lon="-102.38516280645977"><ele>1857.8000000000002</ele><time>2026-03-22T16:31:43.819Z</time></trkpt><trkpt lat="21.811305268649143" lon="-102.38509192541109"><ele>1857.6000000000001</ele><time>2026-03-22T16:31:44.819Z</time></trkpt><trkpt lat="21.811389444855582" lon="-102.38501127023419"><ele>1857.3999999999999</ele><time>2026-03-22T16:31:45.819Z</time></trkpt><trkpt lat="21.811468781577904" lon="-102.3849346842149"><ele>1857.1999999999998</ele><time>2026-03-22T16:31:46.819Z</time></trkpt><trkpt lat="21.811550387725035" lon="-102.38485618449627"><ele>1857.0</ele><time>2026-03-22T16:31:47.819Z</time></trkpt><trkpt lat="21.811633703838744" lon="-102.38477930966764"><ele>1857.0</ele><time>2026-03-22T16:31:48.819Z</time></trkpt><trkpt lat="21.811716812503956" lon="-102.38469960739582"><ele>1856.9999999999998</ele><time>2026-03-22T16:31:49.819Z</time></trkpt><trkpt lat="21.81179864766633" lon="-102.38461502071556"><ele>1856.9999999999998</ele><time>2026-03-22T16:31:50.819Z</time></trkpt><trkpt lat="21.811882446684898" lon="-102.38454110621488"><ele>1857.0</ele><time>2026-03-22T16:31:51.819Z</time></trkpt><trkpt lat="21.81196871330301" lon="-102.38446671040448"><ele>1857.0</ele><time>2026-03-22T16:31:52.819Z</time></trkpt><trkpt lat="21.81204845577374" lon="-102.38438922006094"><ele>1856.3999999999999</ele><time>2026-03-22T16:31:53.819Z</time></trkpt><trkpt lat="21.812131610619588" lon="-102.38431275362427"><ele>1855.7999999999997</ele><time>2026-03-22T16:31:54.819Z</time></trkpt><trkpt lat="21.8122109284751" lon="-102.3842357872199"><ele>1855.2</ele><time>2026-03-22T16:31:55.819Z</time></trkpt><trkpt lat="21.812301268555352" lon="-102.3841713006022"><ele>1854.6</ele><time>2026-03-22T16:31:56.818Z</time></trkpt><trkpt lat="21.81237952798791" lon="-102.38408471409963"><ele>1854.0</ele><time>2026-03-22T16:31:57.818Z</time></trkpt><trkpt lat="21.81246234951867" lon="-102.38401178827816"><ele>1854.0</ele><time>2026-03-22T16:31:58.818Z</time></trkpt><trkpt lat="21.812553069253305" lon="-102.38394928715236"><ele>1854.0</ele><time>2026-03-22T16:31:59.818Z</time></trkpt><trkpt lat="21.81264516799416" lon="-102.38386460359929"><ele>1854.0</ele><time>2026-03-22T16:32:00.818Z</time></trkpt><trkpt lat="21.81272770828918" lon="-102.38378459377054"><ele>1854.0</ele><time>2026-03-22T16:32:01.818Z</time></trkpt><trkpt lat="21.812815920975442" lon="-102.3837007572495"><ele>1854.0</ele><time>2026-03-22T16:32:02.818Z</time></trkpt><trkpt lat="21.81290413366499" lon="-102.3836103010017"><ele>1854.0</ele><time>2026-03-22T16:32:03.818Z</time></trkpt><trkpt lat="21.813002903158914" lon="-102.3835198136307"><ele>1854.0</ele><time>2026-03-22T16:32:04.818Z</time></trkpt><trkpt lat="21.81309208508774" lon="-102.3834373370206"><ele>1854.0</ele><time>2026-03-22T16:32:05.818Z</time></trkpt><trkpt lat="21.813181404754918" lon="-102.38334995911394"><ele>1854.0</ele><time>2026-03-22T16:32:06.818Z</time></trkpt><trkpt lat="21.813272001464654" lon="-102.38325816769488"><ele>1854.0</ele><time>2026-03-22T16:32:07.818Z</time></trkpt><trkpt lat="21.813362781759608" lon="-102.38317183174539"><ele>1854.0</ele><time>2026-03-22T16:32:08.818Z</time></trkpt><trkpt lat="21.813452592866525" lon="-102.38308007131006"><ele>1854.0</ele><time>2026-03-22T16:32:09.818Z</time></trkpt><trkpt lat="21.813553163079195" lon="-102.38299257641901"><ele>1853.0</ele><time>2026-03-22T16:32:10.818Z</time></trkpt><trkpt lat="21.813653252532625" lon="-102.3829089396407"><ele>1852.0</ele><time>2026-03-22T16:32:11.818Z</time></trkpt><trkpt lat="21.81375352116986" lon="-102.38282601074233"><ele>1851.0</ele><time>2026-03-22T16:32:12.818Z</time></trkpt><trkpt lat="21.813852334494282" lon="-102.3827325429053"><ele>1850.0</ele><time>2026-03-22T16:32:13.818Z</time></trkpt><trkpt lat="21.813956084809085" lon="-102.38264629854767"><ele>1850.0</ele><time>2026-03-22T16:32:14.818Z</time></trkpt><trkpt lat="21.81406014183508" lon="-102.38254901526122"><ele>1850.0</ele><time>2026-03-22T16:32:15.818Z</time></trkpt><trkpt lat="21.81415866036068" lon="-102.38245993249114"><ele>1850.0</ele><time>2026-03-22T16:32:16.818Z</time></trkpt><trkpt lat="21.814258828437342" lon="-102.38236421716003"><ele>1850.0</ele><time>2026-03-22T16:32:17.818Z</time></trkpt><trkpt lat="21.814356058565917" lon="-102.38226733148197"><ele>1849.5</ele><time>2026-03-22T16:32:18.818Z</time></trkpt><trkpt lat="21.814453748879586" lon="-102.38217111791556"><ele>1849.0</ele><time>2026-03-22T16:32:19.818Z</time></trkpt><trkpt lat="21.81455472103731" lon="-102.38207649631045"><ele>1848.5</ele><time>2026-03-22T16:32:20.818Z</time></trkpt><trkpt lat="21.814659690790574" lon="-102.3819803255345"><ele>1848.0</ele><time>2026-03-22T16:32:21.818Z</time></trkpt><trkpt lat="21.814768988573125" lon="-102.38188512891968"><ele>1848.0</ele><time>2026-03-22T16:32:22.818Z</time></trkpt><trkpt lat="21.814869737724802" lon="-102.38178509350047"><ele>1848.0</ele><time>2026-03-22T16:32:23.818Z</time></trkpt><trkpt lat="21.814974772929602" lon="-102.38168497540397"><ele>1848.0</ele><time>2026-03-22T16:32:24.818Z</time></trkpt><trkpt lat="21.81508078016207" lon="-102.38158966082139"><ele>1848.0</ele><time>2026-03-22T16:32:25.818Z</time></trkpt><trkpt lat="21.81519933410694" lon="-102.38148627389138"><ele>1848.0</ele><time>2026-03-22T16:32:26.818Z</time></trkpt><trkpt lat="21.81530838679263" lon="-102.38138837479252"><ele>1848.0</ele><time>2026-03-22T16:32:27.818Z</time></trkpt><trkpt lat="21.815417174133355" lon="-102.38128577604236"><ele>1848.0</ele><time>2026-03-22T16:32:28.818Z</time></trkpt><trkpt lat="21.81553175114334" lon="-102.3811808255035"><ele>1848.0</ele><time>2026-03-22T16:32:29.818Z</time></trkpt><trkpt lat="21.815639379807052" lon="-102.38108119297388"><ele>1847.75</ele><time>2026-03-22T16:32:30.818Z</time></trkpt><trkpt lat="21.815748520038838" lon="-102.38098150122474"><ele>1847.5</ele><time>2026-03-22T16:32:31.818Z</time></trkpt><trkpt lat="21.815854288220578" lon="-102.38088328110133"><ele>1847.25</ele><time>2026-03-22T16:32:32.817Z</time></trkpt><trkpt lat="21.81595862383538" lon="-102.38078448887634"><ele>1847.0</ele><time>2026-03-22T16:32:33.817Z</time></trkpt><trkpt lat="21.816059989391523" lon="-102.38068527058371"><ele>1847.0</ele><time>2026-03-22T16:32:34.817Z</time></trkpt><trkpt lat="21.81616971158033" lon="-102.38058489538408"><ele>1847.0</ele><time>2026-03-22T16:32:35.817Z</time></trkpt><trkpt lat="21.816271578659247" lon="-102.38049230065327"><ele>1847.0</ele><time>2026-03-22T16:32:36.817Z</time></trkpt><trkpt lat="21.816380723612934" lon="-102.38040001723951"><ele>1847.0</ele><time>2026-03-22T16:32:37.817Z</time></trkpt><trkpt lat="21.816487911897447" lon="-102.38031282573266"><ele>1847.25</ele><time>2026-03-22T16:32:38.817Z</time></trkpt><trkpt lat="21.81659271249359" lon="-102.38021885545596"><ele>1847.5</ele><time>2026-03-22T16:32:39.817Z</time></trkpt><trkpt lat="21.816702179153264" lon="-102.38013125698123"><ele>1847.75</ele><time>2026-03-22T16:32:40.817Z</time></trkpt><trkpt lat="21.816815333790853" lon="-102.38005701960559"><ele>1848.0</ele><time>2026-03-22T16:32:41.817Z</time></trkpt><trkpt lat="21.81692328405844" lon="-102.37996831640938"><ele>1848.0</ele><time>2026-03-22T16:32:42.817Z</time></trkpt><trkpt lat="21.81703293343667" lon="-102.37989715506752"><ele>1848.0</ele><time>2026-03-22T16:32:43.817Z</time></trkpt><trkpt lat="21.81714372949558" lon="-102.37982383271526"><ele>1848.0</ele><time>2026-03-22T16:32:44.817Z</time></trkpt><trkpt lat="21.81724967575764" lon="-102.37975542341933"><ele>1848.0</ele><time>2026-03-22T16:32:45.817Z</time></trkpt><trkpt lat="21.81735807618457" lon="-102.37969920290448"><ele>1848.5</ele><time>2026-03-22T16:32:46.817Z</time></trkpt><trkpt lat="21.81746060122918" lon="-102.37963938193414"><ele>1849.0</ele><time>2026-03-22T16:32:47.817Z</time></trkpt><trkpt lat="21.817558191620495" lon="-102.3795832397282"><ele>1849.5</ele><time>2026-03-22T16:32:48.817Z</time></trkpt><trkpt lat="21.817672362519364" lon="-102.37953359577557"><ele>1850.0</ele><time>2026-03-22T16:32:49.817Z</time></trkpt><trkpt lat="21.817764435248417" lon="-102.3794886612222"><ele>1850.0</ele><time>2026-03-22T16:32:50.817Z</time></trkpt><trkpt lat="21.817862511617765" lon="-102.37944266773906"><ele>1850.0</ele><time>2026-03-22T16:32:51.817Z</time></trkpt><trkpt lat="21.817953481607475" lon="-102.37939456344824"><ele>1850.0</ele><time>2026-03-22T16:32:52.817Z</time></trkpt><trkpt lat="21.818041310216692" lon="-102.37934404759491"><ele>1850.0</ele><time>2026-03-22T16:32:53.817Z</time></trkpt><trkpt lat="21.81813281681432" lon="-102.37929874868138"><ele>1850.0</ele><time>2026-03-22T16:32:54.817Z</time></trkpt><trkpt lat="21.818225601386427" lon="-102.37925851999334"><ele>1850.0</ele><time>2026-03-22T16:32:55.817Z</time></trkpt><trkpt lat="21.818315556121387" lon="-102.3792085089014"><ele>1850.0</ele><time>2026-03-22T16:32:56.817Z</time></trkpt><trkpt lat="21.818395727937045" lon="-102.37916274277751"><ele>1850.0</ele><time>2026-03-22T16:32:57.817Z</time></trkpt><trkpt lat="21.81848788941488" lon="-102.37911472059115"><ele>1850.0</ele><time>2026-03-22T16:32:58.817Z</time></trkpt><trkpt lat="21.81857250549863" lon="-102.37907420418384"><ele>1850.0</ele><time>2026-03-22T16:32:59.817Z</time></trkpt><trkpt lat="21.81865698973894" lon="-102.37902933953715"><ele>1850.4</ele><time>2026-03-22T16:33:00.817Z</time></trkpt><trkpt lat="21.818738824443688" lon="-102.37898863662464"><ele>1850.8</ele><time>2026-03-22T16:33:01.817Z</time></trkpt><trkpt lat="21.818817257225554" lon="-102.37894803527392"><ele>1851.1999999999998</ele><time>2026-03-22T16:33:02.817Z</time></trkpt><trkpt lat="21.81890388648244" lon="-102.37890254123107"><ele>1851.6</ele><time>2026-03-22T16:33:03.817Z</time></trkpt><trkpt lat="21.818988022810245" lon="-102.37886296821891"><ele>1852.0</ele><time>2026-03-22T16:33:04.817Z</time></trkpt><trkpt lat="21.819073576520406" lon="-102.37882594607417"><ele>1851.8333333333335</ele><time>2026-03-22T16:33:05.817Z</time></trkpt><trkpt lat="21.81914942622587" lon="-102.37878814160553"><ele>1851.6666666666667</ele><time>2026-03-22T16:33:06.817Z</time></trkpt><trkpt lat="21.81921478590932" lon="-102.37874801053236"><ele>1851.5</ele><time>2026-03-22T16:33:07.816Z</time></trkpt><trkpt lat="21.819301734740414" lon="-102.37871105993507"><ele>1851.3333333333335</ele><time>2026-03-22T16:33:08.816Z</time></trkpt><trkpt lat="21.819388849505373" lon="-102.37867058508014"><ele>1851.1666666666667</ele><time>2026-03-22T16:33:09.816Z</time></trkpt><trkpt lat="21.819471505186844" lon="-102.37863391471812"><ele>1851.0</ele><time>2026-03-22T16:33:10.816Z</time></trkpt><trkpt lat="21.819556260933314" lon="-102.37859068636841"><ele>1851.0</ele><time>2026-03-22T16:33:11.818Z</time></trkpt><trkpt lat="21.81964355271728" lon="-102.37854555399761"><ele>1851.0</ele><time>2026-03-22T16:33:12.818Z</time></trkpt><trkpt lat="21.81972843261665" lon="-102.37851006232053"><ele>1851.0</ele><time>2026-03-22T16:33:13.818Z</time></trkpt><trkpt lat="21.819810019817716" lon="-102.37846477381589"><ele>1851.0</ele><time>2026-03-22T16:33:14.818Z</time></trkpt><trkpt lat="21.819892960188625" lon="-102.3784272069857"><ele>1851.0</ele><time>2026-03-22T16:33:15.818Z</time></trkpt><trkpt lat="21.819975707359692" lon="-102.37838384818905"><ele>1851.0</ele><time>2026-03-22T16:33:16.818Z</time></trkpt><trkpt lat="21.82005627802008" lon="-102.3783415414318"><ele>1851.0</ele><time>2026-03-22T16:33:17.817Z</time></trkpt><trkpt lat="21.820143483758574" lon="-102.37830537580393"><ele>1851.0</ele><time>2026-03-22T16:33:18.818Z</time></trkpt><trkpt lat="21.820232421790987" lon="-102.37826766541083"><ele>1851.0</ele><time>2026-03-22T16:33:19.818Z</time></trkpt><trkpt lat="21.820313545168535" lon="-102.37822182400507"><ele>1851.0</ele><time>2026-03-22T16:33:20.817Z</time></trkpt><trkpt lat="21.8203915183485" lon="-102.37817509978545"><ele>1851.6</ele><time>2026-03-22T16:33:21.818Z</time></trkpt><trkpt lat="21.820480401502206" lon="-102.37813221886486"><ele>1852.1999999999998</ele><time>2026-03-22T16:33:22.818Z</time></trkpt><trkpt lat="21.820563477411184" lon="-102.37809451417826"><ele>1852.8000000000002</ele><time>2026-03-22T16:33:23.817Z</time></trkpt><trkpt lat="21.820643255105626" lon="-102.37805844491646"><ele>1853.4</ele><time>2026-03-22T16:33:24.817Z</time></trkpt><trkpt lat="21.820723496558553" lon="-102.3780166540016"><ele>1854.0</ele><time>2026-03-22T16:33:25.817Z</time></trkpt><trkpt lat="21.820802500797857" lon="-102.37797557626321"><ele>1853.3333333333333</ele><time>2026-03-22T16:33:26.817Z</time></trkpt><trkpt lat="21.8208824414092" lon="-102.37793763397055"><ele>1852.6666666666665</ele><time>2026-03-22T16:33:27.817Z</time></trkpt><trkpt lat="21.820961803058214" lon="-102.37790235860493"><ele>1852.0</ele><time>2026-03-22T16:33:28.817Z</time></trkpt><trkpt lat="21.821035134695396" lon="-102.37787421460091"><ele>1851.3333333333333</ele><time>2026-03-22T16:33:29.817Z</time></trkpt><trkpt lat="21.821120197107188" lon="-102.37784152858016"><ele>1850.6666666666665</ele><time>2026-03-22T16:33:30.817Z</time></trkpt><trkpt lat="21.821207979942354" lon="-102.37782264467661"><ele>1850.0</ele><time>2026-03-22T16:33:31.817Z</time></trkpt><trkpt lat="21.82129041862049" lon="-102.3777935821314"><ele>1850.0</ele><time>2026-03-22T16:33:32.817Z</time></trkpt><trkpt lat="21.82138409393608" lon="-102.37776848756775"><ele>1850.0</ele><time>2026-03-22T16:33:33.817Z</time></trkpt><trkpt lat="21.821476148199505" lon="-102.37774318565234"><ele>1850.0</ele><time>2026-03-22T16:33:34.817Z</time></trkpt><trkpt lat="21.82157799404532" lon="-102.37771308888743"><ele>1850.0</ele><time>2026-03-22T16:33:35.817Z</time></trkpt><trkpt lat="21.821660857772475" lon="-102.3776936858218"><ele>1850.0</ele><time>2026-03-22T16:33:36.816Z</time></trkpt><trkpt lat="21.82174565685111" lon="-102.37767918619322"><ele>1850.4999999999998</ele><time>2026-03-22T16:33:37.816Z</time></trkpt><trkpt lat="21.82183607278671" lon="-102.37766606476741"><ele>1851.0</ele><time>2026-03-22T16:33:38.816Z</time></trkpt><trkpt lat="21.821917595361207" lon="-102.3776508774768"><ele>1851.5</ele><time>2026-03-22T16:33:39.816Z</time></trkpt><trkpt lat="21.821999149622773" lon="-102.3776413243883"><ele>1852.0</ele><time>2026-03-22T16:33:40.816Z</time></trkpt><trkpt lat="21.822086680626313" lon="-102.37763201782252"><ele>1852.4999999999998</ele><time>2026-03-22T16:33:41.816Z</time></trkpt><trkpt lat="21.82218162383712" lon="-102.37762483366903"><ele>1853.0</ele><time>2026-03-22T16:33:42.816Z</time></trkpt><trkpt lat="21.822273269333675" lon="-102.37761869698753"><ele>1853.0</ele><time>2026-03-22T16:33:43.816Z</time></trkpt><trkpt lat="21.822360564279226" lon="-102.37760356765372"><ele>1853.0000000000002</ele><time>2026-03-22T16:33:44.816Z</time></trkpt><trkpt lat="21.82245683450676" lon="-102.37759581536584"><ele>1853.0000000000002</ele><time>2026-03-22T16:33:45.816Z</time></trkpt><trkpt lat="21.822553621012492" lon="-102.37759083574578"><ele>1853.0</ele><time>2026-03-22T16:33:46.816Z</time></trkpt><trkpt lat="21.82264874870235" lon="-102.37758186220081"><ele>1853.0</ele><time>2026-03-22T16:33:47.816Z</time></trkpt><trkpt lat="21.822741794251417" lon="-102.37756949330848"><ele>1853.0</ele><time>2026-03-22T16:33:48.816Z</time></trkpt><trkpt lat="21.822833204399224" lon="-102.37755870474409"><ele>1853.0000000000002</ele><time>2026-03-22T16:33:49.816Z</time></trkpt><trkpt lat="21.82292908878158" lon="-102.37755202758959"><ele>1853.0000000000002</ele><time>2026-03-22T16:33:50.816Z</time></trkpt><trkpt lat="21.82301343993192" lon="-102.3775408413801"><ele>1853.0</ele><time>2026-03-22T16:33:51.816Z</time></trkpt><trkpt lat="21.823108174651388" lon="-102.37753236153954"><ele>1853.0</ele><time>2026-03-22T16:33:52.816Z</time></trkpt><trkpt lat="21.82319121450505" lon="-102.37752458288713"><ele>1853.0</ele><time>2026-03-22T16:33:53.816Z</time></trkpt><trkpt lat="21.823284449161" lon="-102.37752382204303"><ele>1853.0000000000002</ele><time>2026-03-22T16:33:54.816Z</time></trkpt><trkpt lat="21.82337482650685" lon="-102.37752218294686"><ele>1853.0000000000002</ele><time>2026-03-22T16:33:55.816Z</time></trkpt><trkpt lat="21.82347141222126" lon="-102.37751050176301"><ele>1853.0</ele><time>2026-03-22T16:33:56.816Z</time></trkpt><trkpt lat="21.823569006259156" lon="-102.37749428402034"><ele>1853.0</ele><time>2026-03-22T16:33:57.816Z</time></trkpt><trkpt lat="21.823668912241963" lon="-102.3774881702414"><ele>1851.75</ele><time>2026-03-22T16:33:58.816Z</time></trkpt><trkpt lat="21.823776086603925" lon="-102.37747908538566"><ele>1850.5</ele><time>2026-03-22T16:33:59.816Z</time></trkpt><trkpt lat="21.823890005956663" lon="-102.37746494549201"><ele>1849.25</ele><time>2026-03-22T16:34:00.816Z</time></trkpt><trkpt lat="21.824013383987175" lon="-102.37745479230786"><ele>1848.0</ele><time>2026-03-22T16:34:01.816Z</time></trkpt><trkpt lat="21.824140570524243" lon="-102.37744351181257"><ele>1848.0</ele><time>2026-03-22T16:34:02.816Z</time></trkpt><trkpt lat="21.824266686970805" lon="-102.37742888139941"><ele>1848.0</ele><time>2026-03-22T16:34:03.816Z</time></trkpt><trkpt lat="21.824402090017113" lon="-102.37741428170628"><ele>1848.0</ele><time>2026-03-22T16:34:04.816Z</time></trkpt><trkpt lat="21.824541483861033" lon="-102.37740200308357"><ele>1848.0</ele><time>2026-03-22T16:34:05.816Z</time></trkpt><trkpt lat="21.82468292921034" lon="-102.377387768938"><ele>1847.0</ele><time>2026-03-22T16:34:06.816Z</time></trkpt><trkpt lat="21.824827886123728" lon="-102.37737427553515"><ele>1846.0</ele><time>2026-03-22T16:34:07.816Z</time></trkpt><trkpt lat="21.82497475927325" lon="-102.37736095782046"><ele>1845.0</ele><time>2026-03-22T16:34:08.816Z</time></trkpt><trkpt lat="21.825118512660794" lon="-102.37734861666263"><ele>1844.0</ele><time>2026-03-22T16:34:09.816Z</time></trkpt><trkpt lat="21.825259183746315" lon="-102.37733474144251"><ele>1844.0</ele><time>2026-03-22T16:34:10.816Z</time></trkpt><trkpt lat="21.825401447104152" lon="-102.37732435454895"><ele>1844.0</ele><time>2026-03-22T16:34:11.815Z</time></trkpt><trkpt lat="21.825535122427905" lon="-102.37731248453233"><ele>1844.0</ele><time>2026-03-22T16:34:12.815Z</time></trkpt><trkpt lat="21.825662250844513" lon="-102.37730201690077"><ele>1844.0</ele><time>2026-03-22T16:34:13.815Z</time></trkpt><trkpt lat="21.825789906631993" lon="-102.37729035286631"><ele>1844.0</ele><time>2026-03-22T16:34:14.815Z</time></trkpt><trkpt lat="21.825907117090747" lon="-102.37727804353693"><ele>1844.0</ele><time>2026-03-22T16:34:15.815Z</time></trkpt><trkpt lat="21.82601737301665" lon="-102.37727344611528"><ele>1844.0</ele><time>2026-03-22T16:34:16.815Z</time></trkpt><trkpt lat="21.82611759081643" lon="-102.37726599183443"><ele>1844.0</ele><time>2026-03-22T16:34:17.815Z</time></trkpt><trkpt lat="21.826211097282116" lon="-102.37726191546308"><ele>1844.0</ele><time>2026-03-22T16:34:18.815Z</time></trkpt><trkpt lat="21.826303546350243" lon="-102.37724703875179"><ele>1844.4999999999998</ele><time>2026-03-22T16:34:19.815Z</time></trkpt><trkpt lat="21.826389030731907" lon="-102.37723617952052"><ele>1845.0</ele><time>2026-03-22T16:34:20.815Z</time></trkpt><trkpt lat="21.826470891756276" lon="-102.37723067475919"><ele>1845.5</ele><time>2026-03-22T16:34:21.815Z</time></trkpt><trkpt lat="21.826549141388462" lon="-102.37722033147652"><ele>1846.0</ele><time>2026-03-22T16:34:22.815Z</time></trkpt><trkpt lat="21.826627140097376" lon="-102.3772157011398"><ele>1846.4999999999998</ele><time>2026-03-22T16:34:23.815Z</time></trkpt><trkpt lat="21.826704282100273" lon="-102.37721019755882"><ele>1847.0</ele><time>2026-03-22T16:34:24.815Z</time></trkpt><trkpt lat="21.826778260160463" lon="-102.37720056221535"><ele>1847.7142857142853</ele><time>2026-03-22T16:34:25.815Z</time></trkpt><trkpt lat="21.82685267815175" lon="-102.37719349678488"><ele>1848.4285714285713</ele><time>2026-03-22T16:34:26.815Z</time></trkpt><trkpt lat="21.826925556718066" lon="-102.37718619819067"><ele>1849.1428571428569</ele><time>2026-03-22T16:34:27.815Z</time></trkpt><trkpt lat="21.826994807505702" lon="-102.3771820727967"><ele>1849.8571428571427</ele><time>2026-03-22T16:34:28.815Z</time></trkpt><trkpt lat="21.82706688122109" lon="-102.37717145766561"><ele>1850.5714285714284</ele><time>2026-03-22T16:34:29.815Z</time></trkpt><trkpt lat="21.82713676564286" lon="-102.37716363046552"><ele>1851.2857142857142</ele><time>2026-03-22T16:34:30.815Z</time></trkpt><trkpt lat="21.827205478125315" lon="-102.37715733653019"><ele>1852.0</ele><time>2026-03-22T16:34:31.815Z</time></trkpt><trkpt lat="21.827273320424016" lon="-102.37714963482314"><ele>1852.142857142857</ele><time>2026-03-22T16:34:32.815Z</time></trkpt><trkpt lat="21.82734606082498" lon="-102.37714659942739"><ele>1852.2857142857142</ele><time>2026-03-22T16:34:33.815Z</time></trkpt><trkpt lat="21.82741442783152" lon="-102.37714015152577"><ele>1852.4285714285713</ele><time>2026-03-22T16:34:34.815Z</time></trkpt><trkpt lat="21.82748405658123" lon="-102.37713246928541"><ele>1852.5714285714284</ele><time>2026-03-22T16:34:35.815Z</time></trkpt><trkpt lat="21.827553462085646" lon="-102.37712122598424"><ele>1852.7142857142858</ele><time>2026-03-22T16:34:36.815Z</time></trkpt><trkpt lat="21.82762097452143" lon="-102.37711286945215"><ele>1852.8571428571427</ele><time>2026-03-22T16:34:37.815Z</time></trkpt><trkpt lat="21.827684324585015" lon="-102.37710380119108"><ele>1853.0</ele><time>2026-03-22T16:34:38.815Z</time></trkpt><trkpt lat="21.827753896218283" lon="-102.3770992384693"><ele>1853.4285714285713</ele><time>2026-03-22T16:34:39.815Z</time></trkpt><trkpt lat="21.827823313900378" lon="-102.37709039665022"><ele>1853.8571428571431</ele><time>2026-03-22T16:34:40.815Z</time></trkpt><trkpt lat="21.827892061123464" lon="-102.3770837482669"><ele>1854.2857142857144</ele><time>2026-03-22T16:34:41.815Z</time></trkpt><trkpt lat="21.82796427062483" lon="-102.37707580823587"><ele>1854.7142857142858</ele><time>2026-03-22T16:34:42.815Z</time></trkpt><trkpt lat="21.828030280466667" lon="-102.37706324714524"><ele>1855.1428571428573</ele><time>2026-03-22T16:34:43.815Z</time></trkpt><trkpt lat="21.82810367229621" lon="-102.37706048087959"><ele>1855.571428571429</ele><time>2026-03-22T16:34:44.815Z</time></trkpt><trkpt lat="21.828170353625925" lon="-102.37704889708158"><ele>1856.0000000000002</ele><time>2026-03-22T16:34:45.815Z</time></trkpt><trkpt lat="21.828241623521574" lon="-102.37704766097505"><ele>1856.0000000000002</ele><time>2026-03-22T16:34:46.815Z</time></trkpt><trkpt lat="21.828312088693387" lon="-102.37704013706102"><ele>1856.0</ele><time>2026-03-22T16:34:47.814Z</time></trkpt><trkpt lat="21.82837905213225" lon="-102.37703680848894"><ele>1856.0000000000002</ele><time>2026-03-22T16:34:48.814Z</time></trkpt><trkpt lat="21.828452489058474" lon="-102.37703110447644"><ele>1856.0000000000002</ele><time>2026-03-22T16:34:49.814Z</time></trkpt><trkpt lat="21.82852002086671" lon="-102.37701929261056"><ele>1856.0</ele><time>2026-03-22T16:34:50.814Z</time></trkpt><trkpt lat="21.828603249506386" lon="-102.37701812174399"><ele>1856.0000000000002</ele><time>2026-03-22T16:34:51.814Z</time></trkpt><trkpt lat="21.828675336835317" lon="-102.3770121241524"><ele>1856.0000000000002</ele><time>2026-03-22T16:34:52.814Z</time></trkpt><trkpt lat="21.828749533323737" lon="-102.37700931508934"><ele>1856.1428571428573</ele><time>2026-03-22T16:34:53.814Z</time></trkpt><trkpt lat="21.828829920717137" lon="-102.37699664613702"><ele>1856.2857142857142</ele><time>2026-03-22T16:34:54.814Z</time></trkpt><trkpt lat="21.82890307484896" lon="-102.37699026011956"><ele>1856.4285714285716</ele><time>2026-03-22T16:34:55.814Z</time></trkpt><trkpt lat="21.828971155442677" lon="-102.37698130943804"><ele>1856.5714285714287</ele><time>2026-03-22T16:34:56.814Z</time></trkpt><trkpt lat="21.82904408674533" lon="-102.37697669121258"><ele>1856.7142857142858</ele><time>2026-03-22T16:34:57.814Z</time></trkpt><trkpt lat="21.829117416519345" lon="-102.37697393889087"><ele>1856.857142857143</ele><time>2026-03-22T16:34:58.814Z</time></trkpt><trkpt lat="21.829193216999826" lon="-102.37697200868034"><ele>1857.0</ele><time>2026-03-22T16:34:59.814Z</time></trkpt><trkpt lat="21.82926733644676" lon="-102.37696439130653"><ele>1857.2857142857142</ele><time>2026-03-22T16:35:00.814Z</time></trkpt><trkpt lat="21.82933999170107" lon="-102.37696242584127"><ele>1857.5714285714284</ele><time>2026-03-22T16:35:01.814Z</time></trkpt><trkpt lat="21.829415763179284" lon="-102.37695294900148"><ele>1857.8571428571427</ele><time>2026-03-22T16:35:02.814Z</time></trkpt><trkpt lat="21.82948598406342" lon="-102.37694596678605"><ele>1858.142857142857</ele><time>2026-03-22T16:35:03.814Z</time></trkpt><trkpt lat="21.82956266745823" lon="-102.37694035698163"><ele>1858.428571428571</ele><time>2026-03-22T16:35:04.814Z</time></trkpt><trkpt lat="21.829634095186613" lon="-102.37694005864176"><ele>1858.7142857142856</ele><time>2026-03-22T16:35:05.814Z</time></trkpt><trkpt lat="21.829703996174512" lon="-102.37693538944438"><ele>1859.0</ele><time>2026-03-22T16:35:06.814Z</time></trkpt><trkpt lat="21.829768785534274" lon="-102.3769249675726"><ele>1859.0</ele><time>2026-03-22T16:35:07.814Z</time></trkpt><trkpt lat="21.829840778645206" lon="-102.37691987119277"><ele>1858.9999999999998</ele><time>2026-03-22T16:35:08.814Z</time></trkpt><trkpt lat="21.829906680610048" lon="-102.37690977241556"><ele>1859.0</ele><time>2026-03-22T16:35:09.814Z</time></trkpt><trkpt lat="21.82997344037323" lon="-102.37690329207841"><ele>1859.0</ele><time>2026-03-22T16:35:10.814Z</time></trkpt><trkpt lat="21.83004225194043" lon="-102.37690046377357"><ele>1858.9999999999998</ele><time>2026-03-22T16:35:11.814Z</time></trkpt><trkpt lat="21.830111078310765" lon="-102.37689516159783"><ele>1859.0</ele><time>2026-03-22T16:35:12.814Z</time></trkpt><trkpt lat="21.830178300587868" lon="-102.3768886998714"><ele>1859.0</ele><time>2026-03-22T16:35:13.814Z</time></trkpt><trkpt lat="21.830242317981593" lon="-102.37687751801421"><ele>1859.1666666666665</ele><time>2026-03-22T16:35:14.814Z</time></trkpt><trkpt lat="21.830310352030818" lon="-102.3768762260522"><ele>1859.3333333333333</ele><time>2026-03-22T16:35:15.814Z</time></trkpt><trkpt lat="21.83038731437875" lon="-102.37687106208945"><ele>1859.5</ele><time>2026-03-22T16:35:16.814Z</time></trkpt><trkpt lat="21.83045476689628" lon="-102.3768645221753"><ele>1859.6666666666665</ele><time>2026-03-22T16:35:17.815Z</time></trkpt><trkpt lat="21.830583865987716" lon="-102.37685288700278"><ele>1859.8333333333333</ele><time>2026-03-22T16:35:19.815Z</time></trkpt><trkpt lat="21.83064830729886" lon="-102.37684770737668"><ele>1860.0</ele><time>2026-03-22T16:35:20.815Z</time></trkpt><trkpt lat="21.830717042030646" lon="-102.37683846842066"><ele>1860.0</ele><time>2026-03-22T16:35:21.815Z</time></trkpt><trkpt lat="21.830790463661454" lon="-102.37682971511903"><ele>1860.0</ele><time>2026-03-22T16:35:22.815Z</time></trkpt><trkpt lat="21.830864759164395" lon="-102.37682704007193"><ele>1860.0</ele><time>2026-03-22T16:35:23.815Z</time></trkpt><trkpt lat="21.830935099175413" lon="-102.37682077967786"><ele>1860.0</ele><time>2026-03-22T16:35:24.815Z</time></trkpt><trkpt lat="21.831013084193867" lon="-102.37681378171261"><ele>1860.0</ele><time>2026-03-22T16:35:25.815Z</time></trkpt><trkpt lat="21.831095956596446" lon="-102.37681514854349"><ele>1860.0</ele><time>2026-03-22T16:35:26.815Z</time></trkpt><trkpt lat="21.831174207374634" lon="-102.37679716432015"><ele>1860.3333333333333</ele><time>2026-03-22T16:35:27.815Z</time></trkpt><trkpt lat="21.83125511371647" lon="-102.3767946629777"><ele>1860.6666666666665</ele><time>2026-03-22T16:35:28.815Z</time></trkpt><trkpt lat="21.831345823082565" lon="-102.37678916204474"><ele>1861.0</ele><time>2026-03-22T16:35:29.815Z</time></trkpt><trkpt lat="21.83141232153876" lon="-102.37678464965889"><ele>1861.3333333333333</ele><time>2026-03-22T16:35:30.815Z</time></trkpt><trkpt lat="21.83149604025922" lon="-102.37677451663043"><ele>1861.6666666666665</ele><time>2026-03-22T16:35:31.815Z</time></trkpt><trkpt lat="21.831576205753056" lon="-102.37676898835278"><ele>1862.0</ele><time>2026-03-22T16:35:32.815Z</time></trkpt><trkpt lat="21.831666033705588" lon="-102.3767577759588"><ele>1861.9999999999998</ele><time>2026-03-22T16:35:33.815Z</time></trkpt><trkpt lat="21.831749343273593" lon="-102.37675090384"><ele>1862.0</ele><time>2026-03-22T16:35:34.815Z</time></trkpt><trkpt lat="21.831831325641517" lon="-102.37674325667494"><ele>1862.0</ele><time>2026-03-22T16:35:35.815Z</time></trkpt><trkpt lat="21.831915640855275" lon="-102.37673776861"><ele>1862.0</ele><time>2026-03-22T16:35:36.815Z</time></trkpt><trkpt lat="21.83200619088288" lon="-102.376727724404"><ele>1861.9999999999998</ele><time>2026-03-22T16:35:37.815Z</time></trkpt><trkpt lat="21.832099821528896" lon="-102.37671899927454"><ele>1862.0</ele><time>2026-03-22T16:35:38.815Z</time></trkpt><trkpt lat="21.83218802820796" lon="-102.37671001661633"><ele>1862.0</ele><time>2026-03-22T16:35:39.815Z</time></trkpt><trkpt lat="21.83227415191017" lon="-102.37669679901468"><ele>1861.9999999999998</ele><time>2026-03-22T16:35:40.815Z</time></trkpt><trkpt lat="21.832374973616613" lon="-102.37669650920016"><ele>1861.9999999999998</ele><time>2026-03-22T16:35:41.814Z</time></trkpt><trkpt lat="21.83245842624514" lon="-102.37668681458665"><ele>1862.0</ele><time>2026-03-22T16:35:42.814Z</time></trkpt><trkpt lat="21.83256401230479" lon="-102.37668331142305"><ele>1862.0</ele><time>2026-03-22T16:35:43.814Z</time></trkpt><trkpt lat="21.83265105997917" lon="-102.3766730673273"><ele>1862.1999999999998</ele><time>2026-03-22T16:35:44.814Z</time></trkpt><trkpt lat="21.832740850966317" lon="-102.37665728276724"><ele>1862.3999999999999</ele><time>2026-03-22T16:35:45.814Z</time></trkpt><trkpt lat="21.832837429270615" lon="-102.37665121621207"><ele>1862.6000000000001</ele><time>2026-03-22T16:35:46.814Z</time></trkpt><trkpt lat="21.83293188465774" lon="-102.37664377538687"><ele>1862.8000000000002</ele><time>2026-03-22T16:35:47.814Z</time></trkpt><trkpt lat="21.833026755472766" lon="-102.37664154169637"><ele>1863.0</ele><time>2026-03-22T16:35:48.814Z</time></trkpt><trkpt lat="21.833114598741773" lon="-102.37663370153335"><ele>1863.0</ele><time>2026-03-22T16:35:49.814Z</time></trkpt><trkpt lat="21.833213654366215" lon="-102.37662131260737"><ele>1863.0000000000002</ele><time>2026-03-22T16:35:50.814Z</time></trkpt><trkpt lat="21.8333064663047" lon="-102.37661103834067"><ele>1863.0000000000002</ele><time>2026-03-22T16:35:51.814Z</time></trkpt><trkpt lat="21.833405831058595" lon="-102.37660079006707"><ele>1863.0</ele><time>2026-03-22T16:35:52.814Z</time></trkpt><trkpt lat="21.83350395589342" lon="-102.37659134732368"><ele>1863.0</ele><time>2026-03-22T16:35:53.814Z</time></trkpt><trkpt lat="21.833602887396648" lon="-102.37657988517635"><ele>1863.2</ele><time>2026-03-22T16:35:54.814Z</time></trkpt><trkpt lat="21.83369701006296" lon="-102.37657495042635"><ele>1863.4</ele><time>2026-03-22T16:35:55.814Z</time></trkpt><trkpt lat="21.833797869136642" lon="-102.37656835372596"><ele>1863.6000000000001</ele><time>2026-03-22T16:35:56.814Z</time></trkpt><trkpt lat="21.833884179283647" lon="-102.3765634692359"><ele>1863.8000000000002</ele><time>2026-03-22T16:35:57.814Z</time></trkpt><trkpt lat="21.83398508785201" lon="-102.37655446749247"><ele>1864.0</ele><time>2026-03-22T16:35:58.814Z</time></trkpt><trkpt lat="21.834081963660505" lon="-102.37654464470752"><ele>1864.0</ele><time>2026-03-22T16:35:59.814Z</time></trkpt><trkpt lat="21.834184012025847" lon="-102.37653730071092"><ele>1864.0</ele><time>2026-03-22T16:36:00.814Z</time></trkpt><trkpt lat="21.834278451155935" lon="-102.37652333516189"><ele>1864.0</ele><time>2026-03-22T16:36:01.814Z</time></trkpt><trkpt lat="21.834366845482272" lon="-102.37651780800903"><ele>1864.0</ele><time>2026-03-22T16:36:02.814Z</time></trkpt><trkpt lat="21.834460597612388" lon="-102.37651414371649"><ele>1864.0</ele><time>2026-03-22T16:36:03.814Z</time></trkpt><trkpt lat="21.834547515529973" lon="-102.37650861365758"><ele>1864.2</ele><time>2026-03-22T16:36:04.814Z</time></trkpt><trkpt lat="21.834640006180102" lon="-102.37650126101362"><ele>1864.4</ele><time>2026-03-22T16:36:05.814Z</time></trkpt><trkpt lat="21.834731313294316" lon="-102.37649672621372"><ele>1864.6</ele><time>2026-03-22T16:36:06.814Z</time></trkpt><trkpt lat="21.834817992051022" lon="-102.37649050213562"><ele>1864.8</ele><time>2026-03-22T16:36:07.814Z</time></trkpt><trkpt lat="21.834905253049257" lon="-102.37647782021756"><ele>1865.0</ele><time>2026-03-22T16:36:08.814Z</time></trkpt><trkpt lat="21.835004651205047" lon="-102.37647346961175"><ele>1865.0</ele><time>2026-03-22T16:36:09.814Z</time></trkpt><trkpt lat="21.835096588273068" lon="-102.37646317535253"><ele>1865.0</ele><time>2026-03-22T16:36:10.814Z</time></trkpt><trkpt lat="21.83518833031538" lon="-102.37645610297085"><ele>1865.0</ele><time>2026-03-22T16:36:11.814Z</time></trkpt><trkpt lat="21.835281414873883" lon="-102.3764543358434"><ele>1865.0</ele><time>2026-03-22T16:36:12.814Z</time></trkpt><trkpt lat="21.83536832901658" lon="-102.37643724897528"><ele>1865.0</ele><time>2026-03-22T16:36:13.814Z</time></trkpt><trkpt lat="21.83546201669604" lon="-102.37642481440042"><ele>1865.1666666666665</ele><time>2026-03-22T16:36:14.814Z</time></trkpt><trkpt lat="21.835543160106546" lon="-102.37641952815636"><ele>1865.3333333333333</ele><time>2026-03-22T16:36:15.814Z</time></trkpt><trkpt lat="21.835630617491265" lon="-102.37641237578126"><ele>1865.5</ele><time>2026-03-22T16:36:16.813Z</time></trkpt><trkpt lat="21.835710282455892" lon="-102.37640519896468"><ele>1865.6666666666665</ele><time>2026-03-22T16:36:17.813Z</time></trkpt><trkpt lat="21.835792981346444" lon="-102.37639662109852"><ele>1865.8333333333333</ele><time>2026-03-22T16:36:18.813Z</time></trkpt><trkpt lat="21.83586495595325" lon="-102.37638854214104"><ele>1866.0</ele><time>2026-03-22T16:36:19.813Z</time></trkpt><trkpt lat="21.835941704207695" lon="-102.376381249579"><ele>1866.2857142857142</ele><time>2026-03-22T16:36:20.813Z</time></trkpt><trkpt lat="21.836015545702182" lon="-102.37637758461945"><ele>1866.5714285714284</ele><time>2026-03-22T16:36:21.813Z</time></trkpt><trkpt lat="21.836088517276306" lon="-102.37637005041329"><ele>1866.8571428571427</ele><time>2026-03-22T16:36:22.813Z</time></trkpt><trkpt lat="21.83616892507072" lon="-102.37636073552005"><ele>1867.1428571428569</ele><time>2026-03-22T16:36:23.813Z</time></trkpt><trkpt lat="21.836237688740912" lon="-102.3763538329691"><ele>1867.4285714285713</ele><time>2026-03-22T16:36:24.813Z</time></trkpt><trkpt lat="21.836308148213085" lon="-102.37635003232106"><ele>1867.7142857142853</ele><time>2026-03-22T16:36:25.813Z</time></trkpt><trkpt lat="21.836374151843728" lon="-102.37634195659501"><ele>1867.9999999999998</ele><time>2026-03-22T16:36:26.813Z</time></trkpt><trkpt lat="21.836443080800308" lon="-102.37633707703516"><ele>1867.9999999999998</ele><time>2026-03-22T16:36:27.813Z</time></trkpt><trkpt lat="21.836506383647478" lon="-102.3763315742489"><ele>1868.0</ele><time>2026-03-22T16:36:28.813Z</time></trkpt><trkpt lat="21.83657888043598" lon="-102.37632514803732"><ele>1868.0</ele><time>2026-03-22T16:36:29.813Z</time></trkpt><trkpt lat="21.83664195210387" lon="-102.37632227508901"><ele>1868.0</ele><time>2026-03-22T16:36:30.813Z</time></trkpt><trkpt lat="21.83670972215637" lon="-102.37631449065213"><ele>1867.9999999999998</ele><time>2026-03-22T16:36:31.813Z</time></trkpt><trkpt lat="21.836839222639536" lon="-102.37630326777153"><ele>1868.0</ele><time>2026-03-22T16:36:33.813Z</time></trkpt><trkpt lat="21.836962669070534" lon="-102.37628987038086"><ele>1869.6000000000001</ele><time>2026-03-22T16:36:35.813Z</time></trkpt><trkpt lat="21.837026487019077" lon="-102.3762868887419"><ele>1871.2000000000003</ele><time>2026-03-22T16:36:36.813Z</time></trkpt><trkpt lat="21.83715810105746" lon="-102.37628274928701"><ele>1872.8</ele><time>2026-03-22T16:36:38.813Z</time></trkpt><trkpt lat="21.83727704315552" lon="-102.37627032867391"><ele>1874.4</ele><time>2026-03-22T16:36:40.813Z</time></trkpt><trkpt lat="21.837391175452083" lon="-102.37625854070332"><ele>1876.0</ele><time>2026-03-22T16:36:42.813Z</time></trkpt><trkpt lat="21.837494887858487" lon="-102.37624901718817"><ele>1876.0</ele><time>2026-03-22T16:36:44.813Z</time></trkpt><trkpt lat="21.837557578354513" lon="-102.376240342672"><ele>1876.0</ele><time>2026-03-22T16:36:45.813Z</time></trkpt><trkpt lat="21.837670242586718" lon="-102.37623613799796"><ele>1876.0</ele><time>2026-03-22T16:36:47.813Z</time></trkpt><trkpt lat="21.837770818945746" lon="-102.37621778277828"><ele>1876.0</ele><time>2026-03-22T16:36:49.813Z</time></trkpt><trkpt lat="21.837872131553432" lon="-102.37621207682623"><ele>1876.0</ele><time>2026-03-22T16:36:51.812Z</time></trkpt><trkpt lat="21.837991153378773" lon="-102.37620534209248"><ele>1877.1999999999998</ele><time>2026-03-22T16:36:53.812Z</time></trkpt><trkpt lat="21.838087080045405" lon="-102.37619528584547"><ele>1878.3999999999999</ele><time>2026-03-22T16:36:55.812Z</time></trkpt><trkpt lat="21.83820166977195" lon="-102.37617844611893"><ele>1879.6</ele><time>2026-03-22T16:36:57.812Z</time></trkpt><trkpt lat="21.83826758906637" lon="-102.37617081934114"><ele>1880.8</ele><time>2026-03-22T16:36:58.812Z</time></trkpt><trkpt lat="21.838378211713092" lon="-102.37616343762669"><ele>1882.0</ele><time>2026-03-22T16:37:00.812Z</time></trkpt><trkpt lat="21.838469675265774" lon="-102.3761586270782"><ele>1883.3999999999999</ele><time>2026-03-22T16:37:02.812Z</time></trkpt><trkpt lat="21.838539154391643" lon="-102.37614785669079"><ele>1884.7999999999997</ele><time>2026-03-22T16:37:03.812Z</time></trkpt><trkpt lat="21.838645826456304" lon="-102.37614156644909"><ele>1886.2</ele><time>2026-03-22T16:37:05.812Z</time></trkpt><trkpt lat="21.838749122636486" lon="-102.37613903497667"><ele>1887.6</ele><time>2026-03-22T16:37:07.812Z</time></trkpt><trkpt lat="21.83885181656007" lon="-102.37612854255663"><ele>1889.0</ele><time>2026-03-22T16:37:09.812Z</time></trkpt><trkpt lat="21.838921252954272" lon="-102.3761258500536"><ele>1889.0</ele><time>2026-03-22T16:37:10.812Z</time></trkpt><trkpt lat="21.839031636603053" lon="-102.37611525399673"><ele>1889.0</ele><time>2026-03-22T16:37:12.812Z</time></trkpt><trkpt lat="21.839135352800273" lon="-102.37610438189873"><ele>1889.0</ele><time>2026-03-22T16:37:14.812Z</time></trkpt><trkpt lat="21.839247643878732" lon="-102.37609805398387"><ele>1889.0</ele><time>2026-03-22T16:37:16.812Z</time></trkpt><trkpt lat="21.83934862323621" lon="-102.3760834667628"><ele>1889.0</ele><time>2026-03-22T16:37:18.812Z</time></trkpt><trkpt lat="21.839448085812563" lon="-102.37607731739396"><ele>1889.6666666666665</ele><time>2026-03-22T16:37:20.812Z</time></trkpt><trkpt lat="21.839545622972217" lon="-102.3760657408069"><ele>1890.3333333333333</ele><time>2026-03-22T16:37:22.812Z</time></trkpt><trkpt lat="21.839631777155947" lon="-102.37605282693718"><ele>1891.0</ele><time>2026-03-22T16:37:24.813Z</time></trkpt><trkpt lat="21.83971694102903" lon="-102.37603882225199"><ele>1891.6666666666665</ele><time>2026-03-22T16:37:26.813Z</time></trkpt><trkpt lat="21.83980731302343" lon="-102.37603959787916"><ele>1892.3333333333333</ele><time>2026-03-22T16:37:28.813Z</time></trkpt><trkpt lat="21.839868960413167" lon="-102.37602471725369"><ele>1893.0</ele><time>2026-03-22T16:37:30.813Z</time></trkpt><trkpt lat="21.83994015529216" lon="-102.37601619429263"><ele>1893.0</ele><time>2026-03-22T16:37:32.812Z</time></trkpt><trkpt lat="21.840010012199553" lon="-102.37598958786467"><ele>1893.0000000000002</ele><time>2026-03-22T16:37:34.812Z</time></trkpt><trkpt lat="21.840092219094053" lon="-102.37599183215569"><ele>1893.0</ele><time>2026-03-22T16:37:36.813Z</time></trkpt><trkpt lat="21.840160836874055" lon="-102.37598449048444"><ele>1893.0</ele><time>2026-03-22T16:37:38.813Z</time></trkpt><trkpt lat="21.84025212803784" lon="-102.37597346725427"><ele>1893.0000000000002</ele><time>2026-03-22T16:37:41.813Z</time></trkpt><trkpt lat="21.840308018449168" lon="-102.37594172487533"><ele>1893.0</ele><time>2026-03-22T16:38:42.811Z</time></trkpt><trkpt lat="21.84037354595964" lon="-102.3759509615076"><ele>1893.0</ele><time>2026-03-22T16:39:39.81Z</time></trkpt><trkpt lat="21.840465579380073" lon="-102.3759436036485"><ele>1893.0</ele><time>2026-03-22T16:39:43.809Z</time></trkpt><trkpt lat="21.840548292765735" lon="-102.37593621097423"><ele>1893.0</ele><time>2026-03-22T16:39:45.809Z</time></trkpt><trkpt lat="21.840645048994013" lon="-102.37592328527333"><ele>1893.0</ele><time>2026-03-22T16:39:47.809Z</time></trkpt><trkpt lat="21.840751771495263" lon="-102.37591110065159"><ele>1893.0</ele><time>2026-03-22T16:39:49.809Z</time></trkpt><trkpt lat="21.84081694713335" lon="-102.37590487463888"><ele>1893.0</ele><time>2026-03-22T16:39:50.809Z</time></trkpt><trkpt lat="21.840884005623987" lon="-102.3758965086201"><ele>1893.0</ele><time>2026-03-22T16:39:51.809Z</time></trkpt><trkpt lat="21.840950849269664" lon="-102.37589306534282"><ele>1893.0</ele><time>2026-03-22T16:39:52.809Z</time></trkpt><trkpt lat="21.841026777265597" lon="-102.37588301992449"><ele>1893.0</ele><time>2026-03-22T16:39:53.809Z</time></trkpt><trkpt lat="21.84110329984023" lon="-102.37586886049728"><ele>1893.0</ele><time>2026-03-22T16:39:54.809Z</time></trkpt><trkpt lat="21.84118712294778" lon="-102.37584991128018"><ele>1893.0</ele><time>2026-03-22T16:39:55.809Z</time></trkpt><trkpt lat="21.8412726070252" lon="-102.37584018171637"><ele>1893.0</ele><time>2026-03-22T16:39:56.809Z</time></trkpt><trkpt lat="21.841363698464612" lon="-102.37582553474363"><ele>1893.0</ele><time>2026-03-22T16:39:57.809Z</time></trkpt><trkpt lat="21.84145519339551" lon="-102.37581008111114"><ele>1893.0</ele><time>2026-03-22T16:39:58.809Z</time></trkpt><trkpt lat="21.841549499672308" lon="-102.37579096124134"><ele>1893.0000000000002</ele><time>2026-03-22T16:39:59.809Z</time></trkpt><trkpt lat="21.841641784859345" lon="-102.37577648967172"><ele>1893.0000000000002</ele><time>2026-03-22T16:40:00.809Z</time></trkpt><trkpt lat="21.84173887861778" lon="-102.37575816978001"><ele>1893.0</ele><time>2026-03-22T16:40:01.809Z</time></trkpt><trkpt lat="21.84183578685078" lon="-102.3757411272991"><ele>1893.0</ele><time>2026-03-22T16:40:02.809Z</time></trkpt><trkpt lat="21.841932294519033" lon="-102.37572063891713"><ele>1892.2</ele><time>2026-03-22T16:40:03.809Z</time></trkpt><trkpt lat="21.842035950551505" lon="-102.3757021419833"><ele>1891.4</ele><time>2026-03-22T16:40:04.809Z</time></trkpt><trkpt lat="21.84214094773554" lon="-102.37569093303671"><ele>1890.6000000000001</ele><time>2026-03-22T16:40:05.809Z</time></trkpt><trkpt lat="21.84224945656287" lon="-102.3756654142626"><ele>1889.8000000000002</ele><time>2026-03-22T16:40:06.809Z</time></trkpt><trkpt lat="21.84235241664165" lon="-102.3756531037474"><ele>1889.0</ele><time>2026-03-22T16:40:07.809Z</time></trkpt><trkpt lat="21.842464708849626" lon="-102.37563373708915"><ele>1889.0</ele><time>2026-03-22T16:40:08.809Z</time></trkpt><trkpt lat="21.842577320550355" lon="-102.37561159716772"><ele>1889.0</ele><time>2026-03-22T16:40:09.808Z</time></trkpt><trkpt lat="21.842688343149753" lon="-102.3755866500144"><ele>1889.0</ele><time>2026-03-22T16:40:10.808Z</time></trkpt><trkpt lat="21.84280785821213" lon="-102.37556682990007"><ele>1889.0</ele><time>2026-03-22T16:40:11.808Z</time></trkpt><trkpt lat="21.84292236898463" lon="-102.37555169388915"><ele>1888.25</ele><time>2026-03-22T16:40:12.808Z</time></trkpt><trkpt lat="21.84304093874978" lon="-102.37552272594078"><ele>1887.5</ele><time>2026-03-22T16:40:13.808Z</time></trkpt><trkpt lat="21.84316456834283" lon="-102.37550172818749"><ele>1886.75</ele><time>2026-03-22T16:40:14.808Z</time></trkpt><trkpt lat="21.843286331832335" lon="-102.37548277055711"><ele>1886.0</ele><time>2026-03-22T16:40:15.808Z</time></trkpt><trkpt lat="21.843404745618926" lon="-102.37546784695154"><ele>1885.5</ele><time>2026-03-22T16:40:16.808Z</time></trkpt><trkpt lat="21.84354146955514" lon="-102.37544313998195"><ele>1885.0</ele><time>2026-03-22T16:40:17.808Z</time></trkpt><trkpt lat="21.843668384038853" lon="-102.37541840244324"><ele>1884.5</ele><time>2026-03-22T16:40:18.808Z</time></trkpt><trkpt lat="21.84379782811825" lon="-102.37539450125956"><ele>1884.0</ele><time>2026-03-22T16:40:19.808Z</time></trkpt><trkpt lat="21.843924385202975" lon="-102.37537072978577"><ele>1884.0</ele><time>2026-03-22T16:40:20.808Z</time></trkpt><trkpt lat="21.84405404724035" lon="-102.37535037735378"><ele>1884.0</ele><time>2026-03-22T16:40:21.808Z</time></trkpt><trkpt lat="21.844190564351724" lon="-102.37532523169345"><ele>1884.0</ele><time>2026-03-22T16:40:22.808Z</time></trkpt><trkpt lat="21.844321648375576" lon="-102.37530697688875"><ele>1884.0</ele><time>2026-03-22T16:40:23.808Z</time></trkpt><trkpt lat="21.844449179247746" lon="-102.37528475263633"><ele>1883.5</ele><time>2026-03-22T16:40:24.808Z</time></trkpt><trkpt lat="21.844588926154874" lon="-102.3752602584317"><ele>1883.0</ele><time>2026-03-22T16:40:25.808Z</time></trkpt><trkpt lat="21.844707410601973" lon="-102.37522961110616"><ele>1882.5</ele><time>2026-03-22T16:40:26.808Z</time></trkpt><trkpt lat="21.844847452251845" lon="-102.37521583113514"><ele>1882.0</ele><time>2026-03-22T16:40:27.808Z</time></trkpt><trkpt lat="21.8449887219958" lon="-102.37519176878521"><ele>1882.0</ele><time>2026-03-22T16:40:28.808Z</time></trkpt><trkpt lat="21.845122709388406" lon="-102.37516759118722"><ele>1882.0</ele><time>2026-03-22T16:40:29.808Z</time></trkpt><trkpt lat="21.84526310488052" lon="-102.37513952019349"><ele>1882.0</ele><time>2026-03-22T16:40:30.808Z</time></trkpt><trkpt lat="21.845398619872743" lon="-102.37511244006443"><ele>1882.0</ele><time>2026-03-22T16:40:31.808Z</time></trkpt><trkpt lat="21.845541218098653" lon="-102.37508502566726"><ele>1881.5</ele><time>2026-03-22T16:40:32.808Z</time></trkpt><trkpt lat="21.845687606583517" lon="-102.37506320344166"><ele>1881.0</ele><time>2026-03-22T16:40:33.808Z</time></trkpt><trkpt lat="21.845834672635224" lon="-102.37504162890316"><ele>1880.5</ele><time>2026-03-22T16:40:34.808Z</time></trkpt><trkpt lat="21.845978717696795" lon="-102.37501481335846"><ele>1880.0</ele><time>2026-03-22T16:40:35.808Z</time></trkpt><trkpt lat="21.846128783715837" lon="-102.37499444822758"><ele>1880.0</ele><time>2026-03-22T16:40:36.808Z</time></trkpt><trkpt lat="21.846278588962054" lon="-102.3749687696307"><ele>1880.0</ele><time>2026-03-22T16:40:37.808Z</time></trkpt><trkpt lat="21.84642155508192" lon="-102.37494023362883"><ele>1880.0</ele><time>2026-03-22T16:40:38.808Z</time></trkpt><trkpt lat="21.84655803758862" lon="-102.37491391361557"><ele>1880.0</ele><time>2026-03-22T16:40:39.808Z</time></trkpt><trkpt lat="21.846692995703904" lon="-102.37489150399477"><ele>1880.75</ele><time>2026-03-22T16:40:40.808Z</time></trkpt><trkpt lat="21.84682762180982" lon="-102.37487027211307"><ele>1881.5</ele><time>2026-03-22T16:40:41.808Z</time></trkpt><trkpt lat="21.846956397135813" lon="-102.37484752129643"><ele>1882.25</ele><time>2026-03-22T16:40:42.808Z</time></trkpt><trkpt lat="21.84708330029434" lon="-102.37482545167059"><ele>1883.0</ele><time>2026-03-22T16:40:43.808Z</time></trkpt><trkpt lat="21.847208808887164" lon="-102.37480170666787"><ele>1883.0</ele><time>2026-03-22T16:40:44.808Z</time></trkpt><trkpt lat="21.847322117227453" lon="-102.37477834323394"><ele>1883.0000000000002</ele><time>2026-03-22T16:40:45.807Z</time></trkpt><trkpt lat="21.847426162941954" lon="-102.3747596870914"><ele>1883.0000000000002</ele><time>2026-03-22T16:40:46.807Z</time></trkpt><trkpt lat="21.847530260556095" lon="-102.37474186319932"><ele>1883.0</ele><time>2026-03-22T16:40:47.807Z</time></trkpt><trkpt lat="21.847619190502968" lon="-102.3747310524791"><ele>1883.0</ele><time>2026-03-22T16:40:48.807Z</time></trkpt><trkpt lat="21.847716549092098" lon="-102.37471632985267"><ele>1883.2</ele><time>2026-03-22T16:40:49.807Z</time></trkpt><trkpt lat="21.847815170689053" lon="-102.37469927879516"><ele>1883.4</ele><time>2026-03-22T16:40:50.807Z</time></trkpt><trkpt lat="21.847917076974316" lon="-102.3746827525299"><ele>1883.6000000000001</ele><time>2026-03-22T16:40:51.807Z</time></trkpt><trkpt lat="21.848020196103704" lon="-102.3746620314124"><ele>1883.8000000000002</ele><time>2026-03-22T16:40:52.807Z</time></trkpt><trkpt lat="21.84812363625" lon="-102.37464583344679"><ele>1884.0</ele><time>2026-03-22T16:40:53.807Z</time></trkpt><trkpt lat="21.848226107442272" lon="-102.37463071537825"><ele>1884.0</ele><time>2026-03-22T16:40:54.807Z</time></trkpt><trkpt lat="21.848331683118964" lon="-102.37460917970942"><ele>1884.0</ele><time>2026-03-22T16:40:55.807Z</time></trkpt><trkpt lat="21.848430534797753" lon="-102.37458762104474"><ele>1884.0</ele><time>2026-03-22T16:40:56.807Z</time></trkpt><trkpt lat="21.84854030696338" lon="-102.37456897402411"><ele>1884.0</ele><time>2026-03-22T16:40:57.807Z</time></trkpt><trkpt lat="21.848636715671397" lon="-102.37454934169685"><ele>1884.0</ele><time>2026-03-22T16:40:58.807Z</time></trkpt><trkpt lat="21.848747634086443" lon="-102.37452693532869"><ele>1884.0</ele><time>2026-03-22T16:40:59.807Z</time></trkpt><trkpt lat="21.84885578737302" lon="-102.37450747703971"><ele>1884.0</ele><time>2026-03-22T16:41:00.807Z</time></trkpt><trkpt lat="21.84895846120624" lon="-102.37449032868783"><ele>1884.0</ele><time>2026-03-22T16:41:01.807Z</time></trkpt><trkpt lat="21.84907095149266" lon="-102.37447127666758"><ele>1884.0</ele><time>2026-03-22T16:41:02.807Z</time></trkpt><trkpt lat="21.849176757725132" lon="-102.37445513447858"><ele>1884.0</ele><time>2026-03-22T16:41:03.807Z</time></trkpt><trkpt lat="21.849282760893846" lon="-102.37443416455095"><ele>1884.4</ele><time>2026-03-22T16:41:04.807Z</time></trkpt><trkpt lat="21.849393606696395" lon="-102.37441070431579"><ele>1884.8000000000002</ele><time>2026-03-22T16:41:05.807Z</time></trkpt><trkpt lat="21.84950251034667" lon="-102.3743899858917"><ele>1885.1999999999998</ele><time>2026-03-22T16:41:06.807Z</time></trkpt><trkpt lat="21.849606251987286" lon="-102.37437168623542"><ele>1885.6</ele><time>2026-03-22T16:41:07.807Z</time></trkpt><trkpt lat="21.84970903196126" lon="-102.37435852715237"><ele>1886.0</ele><time>2026-03-22T16:41:08.807Z</time></trkpt><trkpt lat="21.849809713715256" lon="-102.37434281384792"><ele>1886.0</ele><time>2026-03-22T16:41:09.807Z</time></trkpt><trkpt lat="21.84990923754438" lon="-102.37432022172203"><ele>1886.0</ele><time>2026-03-22T16:41:10.807Z</time></trkpt><trkpt lat="21.850008609834212" lon="-102.37430021618303"><ele>1886.0</ele><time>2026-03-22T16:41:11.807Z</time></trkpt><trkpt lat="21.850107983408538" lon="-102.37428163224602"><ele>1886.0</ele><time>2026-03-22T16:41:12.807Z</time></trkpt><trkpt lat="21.8502086246216" lon="-102.37426990995246"><ele>1886.0</ele><time>2026-03-22T16:41:13.807Z</time></trkpt><trkpt lat="21.850309937001317" lon="-102.37425241409707"><ele>1886.0</ele><time>2026-03-22T16:41:14.807Z</time></trkpt><trkpt lat="21.850408314345415" lon="-102.37423752518622"><ele>1886.0</ele><time>2026-03-22T16:41:15.807Z</time></trkpt><trkpt lat="21.850510000070944" lon="-102.37421930664738"><ele>1886.0</ele><time>2026-03-22T16:41:16.807Z</time></trkpt><trkpt lat="21.85061182158404" lon="-102.37420063750292"><ele>1886.0</ele><time>2026-03-22T16:41:17.807Z</time></trkpt><trkpt lat="21.85071431322597" lon="-102.37417741167343"><ele>1886.0</ele><time>2026-03-22T16:41:18.807Z</time></trkpt><trkpt lat="21.85081263347028" lon="-102.37416183151836"><ele>1886.0</ele><time>2026-03-22T16:41:19.807Z</time></trkpt><trkpt lat="21.85091445465574" lon="-102.37414942767599"><ele>1886.0</ele><time>2026-03-22T16:41:20.806Z</time></trkpt><trkpt lat="21.851017320297597" lon="-102.37412975649264"><ele>1886.0</ele><time>2026-03-22T16:41:21.806Z</time></trkpt><trkpt lat="21.85111706643955" lon="-102.3741096494644"><ele>1886.0</ele><time>2026-03-22T16:41:22.806Z</time></trkpt><trkpt lat="21.851216815446435" lon="-102.37409314672024"><ele>1886.0</ele><time>2026-03-22T16:41:23.806Z</time></trkpt><trkpt lat="21.851319220333423" lon="-102.37407625130868"><ele>1885.8</ele><time>2026-03-22T16:41:24.806Z</time></trkpt><trkpt lat="21.8514207719764" lon="-102.37405932022594"><ele>1885.6</ele><time>2026-03-22T16:41:25.806Z</time></trkpt><trkpt lat="21.851527941823637" lon="-102.37404147705215"><ele>1885.4</ele><time>2026-03-22T16:41:26.806Z</time></trkpt><trkpt lat="21.85162903077879" lon="-102.3740268608869"><ele>1885.2</ele><time>2026-03-22T16:41:27.806Z</time></trkpt><trkpt lat="21.85172397905744" lon="-102.37401391658946"><ele>1885.0</ele><time>2026-03-22T16:41:28.806Z</time></trkpt><trkpt lat="21.85183662711617" lon="-102.37399507019362"><ele>1885.0</ele><time>2026-03-22T16:41:29.806Z</time></trkpt><trkpt lat="21.85193269893395" lon="-102.37397764336728"><ele>1885.0</ele><time>2026-03-22T16:41:30.806Z</time></trkpt><trkpt lat="21.852038024485935" lon="-102.37395621076033"><ele>1885.0</ele><time>2026-03-22T16:41:31.806Z</time></trkpt><trkpt lat="21.85214600634076" lon="-102.37393710879233"><ele>1885.0</ele><time>2026-03-22T16:41:32.806Z</time></trkpt><trkpt lat="21.8522547843071" lon="-102.37392227130002"><ele>1885.0</ele><time>2026-03-22T16:41:33.806Z</time></trkpt><trkpt lat="21.85236394784575" lon="-102.37390303229459"><ele>1885.0</ele><time>2026-03-22T16:41:34.807Z</time></trkpt><trkpt lat="21.852467745438254" lon="-102.37388440638188"><ele>1885.0</ele><time>2026-03-22T16:41:35.808Z</time></trkpt><trkpt lat="21.852573278671027" lon="-102.37385899248135"><ele>1885.0</ele><time>2026-03-22T16:41:36.808Z</time></trkpt><trkpt lat="21.85268226963391" lon="-102.37384204105538"><ele>1885.0</ele><time>2026-03-22T16:41:37.807Z</time></trkpt><trkpt lat="21.85279098193698" lon="-102.37382336510136"><ele>1885.0</ele><time>2026-03-22T16:41:38.808Z</time></trkpt><trkpt lat="21.85290363786504" lon="-102.37380076737877"><ele>1883.75</ele><time>2026-03-22T16:41:39.808Z</time></trkpt><trkpt lat="21.85301584762551" lon="-102.37377833816213"><ele>1882.5</ele><time>2026-03-22T16:41:40.807Z</time></trkpt><trkpt lat="21.853125948747042" lon="-102.37376522398996"><ele>1881.25</ele><time>2026-03-22T16:41:41.808Z</time></trkpt><trkpt lat="21.85324607180697" lon="-102.37375008038252"><ele>1880.0</ele><time>2026-03-22T16:41:42.808Z</time></trkpt><trkpt lat="21.85335681968783" lon="-102.3737290275258"><ele>1879.25</ele><time>2026-03-22T16:41:43.808Z</time></trkpt><trkpt lat="21.85347800559525" lon="-102.37370855890444"><ele>1878.5</ele><time>2026-03-22T16:41:44.807Z</time></trkpt><trkpt lat="21.853594709384332" lon="-102.37368511877112"><ele>1877.75</ele><time>2026-03-22T16:41:45.807Z</time></trkpt><trkpt lat="21.853710284279998" lon="-102.37366273730015"><ele>1877.0</ele><time>2026-03-22T16:41:46.807Z</time></trkpt><trkpt lat="21.853827343474173" lon="-102.37363676915659"><ele>1877.0</ele><time>2026-03-22T16:41:47.807Z</time></trkpt><trkpt lat="21.85395508122513" lon="-102.37361335504471"><ele>1877.0</ele><time>2026-03-22T16:41:48.807Z</time></trkpt><trkpt lat="21.854073597083737" lon="-102.37359640314776"><ele>1877.0</ele><time>2026-03-22T16:41:49.807Z</time></trkpt><trkpt lat="21.854194653844992" lon="-102.37357698542817"><ele>1877.0</ele><time>2026-03-22T16:41:50.807Z</time></trkpt><trkpt lat="21.854316445287235" lon="-102.37355718505623"><ele>1877.25</ele><time>2026-03-22T16:41:51.807Z</time></trkpt><trkpt lat="21.854439074338856" lon="-102.37353697252773"><ele>1877.5</ele><time>2026-03-22T16:41:52.807Z</time></trkpt><trkpt lat="21.854566790622645" lon="-102.37351521547174"><ele>1877.75</ele><time>2026-03-22T16:41:53.807Z</time></trkpt><trkpt lat="21.85469220193472" lon="-102.37348854204929"><ele>1878.0</ele><time>2026-03-22T16:41:54.807Z</time></trkpt><trkpt lat="21.854818502261637" lon="-102.37346440561784"><ele>1878.0</ele><time>2026-03-22T16:41:55.807Z</time></trkpt><trkpt lat="21.85494159690923" lon="-102.3734418281248"><ele>1878.0</ele><time>2026-03-22T16:41:56.806Z</time></trkpt><trkpt lat="21.855065084741792" lon="-102.37342046004322"><ele>1878.0</ele><time>2026-03-22T16:41:57.806Z</time></trkpt><trkpt lat="21.8551868628846" lon="-102.3734008764244"><ele>1878.0</ele><time>2026-03-22T16:41:58.806Z</time></trkpt><trkpt lat="21.855312581221213" lon="-102.3733790433834"><ele>1878.25</ele><time>2026-03-22T16:41:59.806Z</time></trkpt><trkpt lat="21.85542645163227" lon="-102.37335824725369"><ele>1878.5</ele><time>2026-03-22T16:42:00.806Z</time></trkpt><trkpt lat="21.855547208890435" lon="-102.37334013384326"><ele>1878.75</ele><time>2026-03-22T16:42:01.806Z</time></trkpt><trkpt lat="21.85566088272575" lon="-102.3733202929461"><ele>1879.0</ele><time>2026-03-22T16:42:02.806Z</time></trkpt><trkpt lat="21.85577710561558" lon="-102.37329668172603"><ele>1879.0</ele><time>2026-03-22T16:42:03.806Z</time></trkpt><trkpt lat="21.855893849130407" lon="-102.37327927309158"><ele>1879.0</ele><time>2026-03-22T16:42:04.806Z</time></trkpt><trkpt lat="21.856007042377914" lon="-102.37325885777986"><ele>1879.0</ele><time>2026-03-22T16:42:05.806Z</time></trkpt><trkpt lat="21.856120229394076" lon="-102.37324018614362"><ele>1879.0</ele><time>2026-03-22T16:42:06.806Z</time></trkpt><trkpt lat="21.856228663645325" lon="-102.37322282912827"><ele>1879.0</ele><time>2026-03-22T16:42:07.806Z</time></trkpt><trkpt lat="21.856342512285813" lon="-102.37320548763384"><ele>1879.0</ele><time>2026-03-22T16:42:08.806Z</time></trkpt><trkpt lat="21.85644887572714" lon="-102.37318440096246"><ele>1879.0</ele><time>2026-03-22T16:42:09.806Z</time></trkpt><trkpt lat="21.85655812007396" lon="-102.37316567470596"><ele>1879.0</ele><time>2026-03-22T16:42:10.806Z</time></trkpt><trkpt lat="21.85665756252488" lon="-102.37314725143641"><ele>1879.0</ele><time>2026-03-22T16:42:11.806Z</time></trkpt><trkpt lat="21.8567680843729" lon="-102.3731276361244"><ele>1879.4</ele><time>2026-03-22T16:42:12.806Z</time></trkpt><trkpt lat="21.85688796853986" lon="-102.37310590206398"><ele>1879.8000000000002</ele><time>2026-03-22T16:42:13.806Z</time></trkpt><trkpt lat="21.856984703457584" lon="-102.37308367329484"><ele>1880.1999999999998</ele><time>2026-03-22T16:42:14.806Z</time></trkpt><trkpt lat="21.857089577852545" lon="-102.37306601465447"><ele>1880.6</ele><time>2026-03-22T16:42:15.806Z</time></trkpt><trkpt lat="21.857192908681355" lon="-102.3730443164875"><ele>1881.0</ele><time>2026-03-22T16:42:16.806Z</time></trkpt><trkpt lat="21.857294316063943" lon="-102.37302869746043"><ele>1881.1999999999998</ele><time>2026-03-22T16:42:17.806Z</time></trkpt><trkpt lat="21.857394430062264" lon="-102.37301331144967"><ele>1881.3999999999999</ele><time>2026-03-22T16:42:18.806Z</time></trkpt><trkpt lat="21.857495154856245" lon="-102.3729974729273"><ele>1881.6</ele><time>2026-03-22T16:42:19.806Z</time></trkpt><trkpt lat="21.857595300704308" lon="-102.37298249193981"><ele>1881.8</ele><time>2026-03-22T16:42:20.806Z</time></trkpt><trkpt lat="21.857690987621" lon="-102.37296408629429"><ele>1882.0</ele><time>2026-03-22T16:42:21.806Z</time></trkpt><trkpt lat="21.857789988636387" lon="-102.37294926395035"><ele>1882.3999999999999</ele><time>2026-03-22T16:42:22.806Z</time></trkpt><trkpt lat="21.857885131719797" lon="-102.37293219460986"><ele>1882.7999999999997</ele><time>2026-03-22T16:42:23.806Z</time></trkpt><trkpt lat="21.857979795366052" lon="-102.37291611786205"><ele>1883.2</ele><time>2026-03-22T16:42:24.806Z</time></trkpt><trkpt lat="21.85807577332962" lon="-102.37289993728346"><ele>1883.6</ele><time>2026-03-22T16:42:25.806Z</time></trkpt><trkpt lat="21.858168950150148" lon="-102.37288275792997"><ele>1884.0</ele><time>2026-03-22T16:42:26.806Z</time></trkpt><trkpt lat="21.85826354129757" lon="-102.37286376346502"><ele>1884.0</ele><time>2026-03-22T16:42:27.806Z</time></trkpt><trkpt lat="21.85835387022286" lon="-102.37284560133455"><ele>1884.0</ele><time>2026-03-22T16:42:28.806Z</time></trkpt><trkpt lat="21.858443845802665" lon="-102.37283281454393"><ele>1884.0</ele><time>2026-03-22T16:42:29.806Z</time></trkpt><trkpt lat="21.858535054351805" lon="-102.37281674559496"><ele>1884.0</ele><time>2026-03-22T16:42:30.806Z</time></trkpt><trkpt lat="21.858620701855315" lon="-102.37280268477002"><ele>1884.0</ele><time>2026-03-22T16:42:31.806Z</time></trkpt><trkpt lat="21.85870659363858" lon="-102.37278834022501"><ele>1884.0</ele><time>2026-03-22T16:42:32.805Z</time></trkpt><trkpt lat="21.858802914163967" lon="-102.37277425531029"><ele>1883.8000000000002</ele><time>2026-03-22T16:42:33.805Z</time></trkpt><trkpt lat="21.85887980455339" lon="-102.37274620820475"><ele>1883.6000000000001</ele><time>2026-03-22T16:42:34.805Z</time></trkpt><trkpt lat="21.85897680524804" lon="-102.37272984316714"><ele>1883.4</ele><time>2026-03-22T16:42:35.805Z</time></trkpt><trkpt lat="21.859067736928786" lon="-102.37271243601872"><ele>1883.2</ele><time>2026-03-22T16:42:36.805Z</time></trkpt><trkpt lat="21.85915395834626" lon="-102.37269788892672"><ele>1883.0</ele><time>2026-03-22T16:42:37.805Z</time></trkpt><trkpt lat="21.859244682933994" lon="-102.37268327095808"><ele>1883.4</ele><time>2026-03-22T16:42:38.805Z</time></trkpt><trkpt lat="21.859334386309254" lon="-102.37266532537127"><ele>1883.8000000000002</ele><time>2026-03-22T16:42:39.805Z</time></trkpt><trkpt lat="21.859419853990836" lon="-102.37265131096105"><ele>1884.2</ele><time>2026-03-22T16:42:40.805Z</time></trkpt><trkpt lat="21.859512714866568" lon="-102.37263254880169"><ele>1884.6</ele><time>2026-03-22T16:42:41.805Z</time></trkpt><trkpt lat="21.85959558704145" lon="-102.37262539909263"><ele>1885.0</ele><time>2026-03-22T16:42:42.805Z</time></trkpt><trkpt lat="21.85969010395511" lon="-102.37260677941593"><ele>1885.0</ele><time>2026-03-22T16:42:43.805Z</time></trkpt><trkpt lat="21.85978220449122" lon="-102.37258643378405"><ele>1885.0</ele><time>2026-03-22T16:42:44.805Z</time></trkpt><trkpt lat="21.859871692836787" lon="-102.372574347133"><ele>1885.0</ele><time>2026-03-22T16:42:45.805Z</time></trkpt><trkpt lat="21.859958947208135" lon="-102.37256156944937"><ele>1885.0</ele><time>2026-03-22T16:42:46.805Z</time></trkpt><trkpt lat="21.86004898489422" lon="-102.37255105634821"><ele>1885.0</ele><time>2026-03-22T16:42:47.805Z</time></trkpt><trkpt lat="21.860144587811263" lon="-102.3725349535354"><ele>1885.4</ele><time>2026-03-22T16:42:48.805Z</time></trkpt><trkpt lat="21.860234537831854" lon="-102.37251378021794"><ele>1885.8</ele><time>2026-03-22T16:42:49.805Z</time></trkpt><trkpt lat="21.860324422337246" lon="-102.37249404706685"><ele>1886.1999999999998</ele><time>2026-03-22T16:42:50.805Z</time></trkpt><trkpt lat="21.860416917046397" lon="-102.3724798353087"><ele>1886.6</ele><time>2026-03-22T16:42:51.805Z</time></trkpt><trkpt lat="21.86051095112661" lon="-102.3724618203952"><ele>1887.0</ele><time>2026-03-22T16:42:52.805Z</time></trkpt><trkpt lat="21.860605596745188" lon="-102.37244227387902"><ele>1887.0</ele><time>2026-03-22T16:42:53.805Z</time></trkpt><trkpt lat="21.86069796792743" lon="-102.37242344991228"><ele>1886.9999999999998</ele><time>2026-03-22T16:42:54.805Z</time></trkpt><trkpt lat="21.860792678294526" lon="-102.37240292317327"><ele>1886.9999999999998</ele><time>2026-03-22T16:42:55.805Z</time></trkpt><trkpt lat="21.860886410779248" lon="-102.37238653726473"><ele>1887.0</ele><time>2026-03-22T16:42:56.805Z</time></trkpt><trkpt lat="21.860979100745894" lon="-102.37236544858459"><ele>1887.0</ele><time>2026-03-22T16:42:57.805Z</time></trkpt><trkpt lat="21.861076920825035" lon="-102.37233517721869"><ele>1886.8</ele><time>2026-03-22T16:42:58.805Z</time></trkpt><trkpt lat="21.861167256239074" lon="-102.37230776318675"><ele>1886.6</ele><time>2026-03-22T16:42:59.805Z</time></trkpt><trkpt lat="21.86126452541959" lon="-102.37227764567828"><ele>1886.3999999999999</ele><time>2026-03-22T16:43:00.805Z</time></trkpt><trkpt lat="21.86136464864543" lon="-102.37225151579055"><ele>1886.1999999999998</ele><time>2026-03-22T16:43:01.805Z</time></trkpt><trkpt lat="21.861461346638208" lon="-102.3722318061866"><ele>1886.0</ele><time>2026-03-22T16:43:02.805Z</time></trkpt><trkpt lat="21.861562207311113" lon="-102.37220911042004"><ele>1886.0</ele><time>2026-03-22T16:43:03.805Z</time></trkpt><trkpt lat="21.86165749455521" lon="-102.37219197035279"><ele>1886.0</ele><time>2026-03-22T16:43:04.805Z</time></trkpt><trkpt lat="21.86175746834759" lon="-102.37217306506939"><ele>1886.0</ele><time>2026-03-22T16:43:05.805Z</time></trkpt><trkpt lat="21.861856501747592" lon="-102.37214908256152"><ele>1886.0</ele><time>2026-03-22T16:43:06.805Z</time></trkpt><trkpt lat="21.86195118981854" lon="-102.37213635040978"><ele>1886.0</ele><time>2026-03-22T16:43:07.804Z</time></trkpt><trkpt lat="21.86204216517281" lon="-102.37211027031219"><ele>1886.0</ele><time>2026-03-22T16:43:08.804Z</time></trkpt><trkpt lat="21.862140397983065" lon="-102.37207975304887"><ele>1886.0</ele><time>2026-03-22T16:43:09.804Z</time></trkpt><trkpt lat="21.862226292898832" lon="-102.37204346059731"><ele>1886.0</ele><time>2026-03-22T16:43:10.804Z</time></trkpt><trkpt lat="21.86231488835665" lon="-102.37198841217248"><ele>1886.0</ele><time>2026-03-22T16:43:11.804Z</time></trkpt><trkpt lat="21.862386473510977" lon="-102.37191898474177"><ele>1886.0</ele><time>2026-03-22T16:43:12.804Z</time></trkpt><trkpt lat="21.86245233442173" lon="-102.3718413519757"><ele>1886.0</ele><time>2026-03-22T16:43:13.804Z</time></trkpt><trkpt lat="21.862508424441625" lon="-102.37175018106285"><ele>1886.0</ele><time>2026-03-22T16:43:14.804Z</time></trkpt><trkpt lat="21.862558546509767" lon="-102.37166537829181"><ele>1886.0</ele><time>2026-03-22T16:43:15.804Z</time></trkpt><trkpt lat="21.86258885201578" lon="-102.37156480533524"><ele>1886.0</ele><time>2026-03-22T16:43:16.804Z</time></trkpt><trkpt lat="21.86260868613422" lon="-102.37145994737529"><ele>1886.0</ele><time>2026-03-22T16:43:17.804Z</time></trkpt><trkpt lat="21.862611735816532" lon="-102.37135570129831"><ele>1886.1999999999998</ele><time>2026-03-22T16:43:18.804Z</time></trkpt><trkpt lat="21.862608529599637" lon="-102.37124764094892"><ele>1886.3999999999999</ele><time>2026-03-22T16:43:19.804Z</time></trkpt><trkpt lat="21.86258688736607" lon="-102.37113726215563"><ele>1886.6</ele><time>2026-03-22T16:43:20.804Z</time></trkpt><trkpt lat="21.862555362700036" lon="-102.37102786250622"><ele>1886.8</ele><time>2026-03-22T16:43:21.804Z</time></trkpt><trkpt lat="21.862517152680677" lon="-102.37093043651713"><ele>1887.0</ele><time>2026-03-22T16:43:22.804Z</time></trkpt><trkpt lat="21.86246065463899" lon="-102.37083482158178"><ele>1887.0</ele><time>2026-03-22T16:43:23.804Z</time></trkpt><trkpt lat="21.86239417243039" lon="-102.37075405157125"><ele>1886.9999999999998</ele><time>2026-03-22T16:43:24.804Z</time></trkpt><trkpt lat="21.86231891229249" lon="-102.37066985387385"><ele>1886.9999999999998</ele><time>2026-03-22T16:43:25.804Z</time></trkpt><trkpt lat="21.86224926841067" lon="-102.37059149046566"><ele>1887.0</ele><time>2026-03-22T16:43:26.804Z</time></trkpt><trkpt lat="21.86218395733486" lon="-102.37051023689942"><ele>1887.0</ele><time>2026-03-22T16:43:27.804Z</time></trkpt><trkpt lat="21.862125301085214" lon="-102.3704273973352"><ele>1886.8</ele><time>2026-03-22T16:43:28.804Z</time></trkpt><trkpt lat="21.86206561370308" lon="-102.37033203675648"><ele>1886.6</ele><time>2026-03-22T16:43:29.804Z</time></trkpt><trkpt lat="21.862018886468558" lon="-102.37024081178514"><ele>1886.3999999999999</ele><time>2026-03-22T16:43:30.804Z</time></trkpt><trkpt lat="21.861968244564093" lon="-102.3701521604879"><ele>1886.1999999999998</ele><time>2026-03-22T16:43:31.804Z</time></trkpt><trkpt lat="21.861916162489536" lon="-102.3700558284437"><ele>1886.0</ele><time>2026-03-22T16:43:32.804Z</time></trkpt><trkpt lat="21.86186602978739" lon="-102.3699605000476"><ele>1886.0</ele><time>2026-03-22T16:43:33.804Z</time></trkpt><trkpt lat="21.861817041254813" lon="-102.36986712139485"><ele>1886.0</ele><time>2026-03-22T16:43:34.804Z</time></trkpt><trkpt lat="21.861769009217284" lon="-102.36977360376945"><ele>1886.0</ele><time>2026-03-22T16:43:35.804Z</time></trkpt><trkpt lat="21.86172415346819" lon="-102.3696755828235"><ele>1886.0</ele><time>2026-03-22T16:43:36.804Z</time></trkpt><trkpt lat="21.86167637496662" lon="-102.3695796917556"><ele>1886.0</ele><time>2026-03-22T16:43:37.804Z</time></trkpt><trkpt lat="21.8616273986209" lon="-102.36948708699816"><ele>1884.6</ele><time>2026-03-22T16:43:38.804Z</time></trkpt><trkpt lat="21.861580208902552" lon="-102.36938715992832"><ele>1883.1999999999998</ele><time>2026-03-22T16:43:39.804Z</time></trkpt><trkpt lat="21.86153801907718" lon="-102.36928782020188"><ele>1881.8000000000002</ele><time>2026-03-22T16:43:40.805Z</time></trkpt><trkpt lat="21.86149147557537" lon="-102.36919342615707"><ele>1880.4</ele><time>2026-03-22T16:43:41.805Z</time></trkpt><trkpt lat="21.861457000141126" lon="-102.36910130250445"><ele>1879.0</ele><time>2026-03-22T16:43:42.805Z</time></trkpt><trkpt lat="21.861421625136977" lon="-102.36899792490412"><ele>1879.0</ele><time>2026-03-22T16:43:43.805Z</time></trkpt><trkpt lat="21.861382494591393" lon="-102.36889775077928"><ele>1879.0</ele><time>2026-03-22T16:43:44.805Z</time></trkpt><trkpt lat="21.861343484532878" lon="-102.36879630184151"><ele>1879.0</ele><time>2026-03-22T16:43:45.805Z</time></trkpt><trkpt lat="21.861299716420113" lon="-102.36869295871655"><ele>1879.0</ele><time>2026-03-22T16:43:46.805Z</time></trkpt><trkpt lat="21.861263138246223" lon="-102.36859599405138"><ele>1879.0</ele><time>2026-03-22T16:43:47.804Z</time></trkpt><trkpt lat="21.8612226963431" lon="-102.3684905579859"><ele>1879.4</ele><time>2026-03-22T16:43:48.804Z</time></trkpt><trkpt lat="21.86118250425751" lon="-102.3683847286814"><ele>1879.8000000000002</ele><time>2026-03-22T16:43:49.804Z</time></trkpt><trkpt lat="21.861141209506687" lon="-102.36828417527495"><ele>1880.1999999999998</ele><time>2026-03-22T16:43:50.804Z</time></trkpt><trkpt lat="21.861102024930517" lon="-102.3681801402798"><ele>1880.6</ele><time>2026-03-22T16:43:51.804Z</time></trkpt><trkpt lat="21.86106230409028" lon="-102.36806846650369"><ele>1881.0</ele><time>2026-03-22T16:43:52.805Z</time></trkpt><trkpt lat="21.86102062472851" lon="-102.36797121509093"><ele>1881.0</ele><time>2026-03-22T16:43:53.805Z</time></trkpt><trkpt lat="21.860978244167722" lon="-102.36786785657797"><ele>1881.0</ele><time>2026-03-22T16:43:54.805Z</time></trkpt><trkpt lat="21.86094087850751" lon="-102.36776512789594"><ele>1881.0</ele><time>2026-03-22T16:43:55.805Z</time></trkpt><trkpt lat="21.86089933856532" lon="-102.36766027599279"><ele>1881.0</ele><time>2026-03-22T16:43:56.805Z</time></trkpt><trkpt lat="21.860856787080664" lon="-102.3675551195093"><ele>1881.0</ele><time>2026-03-22T16:43:57.805Z</time></trkpt><trkpt lat="21.86081725361715" lon="-102.36745185631229"><ele>1880.8</ele><time>2026-03-22T16:43:58.805Z</time></trkpt><trkpt lat="21.860784290775847" lon="-102.36735512932411"><ele>1880.6</ele><time>2026-03-22T16:43:59.805Z</time></trkpt><trkpt lat="21.860743651780243" lon="-102.3672564784323"><ele>1880.4</ele><time>2026-03-22T16:44:00.805Z</time></trkpt><trkpt lat="21.860703514646694" lon="-102.3671463246751"><ele>1880.2</ele><time>2026-03-22T16:44:01.805Z</time></trkpt><trkpt lat="21.86066299783017" lon="-102.36704962760788"><ele>1880.0</ele><time>2026-03-22T16:44:02.805Z</time></trkpt><trkpt lat="21.860618290807952" lon="-102.36694840829941"><ele>1879.6</ele><time>2026-03-22T16:44:03.805Z</time></trkpt><trkpt lat="21.860571309588657" lon="-102.36684402626612"><ele>1879.2</ele><time>2026-03-22T16:44:04.805Z</time></trkpt><trkpt lat="21.860530406098192" lon="-102.36674879237341"><ele>1878.8000000000002</ele><time>2026-03-22T16:44:05.805Z</time></trkpt><trkpt lat="21.860490988047566" lon="-102.36664078602638"><ele>1878.4</ele><time>2026-03-22T16:44:06.805Z</time></trkpt><trkpt lat="21.86044749023047" lon="-102.36653757329078"><ele>1878.0</ele><time>2026-03-22T16:44:07.805Z</time></trkpt><trkpt lat="21.86040608265054" lon="-102.36643190568766"><ele>1877.8000000000002</ele><time>2026-03-22T16:44:08.805Z</time></trkpt><trkpt lat="21.860365713053152" lon="-102.3663282295814"><ele>1877.6000000000001</ele><time>2026-03-22T16:44:09.805Z</time></trkpt><trkpt lat="21.860326676232624" lon="-102.36622453223316"><ele>1877.3999999999999</ele><time>2026-03-22T16:44:10.805Z</time></trkpt><trkpt lat="21.86028880563727" lon="-102.36612105513058"><ele>1877.1999999999998</ele><time>2026-03-22T16:44:11.805Z</time></trkpt><trkpt lat="21.86024629303849" lon="-102.36602378230161"><ele>1877.0</ele><time>2026-03-22T16:44:12.805Z</time></trkpt><trkpt lat="21.860166201339453" lon="-102.36581939033498"><ele>1877.0</ele><time>2026-03-22T16:44:14.805Z</time></trkpt><trkpt lat="21.86012690701335" lon="-102.36571679521988"><ele>1876.9999999999998</ele><time>2026-03-22T16:44:15.805Z</time></trkpt><trkpt lat="21.860091056717053" lon="-102.36560773440067"><ele>1876.9999999999998</ele><time>2026-03-22T16:44:16.805Z</time></trkpt><trkpt lat="21.860045488636597" lon="-102.36550725213648"><ele>1877.0</ele><time>2026-03-22T16:44:17.805Z</time></trkpt><trkpt lat="21.859990981278912" lon="-102.36539882076701"><ele>1877.0</ele><time>2026-03-22T16:44:18.805Z</time></trkpt><trkpt lat="21.859947144831345" lon="-102.36530407567659"><ele>1876.6</ele><time>2026-03-22T16:44:19.804Z</time></trkpt><trkpt lat="21.859910859062694" lon="-102.36520022057077"><ele>1876.1999999999998</ele><time>2026-03-22T16:44:20.804Z</time></trkpt><trkpt lat="21.859874602793667" lon="-102.36509150733104"><ele>1875.8</ele><time>2026-03-22T16:44:21.804Z</time></trkpt><trkpt lat="21.859838237833856" lon="-102.36498842601064"><ele>1875.4</ele><time>2026-03-22T16:44:22.804Z</time></trkpt><trkpt lat="21.859793533116605" lon="-102.36488656934843"><ele>1875.0</ele><time>2026-03-22T16:44:23.804Z</time></trkpt><trkpt lat="21.859750019152305" lon="-102.36477934921145"><ele>1875.0</ele><time>2026-03-22T16:44:24.804Z</time></trkpt><trkpt lat="21.859703987163016" lon="-102.36467770605971"><ele>1875.0</ele><time>2026-03-22T16:44:25.804Z</time></trkpt><trkpt lat="21.859662269911677" lon="-102.364575617508"><ele>1875.0</ele><time>2026-03-22T16:44:26.804Z</time></trkpt><trkpt lat="21.85962589241745" lon="-102.3644732138678"><ele>1875.0</ele><time>2026-03-22T16:44:27.804Z</time></trkpt><trkpt lat="21.859588636878485" lon="-102.36437280680015"><ele>1875.0</ele><time>2026-03-22T16:44:28.804Z</time></trkpt><trkpt lat="21.85955117089443" lon="-102.36427056685852"><ele>1875.0</ele><time>2026-03-22T16:44:29.804Z</time></trkpt><trkpt lat="21.859507874119743" lon="-102.36416738476572"><ele>1875.0</ele><time>2026-03-22T16:44:30.804Z</time></trkpt><trkpt lat="21.85946350438123" lon="-102.36406825395953"><ele>1875.0</ele><time>2026-03-22T16:44:31.804Z</time></trkpt><trkpt lat="21.859425564542722" lon="-102.3639679981498"><ele>1875.0</ele><time>2026-03-22T16:44:32.804Z</time></trkpt><trkpt lat="21.859386094163884" lon="-102.36386479050601"><ele>1875.0</ele><time>2026-03-22T16:44:33.804Z</time></trkpt><trkpt lat="21.8593465186432" lon="-102.3637640039862"><ele>1875.2</ele><time>2026-03-22T16:44:34.804Z</time></trkpt><trkpt lat="21.859309658365497" lon="-102.36365718772257"><ele>1875.4</ele><time>2026-03-22T16:44:35.804Z</time></trkpt><trkpt lat="21.859273308572845" lon="-102.36356366613838"><ele>1875.6</ele><time>2026-03-22T16:44:36.804Z</time></trkpt><trkpt lat="21.85922472745696" lon="-102.3634644807461"><ele>1875.8</ele><time>2026-03-22T16:44:37.804Z</time></trkpt><trkpt lat="21.85918719204836" lon="-102.36335663934994"><ele>1876.0</ele><time>2026-03-22T16:44:38.804Z</time></trkpt><trkpt lat="21.859148641158832" lon="-102.36325532035288"><ele>1875.4</ele><time>2026-03-22T16:44:39.804Z</time></trkpt><trkpt lat="21.859110721338308" lon="-102.36315498519347"><ele>1874.8</ele><time>2026-03-22T16:44:40.804Z</time></trkpt><trkpt lat="21.85906998446689" lon="-102.36304983703043"><ele>1874.2000000000003</ele><time>2026-03-22T16:44:41.804Z</time></trkpt><trkpt lat="21.859023646875322" lon="-102.36294509988613"><ele>1873.6000000000001</ele><time>2026-03-22T16:44:42.804Z</time></trkpt><trkpt lat="21.85898342868172" lon="-102.36284410458272"><ele>1873.0</ele><time>2026-03-22T16:44:43.804Z</time></trkpt><trkpt lat="21.85894046545843" lon="-102.36273940207386"><ele>1872.8000000000002</ele><time>2026-03-22T16:44:44.804Z</time></trkpt><trkpt lat="21.85889896770092" lon="-102.36263920420186"><ele>1872.6000000000001</ele><time>2026-03-22T16:44:45.804Z</time></trkpt><trkpt lat="21.858857378335784" lon="-102.36253227024807"><ele>1872.3999999999999</ele><time>2026-03-22T16:44:46.804Z</time></trkpt><trkpt lat="21.858822184603095" lon="-102.36242707600357"><ele>1872.1999999999998</ele><time>2026-03-22T16:44:47.804Z</time></trkpt><trkpt lat="21.85878697135206" lon="-102.36232835430204"><ele>1872.0</ele><time>2026-03-22T16:44:48.804Z</time></trkpt><trkpt lat="21.858746161426136" lon="-102.36222002309786"><ele>1871.6</ele><time>2026-03-22T16:44:49.804Z</time></trkpt><trkpt lat="21.85869011059523" lon="-102.36211067467391"><ele>1871.1999999999998</ele><time>2026-03-22T16:44:50.804Z</time></trkpt><trkpt lat="21.858647526723153" lon="-102.3620077195283"><ele>1870.8</ele><time>2026-03-22T16:44:51.804Z</time></trkpt><trkpt lat="21.85860729096682" lon="-102.36190553230242"><ele>1870.4</ele><time>2026-03-22T16:44:52.804Z</time></trkpt><trkpt lat="21.858573776537646" lon="-102.36180015310846"><ele>1870.0</ele><time>2026-03-22T16:44:53.803Z</time></trkpt><trkpt lat="21.858530994645857" lon="-102.36169739560478"><ele>1870.0</ele><time>2026-03-22T16:44:54.803Z</time></trkpt><trkpt lat="21.85849103758551" lon="-102.36159654572837"><ele>1870.0</ele><time>2026-03-22T16:44:55.803Z</time></trkpt><trkpt lat="21.858448348480994" lon="-102.36149163449215"><ele>1870.0</ele><time>2026-03-22T16:44:56.803Z</time></trkpt><trkpt lat="21.858408308809608" lon="-102.36139111541125"><ele>1870.0</ele><time>2026-03-22T16:44:57.803Z</time></trkpt><trkpt lat="21.85836903099782" lon="-102.36129712308862"><ele>1870.0</ele><time>2026-03-22T16:44:58.803Z</time></trkpt><trkpt lat="21.858331899490736" lon="-102.36120280012693"><ele>1869.8</ele><time>2026-03-22T16:44:59.803Z</time></trkpt><trkpt lat="21.85829733047198" lon="-102.36110890955061"><ele>1869.6</ele><time>2026-03-22T16:45:00.803Z</time></trkpt><trkpt lat="21.858259608886694" lon="-102.3610107766879"><ele>1869.4</ele><time>2026-03-22T16:45:01.803Z</time></trkpt><trkpt lat="21.858221224241106" lon="-102.36091142005564"><ele>1869.2</ele><time>2026-03-22T16:45:02.803Z</time></trkpt><trkpt lat="21.85817839770004" lon="-102.36081168277322"><ele>1869.0</ele><time>2026-03-22T16:45:03.803Z</time></trkpt><trkpt lat="21.858138144549297" lon="-102.3607223722028"><ele>1869.0</ele><time>2026-03-22T16:45:04.803Z</time></trkpt><trkpt lat="21.85809342056725" lon="-102.36063322482892"><ele>1869.0</ele><time>2026-03-22T16:45:05.803Z</time></trkpt><trkpt lat="21.85805155668069" lon="-102.36054880204276"><ele>1869.0</ele><time>2026-03-22T16:45:06.803Z</time></trkpt><trkpt lat="21.85801075373213" lon="-102.36045756352439"><ele>1869.0</ele><time>2026-03-22T16:45:07.803Z</time></trkpt><trkpt lat="21.857966101430296" lon="-102.36036586022608"><ele>1869.0</ele><time>2026-03-22T16:45:08.803Z</time></trkpt><trkpt lat="21.857915624034995" lon="-102.36027662983804"><ele>1869.2</ele><time>2026-03-22T16:45:09.803Z</time></trkpt><trkpt lat="21.857866302219502" lon="-102.3601909699662"><ele>1869.4</ele><time>2026-03-22T16:45:10.803Z</time></trkpt><trkpt lat="21.857814725996782" lon="-102.36010182407476"><ele>1869.6</ele><time>2026-03-22T16:45:11.803Z</time></trkpt><trkpt lat="21.8577624467911" lon="-102.36001016164"><ele>1869.8</ele><time>2026-03-22T16:45:12.803Z</time></trkpt><trkpt lat="21.857708054108834" lon="-102.35992455351236"><ele>1870.0</ele><time>2026-03-22T16:45:13.803Z</time></trkpt><trkpt lat="21.857653306958213" lon="-102.3598382180896"><ele>1869.6</ele><time>2026-03-22T16:45:14.803Z</time></trkpt><trkpt lat="21.85759805197584" lon="-102.35975287314805"><ele>1869.2</ele><time>2026-03-22T16:45:15.803Z</time></trkpt><trkpt lat="21.8575390323209" lon="-102.35966421226387"><ele>1868.8000000000002</ele><time>2026-03-22T16:45:16.803Z</time></trkpt><trkpt lat="21.857486824638457" lon="-102.35957809014438"><ele>1868.4</ele><time>2026-03-22T16:45:17.803Z</time></trkpt><trkpt lat="21.85742624481688" lon="-102.35949724714823"><ele>1868.0</ele><time>2026-03-22T16:45:18.803Z</time></trkpt><trkpt lat="21.857378624806486" lon="-102.35940948737658"><ele>1868.0</ele><time>2026-03-22T16:45:19.803Z</time></trkpt><trkpt lat="21.857327838137003" lon="-102.35932528501756"><ele>1868.0000000000002</ele><time>2026-03-22T16:45:20.803Z</time></trkpt><trkpt lat="21.857268305025052" lon="-102.359240503955"><ele>1868.0000000000002</ele><time>2026-03-22T16:45:21.803Z</time></trkpt><trkpt lat="21.857232936010654" lon="-102.35915966583053"><ele>1868.0</ele><time>2026-03-22T16:45:22.803Z</time></trkpt><trkpt lat="21.857177071027415" lon="-102.35906969549752"><ele>1868.0</ele><time>2026-03-22T16:45:23.803Z</time></trkpt><trkpt lat="21.857124921510717" lon="-102.3589888790138"><ele>1868.0</ele><time>2026-03-22T16:45:24.803Z</time></trkpt><trkpt lat="21.857069537750412" lon="-102.35890240409996"><ele>1868.0000000000002</ele><time>2026-03-22T16:45:25.803Z</time></trkpt><trkpt lat="21.857023539288683" lon="-102.35881820597723"><ele>1868.0000000000002</ele><time>2026-03-22T16:45:26.803Z</time></trkpt><trkpt lat="21.856976442047547" lon="-102.35873641632674"><ele>1868.0</ele><time>2026-03-22T16:45:27.803Z</time></trkpt><trkpt lat="21.856924854593224" lon="-102.35865261435417"><ele>1868.0</ele><time>2026-03-22T16:45:28.802Z</time></trkpt><trkpt lat="21.856871788842138" lon="-102.3585734457354"><ele>1868.1666666666665</ele><time>2026-03-22T16:45:29.802Z</time></trkpt><trkpt lat="21.856823431236293" lon="-102.35849337381255"><ele>1868.3333333333333</ele><time>2026-03-22T16:45:30.802Z</time></trkpt><trkpt lat="21.856771584780635" lon="-102.35841360594321"><ele>1868.5</ele><time>2026-03-22T16:45:31.802Z</time></trkpt><trkpt lat="21.85672889554805" lon="-102.35833810755851"><ele>1868.6666666666665</ele><time>2026-03-22T16:45:32.802Z</time></trkpt><trkpt lat="21.85669391823849" lon="-102.35826295695463"><ele>1868.8333333333333</ele><time>2026-03-22T16:45:33.802Z</time></trkpt><trkpt lat="21.856647502806695" lon="-102.35818066402062"><ele>1869.0</ele><time>2026-03-22T16:45:34.802Z</time></trkpt><trkpt lat="21.856596613279056" lon="-102.35810661721132"><ele>1869.3333333333333</ele><time>2026-03-22T16:45:35.802Z</time></trkpt><trkpt lat="21.856553349270502" lon="-102.35803156442692"><ele>1869.6666666666665</ele><time>2026-03-22T16:45:36.802Z</time></trkpt><trkpt lat="21.856510582954773" lon="-102.35795501069497"><ele>1870.0</ele><time>2026-03-22T16:45:37.802Z</time></trkpt><trkpt lat="21.856463594199827" lon="-102.35788706930857"><ele>1870.3333333333333</ele><time>2026-03-22T16:45:38.802Z</time></trkpt><trkpt lat="21.85641609646797" lon="-102.3578135503107"><ele>1870.6666666666665</ele><time>2026-03-22T16:45:39.802Z</time></trkpt><trkpt lat="21.856372584237434" lon="-102.35773746168857"><ele>1871.0</ele><time>2026-03-22T16:45:40.802Z</time></trkpt><trkpt lat="21.85633137122737" lon="-102.35766747586251"><ele>1870.9999999999998</ele><time>2026-03-22T16:45:41.802Z</time></trkpt><trkpt lat="21.856286530419563" lon="-102.3575930613033"><ele>1871.0</ele><time>2026-03-22T16:45:42.802Z</time></trkpt><trkpt lat="21.856245052952858" lon="-102.35752281566698"><ele>1871.0</ele><time>2026-03-22T16:45:43.802Z</time></trkpt><trkpt lat="21.856203670900825" lon="-102.35744999559991"><ele>1871.0</ele><time>2026-03-22T16:45:44.802Z</time></trkpt><trkpt lat="21.85615956144743" lon="-102.35737244542024"><ele>1870.9999999999998</ele><time>2026-03-22T16:45:45.802Z</time></trkpt><trkpt lat="21.856111516291286" lon="-102.35729741988865"><ele>1871.0</ele><time>2026-03-22T16:45:46.802Z</time></trkpt><trkpt lat="21.856069148731812" lon="-102.35722351918865"><ele>1870.9999999999998</ele><time>2026-03-22T16:45:47.802Z</time></trkpt><trkpt lat="21.8560306624891" lon="-102.35714804415316"><ele>1871.0</ele><time>2026-03-22T16:45:48.802Z</time></trkpt><trkpt lat="21.855989831961775" lon="-102.35707736192856"><ele>1871.0</ele><time>2026-03-22T16:45:49.803Z</time></trkpt><trkpt lat="21.855949139884913" lon="-102.35700750436665"><ele>1871.0</ele><time>2026-03-22T16:45:50.802Z</time></trkpt><trkpt lat="21.855904209003366" lon="-102.35693841110397"><ele>1870.9999999999998</ele><time>2026-03-22T16:45:51.802Z</time></trkpt><trkpt lat="21.855860068114403" lon="-102.35686767044646"><ele>1871.0</ele><time>2026-03-22T16:45:52.803Z</time></trkpt><trkpt lat="21.8558144671736" lon="-102.35679025601289"><ele>1870.8333333333333</ele><time>2026-03-22T16:45:53.802Z</time></trkpt><trkpt lat="21.855771861202737" lon="-102.35671982487732"><ele>1870.6666666666665</ele><time>2026-03-22T16:45:54.802Z</time></trkpt><trkpt lat="21.85572160056846" lon="-102.35664267586218"><ele>1870.5</ele><time>2026-03-22T16:45:55.802Z</time></trkpt><trkpt lat="21.855677129253312" lon="-102.35656386949437"><ele>1870.3333333333335</ele><time>2026-03-22T16:45:56.802Z</time></trkpt><trkpt lat="21.85562697292485" lon="-102.3564842676471"><ele>1870.1666666666667</ele><time>2026-03-22T16:45:57.802Z</time></trkpt><trkpt lat="21.85557306282072" lon="-102.35640238873545"><ele>1870.0</ele><time>2026-03-22T16:45:58.803Z</time></trkpt><trkpt lat="21.855536292738652" lon="-102.35632600706735"><ele>1870.0</ele><time>2026-03-22T16:45:59.802Z</time></trkpt><trkpt lat="21.855477909884844" lon="-102.35624871488686"><ele>1870.0</ele><time>2026-03-22T16:46:00.802Z</time></trkpt><trkpt lat="21.85543151468008" lon="-102.35616651153362"><ele>1870.0</ele><time>2026-03-22T16:46:01.802Z</time></trkpt><trkpt lat="21.855378250697573" lon="-102.35608605803776"><ele>1870.0</ele><time>2026-03-22T16:46:02.802Z</time></trkpt><trkpt lat="21.85532086200798" lon="-102.35600635714249"><ele>1870.0</ele><time>2026-03-22T16:46:03.802Z</time></trkpt><trkpt lat="21.85525575983885" lon="-102.35592654378614"><ele>1870.0</ele><time>2026-03-22T16:46:04.802Z</time></trkpt><trkpt lat="21.855195915748666" lon="-102.35585147417119"><ele>1870.0</ele><time>2026-03-22T16:46:05.802Z</time></trkpt><trkpt lat="21.85513526771709" lon="-102.35577277890792"><ele>1870.0</ele><time>2026-03-22T16:46:06.802Z</time></trkpt><trkpt lat="21.855068387058253" lon="-102.35569490272145"><ele>1870.0</ele><time>2026-03-22T16:46:07.802Z</time></trkpt><trkpt lat="21.854999781665246" lon="-102.3556231748682"><ele>1870.0</ele><time>2026-03-22T16:46:08.802Z</time></trkpt><trkpt lat="21.854928449316283" lon="-102.35555515471124"><ele>1869.2</ele><time>2026-03-22T16:46:09.802Z</time></trkpt><trkpt lat="21.854860897469216" lon="-102.3554915375609"><ele>1868.4</ele><time>2026-03-22T16:46:10.802Z</time></trkpt><trkpt lat="21.854785838001327" lon="-102.35542809049151"><ele>1867.6</ele><time>2026-03-22T16:46:11.802Z</time></trkpt><trkpt lat="21.85471486198613" lon="-102.35536241601464"><ele>1866.8</ele><time>2026-03-22T16:46:12.802Z</time></trkpt><trkpt lat="21.854643601556933" lon="-102.35528865890363"><ele>1866.0</ele><time>2026-03-22T16:46:13.802Z</time></trkpt><trkpt lat="21.854567714804503" lon="-102.35522042415244"><ele>1866.0</ele><time>2026-03-22T16:46:14.802Z</time></trkpt><trkpt lat="21.854489623273604" lon="-102.35515477085296"><ele>1866.0</ele><time>2026-03-22T16:46:15.802Z</time></trkpt><trkpt lat="21.85441110912316" lon="-102.35509514744138"><ele>1866.0</ele><time>2026-03-22T16:46:16.802Z</time></trkpt><trkpt lat="21.85433803300054" lon="-102.35502635255921"><ele>1866.0</ele><time>2026-03-22T16:46:17.802Z</time></trkpt><trkpt lat="21.85426250872691" lon="-102.3549664703452"><ele>1866.0</ele><time>2026-03-22T16:46:18.802Z</time></trkpt><trkpt lat="21.854187734848416" lon="-102.3549094219671"><ele>1865.4</ele><time>2026-03-22T16:46:19.802Z</time></trkpt><trkpt lat="21.85410471894417" lon="-102.35484816872525"><ele>1864.8</ele><time>2026-03-22T16:46:20.802Z</time></trkpt><trkpt lat="21.854025018213807" lon="-102.35478880112198"><ele>1864.2000000000003</ele><time>2026-03-22T16:46:21.802Z</time></trkpt><trkpt lat="21.853948203144864" lon="-102.35472105715256"><ele>1863.6000000000001</ele><time>2026-03-22T16:46:22.802Z</time></trkpt><trkpt lat="21.853874218054024" lon="-102.35466121265007"><ele>1863.0</ele><time>2026-03-22T16:46:23.802Z</time></trkpt><trkpt lat="21.853803424790677" lon="-102.35460307581978"><ele>1863.0</ele><time>2026-03-22T16:46:24.802Z</time></trkpt><trkpt lat="21.853730685186786" lon="-102.35454488263544"><ele>1863.0</ele><time>2026-03-22T16:46:25.802Z</time></trkpt><trkpt lat="21.853657506344927" lon="-102.3544856619137"><ele>1863.0</ele><time>2026-03-22T16:46:26.802Z</time></trkpt><trkpt lat="21.853587463410232" lon="-102.35442727564711"><ele>1863.0</ele><time>2026-03-22T16:46:27.802Z</time></trkpt><trkpt lat="21.853517433343587" lon="-102.35436680523429"><ele>1863.0</ele><time>2026-03-22T16:46:28.802Z</time></trkpt><trkpt lat="21.853448057398804" lon="-102.35430988346944"><ele>1863.0</ele><time>2026-03-22T16:46:29.802Z</time></trkpt><trkpt lat="21.85337104040106" lon="-102.35425922989916"><ele>1863.0</ele><time>2026-03-22T16:46:30.801Z</time></trkpt><trkpt lat="21.853301852911724" lon="-102.35420148791536"><ele>1863.0</ele><time>2026-03-22T16:46:31.801Z</time></trkpt><trkpt lat="21.853235941591215" lon="-102.35414672465252"><ele>1863.0</ele><time>2026-03-22T16:46:32.801Z</time></trkpt><trkpt lat="21.853174145437293" lon="-102.354089505111"><ele>1863.0</ele><time>2026-03-22T16:46:33.801Z</time></trkpt><trkpt lat="21.853096806295966" lon="-102.3540368592484"><ele>1863.0</ele><time>2026-03-22T16:46:34.801Z</time></trkpt><trkpt lat="21.853026723772448" lon="-102.35398561277692"><ele>1863.0</ele><time>2026-03-22T16:46:35.801Z</time></trkpt><trkpt lat="21.85295827751831" lon="-102.35393846828015"><ele>1863.0000000000002</ele><time>2026-03-22T16:46:36.801Z</time></trkpt><trkpt lat="21.852892642216542" lon="-102.35388308384647"><ele>1863.0</ele><time>2026-03-22T16:46:37.801Z</time></trkpt><trkpt lat="21.85283166026862" lon="-102.35382950140998"><ele>1863.0000000000002</ele><time>2026-03-22T16:46:38.801Z</time></trkpt><trkpt lat="21.85277003657311" lon="-102.35378176178426"><ele>1863.0000000000002</ele><time>2026-03-22T16:46:39.801Z</time></trkpt><trkpt lat="21.852714793635364" lon="-102.35373646221831"><ele>1863.0</ele><time>2026-03-22T16:46:40.801Z</time></trkpt><trkpt lat="21.852663951607617" lon="-102.3536828365092"><ele>1863.0000000000002</ele><time>2026-03-22T16:46:41.801Z</time></trkpt><trkpt lat="21.85261029463283" lon="-102.35363977301962"><ele>1863.0000000000002</ele><time>2026-03-22T16:46:42.801Z</time></trkpt><trkpt lat="21.852550534449225" lon="-102.35358960053597"><ele>1863.1428571428573</ele><time>2026-03-22T16:46:43.801Z</time></trkpt><trkpt lat="21.85250239106454" lon="-102.3535328200454"><ele>1863.2857142857142</ele><time>2026-03-22T16:46:44.801Z</time></trkpt><trkpt lat="21.85245582758474" lon="-102.3534817342791"><ele>1863.4285714285716</ele><time>2026-03-22T16:46:45.801Z</time></trkpt><trkpt lat="21.852399990356574" lon="-102.3534156975617"><ele>1863.5714285714287</ele><time>2026-03-22T16:46:46.801Z</time></trkpt><trkpt lat="21.85234951265599" lon="-102.35335784044688"><ele>1863.7142857142858</ele><time>2026-03-22T16:46:47.801Z</time></trkpt><trkpt lat="21.852301955291754" lon="-102.35329862757118"><ele>1863.857142857143</ele><time>2026-03-22T16:46:48.801Z</time></trkpt><trkpt lat="21.852256248441048" lon="-102.35323780533578"><ele>1864.0</ele><time>2026-03-22T16:46:49.801Z</time></trkpt><trkpt lat="21.852213767469653" lon="-102.3531787478435"><ele>1864.0000000000002</ele><time>2026-03-22T16:46:50.801Z</time></trkpt><trkpt lat="21.852175387675608" lon="-102.35312143551533"><ele>1864.0</ele><time>2026-03-22T16:46:51.801Z</time></trkpt><trkpt lat="21.852124021046514" lon="-102.35304937130202"><ele>1864.0</ele><time>2026-03-22T16:46:53.801Z</time></trkpt><trkpt lat="21.85210220307794" lon="-102.35297540192916"><ele>1864.0</ele><time>2026-03-22T16:46:55.801Z</time></trkpt><trkpt lat="21.85214889256239" lon="-102.35292659323437"><ele>1864.0000000000002</ele><time>2026-03-22T16:46:57.801Z</time></trkpt><trkpt lat="21.852238834573797" lon="-102.35289484855478"><ele>1864.0</ele><time>2026-03-22T16:46:59.801Z</time></trkpt><trkpt lat="21.852352900723396" lon="-102.3528325280226"><ele>1864.5000000000002</ele><time>2026-03-22T16:47:01.801Z</time></trkpt><trkpt lat="21.852400798804975" lon="-102.35278427440048"><ele>1865.0</ele><time>2026-03-22T16:47:02.801Z</time></trkpt><trkpt lat="21.85245634508041" lon="-102.35270311338273"><ele>1865.5</ele><time>2026-03-22T16:47:03.801Z</time></trkpt><trkpt lat="21.85250057312915" lon="-102.35264485332452"><ele>1866.0</ele><time>2026-03-22T16:47:04.801Z</time></trkpt><trkpt lat="21.852559484011763" lon="-102.35258325655734"><ele>1866.5000000000002</ele><time>2026-03-22T16:47:05.8Z</time></trkpt><trkpt lat="21.852618039369663" lon="-102.35252758672549"><ele>1867.0</ele><time>2026-03-22T16:47:06.8Z</time></trkpt><trkpt lat="21.852668129711933" lon="-102.35246882056312"><ele>1867.0</ele><time>2026-03-22T16:47:07.8Z</time></trkpt><trkpt lat="21.852728381762024" lon="-102.3524108453506"><ele>1867.0</ele><time>2026-03-22T16:47:08.8Z</time></trkpt><trkpt lat="21.852780803728628" lon="-102.35235461249634"><ele>1867.0</ele><time>2026-03-22T16:47:09.8Z</time></trkpt><trkpt lat="21.85283215386179" lon="-102.3523024178962"><ele>1867.0</ele><time>2026-03-22T16:47:10.8Z</time></trkpt><trkpt lat="21.852884888672545" lon="-102.35225335151884"><ele>1867.0</ele><time>2026-03-22T16:47:11.8Z</time></trkpt><trkpt lat="21.8529419606915" lon="-102.35220236974995"><ele>1867.0</ele><time>2026-03-22T16:47:12.8Z</time></trkpt><trkpt lat="21.85299779076968" lon="-102.3521516177328"><ele>1867.0</ele><time>2026-03-22T16:47:13.8Z</time></trkpt><trkpt lat="21.853055366736967" lon="-102.35209779338525"><ele>1867.4285714285713</ele><time>2026-03-22T16:47:14.8Z</time></trkpt><trkpt lat="21.853113304003816" lon="-102.35204565335471"><ele>1867.8571428571431</ele><time>2026-03-22T16:47:15.8Z</time></trkpt><trkpt lat="21.853169210629776" lon="-102.3519891759638"><ele>1868.2857142857144</ele><time>2026-03-22T16:47:16.8Z</time></trkpt><trkpt lat="21.853224374248843" lon="-102.35192957479534"><ele>1868.7142857142858</ele><time>2026-03-22T16:47:17.8Z</time></trkpt><trkpt lat="21.853276299555283" lon="-102.35187905445724"><ele>1869.1428571428573</ele><time>2026-03-22T16:47:18.8Z</time></trkpt><trkpt lat="21.853333015938187" lon="-102.35182709344662"><ele>1869.571428571429</ele><time>2026-03-22T16:47:19.8Z</time></trkpt><trkpt lat="21.85338619593952" lon="-102.35177082793965"><ele>1870.0000000000002</ele><time>2026-03-22T16:47:20.8Z</time></trkpt><trkpt lat="21.853444481501157" lon="-102.3517174258427"><ele>1870.0000000000002</ele><time>2026-03-22T16:47:21.8Z</time></trkpt><trkpt lat="21.85349766980559" lon="-102.35166764421363"><ele>1870.0</ele><time>2026-03-22T16:47:22.8Z</time></trkpt><trkpt lat="21.853549945272608" lon="-102.35162085116882"><ele>1870.0000000000002</ele><time>2026-03-22T16:47:23.8Z</time></trkpt><trkpt lat="21.853595150759805" lon="-102.35156750267883"><ele>1870.0000000000002</ele><time>2026-03-22T16:47:24.8Z</time></trkpt><trkpt lat="21.8536490196318" lon="-102.3515147828607"><ele>1870.0</ele><time>2026-03-22T16:47:25.8Z</time></trkpt><trkpt lat="21.85370248123332" lon="-102.35146031592502"><ele>1870.0000000000002</ele><time>2026-03-22T16:47:26.8Z</time></trkpt><trkpt lat="21.853756957635742" lon="-102.35141476808047"><ele>1870.0000000000002</ele><time>2026-03-22T16:47:27.8Z</time></trkpt><trkpt lat="21.853809659070397" lon="-102.35136031517384"><ele>1870.4285714285716</ele><time>2026-03-22T16:47:28.8Z</time></trkpt><trkpt lat="21.853859393271254" lon="-102.35130854774927"><ele>1870.857142857143</ele><time>2026-03-22T16:47:29.8Z</time></trkpt><trkpt lat="21.85391516808198" lon="-102.35126080220297"><ele>1871.2857142857142</ele><time>2026-03-22T16:47:30.8Z</time></trkpt><trkpt lat="21.853971241952213" lon="-102.35121150819252"><ele>1871.7142857142858</ele><time>2026-03-22T16:47:31.8Z</time></trkpt><trkpt lat="21.854024526576076" lon="-102.35116107638387"><ele>1872.1428571428569</ele><time>2026-03-22T16:47:32.8Z</time></trkpt><trkpt lat="21.854074767153516" lon="-102.35110988075425"><ele>1872.5714285714284</ele><time>2026-03-22T16:47:33.8Z</time></trkpt><trkpt lat="21.854135446675496" lon="-102.35105192134607"><ele>1873.0</ele><time>2026-03-22T16:47:34.8Z</time></trkpt><trkpt lat="21.85423561741878" lon="-102.350949316177"><ele>1873.0</ele><time>2026-03-22T16:47:36.8Z</time></trkpt><trkpt lat="21.854285623088312" lon="-102.35089946911025"><ele>1872.9999999999998</ele><time>2026-03-22T16:47:37.8Z</time></trkpt><trkpt lat="21.854339425682973" lon="-102.35084613726713"><ele>1873.0</ele><time>2026-03-22T16:47:38.8Z</time></trkpt><trkpt lat="21.854387526825732" lon="-102.35079597430067"><ele>1873.0</ele><time>2026-03-22T16:47:39.8Z</time></trkpt><trkpt lat="21.85443646242472" lon="-102.35073853334889"><ele>1872.9999999999998</ele><time>2026-03-22T16:47:40.799Z</time></trkpt><trkpt lat="21.85449093669755" lon="-102.35068472881461"><ele>1873.0</ele><time>2026-03-22T16:47:41.799Z</time></trkpt><trkpt lat="21.854537957875056" lon="-102.35063766722732"><ele>1873.0</ele><time>2026-03-22T16:47:42.799Z</time></trkpt><trkpt lat="21.854601035086304" lon="-102.3505878354582"><ele>1873.6666666666667</ele><time>2026-03-22T16:47:43.799Z</time></trkpt><trkpt lat="21.854650389043417" lon="-102.35053788360909"><ele>1874.3333333333335</ele><time>2026-03-22T16:47:44.799Z</time></trkpt><trkpt lat="21.854706731446907" lon="-102.35048013952739"><ele>1875.0</ele><time>2026-03-22T16:47:45.799Z</time></trkpt><trkpt lat="21.854767269582105" lon="-102.35043149494064"><ele>1875.6666666666665</ele><time>2026-03-22T16:47:46.799Z</time></trkpt><trkpt lat="21.85481585914417" lon="-102.35037391320986"><ele>1876.3333333333333</ele><time>2026-03-22T16:47:47.799Z</time></trkpt><trkpt lat="21.854868493433795" lon="-102.35033143486338"><ele>1877.0</ele><time>2026-03-22T16:47:48.799Z</time></trkpt><trkpt lat="21.854975421453386" lon="-102.35023787450035"><ele>1877.0</ele><time>2026-03-22T16:47:50.799Z</time></trkpt><trkpt lat="21.855028139426878" lon="-102.35017807975814"><ele>1876.9999999999998</ele><time>2026-03-22T16:47:51.799Z</time></trkpt><trkpt lat="21.85513014825974" lon="-102.35007519634068"><ele>1876.9999999999998</ele><time>2026-03-22T16:47:53.8Z</time></trkpt><trkpt lat="21.855176191890127" lon="-102.35002390418781"><ele>1877.0</ele><time>2026-03-22T16:47:54.8Z</time></trkpt><trkpt lat="21.855275390601182" lon="-102.34992998208395"><ele>1877.0</ele><time>2026-03-22T16:47:56.8Z</time></trkpt><trkpt lat="21.85532680644682" lon="-102.34988017268418"><ele>1877.0000000000002</ele><time>2026-03-22T16:47:57.8Z</time></trkpt><trkpt lat="21.855379831108223" lon="-102.34983266194453"><ele>1877.0</ele><time>2026-03-22T16:47:58.8Z</time></trkpt><trkpt lat="21.85543139046999" lon="-102.34978853047942"><ele>1877.0000000000002</ele><time>2026-03-22T16:47:59.799Z</time></trkpt><trkpt lat="21.85548199429998" lon="-102.34974418315812"><ele>1877.0000000000002</ele><time>2026-03-22T16:48:00.799Z</time></trkpt><trkpt lat="21.855535439251955" lon="-102.3496920335762"><ele>1877.0</ele><time>2026-03-22T16:48:01.8Z</time></trkpt><trkpt lat="21.855589777226985" lon="-102.34963459165292"><ele>1877.0000000000002</ele><time>2026-03-22T16:48:02.8Z</time></trkpt><trkpt lat="21.855640171279845" lon="-102.34958729336383"><ele>1877.0000000000002</ele><time>2026-03-22T16:48:03.8Z</time></trkpt><trkpt lat="21.855688957112832" lon="-102.34954335281971"><ele>1877.4999999999998</ele><time>2026-03-22T16:48:04.8Z</time></trkpt><trkpt lat="21.855743833497687" lon="-102.3494890195634"><ele>1878.0</ele><time>2026-03-22T16:48:05.8Z</time></trkpt><trkpt lat="21.855803729152175" lon="-102.3494394040831"><ele>1878.5</ele><time>2026-03-22T16:48:06.8Z</time></trkpt><trkpt lat="21.855906943650048" lon="-102.34933621474941"><ele>1879.0</ele><time>2026-03-22T16:48:08.8Z</time></trkpt><trkpt lat="21.855956442226542" lon="-102.34928101879028"><ele>1879.4999999999998</ele><time>2026-03-22T16:48:09.8Z</time></trkpt><trkpt lat="21.85600702597068" lon="-102.34922882558512"><ele>1880.0</ele><time>2026-03-22T16:48:10.8Z</time></trkpt><trkpt lat="21.856064056718495" lon="-102.34917624370233"><ele>1880.0</ele><time>2026-03-22T16:48:11.8Z</time></trkpt><trkpt lat="21.856117066707874" lon="-102.34912661102189"><ele>1879.9999999999998</ele><time>2026-03-22T16:48:12.8Z</time></trkpt><trkpt lat="21.856176922561996" lon="-102.34907115893296"><ele>1880.0</ele><time>2026-03-22T16:48:13.8Z</time></trkpt><trkpt lat="21.85623378449071" lon="-102.34902091674448"><ele>1880.0</ele><time>2026-03-22T16:48:14.8Z</time></trkpt><trkpt lat="21.85628359874461" lon="-102.34896100268415"><ele>1879.9999999999998</ele><time>2026-03-22T16:48:15.8Z</time></trkpt><trkpt lat="21.856339856094678" lon="-102.34891013725293"><ele>1880.0</ele><time>2026-03-22T16:48:16.8Z</time></trkpt><trkpt lat="21.856392822363674" lon="-102.34886053767053"><ele>1880.0</ele><time>2026-03-22T16:48:17.8Z</time></trkpt><trkpt lat="21.856451417215144" lon="-102.34880867722907"><ele>1880.4285714285713</ele><time>2026-03-22T16:48:18.8Z</time></trkpt><trkpt lat="21.856504076008225" lon="-102.3487532045369"><ele>1880.8571428571427</ele><time>2026-03-22T16:48:19.8Z</time></trkpt><trkpt lat="21.85655401851059" lon="-102.34869961002478"><ele>1881.2857142857142</ele><time>2026-03-22T16:48:20.8Z</time></trkpt><trkpt lat="21.856608770220607" lon="-102.34864659576648"><ele>1881.7142857142858</ele><time>2026-03-22T16:48:21.8Z</time></trkpt><trkpt lat="21.856661023205756" lon="-102.34859260165182"><ele>1882.142857142857</ele><time>2026-03-22T16:48:22.8Z</time></trkpt><trkpt lat="21.85671392767828" lon="-102.34853763927977"><ele>1882.5714285714284</ele><time>2026-03-22T16:48:23.8Z</time></trkpt><trkpt lat="21.856763685617285" lon="-102.34848229534265"><ele>1883.0</ele><time>2026-03-22T16:48:24.8Z</time></trkpt><trkpt lat="21.856817082816534" lon="-102.34842382039628"><ele>1882.9999999999998</ele><time>2026-03-22T16:48:25.8Z</time></trkpt><trkpt lat="21.856871951602887" lon="-102.34836181574707"><ele>1883.0</ele><time>2026-03-22T16:48:26.8Z</time></trkpt><trkpt lat="21.856919652412586" lon="-102.34830230260157"><ele>1883.0</ele><time>2026-03-22T16:48:27.8Z</time></trkpt><trkpt lat="21.85696935725848" lon="-102.34823789091212"><ele>1883.0</ele><time>2026-03-22T16:48:28.8Z</time></trkpt><trkpt lat="21.85701483621939" lon="-102.34817125971605"><ele>1882.9999999999998</ele><time>2026-03-22T16:48:29.8Z</time></trkpt><trkpt lat="21.857057583849883" lon="-102.34810197978817"><ele>1883.0</ele><time>2026-03-22T16:48:30.8Z</time></trkpt><trkpt lat="21.85710555549191" lon="-102.34803014681106"><ele>1882.9999999999998</ele><time>2026-03-22T16:48:31.8Z</time></trkpt><trkpt lat="21.8571483557814" lon="-102.34795468323819"><ele>1883.0</ele><time>2026-03-22T16:48:32.8Z</time></trkpt><trkpt lat="21.85719227420112" lon="-102.34787297964702"><ele>1883.0</ele><time>2026-03-22T16:48:33.799Z</time></trkpt><trkpt lat="21.857228656365287" lon="-102.34779457196257"><ele>1883.0</ele><time>2026-03-22T16:48:34.799Z</time></trkpt><trkpt lat="21.857260672414906" lon="-102.34771532736303"><ele>1882.9999999999998</ele><time>2026-03-22T16:48:35.799Z</time></trkpt><trkpt lat="21.857293060611482" lon="-102.34763013240418"><ele>1883.0</ele><time>2026-03-22T16:48:36.799Z</time></trkpt><trkpt lat="21.857320647669876" lon="-102.34755149570054"><ele>1882.9999999999998</ele><time>2026-03-22T16:48:37.799Z</time></trkpt><trkpt lat="21.857347016968706" lon="-102.34745523200482"><ele>1883.0</ele><time>2026-03-22T16:48:38.799Z</time></trkpt><trkpt lat="21.857371446847907" lon="-102.34736985744645"><ele>1883.0</ele><time>2026-03-22T16:48:39.799Z</time></trkpt><trkpt lat="21.857391698668682" lon="-102.34728367298425"><ele>1883.0</ele><time>2026-03-22T16:48:40.799Z</time></trkpt><trkpt lat="21.8574210605248" lon="-102.34720151992065"><ele>1882.9999999999998</ele><time>2026-03-22T16:48:41.799Z</time></trkpt><trkpt lat="21.857452007129805" lon="-102.34712124280549"><ele>1883.0</ele><time>2026-03-22T16:48:42.799Z</time></trkpt><trkpt lat="21.85748237626596" lon="-102.34704023775829"><ele>1883.1666666666665</ele><time>2026-03-22T16:48:43.799Z</time></trkpt><trkpt lat="21.85750329725059" lon="-102.34695601549869"><ele>1883.3333333333333</ele><time>2026-03-22T16:48:44.799Z</time></trkpt><trkpt lat="21.857526308003152" lon="-102.3468668966176"><ele>1883.5</ele><time>2026-03-22T16:48:45.799Z</time></trkpt><trkpt lat="21.857552704307203" lon="-102.34677860996054"><ele>1883.6666666666665</ele><time>2026-03-22T16:48:46.799Z</time></trkpt><trkpt lat="21.857579421940095" lon="-102.34668847727171"><ele>1883.8333333333333</ele><time>2026-03-22T16:48:47.799Z</time></trkpt><trkpt lat="21.857604373124857" lon="-102.34659871508003"><ele>1884.0</ele><time>2026-03-22T16:48:48.799Z</time></trkpt><trkpt lat="21.857632608300296" lon="-102.34651017229042"><ele>1884.0</ele><time>2026-03-22T16:48:49.799Z</time></trkpt><trkpt lat="21.85765549314258" lon="-102.3464190362776"><ele>1884.0</ele><time>2026-03-22T16:48:50.799Z</time></trkpt><trkpt lat="21.85768751069299" lon="-102.34632451026106"><ele>1884.0</ele><time>2026-03-22T16:48:51.799Z</time></trkpt><trkpt lat="21.857709349780258" lon="-102.34623125748237"><ele>1884.0</ele><time>2026-03-22T16:48:52.799Z</time></trkpt><trkpt lat="21.857726439576076" lon="-102.34613371912941"><ele>1884.0</ele><time>2026-03-22T16:48:53.799Z</time></trkpt><trkpt lat="21.857752983648762" lon="-102.34603610811821"><ele>1883.8000000000002</ele><time>2026-03-22T16:48:54.799Z</time></trkpt><trkpt lat="21.85778228317097" lon="-102.3459399365418"><ele>1883.6000000000001</ele><time>2026-03-22T16:48:55.799Z</time></trkpt><trkpt lat="21.857813322802887" lon="-102.34584056395548"><ele>1883.4</ele><time>2026-03-22T16:48:56.799Z</time></trkpt><trkpt lat="21.857842020542705" lon="-102.3457436351166"><ele>1883.2</ele><time>2026-03-22T16:48:57.799Z</time></trkpt><trkpt lat="21.85786686964992" lon="-102.34565432729852"><ele>1883.0</ele><time>2026-03-22T16:48:58.799Z</time></trkpt><trkpt lat="21.857888690542726" lon="-102.34555031041174"><ele>1882.8000000000002</ele><time>2026-03-22T16:48:59.799Z</time></trkpt><trkpt lat="21.85790886003878" lon="-102.3454470699175"><ele>1882.6000000000001</ele><time>2026-03-22T16:49:00.799Z</time></trkpt><trkpt lat="21.857929636813054" lon="-102.34535642839417"><ele>1882.3999999999999</ele><time>2026-03-22T16:49:01.799Z</time></trkpt><trkpt lat="21.857953107734996" lon="-102.3452478361553"><ele>1882.1999999999998</ele><time>2026-03-22T16:49:02.799Z</time></trkpt><trkpt lat="21.857972119823998" lon="-102.345146773518"><ele>1882.0</ele><time>2026-03-22T16:49:03.799Z</time></trkpt><trkpt lat="21.857996950705584" lon="-102.34504119260335"><ele>1882.0</ele><time>2026-03-22T16:49:04.799Z</time></trkpt><trkpt lat="21.85802599223302" lon="-102.34493677839521"><ele>1881.9999999999998</ele><time>2026-03-22T16:49:05.799Z</time></trkpt><trkpt lat="21.85805830128164" lon="-102.3448420217802"><ele>1881.9999999999998</ele><time>2026-03-22T16:49:06.799Z</time></trkpt><trkpt lat="21.858093014624945" lon="-102.34473489902155"><ele>1882.0</ele><time>2026-03-22T16:49:07.799Z</time></trkpt><trkpt lat="21.85811460644491" lon="-102.34463153131145"><ele>1882.0</ele><time>2026-03-22T16:49:08.798Z</time></trkpt><trkpt lat="21.85814279512601" lon="-102.34453561657443"><ele>1881.8</ele><time>2026-03-22T16:49:09.798Z</time></trkpt><trkpt lat="21.85817255263142" lon="-102.34442588633874"><ele>1881.6</ele><time>2026-03-22T16:49:10.798Z</time></trkpt><trkpt lat="21.858197637334023" lon="-102.34432457040197"><ele>1881.3999999999999</ele><time>2026-03-22T16:49:11.798Z</time></trkpt><trkpt lat="21.858219166757006" lon="-102.34421452410976"><ele>1881.1999999999998</ele><time>2026-03-22T16:49:12.798Z</time></trkpt><trkpt lat="21.858247053020165" lon="-102.34411287715241"><ele>1881.0</ele><time>2026-03-22T16:49:13.798Z</time></trkpt><trkpt lat="21.85827207772595" lon="-102.34400339447737"><ele>1881.0</ele><time>2026-03-22T16:49:14.798Z</time></trkpt><trkpt lat="21.858303296754347" lon="-102.3438923248646"><ele>1881.0</ele><time>2026-03-22T16:49:15.798Z</time></trkpt><trkpt lat="21.858333002447395" lon="-102.34378805582516"><ele>1881.0</ele><time>2026-03-22T16:49:16.798Z</time></trkpt><trkpt lat="21.858354696411286" lon="-102.34368154534444"><ele>1881.0</ele><time>2026-03-22T16:49:17.798Z</time></trkpt><trkpt lat="21.858371216227187" lon="-102.34357487372257"><ele>1881.0</ele><time>2026-03-22T16:49:18.798Z</time></trkpt><trkpt lat="21.858398179410838" lon="-102.34346973171968"><ele>1880.8</ele><time>2026-03-22T16:49:19.798Z</time></trkpt><trkpt lat="21.858422758101778" lon="-102.34336170737006"><ele>1880.6</ele><time>2026-03-22T16:49:20.798Z</time></trkpt><trkpt lat="21.85844585056535" lon="-102.34325690320937"><ele>1880.4</ele><time>2026-03-22T16:49:21.798Z</time></trkpt><trkpt lat="21.858467008862288" lon="-102.34314055088963"><ele>1880.2</ele><time>2026-03-22T16:49:22.798Z</time></trkpt><trkpt lat="21.858486429548762" lon="-102.34302578274534"><ele>1880.0</ele><time>2026-03-22T16:49:23.798Z</time></trkpt><trkpt lat="21.858509445036468" lon="-102.34291832166312"><ele>1878.8</ele><time>2026-03-22T16:49:24.798Z</time></trkpt><trkpt lat="21.858525364630236" lon="-102.34280852920337"><ele>1877.6</ele><time>2026-03-22T16:49:25.798Z</time></trkpt><trkpt lat="21.85854824536813" lon="-102.34269638419167"><ele>1876.4</ele><time>2026-03-22T16:49:26.798Z</time></trkpt><trkpt lat="21.85857353961923" lon="-102.34258214080133"><ele>1875.2</ele><time>2026-03-22T16:49:27.798Z</time></trkpt><trkpt lat="21.858591440189414" lon="-102.34247219646821"><ele>1874.0</ele><time>2026-03-22T16:49:28.798Z</time></trkpt><trkpt lat="21.858613291746714" lon="-102.34235737399679"><ele>1874.0</ele><time>2026-03-22T16:49:29.798Z</time></trkpt><trkpt lat="21.858634819471987" lon="-102.34223960211322"><ele>1874.0</ele><time>2026-03-22T16:49:30.798Z</time></trkpt><trkpt lat="21.858650544725986" lon="-102.34212704413753"><ele>1874.0</ele><time>2026-03-22T16:49:31.798Z</time></trkpt><trkpt lat="21.858673215728803" lon="-102.34201384115322"><ele>1874.0</ele><time>2026-03-22T16:49:32.798Z</time></trkpt><trkpt lat="21.858696285476565" lon="-102.34190440522136"><ele>1874.0</ele><time>2026-03-22T16:49:33.798Z</time></trkpt><trkpt lat="21.85871460060027" lon="-102.34178796902042"><ele>1873.8000000000002</ele><time>2026-03-22T16:49:34.798Z</time></trkpt><trkpt lat="21.85873140984526" lon="-102.34167383057698"><ele>1873.6000000000001</ele><time>2026-03-22T16:49:35.798Z</time></trkpt><trkpt lat="21.858753283080684" lon="-102.34155781064192"><ele>1873.4</ele><time>2026-03-22T16:49:36.798Z</time></trkpt><trkpt lat="21.85877382780584" lon="-102.341433267835"><ele>1873.2</ele><time>2026-03-22T16:49:37.798Z</time></trkpt><trkpt lat="21.858793371100894" lon="-102.3413199133372"><ele>1873.0</ele><time>2026-03-22T16:49:38.798Z</time></trkpt><trkpt lat="21.858815365503997" lon="-102.34120206415388"><ele>1872.2</ele><time>2026-03-22T16:49:39.798Z</time></trkpt><trkpt lat="21.858839737952614" lon="-102.3410865612931"><ele>1871.4</ele><time>2026-03-22T16:49:40.798Z</time></trkpt><trkpt lat="21.858866708941207" lon="-102.3409776047195"><ele>1870.6000000000001</ele><time>2026-03-22T16:49:41.798Z</time></trkpt><trkpt lat="21.85891492038723" lon="-102.34085596803014"><ele>1869.8000000000002</ele><time>2026-03-22T16:49:42.798Z</time></trkpt><trkpt lat="21.858954397699243" lon="-102.34074757598312"><ele>1869.0</ele><time>2026-03-22T16:49:43.797Z</time></trkpt><trkpt lat="21.859010981765298" lon="-102.34064353061675"><ele>1868.8000000000002</ele><time>2026-03-22T16:49:44.797Z</time></trkpt><trkpt lat="21.859067310254893" lon="-102.34053945903841"><ele>1868.6000000000001</ele><time>2026-03-22T16:49:45.797Z</time></trkpt><trkpt lat="21.85913862727283" lon="-102.34045110285152"><ele>1868.4</ele><time>2026-03-22T16:49:46.797Z</time></trkpt><trkpt lat="21.859213777655015" lon="-102.34036144299169"><ele>1868.2</ele><time>2026-03-22T16:49:47.797Z</time></trkpt><trkpt lat="21.859296953878207" lon="-102.34028188402431"><ele>1868.0</ele><time>2026-03-22T16:49:48.797Z</time></trkpt><trkpt lat="21.85937716166562" lon="-102.34020535837067"><ele>1868.8000000000002</ele><time>2026-03-22T16:49:49.797Z</time></trkpt><trkpt lat="21.859462395442286" lon="-102.34014209702083"><ele>1869.6000000000001</ele><time>2026-03-22T16:49:50.797Z</time></trkpt><trkpt lat="21.859555671168334" lon="-102.34007123761043"><ele>1870.3999999999999</ele><time>2026-03-22T16:49:51.797Z</time></trkpt><trkpt lat="21.859645572748637" lon="-102.34000075111183"><ele>1871.1999999999998</ele><time>2026-03-22T16:49:52.797Z</time></trkpt><trkpt lat="21.85973616344494" lon="-102.33993054182201"><ele>1872.0</ele><time>2026-03-22T16:49:53.797Z</time></trkpt><trkpt lat="21.859822010271202" lon="-102.33986265101922"><ele>1872.0</ele><time>2026-03-22T16:49:54.797Z</time></trkpt><trkpt lat="21.85989633943057" lon="-102.33979893426562"><ele>1871.9999999999998</ele><time>2026-03-22T16:49:55.797Z</time></trkpt><trkpt lat="21.85999060113065" lon="-102.33972327941343"><ele>1871.9999999999998</ele><time>2026-03-22T16:49:56.797Z</time></trkpt><trkpt lat="21.860081033698478" lon="-102.33965920765233"><ele>1872.0</ele><time>2026-03-22T16:49:57.797Z</time></trkpt><trkpt lat="21.86016918180305" lon="-102.33959097225437"><ele>1872.0</ele><time>2026-03-22T16:49:58.798Z</time></trkpt><trkpt lat="21.860256079350023" lon="-102.33952363591415"><ele>1872.3999999999999</ele><time>2026-03-22T16:49:59.798Z</time></trkpt><trkpt lat="21.860345658842224" lon="-102.33945212191188"><ele>1872.7999999999997</ele><time>2026-03-22T16:50:00.798Z</time></trkpt><trkpt lat="21.86043005852536" lon="-102.33938440124125"><ele>1873.2</ele><time>2026-03-22T16:50:01.798Z</time></trkpt><trkpt lat="21.860508520295042" lon="-102.33932096083788"><ele>1873.6</ele><time>2026-03-22T16:50:02.797Z</time></trkpt><trkpt lat="21.86059315979373" lon="-102.33925111776574"><ele>1874.0</ele><time>2026-03-22T16:50:03.797Z</time></trkpt><trkpt lat="21.86067146585794" lon="-102.33917997013258"><ele>1874.0</ele><time>2026-03-22T16:50:04.798Z</time></trkpt><trkpt lat="21.860756145290438" lon="-102.33910366327088"><ele>1874.0</ele><time>2026-03-22T16:50:05.797Z</time></trkpt><trkpt lat="21.860830185479387" lon="-102.33903348238769"><ele>1874.0</ele><time>2026-03-22T16:50:06.797Z</time></trkpt><trkpt lat="21.860911647341087" lon="-102.33894761439356"><ele>1874.0</ele><time>2026-03-22T16:50:07.797Z</time></trkpt><trkpt lat="21.860992020479728" lon="-102.33888307985062"><ele>1874.0</ele><time>2026-03-22T16:50:08.797Z</time></trkpt><trkpt lat="21.861071377371513" lon="-102.33880594636933"><ele>1873.0</ele><time>2026-03-22T16:50:09.797Z</time></trkpt><trkpt lat="21.86115549063711" lon="-102.33872885181331"><ele>1872.0</ele><time>2026-03-22T16:50:10.797Z</time></trkpt><trkpt lat="21.861238543288504" lon="-102.33865416263981"><ele>1871.0</ele><time>2026-03-22T16:50:11.798Z</time></trkpt><trkpt lat="21.8613087891067" lon="-102.338568010284"><ele>1870.0</ele><time>2026-03-22T16:50:12.798Z</time></trkpt><trkpt lat="21.86139632797428" lon="-102.33849213822613"><ele>1869.0</ele><time>2026-03-22T16:50:13.798Z</time></trkpt><trkpt lat="21.8614778224833" lon="-102.33841473681353"><ele>1869.0</ele><time>2026-03-22T16:50:14.798Z</time></trkpt><trkpt lat="21.861552604326953" lon="-102.33832590836872"><ele>1869.0</ele><time>2026-03-22T16:50:15.798Z</time></trkpt><trkpt lat="21.861633717878497" lon="-102.33824732981873"><ele>1869.0</ele><time>2026-03-22T16:50:16.798Z</time></trkpt><trkpt lat="21.861711307004068" lon="-102.3381656427013"><ele>1869.0</ele><time>2026-03-22T16:50:17.798Z</time></trkpt><trkpt lat="21.861796570565627" lon="-102.33808564153036"><ele>1869.0</ele><time>2026-03-22T16:50:18.798Z</time></trkpt><trkpt lat="21.861873976050727" lon="-102.33800377127332"><ele>1870.2</ele><time>2026-03-22T16:50:19.798Z</time></trkpt><trkpt lat="21.86195366054884" lon="-102.33792247679818"><ele>1871.4</ele><time>2026-03-22T16:50:20.798Z</time></trkpt><trkpt lat="21.86203053302684" lon="-102.3378387853587"><ele>1872.6</ele><time>2026-03-22T16:50:21.798Z</time></trkpt><trkpt lat="21.862108016925617" lon="-102.33776023838186"><ele>1873.8</ele><time>2026-03-22T16:50:22.798Z</time></trkpt><trkpt lat="21.862187393910972" lon="-102.33768403642932"><ele>1875.0</ele><time>2026-03-22T16:50:23.798Z</time></trkpt><trkpt lat="21.862266254381165" lon="-102.3376131238201"><ele>1875.0</ele><time>2026-03-22T16:50:24.798Z</time></trkpt><trkpt lat="21.86234515709346" lon="-102.33753219186181"><ele>1875.0</ele><time>2026-03-22T16:50:25.798Z</time></trkpt><trkpt lat="21.862423839736127" lon="-102.33745979035969"><ele>1875.0</ele><time>2026-03-22T16:50:26.798Z</time></trkpt><trkpt lat="21.862496833720556" lon="-102.33737204093934"><ele>1875.0</ele><time>2026-03-22T16:50:27.798Z</time></trkpt><trkpt lat="21.86257337614025" lon="-102.33729206284974"><ele>1875.0</ele><time>2026-03-22T16:50:28.798Z</time></trkpt><trkpt lat="21.862644528048413" lon="-102.33721372148675"><ele>1874.6</ele><time>2026-03-22T16:50:29.798Z</time></trkpt><trkpt lat="21.862720556528803" lon="-102.33712646161791"><ele>1874.2</ele><time>2026-03-22T16:50:30.798Z</time></trkpt><trkpt lat="21.86278967513963" lon="-102.33702925573836"><ele>1873.8000000000002</ele><time>2026-03-22T16:50:31.798Z</time></trkpt><trkpt lat="21.862859776368396" lon="-102.33693596454354"><ele>1873.4</ele><time>2026-03-22T16:50:32.798Z</time></trkpt><trkpt lat="21.862913703539263" lon="-102.33683864894601"><ele>1873.0</ele><time>2026-03-22T16:50:33.798Z</time></trkpt><trkpt lat="21.86297548158311" lon="-102.33673829908035"><ele>1873.0</ele><time>2026-03-22T16:50:34.797Z</time></trkpt><trkpt lat="21.86302652975034" lon="-102.33663801028871"><ele>1873.0</ele><time>2026-03-22T16:50:35.797Z</time></trkpt><trkpt lat="21.86308128741496" lon="-102.33652770475881"><ele>1873.0</ele><time>2026-03-22T16:50:36.797Z</time></trkpt><trkpt lat="21.863137907991998" lon="-102.33642341147535"><ele>1873.0</ele><time>2026-03-22T16:50:37.797Z</time></trkpt><trkpt lat="21.86318914316748" lon="-102.33630890851146"><ele>1872.0</ele><time>2026-03-22T16:50:38.797Z</time></trkpt><trkpt lat="21.86324416566701" lon="-102.3362005510553"><ele>1871.0</ele><time>2026-03-22T16:50:39.797Z</time></trkpt><trkpt lat="21.863304842784135" lon="-102.3360905445607"><ele>1870.0</ele><time>2026-03-22T16:50:40.797Z</time></trkpt><trkpt lat="21.863366469342452" lon="-102.33597896914605"><ele>1869.0</ele><time>2026-03-22T16:50:41.797Z</time></trkpt><trkpt lat="21.863424492436923" lon="-102.33587868153235"><ele>1868.0</ele><time>2026-03-22T16:50:42.797Z</time></trkpt><trkpt lat="21.863472794520888" lon="-102.33575571393307"><ele>1867.0</ele><time>2026-03-22T16:50:43.797Z</time></trkpt><trkpt lat="21.863523641872202" lon="-102.3356333843275"><ele>1866.0</ele><time>2026-03-22T16:50:44.797Z</time></trkpt><trkpt lat="21.86358194869958" lon="-102.33551504745166"><ele>1865.0</ele><time>2026-03-22T16:50:45.797Z</time></trkpt><trkpt lat="21.863634272354126" lon="-102.33541201057781"><ele>1864.1666666666665</ele><time>2026-03-22T16:50:46.797Z</time></trkpt><trkpt lat="21.863682660632012" lon="-102.33531734617826"><ele>1863.3333333333333</ele><time>2026-03-22T16:50:47.797Z</time></trkpt><trkpt lat="21.86373180609489" lon="-102.33521775887897"><ele>1862.5</ele><time>2026-03-22T16:50:48.797Z</time></trkpt><trkpt lat="21.863774815756912" lon="-102.33513383180339"><ele>1861.6666666666665</ele><time>2026-03-22T16:50:49.797Z</time></trkpt><trkpt lat="21.863810467509385" lon="-102.33506483427026"><ele>1860.8333333333333</ele><time>2026-03-22T16:50:50.797Z</time></trkpt><trkpt lat="21.863842150405016" lon="-102.33499234845084"><ele>1860.0</ele><time>2026-03-22T16:50:51.797Z</time></trkpt><trkpt lat="21.863856179084618" lon="-102.33490827656188"><ele>1860.0</ele><time>2026-03-22T16:50:52.797Z</time></trkpt><trkpt lat="21.863858399007793" lon="-102.33481376040417"><ele>1860.0</ele><time>2026-03-22T16:50:53.797Z</time></trkpt><trkpt lat="21.863826309936996" lon="-102.33471764692473"><ele>1860.0</ele><time>2026-03-22T16:50:54.797Z</time></trkpt><trkpt lat="21.863778654607522" lon="-102.33463357501451"><ele>1860.0</ele><time>2026-03-22T16:50:55.797Z</time></trkpt><trkpt lat="21.863718187013692" lon="-102.33455340159223"><ele>1860.0</ele><time>2026-03-22T16:50:56.797Z</time></trkpt><trkpt lat="21.863655373513524" lon="-102.33447664357145"><ele>1860.2</ele><time>2026-03-22T16:50:57.797Z</time></trkpt><trkpt lat="21.86359581053943" lon="-102.33438407689424"><ele>1860.4</ele><time>2026-03-22T16:50:58.797Z</time></trkpt><trkpt lat="21.863532122435483" lon="-102.33428795655172"><ele>1860.6</ele><time>2026-03-22T16:50:59.797Z</time></trkpt><trkpt lat="21.86346600812147" lon="-102.33418791533573"><ele>1860.8</ele><time>2026-03-22T16:51:00.797Z</time></trkpt><trkpt lat="21.863403387666327" lon="-102.33408962148395"><ele>1861.0</ele><time>2026-03-22T16:51:01.797Z</time></trkpt><trkpt lat="21.863341624629612" lon="-102.3339832328447"><ele>1860.5</ele><time>2026-03-22T16:51:02.797Z</time></trkpt><trkpt lat="21.86328614702161" lon="-102.33387472169673"><ele>1860.0</ele><time>2026-03-22T16:51:03.797Z</time></trkpt><trkpt lat="21.863233680574865" lon="-102.33376255639149"><ele>1859.5</ele><time>2026-03-22T16:51:04.797Z</time></trkpt><trkpt lat="21.86319166540534" lon="-102.33364429733803"><ele>1859.0</ele><time>2026-03-22T16:51:05.797Z</time></trkpt><trkpt lat="21.863153787046627" lon="-102.33352554928193"><ele>1859.0</ele><time>2026-03-22T16:51:06.797Z</time></trkpt><trkpt lat="21.863119544444107" lon="-102.33339880275977"><ele>1859.0</ele><time>2026-03-22T16:51:07.797Z</time></trkpt><trkpt lat="21.863087320436783" lon="-102.33326532393573"><ele>1859.0</ele><time>2026-03-22T16:51:08.797Z</time></trkpt><trkpt lat="21.86305800731808" lon="-102.33313222871732"><ele>1859.0</ele><time>2026-03-22T16:51:09.796Z</time></trkpt><trkpt lat="21.863032108203495" lon="-102.33299597373929"><ele>1857.5</ele><time>2026-03-22T16:51:10.796Z</time></trkpt><trkpt lat="21.863005708498207" lon="-102.33285060272317"><ele>1856.0</ele><time>2026-03-22T16:51:11.796Z</time></trkpt><trkpt lat="21.862981369639304" lon="-102.33270392405491"><ele>1854.5</ele><time>2026-03-22T16:51:12.796Z</time></trkpt><trkpt lat="21.862961211849466" lon="-102.33255857994023"><ele>1853.0</ele><time>2026-03-22T16:51:13.796Z</time></trkpt><trkpt lat="21.862941609838607" lon="-102.33240786993805"><ele>1853.0</ele><time>2026-03-22T16:51:14.796Z</time></trkpt><trkpt lat="21.862925847005748" lon="-102.3322577763549"><ele>1853.0</ele><time>2026-03-22T16:51:15.796Z</time></trkpt><trkpt lat="21.862905407328693" lon="-102.3321032003076"><ele>1853.0</ele><time>2026-03-22T16:51:16.796Z</time></trkpt><trkpt lat="21.862887597448104" lon="-102.3319518795182"><ele>1853.0</ele><time>2026-03-22T16:51:17.796Z</time></trkpt><trkpt lat="21.862872472844856" lon="-102.33180652654819"><ele>1852.75</ele><time>2026-03-22T16:51:18.796Z</time></trkpt><trkpt lat="21.862856600309122" lon="-102.33165926329904"><ele>1852.5</ele><time>2026-03-22T16:51:19.796Z</time></trkpt><trkpt lat="21.862839614467443" lon="-102.33151126762574"><ele>1852.25</ele><time>2026-03-22T16:51:20.796Z</time></trkpt><trkpt lat="21.862823530192557" lon="-102.33136153733768"><ele>1852.0</ele><time>2026-03-22T16:51:21.796Z</time></trkpt><trkpt lat="21.862803792189062" lon="-102.33120958322554"><ele>1851.5</ele><time>2026-03-22T16:51:22.796Z</time></trkpt><trkpt lat="21.86278669813461" lon="-102.33106554630965"><ele>1851.0</ele><time>2026-03-22T16:51:23.796Z</time></trkpt><trkpt lat="21.86276145918214" lon="-102.33091345041287"><ele>1850.5</ele><time>2026-03-22T16:51:24.796Z</time></trkpt><trkpt lat="21.862734801833337" lon="-102.33076959435552"><ele>1850.0</ele><time>2026-03-22T16:51:25.796Z</time></trkpt><trkpt lat="21.862712129605637" lon="-102.33061754231231"><ele>1849.0</ele><time>2026-03-22T16:51:26.796Z</time></trkpt><trkpt lat="21.862677406630624" lon="-102.33047724956813"><ele>1848.0</ele><time>2026-03-22T16:51:27.796Z</time></trkpt><trkpt lat="21.86266245938602" lon="-102.33032918081956"><ele>1847.0</ele><time>2026-03-22T16:51:28.796Z</time></trkpt><trkpt lat="21.86263434147884" lon="-102.33018950900366"><ele>1846.0</ele><time>2026-03-22T16:51:29.796Z</time></trkpt><trkpt lat="21.86262443341856" lon="-102.33005045088746"><ele>1846.0</ele><time>2026-03-22T16:51:30.796Z</time></trkpt><trkpt lat="21.8626188155588" lon="-102.32992213119367"><ele>1846.0</ele><time>2026-03-22T16:51:31.796Z</time></trkpt><trkpt lat="21.862595479483" lon="-102.32977843363072"><ele>1846.0</ele><time>2026-03-22T16:51:32.796Z</time></trkpt><trkpt lat="21.862582155320425" lon="-102.32965166441018"><ele>1846.0</ele><time>2026-03-22T16:51:33.796Z</time></trkpt><trkpt lat="21.86256923167086" lon="-102.3295256413474"><ele>1846.5</ele><time>2026-03-22T16:51:34.796Z</time></trkpt><trkpt lat="21.862550697301955" lon="-102.32939077854543"><ele>1847.0</ele><time>2026-03-22T16:51:35.796Z</time></trkpt><trkpt lat="21.86252485568933" lon="-102.32925567479393"><ele>1847.5</ele><time>2026-03-22T16:51:36.796Z</time></trkpt><trkpt lat="21.86250331052858" lon="-102.32913340392035"><ele>1848.0</ele><time>2026-03-22T16:51:37.796Z</time></trkpt><trkpt lat="21.862493575496266" lon="-102.32899529557805"><ele>1847.5</ele><time>2026-03-22T16:51:38.796Z</time></trkpt><trkpt lat="21.862481287800843" lon="-102.32886641597001"><ele>1847.0</ele><time>2026-03-22T16:51:39.796Z</time></trkpt><trkpt lat="21.8624648321705" lon="-102.32873955733683"><ele>1846.5</ele><time>2026-03-22T16:51:40.796Z</time></trkpt><trkpt lat="21.862449754715847" lon="-102.32861376350017"><ele>1846.0</ele><time>2026-03-22T16:51:41.796Z</time></trkpt><trkpt lat="21.86243468931207" lon="-102.32848722964218"><ele>1846.0</ele><time>2026-03-22T16:51:42.796Z</time></trkpt><trkpt lat="21.86242036658863" lon="-102.32835948980428"><ele>1846.0</ele><time>2026-03-22T16:51:43.796Z</time></trkpt><trkpt lat="21.862406808150485" lon="-102.32823898214926"><ele>1846.0</ele><time>2026-03-22T16:51:44.796Z</time></trkpt><trkpt lat="21.862388448640644" lon="-102.32810468976066"><ele>1846.0</ele><time>2026-03-22T16:51:45.795Z</time></trkpt><trkpt lat="21.8623765029319" lon="-102.32798204483936"><ele>1846.0</ele><time>2026-03-22T16:51:46.795Z</time></trkpt><trkpt lat="21.86236065001183" lon="-102.32785609056812"><ele>1846.0</ele><time>2026-03-22T16:51:47.795Z</time></trkpt><trkpt lat="21.86235203376227" lon="-102.32773642062547"><ele>1846.0</ele><time>2026-03-22T16:51:48.795Z</time></trkpt><trkpt lat="21.862333480749864" lon="-102.32760689128362"><ele>1846.0</ele><time>2026-03-22T16:51:49.795Z</time></trkpt><trkpt lat="21.86232128103637" lon="-102.3274795645984"><ele>1846.0</ele><time>2026-03-22T16:51:50.795Z</time></trkpt><trkpt lat="21.86230684752647" lon="-102.32735703786228"><ele>1846.0</ele><time>2026-03-22T16:51:51.795Z</time></trkpt><trkpt lat="21.862286836591284" lon="-102.32723338127103"><ele>1846.0</ele><time>2026-03-22T16:51:52.795Z</time></trkpt><trkpt lat="21.86227046517781" lon="-102.32711976203558"><ele>1846.0</ele><time>2026-03-22T16:51:53.795Z</time></trkpt><trkpt lat="21.862255642519752" lon="-102.32700131674517"><ele>1846.0</ele><time>2026-03-22T16:51:54.795Z</time></trkpt><trkpt lat="21.862251950825346" lon="-102.3268816446687"><ele>1846.1999999999998</ele><time>2026-03-22T16:51:55.795Z</time></trkpt><trkpt lat="21.862249319744038" lon="-102.32676342760101"><ele>1846.3999999999999</ele><time>2026-03-22T16:51:56.795Z</time></trkpt><trkpt lat="21.86224452259058" lon="-102.32664386466665"><ele>1846.6</ele><time>2026-03-22T16:51:57.795Z</time></trkpt><trkpt lat="21.862247127016072" lon="-102.32651940491334"><ele>1846.8</ele><time>2026-03-22T16:51:58.795Z</time></trkpt><trkpt lat="21.862249678259545" lon="-102.3263992390241"><ele>1847.0</ele><time>2026-03-22T16:51:59.795Z</time></trkpt><trkpt lat="21.862260325216187" lon="-102.32628064664348"><ele>1846.25</ele><time>2026-03-22T16:52:00.795Z</time></trkpt><trkpt lat="21.86227089792185" lon="-102.32616681096866"><ele>1845.5</ele><time>2026-03-22T16:52:01.795Z</time></trkpt><trkpt lat="21.86228684613673" lon="-102.32604225014573"><ele>1844.75</ele><time>2026-03-22T16:52:02.795Z</time></trkpt><trkpt lat="21.86230014590406" lon="-102.32592356695143"><ele>1844.0</ele><time>2026-03-22T16:52:03.795Z</time></trkpt><trkpt lat="21.86231632117368" lon="-102.32579905932181"><ele>1844.0</ele><time>2026-03-22T16:52:04.796Z</time></trkpt><trkpt lat="21.86234272529848" lon="-102.32567944920702"><ele>1844.0</ele><time>2026-03-22T16:52:05.795Z</time></trkpt><trkpt lat="21.862375186699566" lon="-102.32555979629112"><ele>1844.0</ele><time>2026-03-22T16:52:06.795Z</time></trkpt><trkpt lat="21.862410356423624" lon="-102.32543996757549"><ele>1844.0</ele><time>2026-03-22T16:52:07.796Z</time></trkpt><trkpt lat="21.86244236485346" lon="-102.3253179356746"><ele>1842.4</ele><time>2026-03-22T16:52:08.795Z</time></trkpt><trkpt lat="21.862462764474735" lon="-102.32521637310874"><ele>1840.8000000000002</ele><time>2026-03-22T16:52:09.795Z</time></trkpt><trkpt lat="21.862477798868028" lon="-102.32512204683076"><ele>1839.1999999999998</ele><time>2026-03-22T16:52:10.796Z</time></trkpt><trkpt lat="21.862479585771165" lon="-102.32503467035272"><ele>1837.6</ele><time>2026-03-22T16:52:11.796Z</time></trkpt><trkpt lat="21.862493924147255" lon="-102.32494023074693"><ele>1836.0</ele><time>2026-03-22T16:52:12.796Z</time></trkpt><trkpt lat="21.862525867368884" lon="-102.32484192072586"><ele>1836.0</ele><time>2026-03-22T16:52:13.795Z</time></trkpt><trkpt lat="21.862569983516394" lon="-102.32473414848695"><ele>1836.0</ele><time>2026-03-22T16:52:14.796Z</time></trkpt><trkpt lat="21.8626231346726" lon="-102.32463844053204"><ele>1836.0</ele><time>2026-03-22T16:52:15.796Z</time></trkpt><trkpt lat="21.862674901164382" lon="-102.32452800624354"><ele>1836.0</ele><time>2026-03-22T16:52:16.796Z</time></trkpt><trkpt lat="21.862724887404912" lon="-102.3244117353003"><ele>1836.0</ele><time>2026-03-22T16:52:17.795Z</time></trkpt><trkpt lat="21.862775420870182" lon="-102.32428540029733"><ele>1837.25</ele><time>2026-03-22T16:52:18.795Z</time></trkpt><trkpt lat="21.862832991183545" lon="-102.32416580898699"><ele>1838.5</ele><time>2026-03-22T16:52:19.795Z</time></trkpt><trkpt lat="21.86289061141663" lon="-102.32404221802287"><ele>1839.75</ele><time>2026-03-22T16:52:20.795Z</time></trkpt><trkpt lat="21.862951628583584" lon="-102.32392312014832"><ele>1841.0</ele><time>2026-03-22T16:52:21.795Z</time></trkpt><trkpt lat="21.863007748892333" lon="-102.32380056206559"><ele>1841.0</ele><time>2026-03-22T16:52:22.795Z</time></trkpt><trkpt lat="21.86305791882796" lon="-102.3236795420246"><ele>1841.0</ele><time>2026-03-22T16:52:23.795Z</time></trkpt><trkpt lat="21.863101093118246" lon="-102.32356400752964"><ele>1841.0</ele><time>2026-03-22T16:52:24.795Z</time></trkpt><trkpt lat="21.863102016034762" lon="-102.32344861288153"><ele>1841.0</ele><time>2026-03-22T16:52:25.795Z</time></trkpt><trkpt lat="21.863102071842675" lon="-102.32333547527088"><ele>1841.0</ele><time>2026-03-22T16:52:26.795Z</time></trkpt><trkpt lat="21.863122216582475" lon="-102.3232080542578"><ele>1841.0</ele><time>2026-03-22T16:52:27.795Z</time></trkpt><trkpt lat="21.863190419670506" lon="-102.32310285303708"><ele>1841.0</ele><time>2026-03-22T16:52:28.795Z</time></trkpt><trkpt lat="21.863295033846192" lon="-102.32302287851245"><ele>1841.0</ele><time>2026-03-22T16:52:29.795Z</time></trkpt><trkpt lat="21.863387102838026" lon="-102.32293268376817"><ele>1839.75</ele><time>2026-03-22T16:52:30.795Z</time></trkpt><trkpt lat="21.863466333691473" lon="-102.32282828339541"><ele>1838.5</ele><time>2026-03-22T16:52:31.795Z</time></trkpt><trkpt lat="21.86353404514074" lon="-102.32270798304951"><ele>1837.25</ele><time>2026-03-22T16:52:32.795Z</time></trkpt><trkpt lat="21.863584511105877" lon="-102.32258328910869"><ele>1836.0</ele><time>2026-03-22T16:52:33.795Z</time></trkpt><trkpt lat="21.863638763486602" lon="-102.32245867358564"><ele>1836.0</ele><time>2026-03-22T16:52:34.795Z</time></trkpt><trkpt lat="21.86368729004838" lon="-102.32232256387013"><ele>1836.0</ele><time>2026-03-22T16:52:35.795Z</time></trkpt><trkpt lat="21.863735053414963" lon="-102.3221959471663"><ele>1836.0</ele><time>2026-03-22T16:52:36.795Z</time></trkpt><trkpt lat="21.863776561189578" lon="-102.32207419077163"><ele>1836.0</ele><time>2026-03-22T16:52:37.795Z</time></trkpt><trkpt lat="21.863806290836425" lon="-102.32196827491725"><ele>1835.8333333333333</ele><time>2026-03-22T16:52:38.795Z</time></trkpt><trkpt lat="21.863801391078137" lon="-102.32188969448391"><ele>1835.6666666666665</ele><time>2026-03-22T16:52:39.795Z</time></trkpt><trkpt lat="21.86375597227834" lon="-102.32182095539454"><ele>1835.5</ele><time>2026-03-22T16:52:40.795Z</time></trkpt><trkpt lat="21.863694716012468" lon="-102.32178357329435"><ele>1835.3333333333333</ele><time>2026-03-22T16:52:41.795Z</time></trkpt><trkpt lat="21.863598152939165" lon="-102.32178956036505"><ele>1835.1666666666665</ele><time>2026-03-22T16:52:43.795Z</time></trkpt><trkpt lat="21.863510956814427" lon="-102.3218285270169"><ele>1835.0</ele><time>2026-03-22T16:52:45.794Z</time></trkpt><trkpt lat="21.863426751407783" lon="-102.32181949838527"><ele>1834.9999999999998</ele><time>2026-03-22T16:52:47.794Z</time></trkpt><trkpt lat="21.86334643008477" lon="-102.32178337499961"><ele>1835.0</ele><time>2026-03-22T16:52:49.794Z</time></trkpt><trkpt lat="21.863293599550612" lon="-102.32172526553757"><ele>1835.0</ele><time>2026-03-22T16:52:51.794Z</time></trkpt><trkpt lat="21.86324959805997" lon="-102.32164786481358"><ele>1835.0</ele><time>2026-03-22T16:52:53.794Z</time></trkpt><trkpt lat="21.86324917605736" lon="-102.32155562193176"><ele>1834.9999999999998</ele><time>2026-03-22T16:52:55.794Z</time></trkpt><trkpt lat="21.863248291495538" lon="-102.32147679869244"><ele>1835.0</ele><time>2026-03-22T16:52:57.794Z</time></trkpt><trkpt lat="21.863265824797683" lon="-102.32139182036086"><ele>1835.3333333333333</ele><time>2026-03-22T16:52:59.794Z</time></trkpt><trkpt lat="21.863277783715546" lon="-102.32131299017288"><ele>1835.6666666666665</ele><time>2026-03-22T16:53:01.794Z</time></trkpt><trkpt lat="21.863289809708924" lon="-102.32121636904743"><ele>1836.0</ele><time>2026-03-22T16:53:04.794Z</time></trkpt><trkpt lat="21.863290132355985" lon="-102.3211202349729"><ele>1836.3333333333335</ele><time>2026-03-22T16:53:07.794Z</time></trkpt><trkpt lat="21.863299456062492" lon="-102.3210445080543"><ele>1836.6666666666667</ele><time>2026-03-22T16:53:10.794Z</time></trkpt><trkpt lat="21.86333565002965" lon="-102.32097857815126"><ele>1837.0</ele><time>2026-03-22T16:53:13.794Z</time></trkpt><trkpt lat="21.863376120386086" lon="-102.3209249182445"><ele>1837.0</ele><time>2026-03-22T16:53:16.794Z</time></trkpt><trkpt lat="21.863403714561937" lon="-102.32085050002476"><ele>1837.0000000000002</ele><time>2026-03-22T16:53:27.793Z</time></trkpt><trkpt lat="21.863443437223083" lon="-102.32079171998171"><ele>1837.0</ele><time>2026-03-22T16:53:35.793Z</time></trkpt><trkpt lat="21.86347086230064" lon="-102.32072127308402"><ele>1837.0</ele><time>2026-03-22T16:53:44.793Z</time></trkpt><trkpt lat="21.863489231114716" lon="-102.32065281949095"><ele>1837.0000000000002</ele><time>2026-03-22T16:53:50.793Z</time></trkpt><trkpt lat="21.86349403694541" lon="-102.3205795561415"><ele>1837.0</ele><time>2026-03-22T16:54:02.792Z</time></trkpt><trkpt lat="21.863488569629148" lon="-102.32050934272439"><ele>1837.0</ele><time>2026-03-22T16:54:16.793Z</time></trkpt><trkpt lat="21.863441277473047" lon="-102.32046186384724"><ele>1839.0</ele><time>2026-03-22T16:54:38.793Z</time></trkpt><trkpt lat="21.863390163570124" lon="-102.32041926721917"><ele>1839.0</ele><time>2026-03-22T16:54:50.792Z</time></trkpt><trkpt lat="21.86328049387223" lon="-102.32047250405986"><ele>1839.0</ele><time>2026-03-22T16:55:43.791Z</time></trkpt><trkpt lat="21.86317392760323" lon="-102.32048416588968"><ele>1839.0</ele><time>2026-03-22T16:56:13.79Z</time></trkpt><trkpt lat="21.863156969667084" lon="-102.32055111351812"><ele>1839.0</ele><time>2026-03-22T17:00:58.785Z</time></trkpt></trkseg></trk></gpx>